<?xml version="1.0" encoding="UTF-8"?>
<TrainingCenterDatabase xmlns="http://www.garmin.com/xmlschemas/TrainingCenterDatabase/v2" xmlns:xsi="http://www.w3.org/2001/XMLSchema-instance" xsi:schemaLocation="http://www.garmin.com/xmlschemas/TrainingCenterDatabase/v2 http://www.garmin.com/xmlschemas/TrainingCenterDatabasev2.xsd">
  <Activities>
    <Activity Sport="Other">
      <Id>2021-09-26T07:14:08.000Z</Id>
      <Lap StartTime="2021-09-26T07:14:08.000Z">
        <TotalTimeSeconds>17042</TotalTimeSeconds>
        <DistanceMeters>42720</DistanceMeters>
        <Track>
          <Trackpoint>
            <Time>2021-09-26T07:14:08.000Z</Time>
            <Position>
              <LatitudeDegrees>40.43977453373372554779052734375</LatitudeDegrees>
              <LongitudeDegrees>-3.69126048870384693145751953125</LongitudeDegrees>
            </Position>
            <AltitudeMeters>679.79998779296875</AltitudeMeters>
            <DistanceMeters>0</DistanceMeters>
          </Trackpoint>
          <Trackpoint>
            <Time>2021-09-26T07:14:09.000Z</Time>
            <Position>
              <LatitudeDegrees>40.43979984708130359649658203125</LatitudeDegrees>
              <LongitudeDegrees>-3.69126752950251102447509765625</LongitudeDegrees>
            </Position>
            <AltitudeMeters>679.79998779296875</AltitudeMeters>
            <DistanceMeters>2.8791683131679</DistanceMeters>
          </Trackpoint>
          <Trackpoint>
            <Time>2021-09-26T07:14:14.000Z</Time>
            <Position>
              <LatitudeDegrees>40.43992239050567150115966796875</LatitudeDegrees>
              <LongitudeDegrees>-3.69131044484674930572509765625</LongitudeDegrees>
            </Position>
            <AltitudeMeters>679.4000244140625</AltitudeMeters>
            <DistanceMeters>16.994714237288</DistanceMeters>
          </Trackpoint>
          <Trackpoint>
            <Time>2021-09-26T07:14:18.000Z</Time>
            <Position>
              <LatitudeDegrees>40.4400215484201908111572265625</LatitudeDegrees>
              <LongitudeDegrees>-3.69134162552654743194580078125</LongitudeDegrees>
            </Position>
            <AltitudeMeters>679</AltitudeMeters>
            <DistanceMeters>28.342750198072</DistanceMeters>
          </Trackpoint>
          <Trackpoint>
            <Time>2021-09-26T07:14:21.000Z</Time>
            <Position>
              <LatitudeDegrees>40.440101511776447296142578125</LatitudeDegrees>
              <LongitudeDegrees>-3.6913557909429073333740234375</LongitudeDegrees>
            </Position>
            <AltitudeMeters>678.79998779296875</AltitudeMeters>
            <DistanceMeters>37.32365453992</DistanceMeters>
          </Trackpoint>
          <Trackpoint>
            <Time>2021-09-26T07:14:22.000Z</Time>
            <Position>
              <LatitudeDegrees>40.44012598693370819091796875</LatitudeDegrees>
              <LongitudeDegrees>-3.69136157445609569549560546875</LongitudeDegrees>
            </Position>
            <AltitudeMeters>678.5999755859375</AltitudeMeters>
            <DistanceMeters>40.092505366692</DistanceMeters>
          </Trackpoint>
          <Trackpoint>
            <Time>2021-09-26T07:14:23.000Z</Time>
            <Position>
              <LatitudeDegrees>40.44014786370098590850830078125</LatitudeDegrees>
              <LongitudeDegrees>-3.69136710651218891143798828125</LongitudeDegrees>
            </Position>
            <AltitudeMeters>678.5999755859375</AltitudeMeters>
            <DistanceMeters>42.570498906209</DistanceMeters>
          </Trackpoint>
          <Trackpoint>
            <Time>2021-09-26T07:14:25.000Z</Time>
            <Position>
              <LatitudeDegrees>40.44019966386258602142333984375</LatitudeDegrees>
              <LongitudeDegrees>-3.69137934409081935882568359375</LongitudeDegrees>
            </Position>
            <AltitudeMeters>678.5999755859375</AltitudeMeters>
            <DistanceMeters>48.428338993394</DistanceMeters>
          </Trackpoint>
          <Trackpoint>
            <Time>2021-09-26T07:14:27.000Z</Time>
            <Position>
              <LatitudeDegrees>40.440247356891632080078125</LatitudeDegrees>
              <LongitudeDegrees>-3.6913861334323883056640625</LongitudeDegrees>
            </Position>
            <AltitudeMeters>678.5999755859375</AltitudeMeters>
            <DistanceMeters>53.766777084926</DistanceMeters>
          </Trackpoint>
          <Trackpoint>
            <Time>2021-09-26T07:14:29.000Z</Time>
            <Position>
              <LatitudeDegrees>40.44030091725289821624755859375</LatitudeDegrees>
              <LongitudeDegrees>-3.69140096940100193023681640625</LongitudeDegrees>
            </Position>
            <AltitudeMeters>678.5999755859375</AltitudeMeters>
            <DistanceMeters>59.85887148543</DistanceMeters>
          </Trackpoint>
          <Trackpoint>
            <Time>2021-09-26T07:14:33.000Z</Time>
            <Position>
              <LatitudeDegrees>40.44041357003152370452880859375</LatitudeDegrees>
              <LongitudeDegrees>-3.69142963550984859466552734375</LongitudeDegrees>
            </Position>
            <AltitudeMeters>678.5999755859375</AltitudeMeters>
            <DistanceMeters>72.629981097784</DistanceMeters>
          </Trackpoint>
          <Trackpoint>
            <Time>2021-09-26T07:14:40.000Z</Time>
            <Position>
              <LatitudeDegrees>40.4405838064849376678466796875</LatitudeDegrees>
              <LongitudeDegrees>-3.691468276083469390869140625</LongitudeDegrees>
            </Position>
            <AltitudeMeters>679.4000244140625</AltitudeMeters>
            <DistanceMeters>91.858279252367</DistanceMeters>
          </Trackpoint>
          <Trackpoint>
            <Time>2021-09-26T07:14:48.000Z</Time>
            <Position>
              <LatitudeDegrees>40.44078421778976917266845703125</LatitudeDegrees>
              <LongitudeDegrees>-3.6914962716400623321533203125</LongitudeDegrees>
            </Position>
            <AltitudeMeters>681.20001220703125</AltitudeMeters>
            <DistanceMeters>114.29022031335</DistanceMeters>
          </Trackpoint>
          <Trackpoint>
            <Time>2021-09-26T07:14:56.000Z</Time>
            <Position>
              <LatitudeDegrees>40.44098404236137866973876953125</LatitudeDegrees>
              <LongitudeDegrees>-3.69150658138096332550048828125</LongitudeDegrees>
            </Position>
            <AltitudeMeters>681.79998779296875</AltitudeMeters>
            <DistanceMeters>136.54838991513</DistanceMeters>
          </Trackpoint>
          <Trackpoint>
            <Time>2021-09-26T07:15:01.000Z</Time>
            <Position>
              <LatitudeDegrees>40.44111245311796665191650390625</LatitudeDegrees>
              <LongitudeDegrees>-3.69150741957128047943115234375</LongitudeDegrees>
            </Position>
            <AltitudeMeters>681.79998779296875</AltitudeMeters>
            <DistanceMeters>150.84098902499</DistanceMeters>
          </Trackpoint>
          <Trackpoint>
            <Time>2021-09-26T07:15:09.000Z</Time>
            <Position>
              <LatitudeDegrees>40.441315211355686187744140625</LatitudeDegrees>
              <LongitudeDegrees>-3.6915297992527484893798828125</LongitudeDegrees>
            </Position>
            <AltitudeMeters>681.5999755859375</AltitudeMeters>
            <DistanceMeters>173.4876713805</DistanceMeters>
          </Trackpoint>
          <Trackpoint>
            <Time>2021-09-26T07:15:14.000Z</Time>
            <Position>
              <LatitudeDegrees>40.44144571758806705474853515625</LatitudeDegrees>
              <LongitudeDegrees>-3.691535331308841705322265625</LongitudeDegrees>
            </Position>
            <AltitudeMeters>683</AltitudeMeters>
            <DistanceMeters>188.02054645558</DistanceMeters>
          </Trackpoint>
          <Trackpoint>
            <Time>2021-09-26T07:15:15.000Z</Time>
            <Position>
              <LatitudeDegrees>40.44146801345050334930419921875</LatitudeDegrees>
              <LongitudeDegrees>-3.69153725914657115936279296875</LongitudeDegrees>
            </Position>
            <AltitudeMeters>683.20001220703125</AltitudeMeters>
            <DistanceMeters>190.50763357993</DistanceMeters>
          </Trackpoint>
          <Trackpoint>
            <Time>2021-09-26T07:15:18.000Z</Time>
            <Position>
              <LatitudeDegrees>40.44154060073196887969970703125</LatitudeDegrees>
              <LongitudeDegrees>-3.69154077954590320587158203125</LongitudeDegrees>
            </Position>
            <AltitudeMeters>684</AltitudeMeters>
            <DistanceMeters>198.59216778428</DistanceMeters>
          </Trackpoint>
          <Trackpoint>
            <Time>2021-09-26T07:15:20.000Z</Time>
            <Position>
              <LatitudeDegrees>40.44158720411360263824462890625</LatitudeDegrees>
              <LongitudeDegrees>-3.69154027663171291351318359375</LongitudeDegrees>
            </Position>
            <AltitudeMeters>684.5999755859375</AltitudeMeters>
            <DistanceMeters>203.77874639899</DistanceMeters>
          </Trackpoint>
          <Trackpoint>
            <Time>2021-09-26T07:15:23.000Z</Time>
            <Position>
              <LatitudeDegrees>40.44165962375700473785400390625</LatitudeDegrees>
              <LongitudeDegrees>-3.691550754010677337646484375</LongitudeDegrees>
            </Position>
            <AltitudeMeters>685.4000244140625</AltitudeMeters>
            <DistanceMeters>211.88781642365</DistanceMeters>
          </Trackpoint>
          <Trackpoint>
            <Time>2021-09-26T07:15:27.000Z</Time>
            <Position>
              <LatitudeDegrees>40.44175668619573116302490234375</LatitudeDegrees>
              <LongitudeDegrees>-3.6915532685816287994384765625</LongitudeDegrees>
            </Position>
            <AltitudeMeters>686</AltitudeMeters>
            <DistanceMeters>222.69331911535</DistanceMeters>
          </Trackpoint>
          <Trackpoint>
            <Time>2021-09-26T07:15:30.000Z</Time>
            <Position>
              <LatitudeDegrees>40.4418276809155941009521484375</LatitudeDegrees>
              <LongitudeDegrees>-3.691556118428707122802734375</LongitudeDegrees>
            </Position>
            <AltitudeMeters>686.4000244140625</AltitudeMeters>
            <DistanceMeters>230.59883358745</DistanceMeters>
          </Trackpoint>
          <Trackpoint>
            <Time>2021-09-26T07:15:33.000Z</Time>
            <Position>
              <LatitudeDegrees>40.44190085493028163909912109375</LatitudeDegrees>
              <LongitudeDegrees>-3.6915536038577556610107421875</LongitudeDegrees>
            </Position>
            <AltitudeMeters>687</AltitudeMeters>
            <DistanceMeters>238.74678560106</DistanceMeters>
          </Trackpoint>
          <Trackpoint>
            <Time>2021-09-26T07:15:41.000Z</Time>
            <Position>
              <LatitudeDegrees>40.44209162704646587371826171875</LatitudeDegrees>
              <LongitudeDegrees>-3.69152300991117954254150390625</LongitudeDegrees>
            </Position>
            <AltitudeMeters>688.79998779296875</AltitudeMeters>
            <DistanceMeters>260.13771904419</DistanceMeters>
          </Trackpoint>
          <Trackpoint>
            <Time>2021-09-26T07:15:49.000Z</Time>
            <Position>
              <LatitudeDegrees>40.44227770529687404632568359375</LatitudeDegrees>
              <LongitudeDegrees>-3.69151596911251544952392578125</LongitudeDegrees>
            </Position>
            <AltitudeMeters>688.79998779296875</AltitudeMeters>
            <DistanceMeters>280.85702970227</DistanceMeters>
          </Trackpoint>
          <Trackpoint>
            <Time>2021-09-26T07:15:51.000Z</Time>
            <Position>
              <LatitudeDegrees>40.4423242248594760894775390625</LatitudeDegrees>
              <LongitudeDegrees>-3.6915204115211963653564453125</LongitudeDegrees>
            </Position>
            <AltitudeMeters>688.4000244140625</AltitudeMeters>
            <DistanceMeters>286.04969840551</DistanceMeters>
          </Trackpoint>
          <Trackpoint>
            <Time>2021-09-26T07:15:59.000Z</Time>
            <Position>
              <LatitudeDegrees>40.4425263963639736175537109375</LatitudeDegrees>
              <LongitudeDegrees>-3.6915113590657711029052734375</LongitudeDegrees>
            </Position>
            <AltitudeMeters>687.4000244140625</AltitudeMeters>
            <DistanceMeters>308.56481402616</DistanceMeters>
          </Trackpoint>
          <Trackpoint>
            <Time>2021-09-26T07:16:06.000Z</Time>
            <Position>
              <LatitudeDegrees>40.44269948266446590423583984375</LatitudeDegrees>
              <LongitudeDegrees>-3.69149501435458660125732421875</LongitudeDegrees>
            </Position>
            <AltitudeMeters>688.5999755859375</AltitudeMeters>
            <DistanceMeters>327.87932976052</DistanceMeters>
          </Trackpoint>
          <Trackpoint>
            <Time>2021-09-26T07:16:14.000Z</Time>
            <Position>
              <LatitudeDegrees>40.44288924895226955413818359375</LatitudeDegrees>
              <LongitudeDegrees>-3.69148076511919498443603515625</LongitudeDegrees>
            </Position>
            <AltitudeMeters>689.79998779296875</AltitudeMeters>
            <DistanceMeters>349.03531564975</DistanceMeters>
          </Trackpoint>
          <Trackpoint>
            <Time>2021-09-26T07:16:15.000Z</Time>
            <Position>
              <LatitudeDegrees>40.44290877878665924072265625</LatitudeDegrees>
              <LongitudeDegrees>-3.69147690944373607635498046875</LongitudeDegrees>
            </Position>
            <AltitudeMeters>690</AltitudeMeters>
            <DistanceMeters>351.23328992109</DistanceMeters>
          </Trackpoint>
          <Trackpoint>
            <Time>2021-09-26T07:16:23.000Z</Time>
            <Position>
              <LatitudeDegrees>40.44309846125543117523193359375</LatitudeDegrees>
              <LongitudeDegrees>-3.69146115146577358245849609375</LongitudeDegrees>
            </Position>
            <AltitudeMeters>691.20001220703125</AltitudeMeters>
            <DistanceMeters>372.38778184149</DistanceMeters>
          </Trackpoint>
          <Trackpoint>
            <Time>2021-09-26T07:16:26.000Z</Time>
            <Position>
              <LatitudeDegrees>40.4431634210050106048583984375</LatitudeDegrees>
              <LongitudeDegrees>-3.691451847553253173828125</LongitudeDegrees>
            </Position>
            <AltitudeMeters>691.79998779296875</AltitudeMeters>
            <DistanceMeters>379.66089587941</DistanceMeters>
          </Trackpoint>
          <Trackpoint>
            <Time>2021-09-26T07:16:34.000Z</Time>
            <Position>
              <LatitudeDegrees>40.4433424584567546844482421875</LatitudeDegrees>
              <LongitudeDegrees>-3.691409938037395477294921875</LongitudeDegrees>
            </Position>
            <AltitudeMeters>693.20001220703125</AltitudeMeters>
            <DistanceMeters>399.9018091064</DistanceMeters>
          </Trackpoint>
          <Trackpoint>
            <Time>2021-09-26T07:16:35.000Z</Time>
            <Position>
              <LatitudeDegrees>40.44336550869047641754150390625</LatitudeDegrees>
              <LongitudeDegrees>-3.69140625</LongitudeDegrees>
            </Position>
            <AltitudeMeters>693.4000244140625</AltitudeMeters>
            <DistanceMeters>402.48856124856</DistanceMeters>
          </Trackpoint>
          <Trackpoint>
            <Time>2021-09-26T07:16:41.000Z</Time>
            <Position>
              <LatitudeDegrees>40.443493835628032684326171875</LatitudeDegrees>
              <LongitudeDegrees>-3.69140197522938251495361328125</LongitudeDegrees>
            </Position>
            <AltitudeMeters>694</AltitudeMeters>
            <DistanceMeters>416.77610505749</DistanceMeters>
          </Trackpoint>
          <Trackpoint>
            <Time>2021-09-26T07:16:48.000Z</Time>
            <Position>
              <LatitudeDegrees>40.4436576180160045623779296875</LatitudeDegrees>
              <LongitudeDegrees>-3.69138973765075206756591796875</LongitudeDegrees>
            </Position>
            <AltitudeMeters>694.20001220703125</AltitudeMeters>
            <DistanceMeters>435.03508702011</DistanceMeters>
          </Trackpoint>
          <Trackpoint>
            <Time>2021-09-26T07:16:56.000Z</Time>
            <Position>
              <LatitudeDegrees>40.4438467137515544891357421875</LatitudeDegrees>
              <LongitudeDegrees>-3.6913780868053436279296875</LongitudeDegrees>
            </Position>
            <AltitudeMeters>694.4000244140625</AltitudeMeters>
            <DistanceMeters>456.10489048711</DistanceMeters>
          </Trackpoint>
          <Trackpoint>
            <Time>2021-09-26T07:16:59.000Z</Time>
            <Position>
              <LatitudeDegrees>40.443914942443370819091796875</LatitudeDegrees>
              <LongitudeDegrees>-3.69137565605342388153076171875</LongitudeDegrees>
            </Position>
            <AltitudeMeters>695</AltitudeMeters>
            <DistanceMeters>463.70168050351</DistanceMeters>
          </Trackpoint>
          <Trackpoint>
            <Time>2021-09-26T07:17:07.000Z</Time>
            <Position>
              <LatitudeDegrees>40.444104038178920745849609375</LatitudeDegrees>
              <LongitudeDegrees>-3.6913645081222057342529296875</LongitudeDegrees>
            </Position>
            <AltitudeMeters>696.4000244140625</AltitudeMeters>
            <DistanceMeters>484.76934096626</DistanceMeters>
          </Trackpoint>
          <Trackpoint>
            <Time>2021-09-26T07:17:15.000Z</Time>
            <Position>
              <LatitudeDegrees>40.4443043656647205352783203125</LatitudeDegrees>
              <LongitudeDegrees>-3.69135302491486072540283203125</LongitudeDegrees>
            </Position>
            <AltitudeMeters>698</AltitudeMeters>
            <DistanceMeters>507.08747298149</DistanceMeters>
          </Trackpoint>
          <Trackpoint>
            <Time>2021-09-26T07:17:18.000Z</Time>
            <Position>
              <LatitudeDegrees>40.4443798027932643890380859375</LatitudeDegrees>
              <LongitudeDegrees>-3.69134564884006977081298828125</LongitudeDegrees>
            </Position>
            <AltitudeMeters>698.4000244140625</AltitudeMeters>
            <DistanceMeters>515.50686132536</DistanceMeters>
          </Trackpoint>
          <Trackpoint>
            <Time>2021-09-26T07:17:26.000Z</Time>
            <Position>
              <LatitudeDegrees>40.4445648752152919769287109375</LatitudeDegrees>
              <LongitudeDegrees>-3.69133651256561279296875</LongitudeDegrees>
            </Position>
            <AltitudeMeters>698.79998779296875</AltitudeMeters>
            <DistanceMeters>536.12021251023</DistanceMeters>
          </Trackpoint>
          <Trackpoint>
            <Time>2021-09-26T07:17:34.000Z</Time>
            <Position>
              <LatitudeDegrees>40.444744415581226348876953125</LatitudeDegrees>
              <LongitudeDegrees>-3.6912997998297214508056640625</LongitudeDegrees>
            </Position>
            <AltitudeMeters>698.5999755859375</AltitudeMeters>
            <DistanceMeters>556.34394244257</DistanceMeters>
          </Trackpoint>
          <Trackpoint>
            <Time>2021-09-26T07:17:43.000Z</Time>
            <Position>
              <LatitudeDegrees>40.44494046829640865325927734375</LatitudeDegrees>
              <LongitudeDegrees>-3.6912696249783039093017578125</LongitudeDegrees>
            </Position>
            <AltitudeMeters>697.20001220703125</AltitudeMeters>
            <DistanceMeters>578.31423388888</DistanceMeters>
          </Trackpoint>
          <Trackpoint>
            <Time>2021-09-26T07:17:44.000Z</Time>
            <Position>
              <LatitudeDegrees>40.4449662007391452789306640625</LatitudeDegrees>
              <LongitudeDegrees>-3.69126266799867153167724609375</LongitudeDegrees>
            </Position>
            <AltitudeMeters>697.20001220703125</AltitudeMeters>
            <DistanceMeters>581.23698128063</DistanceMeters>
          </Trackpoint>
          <Trackpoint>
            <Time>2021-09-26T07:17:52.000Z</Time>
            <Position>
              <LatitudeDegrees>40.44516359455883502960205078125</LatitudeDegrees>
              <LongitudeDegrees>-3.691231571137905120849609375</LongitudeDegrees>
            </Position>
            <AltitudeMeters>695.79998779296875</AltitudeMeters>
            <DistanceMeters>603.36474291666</DistanceMeters>
          </Trackpoint>
          <Trackpoint>
            <Time>2021-09-26T07:18:00.000Z</Time>
            <Position>
              <LatitudeDegrees>40.44535151682794094085693359375</LatitudeDegrees>
              <LongitudeDegrees>-3.6912146396934986114501953125</LongitudeDegrees>
            </Position>
            <AltitudeMeters>694.4000244140625</AltitudeMeters>
            <DistanceMeters>624.33014300791</DistanceMeters>
          </Trackpoint>
          <Trackpoint>
            <Time>2021-09-26T07:18:02.000Z</Time>
            <Position>
              <LatitudeDegrees>40.44539577327668666839599609375</LatitudeDegrees>
              <LongitudeDegrees>-3.6912119574844837188720703125</LongitudeDegrees>
            </Position>
            <AltitudeMeters>694.20001220703125</AltitudeMeters>
            <DistanceMeters>629.26055534231</DistanceMeters>
          </Trackpoint>
          <Trackpoint>
            <Time>2021-09-26T07:18:09.000Z</Time>
            <Position>
              <LatitudeDegrees>40.44554731808602809906005859375</LatitudeDegrees>
              <LongitudeDegrees>-3.6912169866263866424560546875</LongitudeDegrees>
            </Position>
            <AltitudeMeters>693.5999755859375</AltitudeMeters>
            <DistanceMeters>646.13308301223</DistanceMeters>
          </Trackpoint>
          <Trackpoint>
            <Time>2021-09-26T07:18:16.000Z</Time>
            <Position>
              <LatitudeDegrees>40.44569869525730609893798828125</LatitudeDegrees>
              <LongitudeDegrees>-3.69120080955326557159423828125</LongitudeDegrees>
            </Position>
            <AltitudeMeters>693.4000244140625</AltitudeMeters>
            <DistanceMeters>663.03715763915</DistanceMeters>
          </Trackpoint>
          <Trackpoint>
            <Time>2021-09-26T07:18:23.000Z</Time>
            <Position>
              <LatitudeDegrees>40.4458652436733245849609375</LatitudeDegrees>
              <LongitudeDegrees>-3.6911777593195438385009765625</LongitudeDegrees>
            </Position>
            <AltitudeMeters>693.4000244140625</AltitudeMeters>
            <DistanceMeters>681.67693288613</DistanceMeters>
          </Trackpoint>
          <Trackpoint>
            <Time>2021-09-26T07:18:30.000Z</Time>
            <Position>
              <LatitudeDegrees>40.44605291448533535003662109375</LatitudeDegrees>
              <LongitudeDegrees>-3.6911418847739696502685546875</LongitudeDegrees>
            </Position>
            <AltitudeMeters>693.4000244140625</AltitudeMeters>
            <DistanceMeters>702.78527322586</DistanceMeters>
          </Trackpoint>
          <Trackpoint>
            <Time>2021-09-26T07:18:32.000Z</Time>
            <Position>
              <LatitudeDegrees>40.44609884731471538543701171875</LatitudeDegrees>
              <LongitudeDegrees>-3.69114213623106479644775390625</LongitudeDegrees>
            </Position>
            <AltitudeMeters>693.20001220703125</AltitudeMeters>
            <DistanceMeters>707.89732185912</DistanceMeters>
          </Trackpoint>
          <Trackpoint>
            <Time>2021-09-26T07:18:41.000Z</Time>
            <Position>
              <LatitudeDegrees>40.44631208293139934539794921875</LatitudeDegrees>
              <LongitudeDegrees>-3.691129647195339202880859375</LongitudeDegrees>
            </Position>
            <AltitudeMeters>693.79998779296875</AltitudeMeters>
            <DistanceMeters>731.65438055545</DistanceMeters>
          </Trackpoint>
          <Trackpoint>
            <Time>2021-09-26T07:18:48.000Z</Time>
            <Position>
              <LatitudeDegrees>40.44649464078247547149658203125</LatitudeDegrees>
              <LongitudeDegrees>-3.69115269742906093597412109375</LongitudeDegrees>
            </Position>
            <AltitudeMeters>698.5999755859375</AltitudeMeters>
            <DistanceMeters>752.06677353808</DistanceMeters>
          </Trackpoint>
          <Trackpoint>
            <Time>2021-09-26T07:18:51.000Z</Time>
            <Position>
              <LatitudeDegrees>40.4465653002262115478515625</LatitudeDegrees>
              <LongitudeDegrees>-3.6911474168300628662109375</LongitudeDegrees>
            </Position>
            <AltitudeMeters>700.5999755859375</AltitudeMeters>
            <DistanceMeters>759.94425316819</DistanceMeters>
          </Trackpoint>
          <Trackpoint>
            <Time>2021-09-26T07:18:59.000Z</Time>
            <Position>
              <LatitudeDegrees>40.44675146229565143585205078125</LatitudeDegrees>
              <LongitudeDegrees>-3.69114674627780914306640625</LongitudeDegrees>
            </Position>
            <AltitudeMeters>705.79998779296875</AltitudeMeters>
            <DistanceMeters>780.66487127202</DistanceMeters>
          </Trackpoint>
          <Trackpoint>
            <Time>2021-09-26T07:19:00.000Z</Time>
            <Position>
              <LatitudeDegrees>40.4467649571597576141357421875</LatitudeDegrees>
              <LongitudeDegrees>-3.69114481844007968902587890625</LongitudeDegrees>
            </Position>
            <AltitudeMeters>706.20001220703125</AltitudeMeters>
            <DistanceMeters>782.1733735968</DistanceMeters>
          </Trackpoint>
          <Trackpoint>
            <Time>2021-09-26T07:19:07.000Z</Time>
            <Position>
              <LatitudeDegrees>40.4469004087150096893310546875</LatitudeDegrees>
              <LongitudeDegrees>-3.69115940295159816741943359375</LongitudeDegrees>
            </Position>
            <AltitudeMeters>709.79998779296875</AltitudeMeters>
            <DistanceMeters>797.2999431687</DistanceMeters>
          </Trackpoint>
          <Trackpoint>
            <Time>2021-09-26T07:19:15.000Z</Time>
            <Position>
              <LatitudeDegrees>40.44708506204187870025634765625</LatitudeDegrees>
              <LongitudeDegrees>-3.69115370325744152069091796875</LongitudeDegrees>
            </Position>
            <AltitudeMeters>716</AltitudeMeters>
            <DistanceMeters>817.85802352185</DistanceMeters>
          </Trackpoint>
          <Trackpoint>
            <Time>2021-09-26T07:19:23.000Z</Time>
            <Position>
              <LatitudeDegrees>40.44726728461682796478271484375</LatitudeDegrees>
              <LongitudeDegrees>-3.6911418847739696502685546875</LongitudeDegrees>
            </Position>
            <AltitudeMeters>717.5999755859375</AltitudeMeters>
            <DistanceMeters>838.16441194366</DistanceMeters>
          </Trackpoint>
          <Trackpoint>
            <Time>2021-09-26T07:19:25.000Z</Time>
            <Position>
              <LatitudeDegrees>40.44730349443852901458740234375</LatitudeDegrees>
              <LongitudeDegrees>-3.69113777764141559600830078125</LongitudeDegrees>
            </Position>
            <AltitudeMeters>717</AltitudeMeters>
            <DistanceMeters>842.20947047431</DistanceMeters>
          </Trackpoint>
          <Trackpoint>
            <Time>2021-09-26T07:19:33.000Z</Time>
            <Position>
              <LatitudeDegrees>40.44748923741281032562255859375</LatitudeDegrees>
              <LongitudeDegrees>-3.69112319312989711761474609375</LongitudeDegrees>
            </Position>
            <AltitudeMeters>714</AltitudeMeters>
            <DistanceMeters>862.9200627181</DistanceMeters>
          </Trackpoint>
          <Trackpoint>
            <Time>2021-09-26T07:19:36.000Z</Time>
            <Position>
              <LatitudeDegrees>40.447566099464893341064453125</LatitudeDegrees>
              <LongitudeDegrees>-3.6911080218851566314697265625</LongitudeDegrees>
            </Position>
            <AltitudeMeters>712.5999755859375</AltitudeMeters>
            <DistanceMeters>871.57114782735</DistanceMeters>
          </Trackpoint>
          <Trackpoint>
            <Time>2021-09-26T07:19:44.000Z</Time>
            <Position>
              <LatitudeDegrees>40.44775075279176235198974609375</LatitudeDegrees>
              <LongitudeDegrees>-3.69112394750118255615234375</LongitudeDegrees>
            </Position>
            <AltitudeMeters>710.20001220703125</AltitudeMeters>
            <DistanceMeters>892.16762643862</DistanceMeters>
          </Trackpoint>
          <Trackpoint>
            <Time>2021-09-26T07:19:45.000Z</Time>
            <Position>
              <LatitudeDegrees>40.447774641215801239013671875</LatitudeDegrees>
              <LongitudeDegrees>-3.6911227740347385406494140625</LongitudeDegrees>
            </Position>
            <AltitudeMeters>709.79998779296875</AltitudeMeters>
            <DistanceMeters>894.82837444098</DistanceMeters>
          </Trackpoint>
          <Trackpoint>
            <Time>2021-09-26T07:19:52.000Z</Time>
            <Position>
              <LatitudeDegrees>40.44794521294534206390380859375</LatitudeDegrees>
              <LongitudeDegrees>-3.6910939402878284454345703125</LongitudeDegrees>
            </Position>
            <AltitudeMeters>706.5999755859375</AltitudeMeters>
            <DistanceMeters>913.97006668043</DistanceMeters>
          </Trackpoint>
          <Trackpoint>
            <Time>2021-09-26T07:20:00.000Z</Time>
            <Position>
              <LatitudeDegrees>40.44814604334533214569091796875</LatitudeDegrees>
              <LongitudeDegrees>-3.69108245708048343658447265625</LongitudeDegrees>
            </Position>
            <AltitudeMeters>704</AltitudeMeters>
            <DistanceMeters>936.34396481526</DistanceMeters>
          </Trackpoint>
          <Trackpoint>
            <Time>2021-09-26T07:20:01.000Z</Time>
            <Position>
              <LatitudeDegrees>40.44816331006586551666259765625</LatitudeDegrees>
              <LongitudeDegrees>-3.69107273407280445098876953125</LongitudeDegrees>
            </Position>
            <AltitudeMeters>704</AltitudeMeters>
            <DistanceMeters>938.4345525314</DistanceMeters>
          </Trackpoint>
          <Trackpoint>
            <Time>2021-09-26T07:20:08.000Z</Time>
            <Position>
              <LatitudeDegrees>40.44830647297203540802001953125</LatitudeDegrees>
              <LongitudeDegrees>-3.6910481750965118408203125</LongitudeDegrees>
            </Position>
            <AltitudeMeters>703</AltitudeMeters>
            <DistanceMeters>954.50390429155</DistanceMeters>
          </Trackpoint>
          <Trackpoint>
            <Time>2021-09-26T07:20:13.000Z</Time>
            <Position>
              <LatitudeDegrees>40.44843555428087711334228515625</LatitudeDegrees>
              <LongitudeDegrees>-3.69103434495627880096435546875</LongitudeDegrees>
            </Position>
            <AltitudeMeters>702.4000244140625</AltitudeMeters>
            <DistanceMeters>968.91855166759</DistanceMeters>
          </Trackpoint>
          <Trackpoint>
            <Time>2021-09-26T07:20:21.000Z</Time>
            <Position>
              <LatitudeDegrees>40.44861878268420696258544921875</LatitudeDegrees>
              <LongitudeDegrees>-3.6910359375178813934326171875</LongitudeDegrees>
            </Position>
            <AltitudeMeters>701.20001220703125</AltitudeMeters>
            <DistanceMeters>989.3127989204</DistanceMeters>
          </Trackpoint>
          <Trackpoint>
            <Time>2021-09-26T07:20:26.000Z</Time>
            <Position>
              <LatitudeDegrees>40.4487353749573230743408203125</LatitudeDegrees>
              <LongitudeDegrees>-3.6910285614430904388427734375</LongitudeDegrees>
            </Position>
            <AltitudeMeters>700.5999755859375</AltitudeMeters>
            <DistanceMeters>1002.3047267562</DistanceMeters>
          </Trackpoint>
          <Trackpoint>
            <Time>2021-09-26T07:20:27.000Z</Time>
            <Position>
              <LatitudeDegrees>40.4487544856965541839599609375</LatitudeDegrees>
              <LongitudeDegrees>-3.69103082455694675445556640625</LongitudeDegrees>
            </Position>
            <AltitudeMeters>700.4000244140625</AltitudeMeters>
            <DistanceMeters>1004.4422998381</DistanceMeters>
          </Trackpoint>
          <Trackpoint>
            <Time>2021-09-26T07:20:34.000Z</Time>
            <Position>
              <LatitudeDegrees>40.44893436133861541748046875</LatitudeDegrees>
              <LongitudeDegrees>-3.69099763222038745880126953125</LongitudeDegrees>
            </Position>
            <AltitudeMeters>702.20001220703125</AltitudeMeters>
            <DistanceMeters>1024.6591076971</DistanceMeters>
          </Trackpoint>
          <Trackpoint>
            <Time>2021-09-26T07:20:35.000Z</Time>
            <Position>
              <LatitudeDegrees>40.448960848152637481689453125</LatitudeDegrees>
              <LongitudeDegrees>-3.69098925031721591949462890625</LongitudeDegrees>
            </Position>
            <AltitudeMeters>702.79998779296875</AltitudeMeters>
            <DistanceMeters>1027.6910407142</DistanceMeters>
          </Trackpoint>
          <Trackpoint>
            <Time>2021-09-26T07:20:39.000Z</Time>
            <Position>
              <LatitudeDegrees>40.44905506074428558349609375</LatitudeDegrees>
              <LongitudeDegrees>-3.69096460752189159393310546875</LongitudeDegrees>
            </Position>
            <AltitudeMeters>704.5999755859375</AltitudeMeters>
            <DistanceMeters>1038.3831297421</DistanceMeters>
          </Trackpoint>
          <Trackpoint>
            <Time>2021-09-26T07:20:45.000Z</Time>
            <Position>
              <LatitudeDegrees>40.4492034204304218292236328125</LatitudeDegrees>
              <LongitudeDegrees>-3.69094080291688442230224609375</LongitudeDegrees>
            </Position>
            <AltitudeMeters>707.4000244140625</AltitudeMeters>
            <DistanceMeters>1055.0185053826</DistanceMeters>
          </Trackpoint>
          <Trackpoint>
            <Time>2021-09-26T07:20:53.000Z</Time>
            <Position>
              <LatitudeDegrees>40.44938363134860992431640625</LatitudeDegrees>
              <LongitudeDegrees>-3.69090677239000797271728515625</LongitudeDegrees>
            </Position>
            <AltitudeMeters>711</AltitudeMeters>
            <DistanceMeters>1075.2821584605</DistanceMeters>
          </Trackpoint>
          <Trackpoint>
            <Time>2021-09-26T07:20:56.000Z</Time>
            <Position>
              <LatitudeDegrees>40.4494548775255680084228515625</LatitudeDegrees>
              <LongitudeDegrees>-3.690915070474147796630859375</LongitudeDegrees>
            </Position>
            <AltitudeMeters>712.4000244140625</AltitudeMeters>
            <DistanceMeters>1083.2428793125</DistanceMeters>
          </Trackpoint>
          <Trackpoint>
            <Time>2021-09-26T07:21:05.000Z</Time>
            <Position>
              <LatitudeDegrees>40.4496483318507671356201171875</LatitudeDegrees>
              <LongitudeDegrees>-3.69088917039334774017333984375</LongitudeDegrees>
            </Position>
            <AltitudeMeters>716.20001220703125</AltitudeMeters>
            <DistanceMeters>1104.88645216</DistanceMeters>
          </Trackpoint>
          <Trackpoint>
            <Time>2021-09-26T07:21:06.000Z</Time>
            <Position>
              <LatitudeDegrees>40.44966995716094970703125</LatitudeDegrees>
              <LongitudeDegrees>-3.69088925421237945556640625</LongitudeDegrees>
            </Position>
            <AltitudeMeters>716.4000244140625</AltitudeMeters>
            <DistanceMeters>1107.2942123385</DistanceMeters>
          </Trackpoint>
          <Trackpoint>
            <Time>2021-09-26T07:21:13.000Z</Time>
            <Position>
              <LatitudeDegrees>40.449827872216701507568359375</LatitudeDegrees>
              <LongitudeDegrees>-3.690873496234416961669921875</LongitudeDegrees>
            </Position>
            <AltitudeMeters>717</AltitudeMeters>
            <DistanceMeters>1124.9210915371</DistanceMeters>
          </Trackpoint>
          <Trackpoint>
            <Time>2021-09-26T07:21:14.000Z</Time>
            <Position>
              <LatitudeDegrees>40.449850000441074371337890625</LatitudeDegrees>
              <LongitudeDegrees>-3.69087123312056064605712890625</LongitudeDegrees>
            </Position>
            <AltitudeMeters>717.20001220703125</AltitudeMeters>
            <DistanceMeters>1127.3899579976</DistanceMeters>
          </Trackpoint>
          <Trackpoint>
            <Time>2021-09-26T07:21:22.000Z</Time>
            <Position>
              <LatitudeDegrees>40.4500332288444042205810546875</LatitudeDegrees>
              <LongitudeDegrees>-3.69085974991321563720703125</LongitudeDegrees>
            </Position>
            <AltitudeMeters>718.4000244140625</AltitudeMeters>
            <DistanceMeters>1147.8067743216</DistanceMeters>
          </Trackpoint>
          <Trackpoint>
            <Time>2021-09-26T07:21:23.000Z</Time>
            <Position>
              <LatitudeDegrees>40.45005627907812595367431640625</LatitudeDegrees>
              <LongitudeDegrees>-3.6908629350364208221435546875</LongitudeDegrees>
            </Position>
            <AltitudeMeters>718.5999755859375</AltitudeMeters>
            <DistanceMeters>1150.3847844578</DistanceMeters>
          </Trackpoint>
          <Trackpoint>
            <Time>2021-09-26T07:21:31.000Z</Time>
            <Position>
              <LatitudeDegrees>40.4502293653786182403564453125</LatitudeDegrees>
              <LongitudeDegrees>-3.6908335983753204345703125</LongitudeDegrees>
            </Position>
            <AltitudeMeters>719.79998779296875</AltitudeMeters>
            <DistanceMeters>1169.8090909849</DistanceMeters>
          </Trackpoint>
          <Trackpoint>
            <Time>2021-09-26T07:21:39.000Z</Time>
            <Position>
              <LatitudeDegrees>40.45042164623737335205078125</LatitudeDegrees>
              <LongitudeDegrees>-3.69083024561405181884765625</LongitudeDegrees>
            </Position>
            <AltitudeMeters>721.20001220703125</AltitudeMeters>
            <DistanceMeters>1191.2120521802</DistanceMeters>
          </Trackpoint>
          <Trackpoint>
            <Time>2021-09-26T07:21:40.000Z</Time>
            <Position>
              <LatitudeDegrees>40.4504472948610782623291015625</LatitudeDegrees>
              <LongitudeDegrees>-3.69082228280603885650634765625</LongitudeDegrees>
            </Position>
            <AltitudeMeters>721.4000244140625</AltitudeMeters>
            <DistanceMeters>1194.1440536765</DistanceMeters>
          </Trackpoint>
          <Trackpoint>
            <Time>2021-09-26T07:21:49.000Z</Time>
            <Position>
              <LatitudeDegrees>40.45064183883368968963623046875</LatitudeDegrees>
              <LongitudeDegrees>-3.6908019147813320159912109375</LongitudeDegrees>
            </Position>
            <AltitudeMeters>721.20001220703125</AltitudeMeters>
            <DistanceMeters>1215.8657139325</DistanceMeters>
          </Trackpoint>
          <Trackpoint>
            <Time>2021-09-26T07:21:52.000Z</Time>
            <Position>
              <LatitudeDegrees>40.45070738531649112701416015625</LatitudeDegrees>
              <LongitudeDegrees>-3.6908035911619663238525390625</LongitudeDegrees>
            </Position>
            <AltitudeMeters>721</AltitudeMeters>
            <DistanceMeters>1223.1623796582</DistanceMeters>
          </Trackpoint>
          <Trackpoint>
            <Time>2021-09-26T07:22:00.000Z</Time>
            <Position>
              <LatitudeDegrees>40.45089639723300933837890625</LatitudeDegrees>
              <LongitudeDegrees>-3.69079269468784332275390625</LongitudeDegrees>
            </Position>
            <AltitudeMeters>719.5999755859375</AltitudeMeters>
            <DistanceMeters>1244.2199650797</DistanceMeters>
          </Trackpoint>
          <Trackpoint>
            <Time>2021-09-26T07:22:02.000Z</Time>
            <Position>
              <LatitudeDegrees>40.4509394802153110504150390625</LatitudeDegrees>
              <LongitudeDegrees>-3.69078909046947956085205078125</LongitudeDegrees>
            </Position>
            <AltitudeMeters>719.4000244140625</AltitudeMeters>
            <DistanceMeters>1249.0242210461</DistanceMeters>
          </Trackpoint>
          <Trackpoint>
            <Time>2021-09-26T07:22:11.000Z</Time>
            <Position>
              <LatitudeDegrees>40.45112011022865772247314453125</LatitudeDegrees>
              <LongitudeDegrees>-3.6907747574150562286376953125</LongitudeDegrees>
            </Position>
            <AltitudeMeters>718</AltitudeMeters>
            <DistanceMeters>1269.1654016015</DistanceMeters>
          </Trackpoint>
          <Trackpoint>
            <Time>2021-09-26T07:22:13.000Z</Time>
            <Position>
              <LatitudeDegrees>40.451162941753864288330078125</LatitudeDegrees>
              <LongitudeDegrees>-3.690770901739597320556640625</LongitudeDegrees>
            </Position>
            <AltitudeMeters>717.79998779296875</AltitudeMeters>
            <DistanceMeters>1273.9451603196</DistanceMeters>
          </Trackpoint>
          <Trackpoint>
            <Time>2021-09-26T07:22:20.000Z</Time>
            <Position>
              <LatitudeDegrees>40.45130786485970020294189453125</LatitudeDegrees>
              <LongitudeDegrees>-3.69075036607682704925537109375</LongitudeDegrees>
            </Position>
            <AltitudeMeters>716.79998779296875</AltitudeMeters>
            <DistanceMeters>1290.1688673001</DistanceMeters>
          </Trackpoint>
          <Trackpoint>
            <Time>2021-09-26T07:22:28.000Z</Time>
            <Position>
              <LatitudeDegrees>40.45150400139391422271728515625</LatitudeDegrees>
              <LongitudeDegrees>-3.69072002358734607696533203125</LongitudeDegrees>
            </Position>
            <AltitudeMeters>715.5999755859375</AltitudeMeters>
            <DistanceMeters>1312.149842488</DistanceMeters>
          </Trackpoint>
          <Trackpoint>
            <Time>2021-09-26T07:22:29.000Z</Time>
            <Position>
              <LatitudeDegrees>40.4515288956463336944580078125</LatitudeDegrees>
              <LongitudeDegrees>-3.69071650318801403045654296875</LongitudeDegrees>
            </Position>
            <AltitudeMeters>715.5999755859375</AltitudeMeters>
            <DistanceMeters>1314.9365727839</DistanceMeters>
          </Trackpoint>
          <Trackpoint>
            <Time>2021-09-26T07:22:37.000Z</Time>
            <Position>
              <LatitudeDegrees>40.45173081569373607635498046875</LatitudeDegrees>
              <LongitudeDegrees>-3.690694458782672882080078125</LongitudeDegrees>
            </Position>
            <AltitudeMeters>713.79998779296875</AltitudeMeters>
            <DistanceMeters>1337.4881559949</DistanceMeters>
          </Trackpoint>
          <Trackpoint>
            <Time>2021-09-26T07:22:44.000Z</Time>
            <Position>
              <LatitudeDegrees>40.45192309655249118804931640625</LatitudeDegrees>
              <LongitudeDegrees>-3.6906547285616397857666015625</LongitudeDegrees>
            </Position>
            <AltitudeMeters>711.4000244140625</AltitudeMeters>
            <DistanceMeters>1359.1523712628</DistanceMeters>
          </Trackpoint>
          <Trackpoint>
            <Time>2021-09-26T07:22:49.000Z</Time>
            <Position>
              <LatitudeDegrees>40.452041365206241607666015625</LatitudeDegrees>
              <LongitudeDegrees>-3.6906379647552967071533203125</LongitudeDegrees>
            </Position>
            <AltitudeMeters>710</AltitudeMeters>
            <DistanceMeters>1372.3928359104</DistanceMeters>
          </Trackpoint>
          <Trackpoint>
            <Time>2021-09-26T07:22:58.000Z</Time>
            <Position>
              <LatitudeDegrees>40.4522353224456310272216796875</LatitudeDegrees>
              <LongitudeDegrees>-3.69061206467449665069580078125</LongitudeDegrees>
            </Position>
            <AltitudeMeters>707.79998779296875</AltitudeMeters>
            <DistanceMeters>1394.0918277289</DistanceMeters>
          </Trackpoint>
          <Trackpoint>
            <Time>2021-09-26T07:22:59.000Z</Time>
            <Position>
              <LatitudeDegrees>40.452258624136447906494140625</LatitudeDegrees>
              <LongitudeDegrees>-3.6906108073890209197998046875</LongitudeDegrees>
            </Position>
            <AltitudeMeters>707.79998779296875</AltitudeMeters>
            <DistanceMeters>1396.6890314374</DistanceMeters>
          </Trackpoint>
          <Trackpoint>
            <Time>2021-09-26T07:23:07.000Z</Time>
            <Position>
              <LatitudeDegrees>40.452445037662982940673828125</LatitudeDegrees>
              <LongitudeDegrees>-3.690591193735599517822265625</LongitudeDegrees>
            </Position>
            <AltitudeMeters>706.4000244140625</AltitudeMeters>
            <DistanceMeters>1417.5040036397</DistanceMeters>
          </Trackpoint>
          <Trackpoint>
            <Time>2021-09-26T07:23:09.000Z</Time>
            <Position>
              <LatitudeDegrees>40.4524928145110607147216796875</LatitudeDegrees>
              <LongitudeDegrees>-3.69059018790721893310546875</LongitudeDegrees>
            </Position>
            <AltitudeMeters>706</AltitudeMeters>
            <DistanceMeters>1422.822953677</DistanceMeters>
          </Trackpoint>
          <Trackpoint>
            <Time>2021-09-26T07:23:19.000Z</Time>
            <Position>
              <LatitudeDegrees>40.452676378190517425537109375</LatitudeDegrees>
              <LongitudeDegrees>-3.690566383302211761474609375</LongitudeDegrees>
            </Position>
            <AltitudeMeters>705.5999755859375</AltitudeMeters>
            <DistanceMeters>1443.3531228945</DistanceMeters>
          </Trackpoint>
          <Trackpoint>
            <Time>2021-09-26T07:23:20.000Z</Time>
            <Position>
              <LatitudeDegrees>40.452700518071651458740234375</LatitudeDegrees>
              <LongitudeDegrees>-3.69056336581707000732421875</LongitudeDegrees>
            </Position>
            <AltitudeMeters>705.79998779296875</AltitudeMeters>
            <DistanceMeters>1446.0509445368</DistanceMeters>
          </Trackpoint>
          <Trackpoint>
            <Time>2021-09-26T07:23:28.000Z</Time>
            <Position>
              <LatitudeDegrees>40.4528964869678020477294921875</LatitudeDegrees>
              <LongitudeDegrees>-3.69054484181106090545654296875</LongitudeDegrees>
            </Position>
            <AltitudeMeters>707.20001220703125</AltitudeMeters>
            <DistanceMeters>1467.9190671887</DistanceMeters>
          </Trackpoint>
          <Trackpoint>
            <Time>2021-09-26T07:23:29.000Z</Time>
            <Position>
              <LatitudeDegrees>40.45291744172573089599609375</LatitudeDegrees>
              <LongitudeDegrees>-3.6905447579920291900634765625</LongitudeDegrees>
            </Position>
            <AltitudeMeters>707.4000244140625</AltitudeMeters>
            <DistanceMeters>1470.250613032</DistanceMeters>
          </Trackpoint>
          <Trackpoint>
            <Time>2021-09-26T07:23:37.000Z</Time>
            <Position>
              <LatitudeDegrees>40.4530875943601131439208984375</LatitudeDegrees>
              <LongitudeDegrees>-3.69052237831056118011474609375</LongitudeDegrees>
            </Position>
            <AltitudeMeters>709.4000244140625</AltitudeMeters>
            <DistanceMeters>1489.2834937027</DistanceMeters>
          </Trackpoint>
          <Trackpoint>
            <Time>2021-09-26T07:23:45.000Z</Time>
            <Position>
              <LatitudeDegrees>40.45326436869800090789794921875</LatitudeDegrees>
              <LongitudeDegrees>-3.69052053429186344146728515625</LongitudeDegrees>
            </Position>
            <AltitudeMeters>712.20001220703125</AltitudeMeters>
            <DistanceMeters>1508.9597610687</DistanceMeters>
          </Trackpoint>
          <Trackpoint>
            <Time>2021-09-26T07:23:53.000Z</Time>
            <Position>
              <LatitudeDegrees>40.45344893820583820343017578125</LatitudeDegrees>
              <LongitudeDegrees>-3.6905159242451190948486328125</LongitudeDegrees>
            </Position>
            <AltitudeMeters>715</AltitudeMeters>
            <DistanceMeters>1529.5066375687</DistanceMeters>
          </Trackpoint>
          <Trackpoint>
            <Time>2021-09-26T07:23:54.000Z</Time>
            <Position>
              <LatitudeDegrees>40.4534719884395599365234375</LatitudeDegrees>
              <LongitudeDegrees>-3.69051433168351650238037109375</LongitudeDegrees>
            </Position>
            <AltitudeMeters>715.4000244140625</AltitudeMeters>
            <DistanceMeters>1532.0776326985</DistanceMeters>
          </Trackpoint>
          <Trackpoint>
            <Time>2021-09-26T07:24:02.000Z</Time>
            <Position>
              <LatitudeDegrees>40.453654043376445770263671875</LatitudeDegrees>
              <LongitudeDegrees>-3.69049605913460254669189453125</LongitudeDegrees>
            </Position>
            <AltitudeMeters>716.79998779296875</AltitudeMeters>
            <DistanceMeters>1552.3995793593</DistanceMeters>
          </Trackpoint>
          <Trackpoint>
            <Time>2021-09-26T07:24:04.000Z</Time>
            <Position>
              <LatitudeDegrees>40.45369955711066722869873046875</LatitudeDegrees>
              <LongitudeDegrees>-3.6904823966324329376220703125</LongitudeDegrees>
            </Position>
            <AltitudeMeters>717</AltitudeMeters>
            <DistanceMeters>1557.5957249084</DistanceMeters>
          </Trackpoint>
          <Trackpoint>
            <Time>2021-09-26T07:24:12.000Z</Time>
            <Position>
              <LatitudeDegrees>40.45388814993202686309814453125</LatitudeDegrees>
              <LongitudeDegrees>-3.6904609389603137969970703125</LongitudeDegrees>
            </Position>
            <AltitudeMeters>717.79998779296875</AltitudeMeters>
            <DistanceMeters>1578.665099792</DistanceMeters>
          </Trackpoint>
          <Trackpoint>
            <Time>2021-09-26T07:24:13.000Z</Time>
            <Position>
              <LatitudeDegrees>40.45390784740447998046875</LatitudeDegrees>
              <LongitudeDegrees>-3.69046236388385295867919921875</LongitudeDegrees>
            </Position>
            <AltitudeMeters>717.79998779296875</AltitudeMeters>
            <DistanceMeters>1580.861018921</DistanceMeters>
          </Trackpoint>
          <Trackpoint>
            <Time>2021-09-26T07:24:22.000Z</Time>
            <Position>
              <LatitudeDegrees>40.4541023075580596923828125</LatitudeDegrees>
              <LongitudeDegrees>-3.6904498748481273651123046875</LongitudeDegrees>
            </Position>
            <AltitudeMeters>717.79998779296875</AltitudeMeters>
            <DistanceMeters>1602.5306521704</DistanceMeters>
          </Trackpoint>
          <Trackpoint>
            <Time>2021-09-26T07:24:24.000Z</Time>
            <Position>
              <LatitudeDegrees>40.45413675718009471893310546875</LatitudeDegrees>
              <LongitudeDegrees>-3.6904562450945377349853515625</LongitudeDegrees>
            </Position>
            <AltitudeMeters>717.79998779296875</AltitudeMeters>
            <DistanceMeters>1606.4023348662</DistanceMeters>
          </Trackpoint>
          <Trackpoint>
            <Time>2021-09-26T07:24:34.000Z</Time>
            <Position>
              <LatitudeDegrees>40.4543287865817546844482421875</LatitudeDegrees>
              <LongitudeDegrees>-3.69045934639871120452880859375</LongitudeDegrees>
            </Position>
            <AltitudeMeters>717.79998779296875</AltitudeMeters>
            <DistanceMeters>1627.7774320083</DistanceMeters>
          </Trackpoint>
          <Trackpoint>
            <Time>2021-09-26T07:24:36.000Z</Time>
            <Position>
              <LatitudeDegrees>40.45439341105520725250244140625</LatitudeDegrees>
              <LongitudeDegrees>-3.6904354579746723175048828125</LongitudeDegrees>
            </Position>
            <AltitudeMeters>717.79998779296875</AltitudeMeters>
            <DistanceMeters>1635.2495777947</DistanceMeters>
          </Trackpoint>
          <Trackpoint>
            <Time>2021-09-26T07:24:44.000Z</Time>
            <Position>
              <LatitudeDegrees>40.45458116568624973297119140625</LatitudeDegrees>
              <LongitudeDegrees>-3.69040737859904766082763671875</LongitudeDegrees>
            </Position>
            <AltitudeMeters>718.20001220703125</AltitudeMeters>
            <DistanceMeters>1656.2820618334</DistanceMeters>
          </Trackpoint>
          <Trackpoint>
            <Time>2021-09-26T07:24:47.000Z</Time>
            <Position>
              <LatitudeDegrees>40.45465107075870037078857421875</LatitudeDegrees>
              <LongitudeDegrees>-3.6903975717723369598388671875</LongitudeDegrees>
            </Position>
            <AltitudeMeters>718.20001220703125</AltitudeMeters>
            <DistanceMeters>1664.1066332779</DistanceMeters>
          </Trackpoint>
          <Trackpoint>
            <Time>2021-09-26T07:24:55.000Z</Time>
            <Position>
              <LatitudeDegrees>40.454850308597087860107421875</LatitudeDegrees>
              <LongitudeDegrees>-3.6903670616447925567626953125</LongitudeDegrees>
            </Position>
            <AltitudeMeters>718.4000244140625</AltitudeMeters>
            <DistanceMeters>1686.4320470344</DistanceMeters>
          </Trackpoint>
          <Trackpoint>
            <Time>2021-09-26T07:24:57.000Z</Time>
            <Position>
              <LatitudeDegrees>40.454901941120624542236328125</LatitudeDegrees>
              <LongitudeDegrees>-3.69035876356065273284912109375</LongitudeDegrees>
            </Position>
            <AltitudeMeters>718.4000244140625</AltitudeMeters>
            <DistanceMeters>1692.2208822958</DistanceMeters>
          </Trackpoint>
          <Trackpoint>
            <Time>2021-09-26T07:25:04.000Z</Time>
            <Position>
              <LatitudeDegrees>40.455065555870532989501953125</LatitudeDegrees>
              <LongitudeDegrees>-3.69033076800405979156494140625</LongitudeDegrees>
            </Position>
            <AltitudeMeters>718.5999755859375</AltitudeMeters>
            <DistanceMeters>1710.5849024133</DistanceMeters>
          </Trackpoint>
          <Trackpoint>
            <Time>2021-09-26T07:25:12.000Z</Time>
            <Position>
              <LatitudeDegrees>40.45525071211159229278564453125</LatitudeDegrees>
              <LongitudeDegrees>-3.69030780158936977386474609375</LongitudeDegrees>
            </Position>
            <AltitudeMeters>718.5999755859375</AltitudeMeters>
            <DistanceMeters>1731.2848095953</DistanceMeters>
          </Trackpoint>
          <Trackpoint>
            <Time>2021-09-26T07:25:20.000Z</Time>
            <Position>
              <LatitudeDegrees>40.45542220585048198699951171875</LatitudeDegrees>
              <LongitudeDegrees>-3.69028449989855289459228515625</LongitudeDegrees>
            </Position>
            <AltitudeMeters>718.79998779296875</AltitudeMeters>
            <DistanceMeters>1750.4740893429</DistanceMeters>
          </Trackpoint>
          <Trackpoint>
            <Time>2021-09-26T07:25:28.000Z</Time>
            <Position>
              <LatitudeDegrees>40.455601997673511505126953125</LatitudeDegrees>
              <LongitudeDegrees>-3.69027041830122470855712890625</LongitudeDegrees>
            </Position>
            <AltitudeMeters>718.79998779296875</AltitudeMeters>
            <DistanceMeters>1770.5204471644</DistanceMeters>
          </Trackpoint>
          <Trackpoint>
            <Time>2021-09-26T07:25:30.000Z</Time>
            <Position>
              <LatitudeDegrees>40.45565019361674785614013671875</LatitudeDegrees>
              <LongitudeDegrees>-3.69026103056967258453369140625</LongitudeDegrees>
            </Position>
            <AltitudeMeters>718.5999755859375</AltitudeMeters>
            <DistanceMeters>1775.9428017177</DistanceMeters>
          </Trackpoint>
          <Trackpoint>
            <Time>2021-09-26T07:25:38.000Z</Time>
            <Position>
              <LatitudeDegrees>40.45584431849420070648193359375</LatitudeDegrees>
              <LongitudeDegrees>-3.69023152627050876617431640625</LongitudeDegrees>
            </Position>
            <AltitudeMeters>718.20001220703125</AltitudeMeters>
            <DistanceMeters>1797.6933351571</DistanceMeters>
          </Trackpoint>
          <Trackpoint>
            <Time>2021-09-26T07:25:46.000Z</Time>
            <Position>
              <LatitudeDegrees>40.45602972619235515594482421875</LatitudeDegrees>
              <LongitudeDegrees>-3.6902034468948841094970703125</LongitudeDegrees>
            </Position>
            <AltitudeMeters>717.79998779296875</AltitudeMeters>
            <DistanceMeters>1818.4661836125</DistanceMeters>
          </Trackpoint>
          <Trackpoint>
            <Time>2021-09-26T07:25:50.000Z</Time>
            <Position>
              <LatitudeDegrees>40.4561220109462738037109375</LatitudeDegrees>
              <LongitudeDegrees>-3.69018995203077793121337890625</LongitudeDegrees>
            </Position>
            <AltitudeMeters>717.5999755859375</AltitudeMeters>
            <DistanceMeters>1828.8009668313</DistanceMeters>
          </Trackpoint>
          <Trackpoint>
            <Time>2021-09-26T07:25:58.000Z</Time>
            <Position>
              <LatitudeDegrees>40.456304065883159637451171875</LatitudeDegrees>
              <LongitudeDegrees>-3.69016329757869243621826171875</LongitudeDegrees>
            </Position>
            <AltitudeMeters>717.20001220703125</AltitudeMeters>
            <DistanceMeters>1849.1892357364</DistanceMeters>
          </Trackpoint>
          <Trackpoint>
            <Time>2021-09-26T07:26:06.000Z</Time>
            <Position>
              <LatitudeDegrees>40.456496179103851318359375</LatitudeDegrees>
              <LongitudeDegrees>-3.69015390984714031219482421875</LongitudeDegrees>
            </Position>
            <AltitudeMeters>716.5999755859375</AltitudeMeters>
            <DistanceMeters>1870.5865004181</DistanceMeters>
          </Trackpoint>
          <Trackpoint>
            <Time>2021-09-26T07:26:14.000Z</Time>
            <Position>
              <LatitudeDegrees>40.45667630620300769805908203125</LatitudeDegrees>
              <LongitudeDegrees>-3.6901585198938846588134765625</LongitudeDegrees>
            </Position>
            <AltitudeMeters>715.79998779296875</AltitudeMeters>
            <DistanceMeters>1890.6387133608</DistanceMeters>
          </Trackpoint>
          <Trackpoint>
            <Time>2021-09-26T07:26:23.000Z</Time>
            <Position>
              <LatitudeDegrees>40.45687638223171234130859375</LatitudeDegrees>
              <LongitudeDegrees>-3.690144605934619903564453125</LongitudeDegrees>
            </Position>
            <AltitudeMeters>715.20001220703125</AltitudeMeters>
            <DistanceMeters>1912.93863062</DistanceMeters>
          </Trackpoint>
          <Trackpoint>
            <Time>2021-09-26T07:26:25.000Z</Time>
            <Position>
              <LatitudeDegrees>40.4569335468113422393798828125</LatitudeDegrees>
              <LongitudeDegrees>-3.690141253173351287841796875</LongitudeDegrees>
            </Position>
            <AltitudeMeters>715</AltitudeMeters>
            <DistanceMeters>1919.3075475912</DistanceMeters>
          </Trackpoint>
          <Trackpoint>
            <Time>2021-09-26T07:26:34.000Z</Time>
            <Position>
              <LatitudeDegrees>40.45712574385106563568115234375</LatitudeDegrees>
              <LongitudeDegrees>-3.69010948576033115386962890625</LongitudeDegrees>
            </Position>
            <AltitudeMeters>714.4000244140625</AltitudeMeters>
            <DistanceMeters>1940.8677248889</DistanceMeters>
          </Trackpoint>
          <Trackpoint>
            <Time>2021-09-26T07:26:36.000Z</Time>
            <Position>
              <LatitudeDegrees>40.45716664753854274749755859375</LatitudeDegrees>
              <LongitudeDegrees>-3.69010278023779392242431640625</LongitudeDegrees>
            </Position>
            <AltitudeMeters>714.4000244140625</AltitudeMeters>
            <DistanceMeters>1945.4566396045</DistanceMeters>
          </Trackpoint>
          <Trackpoint>
            <Time>2021-09-26T07:26:44.000Z</Time>
            <Position>
              <LatitudeDegrees>40.457348115742206573486328125</LatitudeDegrees>
              <LongitudeDegrees>-3.6900917999446392059326171875</LongitudeDegrees>
            </Position>
            <AltitudeMeters>714.5999755859375</AltitudeMeters>
            <DistanceMeters>1965.6761272569</DistanceMeters>
          </Trackpoint>
          <Trackpoint>
            <Time>2021-09-26T07:26:48.000Z</Time>
            <Position>
              <LatitudeDegrees>40.4574347846210002899169921875</LatitudeDegrees>
              <LongitudeDegrees>-3.690092973411083221435546875</LongitudeDegrees>
            </Position>
            <AltitudeMeters>715.20001220703125</AltitudeMeters>
            <DistanceMeters>1975.3230940253</DistanceMeters>
          </Trackpoint>
          <Trackpoint>
            <Time>2021-09-26T07:26:56.000Z</Time>
            <Position>
              <LatitudeDegrees>40.457610301673412322998046875</LatitudeDegrees>
              <LongitudeDegrees>-3.6900864355266094207763671875</LongitudeDegrees>
            </Position>
            <AltitudeMeters>716.20001220703125</AltitudeMeters>
            <DistanceMeters>1994.866279878</DistanceMeters>
          </Trackpoint>
          <Trackpoint>
            <Time>2021-09-26T07:27:01.000Z</Time>
            <Position>
              <LatitudeDegrees>40.45770929194986820220947265625</LatitudeDegrees>
              <LongitudeDegrees>-3.69009590707719326019287109375</LongitudeDegrees>
            </Position>
            <AltitudeMeters>716.79998779296875</AltitudeMeters>
            <DistanceMeters>2005.9131098787</DistanceMeters>
          </Trackpoint>
          <Trackpoint>
            <Time>2021-09-26T07:27:06.000Z</Time>
            <Position>
              <LatitudeDegrees>40.457818843424320220947265625</LatitudeDegrees>
              <LongitudeDegrees>-3.690096996724605560302734375</LongitudeDegrees>
            </Position>
            <AltitudeMeters>717.4000244140625</AltitudeMeters>
            <DistanceMeters>2018.1069295725</DistanceMeters>
          </Trackpoint>
          <Trackpoint>
            <Time>2021-09-26T07:27:14.000Z</Time>
            <Position>
              <LatitudeDegrees>40.45800819061696529388427734375</LatitudeDegrees>
              <LongitudeDegrees>-3.6900948174297809600830078125</LongitudeDegrees>
            </Position>
            <AltitudeMeters>718.79998779296875</AltitudeMeters>
            <DistanceMeters>2039.1823038308</DistanceMeters>
          </Trackpoint>
          <Trackpoint>
            <Time>2021-09-26T07:27:17.000Z</Time>
            <Position>
              <LatitudeDegrees>40.45808471739292144775390625</LatitudeDegrees>
              <LongitudeDegrees>-3.6900777183473110198974609375</LongitudeDegrees>
            </Position>
            <AltitudeMeters>720</AltitudeMeters>
            <DistanceMeters>2047.8213768024</DistanceMeters>
          </Trackpoint>
          <Trackpoint>
            <Time>2021-09-26T07:27:25.000Z</Time>
            <Position>
              <LatitudeDegrees>40.458277165889739990234375</LatitudeDegrees>
              <LongitudeDegrees>-3.69004846550524234771728515625</LongitudeDegrees>
            </Position>
            <AltitudeMeters>722.4000244140625</AltitudeMeters>
            <DistanceMeters>2069.383857549</DistanceMeters>
          </Trackpoint>
          <Trackpoint>
            <Time>2021-09-26T07:27:29.000Z</Time>
            <Position>
              <LatitudeDegrees>40.4583752341568470001220703125</LatitudeDegrees>
              <LongitudeDegrees>-3.69002264924347400665283203125</LongitudeDegrees>
            </Position>
            <AltitudeMeters>723.5999755859375</AltitudeMeters>
            <DistanceMeters>2080.5161874542</DistanceMeters>
          </Trackpoint>
          <Trackpoint>
            <Time>2021-09-26T07:27:36.000Z</Time>
            <Position>
              <LatitudeDegrees>40.45853775925934314727783203125</LatitudeDegrees>
              <LongitudeDegrees>-3.689995072782039642333984375</LongitudeDegrees>
            </Position>
            <AltitudeMeters>725.4000244140625</AltitudeMeters>
            <DistanceMeters>2098.7558715619</DistanceMeters>
          </Trackpoint>
          <Trackpoint>
            <Time>2021-09-26T07:27:44.000Z</Time>
            <Position>
              <LatitudeDegrees>40.4587346501648426055908203125</LatitudeDegrees>
              <LongitudeDegrees>-3.6899707652628421783447265625</LongitudeDegrees>
            </Position>
            <AltitudeMeters>727.5999755859375</AltitudeMeters>
            <DistanceMeters>2120.7668156891</DistanceMeters>
          </Trackpoint>
          <Trackpoint>
            <Time>2021-09-26T07:27:45.000Z</Time>
            <Position>
              <LatitudeDegrees>40.45875954441726207733154296875</LatitudeDegrees>
              <LongitudeDegrees>-3.689968921244144439697265625</LongitudeDegrees>
            </Position>
            <AltitudeMeters>727.79998779296875</AltitudeMeters>
            <DistanceMeters>2123.5438078178</DistanceMeters>
          </Trackpoint>
          <Trackpoint>
            <Time>2021-09-26T07:27:54.000Z</Time>
            <Position>
              <LatitudeDegrees>40.4589589498937129974365234375</LatitudeDegrees>
              <LongitudeDegrees>-3.689911924302577972412109375</LongitudeDegrees>
            </Position>
            <AltitudeMeters>729.4000244140625</AltitudeMeters>
            <DistanceMeters>2146.2567829018</DistanceMeters>
          </Trackpoint>
          <Trackpoint>
            <Time>2021-09-26T07:27:57.000Z</Time>
            <Position>
              <LatitudeDegrees>40.45903329737484455108642578125</LatitudeDegrees>
              <LongitudeDegrees>-3.68990681134164333343505859375</LongitudeDegrees>
            </Position>
            <AltitudeMeters>730</AltitudeMeters>
            <DistanceMeters>2154.5431995749</DistanceMeters>
          </Trackpoint>
          <Trackpoint>
            <Time>2021-09-26T07:28:05.000Z</Time>
            <Position>
              <LatitudeDegrees>40.45922742225229740142822265625</LatitudeDegrees>
              <LongitudeDegrees>-3.689893148839473724365234375</LongitudeDegrees>
            </Position>
            <AltitudeMeters>731.4000244140625</AltitudeMeters>
            <DistanceMeters>2176.1805132555</DistanceMeters>
          </Trackpoint>
          <Trackpoint>
            <Time>2021-09-26T07:28:06.000Z</Time>
            <Position>
              <LatitudeDegrees>40.45925172977149486541748046875</LatitudeDegrees>
              <LongitudeDegrees>-3.68989524431526660919189453125</LongitudeDegrees>
            </Position>
            <AltitudeMeters>731.5999755859375</AltitudeMeters>
            <DistanceMeters>2178.8900246781</DistanceMeters>
          </Trackpoint>
          <Trackpoint>
            <Time>2021-09-26T07:28:13.000Z</Time>
            <Position>
              <LatitudeDegrees>40.45941567979753017425537109375</LatitudeDegrees>
              <LongitudeDegrees>-3.6898949928581714630126953125</LongitudeDegrees>
            </Position>
            <AltitudeMeters>733</AltitudeMeters>
            <DistanceMeters>2197.1381231803</DistanceMeters>
          </Trackpoint>
          <Trackpoint>
            <Time>2021-09-26T07:28:19.000Z</Time>
            <Position>
              <LatitudeDegrees>40.4595265723764896392822265625</LatitudeDegrees>
              <LongitudeDegrees>-3.68988887406885623931884765625</LongitudeDegrees>
            </Position>
            <AltitudeMeters>733.79998779296875</AltitudeMeters>
            <DistanceMeters>2209.4915960484</DistanceMeters>
          </Trackpoint>
          <Trackpoint>
            <Time>2021-09-26T07:28:27.000Z</Time>
            <Position>
              <LatitudeDegrees>40.4597304202616214752197265625</LatitudeDegrees>
              <LongitudeDegrees>-3.68987948633730411529541015625</LongitudeDegrees>
            </Position>
            <AltitudeMeters>734.5999755859375</AltitudeMeters>
            <DistanceMeters>2232.1940329907</DistanceMeters>
          </Trackpoint>
          <Trackpoint>
            <Time>2021-09-26T07:28:31.000Z</Time>
            <Position>
              <LatitudeDegrees>40.459835529327392578125</LatitudeDegrees>
              <LongitudeDegrees>-3.6898678354918956756591796875</LongitudeDegrees>
            </Position>
            <AltitudeMeters>734.20001220703125</AltitudeMeters>
            <DistanceMeters>2243.9343518467</DistanceMeters>
          </Trackpoint>
          <Trackpoint>
            <Time>2021-09-26T07:28:38.000Z</Time>
            <Position>
              <LatitudeDegrees>40.460018925368785858154296875</LatitudeDegrees>
              <LongitudeDegrees>-3.6898306198418140411376953125</LongitudeDegrees>
            </Position>
            <AltitudeMeters>733.20001220703125</AltitudeMeters>
            <DistanceMeters>2264.5886218983</DistanceMeters>
          </Trackpoint>
          <Trackpoint>
            <Time>2021-09-26T07:28:41.000Z</Time>
            <Position>
              <LatitudeDegrees>40.46009897254407405853271484375</LatitudeDegrees>
              <LongitudeDegrees>-3.68982768617570400238037109375</LongitudeDegrees>
            </Position>
            <AltitudeMeters>732.79998779296875</AltitudeMeters>
            <DistanceMeters>2273.5019048263</DistanceMeters>
          </Trackpoint>
          <Trackpoint>
            <Time>2021-09-26T07:28:49.000Z</Time>
            <Position>
              <LatitudeDegrees>40.460289157927036285400390625</LatitudeDegrees>
              <LongitudeDegrees>-3.68980857543647289276123046875</LongitudeDegrees>
            </Position>
            <AltitudeMeters>732</AltitudeMeters>
            <DistanceMeters>2294.731604433</DistanceMeters>
          </Trackpoint>
          <Trackpoint>
            <Time>2021-09-26T07:28:50.000Z</Time>
            <Position>
              <LatitudeDegrees>40.46031421981751918792724609375</LatitudeDegrees>
              <LongitudeDegrees>-3.6898078210651874542236328125</LongitudeDegrees>
            </Position>
            <AltitudeMeters>731.79998779296875</AltitudeMeters>
            <DistanceMeters>2297.5215732312</DistanceMeters>
          </Trackpoint>
          <Trackpoint>
            <Time>2021-09-26T07:28:57.000Z</Time>
            <Position>
              <LatitudeDegrees>40.46049510128796100616455078125</LatitudeDegrees>
              <LongitudeDegrees>-3.68978309445083141326904296875</LongitudeDegrees>
            </Position>
            <AltitudeMeters>731</AltitudeMeters>
            <DistanceMeters>2317.7627095219</DistanceMeters>
          </Trackpoint>
          <Trackpoint>
            <Time>2021-09-26T07:29:00.000Z</Time>
            <Position>
              <LatitudeDegrees>40.46057104133069515228271484375</LatitudeDegrees>
              <LongitudeDegrees>-3.68976750411093235015869140625</LongitudeDegrees>
            </Position>
            <AltitudeMeters>731.20001220703125</AltitudeMeters>
            <DistanceMeters>2326.3177530389</DistanceMeters>
          </Trackpoint>
          <Trackpoint>
            <Time>2021-09-26T07:29:08.000Z</Time>
            <Position>
              <LatitudeDegrees>40.4607607237994670867919921875</LatitudeDegrees>
              <LongitudeDegrees>-3.68976540863513946533203125</LongitudeDegrees>
            </Position>
            <AltitudeMeters>731.5999755859375</AltitudeMeters>
            <DistanceMeters>2347.4305847652</DistanceMeters>
          </Trackpoint>
          <Trackpoint>
            <Time>2021-09-26T07:29:12.000Z</Time>
            <Position>
              <LatitudeDegrees>40.46086524613201618194580078125</LatitudeDegrees>
              <LongitudeDegrees>-3.68976398371160030364990234375</LongitudeDegrees>
            </Position>
            <AltitudeMeters>731.79998779296875</AltitudeMeters>
            <DistanceMeters>2359.0650527761</DistanceMeters>
          </Trackpoint>
          <Trackpoint>
            <Time>2021-09-26T07:29:20.000Z</Time>
            <Position>
              <LatitudeDegrees>40.46104989945888519287109375</LatitudeDegrees>
              <LongitudeDegrees>-3.68974260985851287841796875</LongitudeDegrees>
            </Position>
            <AltitudeMeters>732.4000244140625</AltitudeMeters>
            <DistanceMeters>2379.6970135062</DistanceMeters>
          </Trackpoint>
          <Trackpoint>
            <Time>2021-09-26T07:29:27.000Z</Time>
            <Position>
              <LatitudeDegrees>40.461215190589427947998046875</LatitudeDegrees>
              <LongitudeDegrees>-3.68976197205483913421630859375</LongitudeDegrees>
            </Position>
            <AltitudeMeters>732.79998779296875</AltitudeMeters>
            <DistanceMeters>2398.1674300703</DistanceMeters>
          </Trackpoint>
          <Trackpoint>
            <Time>2021-09-26T07:29:35.000Z</Time>
            <Position>
              <LatitudeDegrees>40.461408980190753936767578125</LatitudeDegrees>
              <LongitudeDegrees>-3.6897457949817180633544921875</LongitudeDegrees>
            </Position>
            <AltitudeMeters>733.79998779296875</AltitudeMeters>
            <DistanceMeters>2419.7803156798</DistanceMeters>
          </Trackpoint>
          <Trackpoint>
            <Time>2021-09-26T07:29:43.000Z</Time>
            <Position>
              <LatitudeDegrees>40.4615922085940837860107421875</LatitudeDegrees>
              <LongitudeDegrees>-3.6897177994251251220703125</LongitudeDegrees>
            </Position>
            <AltitudeMeters>735.5999755859375</AltitudeMeters>
            <DistanceMeters>2440.3113645669</DistanceMeters>
          </Trackpoint>
          <Trackpoint>
            <Time>2021-09-26T07:29:50.000Z</Time>
            <Position>
              <LatitudeDegrees>40.4617761075496673583984375</LatitudeDegrees>
              <LongitudeDegrees>-3.68967513553798198699951171875</LongitudeDegrees>
            </Position>
            <AltitudeMeters>737.4000244140625</AltitudeMeters>
            <DistanceMeters>2461.0959467633</DistanceMeters>
          </Trackpoint>
          <Trackpoint>
            <Time>2021-09-26T07:29:52.000Z</Time>
            <Position>
              <LatitudeDegrees>40.4618205316364765167236328125</LatitudeDegrees>
              <LongitudeDegrees>-3.689676225185394287109375</LongitudeDegrees>
            </Position>
            <AltitudeMeters>737.79998779296875</AltitudeMeters>
            <DistanceMeters>2466.0409894335</DistanceMeters>
          </Trackpoint>
          <Trackpoint>
            <Time>2021-09-26T07:30:00.000Z</Time>
            <Position>
              <LatitudeDegrees>40.4620139859616756439208984375</LatitudeDegrees>
              <LongitudeDegrees>-3.68965183384716510772705078125</LongitudeDegrees>
            </Position>
            <AltitudeMeters>740.4000244140625</AltitudeMeters>
            <DistanceMeters>2487.6716246731</DistanceMeters>
          </Trackpoint>
          <Trackpoint>
            <Time>2021-09-26T07:30:02.000Z</Time>
            <Position>
              <LatitudeDegrees>40.46206352300941944122314453125</LatitudeDegrees>
              <LongitudeDegrees>-3.68965200148522853851318359375</LongitudeDegrees>
            </Position>
            <AltitudeMeters>741.20001220703125</AltitudeMeters>
            <DistanceMeters>2493.1848122547</DistanceMeters>
          </Trackpoint>
          <Trackpoint>
            <Time>2021-09-26T07:30:11.000Z</Time>
            <Position>
              <LatitudeDegrees>40.46224750578403472900390625</LatitudeDegrees>
              <LongitudeDegrees>-3.68966004811227321624755859375</LongitudeDegrees>
            </Position>
            <AltitudeMeters>743.20001220703125</AltitudeMeters>
            <DistanceMeters>2513.6740351263</DistanceMeters>
          </Trackpoint>
          <Trackpoint>
            <Time>2021-09-26T07:30:12.000Z</Time>
            <Position>
              <LatitudeDegrees>40.46226820908486843109130859375</LatitudeDegrees>
              <LongitudeDegrees>-3.68965904228389263153076171875</LongitudeDegrees>
            </Position>
            <AltitudeMeters>743.4000244140625</AltitudeMeters>
            <DistanceMeters>2515.9802690748</DistanceMeters>
          </Trackpoint>
          <Trackpoint>
            <Time>2021-09-26T07:30:20.000Z</Time>
            <Position>
              <LatitudeDegrees>40.46244674362242221832275390625</LatitudeDegrees>
              <LongitudeDegrees>-3.689602799713611602783203125</LongitudeDegrees>
            </Position>
            <AltitudeMeters>744.20001220703125</AltitudeMeters>
            <DistanceMeters>2536.4143272809</DistanceMeters>
          </Trackpoint>
          <Trackpoint>
            <Time>2021-09-26T07:30:28.000Z</Time>
            <Position>
              <LatitudeDegrees>40.462607927620410919189453125</LatitudeDegrees>
              <LongitudeDegrees>-3.68953297846019268035888671875</LongitudeDegrees>
            </Position>
            <AltitudeMeters>744.5999755859375</AltitudeMeters>
            <DistanceMeters>2555.3033817955</DistanceMeters>
          </Trackpoint>
          <Trackpoint>
            <Time>2021-09-26T07:30:37.000Z</Time>
            <Position>
              <LatitudeDegrees>40.462802387773990631103515625</LatitudeDegrees>
              <LongitudeDegrees>-3.6895292066037654876708984375</LongitudeDegrees>
            </Position>
            <AltitudeMeters>745.79998779296875</AltitudeMeters>
            <DistanceMeters>2576.9496663866</DistanceMeters>
          </Trackpoint>
          <Trackpoint>
            <Time>2021-09-26T07:30:38.000Z</Time>
            <Position>
              <LatitudeDegrees>40.46282426454126834869384765625</LatitudeDegrees>
              <LongitudeDegrees>-3.689526356756687164306640625</LongitudeDegrees>
            </Position>
            <AltitudeMeters>746</AltitudeMeters>
            <DistanceMeters>2579.3964889552</DistanceMeters>
          </Trackpoint>
          <Trackpoint>
            <Time>2021-09-26T07:30:46.000Z</Time>
            <Position>
              <LatitudeDegrees>40.46302475966513156890869140625</LatitudeDegrees>
              <LongitudeDegrees>-3.6894862912595272064208984375</LongitudeDegrees>
            </Position>
            <AltitudeMeters>745.5999755859375</AltitudeMeters>
            <DistanceMeters>2601.968484284</DistanceMeters>
          </Trackpoint>
          <Trackpoint>
            <Time>2021-09-26T07:30:52.000Z</Time>
            <Position>
              <LatitudeDegrees>40.46319591812789440155029296875</LatitudeDegrees>
              <LongitudeDegrees>-3.68940440006554126739501953125</LongitudeDegrees>
            </Position>
            <AltitudeMeters>742.79998779296875</AltitudeMeters>
            <DistanceMeters>2622.2414934161</DistanceMeters>
          </Trackpoint>
          <Trackpoint>
            <Time>2021-09-26T07:30:54.000Z</Time>
            <Position>
              <LatitudeDegrees>40.463244616985321044921875</LatitudeDegrees>
              <LongitudeDegrees>-3.68940289132297039031982421875</LongitudeDegrees>
            </Position>
            <AltitudeMeters>742</AltitudeMeters>
            <DistanceMeters>2627.6638479694</DistanceMeters>
          </Trackpoint>
          <Trackpoint>
            <Time>2021-09-26T07:30:59.000Z</Time>
            <Position>
              <LatitudeDegrees>40.46332818455994129180908203125</LatitudeDegrees>
              <LongitudeDegrees>-3.6893820203840732574462890625</LongitudeDegrees>
            </Position>
            <AltitudeMeters>740.79998779296875</AltitudeMeters>
            <DistanceMeters>2637.1317711239</DistanceMeters>
          </Trackpoint>
          <Trackpoint>
            <Time>2021-09-26T07:31:06.000Z</Time>
            <Position>
              <LatitudeDegrees>40.4635059647262096405029296875</LatitudeDegrees>
              <LongitudeDegrees>-3.6892886459827423095703125</LongitudeDegrees>
            </Position>
            <AltitudeMeters>737.79998779296875</AltitudeMeters>
            <DistanceMeters>2658.4406510547</DistanceMeters>
          </Trackpoint>
          <Trackpoint>
            <Time>2021-09-26T07:31:13.000Z</Time>
            <Position>
              <LatitudeDegrees>40.46369053423404693603515625</LatitudeDegrees>
              <LongitudeDegrees>-3.68919887579977512359619140625</LongitudeDegrees>
            </Position>
            <AltitudeMeters>734.79998779296875</AltitudeMeters>
            <DistanceMeters>2680.3450816973</DistanceMeters>
          </Trackpoint>
          <Trackpoint>
            <Time>2021-09-26T07:31:14.000Z</Time>
            <Position>
              <LatitudeDegrees>40.46371676959097385406494140625</LatitudeDegrees>
              <LongitudeDegrees>-3.68918898515403270721435546875</LongitudeDegrees>
            </Position>
            <AltitudeMeters>734.4000244140625</AltitudeMeters>
            <DistanceMeters>2683.3829655209</DistanceMeters>
          </Trackpoint>
          <Trackpoint>
            <Time>2021-09-26T07:31:21.000Z</Time>
            <Position>
              <LatitudeDegrees>40.46390217728912830352783203125</LatitudeDegrees>
              <LongitudeDegrees>-3.68914179503917694091796875</LongitudeDegrees>
            </Position>
            <AltitudeMeters>732</AltitudeMeters>
            <DistanceMeters>2704.4025654279</DistanceMeters>
          </Trackpoint>
          <Trackpoint>
            <Time>2021-09-26T07:31:23.000Z</Time>
            <Position>
              <LatitudeDegrees>40.463952384889125823974609375</LatitudeDegrees>
              <LongitudeDegrees>-3.68912897072732448577880859375</LongitudeDegrees>
            </Position>
            <AltitudeMeters>731.5999755859375</AltitudeMeters>
            <DistanceMeters>2710.0962438903</DistanceMeters>
          </Trackpoint>
          <Trackpoint>
            <Time>2021-09-26T07:31:30.000Z</Time>
            <Position>
              <LatitudeDegrees>40.46413251198828220367431640625</LatitudeDegrees>
              <LongitudeDegrees>-3.68911840952932834625244140625</LongitudeDegrees>
            </Position>
            <AltitudeMeters>730.5999755859375</AltitudeMeters>
            <DistanceMeters>2730.1648870801</DistanceMeters>
          </Trackpoint>
          <Trackpoint>
            <Time>2021-09-26T07:31:32.000Z</Time>
            <Position>
              <LatitudeDegrees>40.4641835577785968780517578125</LatitudeDegrees>
              <LongitudeDegrees>-3.6891114525496959686279296875</LongitudeDegrees>
            </Position>
            <AltitudeMeters>730.20001220703125</AltitudeMeters>
            <DistanceMeters>2735.875984708</DistanceMeters>
          </Trackpoint>
          <Trackpoint>
            <Time>2021-09-26T07:31:39.000Z</Time>
            <Position>
              <LatitudeDegrees>40.46436653472483158111572265625</LatitudeDegrees>
              <LongitudeDegrees>-3.68909896351397037506103515625</LongitudeDegrees>
            </Position>
            <AltitudeMeters>729.20001220703125</AltitudeMeters>
            <DistanceMeters>2756.2689035905</DistanceMeters>
          </Trackpoint>
          <Trackpoint>
            <Time>2021-09-26T07:31:42.000Z</Time>
            <Position>
              <LatitudeDegrees>40.4644350148737430572509765625</LatitudeDegrees>
              <LongitudeDegrees>-3.68908412754535675048828125</LongitudeDegrees>
            </Position>
            <AltitudeMeters>728.5999755859375</AltitudeMeters>
            <DistanceMeters>2763.9935877356</DistanceMeters>
          </Trackpoint>
          <Trackpoint>
            <Time>2021-09-26T07:31:49.000Z</Time>
            <Position>
              <LatitudeDegrees>40.46460860408842563629150390625</LatitudeDegrees>
              <LongitudeDegrees>-3.68906778283417224884033203125</LongitudeDegrees>
            </Position>
            <AltitudeMeters>727.5999755859375</AltitudeMeters>
            <DistanceMeters>2783.3641255805</DistanceMeters>
          </Trackpoint>
          <Trackpoint>
            <Time>2021-09-26T07:31:57.000Z</Time>
            <Position>
              <LatitudeDegrees>40.464805327355861663818359375</LatitudeDegrees>
              <LongitudeDegrees>-3.6890534497797489166259765625</LongitudeDegrees>
            </Position>
            <AltitudeMeters>728.4000244140625</AltitudeMeters>
            <DistanceMeters>2805.2932772045</DistanceMeters>
          </Trackpoint>
          <Trackpoint>
            <Time>2021-09-26T07:31:58.000Z</Time>
            <Position>
              <LatitudeDegrees>40.46483206562697887420654296875</LatitudeDegrees>
              <LongitudeDegrees>-3.68905101902782917022705078125</LongitudeDegrees>
            </Position>
            <AltitudeMeters>728.5999755859375</AltitudeMeters>
            <DistanceMeters>2808.2771765616</DistanceMeters>
          </Trackpoint>
          <Trackpoint>
            <Time>2021-09-26T07:32:06.000Z</Time>
            <Position>
              <LatitudeDegrees>40.4650244303047657012939453125</LatitudeDegrees>
              <LongitudeDegrees>-3.68904314003884792327880859375</LongitudeDegrees>
            </Position>
            <AltitudeMeters>730.20001220703125</AltitudeMeters>
            <DistanceMeters>2829.6980613338</DistanceMeters>
          </Trackpoint>
          <Trackpoint>
            <Time>2021-09-26T07:32:08.000Z</Time>
            <Position>
              <LatitudeDegrees>40.46507094986736774444580078125</LatitudeDegrees>
              <LongitudeDegrees>-3.68904179893434047698974609375</LongitudeDegrees>
            </Position>
            <AltitudeMeters>730.5999755859375</AltitudeMeters>
            <DistanceMeters>2834.8767993112</DistanceMeters>
          </Trackpoint>
          <Trackpoint>
            <Time>2021-09-26T07:32:16.000Z</Time>
            <Position>
              <LatitudeDegrees>40.4652527533471584320068359375</LatitudeDegrees>
              <LongitudeDegrees>-3.6890445649623870849609375</LongitudeDegrees>
            </Position>
            <AltitudeMeters>732.20001220703125</AltitudeMeters>
            <DistanceMeters>2855.1132507475</DistanceMeters>
          </Trackpoint>
          <Trackpoint>
            <Time>2021-09-26T07:32:24.000Z</Time>
            <Position>
              <LatitudeDegrees>40.4654358141124248504638671875</LatitudeDegrees>
              <LongitudeDegrees>-3.689041547477245330810546875</LongitudeDegrees>
            </Position>
            <AltitudeMeters>733.79998779296875</AltitudeMeters>
            <DistanceMeters>2875.4902224324</DistanceMeters>
          </Trackpoint>
          <Trackpoint>
            <Time>2021-09-26T07:32:31.000Z</Time>
            <Position>
              <LatitudeDegrees>40.4656148515641689300537109375</LatitudeDegrees>
              <LongitudeDegrees>-3.68897952139377593994140625</LongitudeDegrees>
            </Position>
            <AltitudeMeters>735.5999755859375</AltitudeMeters>
            <DistanceMeters>2896.0980970234</DistanceMeters>
          </Trackpoint>
          <Trackpoint>
            <Time>2021-09-26T07:32:34.000Z</Time>
            <Position>
              <LatitudeDegrees>40.46568718738853931427001953125</LatitudeDegrees>
              <LongitudeDegrees>-3.68894062936305999755859375</LongitudeDegrees>
            </Position>
            <AltitudeMeters>736.5999755859375</AltitudeMeters>
            <DistanceMeters>2904.7970648128</DistanceMeters>
          </Trackpoint>
          <Trackpoint>
            <Time>2021-09-26T07:32:41.000Z</Time>
            <Position>
              <LatitudeDegrees>40.46587276272475719451904296875</LatitudeDegrees>
              <LongitudeDegrees>-3.68888170458376407623291015625</LongitudeDegrees>
            </Position>
            <AltitudeMeters>738.79998779296875</AltitudeMeters>
            <DistanceMeters>2926.0461090819</DistanceMeters>
          </Trackpoint>
          <Trackpoint>
            <Time>2021-09-26T07:32:50.000Z</Time>
            <Position>
              <LatitudeDegrees>40.46606671996414661407470703125</LatitudeDegrees>
              <LongitudeDegrees>-3.6888663657009601593017578125</LongitudeDegrees>
            </Position>
            <AltitudeMeters>742.5999755859375</AltitudeMeters>
            <DistanceMeters>2947.6729867921</DistanceMeters>
          </Trackpoint>
          <Trackpoint>
            <Time>2021-09-26T07:32:53.000Z</Time>
            <Position>
              <LatitudeDegrees>40.4661130718886852264404296875</LatitudeDegrees>
              <LongitudeDegrees>-3.68889327161014080047607421875</LongitudeDegrees>
            </Position>
            <AltitudeMeters>744.5999755859375</AltitudeMeters>
            <DistanceMeters>2953.3132845956</DistanceMeters>
          </Trackpoint>
          <Trackpoint>
            <Time>2021-09-26T07:33:00.000Z</Time>
            <Position>
              <LatitudeDegrees>40.4662803746759891510009765625</LatitudeDegrees>
              <LongitudeDegrees>-3.6889278888702392578125</LongitudeDegrees>
            </Position>
            <AltitudeMeters>750.5999755859375</AltitudeMeters>
            <DistanceMeters>2972.1640556202</DistanceMeters>
          </Trackpoint>
          <Trackpoint>
            <Time>2021-09-26T07:33:07.000Z</Time>
            <Position>
              <LatitudeDegrees>40.46647290699183940887451171875</LatitudeDegrees>
              <LongitudeDegrees>-3.6888774298131465911865234375</LongitudeDegrees>
            </Position>
            <AltitudeMeters>749.5999755859375</AltitudeMeters>
            <DistanceMeters>2994.0152414473</DistanceMeters>
          </Trackpoint>
          <Trackpoint>
            <Time>2021-09-26T07:33:09.000Z</Time>
            <Position>
              <LatitudeDegrees>40.4665194265544414520263671875</LatitudeDegrees>
              <LongitudeDegrees>-3.68885940872132778167724609375</LongitudeDegrees>
            </Position>
            <AltitudeMeters>748.79998779296875</AltitudeMeters>
            <DistanceMeters>2999.4125580591</DistanceMeters>
          </Trackpoint>
          <Trackpoint>
            <Time>2021-09-26T07:33:12.000Z</Time>
            <Position>
              <LatitudeDegrees>40.4666099511086940765380859375</LatitudeDegrees>
              <LongitudeDegrees>-3.68883711285889148712158203125</LongitudeDegrees>
            </Position>
            <AltitudeMeters>747.5999755859375</AltitudeMeters>
            <DistanceMeters>3009.6631175318</DistanceMeters>
          </Trackpoint>
          <Trackpoint>
            <Time>2021-09-26T07:33:19.000Z</Time>
            <Position>
              <LatitudeDegrees>40.4668087698519229888916015625</LatitudeDegrees>
              <LongitudeDegrees>-3.68878749199211597442626953125</LongitudeDegrees>
            </Position>
            <AltitudeMeters>744.5999755859375</AltitudeMeters>
            <DistanceMeters>3032.1874558112</DistanceMeters>
          </Trackpoint>
          <Trackpoint>
            <Time>2021-09-26T07:33:25.000Z</Time>
            <Position>
              <LatitudeDegrees>40.46699677594006061553955078125</LatitudeDegrees>
              <LongitudeDegrees>-3.6887449957430362701416015625</LongitudeDegrees>
            </Position>
            <AltitudeMeters>740.79998779296875</AltitudeMeters>
            <DistanceMeters>3053.4201326671</DistanceMeters>
          </Trackpoint>
          <Trackpoint>
            <Time>2021-09-26T07:33:31.000Z</Time>
            <Position>
              <LatitudeDegrees>40.46711076982319355010986328125</LatitudeDegrees>
              <LongitudeDegrees>-3.6887084506452083587646484375</LongitudeDegrees>
            </Position>
            <AltitudeMeters>737</AltitudeMeters>
            <DistanceMeters>3066.4793065966</DistanceMeters>
          </Trackpoint>
          <Trackpoint>
            <Time>2021-09-26T07:33:39.000Z</Time>
            <Position>
              <LatitudeDegrees>40.46729005873203277587890625</LatitudeDegrees>
              <LongitudeDegrees>-3.688666038215160369873046875</LongitudeDegrees>
            </Position>
            <AltitudeMeters>736.20001220703125</AltitudeMeters>
            <DistanceMeters>3086.7549880941</DistanceMeters>
          </Trackpoint>
          <Trackpoint>
            <Time>2021-09-26T07:33:42.000Z</Time>
            <Position>
              <LatitudeDegrees>40.4673636518418788909912109375</LatitudeDegrees>
              <LongitudeDegrees>-3.6886395514011383056640625</LongitudeDegrees>
            </Position>
            <AltitudeMeters>737</AltitudeMeters>
            <DistanceMeters>3095.2480588364</DistanceMeters>
          </Trackpoint>
          <Trackpoint>
            <Time>2021-09-26T07:33:49.000Z</Time>
            <Position>
              <LatitudeDegrees>40.467542521655559539794921875</LatitudeDegrees>
              <LongitudeDegrees>-3.6885874159634113311767578125</LongitudeDegrees>
            </Position>
            <AltitudeMeters>738.4000244140625</AltitudeMeters>
            <DistanceMeters>3115.6403135014</DistanceMeters>
          </Trackpoint>
          <Trackpoint>
            <Time>2021-09-26T07:33:52.000Z</Time>
            <Position>
              <LatitudeDegrees>40.46760362572968006134033203125</LatitudeDegrees>
              <LongitudeDegrees>-3.6885793693363666534423828125</LongitudeDegrees>
            </Position>
            <AltitudeMeters>739</AltitudeMeters>
            <DistanceMeters>3122.4756346731</DistanceMeters>
          </Trackpoint>
          <Trackpoint>
            <Time>2021-09-26T07:33:59.000Z</Time>
            <Position>
              <LatitudeDegrees>40.46779775060713291168212890625</LatitudeDegrees>
              <LongitudeDegrees>-3.6885297484695911407470703125</LongitudeDegrees>
            </Position>
            <AltitudeMeters>740.5999755859375</AltitudeMeters>
            <DistanceMeters>3144.4867839263</DistanceMeters>
          </Trackpoint>
          <Trackpoint>
            <Time>2021-09-26T07:34:02.000Z</Time>
            <Position>
              <LatitudeDegrees>40.4678749479353427886962890625</LatitudeDegrees>
              <LongitudeDegrees>-3.68850586004555225372314453125</LongitudeDegrees>
            </Position>
            <AltitudeMeters>741.20001220703125</AltitudeMeters>
            <DistanceMeters>3153.3135330198</DistanceMeters>
          </Trackpoint>
          <Trackpoint>
            <Time>2021-09-26T07:34:10.000Z</Time>
            <Position>
              <LatitudeDegrees>40.4680645465850830078125</LatitudeDegrees>
              <LongitudeDegrees>-3.688434697687625885009765625</LongitudeDegrees>
            </Position>
            <AltitudeMeters>742.20001220703125</AltitudeMeters>
            <DistanceMeters>3175.2595612986</DistanceMeters>
          </Trackpoint>
          <Trackpoint>
            <Time>2021-09-26T07:34:13.000Z</Time>
            <Position>
              <LatitudeDegrees>40.46813570894300937652587890625</LatitudeDegrees>
              <LongitudeDegrees>-3.6884214542806148529052734375</LongitudeDegrees>
            </Position>
            <AltitudeMeters>742.5999755859375</AltitudeMeters>
            <DistanceMeters>3183.2587563632</DistanceMeters>
          </Trackpoint>
          <Trackpoint>
            <Time>2021-09-26T07:34:20.000Z</Time>
            <Position>
              <LatitudeDegrees>40.46827518381178379058837890625</LatitudeDegrees>
              <LongitudeDegrees>-3.688419945538043975830078125</LongitudeDegrees>
            </Position>
            <AltitudeMeters>743.79998779296875</AltitudeMeters>
            <DistanceMeters>3198.7830505569</DistanceMeters>
          </Trackpoint>
          <Trackpoint>
            <Time>2021-09-26T07:34:26.000Z</Time>
            <Position>
              <LatitudeDegrees>40.468433685600757598876953125</LatitudeDegrees>
              <LongitudeDegrees>-3.6883755214512348175048828125</LongitudeDegrees>
            </Position>
            <AltitudeMeters>745</AltitudeMeters>
            <DistanceMeters>3216.8211134914</DistanceMeters>
          </Trackpoint>
          <Trackpoint>
            <Time>2021-09-26T07:34:31.000Z</Time>
            <Position>
              <LatitudeDegrees>40.46854130923748016357421875</LatitudeDegrees>
              <LongitudeDegrees>-3.6883533932268619537353515625</LongitudeDegrees>
            </Position>
            <AltitudeMeters>745.79998779296875</AltitudeMeters>
            <DistanceMeters>3228.9458668707</DistanceMeters>
          </Trackpoint>
          <Trackpoint>
            <Time>2021-09-26T07:34:34.000Z</Time>
            <Position>
              <LatitudeDegrees>40.46860325150191783905029296875</LatitudeDegrees>
              <LongitudeDegrees>-3.68835984729230403900146484375</LongitudeDegrees>
            </Position>
            <AltitudeMeters>746.20001220703125</AltitudeMeters>
            <DistanceMeters>3235.8613050236</DistanceMeters>
          </Trackpoint>
          <Trackpoint>
            <Time>2021-09-26T07:34:41.000Z</Time>
            <Position>
              <LatitudeDegrees>40.46874783933162689208984375</LatitudeDegrees>
              <LongitudeDegrees>-3.6883081309497356414794921875</LongitudeDegrees>
            </Position>
            <AltitudeMeters>747.20001220703125</AltitudeMeters>
            <DistanceMeters>3252.5395086073</DistanceMeters>
          </Trackpoint>
          <Trackpoint>
            <Time>2021-09-26T07:34:48.000Z</Time>
            <Position>
              <LatitudeDegrees>40.4689417965710163116455078125</LatitudeDegrees>
              <LongitudeDegrees>-3.68828759528696537017822265625</LongitudeDegrees>
            </Position>
            <AltitudeMeters>748.4000244140625</AltitudeMeters>
            <DistanceMeters>3274.197470674</DistanceMeters>
          </Trackpoint>
          <Trackpoint>
            <Time>2021-09-26T07:34:55.000Z</Time>
            <Position>
              <LatitudeDegrees>40.46911505050957202911376953125</LatitudeDegrees>
              <LongitudeDegrees>-3.6882450990378856658935546875</LongitudeDegrees>
            </Position>
            <AltitudeMeters>749</AltitudeMeters>
            <DistanceMeters>3293.8139861032</DistanceMeters>
          </Trackpoint>
          <Trackpoint>
            <Time>2021-09-26T07:35:04.000Z</Time>
            <Position>
              <LatitudeDegrees>40.46931286342442035675048828125</LatitudeDegrees>
              <LongitudeDegrees>-3.68819053284823894500732421875</LongitudeDegrees>
            </Position>
            <AltitudeMeters>748.5999755859375</AltitudeMeters>
            <DistanceMeters>3316.3106450635</DistanceMeters>
          </Trackpoint>
          <Trackpoint>
            <Time>2021-09-26T07:35:05.000Z</Time>
            <Position>
              <LatitudeDegrees>40.46933633275330066680908203125</LatitudeDegrees>
              <LongitudeDegrees>-3.68819489143788814544677734375</LongitudeDegrees>
            </Position>
            <AltitudeMeters>748.5999755859375</AltitudeMeters>
            <DistanceMeters>3318.9475293731</DistanceMeters>
          </Trackpoint>
          <Trackpoint>
            <Time>2021-09-26T07:35:12.000Z</Time>
            <Position>
              <LatitudeDegrees>40.4695027135312557220458984375</LatitudeDegrees>
              <LongitudeDegrees>-3.6881824024021625518798828125</LongitudeDegrees>
            </Position>
            <AltitudeMeters>748.20001220703125</AltitudeMeters>
            <DistanceMeters>3337.4960040412</DistanceMeters>
          </Trackpoint>
          <Trackpoint>
            <Time>2021-09-26T07:35:18.000Z</Time>
            <Position>
              <LatitudeDegrees>40.4696747101843357086181640625</LatitudeDegrees>
              <LongitudeDegrees>-3.6880588531494140625</LongitudeDegrees>
            </Position>
            <AltitudeMeters>748</AltitudeMeters>
            <DistanceMeters>3359.3116211286</DistanceMeters>
          </Trackpoint>
          <Trackpoint>
            <Time>2021-09-26T07:35:20.000Z</Time>
            <Position>
              <LatitudeDegrees>40.4697320424020290374755859375</LatitudeDegrees>
              <LongitudeDegrees>-3.68802331387996673583984375</LongitudeDegrees>
            </Position>
            <AltitudeMeters>747.79998779296875</AltitudeMeters>
            <DistanceMeters>3366.3666747329</DistanceMeters>
          </Trackpoint>
          <Trackpoint>
            <Time>2021-09-26T07:35:28.000Z</Time>
            <Position>
              <LatitudeDegrees>40.46991719864308834075927734375</LatitudeDegrees>
              <LongitudeDegrees>-3.68790437467396259307861328125</LongitudeDegrees>
            </Position>
            <AltitudeMeters>746.5999755859375</AltitudeMeters>
            <DistanceMeters>3389.3041631292</DistanceMeters>
          </Trackpoint>
          <Trackpoint>
            <Time>2021-09-26T07:35:29.000Z</Time>
            <Position>
              <LatitudeDegrees>40.46994033269584178924560546875</LatitudeDegrees>
              <LongitudeDegrees>-3.6879046261310577392578125</LongitudeDegrees>
            </Position>
            <AltitudeMeters>746.4000244140625</AltitudeMeters>
            <DistanceMeters>3391.8804213046</DistanceMeters>
          </Trackpoint>
          <Trackpoint>
            <Time>2021-09-26T07:35:36.000Z</Time>
            <Position>
              <LatitudeDegrees>40.47011970542371273040771484375</LatitudeDegrees>
              <LongitudeDegrees>-3.68787109851837158203125</LongitudeDegrees>
            </Position>
            <AltitudeMeters>745.20001220703125</AltitudeMeters>
            <DistanceMeters>3412.0457976319</DistanceMeters>
          </Trackpoint>
          <Trackpoint>
            <Time>2021-09-26T07:35:38.000Z</Time>
            <Position>
              <LatitudeDegrees>40.470175780355930328369140625</LatitudeDegrees>
              <LongitudeDegrees>-3.6878551729023456573486328125</LongitudeDegrees>
            </Position>
            <AltitudeMeters>745</AltitudeMeters>
            <DistanceMeters>3418.4302917441</DistanceMeters>
          </Trackpoint>
          <Trackpoint>
            <Time>2021-09-26T07:35:46.000Z</Time>
            <Position>
              <LatitudeDegrees>40.47037334181368350982666015625</LatitudeDegrees>
              <LongitudeDegrees>-3.6878337152302265167236328125</LongitudeDegrees>
            </Position>
            <AltitudeMeters>743.5999755859375</AltitudeMeters>
            <DistanceMeters>3440.4940951581</DistanceMeters>
          </Trackpoint>
          <Trackpoint>
            <Time>2021-09-26T07:35:54.000Z</Time>
            <Position>
              <LatitudeDegrees>40.4705564863979816436767578125</LatitudeDegrees>
              <LongitudeDegrees>-3.6878042109310626983642578125</LongitudeDegrees>
            </Position>
            <AltitudeMeters>742.20001220703125</AltitudeMeters>
            <DistanceMeters>3461.0308609793</DistanceMeters>
          </Trackpoint>
          <Trackpoint>
            <Time>2021-09-26T07:36:01.000Z</Time>
            <Position>
              <LatitudeDegrees>40.47070845030248165130615234375</LatitudeDegrees>
              <LongitudeDegrees>-3.6877472139894962310791015625</LongitudeDegrees>
            </Position>
            <AltitudeMeters>741.20001220703125</AltitudeMeters>
            <DistanceMeters>3478.6197898543</DistanceMeters>
          </Trackpoint>
          <Trackpoint>
            <Time>2021-09-26T07:36:09.000Z</Time>
            <Position>
              <LatitudeDegrees>40.4708994738757610321044921875</LatitudeDegrees>
              <LongitudeDegrees>-3.687707148492336273193359375</LongitudeDegrees>
            </Position>
            <AltitudeMeters>740</AltitudeMeters>
            <DistanceMeters>3500.1497901817</DistanceMeters>
          </Trackpoint>
          <Trackpoint>
            <Time>2021-09-26T07:36:15.000Z</Time>
            <Position>
              <LatitudeDegrees>40.47107507474720478057861328125</LatitudeDegrees>
              <LongitudeDegrees>-3.6876409314572811126708984375</LongitudeDegrees>
            </Position>
            <AltitudeMeters>739</AltitudeMeters>
            <DistanceMeters>3520.4826205266</DistanceMeters>
          </Trackpoint>
          <Trackpoint>
            <Time>2021-09-26T07:36:17.000Z</Time>
            <Position>
              <LatitudeDegrees>40.47112469561398029327392578125</LatitudeDegrees>
              <LongitudeDegrees>-3.68761536665260791778564453125</LongitudeDegrees>
            </Position>
            <AltitudeMeters>738.79998779296875</AltitudeMeters>
            <DistanceMeters>3526.4155150965</DistanceMeters>
          </Trackpoint>
          <Trackpoint>
            <Time>2021-09-26T07:36:24.000Z</Time>
            <Position>
              <LatitudeDegrees>40.47129057347774505615234375</LatitudeDegrees>
              <LongitudeDegrees>-3.687561638653278350830078125</LongitudeDegrees>
            </Position>
            <AltitudeMeters>738</AltitudeMeters>
            <DistanceMeters>3545.4303582675</DistanceMeters>
          </Trackpoint>
          <Trackpoint>
            <Time>2021-09-26T07:36:30.000Z</Time>
            <Position>
              <LatitudeDegrees>40.47143113799393177032470703125</LatitudeDegrees>
              <LongitudeDegrees>-3.68754210881888866424560546875</LongitudeDegrees>
            </Position>
            <AltitudeMeters>738</AltitudeMeters>
            <DistanceMeters>3561.162661508</DistanceMeters>
          </Trackpoint>
          <Trackpoint>
            <Time>2021-09-26T07:36:38.000Z</Time>
            <Position>
              <LatitudeDegrees>40.4716266877949237823486328125</LatitudeDegrees>
              <LongitudeDegrees>-3.68752978742122650146484375</LongitudeDegrees>
            </Position>
            <AltitudeMeters>737.79998779296875</AltitudeMeters>
            <DistanceMeters>3582.9525999986</DistanceMeters>
          </Trackpoint>
          <Trackpoint>
            <Time>2021-09-26T07:36:40.000Z</Time>
            <Position>
              <LatitudeDegrees>40.471677817404270172119140625</LatitudeDegrees>
              <LongitudeDegrees>-3.68751729838550090789794921875</LongitudeDegrees>
            </Position>
            <AltitudeMeters>737.79998779296875</AltitudeMeters>
            <DistanceMeters>3588.7406552512</DistanceMeters>
          </Trackpoint>
          <Trackpoint>
            <Time>2021-09-26T07:36:48.000Z</Time>
            <Position>
              <LatitudeDegrees>40.4718523286283016204833984375</LatitudeDegrees>
              <LongitudeDegrees>-3.68747304193675518035888671875</LongitudeDegrees>
            </Position>
            <AltitudeMeters>737.79998779296875</AltitudeMeters>
            <DistanceMeters>3608.5221954497</DistanceMeters>
          </Trackpoint>
          <Trackpoint>
            <Time>2021-09-26T07:36:56.000Z</Time>
            <Position>
              <LatitudeDegrees>40.47201787121593952178955078125</LatitudeDegrees>
              <LongitudeDegrees>-3.68746281601488590240478515625</LongitudeDegrees>
            </Position>
            <AltitudeMeters>737.5999755859375</AltitudeMeters>
            <DistanceMeters>3626.9676615662</DistanceMeters>
          </Trackpoint>
          <Trackpoint>
            <Time>2021-09-26T07:37:03.000Z</Time>
            <Position>
              <LatitudeDegrees>40.47219607047736644744873046875</LatitudeDegrees>
              <LongitudeDegrees>-3.68741285987198352813720703125</LongitudeDegrees>
            </Position>
            <AltitudeMeters>737.5999755859375</AltitudeMeters>
            <DistanceMeters>3647.2473509515</DistanceMeters>
          </Trackpoint>
          <Trackpoint>
            <Time>2021-09-26T07:37:04.000Z</Time>
            <Position>
              <LatitudeDegrees>40.4722194559872150421142578125</LatitudeDegrees>
              <LongitudeDegrees>-3.68740648962557315826416015625</LongitudeDegrees>
            </Position>
            <AltitudeMeters>737.4000244140625</AltitudeMeters>
            <DistanceMeters>3649.9047029754</DistanceMeters>
          </Trackpoint>
          <Trackpoint>
            <Time>2021-09-26T07:37:12.000Z</Time>
            <Position>
              <LatitudeDegrees>40.4724015109241008758544921875</LatitudeDegrees>
              <LongitudeDegrees>-3.68737631477415561676025390625</LongitudeDegrees>
            </Position>
            <AltitudeMeters>736.5999755859375</AltitudeMeters>
            <DistanceMeters>3670.3281525151</DistanceMeters>
          </Trackpoint>
          <Trackpoint>
            <Time>2021-09-26T07:37:20.000Z</Time>
            <Position>
              <LatitudeDegrees>40.47259219922125339508056640625</LatitudeDegrees>
              <LongitudeDegrees>-3.68734915740787982940673828125</LongitudeDegrees>
            </Position>
            <AltitudeMeters>736.5999755859375</AltitudeMeters>
            <DistanceMeters>3691.6764067324</DistanceMeters>
          </Trackpoint>
          <Trackpoint>
            <Time>2021-09-26T07:37:28.000Z</Time>
            <Position>
              <LatitudeDegrees>40.4727957956492900848388671875</LatitudeDegrees>
              <LongitudeDegrees>-3.6873200722038745880126953125</LongitudeDegrees>
            </Position>
            <AltitudeMeters>737.5999755859375</AltitudeMeters>
            <DistanceMeters>3714.4705405925</DistanceMeters>
          </Trackpoint>
          <Trackpoint>
            <Time>2021-09-26T07:37:35.000Z</Time>
            <Position>
              <LatitudeDegrees>40.47297240234911441802978515625</LatitudeDegrees>
              <LongitudeDegrees>-3.6872567050158977508544921875</LongitudeDegrees>
            </Position>
            <AltitudeMeters>738.4000244140625</AltitudeMeters>
            <DistanceMeters>3734.8461827809</DistanceMeters>
          </Trackpoint>
          <Trackpoint>
            <Time>2021-09-26T07:37:36.000Z</Time>
            <Position>
              <LatitudeDegrees>40.4729912616312503814697265625</LatitudeDegrees>
              <LongitudeDegrees>-3.687253184616565704345703125</LongitudeDegrees>
            </Position>
            <AltitudeMeters>738.4000244140625</AltitudeMeters>
            <DistanceMeters>3736.9667907289</DistanceMeters>
          </Trackpoint>
          <Trackpoint>
            <Time>2021-09-26T07:37:43.000Z</Time>
            <Position>
              <LatitudeDegrees>40.47317055054008960723876953125</LatitudeDegrees>
              <LongitudeDegrees>-3.6871804296970367431640625</LongitudeDegrees>
            </Position>
            <AltitudeMeters>737.20001220703125</AltitudeMeters>
            <DistanceMeters>3757.8510597427</DistanceMeters>
          </Trackpoint>
          <Trackpoint>
            <Time>2021-09-26T07:37:50.000Z</Time>
            <Position>
              <LatitudeDegrees>40.47335864044725894927978515625</LatitudeDegrees>
              <LongitudeDegrees>-3.68712804280221462249755859375</LongitudeDegrees>
            </Position>
            <AltitudeMeters>735.79998779296875</AltitudeMeters>
            <DistanceMeters>3779.2504344211</DistanceMeters>
          </Trackpoint>
          <Trackpoint>
            <Time>2021-09-26T07:37:52.000Z</Time>
            <Position>
              <LatitudeDegrees>40.4734053276479244232177734375</LatitudeDegrees>
              <LongitudeDegrees>-3.687110356986522674560546875</LongitudeDegrees>
            </Position>
            <AltitudeMeters>735.4000244140625</AltitudeMeters>
            <DistanceMeters>3784.6577801217</DistanceMeters>
          </Trackpoint>
          <Trackpoint>
            <Time>2021-09-26T07:37:58.000Z</Time>
            <Position>
              <LatitudeDegrees>40.47358453273773193359375</LatitudeDegrees>
              <LongitudeDegrees>-3.68705545552074909210205078125</LongitudeDegrees>
            </Position>
            <AltitudeMeters>734</AltitudeMeters>
            <DistanceMeters>3805.1381866319</DistanceMeters>
          </Trackpoint>
          <Trackpoint>
            <Time>2021-09-26T07:38:01.000Z</Time>
            <Position>
              <LatitudeDegrees>40.4736681841313838958740234375</LatitudeDegrees>
              <LongitudeDegrees>-3.68702209554612636566162109375</LongitudeDegrees>
            </Position>
            <AltitudeMeters>733.4000244140625</AltitudeMeters>
            <DistanceMeters>3814.8681055133</DistanceMeters>
          </Trackpoint>
          <Trackpoint>
            <Time>2021-09-26T07:38:08.000Z</Time>
            <Position>
              <LatitudeDegrees>40.47385166399180889129638671875</LatitudeDegrees>
              <LongitudeDegrees>-3.68695336394011974334716796875</LongitudeDegrees>
            </Position>
            <AltitudeMeters>732.79998779296875</AltitudeMeters>
            <DistanceMeters>3836.1026960945</DistanceMeters>
          </Trackpoint>
          <Trackpoint>
            <Time>2021-09-26T07:38:15.000Z</Time>
            <Position>
              <LatitudeDegrees>40.474028773605823516845703125</LatitudeDegrees>
              <LongitudeDegrees>-3.6868934333324432373046875</LongitudeDegrees>
            </Position>
            <AltitudeMeters>732</AltitudeMeters>
            <DistanceMeters>3856.4579417957</DistanceMeters>
          </Trackpoint>
          <Trackpoint>
            <Time>2021-09-26T07:38:20.000Z</Time>
            <Position>
              <LatitudeDegrees>40.47413882799446582794189453125</LatitudeDegrees>
              <LongitudeDegrees>-3.68685655295848846435546875</LongitudeDegrees>
            </Position>
            <AltitudeMeters>731.5999755859375</AltitudeMeters>
            <DistanceMeters>3869.0989952625</DistanceMeters>
          </Trackpoint>
          <Trackpoint>
            <Time>2021-09-26T07:38:28.000Z</Time>
            <Position>
              <LatitudeDegrees>40.4743303544819355010986328125</LatitudeDegrees>
              <LongitudeDegrees>-3.6868228577077388763427734375</LongitudeDegrees>
            </Position>
            <AltitudeMeters>731.79998779296875</AltitudeMeters>
            <DistanceMeters>3890.6065450048</DistanceMeters>
          </Trackpoint>
          <Trackpoint>
            <Time>2021-09-26T07:38:29.000Z</Time>
            <Position>
              <LatitudeDegrees>40.47434837557375431060791015625</LatitudeDegrees>
              <LongitudeDegrees>-3.6868236958980560302734375</LongitudeDegrees>
            </Position>
            <AltitudeMeters>731.79998779296875</AltitudeMeters>
            <DistanceMeters>3892.6133868257</DistanceMeters>
          </Trackpoint>
          <Trackpoint>
            <Time>2021-09-26T07:38:37.000Z</Time>
            <Position>
              <LatitudeDegrees>40.47455540858209133148193359375</LatitudeDegrees>
              <LongitudeDegrees>-3.68677600286900997161865234375</LongitudeDegrees>
            </Position>
            <AltitudeMeters>731.79998779296875</AltitudeMeters>
            <DistanceMeters>3916.0077210354</DistanceMeters>
          </Trackpoint>
          <Trackpoint>
            <Time>2021-09-26T07:38:40.000Z</Time>
            <Position>
              <LatitudeDegrees>40.47464543022215366363525390625</LatitudeDegrees>
              <LongitudeDegrees>-3.68674884550273418426513671875</LongitudeDegrees>
            </Position>
            <AltitudeMeters>732</AltitudeMeters>
            <DistanceMeters>3926.2877494704</DistanceMeters>
          </Trackpoint>
          <Trackpoint>
            <Time>2021-09-26T07:38:48.000Z</Time>
            <Position>
              <LatitudeDegrees>40.474835447967052459716796875</LatitudeDegrees>
              <LongitudeDegrees>-3.6866895854473114013671875</LongitudeDegrees>
            </Position>
            <AltitudeMeters>733.20001220703125</AltitudeMeters>
            <DistanceMeters>3948.0239549724</DistanceMeters>
          </Trackpoint>
          <Trackpoint>
            <Time>2021-09-26T07:38:50.000Z</Time>
            <Position>
              <LatitudeDegrees>40.47488741576671600341796875</LatitudeDegrees>
              <LongitudeDegrees>-3.6866864003241062164306640625</LongitudeDegrees>
            </Position>
            <AltitudeMeters>733.5999755859375</AltitudeMeters>
            <DistanceMeters>3953.8135701375</DistanceMeters>
          </Trackpoint>
          <Trackpoint>
            <Time>2021-09-26T07:38:55.000Z</Time>
            <Position>
              <LatitudeDegrees>40.47497282736003398895263671875</LatitudeDegrees>
              <LongitudeDegrees>-3.6867782659828662872314453125</LongitudeDegrees>
            </Position>
            <AltitudeMeters>733.20001220703125</AltitudeMeters>
            <DistanceMeters>3966.0966689821</DistanceMeters>
          </Trackpoint>
          <Trackpoint>
            <Time>2021-09-26T07:39:02.000Z</Time>
            <Position>
              <LatitudeDegrees>40.47506838105618953704833984375</LatitudeDegrees>
              <LongitudeDegrees>-3.68702595122158527374267578125</LongitudeDegrees>
            </Position>
            <AltitudeMeters>733.4000244140625</AltitudeMeters>
            <DistanceMeters>3989.6099728834</DistanceMeters>
          </Trackpoint>
          <Trackpoint>
            <Time>2021-09-26T07:39:03.000Z</Time>
            <Position>
              <LatitudeDegrees>40.47507827170193195343017578125</LatitudeDegrees>
              <LongitudeDegrees>-3.68706836365163326263427734375</LongitudeDegrees>
            </Position>
            <AltitudeMeters>733.4000244140625</AltitudeMeters>
            <DistanceMeters>3993.3668345367</DistanceMeters>
          </Trackpoint>
          <Trackpoint>
            <Time>2021-09-26T07:39:09.000Z</Time>
            <Position>
              <LatitudeDegrees>40.47512889839708805084228515625</LatitudeDegrees>
              <LongitudeDegrees>-3.68732233531773090362548828125</LongitudeDegrees>
            </Position>
            <AltitudeMeters>733.79998779296875</AltitudeMeters>
            <DistanceMeters>4015.5957747502</DistanceMeters>
          </Trackpoint>
          <Trackpoint>
            <Time>2021-09-26T07:39:11.000Z</Time>
            <Position>
              <LatitudeDegrees>40.4751594923436641693115234375</LatitudeDegrees>
              <LongitudeDegrees>-3.68738654069602489471435546875</LongitudeDegrees>
            </Position>
            <AltitudeMeters>733.79998779296875</AltitudeMeters>
            <DistanceMeters>4022.0099019923</DistanceMeters>
          </Trackpoint>
          <Trackpoint>
            <Time>2021-09-26T07:39:19.000Z</Time>
            <Position>
              <LatitudeDegrees>40.47523367218673229217529296875</LatitudeDegrees>
              <LongitudeDegrees>-3.68762425146996974945068359375</LongitudeDegrees>
            </Position>
            <AltitudeMeters>733.20001220703125</AltitudeMeters>
            <DistanceMeters>4043.7637565042</DistanceMeters>
          </Trackpoint>
          <Trackpoint>
            <Time>2021-09-26T07:39:20.000Z</Time>
            <Position>
              <LatitudeDegrees>40.47522604465484619140625</LatitudeDegrees>
              <LongitudeDegrees>-3.6876499839127063751220703125</LongitudeDegrees>
            </Position>
            <AltitudeMeters>733.20001220703125</AltitudeMeters>
            <DistanceMeters>4046.1011046273</DistanceMeters>
          </Trackpoint>
          <Trackpoint>
            <Time>2021-09-26T07:39:28.000Z</Time>
            <Position>
              <LatitudeDegrees>40.47524037770926952362060546875</LatitudeDegrees>
              <LongitudeDegrees>-3.68790873326361179351806640625</LongitudeDegrees>
            </Position>
            <AltitudeMeters>733.20001220703125</AltitudeMeters>
            <DistanceMeters>4068.0664633633</DistanceMeters>
          </Trackpoint>
          <Trackpoint>
            <Time>2021-09-26T07:39:30.000Z</Time>
            <Position>
              <LatitudeDegrees>40.47524859197437763214111328125</LatitudeDegrees>
              <LongitudeDegrees>-3.68797369301319122314453125</LongitudeDegrees>
            </Position>
            <AltitudeMeters>733.20001220703125</AltitudeMeters>
            <DistanceMeters>4073.6415439116</DistanceMeters>
          </Trackpoint>
          <Trackpoint>
            <Time>2021-09-26T07:39:38.000Z</Time>
            <Position>
              <LatitudeDegrees>40.4752872325479984283447265625</LatitudeDegrees>
              <LongitudeDegrees>-3.68823059834539890289306640625</LongitudeDegrees>
            </Position>
            <AltitudeMeters>733.20001220703125</AltitudeMeters>
            <DistanceMeters>4095.8137425325</DistanceMeters>
          </Trackpoint>
          <Trackpoint>
            <Time>2021-09-26T07:39:42.000Z</Time>
            <Position>
              <LatitudeDegrees>40.47529469244182109832763671875</LatitudeDegrees>
              <LongitudeDegrees>-3.6883557401597499847412109375</LongitudeDegrees>
            </Position>
            <AltitudeMeters>733.20001220703125</AltitudeMeters>
            <DistanceMeters>4106.4414514183</DistanceMeters>
          </Trackpoint>
          <Trackpoint>
            <Time>2021-09-26T07:39:50.000Z</Time>
            <Position>
              <LatitudeDegrees>40.47532486729323863983154296875</LatitudeDegrees>
              <LongitudeDegrees>-3.6886112205684185028076171875</LongitudeDegrees>
            </Position>
            <AltitudeMeters>733.4000244140625</AltitudeMeters>
            <DistanceMeters>4128.331036071</DistanceMeters>
          </Trackpoint>
          <Trackpoint>
            <Time>2021-09-26T07:39:51.000Z</Time>
            <Position>
              <LatitudeDegrees>40.4753284715116024017333984375</LatitudeDegrees>
              <LongitudeDegrees>-3.68864550255239009857177734375</LongitudeDegrees>
            </Position>
            <AltitudeMeters>733.4000244140625</AltitudeMeters>
            <DistanceMeters>4131.2599561146</DistanceMeters>
          </Trackpoint>
          <Trackpoint>
            <Time>2021-09-26T07:39:59.000Z</Time>
            <Position>
              <LatitudeDegrees>40.47535520978271961212158203125</LatitudeDegrees>
              <LongitudeDegrees>-3.68890517391264438629150390625</LongitudeDegrees>
            </Position>
            <AltitudeMeters>733.5999755859375</AltitudeMeters>
            <DistanceMeters>4153.4459976021</DistanceMeters>
          </Trackpoint>
          <Trackpoint>
            <Time>2021-09-26T07:40:07.000Z</Time>
            <Position>
              <LatitudeDegrees>40.47537147067487239837646484375</LatitudeDegrees>
              <LongitudeDegrees>-3.68916970677673816680908203125</LongitudeDegrees>
            </Position>
            <AltitudeMeters>733.4000244140625</AltitudeMeters>
            <DistanceMeters>4175.9159478515</DistanceMeters>
          </Trackpoint>
          <Trackpoint>
            <Time>2021-09-26T07:40:08.000Z</Time>
            <Position>
              <LatitudeDegrees>40.4753676988184452056884765625</LatitudeDegrees>
              <LongitudeDegrees>-3.68920348584651947021484375</LongitudeDegrees>
            </Position>
            <AltitudeMeters>733.4000244140625</AltitudeMeters>
            <DistanceMeters>4178.8076343468</DistanceMeters>
          </Trackpoint>
          <Trackpoint>
            <Time>2021-09-26T07:40:15.000Z</Time>
            <Position>
              <LatitudeDegrees>40.475300140678882598876953125</LatitudeDegrees>
              <LongitudeDegrees>-3.689411021769046783447265625</LongitudeDegrees>
            </Position>
            <AltitudeMeters>733.79998779296875</AltitudeMeters>
            <DistanceMeters>4197.920055761</DistanceMeters>
          </Trackpoint>
          <Trackpoint>
            <Time>2021-09-26T07:40:22.000Z</Time>
            <Position>
              <LatitudeDegrees>40.4751668684184551239013671875</LatitudeDegrees>
              <LongitudeDegrees>-3.68955460377037525177001953125</LongitudeDegrees>
            </Position>
            <AltitudeMeters>734.5999755859375</AltitudeMeters>
            <DistanceMeters>4217.0985091323</DistanceMeters>
          </Trackpoint>
          <Trackpoint>
            <Time>2021-09-26T07:40:29.000Z</Time>
            <Position>
              <LatitudeDegrees>40.47497685067355632781982421875</LatitudeDegrees>
              <LongitudeDegrees>-3.6895268596708774566650390625</LongitudeDegrees>
            </Position>
            <AltitudeMeters>735.20001220703125</AltitudeMeters>
            <DistanceMeters>4238.3777044461</DistanceMeters>
          </Trackpoint>
          <Trackpoint>
            <Time>2021-09-26T07:40:36.000Z</Time>
            <Position>
              <LatitudeDegrees>40.47480032779276371002197265625</LatitudeDegrees>
              <LongitudeDegrees>-3.68939434178173542022705078125</LongitudeDegrees>
            </Position>
            <AltitudeMeters>735.5999755859375</AltitudeMeters>
            <DistanceMeters>4261.0028447431</DistanceMeters>
          </Trackpoint>
          <Trackpoint>
            <Time>2021-09-26T07:40:37.000Z</Time>
            <Position>
              <LatitudeDegrees>40.47477132640779018402099609375</LatitudeDegrees>
              <LongitudeDegrees>-3.689371459186077117919921875</LongitudeDegrees>
            </Position>
            <AltitudeMeters>735.5999755859375</AltitudeMeters>
            <DistanceMeters>4264.7657106541</DistanceMeters>
          </Trackpoint>
          <Trackpoint>
            <Time>2021-09-26T07:40:45.000Z</Time>
            <Position>
              <LatitudeDegrees>40.47461927868425846099853515625</LatitudeDegrees>
              <LongitudeDegrees>-3.68918864987790584564208984375</LongitudeDegrees>
            </Position>
            <AltitudeMeters>735.79998779296875</AltitudeMeters>
            <DistanceMeters>4287.6994587664</DistanceMeters>
          </Trackpoint>
          <Trackpoint>
            <Time>2021-09-26T07:40:48.000Z</Time>
            <Position>
              <LatitudeDegrees>40.474572591483592987060546875</LatitudeDegrees>
              <LongitudeDegrees>-3.68911002762615680694580078125</LongitudeDegrees>
            </Position>
            <AltitudeMeters>735.79998779296875</AltitudeMeters>
            <DistanceMeters>4296.1440140346</DistanceMeters>
          </Trackpoint>
          <Trackpoint>
            <Time>2021-09-26T07:40:51.000Z</Time>
            <Position>
              <LatitudeDegrees>40.47453428618609905242919921875</LatitudeDegrees>
              <LongitudeDegrees>-3.6890177428722381591796875</LongitudeDegrees>
            </Position>
            <AltitudeMeters>735.5999755859375</AltitudeMeters>
            <DistanceMeters>4305.0451314206</DistanceMeters>
          </Trackpoint>
          <Trackpoint>
            <Time>2021-09-26T07:40:55.000Z</Time>
            <Position>
              <LatitudeDegrees>40.47447158955037593841552734375</LatitudeDegrees>
              <LongitudeDegrees>-3.68892612867057323455810546875</LongitudeDegrees>
            </Position>
            <AltitudeMeters>735.5999755859375</AltitudeMeters>
            <DistanceMeters>4315.4786146132</DistanceMeters>
          </Trackpoint>
          <Trackpoint>
            <Time>2021-09-26T07:41:02.000Z</Time>
            <Position>
              <LatitudeDegrees>40.4743876866996288299560546875</LatitudeDegrees>
              <LongitudeDegrees>-3.68870836682617664337158203125</LongitudeDegrees>
            </Position>
            <AltitudeMeters>735.5999755859375</AltitudeMeters>
            <DistanceMeters>4336.1459965459</DistanceMeters>
          </Trackpoint>
          <Trackpoint>
            <Time>2021-09-26T07:41:03.000Z</Time>
            <Position>
              <LatitudeDegrees>40.47438240610063076019287109375</LatitudeDegrees>
              <LongitudeDegrees>-3.68867534212768077850341796875</LongitudeDegrees>
            </Position>
            <AltitudeMeters>735.5999755859375</AltitudeMeters>
            <DistanceMeters>4339.0031260679</DistanceMeters>
          </Trackpoint>
          <Trackpoint>
            <Time>2021-09-26T07:41:11.000Z</Time>
            <Position>
              <LatitudeDegrees>40.47435608692467212677001953125</LatitudeDegrees>
              <LongitudeDegrees>-3.68841734714806079864501953125</LongitudeDegrees>
            </Position>
            <AltitudeMeters>735.4000244140625</AltitudeMeters>
            <DistanceMeters>4361.0423595374</DistanceMeters>
          </Trackpoint>
          <Trackpoint>
            <Time>2021-09-26T07:41:12.000Z</Time>
            <Position>
              <LatitudeDegrees>40.4743504710495471954345703125</LatitudeDegrees>
              <LongitudeDegrees>-3.68838348425924777984619140625</LongitudeDegrees>
            </Position>
            <AltitudeMeters>735.4000244140625</AltitudeMeters>
            <DistanceMeters>4363.9774392514</DistanceMeters>
          </Trackpoint>
          <Trackpoint>
            <Time>2021-09-26T07:41:18.000Z</Time>
            <Position>
              <LatitudeDegrees>40.47431451268494129180908203125</LatitudeDegrees>
              <LongitudeDegrees>-3.688198663294315338134765625</LongitudeDegrees>
            </Position>
            <AltitudeMeters>735.20001220703125</AltitudeMeters>
            <DistanceMeters>4380.1294650854</DistanceMeters>
          </Trackpoint>
          <Trackpoint>
            <Time>2021-09-26T07:41:26.000Z</Time>
            <Position>
              <LatitudeDegrees>40.474276877939701080322265625</LatitudeDegrees>
              <LongitudeDegrees>-3.6879413388669490814208984375</LongitudeDegrees>
            </Position>
            <AltitudeMeters>735.4000244140625</AltitudeMeters>
            <DistanceMeters>4402.3153030639</DistanceMeters>
          </Trackpoint>
          <Trackpoint>
            <Time>2021-09-26T07:41:27.000Z</Time>
            <Position>
              <LatitudeDegrees>40.474273525178432464599609375</LatitudeDegrees>
              <LongitudeDegrees>-3.68791124783456325531005859375</LongitudeDegrees>
            </Position>
            <AltitudeMeters>735.5999755859375</AltitudeMeters>
            <DistanceMeters>4404.8898080862</DistanceMeters>
          </Trackpoint>
          <Trackpoint>
            <Time>2021-09-26T07:41:35.000Z</Time>
            <Position>
              <LatitudeDegrees>40.47424259595572948455810546875</LatitudeDegrees>
              <LongitudeDegrees>-3.68765844963490962982177734375</LongitudeDegrees>
            </Position>
            <AltitudeMeters>736</AltitudeMeters>
            <DistanceMeters>4426.5683988718</DistanceMeters>
          </Trackpoint>
          <Trackpoint>
            <Time>2021-09-26T07:41:38.000Z</Time>
            <Position>
              <LatitudeDegrees>40.4742143489420413970947265625</LatitudeDegrees>
              <LongitudeDegrees>-3.68756306357681751251220703125</LongitudeDegrees>
            </Position>
            <AltitudeMeters>736</AltitudeMeters>
            <DistanceMeters>4435.2351269661</DistanceMeters>
          </Trackpoint>
          <Trackpoint>
            <Time>2021-09-26T07:41:40.000Z</Time>
            <Position>
              <LatitudeDegrees>40.474172271788120269775390625</LatitudeDegrees>
              <LongitudeDegrees>-3.6875326372683048248291015625</LongitudeDegrees>
            </Position>
            <AltitudeMeters>736.20001220703125</AltitudeMeters>
            <DistanceMeters>4440.5803268565</DistanceMeters>
          </Trackpoint>
          <Trackpoint>
            <Time>2021-09-26T07:41:46.000Z</Time>
            <Position>
              <LatitudeDegrees>40.474027097225189208984375</LatitudeDegrees>
              <LongitudeDegrees>-3.6875286139547824859619140625</LongitudeDegrees>
            </Position>
            <AltitudeMeters>737.20001220703125</AltitudeMeters>
            <DistanceMeters>4456.7421334145</DistanceMeters>
          </Trackpoint>
          <Trackpoint>
            <Time>2021-09-26T07:41:53.000Z</Time>
            <Position>
              <LatitudeDegrees>40.4738433659076690673828125</LatitudeDegrees>
              <LongitudeDegrees>-3.68757161311805248260498046875</LongitudeDegrees>
            </Position>
            <AltitudeMeters>738</AltitudeMeters>
            <DistanceMeters>4477.5132429742</DistanceMeters>
          </Trackpoint>
          <Trackpoint>
            <Time>2021-09-26T07:41:55.000Z</Time>
            <Position>
              <LatitudeDegrees>40.4737945832312107086181640625</LatitudeDegrees>
              <LongitudeDegrees>-3.6875778995454311370849609375</LongitudeDegrees>
            </Position>
            <AltitudeMeters>738</AltitudeMeters>
            <DistanceMeters>4482.9688027034</DistanceMeters>
          </Trackpoint>
          <Trackpoint>
            <Time>2021-09-26T07:42:03.000Z</Time>
            <Position>
              <LatitudeDegrees>40.473597608506679534912109375</LatitudeDegrees>
              <LongitudeDegrees>-3.68761637248098850250244140625</LongitudeDegrees>
            </Position>
            <AltitudeMeters>738.4000244140625</AltitudeMeters>
            <DistanceMeters>4505.133058132</DistanceMeters>
          </Trackpoint>
          <Trackpoint>
            <Time>2021-09-26T07:42:04.000Z</Time>
            <Position>
              <LatitudeDegrees>40.4735719598829746246337890625</LatitudeDegrees>
              <LongitudeDegrees>-3.68761721067130565643310546875</LongitudeDegrees>
            </Position>
            <AltitudeMeters>738.4000244140625</AltitudeMeters>
            <DistanceMeters>4507.990187654</DistanceMeters>
          </Trackpoint>
          <Trackpoint>
            <Time>2021-09-26T07:42:12.000Z</Time>
            <Position>
              <LatitudeDegrees>40.4733818583190441131591796875</LatitudeDegrees>
              <LongitudeDegrees>-3.68762793950736522674560546875</LongitudeDegrees>
            </Position>
            <AltitudeMeters>738.4000244140625</AltitudeMeters>
            <DistanceMeters>4529.1685704292</DistanceMeters>
          </Trackpoint>
          <Trackpoint>
            <Time>2021-09-26T07:42:15.000Z</Time>
            <Position>
              <LatitudeDegrees>40.473315306007862091064453125</LatitudeDegrees>
              <LongitudeDegrees>-3.68762760423123836517333984375</LongitudeDegrees>
            </Position>
            <AltitudeMeters>738.4000244140625</AltitudeMeters>
            <DistanceMeters>4536.5769983748</DistanceMeters>
          </Trackpoint>
          <Trackpoint>
            <Time>2021-09-26T07:42:23.000Z</Time>
            <Position>
              <LatitudeDegrees>40.47311707399785518646240234375</LatitudeDegrees>
              <LongitudeDegrees>-3.68766465224325656890869140625</LongitudeDegrees>
            </Position>
            <AltitudeMeters>738.79998779296875</AltitudeMeters>
            <DistanceMeters>4558.8625357106</DistanceMeters>
          </Trackpoint>
          <Trackpoint>
            <Time>2021-09-26T07:42:24.000Z</Time>
            <Position>
              <LatitudeDegrees>40.473092682659626007080078125</LatitudeDegrees>
              <LongitudeDegrees>-3.6876712739467620849609375</LongitudeDegrees>
            </Position>
            <AltitudeMeters>738.79998779296875</AltitudeMeters>
            <DistanceMeters>4561.6330167116</DistanceMeters>
          </Trackpoint>
          <Trackpoint>
            <Time>2021-09-26T07:42:25.000Z</Time>
            <Position>
              <LatitudeDegrees>40.4730683751404285430908203125</LatitudeDegrees>
              <LongitudeDegrees>-3.68767605163156986236572265625</LongitudeDegrees>
            </Position>
            <AltitudeMeters>738.79998779296875</AltitudeMeters>
            <DistanceMeters>4564.3674093856</DistanceMeters>
          </Trackpoint>
          <Trackpoint>
            <Time>2021-09-26T07:42:33.000Z</Time>
            <Position>
              <LatitudeDegrees>40.472883470356464385986328125</LatitudeDegrees>
              <LongitudeDegrees>-3.6877277679741382598876953125</LongitudeDegrees>
            </Position>
            <AltitudeMeters>738.5999755859375</AltitudeMeters>
            <DistanceMeters>4585.4082638792</DistanceMeters>
          </Trackpoint>
          <Trackpoint>
            <Time>2021-09-26T07:42:34.000Z</Time>
            <Position>
              <LatitudeDegrees>40.4728588275611400604248046875</LatitudeDegrees>
              <LongitudeDegrees>-3.68773774243891239166259765625</LongitudeDegrees>
            </Position>
            <AltitudeMeters>738.4000244140625</AltitudeMeters>
            <DistanceMeters>4588.2780077209</DistanceMeters>
          </Trackpoint>
          <Trackpoint>
            <Time>2021-09-26T07:42:41.000Z</Time>
            <Position>
              <LatitudeDegrees>40.47268758527934551239013671875</LatitudeDegrees>
              <LongitudeDegrees>-3.6878367327153682708740234375</LongitudeDegrees>
            </Position>
            <AltitudeMeters>737.79998779296875</AltitudeMeters>
            <DistanceMeters>4609.0990526015</DistanceMeters>
          </Trackpoint>
          <Trackpoint>
            <Time>2021-09-26T07:42:45.000Z</Time>
            <Position>
              <LatitudeDegrees>40.4725899361073970794677734375</LatitudeDegrees>
              <LongitudeDegrees>-3.68785425089299678802490234375</LongitudeDegrees>
            </Position>
            <AltitudeMeters>737.4000244140625</AltitudeMeters>
            <DistanceMeters>4620.0683629087</DistanceMeters>
          </Trackpoint>
          <Trackpoint>
            <Time>2021-09-26T07:42:53.000Z</Time>
            <Position>
              <LatitudeDegrees>40.4724122397601604461669921875</LatitudeDegrees>
              <LongitudeDegrees>-3.687898255884647369384765625</LongitudeDegrees>
            </Position>
            <AltitudeMeters>736.5999755859375</AltitudeMeters>
            <DistanceMeters>4640.1942941659</DistanceMeters>
          </Trackpoint>
          <Trackpoint>
            <Time>2021-09-26T07:43:01.000Z</Time>
            <Position>
              <LatitudeDegrees>40.4722234793007373809814453125</LatitudeDegrees>
              <LongitudeDegrees>-3.687944523990154266357421875</LongitudeDegrees>
            </Position>
            <AltitudeMeters>735.79998779296875</AltitudeMeters>
            <DistanceMeters>4661.5658001151</DistanceMeters>
          </Trackpoint>
          <Trackpoint>
            <Time>2021-09-26T07:43:09.000Z</Time>
            <Position>
              <LatitudeDegrees>40.47202507965266704559326171875</LatitudeDegrees>
              <LongitudeDegrees>-3.6880016885697841644287109375</LongitudeDegrees>
            </Position>
            <AltitudeMeters>735.20001220703125</AltitudeMeters>
            <DistanceMeters>4684.1721741337</DistanceMeters>
          </Trackpoint>
          <Trackpoint>
            <Time>2021-09-26T07:43:10.000Z</Time>
            <Position>
              <LatitudeDegrees>40.4719981737434864044189453125</LatitudeDegrees>
              <LongitudeDegrees>-3.688016273081302642822265625</LongitudeDegrees>
            </Position>
            <AltitudeMeters>735.20001220703125</AltitudeMeters>
            <DistanceMeters>4687.4114562807</DistanceMeters>
          </Trackpoint>
          <Trackpoint>
            <Time>2021-09-26T07:43:18.000Z</Time>
            <Position>
              <LatitudeDegrees>40.47179876826703548431396484375</LatitudeDegrees>
              <LongitudeDegrees>-3.68809917010366916656494140625</LongitudeDegrees>
            </Position>
            <AltitudeMeters>734.5999755859375</AltitudeMeters>
            <DistanceMeters>4710.6891223368</DistanceMeters>
          </Trackpoint>
          <Trackpoint>
            <Time>2021-09-26T07:43:19.000Z</Time>
            <Position>
              <LatitudeDegrees>40.47177999280393123626708984375</LatitudeDegrees>
              <LongitudeDegrees>-3.68811191059648990631103515625</LongitudeDegrees>
            </Position>
            <AltitudeMeters>734.5999755859375</AltitudeMeters>
            <DistanceMeters>4713.0399534204</DistanceMeters>
          </Trackpoint>
          <Trackpoint>
            <Time>2021-09-26T07:43:27.000Z</Time>
            <Position>
              <LatitudeDegrees>40.47160145826637744903564453125</LatitudeDegrees>
              <LongitudeDegrees>-3.6881844140589237213134765625</LongitudeDegrees>
            </Position>
            <AltitudeMeters>734.5999755859375</AltitudeMeters>
            <DistanceMeters>4733.8379995262</DistanceMeters>
          </Trackpoint>
          <Trackpoint>
            <Time>2021-09-26T07:43:29.000Z</Time>
            <Position>
              <LatitudeDegrees>40.47155535779893398284912109375</LatitudeDegrees>
              <LongitudeDegrees>-3.6881951428949832916259765625</LongitudeDegrees>
            </Position>
            <AltitudeMeters>734.5999755859375</AltitudeMeters>
            <DistanceMeters>4739.0480292565</DistanceMeters>
          </Trackpoint>
          <Trackpoint>
            <Time>2021-09-26T07:43:36.000Z</Time>
            <Position>
              <LatitudeDegrees>40.471370704472064971923828125</LatitudeDegrees>
              <LongitudeDegrees>-3.688233196735382080078125</LongitudeDegrees>
            </Position>
            <AltitudeMeters>735</AltitudeMeters>
            <DistanceMeters>4759.8512848588</DistanceMeters>
          </Trackpoint>
          <Trackpoint>
            <Time>2021-09-26T07:43:38.000Z</Time>
            <Position>
              <LatitudeDegrees>40.47132275998592376708984375</LatitudeDegrees>
              <LongitudeDegrees>-3.688246943056583404541015625</LongitudeDegrees>
            </Position>
            <AltitudeMeters>735</AltitudeMeters>
            <DistanceMeters>4765.3126347372</DistanceMeters>
          </Trackpoint>
          <Trackpoint>
            <Time>2021-09-26T07:43:45.000Z</Time>
            <Position>
              <LatitudeDegrees>40.47114481218159198760986328125</LatitudeDegrees>
              <LongitudeDegrees>-3.6882883496582508087158203125</LongitudeDegrees>
            </Position>
            <AltitudeMeters>736.20001220703125</AltitudeMeters>
            <DistanceMeters>4785.4264480217</DistanceMeters>
          </Trackpoint>
          <Trackpoint>
            <Time>2021-09-26T07:43:48.000Z</Time>
            <Position>
              <LatitudeDegrees>40.4710701294243335723876953125</LatitudeDegrees>
              <LongitudeDegrees>-3.68830905295908451080322265625</LongitudeDegrees>
            </Position>
            <AltitudeMeters>736.5999755859375</AltitudeMeters>
            <DistanceMeters>4793.9216449552</DistanceMeters>
          </Trackpoint>
          <Trackpoint>
            <Time>2021-09-26T07:43:56.000Z</Time>
            <Position>
              <LatitudeDegrees>40.4708749987185001373291015625</LatitudeDegrees>
              <LongitudeDegrees>-3.6883735097944736480712890625</LongitudeDegrees>
            </Position>
            <AltitudeMeters>737.79998779296875</AltitudeMeters>
            <DistanceMeters>4816.3153106944</DistanceMeters>
          </Trackpoint>
          <Trackpoint>
            <Time>2021-09-26T07:43:59.000Z</Time>
            <Position>
              <LatitudeDegrees>40.4708015732467174530029296875</LatitudeDegrees>
              <LongitudeDegrees>-3.6883872561156749725341796875</LongitudeDegrees>
            </Position>
            <AltitudeMeters>738.4000244140625</AltitudeMeters>
            <DistanceMeters>4824.5700642853</DistanceMeters>
          </Trackpoint>
          <Trackpoint>
            <Time>2021-09-26T07:44:06.000Z</Time>
            <Position>
              <LatitudeDegrees>40.47063703648746013641357421875</LatitudeDegrees>
              <LongitudeDegrees>-3.6884385533630847930908203125</LongitudeDegrees>
            </Position>
            <AltitudeMeters>739.4000244140625</AltitudeMeters>
            <DistanceMeters>4843.3913519357</DistanceMeters>
          </Trackpoint>
          <Trackpoint>
            <Time>2021-09-26T07:44:09.000Z</Time>
            <Position>
              <LatitudeDegrees>40.4705501161515712738037109375</LatitudeDegrees>
              <LongitudeDegrees>-3.68847099132835865020751953125</LongitudeDegrees>
            </Position>
            <AltitudeMeters>739.79998779296875</AltitudeMeters>
            <DistanceMeters>4853.448034101</DistanceMeters>
          </Trackpoint>
          <Trackpoint>
            <Time>2021-09-26T07:44:17.000Z</Time>
            <Position>
              <LatitudeDegrees>40.47036076895892620086669921875</LatitudeDegrees>
              <LongitudeDegrees>-3.688512481749057769775390625</LongitudeDegrees>
            </Position>
            <AltitudeMeters>741.20001220703125</AltitudeMeters>
            <DistanceMeters>4874.8136238283</DistanceMeters>
          </Trackpoint>
          <Trackpoint>
            <Time>2021-09-26T07:44:20.000Z</Time>
            <Position>
              <LatitudeDegrees>40.4702974855899810791015625</LatitudeDegrees>
              <LongitudeDegrees>-3.68852161802351474761962890625</LongitudeDegrees>
            </Position>
            <AltitudeMeters>741.5999755859375</AltitudeMeters>
            <DistanceMeters>4881.8993295114</DistanceMeters>
          </Trackpoint>
          <Trackpoint>
            <Time>2021-09-26T07:44:27.000Z</Time>
            <Position>
              <LatitudeDegrees>40.4701454378664493560791015625</LatitudeDegrees>
              <LongitudeDegrees>-3.68854592554271221160888671875</LongitudeDegrees>
            </Position>
            <AltitudeMeters>743</AltitudeMeters>
            <DistanceMeters>4898.9470267246</DistanceMeters>
          </Trackpoint>
          <Trackpoint>
            <Time>2021-09-26T07:44:35.000Z</Time>
            <Position>
              <LatitudeDegrees>40.46995072625577449798583984375</LatitudeDegrees>
              <LongitudeDegrees>-3.688597977161407470703125</LongitudeDegrees>
            </Position>
            <AltitudeMeters>744.5999755859375</AltitudeMeters>
            <DistanceMeters>4921.0623381707</DistanceMeters>
          </Trackpoint>
          <Trackpoint>
            <Time>2021-09-26T07:44:36.000Z</Time>
            <Position>
              <LatitudeDegrees>40.469927005469799041748046875</LatitudeDegrees>
              <LongitudeDegrees>-3.68860258720815181732177734375</LongitudeDegrees>
            </Position>
            <AltitudeMeters>744.79998779296875</AltitudeMeters>
            <DistanceMeters>4923.7298651599</DistanceMeters>
          </Trackpoint>
          <Trackpoint>
            <Time>2021-09-26T07:44:41.000Z</Time>
            <Position>
              <LatitudeDegrees>40.4698280990123748779296875</LatitudeDegrees>
              <LongitudeDegrees>-3.68856151588261127471923828125</LongitudeDegrees>
            </Position>
            <AltitudeMeters>745.5999755859375</AltitudeMeters>
            <DistanceMeters>4935.2747310453</DistanceMeters>
          </Trackpoint>
          <Trackpoint>
            <Time>2021-09-26T07:44:45.000Z</Time>
            <Position>
              <LatitudeDegrees>40.46974285505712032318115234375</LatitudeDegrees>
              <LongitudeDegrees>-3.68855497799813747406005859375</LongitudeDegrees>
            </Position>
            <AltitudeMeters>746.4000244140625</AltitudeMeters>
            <DistanceMeters>4944.7788277761</DistanceMeters>
          </Trackpoint>
          <Trackpoint>
            <Time>2021-09-26T07:44:52.000Z</Time>
            <Position>
              <LatitudeDegrees>40.4695942439138889312744140625</LatitudeDegrees>
              <LongitudeDegrees>-3.688555397093296051025390625</LongitudeDegrees>
            </Position>
            <AltitudeMeters>747.20001220703125</AltitudeMeters>
            <DistanceMeters>4961.3194824215</DistanceMeters>
          </Trackpoint>
          <Trackpoint>
            <Time>2021-09-26T07:45:01.000Z</Time>
            <Position>
              <LatitudeDegrees>40.46939902938902378082275390625</LatitudeDegrees>
              <LongitudeDegrees>-3.6885699816048145294189453125</LongitudeDegrees>
            </Position>
            <AltitudeMeters>747.5999755859375</AltitudeMeters>
            <DistanceMeters>4983.0822598043</DistanceMeters>
          </Trackpoint>
          <Trackpoint>
            <Time>2021-09-26T07:45:02.000Z</Time>
            <Position>
              <LatitudeDegrees>40.46937656588852405548095703125</LatitudeDegrees>
              <LongitudeDegrees>-3.68857073597609996795654296875</LongitudeDegrees>
            </Position>
            <AltitudeMeters>747.79998779296875</AltitudeMeters>
            <DistanceMeters>4985.5856321401</DistanceMeters>
          </Trackpoint>
          <Trackpoint>
            <Time>2021-09-26T07:45:08.000Z</Time>
            <Position>
              <LatitudeDegrees>40.46921764500439167022705078125</LatitudeDegrees>
              <LongitudeDegrees>-3.6886413954198360443115234375</LongitudeDegrees>
            </Position>
            <AltitudeMeters>748.20001220703125</AltitudeMeters>
            <DistanceMeters>5004.2583210642</DistanceMeters>
          </Trackpoint>
          <Trackpoint>
            <Time>2021-09-26T07:45:11.000Z</Time>
            <Position>
              <LatitudeDegrees>40.4691345803439617156982421875</LatitudeDegrees>
              <LongitudeDegrees>-3.68876083754003047943115234375</LongitudeDegrees>
            </Position>
            <AltitudeMeters>748.5999755859375</AltitudeMeters>
            <DistanceMeters>5017.9606328919</DistanceMeters>
          </Trackpoint>
          <Trackpoint>
            <Time>2021-09-26T07:45:16.000Z</Time>
            <Position>
              <LatitudeDegrees>40.469021759927272796630859375</LatitudeDegrees>
              <LongitudeDegrees>-3.6887909285724163055419921875</LongitudeDegrees>
            </Position>
            <AltitudeMeters>748.79998779296875</AltitudeMeters>
            <DistanceMeters>5030.7737441389</DistanceMeters>
          </Trackpoint>
          <Trackpoint>
            <Time>2021-09-26T07:45:22.000Z</Time>
            <Position>
              <LatitudeDegrees>40.4688888229429721832275390625</LatitudeDegrees>
              <LongitudeDegrees>-3.6888291500508785247802734375</LongitudeDegrees>
            </Position>
            <AltitudeMeters>749.20001220703125</AltitudeMeters>
            <DistanceMeters>5045.9197027411</DistanceMeters>
          </Trackpoint>
          <Trackpoint>
            <Time>2021-09-26T07:45:30.000Z</Time>
            <Position>
              <LatitudeDegrees>40.46870886348187923431396484375</LatitudeDegrees>
              <LongitudeDegrees>-3.68883878923952579498291015625</LongitudeDegrees>
            </Position>
            <AltitudeMeters>747.4000244140625</AltitudeMeters>
            <DistanceMeters>5065.9660605627</DistanceMeters>
          </Trackpoint>
          <Trackpoint>
            <Time>2021-09-26T07:45:38.000Z</Time>
            <Position>
              <LatitudeDegrees>40.46852965839207172393798828125</LatitudeDegrees>
              <LongitudeDegrees>-3.6888573132455348968505859375</LongitudeDegrees>
            </Position>
            <AltitudeMeters>744.4000244140625</AltitudeMeters>
            <DistanceMeters>5085.973641345</DistanceMeters>
          </Trackpoint>
          <Trackpoint>
            <Time>2021-09-26T07:45:45.000Z</Time>
            <Position>
              <LatitudeDegrees>40.4683664627373218536376953125</LatitudeDegrees>
              <LongitudeDegrees>-3.688894025981426239013671875</LongitudeDegrees>
            </Position>
            <AltitudeMeters>742.5999755859375</AltitudeMeters>
            <DistanceMeters>5104.4017200519</DistanceMeters>
          </Trackpoint>
          <Trackpoint>
            <Time>2021-09-26T07:45:53.000Z</Time>
            <Position>
              <LatitudeDegrees>40.46817325986921787261962890625</LatitudeDegrees>
              <LongitudeDegrees>-3.68895647116005420684814453125</LongitudeDegrees>
            </Position>
            <AltitudeMeters>740.4000244140625</AltitudeMeters>
            <DistanceMeters>5126.5460030887</DistanceMeters>
          </Trackpoint>
          <Trackpoint>
            <Time>2021-09-26T07:45:55.000Z</Time>
            <Position>
              <LatitudeDegrees>40.4681243933737277984619140625</LatitudeDegrees>
              <LongitudeDegrees>-3.68898756802082061767578125</LongitudeDegrees>
            </Position>
            <AltitudeMeters>739.79998779296875</AltitudeMeters>
            <DistanceMeters>5132.5889848973</DistanceMeters>
          </Trackpoint>
          <Trackpoint>
            <Time>2021-09-26T07:46:00.000Z</Time>
            <Position>
              <LatitudeDegrees>40.46801266260445117950439453125</LatitudeDegrees>
              <LongitudeDegrees>-3.68902620859444141387939453125</LongitudeDegrees>
            </Position>
            <AltitudeMeters>738.5999755859375</AltitudeMeters>
            <DistanceMeters>5145.4478234827</DistanceMeters>
          </Trackpoint>
          <Trackpoint>
            <Time>2021-09-26T07:46:06.000Z</Time>
            <Position>
              <LatitudeDegrees>40.46787234954535961151123046875</LatitudeDegrees>
              <LongitudeDegrees>-3.6890177428722381591796875</LongitudeDegrees>
            </Position>
            <AltitudeMeters>738</AltitudeMeters>
            <DistanceMeters>5161.0813787096</DistanceMeters>
          </Trackpoint>
          <Trackpoint>
            <Time>2021-09-26T07:46:13.000Z</Time>
            <Position>
              <LatitudeDegrees>40.46772298403084278106689453125</LatitudeDegrees>
              <LongitudeDegrees>-3.68898144923150539398193359375</LongitudeDegrees>
            </Position>
            <AltitudeMeters>737.4000244140625</AltitudeMeters>
            <DistanceMeters>5177.9875899825</DistanceMeters>
          </Trackpoint>
          <Trackpoint>
            <Time>2021-09-26T07:46:21.000Z</Time>
            <Position>
              <LatitudeDegrees>40.4675455391407012939453125</LatitudeDegrees>
              <LongitudeDegrees>-3.6890497617423534393310546875</LongitudeDegrees>
            </Position>
            <AltitudeMeters>736.20001220703125</AltitudeMeters>
            <DistanceMeters>5198.5671821869</DistanceMeters>
          </Trackpoint>
          <Trackpoint>
            <Time>2021-09-26T07:46:28.000Z</Time>
            <Position>
              <LatitudeDegrees>40.4673592932522296905517578125</LatitudeDegrees>
              <LongitudeDegrees>-3.6891089379787445068359375</LongitudeDegrees>
            </Position>
            <AltitudeMeters>734.5999755859375</AltitudeMeters>
            <DistanceMeters>5219.8938530553</DistanceMeters>
          </Trackpoint>
          <Trackpoint>
            <Time>2021-09-26T07:46:35.000Z</Time>
            <Position>
              <LatitudeDegrees>40.4671906493604183197021484375</LatitudeDegrees>
              <LongitudeDegrees>-3.68924598209559917449951171875</LongitudeDegrees>
            </Position>
            <AltitudeMeters>732.79998779296875</AltitudeMeters>
            <DistanceMeters>5241.9617488005</DistanceMeters>
          </Trackpoint>
          <Trackpoint>
            <Time>2021-09-26T07:46:38.000Z</Time>
            <Position>
              <LatitudeDegrees>40.46709819696843624114990234375</LatitudeDegrees>
              <LongitudeDegrees>-3.68929107673466205596923828125</LongitudeDegrees>
            </Position>
            <AltitudeMeters>734.5999755859375</AltitudeMeters>
            <DistanceMeters>5252.937231467</DistanceMeters>
          </Trackpoint>
          <Trackpoint>
            <Time>2021-09-26T07:46:44.000Z</Time>
            <Position>
              <LatitudeDegrees>40.4669308103621006011962890625</LatitudeDegrees>
              <LongitudeDegrees>-3.68939920328557491302490234375</LongitudeDegrees>
            </Position>
            <AltitudeMeters>740</AltitudeMeters>
            <DistanceMeters>5273.6957296763</DistanceMeters>
          </Trackpoint>
          <Trackpoint>
            <Time>2021-09-26T07:46:50.000Z</Time>
            <Position>
              <LatitudeDegrees>40.466770716011524200439453125</LatitudeDegrees>
              <LongitudeDegrees>-3.689491488039493560791015625</LongitudeDegrees>
            </Position>
            <AltitudeMeters>745.4000244140625</AltitudeMeters>
            <DistanceMeters>5293.1530150706</DistanceMeters>
          </Trackpoint>
          <Trackpoint>
            <Time>2021-09-26T07:46:57.000Z</Time>
            <Position>
              <LatitudeDegrees>40.4665915109217166900634765625</LatitudeDegrees>
              <LongitudeDegrees>-3.68958846665918827056884765625</LongitudeDegrees>
            </Position>
            <AltitudeMeters>751.5999755859375</AltitudeMeters>
            <DistanceMeters>5314.7232419765</DistanceMeters>
          </Trackpoint>
          <Trackpoint>
            <Time>2021-09-26T07:47:01.000Z</Time>
            <Position>
              <LatitudeDegrees>40.46650375239551067352294921875</LatitudeDegrees>
              <LongitudeDegrees>-3.6896136961877346038818359375</LongitudeDegrees>
            </Position>
            <AltitudeMeters>754.5999755859375</AltitudeMeters>
            <DistanceMeters>5324.7213891166</DistanceMeters>
          </Trackpoint>
          <Trackpoint>
            <Time>2021-09-26T07:47:08.000Z</Time>
            <Position>
              <LatitudeDegrees>40.466354973614215850830078125</LatitudeDegrees>
              <LongitudeDegrees>-3.68974001146852970123291015625</LongitudeDegrees>
            </Position>
            <AltitudeMeters>759.5999755859375</AltitudeMeters>
            <DistanceMeters>5344.4347949574</DistanceMeters>
          </Trackpoint>
          <Trackpoint>
            <Time>2021-09-26T07:47:15.000Z</Time>
            <Position>
              <LatitudeDegrees>40.46618708409368991851806640625</LatitudeDegrees>
              <LongitudeDegrees>-3.68985886685550212860107421875</LongitudeDegrees>
            </Position>
            <AltitudeMeters>757.4000244140625</AltitudeMeters>
            <DistanceMeters>5365.6591770092</DistanceMeters>
          </Trackpoint>
          <Trackpoint>
            <Time>2021-09-26T07:47:17.000Z</Time>
            <Position>
              <LatitudeDegrees>40.46613729558885097503662109375</LatitudeDegrees>
              <LongitudeDegrees>-3.68988468311727046966552734375</LongitudeDegrees>
            </Position>
            <AltitudeMeters>756.20001220703125</AltitudeMeters>
            <DistanceMeters>5371.6163743725</DistanceMeters>
          </Trackpoint>
          <Trackpoint>
            <Time>2021-09-26T07:47:24.000Z</Time>
            <Position>
              <LatitudeDegrees>40.46598960645496845245361328125</LatitudeDegrees>
              <LongitudeDegrees>-3.68997738696634769439697265625</LongitudeDegrees>
            </Position>
            <AltitudeMeters>753</AltitudeMeters>
            <DistanceMeters>5389.832774927</DistanceMeters>
          </Trackpoint>
          <Trackpoint>
            <Time>2021-09-26T07:47:28.000Z</Time>
            <Position>
              <LatitudeDegrees>40.4659249819815158843994140625</LatitudeDegrees>
              <LongitudeDegrees>-3.69006707333028316497802734375</LongitudeDegrees>
            </Position>
            <AltitudeMeters>751.4000244140625</AltitudeMeters>
            <DistanceMeters>5400.2926222584</DistanceMeters>
          </Trackpoint>
          <Trackpoint>
            <Time>2021-09-26T07:47:29.000Z</Time>
            <Position>
              <LatitudeDegrees>40.46591416932642459869384765625</LatitudeDegrees>
              <LongitudeDegrees>-3.6900917999446392059326171875</LongitudeDegrees>
            </Position>
            <AltitudeMeters>751.20001220703125</AltitudeMeters>
            <DistanceMeters>5402.7097402652</DistanceMeters>
          </Trackpoint>
          <Trackpoint>
            <Time>2021-09-26T07:47:36.000Z</Time>
            <Position>
              <LatitudeDegrees>40.46580134890973567962646484375</LatitudeDegrees>
              <LongitudeDegrees>-3.6902879364788532257080078125</LongitudeDegrees>
            </Position>
            <AltitudeMeters>749</AltitudeMeters>
            <DistanceMeters>5423.5307851459</DistanceMeters>
          </Trackpoint>
          <Trackpoint>
            <Time>2021-09-26T07:47:41.000Z</Time>
            <Position>
              <LatitudeDegrees>40.46572775579988956451416015625</LatitudeDegrees>
              <LongitudeDegrees>-3.69041316211223602294921875</LongitudeDegrees>
            </Position>
            <AltitudeMeters>748</AltitudeMeters>
            <DistanceMeters>5436.929888842</DistanceMeters>
          </Trackpoint>
          <Trackpoint>
            <Time>2021-09-26T07:47:49.000Z</Time>
            <Position>
              <LatitudeDegrees>40.4656599462032318115234375</LatitudeDegrees>
              <LongitudeDegrees>-3.69062480516731739044189453125</LongitudeDegrees>
            </Position>
            <AltitudeMeters>747.5999755859375</AltitudeMeters>
            <DistanceMeters>5456.3758005246</DistanceMeters>
          </Trackpoint>
          <Trackpoint>
            <Time>2021-09-26T07:47:56.000Z</Time>
            <Position>
              <LatitudeDegrees>40.46559096314013004302978515625</LatitudeDegrees>
              <LongitudeDegrees>-3.69079713709652423858642578125</LongitudeDegrees>
            </Position>
            <AltitudeMeters>747</AltitudeMeters>
            <DistanceMeters>5472.8650576858</DistanceMeters>
          </Trackpoint>
          <Trackpoint>
            <Time>2021-09-26T07:48:03.000Z</Time>
            <Position>
              <LatitudeDegrees>40.4655256681144237518310546875</LatitudeDegrees>
              <LongitudeDegrees>-3.69103585369884967803955078125</LongitudeDegrees>
            </Position>
            <AltitudeMeters>745.5999755859375</AltitudeMeters>
            <DistanceMeters>5494.3459300193</DistanceMeters>
          </Trackpoint>
          <Trackpoint>
            <Time>2021-09-26T07:48:05.000Z</Time>
            <Position>
              <LatitudeDegrees>40.4655068926513195037841796875</LatitudeDegrees>
              <LongitudeDegrees>-3.6911009810864925384521484375</LongitudeDegrees>
            </Position>
            <AltitudeMeters>745.5999755859375</AltitudeMeters>
            <DistanceMeters>5500.2429482816</DistanceMeters>
          </Trackpoint>
          <Trackpoint>
            <Time>2021-09-26T07:48:11.000Z</Time>
            <Position>
              <LatitudeDegrees>40.4654773883521556854248046875</LatitudeDegrees>
              <LongitudeDegrees>-3.69129871018230915069580078125</LongitudeDegrees>
            </Position>
            <AltitudeMeters>744.5999755859375</AltitudeMeters>
            <DistanceMeters>5517.3052058836</DistanceMeters>
          </Trackpoint>
          <Trackpoint>
            <Time>2021-09-26T07:48:19.000Z</Time>
            <Position>
              <LatitudeDegrees>40.46544444747269153594970703125</LatitudeDegrees>
              <LongitudeDegrees>-3.6915619857609272003173828125</LongitudeDegrees>
            </Position>
            <AltitudeMeters>743.20001220703125</AltitudeMeters>
            <DistanceMeters>5539.8983942647</DistanceMeters>
          </Trackpoint>
          <Trackpoint>
            <Time>2021-09-26T07:48:21.000Z</Time>
            <Position>
              <LatitudeDegrees>40.46543665230274200439453125</LatitudeDegrees>
              <LongitudeDegrees>-3.69163499213755130767822265625</LongitudeDegrees>
            </Position>
            <AltitudeMeters>742.79998779296875</AltitudeMeters>
            <DistanceMeters>5546.1398484045</DistanceMeters>
          </Trackpoint>
          <Trackpoint>
            <Time>2021-09-26T07:48:28.000Z</Time>
            <Position>
              <LatitudeDegrees>40.46539910137653350830078125</LatitudeDegrees>
              <LongitudeDegrees>-3.6918419413268566131591796875</LongitudeDegrees>
            </Position>
            <AltitudeMeters>741.5999755859375</AltitudeMeters>
            <DistanceMeters>5564.1553697</DistanceMeters>
          </Trackpoint>
          <Trackpoint>
            <Time>2021-09-26T07:48:36.000Z</Time>
            <Position>
              <LatitudeDegrees>40.46539750881493091583251953125</LatitudeDegrees>
              <LongitudeDegrees>-3.69209415279328823089599609375</LongitudeDegrees>
            </Position>
            <AltitudeMeters>741.20001220703125</AltitudeMeters>
            <DistanceMeters>5585.5129276477</DistanceMeters>
          </Trackpoint>
          <Trackpoint>
            <Time>2021-09-26T07:48:44.000Z</Time>
            <Position>
              <LatitudeDegrees>40.46533179469406604766845703125</LatitudeDegrees>
              <LongitudeDegrees>-3.6923321150243282318115234375</LongitudeDegrees>
            </Position>
            <AltitudeMeters>740.4000244140625</AltitudeMeters>
            <DistanceMeters>5606.9498255164</DistanceMeters>
          </Trackpoint>
          <Trackpoint>
            <Time>2021-09-26T07:48:52.000Z</Time>
            <Position>
              <LatitudeDegrees>40.46530966646969318389892578125</LatitudeDegrees>
              <LongitudeDegrees>-3.69258600287139415740966796875</LongitudeDegrees>
            </Position>
            <AltitudeMeters>739.4000244140625</AltitudeMeters>
            <DistanceMeters>5628.5896430811</DistanceMeters>
          </Trackpoint>
          <Trackpoint>
            <Time>2021-09-26T07:48:54.000Z</Time>
            <Position>
              <LatitudeDegrees>40.46529374085366725921630859375</LatitudeDegrees>
              <LongitudeDegrees>-3.6926400661468505859375</LongitudeDegrees>
            </Position>
            <AltitudeMeters>739.20001220703125</AltitudeMeters>
            <DistanceMeters>5633.4989479228</DistanceMeters>
          </Trackpoint>
          <Trackpoint>
            <Time>2021-09-26T07:49:00.000Z</Time>
            <Position>
              <LatitudeDegrees>40.46522920019924640655517578125</LatitudeDegrees>
              <LongitudeDegrees>-3.69280460290610790252685546875</LongitudeDegrees>
            </Position>
            <AltitudeMeters>739</AltitudeMeters>
            <DistanceMeters>5649.1743238391</DistanceMeters>
          </Trackpoint>
          <Trackpoint>
            <Time>2021-09-26T07:49:07.000Z</Time>
            <Position>
              <LatitudeDegrees>40.4651575349271297454833984375</LatitudeDegrees>
              <LongitudeDegrees>-3.6930281482636928558349609375</LongitudeDegrees>
            </Position>
            <AltitudeMeters>739</AltitudeMeters>
            <DistanceMeters>5669.7157060223</DistanceMeters>
          </Trackpoint>
          <Trackpoint>
            <Time>2021-09-26T07:49:10.000Z</Time>
            <Position>
              <LatitudeDegrees>40.46513062901794910430908203125</LatitudeDegrees>
              <LongitudeDegrees>-3.69312210939824581146240234375</LongitudeDegrees>
            </Position>
            <AltitudeMeters>738.79998779296875</AltitudeMeters>
            <DistanceMeters>5678.2172783391</DistanceMeters>
          </Trackpoint>
          <Trackpoint>
            <Time>2021-09-26T07:49:17.000Z</Time>
            <Position>
              <LatitudeDegrees>40.46511084772646427154541015625</LatitudeDegrees>
              <LongitudeDegrees>-3.69331204332411289215087890625</LongitudeDegrees>
            </Position>
            <AltitudeMeters>738.4000244140625</AltitudeMeters>
            <DistanceMeters>5694.4507228554</DistanceMeters>
          </Trackpoint>
          <Trackpoint>
            <Time>2021-09-26T07:49:24.000Z</Time>
            <Position>
              <LatitudeDegrees>40.46501286327838897705078125</LatitudeDegrees>
              <LongitudeDegrees>-3.69354472495615482330322265625</LongitudeDegrees>
            </Position>
            <AltitudeMeters>738.20001220703125</AltitudeMeters>
            <DistanceMeters>5716.9706507692</DistanceMeters>
          </Trackpoint>
          <Trackpoint>
            <Time>2021-09-26T07:49:26.000Z</Time>
            <Position>
              <LatitudeDegrees>40.46497170813381671905517578125</LatitudeDegrees>
              <LongitudeDegrees>-3.69361597113311290740966796875</LongitudeDegrees>
            </Position>
            <AltitudeMeters>738</AltitudeMeters>
            <DistanceMeters>5724.5454184703</DistanceMeters>
          </Trackpoint>
          <Trackpoint>
            <Time>2021-09-26T07:49:33.000Z</Time>
            <Position>
              <LatitudeDegrees>40.464873723685741424560546875</LatitudeDegrees>
              <LongitudeDegrees>-3.69381864555180072784423828125</LongitudeDegrees>
            </Position>
            <AltitudeMeters>737.79998779296875</AltitudeMeters>
            <DistanceMeters>5744.8798031516</DistanceMeters>
          </Trackpoint>
          <Trackpoint>
            <Time>2021-09-26T07:49:41.000Z</Time>
            <Position>
              <LatitudeDegrees>40.46478646807372570037841796875</LatitudeDegrees>
              <LongitudeDegrees>-3.69405417703092098236083984375</LongitudeDegrees>
            </Position>
            <AltitudeMeters>737.4000244140625</AltitudeMeters>
            <DistanceMeters>5767.0631988766</DistanceMeters>
          </Trackpoint>
          <Trackpoint>
            <Time>2021-09-26T07:49:42.000Z</Time>
            <Position>
              <LatitudeDegrees>40.464773476123809814453125</LatitudeDegrees>
              <LongitudeDegrees>-3.69408552534878253936767578125</LongitudeDegrees>
            </Position>
            <AltitudeMeters>737.4000244140625</AltitudeMeters>
            <DistanceMeters>5770.0861837196</DistanceMeters>
          </Trackpoint>
          <Trackpoint>
            <Time>2021-09-26T07:49:50.000Z</Time>
            <Position>
              <LatitudeDegrees>40.46471220441162586212158203125</LatitudeDegrees>
              <LongitudeDegrees>-3.69433723390102386474609375</LongitudeDegrees>
            </Position>
            <AltitudeMeters>737</AltitudeMeters>
            <DistanceMeters>5792.4651262697</DistanceMeters>
          </Trackpoint>
          <Trackpoint>
            <Time>2021-09-26T07:49:51.000Z</Time>
            <Position>
              <LatitudeDegrees>40.46470977365970611572265625</LatitudeDegrees>
              <LongitudeDegrees>-3.69436380453407764434814453125</LongitudeDegrees>
            </Position>
            <AltitudeMeters>736.79998779296875</AltitudeMeters>
            <DistanceMeters>5794.7338579799</DistanceMeters>
          </Trackpoint>
          <Trackpoint>
            <Time>2021-09-26T07:49:59.000Z</Time>
            <Position>
              <LatitudeDegrees>40.4646371863782405853271484375</LatitudeDegrees>
              <LongitudeDegrees>-3.694579638540744781494140625</LongitudeDegrees>
            </Position>
            <AltitudeMeters>737</AltitudeMeters>
            <DistanceMeters>5814.7166000428</DistanceMeters>
          </Trackpoint>
          <Trackpoint>
            <Time>2021-09-26T07:50:01.000Z</Time>
            <Position>
              <LatitudeDegrees>40.464606843888759613037109375</LatitudeDegrees>
              <LongitudeDegrees>-3.6946163512766361236572265625</LongitudeDegrees>
            </Position>
            <AltitudeMeters>736.79998779296875</AltitudeMeters>
            <DistanceMeters>5819.3074821389</DistanceMeters>
          </Trackpoint>
          <Trackpoint>
            <Time>2021-09-26T07:50:08.000Z</Time>
            <Position>
              <LatitudeDegrees>40.4645275510847568511962890625</LatitudeDegrees>
              <LongitudeDegrees>-3.69484459049999713897705078125</LongitudeDegrees>
            </Position>
            <AltitudeMeters>736.5999755859375</AltitudeMeters>
            <DistanceMeters>5840.5544014824</DistanceMeters>
          </Trackpoint>
          <Trackpoint>
            <Time>2021-09-26T07:50:11.000Z</Time>
            <Position>
              <LatitudeDegrees>40.46449192799627780914306640625</LatitudeDegrees>
              <LongitudeDegrees>-3.69493109174072742462158203125</LongitudeDegrees>
            </Position>
            <AltitudeMeters>736.5999755859375</AltitudeMeters>
            <DistanceMeters>5848.8837518363</DistanceMeters>
          </Trackpoint>
          <Trackpoint>
            <Time>2021-09-26T07:50:18.000Z</Time>
            <Position>
              <LatitudeDegrees>40.4644286446273326873779296875</LatitudeDegrees>
              <LongitudeDegrees>-3.69515170343220233917236328125</LongitudeDegrees>
            </Position>
            <AltitudeMeters>736.4000244140625</AltitudeMeters>
            <DistanceMeters>5868.8486361163</DistanceMeters>
          </Trackpoint>
          <Trackpoint>
            <Time>2021-09-26T07:50:26.000Z</Time>
            <Position>
              <LatitudeDegrees>40.46434373594820499420166015625</LatitudeDegrees>
              <LongitudeDegrees>-3.6953745782375335693359375</LongitudeDegrees>
            </Position>
            <AltitudeMeters>736.4000244140625</AltitudeMeters>
            <DistanceMeters>5889.9554791148</DistanceMeters>
          </Trackpoint>
          <Trackpoint>
            <Time>2021-09-26T07:50:34.000Z</Time>
            <Position>
              <LatitudeDegrees>40.464252121746540069580078125</LatitudeDegrees>
              <LongitudeDegrees>-3.6955879814922809600830078125</LongitudeDegrees>
            </Position>
            <AltitudeMeters>736.4000244140625</AltitudeMeters>
            <DistanceMeters>5910.7048401819</DistanceMeters>
          </Trackpoint>
          <Trackpoint>
            <Time>2021-09-26T07:50:42.000Z</Time>
            <Position>
              <LatitudeDegrees>40.46414324082434177398681640625</LatitudeDegrees>
              <LongitudeDegrees>-3.6957821063697338104248046875</LongitudeDegrees>
            </Position>
            <AltitudeMeters>736.20001220703125</AltitudeMeters>
            <DistanceMeters>5931.1274054173</DistanceMeters>
          </Trackpoint>
          <Trackpoint>
            <Time>2021-09-26T07:50:50.000Z</Time>
            <Position>
              <LatitudeDegrees>40.46399991028010845184326171875</LatitudeDegrees>
              <LongitudeDegrees>-3.69594815187156200408935546875</LongitudeDegrees>
            </Position>
            <AltitudeMeters>735.79998779296875</AltitudeMeters>
            <DistanceMeters>5952.3925921826</DistanceMeters>
          </Trackpoint>
          <Trackpoint>
            <Time>2021-09-26T07:50:52.000Z</Time>
            <Position>
              <LatitudeDegrees>40.46396168880164623260498046875</LatitudeDegrees>
              <LongitudeDegrees>-3.69598142802715301513671875</LongitudeDegrees>
            </Position>
            <AltitudeMeters>735.79998779296875</AltitudeMeters>
            <DistanceMeters>5957.4940312258</DistanceMeters>
          </Trackpoint>
          <Trackpoint>
            <Time>2021-09-26T07:50:59.000Z</Time>
            <Position>
              <LatitudeDegrees>40.4638010077178478240966796875</LatitudeDegrees>
              <LongitudeDegrees>-3.69609332643449306488037109375</LongitudeDegrees>
            </Position>
            <AltitudeMeters>735.79998779296875</AltitudeMeters>
            <DistanceMeters>5977.7331598545</DistanceMeters>
          </Trackpoint>
          <Trackpoint>
            <Time>2021-09-26T07:51:00.000Z</Time>
            <Position>
              <LatitudeDegrees>40.46377778984606266021728515625</LatitudeDegrees>
              <LongitudeDegrees>-3.69610791094601154327392578125</LongitudeDegrees>
            </Position>
            <AltitudeMeters>735.79998779296875</AltitudeMeters>
            <DistanceMeters>5980.5966034826</DistanceMeters>
          </Trackpoint>
          <Trackpoint>
            <Time>2021-09-26T07:51:07.000Z</Time>
            <Position>
              <LatitudeDegrees>40.46363328583538532257080078125</LatitudeDegrees>
              <LongitudeDegrees>-3.696234561502933502197265625</LongitudeDegrees>
            </Position>
            <AltitudeMeters>734.79998779296875</AltitudeMeters>
            <DistanceMeters>5999.927942897</DistanceMeters>
          </Trackpoint>
          <Trackpoint>
            <Time>2021-09-26T07:51:14.000Z</Time>
            <Position>
              <LatitudeDegrees>40.463477633893489837646484375</LatitudeDegrees>
              <LongitudeDegrees>-3.6963423527777194976806640625</LongitudeDegrees>
            </Position>
            <AltitudeMeters>734</AltitudeMeters>
            <DistanceMeters>6019.5099031185</DistanceMeters>
          </Trackpoint>
          <Trackpoint>
            <Time>2021-09-26T07:51:15.000Z</Time>
            <Position>
              <LatitudeDegrees>40.4634605348110198974609375</LatitudeDegrees>
              <LongitudeDegrees>-3.696359284222126007080078125</LongitudeDegrees>
            </Position>
            <AltitudeMeters>733.79998779296875</AltitudeMeters>
            <DistanceMeters>6021.8912657551</DistanceMeters>
          </Trackpoint>
          <Trackpoint>
            <Time>2021-09-26T07:51:22.000Z</Time>
            <Position>
              <LatitudeDegrees>40.46329901553690433502197265625</LatitudeDegrees>
              <LongitudeDegrees>-3.69647755287587642669677734375</LongitudeDegrees>
            </Position>
            <AltitudeMeters>732.79998779296875</AltitudeMeters>
            <DistanceMeters>6042.4701997671</DistanceMeters>
          </Trackpoint>
          <Trackpoint>
            <Time>2021-09-26T07:51:25.000Z</Time>
            <Position>
              <LatitudeDegrees>40.46323078684508800506591796875</LatitudeDegrees>
              <LongitudeDegrees>-3.6965307779610157012939453125</LongitudeDegrees>
            </Position>
            <AltitudeMeters>732.4000244140625</AltitudeMeters>
            <DistanceMeters>6051.3010400538</DistanceMeters>
          </Trackpoint>
          <Trackpoint>
            <Time>2021-09-26T07:51:32.000Z</Time>
            <Position>
              <LatitudeDegrees>40.46309818513691425323486328125</LatitudeDegrees>
              <LongitudeDegrees>-3.69667067192494869232177734375</LongitudeDegrees>
            </Position>
            <AltitudeMeters>731.5999755859375</AltitudeMeters>
            <DistanceMeters>6070.2263921529</DistanceMeters>
          </Trackpoint>
          <Trackpoint>
            <Time>2021-09-26T07:51:40.000Z</Time>
            <Position>
              <LatitudeDegrees>40.46295024454593658447265625</LatitudeDegrees>
              <LongitudeDegrees>-3.69683126918971538543701171875</LongitudeDegrees>
            </Position>
            <AltitudeMeters>731</AltitudeMeters>
            <DistanceMeters>6091.5824702328</DistanceMeters>
          </Trackpoint>
          <Trackpoint>
            <Time>2021-09-26T07:51:48.000Z</Time>
            <Position>
              <LatitudeDegrees>40.462802387773990631103515625</LatitudeDegrees>
              <LongitudeDegrees>-3.6969810537993907928466796875</LongitudeDegrees>
            </Position>
            <AltitudeMeters>731.20001220703125</AltitudeMeters>
            <DistanceMeters>6112.3600999011</DistanceMeters>
          </Trackpoint>
          <Trackpoint>
            <Time>2021-09-26T07:51:49.000Z</Time>
            <Position>
              <LatitudeDegrees>40.46278017573058605194091796875</LatitudeDegrees>
              <LongitudeDegrees>-3.69701164774596691131591796875</LongitudeDegrees>
            </Position>
            <AltitudeMeters>731.20001220703125</AltitudeMeters>
            <DistanceMeters>6115.9409808751</DistanceMeters>
          </Trackpoint>
          <Trackpoint>
            <Time>2021-09-26T07:51:57.000Z</Time>
            <Position>
              <LatitudeDegrees>40.4626097716391086578369140625</LatitudeDegrees>
              <LongitudeDegrees>-3.697114326059818267822265625</LongitudeDegrees>
            </Position>
            <AltitudeMeters>731.20001220703125</AltitudeMeters>
            <DistanceMeters>6136.8053506286</DistanceMeters>
          </Trackpoint>
          <Trackpoint>
            <Time>2021-09-26T07:52:04.000Z</Time>
            <Position>
              <LatitudeDegrees>40.4624558798968791961669921875</LatitudeDegrees>
              <LongitudeDegrees>-3.69724768213927745819091796875</LongitudeDegrees>
            </Position>
            <AltitudeMeters>731.4000244140625</AltitudeMeters>
            <DistanceMeters>6157.3216600746</DistanceMeters>
          </Trackpoint>
          <Trackpoint>
            <Time>2021-09-26T07:52:05.000Z</Time>
            <Position>
              <LatitudeDegrees>40.46241522766649723052978515625</LatitudeDegrees>
              <LongitudeDegrees>-3.69727819226682186126708984375</LongitudeDegrees>
            </Position>
            <AltitudeMeters>731.4000244140625</AltitudeMeters>
            <DistanceMeters>6162.5316898049</DistanceMeters>
          </Trackpoint>
          <Trackpoint>
            <Time>2021-09-26T07:52:11.000Z</Time>
            <Position>
              <LatitudeDegrees>40.462273992598056793212890625</LatitudeDegrees>
              <LongitudeDegrees>-3.6974450759589672088623046875</LongitudeDegrees>
            </Position>
            <AltitudeMeters>731.5999755859375</AltitudeMeters>
            <DistanceMeters>6183.6699546958</DistanceMeters>
          </Trackpoint>
          <Trackpoint>
            <Time>2021-09-26T07:52:12.000Z</Time>
            <Position>
              <LatitudeDegrees>40.462253876030445098876953125</LatitudeDegrees>
              <LongitudeDegrees>-3.69746309705078601837158203125</LongitudeDegrees>
            </Position>
            <AltitudeMeters>731.79998779296875</AltitudeMeters>
            <DistanceMeters>6186.3794661184</DistanceMeters>
          </Trackpoint>
          <Trackpoint>
            <Time>2021-09-26T07:52:20.000Z</Time>
            <Position>
              <LatitudeDegrees>40.4620770178735256195068359375</LatitudeDegrees>
              <LongitudeDegrees>-3.6975419707596302032470703125</LongitudeDegrees>
            </Position>
            <AltitudeMeters>731.5999755859375</AltitudeMeters>
            <DistanceMeters>6207.1664377093</DistanceMeters>
          </Trackpoint>
          <Trackpoint>
            <Time>2021-09-26T07:52:27.000Z</Time>
            <Position>
              <LatitudeDegrees>40.46193636953830718994140625</LatitudeDegrees>
              <LongitudeDegrees>-3.697647750377655029296875</LongitudeDegrees>
            </Position>
            <AltitudeMeters>731.20001220703125</AltitudeMeters>
            <DistanceMeters>6225.2024980833</DistanceMeters>
          </Trackpoint>
          <Trackpoint>
            <Time>2021-09-26T07:52:35.000Z</Time>
            <Position>
              <LatitudeDegrees>40.46176060102880001068115234375</LatitudeDegrees>
              <LongitudeDegrees>-3.6977776698768138885498046875</LongitudeDegrees>
            </Position>
            <AltitudeMeters>730.4000244140625</AltitudeMeters>
            <DistanceMeters>6247.6473171883</DistanceMeters>
          </Trackpoint>
          <Trackpoint>
            <Time>2021-09-26T07:52:43.000Z</Time>
            <Position>
              <LatitudeDegrees>40.461601428687572479248046875</LatitudeDegrees>
              <LongitudeDegrees>-3.69786123745143413543701171875</LongitudeDegrees>
            </Position>
            <AltitudeMeters>729.5999755859375</AltitudeMeters>
            <DistanceMeters>6266.7247436657</DistanceMeters>
          </Trackpoint>
          <Trackpoint>
            <Time>2021-09-26T07:52:49.000Z</Time>
            <Position>
              <LatitudeDegrees>40.4614527337253093719482421875</LatitudeDegrees>
              <LongitudeDegrees>-3.697924353182315826416015625</LongitudeDegrees>
            </Position>
            <AltitudeMeters>729</AltitudeMeters>
            <DistanceMeters>6284.1164497512</DistanceMeters>
          </Trackpoint>
          <Trackpoint>
            <Time>2021-09-26T07:52:58.000Z</Time>
            <Position>
              <LatitudeDegrees>40.461269505321979522705078125</LatitudeDegrees>
              <LongitudeDegrees>-3.697975985705852508544921875</LongitudeDegrees>
            </Position>
            <AltitudeMeters>728</AltitudeMeters>
            <DistanceMeters>6304.9734606255</DistanceMeters>
          </Trackpoint>
          <Trackpoint>
            <Time>2021-09-26T07:53:05.000Z</Time>
            <Position>
              <LatitudeDegrees>40.46109725721180438995361328125</LatitudeDegrees>
              <LongitudeDegrees>-3.6980559490621089935302734375</LongitudeDegrees>
            </Position>
            <AltitudeMeters>727</AltitudeMeters>
            <DistanceMeters>6325.3056247899</DistanceMeters>
          </Trackpoint>
          <Trackpoint>
            <Time>2021-09-26T07:53:12.000Z</Time>
            <Position>
              <LatitudeDegrees>40.4609333910048007965087890625</LatitudeDegrees>
              <LongitudeDegrees>-3.69817589409649372100830078125</LongitudeDegrees>
            </Position>
            <AltitudeMeters>726</AltitudeMeters>
            <DistanceMeters>6346.1821093955</DistanceMeters>
          </Trackpoint>
          <Trackpoint>
            <Time>2021-09-26T07:53:19.000Z</Time>
            <Position>
              <LatitudeDegrees>40.4607647471129894256591796875</LatitudeDegrees>
              <LongitudeDegrees>-3.69826993905007839202880859375</LongitudeDegrees>
            </Position>
            <AltitudeMeters>725</AltitudeMeters>
            <DistanceMeters>6366.5723712779</DistanceMeters>
          </Trackpoint>
          <Trackpoint>
            <Time>2021-09-26T07:53:26.000Z</Time>
            <Position>
              <LatitudeDegrees>40.46061395667493343353271484375</LatitudeDegrees>
              <LongitudeDegrees>-3.69834202341735363006591796875</LongitudeDegrees>
            </Position>
            <AltitudeMeters>724</AltitudeMeters>
            <DistanceMeters>6384.4313270145</DistanceMeters>
          </Trackpoint>
          <Trackpoint>
            <Time>2021-09-26T07:53:35.000Z</Time>
            <Position>
              <LatitudeDegrees>40.460478253662586212158203125</LatitudeDegrees>
              <LongitudeDegrees>-3.6984405107796192169189453125</LongitudeDegrees>
            </Position>
            <AltitudeMeters>723.20001220703125</AltitudeMeters>
            <DistanceMeters>6401.6851535503</DistanceMeters>
          </Trackpoint>
          <Trackpoint>
            <Time>2021-09-26T07:53:43.000Z</Time>
            <Position>
              <LatitudeDegrees>40.4603097774088382720947265625</LatitudeDegrees>
              <LongitudeDegrees>-3.69855777360498905181884765625</LongitudeDegrees>
            </Position>
            <AltitudeMeters>723.5999755859375</AltitudeMeters>
            <DistanceMeters>6422.9040039314</DistanceMeters>
          </Trackpoint>
          <Trackpoint>
            <Time>2021-09-26T07:53:49.000Z</Time>
            <Position>
              <LatitudeDegrees>40.46017105691134929656982421875</LatitudeDegrees>
              <LongitudeDegrees>-3.69866137392818927764892578125</LongitudeDegrees>
            </Position>
            <AltitudeMeters>724</AltitudeMeters>
            <DistanceMeters>6440.6625621423</DistanceMeters>
          </Trackpoint>
          <Trackpoint>
            <Time>2021-09-26T07:53:55.000Z</Time>
            <Position>
              <LatitudeDegrees>40.46005454845726490020751953125</LatitudeDegrees>
              <LongitudeDegrees>-3.6987781338393688201904296875</LongitudeDegrees>
            </Position>
            <AltitudeMeters>724.5999755859375</AltitudeMeters>
            <DistanceMeters>6456.9695450368</DistanceMeters>
          </Trackpoint>
          <Trackpoint>
            <Time>2021-09-26T07:54:02.000Z</Time>
            <Position>
              <LatitudeDegrees>40.4599426500499248504638671875</LatitudeDegrees>
              <LongitudeDegrees>-3.69886572472751140594482421875</LongitudeDegrees>
            </Position>
            <AltitudeMeters>725.20001220703125</AltitudeMeters>
            <DistanceMeters>6471.465713804</DistanceMeters>
          </Trackpoint>
          <Trackpoint>
            <Time>2021-09-26T07:54:04.000Z</Time>
            <Position>
              <LatitudeDegrees>40.4598836414515972137451171875</LatitudeDegrees>
              <LongitudeDegrees>-3.698927499353885650634765625</LongitudeDegrees>
            </Position>
            <AltitudeMeters>725.4000244140625</AltitudeMeters>
            <DistanceMeters>6479.862548736</DistanceMeters>
          </Trackpoint>
          <Trackpoint>
            <Time>2021-09-26T07:54:10.000Z</Time>
            <Position>
              <LatitudeDegrees>40.459763444960117340087890625</LatitudeDegrees>
              <LongitudeDegrees>-3.69905968196690082550048828125</LongitudeDegrees>
            </Position>
            <AltitudeMeters>726</AltitudeMeters>
            <DistanceMeters>6497.3060992878</DistanceMeters>
          </Trackpoint>
          <Trackpoint>
            <Time>2021-09-26T07:54:16.000Z</Time>
            <Position>
              <LatitudeDegrees>40.45964987017214298248291015625</LatitudeDegrees>
              <LongitudeDegrees>-3.6991657130420207977294921875</LongitudeDegrees>
            </Position>
            <AltitudeMeters>726.5999755859375</AltitudeMeters>
            <DistanceMeters>6512.8120599287</DistanceMeters>
          </Trackpoint>
          <Trackpoint>
            <Time>2021-09-26T07:54:24.000Z</Time>
            <Position>
              <LatitudeDegrees>40.4595205374062061309814453125</LatitudeDegrees>
              <LongitudeDegrees>-3.69934299029409885406494140625</LongitudeDegrees>
            </Position>
            <AltitudeMeters>727.20001220703125</AltitudeMeters>
            <DistanceMeters>6533.611408531</DistanceMeters>
          </Trackpoint>
          <Trackpoint>
            <Time>2021-09-26T07:54:25.000Z</Time>
            <Position>
              <LatitudeDegrees>40.45950285159051418304443359375</LatitudeDegrees>
              <LongitudeDegrees>-3.69936260394752025604248046875</LongitudeDegrees>
            </Position>
            <AltitudeMeters>727.20001220703125</AltitudeMeters>
            <DistanceMeters>6536.1876667064</DistanceMeters>
          </Trackpoint>
          <Trackpoint>
            <Time>2021-09-26T07:54:33.000Z</Time>
            <Position>
              <LatitudeDegrees>40.45935935340821743011474609375</LatitudeDegrees>
              <LongitudeDegrees>-3.699513562023639678955078125</LongitudeDegrees>
            </Position>
            <AltitudeMeters>727.79998779296875</AltitudeMeters>
            <DistanceMeters>6556.6455742979</DistanceMeters>
          </Trackpoint>
          <Trackpoint>
            <Time>2021-09-26T07:54:38.000Z</Time>
            <Position>
              <LatitudeDegrees>40.459248125553131103515625</LatitudeDegrees>
              <LongitudeDegrees>-3.69960618205368518829345703125</LongitudeDegrees>
            </Position>
            <AltitudeMeters>728</AltitudeMeters>
            <DistanceMeters>6571.3012693785</DistanceMeters>
          </Trackpoint>
          <Trackpoint>
            <Time>2021-09-26T07:54:45.000Z</Time>
            <Position>
              <LatitudeDegrees>40.45912046916782855987548828125</LatitudeDegrees>
              <LongitudeDegrees>-3.69974448345601558685302734375</LongitudeDegrees>
            </Position>
            <AltitudeMeters>728.5999755859375</AltitudeMeters>
            <DistanceMeters>6589.7146416998</DistanceMeters>
          </Trackpoint>
          <Trackpoint>
            <Time>2021-09-26T07:54:52.000Z</Time>
            <Position>
              <LatitudeDegrees>40.4589924775063991546630859375</LatitudeDegrees>
              <LongitudeDegrees>-3.69989250786602497100830078125</LongitudeDegrees>
            </Position>
            <AltitudeMeters>729</AltitudeMeters>
            <DistanceMeters>6608.6902654894</DistanceMeters>
          </Trackpoint>
          <Trackpoint>
            <Time>2021-09-26T07:54:59.000Z</Time>
            <Position>
              <LatitudeDegrees>40.45888309367001056671142578125</LatitudeDegrees>
              <LongitudeDegrees>-3.7000421248376369476318359375</LongitudeDegrees>
            </Position>
            <AltitudeMeters>729.5999755859375</AltitudeMeters>
            <DistanceMeters>6626.2622441464</DistanceMeters>
          </Trackpoint>
          <Trackpoint>
            <Time>2021-09-26T07:55:07.000Z</Time>
            <Position>
              <LatitudeDegrees>40.45874143950641155242919921875</LatitudeDegrees>
              <LongitudeDegrees>-3.70021169073879718780517578125</LongitudeDegrees>
            </Position>
            <AltitudeMeters>729.79998779296875</AltitudeMeters>
            <DistanceMeters>6647.5878564459</DistanceMeters>
          </Trackpoint>
          <Trackpoint>
            <Time>2021-09-26T07:55:14.000Z</Time>
            <Position>
              <LatitudeDegrees>40.45862174592912197113037109375</LatitudeDegrees>
              <LongitudeDegrees>-3.70036759413778781890869140625</LongitudeDegrees>
            </Position>
            <AltitudeMeters>729.4000244140625</AltitudeMeters>
            <DistanceMeters>6666.3440212485</DistanceMeters>
          </Trackpoint>
          <Trackpoint>
            <Time>2021-09-26T07:55:21.000Z</Time>
            <Position>
              <LatitudeDegrees>40.45848260633647441864013671875</LatitudeDegrees>
              <LongitudeDegrees>-3.700507320463657379150390625</LongitudeDegrees>
            </Position>
            <AltitudeMeters>728.79998779296875</AltitudeMeters>
            <DistanceMeters>6685.8339980492</DistanceMeters>
          </Trackpoint>
          <Trackpoint>
            <Time>2021-09-26T07:55:28.000Z</Time>
            <Position>
              <LatitudeDegrees>40.4583443887531757354736328125</LatitudeDegrees>
              <LongitudeDegrees>-3.7006405927240848541259765625</LongitudeDegrees>
            </Position>
            <AltitudeMeters>728.4000244140625</AltitudeMeters>
            <DistanceMeters>6704.9142643449</DistanceMeters>
          </Trackpoint>
          <Trackpoint>
            <Time>2021-09-26T07:55:36.000Z</Time>
            <Position>
              <LatitudeDegrees>40.45820030383765697479248046875</LatitudeDegrees>
              <LongitudeDegrees>-3.70079993270337581634521484375</LongitudeDegrees>
            </Position>
            <AltitudeMeters>727.79998779296875</AltitudeMeters>
            <DistanceMeters>6725.8732027411</DistanceMeters>
          </Trackpoint>
          <Trackpoint>
            <Time>2021-09-26T07:55:37.000Z</Time>
            <Position>
              <LatitudeDegrees>40.4581858031451702117919921875</LatitudeDegrees>
              <LongitudeDegrees>-3.700819797813892364501953125</LongitudeDegrees>
            </Position>
            <AltitudeMeters>727.79998779296875</AltitudeMeters>
            <DistanceMeters>6728.2028112796</DistanceMeters>
          </Trackpoint>
          <Trackpoint>
            <Time>2021-09-26T07:55:45.000Z</Time>
            <Position>
              <LatitudeDegrees>40.45803786255419254302978515625</LatitudeDegrees>
              <LongitudeDegrees>-3.7009698338806629180908203125</LongitudeDegrees>
            </Position>
            <AltitudeMeters>727.20001220703125</AltitudeMeters>
            <DistanceMeters>6749.0012915599</DistanceMeters>
          </Trackpoint>
          <Trackpoint>
            <Time>2021-09-26T07:55:46.000Z</Time>
            <Position>
              <LatitudeDegrees>40.458021350204944610595703125</LatitudeDegrees>
              <LongitudeDegrees>-3.70098416693508625030517578125</LongitudeDegrees>
            </Position>
            <AltitudeMeters>727.20001220703125</AltitudeMeters>
            <DistanceMeters>6751.205419761</DistanceMeters>
          </Trackpoint>
          <Trackpoint>
            <Time>2021-09-26T07:55:54.000Z</Time>
            <Position>
              <LatitudeDegrees>40.45787072740495204925537109375</LatitudeDegrees>
              <LongitudeDegrees>-3.70109966956079006195068359375</LongitudeDegrees>
            </Position>
            <AltitudeMeters>727.79998779296875</AltitudeMeters>
            <DistanceMeters>6770.615076874</DistanceMeters>
          </Trackpoint>
          <Trackpoint>
            <Time>2021-09-26T07:56:02.000Z</Time>
            <Position>
              <LatitudeDegrees>40.4577110521495342254638671875</LatitudeDegrees>
              <LongitudeDegrees>-3.70121383108198642730712890625</LongitudeDegrees>
            </Position>
            <AltitudeMeters>728.79998779296875</AltitudeMeters>
            <DistanceMeters>6790.846619204</DistanceMeters>
          </Trackpoint>
          <Trackpoint>
            <Time>2021-09-26T07:56:06.000Z</Time>
            <Position>
              <LatitudeDegrees>40.45761977322399616241455078125</LatitudeDegrees>
              <LongitudeDegrees>-3.70126848109066486358642578125</LongitudeDegrees>
            </Position>
            <AltitudeMeters>729.4000244140625</AltitudeMeters>
            <DistanceMeters>6802.010539442</DistanceMeters>
          </Trackpoint>
          <Trackpoint>
            <Time>2021-09-26T07:56:12.000Z</Time>
            <Position>
              <LatitudeDegrees>40.45748968608677387237548828125</LatitudeDegrees>
              <LongitudeDegrees>-3.70136135257780551910400390625</LongitudeDegrees>
            </Position>
            <AltitudeMeters>730.20001220703125</AltitudeMeters>
            <DistanceMeters>6818.4880182673</DistanceMeters>
          </Trackpoint>
          <Trackpoint>
            <Time>2021-09-26T07:56:20.000Z</Time>
            <Position>
              <LatitudeDegrees>40.45731651596724987030029296875</LatitudeDegrees>
              <LongitudeDegrees>-3.7014704011380672454833984375</LongitudeDegrees>
            </Position>
            <AltitudeMeters>731.4000244140625</AltitudeMeters>
            <DistanceMeters>6839.8603692574</DistanceMeters>
          </Trackpoint>
          <Trackpoint>
            <Time>2021-09-26T07:56:21.000Z</Time>
            <Position>
              <LatitudeDegrees>40.4572993330657482147216796875</LatitudeDegrees>
              <LongitudeDegrees>-3.70148506946861743927001953125</LongitudeDegrees>
            </Position>
            <AltitudeMeters>731.4000244140625</AltitudeMeters>
            <DistanceMeters>6842.1410104023</DistanceMeters>
          </Trackpoint>
          <Trackpoint>
            <Time>2021-09-26T07:56:29.000Z</Time>
            <Position>
              <LatitudeDegrees>40.4571380652487277984619140625</LatitudeDegrees>
              <LongitudeDegrees>-3.70160442776978015899658203125</LongitudeDegrees>
            </Position>
            <AltitudeMeters>732.20001220703125</AltitudeMeters>
            <DistanceMeters>6862.7409961403</DistanceMeters>
          </Trackpoint>
          <Trackpoint>
            <Time>2021-09-26T07:56:30.000Z</Time>
            <Position>
              <LatitudeDegrees>40.457116775214672088623046875</LatitudeDegrees>
              <LongitudeDegrees>-3.70162253268063068389892578125</LongitudeDegrees>
            </Position>
            <AltitudeMeters>732</AltitudeMeters>
            <DistanceMeters>6865.5663434776</DistanceMeters>
          </Trackpoint>
          <Trackpoint>
            <Time>2021-09-26T07:56:38.000Z</Time>
            <Position>
              <LatitudeDegrees>40.4569536633789539337158203125</LatitudeDegrees>
              <LongitudeDegrees>-3.70172428898513317108154296875</LongitudeDegrees>
            </Position>
            <AltitudeMeters>731</AltitudeMeters>
            <DistanceMeters>6885.6624154521</DistanceMeters>
          </Trackpoint>
          <Trackpoint>
            <Time>2021-09-26T07:56:43.000Z</Time>
            <Position>
              <LatitudeDegrees>40.45686791650950908660888671875</LatitudeDegrees>
              <LongitudeDegrees>-3.70183409191668033599853515625</LongitudeDegrees>
            </Position>
            <AltitudeMeters>730.20001220703125</AltitudeMeters>
            <DistanceMeters>6898.9871804797</DistanceMeters>
          </Trackpoint>
          <Trackpoint>
            <Time>2021-09-26T07:56:51.000Z</Time>
            <Position>
              <LatitudeDegrees>40.4567243345081806182861328125</LatitudeDegrees>
              <LongitudeDegrees>-3.70192863978445529937744140625</LongitudeDegrees>
            </Position>
            <AltitudeMeters>729.79998779296875</AltitudeMeters>
            <DistanceMeters>6916.861803965</DistanceMeters>
          </Trackpoint>
          <Trackpoint>
            <Time>2021-09-26T07:56:53.000Z</Time>
            <Position>
              <LatitudeDegrees>40.456676892936229705810546875</LatitudeDegrees>
              <LongitudeDegrees>-3.70196820236742496490478515625</LongitudeDegrees>
            </Position>
            <AltitudeMeters>729.79998779296875</AltitudeMeters>
            <DistanceMeters>6923.1155437324</DistanceMeters>
          </Trackpoint>
          <Trackpoint>
            <Time>2021-09-26T07:57:01.000Z</Time>
            <Position>
              <LatitudeDegrees>40.45648838393390178680419921875</LatitudeDegrees>
              <LongitudeDegrees>-3.7020393647253513336181640625</LongitudeDegrees>
            </Position>
            <AltitudeMeters>729.4000244140625</AltitudeMeters>
            <DistanceMeters>6944.9454366359</DistanceMeters>
          </Trackpoint>
          <Trackpoint>
            <Time>2021-09-26T07:57:07.000Z</Time>
            <Position>
              <LatitudeDegrees>40.456329546868801116943359375</LatitudeDegrees>
              <LongitudeDegrees>-3.702149502933025360107421875</LongitudeDegrees>
            </Position>
            <AltitudeMeters>729.4000244140625</AltitudeMeters>
            <DistanceMeters>6964.9340524544</DistanceMeters>
          </Trackpoint>
          <Trackpoint>
            <Time>2021-09-26T07:57:14.000Z</Time>
            <Position>
              <LatitudeDegrees>40.45617305673658847808837890625</LatitudeDegrees>
              <LongitudeDegrees>-3.702246733009815216064453125</LongitudeDegrees>
            </Position>
            <AltitudeMeters>729.4000244140625</AltitudeMeters>
            <DistanceMeters>6984.2003526261</DistanceMeters>
          </Trackpoint>
          <Trackpoint>
            <Time>2021-09-26T07:57:23.000Z</Time>
            <Position>
              <LatitudeDegrees>40.45597088523209095001220703125</LatitudeDegrees>
              <LongitudeDegrees>-3.7023551948368549346923828125</LongitudeDegrees>
            </Position>
            <AltitudeMeters>729.4000244140625</AltitudeMeters>
            <DistanceMeters>7008.5052809496</DistanceMeters>
          </Trackpoint>
          <Trackpoint>
            <Time>2021-09-26T07:57:28.000Z</Time>
            <Position>
              <LatitudeDegrees>40.45583903789520263671875</LatitudeDegrees>
              <LongitudeDegrees>-3.7024225853383541107177734375</LongitudeDegrees>
            </Position>
            <AltitudeMeters>729.5999755859375</AltitudeMeters>
            <DistanceMeters>7024.2504935138</DistanceMeters>
          </Trackpoint>
          <Trackpoint>
            <Time>2021-09-26T07:57:31.000Z</Time>
            <Position>
              <LatitudeDegrees>40.45577533543109893798828125</LatitudeDegrees>
              <LongitudeDegrees>-3.70244697667658329010009765625</LongitudeDegrees>
            </Position>
            <AltitudeMeters>729.4000244140625</AltitudeMeters>
            <DistanceMeters>7031.6345033708</DistanceMeters>
          </Trackpoint>
          <Trackpoint>
            <Time>2021-09-26T07:57:37.000Z</Time>
            <Position>
              <LatitudeDegrees>40.45562647283077239990234375</LatitudeDegrees>
              <LongitudeDegrees>-3.70251336134970188140869140625</LongitudeDegrees>
            </Position>
            <AltitudeMeters>729.5999755859375</AltitudeMeters>
            <DistanceMeters>7049.1315511698</DistanceMeters>
          </Trackpoint>
          <Trackpoint>
            <Time>2021-09-26T07:57:43.000Z</Time>
            <Position>
              <LatitudeDegrees>40.455493032932281494140625</LatitudeDegrees>
              <LongitudeDegrees>-3.70257572270929813385009765625</LongitudeDegrees>
            </Position>
            <AltitudeMeters>729.79998779296875</AltitudeMeters>
            <DistanceMeters>7064.8951054513</DistanceMeters>
          </Trackpoint>
          <Trackpoint>
            <Time>2021-09-26T07:57:50.000Z</Time>
            <Position>
              <LatitudeDegrees>40.45535062439739704132080078125</LatitudeDegrees>
              <LongitudeDegrees>-3.70265501551330089569091796875</LongitudeDegrees>
            </Position>
            <AltitudeMeters>729.4000244140625</AltitudeMeters>
            <DistanceMeters>7082.1093724582</DistanceMeters>
          </Trackpoint>
          <Trackpoint>
            <Time>2021-09-26T07:57:53.000Z</Time>
            <Position>
              <LatitudeDegrees>40.45526579953730106353759765625</LatitudeDegrees>
              <LongitudeDegrees>-3.7026924826204776763916015625</LongitudeDegrees>
            </Position>
            <AltitudeMeters>729.20001220703125</AltitudeMeters>
            <DistanceMeters>7092.0695140141</DistanceMeters>
          </Trackpoint>
          <Trackpoint>
            <Time>2021-09-26T07:57:59.000Z</Time>
            <Position>
              <LatitudeDegrees>40.45510478317737579345703125</LatitudeDegrees>
              <LongitudeDegrees>-3.70275425724685192108154296875</LongitudeDegrees>
            </Position>
            <AltitudeMeters>728.4000244140625</AltitudeMeters>
            <DistanceMeters>7110.7388174447</DistanceMeters>
          </Trackpoint>
          <Trackpoint>
            <Time>2021-09-26T07:58:06.000Z</Time>
            <Position>
              <LatitudeDegrees>40.4549373127520084381103515625</LatitudeDegrees>
              <LongitudeDegrees>-3.7028217315673828125</LongitudeDegrees>
            </Position>
            <AltitudeMeters>727.4000244140625</AltitudeMeters>
            <DistanceMeters>7130.2348164619</DistanceMeters>
          </Trackpoint>
          <Trackpoint>
            <Time>2021-09-26T07:58:13.000Z</Time>
            <Position>
              <LatitudeDegrees>40.45481351204216480255126953125</LatitudeDegrees>
              <LongitudeDegrees>-3.70283539406955242156982421875</LongitudeDegrees>
            </Position>
            <AltitudeMeters>727</AltitudeMeters>
            <DistanceMeters>7144.0624279196</DistanceMeters>
          </Trackpoint>
          <Trackpoint>
            <Time>2021-09-26T07:58:21.000Z</Time>
            <Position>
              <LatitudeDegrees>40.45463229529559612274169921875</LatitudeDegrees>
              <LongitudeDegrees>-3.7028607912361621856689453125</LongitudeDegrees>
            </Position>
            <AltitudeMeters>726.4000244140625</AltitudeMeters>
            <DistanceMeters>7164.3465695847</DistanceMeters>
          </Trackpoint>
          <Trackpoint>
            <Time>2021-09-26T07:58:30.000Z</Time>
            <Position>
              <LatitudeDegrees>40.45445409603416919708251953125</LatitudeDegrees>
              <LongitudeDegrees>-3.7028859369456768035888671875</LongitudeDegrees>
            </Position>
            <AltitudeMeters>726.5999755859375</AltitudeMeters>
            <DistanceMeters>7184.2944854804</DistanceMeters>
          </Trackpoint>
          <Trackpoint>
            <Time>2021-09-26T07:58:35.000Z</Time>
            <Position>
              <LatitudeDegrees>40.45432602055370807647705078125</LatitudeDegrees>
              <LongitudeDegrees>-3.7029040418565273284912109375</LongitudeDegrees>
            </Position>
            <AltitudeMeters>726.20001220703125</AltitudeMeters>
            <DistanceMeters>7198.6318722775</DistanceMeters>
          </Trackpoint>
          <Trackpoint>
            <Time>2021-09-26T07:58:38.000Z</Time>
            <Position>
              <LatitudeDegrees>40.45427438803017139434814453125</LatitudeDegrees>
              <LongitudeDegrees>-3.7029221467673778533935546875</LongitudeDegrees>
            </Position>
            <AltitudeMeters>726</AltitudeMeters>
            <DistanceMeters>7204.5799677296</DistanceMeters>
          </Trackpoint>
          <Trackpoint>
            <Time>2021-09-26T07:58:42.000Z</Time>
            <Position>
              <LatitudeDegrees>40.45422233641147613525390625</LatitudeDegrees>
              <LongitudeDegrees>-3.702943436801433563232421875</LongitudeDegrees>
            </Position>
            <AltitudeMeters>725.79998779296875</AltitudeMeters>
            <DistanceMeters>7210.6468113559</DistanceMeters>
          </Trackpoint>
          <Trackpoint>
            <Time>2021-09-26T07:58:43.000Z</Time>
            <Position>
              <LatitudeDegrees>40.45420431531965732574462890625</LatitudeDegrees>
              <LongitudeDegrees>-3.70294787921011447906494140625</LongitudeDegrees>
            </Position>
            <AltitudeMeters>725.79998779296875</AltitudeMeters>
            <DistanceMeters>7212.6871214403</DistanceMeters>
          </Trackpoint>
          <Trackpoint>
            <Time>2021-09-26T07:58:50.000Z</Time>
            <Position>
              <LatitudeDegrees>40.4540498368442058563232421875</LatitudeDegrees>
              <LongitudeDegrees>-3.70294922031462192535400390625</LongitudeDegrees>
            </Position>
            <AltitudeMeters>725</AltitudeMeters>
            <DistanceMeters>7229.8809180723</DistanceMeters>
          </Trackpoint>
          <Trackpoint>
            <Time>2021-09-26T07:58:57.000Z</Time>
            <Position>
              <LatitudeDegrees>40.4538412950932979583740234375</LatitudeDegrees>
              <LongitudeDegrees>-3.70300613343715667724609375</LongitudeDegrees>
            </Position>
            <AltitudeMeters>724.20001220703125</AltitudeMeters>
            <DistanceMeters>7253.5873694636</DistanceMeters>
          </Trackpoint>
          <Trackpoint>
            <Time>2021-09-26T07:59:03.000Z</Time>
            <Position>
              <LatitudeDegrees>40.45368212275207042694091796875</LatitudeDegrees>
              <LongitudeDegrees>-3.70303940959274768829345703125</LongitudeDegrees>
            </Position>
            <AltitudeMeters>723.79998779296875</AltitudeMeters>
            <DistanceMeters>7271.5262890028</DistanceMeters>
          </Trackpoint>
          <Trackpoint>
            <Time>2021-09-26T07:59:10.000Z</Time>
            <Position>
              <LatitudeDegrees>40.4534919373691082000732421875</LatitudeDegrees>
              <LongitudeDegrees>-3.70305902324616909027099609375</LongitudeDegrees>
            </Position>
            <AltitudeMeters>723</AltitudeMeters>
            <DistanceMeters>7292.7591785033</DistanceMeters>
          </Trackpoint>
          <Trackpoint>
            <Time>2021-09-26T07:59:11.000Z</Time>
            <Position>
              <LatitudeDegrees>40.45346318744122982025146484375</LatitudeDegrees>
              <LongitudeDegrees>-3.70305575430393218994140625</LongitudeDegrees>
            </Position>
            <AltitudeMeters>723</AltitudeMeters>
            <DistanceMeters>7295.9718685561</DistanceMeters>
          </Trackpoint>
          <Trackpoint>
            <Time>2021-09-26T07:59:19.000Z</Time>
            <Position>
              <LatitudeDegrees>40.45331398956477642059326171875</LatitudeDegrees>
              <LongitudeDegrees>-3.7030093185603618621826171875</LongitudeDegrees>
            </Position>
            <AltitudeMeters>723.4000244140625</AltitudeMeters>
            <DistanceMeters>7313.0373013193</DistanceMeters>
          </Trackpoint>
          <Trackpoint>
            <Time>2021-09-26T07:59:23.000Z</Time>
            <Position>
              <LatitudeDegrees>40.4532538913190364837646484375</LatitudeDegrees>
              <LongitudeDegrees>-3.7030257470905780792236328125</LongitudeDegrees>
            </Position>
            <AltitudeMeters>723.5999755859375</AltitudeMeters>
            <DistanceMeters>7319.8699797996</DistanceMeters>
          </Trackpoint>
          <Trackpoint>
            <Time>2021-09-26T07:59:24.000Z</Time>
            <Position>
              <LatitudeDegrees>40.4532320983707904815673828125</LatitudeDegrees>
              <LongitudeDegrees>-3.703017532825469970703125</LongitudeDegrees>
            </Position>
            <AltitudeMeters>723.5999755859375</AltitudeMeters>
            <DistanceMeters>7322.3949023666</DistanceMeters>
          </Trackpoint>
          <Trackpoint>
            <Time>2021-09-26T07:59:27.000Z</Time>
            <Position>
              <LatitudeDegrees>40.45317820273339748382568359375</LatitudeDegrees>
              <LongitudeDegrees>-3.70303270407021045684814453125</LongitudeDegrees>
            </Position>
            <AltitudeMeters>723.79998779296875</AltitudeMeters>
            <DistanceMeters>7328.5298317564</DistanceMeters>
          </Trackpoint>
          <Trackpoint>
            <Time>2021-09-26T07:59:28.000Z</Time>
            <Position>
              <LatitudeDegrees>40.45315976254642009735107421875</LatitudeDegrees>
              <LongitudeDegrees>-3.70304292999207973480224609375</LongitudeDegrees>
            </Position>
            <AltitudeMeters>723.79998779296875</AltitudeMeters>
            <DistanceMeters>7330.7584057498</DistanceMeters>
          </Trackpoint>
          <Trackpoint>
            <Time>2021-09-26T07:59:36.000Z</Time>
            <Position>
              <LatitudeDegrees>40.4530026018619537353515625</LatitudeDegrees>
              <LongitudeDegrees>-3.70305432938039302825927734375</LongitudeDegrees>
            </Position>
            <AltitudeMeters>724.20001220703125</AltitudeMeters>
            <DistanceMeters>7348.277373704</DistanceMeters>
          </Trackpoint>
          <Trackpoint>
            <Time>2021-09-26T07:59:44.000Z</Time>
            <Position>
              <LatitudeDegrees>40.452837646007537841796875</LatitudeDegrees>
              <LongitudeDegrees>-3.7030425108969211578369140625</LongitudeDegrees>
            </Position>
            <AltitudeMeters>724.20001220703125</AltitudeMeters>
            <DistanceMeters>7366.6644904454</DistanceMeters>
          </Trackpoint>
          <Trackpoint>
            <Time>2021-09-26T07:59:52.000Z</Time>
            <Position>
              <LatitudeDegrees>40.452639497816562652587890625</LatitudeDegrees>
              <LongitudeDegrees>-3.70306941680610179901123046875</LongitudeDegrees>
            </Position>
            <AltitudeMeters>724.20001220703125</AltitudeMeters>
            <DistanceMeters>7388.8362817923</DistanceMeters>
          </Trackpoint>
          <Trackpoint>
            <Time>2021-09-26T08:00:01.000Z</Time>
            <Position>
              <LatitudeDegrees>40.4524634778499603271484375</LatitudeDegrees>
              <LongitudeDegrees>-3.7031073868274688720703125</LongitudeDegrees>
            </Position>
            <AltitudeMeters>723.79998779296875</AltitudeMeters>
            <DistanceMeters>7408.6898164091</DistanceMeters>
          </Trackpoint>
          <Trackpoint>
            <Time>2021-09-26T08:00:09.000Z</Time>
            <Position>
              <LatitudeDegrees>40.452262647449970245361328125</LatitudeDegrees>
              <LongitudeDegrees>-3.70312373153865337371826171875</LongitudeDegrees>
            </Position>
            <AltitudeMeters>723.5999755859375</AltitudeMeters>
            <DistanceMeters>7431.0854982697</DistanceMeters>
          </Trackpoint>
          <Trackpoint>
            <Time>2021-09-26T08:00:17.000Z</Time>
            <Position>
              <LatitudeDegrees>40.4520881362259387969970703125</LatitudeDegrees>
              <LongitudeDegrees>-3.7031524814665317535400390625</LongitudeDegrees>
            </Position>
            <AltitudeMeters>723.4000244140625</AltitudeMeters>
            <DistanceMeters>7450.66100143</DistanceMeters>
          </Trackpoint>
          <Trackpoint>
            <Time>2021-09-26T08:00:19.000Z</Time>
            <Position>
              <LatitudeDegrees>40.45203172601759433746337890625</LatitudeDegrees>
              <LongitudeDegrees>-3.70316077955067157745361328125</LongitudeDegrees>
            </Position>
            <AltitudeMeters>723.4000244140625</AltitudeMeters>
            <DistanceMeters>7456.9779554274</DistanceMeters>
          </Trackpoint>
          <Trackpoint>
            <Time>2021-09-26T08:00:24.000Z</Time>
            <Position>
              <LatitudeDegrees>40.451940111815929412841796875</LatitudeDegrees>
              <LongitudeDegrees>-3.7031823210418224334716796875</LongitudeDegrees>
            </Position>
            <AltitudeMeters>723.4000244140625</AltitudeMeters>
            <DistanceMeters>7467.3371749183</DistanceMeters>
          </Trackpoint>
          <Trackpoint>
            <Time>2021-09-26T08:00:33.000Z</Time>
            <Position>
              <LatitudeDegrees>40.4517521895468235015869140625</LatitudeDegrees>
              <LongitudeDegrees>-3.7031990848481655120849609375</LongitudeDegrees>
            </Position>
            <AltitudeMeters>723.4000244140625</AltitudeMeters>
            <DistanceMeters>7488.3017135652</DistanceMeters>
          </Trackpoint>
          <Trackpoint>
            <Time>2021-09-26T08:00:35.000Z</Time>
            <Position>
              <LatitudeDegrees>40.45169661752879619598388671875</LatitudeDegrees>
              <LongitudeDegrees>-3.70321341790258884429931640625</LongitudeDegrees>
            </Position>
            <AltitudeMeters>723.4000244140625</AltitudeMeters>
            <DistanceMeters>7494.6050726978</DistanceMeters>
          </Trackpoint>
          <Trackpoint>
            <Time>2021-09-26T08:00:41.000Z</Time>
            <Position>
              <LatitudeDegrees>40.45152143575251102447509765625</LatitudeDegrees>
              <LongitudeDegrees>-3.7032808922231197357177734375</LongitudeDegrees>
            </Position>
            <AltitudeMeters>723.5999755859375</AltitudeMeters>
            <DistanceMeters>7514.92346424</DistanceMeters>
          </Trackpoint>
          <Trackpoint>
            <Time>2021-09-26T08:00:43.000Z</Time>
            <Position>
              <LatitudeDegrees>40.4514685459434986114501953125</LatitudeDegrees>
              <LongitudeDegrees>-3.7032932974398136138916015625</LongitudeDegrees>
            </Position>
            <AltitudeMeters>723.79998779296875</AltitudeMeters>
            <DistanceMeters>7520.9026006862</DistanceMeters>
          </Trackpoint>
          <Trackpoint>
            <Time>2021-09-26T08:00:46.000Z</Time>
            <Position>
              <LatitudeDegrees>40.45138514600694179534912109375</LatitudeDegrees>
              <LongitudeDegrees>-3.703308217227458953857421875</LongitudeDegrees>
            </Position>
            <AltitudeMeters>724</AltitudeMeters>
            <DistanceMeters>7530.27080825</DistanceMeters>
          </Trackpoint>
          <Trackpoint>
            <Time>2021-09-26T08:00:51.000Z</Time>
            <Position>
              <LatitudeDegrees>40.45118968002498149871826171875</LatitudeDegrees>
              <LongitudeDegrees>-3.7033809721469879150390625</LongitudeDegrees>
            </Position>
            <AltitudeMeters>723.4000244140625</AltitudeMeters>
            <DistanceMeters>7552.8823744995</DistanceMeters>
          </Trackpoint>
          <Trackpoint>
            <Time>2021-09-26T08:00:55.000Z</Time>
            <Position>
              <LatitudeDegrees>40.45109312050044536590576171875</LatitudeDegrees>
              <LongitudeDegrees>-3.70338155888020992279052734375</LongitudeDegrees>
            </Position>
            <AltitudeMeters>723</AltitudeMeters>
            <DistanceMeters>7563.6296396305</DistanceMeters>
          </Trackpoint>
          <Trackpoint>
            <Time>2021-09-26T08:01:01.000Z</Time>
            <Position>
              <LatitudeDegrees>40.4509391449391841888427734375</LatitudeDegrees>
              <LongitudeDegrees>-3.70336412452161312103271484375</LongitudeDegrees>
            </Position>
            <AltitudeMeters>722.5999755859375</AltitudeMeters>
            <DistanceMeters>7580.830787405</DistanceMeters>
          </Trackpoint>
          <Trackpoint>
            <Time>2021-09-26T08:01:07.000Z</Time>
            <Position>
              <LatitudeDegrees>40.4508207924664020538330078125</LatitudeDegrees>
              <LongitudeDegrees>-3.70337418280541896820068359375</LongitudeDegrees>
            </Position>
            <AltitudeMeters>722.20001220703125</AltitudeMeters>
            <DistanceMeters>7594.0309523685</DistanceMeters>
          </Trackpoint>
          <Trackpoint>
            <Time>2021-09-26T08:01:14.000Z</Time>
            <Position>
              <LatitudeDegrees>40.4506622068583965301513671875</LatitudeDegrees>
              <LongitudeDegrees>-3.70339463464915752410888671875</LongitudeDegrees>
            </Position>
            <AltitudeMeters>721.4000244140625</AltitudeMeters>
            <DistanceMeters>7611.7666136995</DistanceMeters>
          </Trackpoint>
          <Trackpoint>
            <Time>2021-09-26T08:01:22.000Z</Time>
            <Position>
              <LatitudeDegrees>40.45049129985272884368896484375</LatitudeDegrees>
              <LongitudeDegrees>-3.7034606002271175384521484375</LongitudeDegrees>
            </Position>
            <AltitudeMeters>720</AltitudeMeters>
            <DistanceMeters>7631.592383986</DistanceMeters>
          </Trackpoint>
          <Trackpoint>
            <Time>2021-09-26T08:01:28.000Z</Time>
            <Position>
              <LatitudeDegrees>40.450409911572933197021484375</LatitudeDegrees>
              <LongitudeDegrees>-3.7034572474658489227294921875</LongitudeDegrees>
            </Position>
            <AltitudeMeters>719.5999755859375</AltitudeMeters>
            <DistanceMeters>7640.6553622677</DistanceMeters>
          </Trackpoint>
          <Trackpoint>
            <Time>2021-09-26T08:01:35.000Z</Time>
            <Position>
              <LatitudeDegrees>40.450256355106830596923828125</LatitudeDegrees>
              <LongitudeDegrees>-3.70347141288220882415771484375</LongitudeDegrees>
            </Position>
            <AltitudeMeters>718.79998779296875</AltitudeMeters>
            <DistanceMeters>7657.7883916252</DistanceMeters>
          </Trackpoint>
          <Trackpoint>
            <Time>2021-09-26T08:01:41.000Z</Time>
            <Position>
              <LatitudeDegrees>40.4501777328550815582275390625</LatitudeDegrees>
              <LongitudeDegrees>-3.70345951057970523834228515625</LongitudeDegrees>
            </Position>
            <AltitudeMeters>718.4000244140625</AltitudeMeters>
            <DistanceMeters>7666.5967068333</DistanceMeters>
          </Trackpoint>
          <Trackpoint>
            <Time>2021-09-26T08:01:46.000Z</Time>
            <Position>
              <LatitudeDegrees>40.45008100569248199462890625</LatitudeDegrees>
              <LongitudeDegrees>-3.70345942676067352294921875</LongitudeDegrees>
            </Position>
            <AltitudeMeters>718</AltitudeMeters>
            <DistanceMeters>7677.3620215562</DistanceMeters>
          </Trackpoint>
          <Trackpoint>
            <Time>2021-09-26T08:01:52.000Z</Time>
            <Position>
              <LatitudeDegrees>40.44988445006310939788818359375</LatitudeDegrees>
              <LongitudeDegrees>-3.703460432589054107666015625</LongitudeDegrees>
            </Position>
            <AltitudeMeters>717</AltitudeMeters>
            <DistanceMeters>7699.2392268549</DistanceMeters>
          </Trackpoint>
          <Trackpoint>
            <Time>2021-09-26T08:01:54.000Z</Time>
            <Position>
              <LatitudeDegrees>40.44980800710618495941162109375</LatitudeDegrees>
              <LongitudeDegrees>-3.70349161326885223388671875</LongitudeDegrees>
            </Position>
            <AltitudeMeters>716.79998779296875</AltitudeMeters>
            <DistanceMeters>7708.1479496515</DistanceMeters>
          </Trackpoint>
          <Trackpoint>
            <Time>2021-09-26T08:02:00.000Z</Time>
            <Position>
              <LatitudeDegrees>40.44964791275560855865478515625</LatitudeDegrees>
              <LongitudeDegrees>-3.70352069847285747528076171875</LongitudeDegrees>
            </Position>
            <AltitudeMeters>716</AltitudeMeters>
            <DistanceMeters>7726.1361326952</DistanceMeters>
          </Trackpoint>
          <Trackpoint>
            <Time>2021-09-26T08:02:07.000Z</Time>
            <Position>
              <LatitudeDegrees>40.4495044983923435211181640625</LatitudeDegrees>
              <LongitudeDegrees>-3.70347225107252597808837890625</LongitudeDegrees>
            </Position>
            <AltitudeMeters>716</AltitudeMeters>
            <DistanceMeters>7742.6177211984</DistanceMeters>
          </Trackpoint>
          <Trackpoint>
            <Time>2021-09-26T08:02:13.000Z</Time>
            <Position>
              <LatitudeDegrees>40.4493878223001956939697265625</LatitudeDegrees>
              <LongitudeDegrees>-3.70346034877002239227294921875</LongitudeDegrees>
            </Position>
            <AltitudeMeters>716.20001220703125</AltitudeMeters>
            <DistanceMeters>7755.642968844</DistanceMeters>
          </Trackpoint>
          <Trackpoint>
            <Time>2021-09-26T08:02:21.000Z</Time>
            <Position>
              <LatitudeDegrees>40.44920920394361019134521484375</LatitudeDegrees>
              <LongitudeDegrees>-3.70350644923746585845947265625</LongitudeDegrees>
            </Position>
            <AltitudeMeters>716.4000244140625</AltitudeMeters>
            <DistanceMeters>7775.903502277</DistanceMeters>
          </Trackpoint>
          <Trackpoint>
            <Time>2021-09-26T08:02:22.000Z</Time>
            <Position>
              <LatitudeDegrees>40.44919277541339397430419921875</LatitudeDegrees>
              <LongitudeDegrees>-3.703512065112590789794921875</LongitudeDegrees>
            </Position>
            <AltitudeMeters>716.5999755859375</AltitudeMeters>
            <DistanceMeters>7777.7921208715</DistanceMeters>
          </Trackpoint>
          <Trackpoint>
            <Time>2021-09-26T08:02:28.000Z</Time>
            <Position>
              <LatitudeDegrees>40.44905480928719043731689453125</LatitudeDegrees>
              <LongitudeDegrees>-3.70355573482811450958251953125</LongitudeDegrees>
            </Position>
            <AltitudeMeters>716.79998779296875</AltitudeMeters>
            <DistanceMeters>7793.587150216</DistanceMeters>
          </Trackpoint>
          <Trackpoint>
            <Time>2021-09-26T08:02:36.000Z</Time>
            <Position>
              <LatitudeDegrees>40.4488644562661647796630859375</LatitudeDegrees>
              <LongitudeDegrees>-3.70359596796333789825439453125</LongitudeDegrees>
            </Position>
            <AltitudeMeters>717</AltitudeMeters>
            <DistanceMeters>7815.0461517831</DistanceMeters>
          </Trackpoint>
          <Trackpoint>
            <Time>2021-09-26T08:02:37.000Z</Time>
            <Position>
              <LatitudeDegrees>40.4488440044224262237548828125</LatitudeDegrees>
              <LongitudeDegrees>-3.70360099710524082183837890625</LongitudeDegrees>
            </Position>
            <AltitudeMeters>717</AltitudeMeters>
            <DistanceMeters>7817.3621538142</DistanceMeters>
          </Trackpoint>
          <Trackpoint>
            <Time>2021-09-26T08:02:42.000Z</Time>
            <Position>
              <LatitudeDegrees>40.44867913238704204559326171875</LatitudeDegrees>
              <LongitudeDegrees>-3.70367668569087982177734375</LongitudeDegrees>
            </Position>
            <AltitudeMeters>716.79998779296875</AltitudeMeters>
            <DistanceMeters>7836.8004018999</DistanceMeters>
          </Trackpoint>
          <Trackpoint>
            <Time>2021-09-26T08:02:48.000Z</Time>
            <Position>
              <LatitudeDegrees>40.44848064891993999481201171875</LatitudeDegrees>
              <LongitudeDegrees>-3.7037697248160839080810546875</LongitudeDegrees>
            </Position>
            <AltitudeMeters>717.20001220703125</AltitudeMeters>
            <DistanceMeters>7860.2554514031</DistanceMeters>
          </Trackpoint>
          <Trackpoint>
            <Time>2021-09-26T08:02:50.000Z</Time>
            <Position>
              <LatitudeDegrees>40.44842164032161235809326171875</LatitudeDegrees>
              <LongitudeDegrees>-3.70378321968019008636474609375</LongitudeDegrees>
            </Position>
            <AltitudeMeters>717.4000244140625</AltitudeMeters>
            <DistanceMeters>7866.9222374547</DistanceMeters>
          </Trackpoint>
          <Trackpoint>
            <Time>2021-09-26T08:02:58.000Z</Time>
            <Position>
              <LatitudeDegrees>40.44825567863881587982177734375</LatitudeDegrees>
              <LongitudeDegrees>-3.70376209728419780731201171875</LongitudeDegrees>
            </Position>
            <AltitudeMeters>718.4000244140625</AltitudeMeters>
            <DistanceMeters>7885.4804463007</DistanceMeters>
          </Trackpoint>
          <Trackpoint>
            <Time>2021-09-26T08:03:05.000Z</Time>
            <Position>
              <LatitudeDegrees>40.448121316730976104736328125</LatitudeDegrees>
              <LongitudeDegrees>-3.703752122819423675537109375</LongitudeDegrees>
            </Position>
            <AltitudeMeters>719</AltitudeMeters>
            <DistanceMeters>7900.4591404803</DistanceMeters>
          </Trackpoint>
          <Trackpoint>
            <Time>2021-09-26T08:03:12.000Z</Time>
            <Position>
              <LatitudeDegrees>40.4479746334254741668701171875</LatitudeDegrees>
              <LongitudeDegrees>-3.70376125909388065338134765625</LongitudeDegrees>
            </Position>
            <AltitudeMeters>719.79998779296875</AltitudeMeters>
            <DistanceMeters>7916.8037353519</DistanceMeters>
          </Trackpoint>
          <Trackpoint>
            <Time>2021-09-26T08:03:21.000Z</Time>
            <Position>
              <LatitudeDegrees>40.4478017985820770263671875</LatitudeDegrees>
              <LongitudeDegrees>-3.7037868238985538482666015625</LongitudeDegrees>
            </Position>
            <AltitudeMeters>721.4000244140625</AltitudeMeters>
            <DistanceMeters>7936.1616823575</DistanceMeters>
          </Trackpoint>
          <Trackpoint>
            <Time>2021-09-26T08:03:29.000Z</Time>
            <Position>
              <LatitudeDegrees>40.44761446304619312286376953125</LatitudeDegrees>
              <LongitudeDegrees>-3.70385773479938507080078125</LongitudeDegrees>
            </Position>
            <AltitudeMeters>722.4000244140625</AltitudeMeters>
            <DistanceMeters>7957.8602580202</DistanceMeters>
          </Trackpoint>
          <Trackpoint>
            <Time>2021-09-26T08:03:33.000Z</Time>
            <Position>
              <LatitudeDegrees>40.44751035980880260467529296875</LatitudeDegrees>
              <LongitudeDegrees>-3.7038825452327728271484375</LongitudeDegrees>
            </Position>
            <AltitudeMeters>722.79998779296875</AltitudeMeters>
            <DistanceMeters>7969.6362880792</DistanceMeters>
          </Trackpoint>
          <Trackpoint>
            <Time>2021-09-26T08:03:37.000Z</Time>
            <Position>
              <LatitudeDegrees>40.447395779192447662353515625</LatitudeDegrees>
              <LongitudeDegrees>-3.70385077781975269317626953125</LongitudeDegrees>
            </Position>
            <AltitudeMeters>723.20001220703125</AltitudeMeters>
            <DistanceMeters>7982.6698523677</DistanceMeters>
          </Trackpoint>
          <Trackpoint>
            <Time>2021-09-26T08:03:43.000Z</Time>
            <Position>
              <LatitudeDegrees>40.44725672341883182525634765625</LatitudeDegrees>
              <LongitudeDegrees>-3.7037589959800243377685546875</LongitudeDegrees>
            </Position>
            <AltitudeMeters>723.5999755859375</AltitudeMeters>
            <DistanceMeters>7999.9897582413</DistanceMeters>
          </Trackpoint>
          <Trackpoint>
            <Time>2021-09-26T08:03:48.000Z</Time>
            <Position>
              <LatitudeDegrees>40.4471579007804393768310546875</LatitudeDegrees>
              <LongitudeDegrees>-3.7036733329296112060546875</LongitudeDegrees>
            </Position>
            <AltitudeMeters>724</AltitudeMeters>
            <DistanceMeters>8013.16664368</DistanceMeters>
          </Trackpoint>
          <Trackpoint>
            <Time>2021-09-26T08:03:55.000Z</Time>
            <Position>
              <LatitudeDegrees>40.4469751752912998199462890625</LatitudeDegrees>
              <LongitudeDegrees>-3.70359756052494049072265625</LongitudeDegrees>
            </Position>
            <AltitudeMeters>722.79998779296875</AltitudeMeters>
            <DistanceMeters>8034.4928911271</DistanceMeters>
          </Trackpoint>
          <Trackpoint>
            <Time>2021-09-26T08:03:56.000Z</Time>
            <Position>
              <LatitudeDegrees>40.4469473473727703094482421875</LatitudeDegrees>
              <LongitudeDegrees>-3.703589178621768951416015625</LongitudeDegrees>
            </Position>
            <AltitudeMeters>722.5999755859375</AltitudeMeters>
            <DistanceMeters>8037.6702525268</DistanceMeters>
          </Trackpoint>
          <Trackpoint>
            <Time>2021-09-26T08:03:56.000Z</Time>
            <Position>
              <LatitudeDegrees>40.4469473473727703094482421875</LatitudeDegrees>
              <LongitudeDegrees>-3.703589178621768951416015625</LongitudeDegrees>
            </Position>
            <AltitudeMeters>722.5999755859375</AltitudeMeters>
            <DistanceMeters>8037.6702525268</DistanceMeters>
          </Trackpoint>
          <Trackpoint>
            <Time>2021-09-26T08:04:05.000Z</Time>
            <Position>
              <LatitudeDegrees>40.44677526690065860748291015625</LatitudeDegrees>
              <LongitudeDegrees>-3.70346152223646640777587890625</LongitudeDegrees>
            </Position>
            <AltitudeMeters>721</AltitudeMeters>
            <DistanceMeters>8059.6643698108</DistanceMeters>
          </Trackpoint>
          <Trackpoint>
            <Time>2021-09-26T08:04:10.000Z</Time>
            <Position>
              <LatitudeDegrees>40.4467572458088397979736328125</LatitudeDegrees>
              <LongitudeDegrees>-3.703301511704921722412109375</LongitudeDegrees>
            </Position>
            <AltitudeMeters>720.20001220703125</AltitudeMeters>
            <DistanceMeters>8073.3653635382</DistanceMeters>
          </Trackpoint>
          <Trackpoint>
            <Time>2021-09-26T08:04:18.000Z</Time>
            <Position>
              <LatitudeDegrees>40.44675481505692005157470703125</LatitudeDegrees>
              <LongitudeDegrees>-3.70304502546787261962890625</LongitudeDegrees>
            </Position>
            <AltitudeMeters>719.5999755859375</AltitudeMeters>
            <DistanceMeters>8095.0918040205</DistanceMeters>
          </Trackpoint>
          <Trackpoint>
            <Time>2021-09-26T08:04:20.000Z</Time>
            <Position>
              <LatitudeDegrees>40.44674525968730449676513671875</LatitudeDegrees>
              <LongitudeDegrees>-3.70298911817371845245361328125</LongitudeDegrees>
            </Position>
            <AltitudeMeters>719.79998779296875</AltitudeMeters>
            <DistanceMeters>8099.9446835127</DistanceMeters>
          </Trackpoint>
          <Trackpoint>
            <Time>2021-09-26T08:04:28.000Z</Time>
            <Position>
              <LatitudeDegrees>40.446699075400829315185546875</LatitudeDegrees>
              <LongitudeDegrees>-3.7027340568602085113525390625</LongitudeDegrees>
            </Position>
            <AltitudeMeters>720.4000244140625</AltitudeMeters>
            <DistanceMeters>8122.1518797525</DistanceMeters>
          </Trackpoint>
          <Trackpoint>
            <Time>2021-09-26T08:04:33.000Z</Time>
            <Position>
              <LatitudeDegrees>40.44671340845525264739990234375</LatitudeDegrees>
              <LongitudeDegrees>-3.70259516872465610504150390625</LongitudeDegrees>
            </Position>
            <AltitudeMeters>720.20001220703125</AltitudeMeters>
            <DistanceMeters>8134.0237554736</DistanceMeters>
          </Trackpoint>
          <Trackpoint>
            <Time>2021-09-26T08:04:40.000Z</Time>
            <Position>
              <LatitudeDegrees>40.446775853633880615234375</LatitudeDegrees>
              <LongitudeDegrees>-3.70239048264920711517333984375</LongitudeDegrees>
            </Position>
            <AltitudeMeters>719.79998779296875</AltitudeMeters>
            <DistanceMeters>8152.7027301147</DistanceMeters>
          </Trackpoint>
          <Trackpoint>
            <Time>2021-09-26T08:04:46.000Z</Time>
            <Position>
              <LatitudeDegrees>40.446835868060588836669921875</LatitudeDegrees>
              <LongitudeDegrees>-3.7022142112255096435546875</LongitudeDegrees>
            </Position>
            <AltitudeMeters>719.4000244140625</AltitudeMeters>
            <DistanceMeters>8169.0594750501</DistanceMeters>
          </Trackpoint>
          <Trackpoint>
            <Time>2021-09-26T08:04:49.000Z</Time>
            <Position>
              <LatitudeDegrees>40.44686394743621349334716796875</LatitudeDegrees>
              <LongitudeDegrees>-3.70212092064321041107177734375</LongitudeDegrees>
            </Position>
            <AltitudeMeters>719.4000244140625</AltitudeMeters>
            <DistanceMeters>8177.5567976429</DistanceMeters>
          </Trackpoint>
          <Trackpoint>
            <Time>2021-09-26T08:04:56.000Z</Time>
            <Position>
              <LatitudeDegrees>40.4468232952058315277099609375</LatitudeDegrees>
              <LongitudeDegrees>-3.70188455097377300262451171875</LongitudeDegrees>
            </Position>
            <AltitudeMeters>719.4000244140625</AltitudeMeters>
            <DistanceMeters>8198.0827879149</DistanceMeters>
          </Trackpoint>
          <Trackpoint>
            <Time>2021-09-26T08:04:59.000Z</Time>
            <Position>
              <LatitudeDegrees>40.44679454527795314788818359375</LatitudeDegrees>
              <LongitudeDegrees>-3.70179167948663234710693359375</LongitudeDegrees>
            </Position>
            <AltitudeMeters>719.4000244140625</AltitudeMeters>
            <DistanceMeters>8206.5753270262</DistanceMeters>
          </Trackpoint>
          <Trackpoint>
            <Time>2021-09-26T08:05:07.000Z</Time>
            <Position>
              <LatitudeDegrees>40.446766801178455352783203125</LatitudeDegrees>
              <LongitudeDegrees>-3.7015448324382305145263671875</LongitudeDegrees>
            </Position>
            <AltitudeMeters>719</AltitudeMeters>
            <DistanceMeters>8227.7106013687</DistanceMeters>
          </Trackpoint>
          <Trackpoint>
            <Time>2021-09-26T08:05:08.000Z</Time>
            <Position>
              <LatitudeDegrees>40.44676319696009159088134765625</LatitudeDegrees>
              <LongitudeDegrees>-3.70151608251035213470458984375</LongitudeDegrees>
            </Position>
            <AltitudeMeters>719</AltitudeMeters>
            <DistanceMeters>8230.1812959423</DistanceMeters>
          </Trackpoint>
          <Trackpoint>
            <Time>2021-09-26T08:05:15.000Z</Time>
            <Position>
              <LatitudeDegrees>40.4466886818408966064453125</LatitudeDegrees>
              <LongitudeDegrees>-3.70129044167697429656982421875</LongitudeDegrees>
            </Position>
            <AltitudeMeters>717.79998779296875</AltitudeMeters>
            <DistanceMeters>8251.015564458</DistanceMeters>
          </Trackpoint>
          <Trackpoint>
            <Time>2021-09-26T08:05:23.000Z</Time>
            <Position>
              <LatitudeDegrees>40.4466590099036693572998046875</LatitudeDegrees>
              <LongitudeDegrees>-3.70102456770837306976318359375</LongitudeDegrees>
            </Position>
            <AltitudeMeters>716.20001220703125</AltitudeMeters>
            <DistanceMeters>8273.7763967273</DistanceMeters>
          </Trackpoint>
          <Trackpoint>
            <Time>2021-09-26T08:05:24.000Z</Time>
            <Position>
              <LatitudeDegrees>40.4466516338288784027099609375</LatitudeDegrees>
              <LongitudeDegrees>-3.700990118086338043212890625</LongitudeDegrees>
            </Position>
            <AltitudeMeters>716.20001220703125</AltitudeMeters>
            <DistanceMeters>8276.8083297443</DistanceMeters>
          </Trackpoint>
          <Trackpoint>
            <Time>2021-09-26T08:05:28.000Z</Time>
            <Position>
              <LatitudeDegrees>40.44664316810667514801025390625</LatitudeDegrees>
              <LongitudeDegrees>-3.70086573064327239990234375</LongitudeDegrees>
            </Position>
            <AltitudeMeters>716.4000244140625</AltitudeMeters>
            <DistanceMeters>8287.386642809</DistanceMeters>
          </Trackpoint>
          <Trackpoint>
            <Time>2021-09-26T08:05:33.000Z</Time>
            <Position>
              <LatitudeDegrees>40.44662841595709323883056640625</LatitudeDegrees>
              <LongitudeDegrees>-3.700705803930759429931640625</LongitudeDegrees>
            </Position>
            <AltitudeMeters>716.4000244140625</AltitudeMeters>
            <DistanceMeters>8301.0321613508</DistanceMeters>
          </Trackpoint>
          <Trackpoint>
            <Time>2021-09-26T08:05:41.000Z</Time>
            <Position>
              <LatitudeDegrees>40.44662632048130035400390625</LatitudeDegrees>
              <LongitudeDegrees>-3.70047085918486118316650390625</LongitudeDegrees>
            </Position>
            <AltitudeMeters>714.79998779296875</AltitudeMeters>
            <DistanceMeters>8320.9338500476</DistanceMeters>
          </Trackpoint>
          <Trackpoint>
            <Time>2021-09-26T08:05:48.000Z</Time>
            <Position>
              <LatitudeDegrees>40.44663277454674243927001953125</LatitudeDegrees>
              <LongitudeDegrees>-3.70023448951542377471923828125</LongitudeDegrees>
            </Position>
            <AltitudeMeters>713.5999755859375</AltitudeMeters>
            <DistanceMeters>8340.9675910269</DistanceMeters>
          </Trackpoint>
          <Trackpoint>
            <Time>2021-09-26T08:05:51.000Z</Time>
            <Position>
              <LatitudeDegrees>40.44662841595709323883056640625</LatitudeDegrees>
              <LongitudeDegrees>-3.70013885200023651123046875</LongitudeDegrees>
            </Position>
            <AltitudeMeters>713.4000244140625</AltitudeMeters>
            <DistanceMeters>8349.0827834156</DistanceMeters>
          </Trackpoint>
          <Trackpoint>
            <Time>2021-09-26T08:05:59.000Z</Time>
            <Position>
              <LatitudeDegrees>40.44661735184490680694580078125</LatitudeDegrees>
              <LongitudeDegrees>-3.699903823435306549072265625</LongitudeDegrees>
            </Position>
            <AltitudeMeters>713.5999755859375</AltitudeMeters>
            <DistanceMeters>8369.028209401</DistanceMeters>
          </Trackpoint>
          <Trackpoint>
            <Time>2021-09-26T08:06:07.000Z</Time>
            <Position>
              <LatitudeDegrees>40.44660896994173526763916015625</LatitudeDegrees>
              <LongitudeDegrees>-3.6996662802994251251220703125</LongitudeDegrees>
            </Position>
            <AltitudeMeters>714</AltitudeMeters>
            <DistanceMeters>8389.1702866145</DistanceMeters>
          </Trackpoint>
          <Trackpoint>
            <Time>2021-09-26T08:06:15.000Z</Time>
            <Position>
              <LatitudeDegrees>40.44660008512437343597412109375</LatitudeDegrees>
              <LongitudeDegrees>-3.69941675104200839996337890625</LongitudeDegrees>
            </Position>
            <AltitudeMeters>714.5999755859375</AltitudeMeters>
            <DistanceMeters>8410.3288333478</DistanceMeters>
          </Trackpoint>
          <Trackpoint>
            <Time>2021-09-26T08:06:23.000Z</Time>
            <Position>
              <LatitudeDegrees>40.446585081517696380615234375</LatitudeDegrees>
              <LongitudeDegrees>-3.69917484931647777557373046875</LongitudeDegrees>
            </Position>
            <AltitudeMeters>714</AltitudeMeters>
            <DistanceMeters>8430.8862548198</DistanceMeters>
          </Trackpoint>
          <Trackpoint>
            <Time>2021-09-26T08:06:25.000Z</Time>
            <Position>
              <LatitudeDegrees>40.4465772025287151336669921875</LatitudeDegrees>
              <LongitudeDegrees>-3.69911449961364269256591796875</LongitudeDegrees>
            </Position>
            <AltitudeMeters>713.79998779296875</AltitudeMeters>
            <DistanceMeters>8436.071962838</DistanceMeters>
          </Trackpoint>
          <Trackpoint>
            <Time>2021-09-26T08:06:33.000Z</Time>
            <Position>
              <LatitudeDegrees>40.446550883352756500244140625</LatitudeDegrees>
              <LongitudeDegrees>-3.6988802254199981689453125</LongitudeDegrees>
            </Position>
            <AltitudeMeters>714.20001220703125</AltitudeMeters>
            <DistanceMeters>8456.1304793842</DistanceMeters>
          </Trackpoint>
          <Trackpoint>
            <Time>2021-09-26T08:06:34.000Z</Time>
            <Position>
              <LatitudeDegrees>40.4465492069721221923828125</LatitudeDegrees>
              <LongitudeDegrees>-3.69885482825338840484619140625</LongitudeDegrees>
            </Position>
            <AltitudeMeters>714.4000244140625</AltitudeMeters>
            <DistanceMeters>8458.2932506616</DistanceMeters>
          </Trackpoint>
          <Trackpoint>
            <Time>2021-09-26T08:06:40.000Z</Time>
            <Position>
              <LatitudeDegrees>40.44653001241385936737060546875</LatitudeDegrees>
              <LongitudeDegrees>-3.6986829154193401336669921875</LongitudeDegrees>
            </Position>
            <AltitudeMeters>714.5999755859375</AltitudeMeters>
            <DistanceMeters>8473.0104315596</DistanceMeters>
          </Trackpoint>
          <Trackpoint>
            <Time>2021-09-26T08:06:43.000Z</Time>
            <Position>
              <LatitudeDegrees>40.4465331137180328369140625</LatitudeDegrees>
              <LongitudeDegrees>-3.69858057238161563873291015625</LongitudeDegrees>
            </Position>
            <AltitudeMeters>714.79998779296875</AltitudeMeters>
            <DistanceMeters>8481.6865319069</DistanceMeters>
          </Trackpoint>
          <Trackpoint>
            <Time>2021-09-26T08:06:49.000Z</Time>
            <Position>
              <LatitudeDegrees>40.44653470627963542938232421875</LatitudeDegrees>
              <LongitudeDegrees>-3.69839700870215892791748046875</LongitudeDegrees>
            </Position>
            <AltitudeMeters>714</AltitudeMeters>
            <DistanceMeters>8497.2355275886</DistanceMeters>
          </Trackpoint>
          <Trackpoint>
            <Time>2021-09-26T08:06:57.000Z</Time>
            <Position>
              <LatitudeDegrees>40.4465051181614398956298828125</LatitudeDegrees>
              <LongitudeDegrees>-3.69813079945743083953857421875</LongitudeDegrees>
            </Position>
            <AltitudeMeters>712</AltitudeMeters>
            <DistanceMeters>8520.0229257691</DistanceMeters>
          </Trackpoint>
          <Trackpoint>
            <Time>2021-09-26T08:07:04.000Z</Time>
            <Position>
              <LatitudeDegrees>40.4465024359524250030517578125</LatitudeDegrees>
              <LongitudeDegrees>-3.69789258576929569244384765625</LongitudeDegrees>
            </Position>
            <AltitudeMeters>710.20001220703125</AltitudeMeters>
            <DistanceMeters>8540.2024028991</DistanceMeters>
          </Trackpoint>
          <Trackpoint>
            <Time>2021-09-26T08:07:06.000Z</Time>
            <Position>
              <LatitudeDegrees>40.4464970715343952178955078125</LatitudeDegrees>
              <LongitudeDegrees>-3.697833158075809478759765625</LongitudeDegrees>
            </Position>
            <AltitudeMeters>709.79998779296875</AltitudeMeters>
            <DistanceMeters>8545.271879949</DistanceMeters>
          </Trackpoint>
          <Trackpoint>
            <Time>2021-09-26T08:07:14.000Z</Time>
            <Position>
              <LatitudeDegrees>40.4465084709227085113525390625</LatitudeDegrees>
              <LongitudeDegrees>-3.697574995458126068115234375</LongitudeDegrees>
            </Position>
            <AltitudeMeters>709.4000244140625</AltitudeMeters>
            <DistanceMeters>8567.1754860783</DistanceMeters>
          </Trackpoint>
          <Trackpoint>
            <Time>2021-09-26T08:07:15.000Z</Time>
            <Position>
              <LatitudeDegrees>40.446505956351757049560546875</LatitudeDegrees>
              <LongitudeDegrees>-3.6975399591028690338134765625</LongitudeDegrees>
            </Position>
            <AltitudeMeters>709.4000244140625</AltitudeMeters>
            <DistanceMeters>8570.1563576322</DistanceMeters>
          </Trackpoint>
          <Trackpoint>
            <Time>2021-09-26T08:07:23.000Z</Time>
            <Position>
              <LatitudeDegrees>40.44650453142821788787841796875</LatitudeDegrees>
              <LongitudeDegrees>-3.69729914702475070953369140625</LongitudeDegrees>
            </Position>
            <AltitudeMeters>710.5999755859375</AltitudeMeters>
            <DistanceMeters>8590.5541467828</DistanceMeters>
          </Trackpoint>
          <Trackpoint>
            <Time>2021-09-26T08:07:25.000Z</Time>
            <Position>
              <LatitudeDegrees>40.4465101473033428192138671875</LatitudeDegrees>
              <LongitudeDegrees>-3.69724231772124767303466796875</LongitudeDegrees>
            </Position>
            <AltitudeMeters>710.79998779296875</AltitudeMeters>
            <DistanceMeters>8595.407026275</DistanceMeters>
          </Trackpoint>
          <Trackpoint>
            <Time>2021-09-26T08:07:33.000Z</Time>
            <Position>
              <LatitudeDegrees>40.44649179093539714813232421875</LatitudeDegrees>
              <LongitudeDegrees>-3.6969954706728458404541015625</LongitudeDegrees>
            </Position>
            <AltitudeMeters>712</AltitudeMeters>
            <DistanceMeters>8616.4150237074</DistanceMeters>
          </Trackpoint>
          <Trackpoint>
            <Time>2021-09-26T08:07:41.000Z</Time>
            <Position>
              <LatitudeDegrees>40.44648877345025539398193359375</LatitudeDegrees>
              <LongitudeDegrees>-3.69674376212060451507568359375</LongitudeDegrees>
            </Position>
            <AltitudeMeters>712</AltitudeMeters>
            <DistanceMeters>8637.738095227</DistanceMeters>
          </Trackpoint>
          <Trackpoint>
            <Time>2021-09-26T08:07:49.000Z</Time>
            <Position>
              <LatitudeDegrees>40.44647268019616603851318359375</LatitudeDegrees>
              <LongitudeDegrees>-3.6964999325573444366455078125</LongitudeDegrees>
            </Position>
            <AltitudeMeters>711.5999755859375</AltitudeMeters>
            <DistanceMeters>8658.4685165456</DistanceMeters>
          </Trackpoint>
          <Trackpoint>
            <Time>2021-09-26T08:07:57.000Z</Time>
            <Position>
              <LatitudeDegrees>40.4464524798095226287841796875</LatitudeDegrees>
              <LongitudeDegrees>-3.69624621234834194183349609375</LongitudeDegrees>
            </Position>
            <AltitudeMeters>711.20001220703125</AltitudeMeters>
            <DistanceMeters>8680.0765968076</DistanceMeters>
          </Trackpoint>
          <Trackpoint>
            <Time>2021-09-26T08:07:59.000Z</Time>
            <Position>
              <LatitudeDegrees>40.44644217006862163543701171875</LatitudeDegrees>
              <LongitudeDegrees>-3.6961847729980945587158203125</LongitudeDegrees>
            </Position>
            <AltitudeMeters>711.20001220703125</AltitudeMeters>
            <DistanceMeters>8685.4048761115</DistanceMeters>
          </Trackpoint>
          <Trackpoint>
            <Time>2021-09-26T08:08:07.000Z</Time>
            <Position>
              <LatitudeDegrees>40.4463991709053516387939453125</LatitudeDegrees>
              <LongitudeDegrees>-3.6959628202021121978759765625</LongitudeDegrees>
            </Position>
            <AltitudeMeters>710.79998779296875</AltitudeMeters>
            <DistanceMeters>8704.8042953265</DistanceMeters>
          </Trackpoint>
          <Trackpoint>
            <Time>2021-09-26T08:08:14.000Z</Time>
            <Position>
              <LatitudeDegrees>40.44639690779149532318115234375</LatitudeDegrees>
              <LongitudeDegrees>-3.69572536088526248931884765625</LongitudeDegrees>
            </Position>
            <AltitudeMeters>710.20001220703125</AltitudeMeters>
            <DistanceMeters>8724.9194554128</DistanceMeters>
          </Trackpoint>
          <Trackpoint>
            <Time>2021-09-26T08:08:17.000Z</Time>
            <Position>
              <LatitudeDegrees>40.44640730135142803192138671875</LatitudeDegrees>
              <LongitudeDegrees>-3.6956520192325115203857421875</LongitudeDegrees>
            </Position>
            <AltitudeMeters>710</AltitudeMeters>
            <DistanceMeters>8731.2385532943</DistanceMeters>
          </Trackpoint>
          <Trackpoint>
            <Time>2021-09-26T08:08:23.000Z</Time>
            <Position>
              <LatitudeDegrees>40.44641735963523387908935546875</LatitudeDegrees>
              <LongitudeDegrees>-3.6954622529447078704833984375</LongitudeDegrees>
            </Position>
            <AltitudeMeters>709.5999755859375</AltitudeMeters>
            <DistanceMeters>8747.351116646</DistanceMeters>
          </Trackpoint>
          <Trackpoint>
            <Time>2021-09-26T08:08:30.000Z</Time>
            <Position>
              <LatitudeDegrees>40.44641970656812191009521484375</LatitudeDegrees>
              <LongitudeDegrees>-3.69522630237042903900146484375</LongitudeDegrees>
            </Position>
            <AltitudeMeters>709</AltitudeMeters>
            <DistanceMeters>8767.3383771357</DistanceMeters>
          </Trackpoint>
          <Trackpoint>
            <Time>2021-09-26T08:08:32.000Z</Time>
            <Position>
              <LatitudeDegrees>40.44641233049333095550537109375</LatitudeDegrees>
              <LongitudeDegrees>-3.69516670703887939453125</LongitudeDegrees>
            </Position>
            <AltitudeMeters>708.79998779296875</AltitudeMeters>
            <DistanceMeters>8772.4521918939</DistanceMeters>
          </Trackpoint>
          <Trackpoint>
            <Time>2021-09-26T08:08:40.000Z</Time>
            <Position>
              <LatitudeDegrees>40.446408726274967193603515625</LatitudeDegrees>
              <LongitudeDegrees>-3.69490410201251506805419921875</LongitudeDegrees>
            </Position>
            <AltitudeMeters>708.4000244140625</AltitudeMeters>
            <DistanceMeters>8794.6989990747</DistanceMeters>
          </Trackpoint>
          <Trackpoint>
            <Time>2021-09-26T08:08:41.000Z</Time>
            <Position>
              <LatitudeDegrees>40.44641300104558467864990234375</LatitudeDegrees>
              <LongitudeDegrees>-3.69486856274306774139404296875</LongitudeDegrees>
            </Position>
            <AltitudeMeters>708.4000244140625</AltitudeMeters>
            <DistanceMeters>8797.7457873156</DistanceMeters>
          </Trackpoint>
          <Trackpoint>
            <Time>2021-09-26T08:08:47.000Z</Time>
            <Position>
              <LatitudeDegrees>40.44641585089266300201416015625</LatitudeDegrees>
              <LongitudeDegrees>-3.6946746893227100372314453125</LongitudeDegrees>
            </Position>
            <AltitudeMeters>708.4000244140625</AltitudeMeters>
            <DistanceMeters>8814.1702965529</DistanceMeters>
          </Trackpoint>
          <Trackpoint>
            <Time>2021-09-26T08:08:54.000Z</Time>
            <Position>
              <LatitudeDegrees>40.4464226402342319488525390625</LatitudeDegrees>
              <LongitudeDegrees>-3.69444611482322216033935546875</LongitudeDegrees>
            </Position>
            <AltitudeMeters>708.4000244140625</AltitudeMeters>
            <DistanceMeters>8833.5457286256</DistanceMeters>
          </Trackpoint>
          <Trackpoint>
            <Time>2021-09-26T08:09:02.000Z</Time>
            <Position>
              <LatitudeDegrees>40.4464266635477542877197265625</LatitudeDegrees>
              <LongitudeDegrees>-3.69417588226497173309326171875</LongitudeDegrees>
            </Position>
            <AltitudeMeters>709.5999755859375</AltitudeMeters>
            <DistanceMeters>8856.4394766141</DistanceMeters>
          </Trackpoint>
          <Trackpoint>
            <Time>2021-09-26T08:09:03.000Z</Time>
            <Position>
              <LatitudeDegrees>40.4464259929955005645751953125</LatitudeDegrees>
              <LongitudeDegrees>-3.69414268992841243743896484375</LongitudeDegrees>
            </Position>
            <AltitudeMeters>709.79998779296875</AltitudeMeters>
            <DistanceMeters>8859.2520105188</DistanceMeters>
          </Trackpoint>
          <Trackpoint>
            <Time>2021-09-26T08:09:10.000Z</Time>
            <Position>
              <LatitudeDegrees>40.44640730135142803192138671875</LatitudeDegrees>
              <LongitudeDegrees>-3.6938978545367717742919921875</LongitudeDegrees>
            </Position>
            <AltitudeMeters>711</AltitudeMeters>
            <DistanceMeters>8880.0940792102</DistanceMeters>
          </Trackpoint>
          <Trackpoint>
            <Time>2021-09-26T08:09:12.000Z</Time>
            <Position>
              <LatitudeDegrees>40.4463985003530979156494140625</LatitudeDegrees>
              <LongitudeDegrees>-3.69382468052208423614501953125</LongitudeDegrees>
            </Position>
            <AltitudeMeters>711.4000244140625</AltitudeMeters>
            <DistanceMeters>8886.3687212952</DistanceMeters>
          </Trackpoint>
          <Trackpoint>
            <Time>2021-09-26T08:09:19.000Z</Time>
            <Position>
              <LatitudeDegrees>40.44639254920184612274169921875</LatitudeDegrees>
              <LongitudeDegrees>-3.69356450624763965606689453125</LongitudeDegrees>
            </Position>
            <AltitudeMeters>712.5999755859375</AltitudeMeters>
            <DistanceMeters>8908.4161477885</DistanceMeters>
          </Trackpoint>
          <Trackpoint>
            <Time>2021-09-26T08:09:20.000Z</Time>
            <Position>
              <LatitudeDegrees>40.44638416729867458343505859375</LatitudeDegrees>
              <LongitudeDegrees>-3.69353131391108036041259765625</LongitudeDegrees>
            </Position>
            <AltitudeMeters>712.79998779296875</AltitudeMeters>
            <DistanceMeters>8911.3787875411</DistanceMeters>
          </Trackpoint>
          <Trackpoint>
            <Time>2021-09-26T08:09:29.000Z</Time>
            <Position>
              <LatitudeDegrees>40.4463668167591094970703125</LatitudeDegrees>
              <LongitudeDegrees>-3.693268038332462310791015625</LongitudeDegrees>
            </Position>
            <AltitudeMeters>710</AltitudeMeters>
            <DistanceMeters>8933.7621682362</DistanceMeters>
          </Trackpoint>
          <Trackpoint>
            <Time>2021-09-26T08:09:37.000Z</Time>
            <Position>
              <LatitudeDegrees>40.4463606141507625579833984375</LatitudeDegrees>
              <LongitudeDegrees>-3.6930303275585174560546875</LongitudeDegrees>
            </Position>
            <AltitudeMeters>706.20001220703125</AltitudeMeters>
            <DistanceMeters>8953.9087281411</DistanceMeters>
          </Trackpoint>
          <Trackpoint>
            <Time>2021-09-26T08:09:42.000Z</Time>
            <Position>
              <LatitudeDegrees>40.4463565908372402191162109375</LatitudeDegrees>
              <LongitudeDegrees>-3.69287702254951000213623046875</LongitudeDegrees>
            </Position>
            <AltitudeMeters>703.5999755859375</AltitudeMeters>
            <DistanceMeters>8966.9016985144</DistanceMeters>
          </Trackpoint>
          <Trackpoint>
            <Time>2021-09-26T08:09:50.000Z</Time>
            <Position>
              <LatitudeDegrees>40.44631795026361942291259765625</LatitudeDegrees>
              <LongitudeDegrees>-3.692632354795932769775390625</LongitudeDegrees>
            </Position>
            <AltitudeMeters>699.4000244140625</AltitudeMeters>
            <DistanceMeters>8988.067285971</DistanceMeters>
          </Trackpoint>
          <Trackpoint>
            <Time>2021-09-26T08:09:57.000Z</Time>
            <Position>
              <LatitudeDegrees>40.4462851770222187042236328125</LatitudeDegrees>
              <LongitudeDegrees>-3.69241702370345592498779296875</LongitudeDegrees>
            </Position>
            <AltitudeMeters>697.5999755859375</AltitudeMeters>
            <DistanceMeters>9006.6672937323</DistanceMeters>
          </Trackpoint>
          <Trackpoint>
            <Time>2021-09-26T08:10:05.000Z</Time>
            <Position>
              <LatitudeDegrees>40.44627218507230281829833984375</LatitudeDegrees>
              <LongitudeDegrees>-3.69217461906373500823974609375</LongitudeDegrees>
            </Position>
            <AltitudeMeters>695.5999755859375</AltitudeMeters>
            <DistanceMeters>9027.250176583</DistanceMeters>
          </Trackpoint>
          <Trackpoint>
            <Time>2021-09-26T08:10:08.000Z</Time>
            <Position>
              <LatitudeDegrees>40.446265898644924163818359375</LatitudeDegrees>
              <LongitudeDegrees>-3.69209163822233676910400390625</LongitudeDegrees>
            </Position>
            <AltitudeMeters>695</AltitudeMeters>
            <DistanceMeters>9034.3135449263</DistanceMeters>
          </Trackpoint>
          <Trackpoint>
            <Time>2021-09-26T08:10:09.000Z</Time>
            <Position>
              <LatitudeDegrees>40.4462640546262264251708984375</LatitudeDegrees>
              <LongitudeDegrees>-3.69206179864704608917236328125</LongitudeDegrees>
            </Position>
            <AltitudeMeters>694.5999755859375</AltitudeMeters>
            <DistanceMeters>9036.8491739268</DistanceMeters>
          </Trackpoint>
          <Trackpoint>
            <Time>2021-09-26T08:10:09.000Z</Time>
            <Position>
              <LatitudeDegrees>40.4462640546262264251708984375</LatitudeDegrees>
              <LongitudeDegrees>-3.69206179864704608917236328125</LongitudeDegrees>
            </Position>
            <AltitudeMeters>694.5999755859375</AltitudeMeters>
            <DistanceMeters>9036.8491739268</DistanceMeters>
          </Trackpoint>
          <Trackpoint>
            <Time>2021-09-26T08:10:17.000Z</Time>
            <Position>
              <LatitudeDegrees>40.44625307433307170867919921875</LatitudeDegrees>
              <LongitudeDegrees>-3.6918258480727672576904296875</LongitudeDegrees>
            </Position>
            <AltitudeMeters>693.4000244140625</AltitudeMeters>
            <DistanceMeters>9056.8720941423</DistanceMeters>
          </Trackpoint>
          <Trackpoint>
            <Time>2021-09-26T08:10:20.000Z</Time>
            <Position>
              <LatitudeDegrees>40.44624653644859790802001953125</LatitudeDegrees>
              <LongitudeDegrees>-3.69174295105040073394775390625</LongitudeDegrees>
            </Position>
            <AltitudeMeters>693.20001220703125</AltitudeMeters>
            <DistanceMeters>9063.9309865355</DistanceMeters>
          </Trackpoint>
          <Trackpoint>
            <Time>2021-09-26T08:10:28.000Z</Time>
            <Position>
              <LatitudeDegrees>40.44623647816479206085205078125</LatitudeDegrees>
              <LongitudeDegrees>-3.6914920806884765625</LongitudeDegrees>
            </Position>
            <AltitudeMeters>693.20001220703125</AltitudeMeters>
            <DistanceMeters>9085.2097574834</DistanceMeters>
          </Trackpoint>
          <Trackpoint>
            <Time>2021-09-26T08:10:30.000Z</Time>
            <Position>
              <LatitudeDegrees>40.44623128138482570648193359375</LatitudeDegrees>
              <LongitudeDegrees>-3.6914263665676116943359375</LongitudeDegrees>
            </Position>
            <AltitudeMeters>693.20001220703125</AltitudeMeters>
            <DistanceMeters>9090.8058547938</DistanceMeters>
          </Trackpoint>
          <Trackpoint>
            <Time>2021-09-26T08:10:38.000Z</Time>
            <Position>
              <LatitudeDegrees>40.446224324405193328857421875</LatitudeDegrees>
              <LongitudeDegrees>-3.69117281399667263031005859375</LongitudeDegrees>
            </Position>
            <AltitudeMeters>693</AltitudeMeters>
            <DistanceMeters>9112.2961835407</DistanceMeters>
          </Trackpoint>
          <Trackpoint>
            <Time>2021-09-26T08:10:39.000Z</Time>
            <Position>
              <LatitudeDegrees>40.446224324405193328857421875</LatitudeDegrees>
              <LongitudeDegrees>-3.69117281399667263031005859375</LongitudeDegrees>
            </Position>
            <AltitudeMeters>693</AltitudeMeters>
            <DistanceMeters>9112.2961835407</DistanceMeters>
          </Trackpoint>
          <Trackpoint>
            <Time>2021-09-26T08:10:45.000Z</Time>
            <Position>
              <LatitudeDegrees>40.44622004963457584381103515625</LatitudeDegrees>
              <LongitudeDegrees>-3.69092655368149280548095703125</LongitudeDegrees>
            </Position>
            <AltitudeMeters>694.5999755859375</AltitudeMeters>
            <DistanceMeters>9133.1605532942</DistanceMeters>
          </Trackpoint>
          <Trackpoint>
            <Time>2021-09-26T08:10:47.000Z</Time>
            <Position>
              <LatitudeDegrees>40.4462206363677978515625</LatitudeDegrees>
              <LongitudeDegrees>-3.6908545531332492828369140625</LongitudeDegrees>
            </Position>
            <AltitudeMeters>694.79998779296875</AltitudeMeters>
            <DistanceMeters>9139.2600544991</DistanceMeters>
          </Trackpoint>
          <Trackpoint>
            <Time>2021-09-26T08:10:54.000Z</Time>
            <Position>
              <LatitudeDegrees>40.446200855076313018798828125</LatitudeDegrees>
              <LongitudeDegrees>-3.69061273522675037384033203125</LongitudeDegrees>
            </Position>
            <AltitudeMeters>695.79998779296875</AltitudeMeters>
            <DistanceMeters>9159.860697757</DistanceMeters>
          </Trackpoint>
          <Trackpoint>
            <Time>2021-09-26T08:11:01.000Z</Time>
            <Position>
              <LatitudeDegrees>40.44618886895477771759033203125</LatitudeDegrees>
              <LongitudeDegrees>-3.69036982767283916473388671875</LongitudeDegrees>
            </Position>
            <AltitudeMeters>696.79998779296875</AltitudeMeters>
            <DistanceMeters>9180.4786481565</DistanceMeters>
          </Trackpoint>
          <Trackpoint>
            <Time>2021-09-26T08:11:04.000Z</Time>
            <Position>
              <LatitudeDegrees>40.446184091269969940185546875</LatitudeDegrees>
              <LongitudeDegrees>-3.690258599817752838134765625</LongitudeDegrees>
            </Position>
            <AltitudeMeters>697.4000244140625</AltitudeMeters>
            <DistanceMeters>9189.9145664338</DistanceMeters>
          </Trackpoint>
          <Trackpoint>
            <Time>2021-09-26T08:11:12.000Z</Time>
            <Position>
              <LatitudeDegrees>40.44615349732339382171630859375</LatitudeDegrees>
              <LongitudeDegrees>-3.6900155246257781982421875</LongitudeDegrees>
            </Position>
            <AltitudeMeters>698.20001220703125</AltitudeMeters>
            <DistanceMeters>9210.7832637276</DistanceMeters>
          </Trackpoint>
          <Trackpoint>
            <Time>2021-09-26T08:11:13.000Z</Time>
            <Position>
              <LatitudeDegrees>40.44614930637180805206298828125</LatitudeDegrees>
              <LongitudeDegrees>-3.6899848468601703643798828125</LongitudeDegrees>
            </Position>
            <AltitudeMeters>698.4000244140625</AltitudeMeters>
            <DistanceMeters>9213.4235703414</DistanceMeters>
          </Trackpoint>
          <Trackpoint>
            <Time>2021-09-26T08:11:21.000Z</Time>
            <Position>
              <LatitudeDegrees>40.44613438658416271209716796875</LatitudeDegrees>
              <LongitudeDegrees>-3.68973447941243648529052734375</LongitudeDegrees>
            </Position>
            <AltitudeMeters>698.5999755859375</AltitudeMeters>
            <DistanceMeters>9234.6951257724</DistanceMeters>
          </Trackpoint>
          <Trackpoint>
            <Time>2021-09-26T08:11:22.000Z</Time>
            <Position>
              <LatitudeDegrees>40.44613522477447986602783203125</LatitudeDegrees>
              <LongitudeDegrees>-3.68970329873263835906982421875</LongitudeDegrees>
            </Position>
            <AltitudeMeters>698.79998779296875</AltitudeMeters>
            <DistanceMeters>9237.3388502602</DistanceMeters>
          </Trackpoint>
          <Trackpoint>
            <Time>2021-09-26T08:11:30.000Z</Time>
            <Position>
              <LatitudeDegrees>40.4461205564439296722412109375</LatitudeDegrees>
              <LongitudeDegrees>-3.6894591338932514190673828125</LongitudeDegrees>
            </Position>
            <AltitudeMeters>698.20001220703125</AltitudeMeters>
            <DistanceMeters>9258.0845118162</DistanceMeters>
          </Trackpoint>
          <Trackpoint>
            <Time>2021-09-26T08:11:31.000Z</Time>
            <Position>
              <LatitudeDegrees>40.446119718253612518310546875</LatitudeDegrees>
              <LongitudeDegrees>-3.689427785575389862060546875</LongitudeDegrees>
            </Position>
            <AltitudeMeters>698</AltitudeMeters>
            <DistanceMeters>9260.7418638402</DistanceMeters>
          </Trackpoint>
          <Trackpoint>
            <Time>2021-09-26T08:11:39.000Z</Time>
            <Position>
              <LatitudeDegrees>40.44610085897147655487060546875</LatitudeDegrees>
              <LongitudeDegrees>-3.6891706287860870361328125</LongitudeDegrees>
            </Position>
            <AltitudeMeters>698.5999755859375</AltitudeMeters>
            <DistanceMeters>9282.6248470423</DistanceMeters>
          </Trackpoint>
          <Trackpoint>
            <Time>2021-09-26T08:11:41.000Z</Time>
            <Position>
              <LatitudeDegrees>40.446091555058956146240234375</LatitudeDegrees>
              <LongitudeDegrees>-3.6891091056168079376220703125</LongitudeDegrees>
            </Position>
            <AltitudeMeters>699</AltitudeMeters>
            <DistanceMeters>9287.9387014852</DistanceMeters>
          </Trackpoint>
          <Trackpoint>
            <Time>2021-09-26T08:11:49.000Z</Time>
            <Position>
              <LatitudeDegrees>40.44606976211071014404296875</LatitudeDegrees>
              <LongitudeDegrees>-3.68885991163551807403564453125</LongitudeDegrees>
            </Position>
            <AltitudeMeters>700.4000244140625</AltitudeMeters>
            <DistanceMeters>9309.185195818</DistanceMeters>
          </Trackpoint>
          <Trackpoint>
            <Time>2021-09-26T08:11:57.000Z</Time>
            <Position>
              <LatitudeDegrees>40.4460424371063709259033203125</LatitudeDegrees>
              <LongitudeDegrees>-3.6886127293109893798828125</LongitudeDegrees>
            </Position>
            <AltitudeMeters>700.79998779296875</AltitudeMeters>
            <DistanceMeters>9330.3418219472</DistanceMeters>
          </Trackpoint>
          <Trackpoint>
            <Time>2021-09-26T08:11:58.000Z</Time>
            <Position>
              <LatitudeDegrees>40.44604067690670490264892578125</LatitudeDegrees>
              <LongitudeDegrees>-3.6885807104408740997314453125</LongitudeDegrees>
            </Position>
            <AltitudeMeters>700.79998779296875</AltitudeMeters>
            <DistanceMeters>9333.0596524297</DistanceMeters>
          </Trackpoint>
          <Trackpoint>
            <Time>2021-09-26T08:12:06.000Z</Time>
            <Position>
              <LatitudeDegrees>40.44601150788366794586181640625</LatitudeDegrees>
              <LongitudeDegrees>-3.68833688087761402130126953125</LongitudeDegrees>
            </Position>
            <AltitudeMeters>701.5999755859375</AltitudeMeters>
            <DistanceMeters>9353.9661774905</DistanceMeters>
          </Trackpoint>
          <Trackpoint>
            <Time>2021-09-26T08:12:14.000Z</Time>
            <Position>
              <LatitudeDegrees>40.44600714929401874542236328125</LatitudeDegrees>
              <LongitudeDegrees>-3.6880828253924846649169921875</LongitudeDegrees>
            </Position>
            <AltitudeMeters>702.79998779296875</AltitudeMeters>
            <DistanceMeters>9375.4909344504</DistanceMeters>
          </Trackpoint>
          <Trackpoint>
            <Time>2021-09-26T08:12:15.000Z</Time>
            <Position>
              <LatitudeDegrees>40.446006394922733306884765625</LatitudeDegrees>
              <LongitudeDegrees>-3.6880521476268768310546875</LongitudeDegrees>
            </Position>
            <AltitudeMeters>703</AltitudeMeters>
            <DistanceMeters>9378.0916126805</DistanceMeters>
          </Trackpoint>
          <Trackpoint>
            <Time>2021-09-26T08:12:23.000Z</Time>
            <Position>
              <LatitudeDegrees>40.44597546570003032684326171875</LatitudeDegrees>
              <LongitudeDegrees>-3.68781720288097858428955078125</LongitudeDegrees>
            </Position>
            <AltitudeMeters>704</AltitudeMeters>
            <DistanceMeters>9398.2878636439</DistanceMeters>
          </Trackpoint>
          <Trackpoint>
            <Time>2021-09-26T08:12:30.000Z</Time>
            <Position>
              <LatitudeDegrees>40.44601703993976116180419921875</LatitudeDegrees>
              <LongitudeDegrees>-3.68759550154209136962890625</LongitudeDegrees>
            </Position>
            <AltitudeMeters>705</AltitudeMeters>
            <DistanceMeters>9417.6283097747</DistanceMeters>
          </Trackpoint>
          <Trackpoint>
            <Time>2021-09-26T08:12:38.000Z</Time>
            <Position>
              <LatitudeDegrees>40.4460119269788265228271484375</LatitudeDegrees>
              <LongitudeDegrees>-3.687347732484340667724609375</LongitudeDegrees>
            </Position>
            <AltitudeMeters>705.5999755859375</AltitudeMeters>
            <DistanceMeters>9438.622547823</DistanceMeters>
          </Trackpoint>
          <Trackpoint>
            <Time>2021-09-26T08:12:40.000Z</Time>
            <Position>
              <LatitudeDegrees>40.446007736027240753173828125</LatitudeDegrees>
              <LongitudeDegrees>-3.687291406095027923583984375</LongitudeDegrees>
            </Position>
            <AltitudeMeters>705.5999755859375</AltitudeMeters>
            <DistanceMeters>9443.4155129255</DistanceMeters>
          </Trackpoint>
          <Trackpoint>
            <Time>2021-09-26T08:12:47.000Z</Time>
            <Position>
              <LatitudeDegrees>40.4459810815751552581787109375</LatitudeDegrees>
              <LongitudeDegrees>-3.68709602393209934234619140625</LongitudeDegrees>
            </Position>
            <AltitudeMeters>705.79998779296875</AltitudeMeters>
            <DistanceMeters>9460.2285291035</DistanceMeters>
          </Trackpoint>
          <Trackpoint>
            <Time>2021-09-26T08:12:55.000Z</Time>
            <Position>
              <LatitudeDegrees>40.44593699276447296142578125</LatitudeDegrees>
              <LongitudeDegrees>-3.686860240995883941650390625</LongitudeDegrees>
            </Position>
            <AltitudeMeters>705.79998779296875</AltitudeMeters>
            <DistanceMeters>9480.7938557561</DistanceMeters>
          </Trackpoint>
          <Trackpoint>
            <Time>2021-09-26T08:13:03.000Z</Time>
            <Position>
              <LatitudeDegrees>40.445917546749114990234375</LatitudeDegrees>
              <LongitudeDegrees>-3.68661825545132160186767578125</LongitudeDegrees>
            </Position>
            <AltitudeMeters>706.20001220703125</AltitudeMeters>
            <DistanceMeters>9501.4045783575</DistanceMeters>
          </Trackpoint>
          <Trackpoint>
            <Time>2021-09-26T08:13:04.000Z</Time>
            <Position>
              <LatitudeDegrees>40.44591612182557582855224609375</LatitudeDegrees>
              <LongitudeDegrees>-3.68658757768571376800537109375</LongitudeDegrees>
            </Position>
            <AltitudeMeters>706.20001220703125</AltitudeMeters>
            <DistanceMeters>9504.0087264734</DistanceMeters>
          </Trackpoint>
          <Trackpoint>
            <Time>2021-09-26T08:13:10.000Z</Time>
            <Position>
              <LatitudeDegrees>40.4458543471992015838623046875</LatitudeDegrees>
              <LongitudeDegrees>-3.68643469177186489105224609375</LongitudeDegrees>
            </Position>
            <AltitudeMeters>706</AltitudeMeters>
            <DistanceMeters>9518.6705817388</DistanceMeters>
          </Trackpoint>
          <Trackpoint>
            <Time>2021-09-26T08:13:17.000Z</Time>
            <Position>
              <LatitudeDegrees>40.4457443766295909881591796875</LatitudeDegrees>
              <LongitudeDegrees>-3.6862384714186191558837890625</LongitudeDegrees>
            </Position>
            <AltitudeMeters>705.20001220703125</AltitudeMeters>
            <DistanceMeters>9539.3117315803</DistanceMeters>
          </Trackpoint>
          <Trackpoint>
            <Time>2021-09-26T08:13:18.000Z</Time>
            <Position>
              <LatitudeDegrees>40.44572778046131134033203125</LatitudeDegrees>
              <LongitudeDegrees>-3.6862163431942462921142578125</LongitudeDegrees>
            </Position>
            <AltitudeMeters>705</AltitudeMeters>
            <DistanceMeters>9541.9417579217</DistanceMeters>
          </Trackpoint>
          <Trackpoint>
            <Time>2021-09-26T08:13:25.000Z</Time>
            <Position>
              <LatitudeDegrees>40.44559123925864696502685546875</LatitudeDegrees>
              <LongitudeDegrees>-3.68606119416654109954833984375</LongitudeDegrees>
            </Position>
            <AltitudeMeters>704</AltitudeMeters>
            <DistanceMeters>9562.033111216</DistanceMeters>
          </Trackpoint>
          <Trackpoint>
            <Time>2021-09-26T08:13:27.000Z</Time>
            <Position>
              <LatitudeDegrees>40.445538349449634552001953125</LatitudeDegrees>
              <LongitudeDegrees>-3.68602045811712741851806640625</LongitudeDegrees>
            </Position>
            <AltitudeMeters>703.4000244140625</AltitudeMeters>
            <DistanceMeters>9568.8565322161</DistanceMeters>
          </Trackpoint>
          <Trackpoint>
            <Time>2021-09-26T08:13:34.000Z</Time>
            <Position>
              <LatitudeDegrees>40.44537565670907497406005859375</LatitudeDegrees>
              <LongitudeDegrees>-3.685905374586582183837890625</LongitudeDegrees>
            </Position>
            <AltitudeMeters>702.79998779296875</AltitudeMeters>
            <DistanceMeters>9589.4214197718</DistanceMeters>
          </Trackpoint>
          <Trackpoint>
            <Time>2021-09-26T08:13:42.000Z</Time>
            <Position>
              <LatitudeDegrees>40.4452018998563289642333984375</LatitudeDegrees>
              <LongitudeDegrees>-3.68578811176121234893798828125</LongitudeDegrees>
            </Position>
            <AltitudeMeters>702.20001220703125</AltitudeMeters>
            <DistanceMeters>9611.1624023021</DistanceMeters>
          </Trackpoint>
          <Trackpoint>
            <Time>2021-09-26T08:13:50.000Z</Time>
            <Position>
              <LatitudeDegrees>40.44503971002995967864990234375</LatitudeDegrees>
              <LongitudeDegrees>-3.68563623167574405670166015625</LongitudeDegrees>
            </Position>
            <AltitudeMeters>701.79998779296875</AltitudeMeters>
            <DistanceMeters>9633.3295094605</DistanceMeters>
          </Trackpoint>
          <Trackpoint>
            <Time>2021-09-26T08:13:51.000Z</Time>
            <Position>
              <LatitudeDegrees>40.4450245387852191925048828125</LatitudeDegrees>
              <LongitudeDegrees>-3.68561477400362491607666015625</LongitudeDegrees>
            </Position>
            <AltitudeMeters>701.79998779296875</AltitudeMeters>
            <DistanceMeters>9635.8111444327</DistanceMeters>
          </Trackpoint>
          <Trackpoint>
            <Time>2021-09-26T08:13:59.000Z</Time>
            <Position>
              <LatitudeDegrees>40.44490409083664417266845703125</LatitudeDegrees>
              <LongitudeDegrees>-3.68539743125438690185546875</LongitudeDegrees>
            </Position>
            <AltitudeMeters>701.79998779296875</AltitudeMeters>
            <DistanceMeters>9658.5846687643</DistanceMeters>
          </Trackpoint>
          <Trackpoint>
            <Time>2021-09-26T08:14:07.000Z</Time>
            <Position>
              <LatitudeDegrees>40.44477299787104129791259765625</LatitudeDegrees>
              <LongitudeDegrees>-3.68520271964371204376220703125</LongitudeDegrees>
            </Position>
            <AltitudeMeters>701.5999755859375</AltitudeMeters>
            <DistanceMeters>9680.6052517485</DistanceMeters>
          </Trackpoint>
          <Trackpoint>
            <Time>2021-09-26T08:14:09.000Z</Time>
            <Position>
              <LatitudeDegrees>40.44473997317254543304443359375</LatitudeDegrees>
              <LongitudeDegrees>-3.6851686052978038787841796875</LongitudeDegrees>
            </Position>
            <AltitudeMeters>701.5999755859375</AltitudeMeters>
            <DistanceMeters>9685.2818792884</DistanceMeters>
          </Trackpoint>
          <Trackpoint>
            <Time>2021-09-26T08:14:17.000Z</Time>
            <Position>
              <LatitudeDegrees>40.44460854493081569671630859375</LatitudeDegrees>
              <LongitudeDegrees>-3.685030974447727203369140625</LongitudeDegrees>
            </Position>
            <AltitudeMeters>702.5999755859375</AltitudeMeters>
            <DistanceMeters>9703.9869412209</DistanceMeters>
          </Trackpoint>
          <Trackpoint>
            <Time>2021-09-26T08:14:24.000Z</Time>
            <Position>
              <LatitudeDegrees>40.44445364736020565032958984375</LatitudeDegrees>
              <LongitudeDegrees>-3.68489258922636508941650390625</LongitudeDegrees>
            </Position>
            <AltitudeMeters>704.5999755859375</AltitudeMeters>
            <DistanceMeters>9724.8348581288</DistanceMeters>
          </Trackpoint>
          <Trackpoint>
            <Time>2021-09-26T08:14:25.000Z</Time>
            <Position>
              <LatitudeDegrees>40.4444331116974353790283203125</LatitudeDegrees>
              <LongitudeDegrees>-3.68487498722970485687255859375</LongitudeDegrees>
            </Position>
            <AltitudeMeters>704.79998779296875</AltitudeMeters>
            <DistanceMeters>9727.5626379935</DistanceMeters>
          </Trackpoint>
          <Trackpoint>
            <Time>2021-09-26T08:14:32.000Z</Time>
            <Position>
              <LatitudeDegrees>40.4442862607538700103759765625</LatitudeDegrees>
              <LongitudeDegrees>-3.6847310699522495269775390625</LongitudeDegrees>
            </Position>
            <AltitudeMeters>706.5999755859375</AltitudeMeters>
            <DistanceMeters>9747.9528998759</DistanceMeters>
          </Trackpoint>
          <Trackpoint>
            <Time>2021-09-26T08:14:34.000Z</Time>
            <Position>
              <LatitudeDegrees>40.444242842495441436767578125</LatitudeDegrees>
              <LongitudeDegrees>-3.6846868135035037994384765625</LongitudeDegrees>
            </Position>
            <AltitudeMeters>707</AltitudeMeters>
            <DistanceMeters>9754.0694026926</DistanceMeters>
          </Trackpoint>
          <Trackpoint>
            <Time>2021-09-26T08:14:43.000Z</Time>
            <Position>
              <LatitudeDegrees>40.44407998211681842803955078125</LatitudeDegrees>
              <LongitudeDegrees>-3.6845366097986698150634765625</LongitudeDegrees>
            </Position>
            <AltitudeMeters>708.4000244140625</AltitudeMeters>
            <DistanceMeters>9776.2153168039</DistanceMeters>
          </Trackpoint>
          <Trackpoint>
            <Time>2021-09-26T08:14:51.000Z</Time>
            <Position>
              <LatitudeDegrees>40.44394369237124919891357421875</LatitudeDegrees>
              <LongitudeDegrees>-3.68439939804375171661376953125</LongitudeDegrees>
            </Position>
            <AltitudeMeters>709.4000244140625</AltitudeMeters>
            <DistanceMeters>9795.3249031781</DistanceMeters>
          </Trackpoint>
          <Trackpoint>
            <Time>2021-09-26T08:14:54.000Z</Time>
            <Position>
              <LatitudeDegrees>40.44387730769813060760498046875</LatitudeDegrees>
              <LongitudeDegrees>-3.68433770723640918731689453125</LongitudeDegrees>
            </Position>
            <AltitudeMeters>710</AltitudeMeters>
            <DistanceMeters>9804.3749193851</DistanceMeters>
          </Trackpoint>
          <Trackpoint>
            <Time>2021-09-26T08:14:58.000Z</Time>
            <Position>
              <LatitudeDegrees>40.44380321167409420013427734375</LatitudeDegrees>
              <LongitudeDegrees>-3.6842284910380840301513671875</LongitudeDegrees>
            </Position>
            <AltitudeMeters>709.5999755859375</AltitudeMeters>
            <DistanceMeters>9816.7685306551</DistanceMeters>
          </Trackpoint>
          <Trackpoint>
            <Time>2021-09-26T08:15:06.000Z</Time>
            <Position>
              <LatitudeDegrees>40.4436643235385417938232421875</LatitudeDegrees>
              <LongitudeDegrees>-3.68406948633491992950439453125</LongitudeDegrees>
            </Position>
            <AltitudeMeters>708.4000244140625</AltitudeMeters>
            <DistanceMeters>9837.2716316083</DistanceMeters>
          </Trackpoint>
          <Trackpoint>
            <Time>2021-09-26T08:15:08.000Z</Time>
            <Position>
              <LatitudeDegrees>40.44362358748912811279296875</LatitudeDegrees>
              <LongitudeDegrees>-3.6840330250561237335205078125</LongitudeDegrees>
            </Position>
            <AltitudeMeters>708</AltitudeMeters>
            <DistanceMeters>9842.7577271951</DistanceMeters>
          </Trackpoint>
          <Trackpoint>
            <Time>2021-09-26T08:15:15.000Z</Time>
            <Position>
              <LatitudeDegrees>40.44349475763738155364990234375</LatitudeDegrees>
              <LongitudeDegrees>-3.683885000646114349365234375</LongitudeDegrees>
            </Position>
            <AltitudeMeters>706.79998779296875</AltitudeMeters>
            <DistanceMeters>9861.8057840912</DistanceMeters>
          </Trackpoint>
          <Trackpoint>
            <Time>2021-09-26T08:15:23.000Z</Time>
            <Position>
              <LatitudeDegrees>40.44335025362670421600341796875</LatitudeDegrees>
              <LongitudeDegrees>-3.6837245710194110870361328125</LongitudeDegrees>
            </Position>
            <AltitudeMeters>706.20001220703125</AltitudeMeters>
            <DistanceMeters>9882.8618685621</DistanceMeters>
          </Trackpoint>
          <Trackpoint>
            <Time>2021-09-26T08:15:24.000Z</Time>
            <Position>
              <LatitudeDegrees>40.4433354176580905914306640625</LatitudeDegrees>
              <LongitudeDegrees>-3.68370252661406993865966796875</LongitudeDegrees>
            </Position>
            <AltitudeMeters>706.20001220703125</AltitudeMeters>
            <DistanceMeters>9885.3543959127</DistanceMeters>
          </Trackpoint>
          <Trackpoint>
            <Time>2021-09-26T08:15:31.000Z</Time>
            <Position>
              <LatitudeDegrees>40.44322435744106769561767578125</LatitudeDegrees>
              <LongitudeDegrees>-3.68356187827885150909423828125</LongitudeDegrees>
            </Position>
            <AltitudeMeters>705.79998779296875</AltitudeMeters>
            <DistanceMeters>9902.5221757649</DistanceMeters>
          </Trackpoint>
          <Trackpoint>
            <Time>2021-09-26T08:15:39.000Z</Time>
            <Position>
              <LatitudeDegrees>40.44309561140835285186767578125</LatitudeDegrees>
              <LongitudeDegrees>-3.68339382112026214599609375</LongitudeDegrees>
            </Position>
            <AltitudeMeters>705.79998779296875</AltitudeMeters>
            <DistanceMeters>9922.7211092489</DistanceMeters>
          </Trackpoint>
          <Trackpoint>
            <Time>2021-09-26T08:15:40.000Z</Time>
            <Position>
              <LatitudeDegrees>40.44308119453489780426025390625</LatitudeDegrees>
              <LongitudeDegrees>-3.68336741812527179718017578125</LongitudeDegrees>
            </Position>
            <AltitudeMeters>705.79998779296875</AltitudeMeters>
            <DistanceMeters>9925.4719643996</DistanceMeters>
          </Trackpoint>
          <Trackpoint>
            <Time>2021-09-26T08:15:46.000Z</Time>
            <Position>
              <LatitudeDegrees>40.44298513792455196380615234375</LatitudeDegrees>
              <LongitudeDegrees>-3.6832375824451446533203125</LongitudeDegrees>
            </Position>
            <AltitudeMeters>706</AltitudeMeters>
            <DistanceMeters>9940.8098766277</DistanceMeters>
          </Trackpoint>
          <Trackpoint>
            <Time>2021-09-26T08:15:51.000Z</Time>
            <Position>
              <LatitudeDegrees>40.44290207326412200927734375</LatitudeDegrees>
              <LongitudeDegrees>-3.6831492371857166290283203125</LongitudeDegrees>
            </Position>
            <AltitudeMeters>706</AltitudeMeters>
            <DistanceMeters>9952.7045492892</DistanceMeters>
          </Trackpoint>
          <Trackpoint>
            <Time>2021-09-26T08:15:57.000Z</Time>
            <Position>
              <LatitudeDegrees>40.44276251457631587982177734375</LatitudeDegrees>
              <LongitudeDegrees>-3.6830258555710315704345703125</LongitudeDegrees>
            </Position>
            <AltitudeMeters>705.79998779296875</AltitudeMeters>
            <DistanceMeters>9971.4260179041</DistanceMeters>
          </Trackpoint>
          <Trackpoint>
            <Time>2021-09-26T08:16:03.000Z</Time>
            <Position>
              <LatitudeDegrees>40.4426283203065395355224609375</LatitudeDegrees>
              <LongitudeDegrees>-3.68290624581277370452880859375</LongitudeDegrees>
            </Position>
            <AltitudeMeters>705.5999755859375</AltitudeMeters>
            <DistanceMeters>9989.4743404733</DistanceMeters>
          </Trackpoint>
          <Trackpoint>
            <Time>2021-09-26T08:16:10.000Z</Time>
            <Position>
              <LatitudeDegrees>40.442481972277164459228515625</LatitudeDegrees>
              <LongitudeDegrees>-3.68276492692530155181884765625</LongitudeDegrees>
            </Position>
            <AltitudeMeters>705.79998779296875</AltitudeMeters>
            <DistanceMeters>10009.689138254</DistanceMeters>
          </Trackpoint>
          <Trackpoint>
            <Time>2021-09-26T08:16:11.000Z</Time>
            <Position>
              <LatitudeDegrees>40.44246277771890163421630859375</LatitudeDegrees>
              <LongitudeDegrees>-3.6827459000051021575927734375</LongitudeDegrees>
            </Position>
            <AltitudeMeters>705.79998779296875</AltitudeMeters>
            <DistanceMeters>10012.365114827</DistanceMeters>
          </Trackpoint>
          <Trackpoint>
            <Time>2021-09-26T08:16:19.000Z</Time>
            <Position>
              <LatitudeDegrees>40.44228441081941127777099609375</LatitudeDegrees>
              <LongitudeDegrees>-3.6826536990702152252197265625</LongitudeDegrees>
            </Position>
            <AltitudeMeters>705.4000244140625</AltitudeMeters>
            <DistanceMeters>10033.698559293</DistanceMeters>
          </Trackpoint>
          <Trackpoint>
            <Time>2021-09-26T08:16:20.000Z</Time>
            <Position>
              <LatitudeDegrees>40.4422685690224170684814453125</LatitudeDegrees>
              <LongitudeDegrees>-3.68264707736670970916748046875</LongitudeDegrees>
            </Position>
            <AltitudeMeters>705.4000244140625</AltitudeMeters>
            <DistanceMeters>10035.550970977</DistanceMeters>
          </Trackpoint>
          <Trackpoint>
            <Time>2021-09-26T08:16:27.000Z</Time>
            <Position>
              <LatitudeDegrees>40.44209414161741733551025390625</LatitudeDegrees>
              <LongitudeDegrees>-3.6826319061219692230224609375</LongitudeDegrees>
            </Position>
            <AltitudeMeters>704.5999755859375</AltitudeMeters>
            <DistanceMeters>10055.007560213</DistanceMeters>
          </Trackpoint>
          <Trackpoint>
            <Time>2021-09-26T08:16:33.000Z</Time>
            <Position>
              <LatitudeDegrees>40.44192415662109851837158203125</LatitudeDegrees>
              <LongitudeDegrees>-3.68268010206520557403564453125</LongitudeDegrees>
            </Position>
            <AltitudeMeters>703.5999755859375</AltitudeMeters>
            <DistanceMeters>10074.362474867</DistanceMeters>
          </Trackpoint>
          <Trackpoint>
            <Time>2021-09-26T08:16:40.000Z</Time>
            <Position>
              <LatitudeDegrees>40.441765822470188140869140625</LatitudeDegrees>
              <LongitudeDegrees>-3.68271765299141407012939453125</LongitudeDegrees>
            </Position>
            <AltitudeMeters>702.5999755859375</AltitudeMeters>
            <DistanceMeters>10092.269905579</DistanceMeters>
          </Trackpoint>
          <Trackpoint>
            <Time>2021-09-26T08:16:47.000Z</Time>
            <Position>
              <LatitudeDegrees>40.4415710270404815673828125</LatitudeDegrees>
              <LongitudeDegrees>-3.68274581618607044219970703125</LongitudeDegrees>
            </Position>
            <AltitudeMeters>701.4000244140625</AltitudeMeters>
            <DistanceMeters>10114.081797004</DistanceMeters>
          </Trackpoint>
          <Trackpoint>
            <Time>2021-09-26T08:16:49.000Z</Time>
            <Position>
              <LatitudeDegrees>40.44151327572762966156005859375</LatitudeDegrees>
              <LongitudeDegrees>-3.682747073471546173095703125</LongitudeDegrees>
            </Position>
            <AltitudeMeters>701</AltitudeMeters>
            <DistanceMeters>10120.509987247</DistanceMeters>
          </Trackpoint>
          <Trackpoint>
            <Time>2021-09-26T08:16:57.000Z</Time>
            <Position>
              <LatitudeDegrees>40.44133004732429981231689453125</LatitudeDegrees>
              <LongitudeDegrees>-3.68274229578673839569091796875</LongitudeDegrees>
            </Position>
            <AltitudeMeters>700</AltitudeMeters>
            <DistanceMeters>10140.907776398</DistanceMeters>
          </Trackpoint>
          <Trackpoint>
            <Time>2021-09-26T08:17:04.000Z</Time>
            <Position>
              <LatitudeDegrees>40.44117380864918231964111328125</LatitudeDegrees>
              <LongitudeDegrees>-3.6827469058334827423095703125</LongitudeDegrees>
            </Position>
            <AltitudeMeters>698.5999755859375</AltitudeMeters>
            <DistanceMeters>10158.302078377</DistanceMeters>
          </Trackpoint>
          <Trackpoint>
            <Time>2021-09-26T08:17:12.000Z</Time>
            <Position>
              <LatitudeDegrees>40.440977923572063446044921875</LatitudeDegrees>
              <LongitudeDegrees>-3.682757802307605743408203125</LongitudeDegrees>
            </Position>
            <AltitudeMeters>696.79998779296875</AltitudeMeters>
            <DistanceMeters>10180.123903488</DistanceMeters>
          </Trackpoint>
          <Trackpoint>
            <Time>2021-09-26T08:17:14.000Z</Time>
            <Position>
              <LatitudeDegrees>40.440926961600780487060546875</LatitudeDegrees>
              <LongitudeDegrees>-3.6827616579830646514892578125</LongitudeDegrees>
            </Position>
            <AltitudeMeters>696.4000244140625</AltitudeMeters>
            <DistanceMeters>10185.805674628</DistanceMeters>
          </Trackpoint>
          <Trackpoint>
            <Time>2021-09-26T08:17:20.000Z</Time>
            <Position>
              <LatitudeDegrees>40.44074264355003833770751953125</LatitudeDegrees>
              <LongitudeDegrees>-3.6827958561480045318603515625</LongitudeDegrees>
            </Position>
            <AltitudeMeters>694.5999755859375</AltitudeMeters>
            <DistanceMeters>10206.52411361</DistanceMeters>
          </Trackpoint>
          <Trackpoint>
            <Time>2021-09-26T08:17:22.000Z</Time>
            <Position>
              <LatitudeDegrees>40.44069017283618450164794921875</LatitudeDegrees>
              <LongitudeDegrees>-3.68280700407922267913818359375</LongitudeDegrees>
            </Position>
            <AltitudeMeters>694.20001220703125</AltitudeMeters>
            <DistanceMeters>10212.439478875</DistanceMeters>
          </Trackpoint>
          <Trackpoint>
            <Time>2021-09-26T08:17:29.000Z</Time>
            <Position>
              <LatitudeDegrees>40.44049504213035106658935546875</LatitudeDegrees>
              <LongitudeDegrees>-3.68283533491194248199462890625</LongitudeDegrees>
            </Position>
            <AltitudeMeters>692.4000244140625</AltitudeMeters>
            <DistanceMeters>10234.290251445</DistanceMeters>
          </Trackpoint>
          <Trackpoint>
            <Time>2021-09-26T08:17:31.000Z</Time>
            <Position>
              <LatitudeDegrees>40.4404315911233425140380859375</LatitudeDegrees>
              <LongitudeDegrees>-3.6828421242535114288330078125</LongitudeDegrees>
            </Position>
            <AltitudeMeters>692</AltitudeMeters>
            <DistanceMeters>10241.375957128</DistanceMeters>
          </Trackpoint>
          <Trackpoint>
            <Time>2021-09-26T08:17:39.000Z</Time>
            <Position>
              <LatitudeDegrees>40.44023822061717510223388671875</LatitudeDegrees>
              <LongitudeDegrees>-3.68286953307688236236572265625</LongitudeDegrees>
            </Position>
            <AltitudeMeters>691.79998779296875</AltitudeMeters>
            <DistanceMeters>10263.023284607</DistanceMeters>
          </Trackpoint>
          <Trackpoint>
            <Time>2021-09-26T08:17:40.000Z</Time>
            <Position>
              <LatitudeDegrees>40.4402160085737705230712890625</LatitudeDegrees>
              <LongitudeDegrees>-3.68286567740142345428466796875</LongitudeDegrees>
            </Position>
            <AltitudeMeters>691.79998779296875</AltitudeMeters>
            <DistanceMeters>10265.515811957</DistanceMeters>
          </Trackpoint>
          <Trackpoint>
            <Time>2021-09-26T08:17:45.000Z</Time>
            <Position>
              <LatitudeDegrees>40.44010327197611331939697265625</LatitudeDegrees>
              <LongitudeDegrees>-3.68285578675568103790283203125</LongitudeDegrees>
            </Position>
            <AltitudeMeters>692.20001220703125</AltitudeMeters>
            <DistanceMeters>10278.091332971</DistanceMeters>
          </Trackpoint>
          <Trackpoint>
            <Time>2021-09-26T08:17:53.000Z</Time>
            <Position>
              <LatitudeDegrees>40.43992406688630580902099609375</LatitudeDegrees>
              <LongitudeDegrees>-3.682859055697917938232421875</LongitudeDegrees>
            </Position>
            <AltitudeMeters>692.5999755859375</AltitudeMeters>
            <DistanceMeters>10298.039248867</DistanceMeters>
          </Trackpoint>
          <Trackpoint>
            <Time>2021-09-26T08:18:00.000Z</Time>
            <Position>
              <LatitudeDegrees>40.43976346962153911590576171875</LatitudeDegrees>
              <LongitudeDegrees>-3.6828310601413249969482421875</LongitudeDegrees>
            </Position>
            <AltitudeMeters>693</AltitudeMeters>
            <DistanceMeters>10316.070802667</DistanceMeters>
          </Trackpoint>
          <Trackpoint>
            <Time>2021-09-26T08:18:07.000Z</Time>
            <Position>
              <LatitudeDegrees>40.43958761729300022125244140625</LatitudeDegrees>
              <LongitudeDegrees>-3.68289568461477756500244140625</LongitudeDegrees>
            </Position>
            <AltitudeMeters>692.4000244140625</AltitudeMeters>
            <DistanceMeters>10336.394970961</DistanceMeters>
          </Trackpoint>
          <Trackpoint>
            <Time>2021-09-26T08:18:14.000Z</Time>
            <Position>
              <LatitudeDegrees>40.43941377662122249603271484375</LatitudeDegrees>
              <LongitudeDegrees>-3.68293943814933300018310546875</LongitudeDegrees>
            </Position>
            <AltitudeMeters>690.79998779296875</AltitudeMeters>
            <DistanceMeters>10356.095546728</DistanceMeters>
          </Trackpoint>
          <Trackpoint>
            <Time>2021-09-26T08:18:20.000Z</Time>
            <Position>
              <LatitudeDegrees>40.43922903947532176971435546875</LatitudeDegrees>
              <LongitudeDegrees>-3.6829742230474948883056640625</LongitudeDegrees>
            </Position>
            <AltitudeMeters>688.79998779296875</AltitudeMeters>
            <DistanceMeters>10376.867091025</DistanceMeters>
          </Trackpoint>
          <Trackpoint>
            <Time>2021-09-26T08:18:22.000Z</Time>
            <Position>
              <LatitudeDegrees>40.4391726292669773101806640625</LatitudeDegrees>
              <LongitudeDegrees>-3.68297246284782886505126953125</LongitudeDegrees>
            </Position>
            <AltitudeMeters>688.4000244140625</AltitudeMeters>
            <DistanceMeters>10383.146768074</DistanceMeters>
          </Trackpoint>
          <Trackpoint>
            <Time>2021-09-26T08:18:29.000Z</Time>
            <Position>
              <LatitudeDegrees>40.438987053930759429931640625</LatitudeDegrees>
              <LongitudeDegrees>-3.68298972956836223602294921875</LongitudeDegrees>
            </Position>
            <AltitudeMeters>686.5999755859375</AltitudeMeters>
            <DistanceMeters>10403.853435833</DistanceMeters>
          </Trackpoint>
          <Trackpoint>
            <Time>2021-09-26T08:18:30.000Z</Time>
            <Position>
              <LatitudeDegrees>40.4389603994786739349365234375</LatitudeDegrees>
              <LongitudeDegrees>-3.6829926632344722747802734375</LongitudeDegrees>
            </Position>
            <AltitudeMeters>686.20001220703125</AltitudeMeters>
            <DistanceMeters>10406.831276505</DistanceMeters>
          </Trackpoint>
          <Trackpoint>
            <Time>2021-09-26T08:18:37.000Z</Time>
            <Position>
              <LatitudeDegrees>40.438791923224925994873046875</LatitudeDegrees>
              <LongitudeDegrees>-3.68299660272896289825439453125</LongitudeDegrees>
            </Position>
            <AltitudeMeters>684.79998779296875</AltitudeMeters>
            <DistanceMeters>10425.585996915</DistanceMeters>
          </Trackpoint>
          <Trackpoint>
            <Time>2021-09-26T08:18:44.000Z</Time>
            <Position>
              <LatitudeDegrees>40.4385956190526485443115234375</LatitudeDegrees>
              <LongitudeDegrees>-3.683043457567691802978515625</LongitudeDegrees>
            </Position>
            <AltitudeMeters>684</AltitudeMeters>
            <DistanceMeters>10447.792786523</DistanceMeters>
          </Trackpoint>
          <Trackpoint>
            <Time>2021-09-26T08:18:51.000Z</Time>
            <Position>
              <LatitudeDegrees>40.438447929918766021728515625</LatitudeDegrees>
              <LongitudeDegrees>-3.68303532712161540985107421875</LongitudeDegrees>
            </Position>
            <AltitudeMeters>683.4000244140625</AltitudeMeters>
            <DistanceMeters>10464.245311298</DistanceMeters>
          </Trackpoint>
          <Trackpoint>
            <Time>2021-09-26T08:18:58.000Z</Time>
            <Position>
              <LatitudeDegrees>40.43828356079757213592529296875</LatitudeDegrees>
              <LongitudeDegrees>-3.68303214199841022491455078125</LongitudeDegrees>
            </Position>
            <AltitudeMeters>683</AltitudeMeters>
            <DistanceMeters>10482.541840858</DistanceMeters>
          </Trackpoint>
          <Trackpoint>
            <Time>2021-09-26T08:19:07.000Z</Time>
            <Position>
              <LatitudeDegrees>40.438099242746829986572265625</LatitudeDegrees>
              <LongitudeDegrees>-3.68305963464081287384033203125</LongitudeDegrees>
            </Position>
            <AltitudeMeters>682.5999755859375</AltitudeMeters>
            <DistanceMeters>10503.188677147</DistanceMeters>
          </Trackpoint>
          <Trackpoint>
            <Time>2021-09-26T08:19:14.000Z</Time>
            <Position>
              <LatitudeDegrees>40.43795230798423290252685546875</LatitudeDegrees>
              <LongitudeDegrees>-3.6830255202949047088623046875</LongitudeDegrees>
            </Position>
            <AltitudeMeters>683</AltitudeMeters>
            <DistanceMeters>10519.796345705</DistanceMeters>
          </Trackpoint>
          <Trackpoint>
            <Time>2021-09-26T08:19:21.000Z</Time>
            <Position>
              <LatitudeDegrees>40.43776136822998523712158203125</LatitudeDegrees>
              <LongitudeDegrees>-3.683052845299243927001953125</LongitudeDegrees>
            </Position>
            <AltitudeMeters>686.4000244140625</AltitudeMeters>
            <DistanceMeters>10541.173766238</DistanceMeters>
          </Trackpoint>
          <Trackpoint>
            <Time>2021-09-26T08:19:30.000Z</Time>
            <Position>
              <LatitudeDegrees>40.4375579394400119781494140625</LatitudeDegrees>
              <LongitudeDegrees>-3.6830794997513294219970703125</LongitudeDegrees>
            </Position>
            <AltitudeMeters>690</AltitudeMeters>
            <DistanceMeters>10563.928051397</DistanceMeters>
          </Trackpoint>
          <Trackpoint>
            <Time>2021-09-26T08:19:37.000Z</Time>
            <Position>
              <LatitudeDegrees>40.4374047182500362396240234375</LatitudeDegrees>
              <LongitudeDegrees>-3.68312384001910686492919921875</LongitudeDegrees>
            </Position>
            <AltitudeMeters>692.79998779296875</AltitudeMeters>
            <DistanceMeters>10581.39074539</DistanceMeters>
          </Trackpoint>
          <Trackpoint>
            <Time>2021-09-26T08:19:42.000Z</Time>
            <Position>
              <LatitudeDegrees>40.43727538548409938812255859375</LatitudeDegrees>
              <LongitudeDegrees>-3.68312149308621883392333984375</LongitudeDegrees>
            </Position>
            <AltitudeMeters>695.5999755859375</AltitudeMeters>
            <DistanceMeters>10595.787214212</DistanceMeters>
          </Trackpoint>
          <Trackpoint>
            <Time>2021-09-26T08:19:46.000Z</Time>
            <Position>
              <LatitudeDegrees>40.43718033470213413238525390625</LatitudeDegrees>
              <LongitudeDegrees>-3.6831281147897243499755859375</LongitudeDegrees>
            </Position>
            <AltitudeMeters>697.4000244140625</AltitudeMeters>
            <DistanceMeters>10606.381734031</DistanceMeters>
          </Trackpoint>
          <Trackpoint>
            <Time>2021-09-26T08:19:48.000Z</Time>
            <Position>
              <LatitudeDegrees>40.43713800609111785888671875</LatitudeDegrees>
              <LongitudeDegrees>-3.683116547763347625732421875</LongitudeDegrees>
            </Position>
            <AltitudeMeters>698.20001220703125</AltitudeMeters>
            <DistanceMeters>10611.19537882</DistanceMeters>
          </Trackpoint>
          <Trackpoint>
            <Time>2021-09-26T08:19:52.000Z</Time>
            <Position>
              <LatitudeDegrees>40.4370697773993015289306640625</LatitudeDegrees>
              <LongitudeDegrees>-3.68306902237236499786376953125</LongitudeDegrees>
            </Position>
            <AltitudeMeters>699.20001220703125</AltitudeMeters>
            <DistanceMeters>10619.790964051</DistanceMeters>
          </Trackpoint>
          <Trackpoint>
            <Time>2021-09-26T08:19:54.000Z</Time>
            <Position>
              <LatitudeDegrees>40.4370419494807720184326171875</LatitudeDegrees>
              <LongitudeDegrees>-3.68304605595767498016357421875</LongitudeDegrees>
            </Position>
            <AltitudeMeters>699.5999755859375</AltitudeMeters>
            <DistanceMeters>10623.449184013</DistanceMeters>
          </Trackpoint>
          <Trackpoint>
            <Time>2021-09-26T08:19:56.000Z</Time>
            <Position>
              <LatitudeDegrees>40.43701060116291046142578125</LatitudeDegrees>
              <LongitudeDegrees>-3.68302023969590663909912109375</LongitudeDegrees>
            </Position>
            <AltitudeMeters>700</AltitudeMeters>
            <DistanceMeters>10627.567251954</DistanceMeters>
          </Trackpoint>
          <Trackpoint>
            <Time>2021-09-26T08:19:59.000Z</Time>
            <Position>
              <LatitudeDegrees>40.43692988343536853790283203125</LatitudeDegrees>
              <LongitudeDegrees>-3.68303331546485424041748046875</LongitudeDegrees>
            </Position>
            <AltitudeMeters>700.79998779296875</AltitudeMeters>
            <DistanceMeters>10636.619263534</DistanceMeters>
          </Trackpoint>
          <Trackpoint>
            <Time>2021-09-26T08:20:00.000Z</Time>
            <Position>
              <LatitudeDegrees>40.43690037913620471954345703125</LatitudeDegrees>
              <LongitudeDegrees>-3.68302769958972930908203125</LongitudeDegrees>
            </Position>
            <AltitudeMeters>701</AltitudeMeters>
            <DistanceMeters>10639.935682252</DistanceMeters>
          </Trackpoint>
          <Trackpoint>
            <Time>2021-09-26T08:20:02.000Z</Time>
            <Position>
              <LatitudeDegrees>40.43686048127710819244384765625</LatitudeDegrees>
              <LongitudeDegrees>-3.68300967849791049957275390625</LongitudeDegrees>
            </Position>
            <AltitudeMeters>701.5999755859375</AltitudeMeters>
            <DistanceMeters>10644.632540431</DistanceMeters>
          </Trackpoint>
          <Trackpoint>
            <Time>2021-09-26T08:20:04.000Z</Time>
            <Position>
              <LatitudeDegrees>40.43682863004505634307861328125</LatitudeDegrees>
              <LongitudeDegrees>-3.6830043978989124298095703125</LongitudeDegrees>
            </Position>
            <AltitudeMeters>701.79998779296875</AltitudeMeters>
            <DistanceMeters>10648.205848155</DistanceMeters>
          </Trackpoint>
          <Trackpoint>
            <Time>2021-09-26T08:20:08.000Z</Time>
            <Position>
              <LatitudeDegrees>40.436733998358249664306640625</LatitudeDegrees>
              <LongitudeDegrees>-3.6830256879329681396484375</LongitudeDegrees>
            </Position>
            <AltitudeMeters>702.20001220703125</AltitudeMeters>
            <DistanceMeters>10658.891178592</DistanceMeters>
          </Trackpoint>
          <Trackpoint>
            <Time>2021-09-26T08:20:12.000Z</Time>
            <Position>
              <LatitudeDegrees>40.4366510175168514251708984375</LatitudeDegrees>
              <LongitudeDegrees>-3.6830203235149383544921875</LongitudeDegrees>
            </Position>
            <AltitudeMeters>702.5999755859375</AltitudeMeters>
            <DistanceMeters>10668.1376246</DistanceMeters>
          </Trackpoint>
          <Trackpoint>
            <Time>2021-09-26T08:20:13.000Z</Time>
            <Position>
              <LatitudeDegrees>40.43662947602570056915283203125</LatitudeDegrees>
              <LongitudeDegrees>-3.6830176413059234619140625</LongitudeDegrees>
            </Position>
            <AltitudeMeters>702.79998779296875</AltitudeMeters>
            <DistanceMeters>10670.545384778</DistanceMeters>
          </Trackpoint>
          <Trackpoint>
            <Time>2021-09-26T08:20:20.000Z</Time>
            <Position>
              <LatitudeDegrees>40.43645932339131832122802734375</LatitudeDegrees>
              <LongitudeDegrees>-3.6830717884004116058349609375</LongitudeDegrees>
            </Position>
            <AltitudeMeters>703.4000244140625</AltitudeMeters>
            <DistanceMeters>10690.031191262</DistanceMeters>
          </Trackpoint>
          <Trackpoint>
            <Time>2021-09-26T08:20:25.000Z</Time>
            <Position>
              <LatitudeDegrees>40.43632621876895427703857421875</LatitudeDegrees>
              <LongitudeDegrees>-3.6831495724618434906005859375</LongitudeDegrees>
            </Position>
            <AltitudeMeters>703.79998779296875</AltitudeMeters>
            <DistanceMeters>10706.245154858</DistanceMeters>
          </Trackpoint>
          <Trackpoint>
            <Time>2021-09-26T08:20:32.000Z</Time>
            <Position>
              <LatitudeDegrees>40.43615640141069889068603515625</LatitudeDegrees>
              <LongitudeDegrees>-3.6831844411790370941162109375</LongitudeDegrees>
            </Position>
            <AltitudeMeters>703.79998779296875</AltitudeMeters>
            <DistanceMeters>10725.375521769</DistanceMeters>
          </Trackpoint>
          <Trackpoint>
            <Time>2021-09-26T08:20:38.000Z</Time>
            <Position>
              <LatitudeDegrees>40.43602614663541316986083984375</LatitudeDegrees>
              <LongitudeDegrees>-3.68320900015532970428466796875</LongitudeDegrees>
            </Position>
            <AltitudeMeters>703.79998779296875</AltitudeMeters>
            <DistanceMeters>10740.021355164</DistanceMeters>
          </Trackpoint>
          <Trackpoint>
            <Time>2021-09-26T08:20:41.000Z</Time>
            <Position>
              <LatitudeDegrees>40.4359469376504421234130859375</LatitudeDegrees>
              <LongitudeDegrees>-3.6832053959369659423828125</LongitudeDegrees>
            </Position>
            <AltitudeMeters>703.79998779296875</AltitudeMeters>
            <DistanceMeters>10748.842475769</DistanceMeters>
          </Trackpoint>
          <Trackpoint>
            <Time>2021-09-26T08:20:44.000Z</Time>
            <Position>
              <LatitudeDegrees>40.4358862526714801788330078125</LatitudeDegrees>
              <LongitudeDegrees>-3.68318653665482997894287109375</LongitudeDegrees>
            </Position>
            <AltitudeMeters>703.79998779296875</AltitudeMeters>
            <DistanceMeters>10755.783980498</DistanceMeters>
          </Trackpoint>
          <Trackpoint>
            <Time>2021-09-26T08:20:51.000Z</Time>
            <Position>
              <LatitudeDegrees>40.4357440955936908721923828125</LatitudeDegrees>
              <LongitudeDegrees>-3.68315166793763637542724609375</LongitudeDegrees>
            </Position>
            <AltitudeMeters>703.79998779296875</AltitudeMeters>
            <DistanceMeters>10771.879721959</DistanceMeters>
          </Trackpoint>
          <Trackpoint>
            <Time>2021-09-26T08:20:53.000Z</Time>
            <Position>
              <LatitudeDegrees>40.4356981627643108367919921875</LatitudeDegrees>
              <LongitudeDegrees>-3.68315300904214382171630859375</LongitudeDegrees>
            </Position>
            <AltitudeMeters>703.79998779296875</AltitudeMeters>
            <DistanceMeters>10776.993536717</DistanceMeters>
          </Trackpoint>
          <Trackpoint>
            <Time>2021-09-26T08:20:56.000Z</Time>
            <Position>
              <LatitudeDegrees>40.43562247417867183685302734375</LatitudeDegrees>
              <LongitudeDegrees>-3.68317731656134128570556640625</LongitudeDegrees>
            </Position>
            <AltitudeMeters>703.5999755859375</AltitudeMeters>
            <DistanceMeters>10785.666514105</DistanceMeters>
          </Trackpoint>
          <Trackpoint>
            <Time>2021-09-26T08:21:03.000Z</Time>
            <Position>
              <LatitudeDegrees>40.435427762567996978759765625</LatitudeDegrees>
              <LongitudeDegrees>-3.68323448114097118377685546875</LongitudeDegrees>
            </Position>
            <AltitudeMeters>703.5999755859375</AltitudeMeters>
            <DistanceMeters>10807.872693751</DistanceMeters>
          </Trackpoint>
          <Trackpoint>
            <Time>2021-09-26T08:21:05.000Z</Time>
            <Position>
              <LatitudeDegrees>40.4353751242160797119140625</LatitudeDegrees>
              <LongitudeDegrees>-3.6832595430314540863037109375</LongitudeDegrees>
            </Position>
            <AltitudeMeters>703.79998779296875</AltitudeMeters>
            <DistanceMeters>10814.104012127</DistanceMeters>
          </Trackpoint>
          <Trackpoint>
            <Time>2021-09-26T08:21:11.000Z</Time>
            <Position>
              <LatitudeDegrees>40.435215532779693603515625</LatitudeDegrees>
              <LongitudeDegrees>-3.68331461213529109954833984375</LongitudeDegrees>
            </Position>
            <AltitudeMeters>704.20001220703125</AltitudeMeters>
            <DistanceMeters>10832.46926152</DistanceMeters>
          </Trackpoint>
          <Trackpoint>
            <Time>2021-09-26T08:21:17.000Z</Time>
            <Position>
              <LatitudeDegrees>40.43506323359906673431396484375</LatitudeDegrees>
              <LongitudeDegrees>-3.6832816712558269500732421875</LongitudeDegrees>
            </Position>
            <AltitudeMeters>704.79998779296875</AltitudeMeters>
            <DistanceMeters>10849.648872066</DistanceMeters>
          </Trackpoint>
          <Trackpoint>
            <Time>2021-09-26T08:21:23.000Z</Time>
            <Position>
              <LatitudeDegrees>40.43495292775332927703857421875</LatitudeDegrees>
              <LongitudeDegrees>-3.68320816196501255035400390625</LongitudeDegrees>
            </Position>
            <AltitudeMeters>705.20001220703125</AltitudeMeters>
            <DistanceMeters>10863.415288242</DistanceMeters>
          </Trackpoint>
          <Trackpoint>
            <Time>2021-09-26T08:21:28.000Z</Time>
            <Position>
              <LatitudeDegrees>40.43490297161042690277099609375</LatitudeDegrees>
              <LongitudeDegrees>-3.68308327160775661468505859375</LongitudeDegrees>
            </Position>
            <AltitudeMeters>705.4000244140625</AltitudeMeters>
            <DistanceMeters>10875.36751855</DistanceMeters>
          </Trackpoint>
          <Trackpoint>
            <Time>2021-09-26T08:21:30.000Z</Time>
            <Position>
              <LatitudeDegrees>40.43489676900207996368408203125</LatitudeDegrees>
              <LongitudeDegrees>-3.68302694521844387054443359375</LongitudeDegrees>
            </Position>
            <AltitudeMeters>705.4000244140625</AltitudeMeters>
            <DistanceMeters>10880.188661233</DistanceMeters>
          </Trackpoint>
          <Trackpoint>
            <Time>2021-09-26T08:21:33.000Z</Time>
            <Position>
              <LatitudeDegrees>40.4349075816571712493896484375</LatitudeDegrees>
              <LongitudeDegrees>-3.68293139152228832244873046875</LongitudeDegrees>
            </Position>
            <AltitudeMeters>705.4000244140625</AltitudeMeters>
            <DistanceMeters>10888.373104223</DistanceMeters>
          </Trackpoint>
          <Trackpoint>
            <Time>2021-09-26T08:21:39.000Z</Time>
            <Position>
              <LatitudeDegrees>40.434915460646152496337890625</LatitudeDegrees>
              <LongitudeDegrees>-3.6827455647289752960205078125</LongitudeDegrees>
            </Position>
            <AltitudeMeters>705.4000244140625</AltitudeMeters>
            <DistanceMeters>10904.140095201</DistanceMeters>
          </Trackpoint>
          <Trackpoint>
            <Time>2021-09-26T08:21:45.000Z</Time>
            <Position>
              <LatitudeDegrees>40.4349551908671855926513671875</LatitudeDegrees>
              <LongitudeDegrees>-3.68254733271896839141845703125</LongitudeDegrees>
            </Position>
            <AltitudeMeters>705.79998779296875</AltitudeMeters>
            <DistanceMeters>10921.506340998</DistanceMeters>
          </Trackpoint>
          <Trackpoint>
            <Time>2021-09-26T08:21:52.000Z</Time>
            <Position>
              <LatitudeDegrees>40.4349675960838794708251953125</LatitudeDegrees>
              <LongitudeDegrees>-3.682294450700283050537109375</LongitudeDegrees>
            </Position>
            <AltitudeMeters>706</AltitudeMeters>
            <DistanceMeters>10942.973967354</DistanceMeters>
          </Trackpoint>
          <Trackpoint>
            <Time>2021-09-26T08:21:53.000Z</Time>
            <Position>
              <LatitudeDegrees>40.4349585436284542083740234375</LatitudeDegrees>
              <LongitudeDegrees>-3.68225614540278911590576171875</LongitudeDegrees>
            </Position>
            <AltitudeMeters>705.79998779296875</AltitudeMeters>
            <DistanceMeters>10946.372418144</DistanceMeters>
          </Trackpoint>
          <Trackpoint>
            <Time>2021-09-26T08:22:01.000Z</Time>
            <Position>
              <LatitudeDegrees>40.4349635727703571319580078125</LatitudeDegrees>
              <LongitudeDegrees>-3.681999407708644866943359375</LongitudeDegrees>
            </Position>
            <AltitudeMeters>704.4000244140625</AltitudeMeters>
            <DistanceMeters>10968.129593222</DistanceMeters>
          </Trackpoint>
          <Trackpoint>
            <Time>2021-09-26T08:22:09.000Z</Time>
            <Position>
              <LatitudeDegrees>40.4349444620311260223388671875</LatitudeDegrees>
              <LongitudeDegrees>-3.6818044446408748626708984375</LongitudeDegrees>
            </Position>
            <AltitudeMeters>703.79998779296875</AltitudeMeters>
            <DistanceMeters>10984.782601288</DistanceMeters>
          </Trackpoint>
          <Trackpoint>
            <Time>2021-09-26T08:22:17.000Z</Time>
            <Position>
              <LatitudeDegrees>40.434952341020107269287109375</LatitudeDegrees>
              <LongitudeDegrees>-3.68155927397310733795166015625</LongitudeDegrees>
            </Position>
            <AltitudeMeters>703.79998779296875</AltitudeMeters>
            <DistanceMeters>11005.57109326</DistanceMeters>
          </Trackpoint>
          <Trackpoint>
            <Time>2021-09-26T08:22:23.000Z</Time>
            <Position>
              <LatitudeDegrees>40.434942282736301422119140625</LatitudeDegrees>
              <LongitudeDegrees>-3.68141292594373226165771484375</LongitudeDegrees>
            </Position>
            <AltitudeMeters>703.5999755859375</AltitudeMeters>
            <DistanceMeters>11018.01923014</DistanceMeters>
          </Trackpoint>
          <Trackpoint>
            <Time>2021-09-26T08:22:30.000Z</Time>
            <Position>
              <LatitudeDegrees>40.43498109094798564910888671875</LatitudeDegrees>
              <LongitudeDegrees>-3.68118292652070522308349609375</LongitudeDegrees>
            </Position>
            <AltitudeMeters>703.5999755859375</AltitudeMeters>
            <DistanceMeters>11037.97687634</DistanceMeters>
          </Trackpoint>
          <Trackpoint>
            <Time>2021-09-26T08:22:32.000Z</Time>
            <Position>
              <LatitudeDegrees>40.4350011236965656280517578125</LatitudeDegrees>
              <LongitudeDegrees>-3.681118972599506378173828125</LongitudeDegrees>
            </Position>
            <AltitudeMeters>703.5999755859375</AltitudeMeters>
            <DistanceMeters>11043.834716428</DistanceMeters>
          </Trackpoint>
          <Trackpoint>
            <Time>2021-09-26T08:22:37.000Z</Time>
            <Position>
              <LatitudeDegrees>40.4349867068231105804443359375</LatitudeDegrees>
              <LongitudeDegrees>-3.68095175363123416900634765625</LongitudeDegrees>
            </Position>
            <AltitudeMeters>703.5999755859375</AltitudeMeters>
            <DistanceMeters>11058.091257404</DistanceMeters>
          </Trackpoint>
          <Trackpoint>
            <Time>2021-09-26T08:22:44.000Z</Time>
            <Position>
              <LatitudeDegrees>40.4349486529827117919921875</LatitudeDegrees>
              <LongitudeDegrees>-3.6807050742208957672119140625</LongitudeDegrees>
            </Position>
            <AltitudeMeters>704.4000244140625</AltitudeMeters>
            <DistanceMeters>11079.413905431</DistanceMeters>
          </Trackpoint>
          <Trackpoint>
            <Time>2021-09-26T08:22:46.000Z</Time>
            <Position>
              <LatitudeDegrees>40.43494395911693572998046875</LatitudeDegrees>
              <LongitudeDegrees>-3.6806443892419338226318359375</LongitudeDegrees>
            </Position>
            <AltitudeMeters>704.5999755859375</AltitudeMeters>
            <DistanceMeters>11084.58042321</DistanceMeters>
          </Trackpoint>
          <Trackpoint>
            <Time>2021-09-26T08:22:52.000Z</Time>
            <Position>
              <LatitudeDegrees>40.4349149577319622039794921875</LatitudeDegrees>
              <LongitudeDegrees>-3.68049678392708301544189453125</LongitudeDegrees>
            </Position>
            <AltitudeMeters>705.20001220703125</AltitudeMeters>
            <DistanceMeters>11097.494969734</DistanceMeters>
          </Trackpoint>
          <Trackpoint>
            <Time>2021-09-26T08:22:58.000Z</Time>
            <Position>
              <LatitudeDegrees>40.43490749783813953399658203125</LatitudeDegrees>
              <LongitudeDegrees>-3.68031456135213375091552734375</LongitudeDegrees>
            </Position>
            <AltitudeMeters>706</AltitudeMeters>
            <DistanceMeters>11112.954563301</DistanceMeters>
          </Trackpoint>
          <Trackpoint>
            <Time>2021-09-26T08:23:06.000Z</Time>
            <Position>
              <LatitudeDegrees>40.43489702045917510986328125</LatitudeDegrees>
              <LongitudeDegrees>-3.68004919029772281646728515625</LongitudeDegrees>
            </Position>
            <AltitudeMeters>706.5999755859375</AltitudeMeters>
            <DistanceMeters>11135.466069026</DistanceMeters>
          </Trackpoint>
          <Trackpoint>
            <Time>2021-09-26T08:23:14.000Z</Time>
            <Position>
              <LatitudeDegrees>40.4349032230675220489501953125</LatitudeDegrees>
              <LongitudeDegrees>-3.67979563772678375244140625</LongitudeDegrees>
            </Position>
            <AltitudeMeters>707.4000244140625</AltitudeMeters>
            <DistanceMeters>11156.957238142</DistanceMeters>
          </Trackpoint>
          <Trackpoint>
            <Time>2021-09-26T08:23:21.000Z</Time>
            <Position>
              <LatitudeDegrees>40.43486525304615497589111328125</LatitudeDegrees>
              <LongitudeDegrees>-3.67959556169807910919189453125</LongitudeDegrees>
            </Position>
            <AltitudeMeters>708</AltitudeMeters>
            <DistanceMeters>11174.426136314</DistanceMeters>
          </Trackpoint>
          <Trackpoint>
            <Time>2021-09-26T08:23:29.000Z</Time>
            <Position>
              <LatitudeDegrees>40.43480507098138332366943359375</LatitudeDegrees>
              <LongitudeDegrees>-3.67933941073715686798095703125</LongitudeDegrees>
            </Position>
            <AltitudeMeters>708.4000244140625</AltitudeMeters>
            <DistanceMeters>11197.136725832</DistanceMeters>
          </Trackpoint>
          <Trackpoint>
            <Time>2021-09-26T08:23:30.000Z</Time>
            <Position>
              <LatitudeDegrees>40.4347966052591800689697265625</LatitudeDegrees>
              <LongitudeDegrees>-3.67931661196053028106689453125</LongitudeDegrees>
            </Position>
            <AltitudeMeters>708.4000244140625</AltitudeMeters>
            <DistanceMeters>11199.286934924</DistanceMeters>
          </Trackpoint>
          <Trackpoint>
            <Time>2021-09-26T08:23:32.000Z</Time>
            <Position>
              <LatitudeDegrees>40.43480993248522281646728515625</LatitudeDegrees>
              <LongitudeDegrees>-3.6792813241481781005859375</LongitudeDegrees>
            </Position>
            <AltitudeMeters>708.4000244140625</AltitudeMeters>
            <DistanceMeters>11202.625065289</DistanceMeters>
          </Trackpoint>
          <Trackpoint>
            <Time>2021-09-26T08:23:35.000Z</Time>
            <Position>
              <LatitudeDegrees>40.4348225891590118408203125</LatitudeDegrees>
              <LongitudeDegrees>-3.6792000196874141693115234375</LongitudeDegrees>
            </Position>
            <AltitudeMeters>708.20001220703125</AltitudeMeters>
            <DistanceMeters>11209.655115671</DistanceMeters>
          </Trackpoint>
          <Trackpoint>
            <Time>2021-09-26T08:23:41.000Z</Time>
            <Position>
              <LatitudeDegrees>40.434828959405422210693359375</LatitudeDegrees>
              <LongitudeDegrees>-3.67899558506906032562255859375</LongitudeDegrees>
            </Position>
            <AltitudeMeters>708</AltitudeMeters>
            <DistanceMeters>11226.98857186</DistanceMeters>
          </Trackpoint>
          <Trackpoint>
            <Time>2021-09-26T08:23:49.000Z</Time>
            <Position>
              <LatitudeDegrees>40.43481462635099887847900390625</LatitudeDegrees>
              <LongitudeDegrees>-3.67874563671648502349853515625</LongitudeDegrees>
            </Position>
            <AltitudeMeters>707.5999755859375</AltitudeMeters>
            <DistanceMeters>11248.22358769</DistanceMeters>
          </Trackpoint>
          <Trackpoint>
            <Time>2021-09-26T08:23:50.000Z</Time>
            <Position>
              <LatitudeDegrees>40.43481378816068172454833984375</LatitudeDegrees>
              <LongitudeDegrees>-3.6787111870944499969482421875</LongitudeDegrees>
            </Position>
            <AltitudeMeters>707.5999755859375</AltitudeMeters>
            <DistanceMeters>11251.143243862</DistanceMeters>
          </Trackpoint>
          <Trackpoint>
            <Time>2021-09-26T08:23:58.000Z</Time>
            <Position>
              <LatitudeDegrees>40.4347905702888965606689453125</LatitudeDegrees>
              <LongitudeDegrees>-3.67848001420497894287109375</LongitudeDegrees>
            </Position>
            <AltitudeMeters>707.4000244140625</AltitudeMeters>
            <DistanceMeters>11270.897147106</DistanceMeters>
          </Trackpoint>
          <Trackpoint>
            <Time>2021-09-26T08:24:05.000Z</Time>
            <Position>
              <LatitudeDegrees>40.4347992874681949615478515625</LatitudeDegrees>
              <LongitudeDegrees>-3.67822025902569293975830078125</LongitudeDegrees>
            </Position>
            <AltitudeMeters>707.20001220703125</AltitudeMeters>
            <DistanceMeters>11292.924085326</DistanceMeters>
          </Trackpoint>
          <Trackpoint>
            <Time>2021-09-26T08:24:12.000Z</Time>
            <Position>
              <LatitudeDegrees>40.43480238877236843109130859375</LatitudeDegrees>
              <LongitudeDegrees>-3.6779883317649364471435546875</LongitudeDegrees>
            </Position>
            <AltitudeMeters>706.79998779296875</AltitudeMeters>
            <DistanceMeters>11312.575095199</DistanceMeters>
          </Trackpoint>
          <Trackpoint>
            <Time>2021-09-26T08:24:17.000Z</Time>
            <Position>
              <LatitudeDegrees>40.434781350195407867431640625</LatitudeDegrees>
              <LongitudeDegrees>-3.67781356908380985260009765625</LongitudeDegrees>
            </Position>
            <AltitudeMeters>706.5999755859375</AltitudeMeters>
            <DistanceMeters>11327.564636956</DistanceMeters>
          </Trackpoint>
          <Trackpoint>
            <Time>2021-09-26T08:24:24.000Z</Time>
            <Position>
              <LatitudeDegrees>40.4347339086234569549560546875</LatitudeDegrees>
              <LongitudeDegrees>-3.6776315979659557342529296875</LongitudeDegrees>
            </Position>
            <AltitudeMeters>706.20001220703125</AltitudeMeters>
            <DistanceMeters>11343.859986842</DistanceMeters>
          </Trackpoint>
          <Trackpoint>
            <Time>2021-09-26T08:24:29.000Z</Time>
            <Position>
              <LatitudeDegrees>40.4346884787082672119140625</LatitudeDegrees>
              <LongitudeDegrees>-3.67753528989851474761962890625</LongitudeDegrees>
            </Position>
            <AltitudeMeters>706.5999755859375</AltitudeMeters>
            <DistanceMeters>11353.459096177</DistanceMeters>
          </Trackpoint>
          <Trackpoint>
            <Time>2021-09-26T08:24:36.000Z</Time>
            <Position>
              <LatitudeDegrees>40.43468655087053775787353515625</LatitudeDegrees>
              <LongitudeDegrees>-3.67733831517398357391357421875</LongitudeDegrees>
            </Position>
            <AltitudeMeters>707.20001220703125</AltitudeMeters>
            <DistanceMeters>11370.147583757</DistanceMeters>
          </Trackpoint>
          <Trackpoint>
            <Time>2021-09-26T08:24:44.000Z</Time>
            <Position>
              <LatitudeDegrees>40.4346943460404872894287109375</LatitudeDegrees>
              <LongitudeDegrees>-3.67707780562341213226318359375</LongitudeDegrees>
            </Position>
            <AltitudeMeters>708.20001220703125</AltitudeMeters>
            <DistanceMeters>11392.234294459</DistanceMeters>
          </Trackpoint>
          <Trackpoint>
            <Time>2021-09-26T08:24:47.000Z</Time>
            <Position>
              <LatitudeDegrees>40.4346976988017559051513671875</LatitudeDegrees>
              <LongitudeDegrees>-3.676991052925586700439453125</LongitudeDegrees>
            </Position>
            <AltitudeMeters>708.5999755859375</AltitudeMeters>
            <DistanceMeters>11399.593805211</DistanceMeters>
          </Trackpoint>
          <Trackpoint>
            <Time>2021-09-26T08:24:54.000Z</Time>
            <Position>
              <LatitudeDegrees>40.434685461223125457763671875</LatitudeDegrees>
              <LongitudeDegrees>-3.67679248563945293426513671875</LongitudeDegrees>
            </Position>
            <AltitudeMeters>709.20001220703125</AltitudeMeters>
            <DistanceMeters>11416.47114894</DistanceMeters>
          </Trackpoint>
          <Trackpoint>
            <Time>2021-09-26T08:25:00.000Z</Time>
            <Position>
              <LatitudeDegrees>40.43466693721711635589599609375</LatitudeDegrees>
              <LongitudeDegrees>-3.6766153760254383087158203125</LongitudeDegrees>
            </Position>
            <AltitudeMeters>709.79998779296875</AltitudeMeters>
            <DistanceMeters>11431.616511327</DistanceMeters>
          </Trackpoint>
          <Trackpoint>
            <Time>2021-09-26T08:25:07.000Z</Time>
            <Position>
              <LatitudeDegrees>40.4346873052418231964111328125</LatitudeDegrees>
              <LongitudeDegrees>-3.676382862031459808349609375</LongitudeDegrees>
            </Position>
            <AltitudeMeters>710.5999755859375</AltitudeMeters>
            <DistanceMeters>11451.44433113</DistanceMeters>
          </Trackpoint>
          <Trackpoint>
            <Time>2021-09-26T08:25:08.000Z</Time>
            <Position>
              <LatitudeDegrees>40.4346846230328083038330078125</LatitudeDegrees>
              <LongitudeDegrees>-3.67634790949523448944091796875</LongitudeDegrees>
            </Position>
            <AltitudeMeters>710.79998779296875</AltitudeMeters>
            <DistanceMeters>11454.420655204</DistanceMeters>
          </Trackpoint>
          <Trackpoint>
            <Time>2021-09-26T08:25:13.000Z</Time>
            <Position>
              <LatitudeDegrees>40.43467699550092220306396484375</LatitudeDegrees>
              <LongitudeDegrees>-3.67626174353063106536865234375</LongitudeDegrees>
            </Position>
            <AltitudeMeters>711</AltitudeMeters>
            <DistanceMeters>11461.769114712</DistanceMeters>
          </Trackpoint>
          <Trackpoint>
            <Time>2021-09-26T08:25:21.000Z</Time>
            <Position>
              <LatitudeDegrees>40.4346772469580173492431640625</LatitudeDegrees>
              <LongitudeDegrees>-3.67602839134633541107177734375</LongitudeDegrees>
            </Position>
            <AltitudeMeters>711.79998779296875</AltitudeMeters>
            <DistanceMeters>11481.537869056</DistanceMeters>
          </Trackpoint>
          <Trackpoint>
            <Time>2021-09-26T08:25:28.000Z</Time>
            <Position>
              <LatitudeDegrees>40.434664674103260040283203125</LatitudeDegrees>
              <LongitudeDegrees>-3.675806187093257904052734375</LongitudeDegrees>
            </Position>
            <AltitudeMeters>711</AltitudeMeters>
            <DistanceMeters>11500.414250765</DistanceMeters>
          </Trackpoint>
          <Trackpoint>
            <Time>2021-09-26T08:25:34.000Z</Time>
            <Position>
              <LatitudeDegrees>40.43463693000376224517822265625</LatitudeDegrees>
              <LongitudeDegrees>-3.67565824650228023529052734375</LongitudeDegrees>
            </Position>
            <AltitudeMeters>710.20001220703125</AltitudeMeters>
            <DistanceMeters>11513.322502798</DistanceMeters>
          </Trackpoint>
          <Trackpoint>
            <Time>2021-09-26T08:25:40.000Z</Time>
            <Position>
              <LatitudeDegrees>40.4346182383596897125244140625</LatitudeDegrees>
              <LongitudeDegrees>-3.675417266786098480224609375</LongitudeDegrees>
            </Position>
            <AltitudeMeters>709</AltitudeMeters>
            <DistanceMeters>11533.843433207</DistanceMeters>
          </Trackpoint>
          <Trackpoint>
            <Time>2021-09-26T08:25:41.000Z</Time>
            <Position>
              <LatitudeDegrees>40.4346189089119434356689453125</LatitudeDegrees>
              <LongitudeDegrees>-3.67538080550730228424072265625</LongitudeDegrees>
            </Position>
            <AltitudeMeters>708.79998779296875</AltitudeMeters>
            <DistanceMeters>11536.934358777</DistanceMeters>
          </Trackpoint>
          <Trackpoint>
            <Time>2021-09-26T08:25:48.000Z</Time>
            <Position>
              <LatitudeDegrees>40.4346026480197906494140625</LatitudeDegrees>
              <LongitudeDegrees>-3.6751458607614040374755859375</LongitudeDegrees>
            </Position>
            <AltitudeMeters>708.20001220703125</AltitudeMeters>
            <DistanceMeters>11556.920037934</DistanceMeters>
          </Trackpoint>
          <Trackpoint>
            <Time>2021-09-26T08:25:50.000Z</Time>
            <Position>
              <LatitudeDegrees>40.4346024803817272186279296875</LatitudeDegrees>
              <LongitudeDegrees>-3.67508341558277606964111328125</LongitudeDegrees>
            </Position>
            <AltitudeMeters>708.4000244140625</AltitudeMeters>
            <DistanceMeters>11562.209194466</DistanceMeters>
          </Trackpoint>
          <Trackpoint>
            <Time>2021-09-26T08:25:57.000Z</Time>
            <Position>
              <LatitudeDegrees>40.43458144180476665496826171875</LatitudeDegrees>
              <LongitudeDegrees>-3.67486598901450634002685546875</LongitudeDegrees>
            </Position>
            <AltitudeMeters>708.5999755859375</AltitudeMeters>
            <DistanceMeters>11580.777132387</DistanceMeters>
          </Trackpoint>
          <Trackpoint>
            <Time>2021-09-26T08:26:04.000Z</Time>
            <Position>
              <LatitudeDegrees>40.4346065036952495574951171875</LatitudeDegrees>
              <LongitudeDegrees>-3.6746664158999919891357421875</LongitudeDegrees>
            </Position>
            <AltitudeMeters>708.79998779296875</AltitudeMeters>
            <DistanceMeters>11597.91306031</DistanceMeters>
          </Trackpoint>
          <Trackpoint>
            <Time>2021-09-26T08:26:12.000Z</Time>
            <Position>
              <LatitudeDegrees>40.43452846817672252655029296875</LatitudeDegrees>
              <LongitudeDegrees>-3.67444354109466075897216796875</LongitudeDegrees>
            </Position>
            <AltitudeMeters>709.4000244140625</AltitudeMeters>
            <DistanceMeters>11618.696339085</DistanceMeters>
          </Trackpoint>
          <Trackpoint>
            <Time>2021-09-26T08:26:20.000Z</Time>
            <Position>
              <LatitudeDegrees>40.4343825392425060272216796875</LatitudeDegrees>
              <LongitudeDegrees>-3.674229718744754791259765625</LongitudeDegrees>
            </Position>
            <AltitudeMeters>709.5999755859375</AltitudeMeters>
            <DistanceMeters>11643.026147367</DistanceMeters>
          </Trackpoint>
          <Trackpoint>
            <Time>2021-09-26T08:26:26.000Z</Time>
            <Position>
              <LatitudeDegrees>40.4342075251042842864990234375</LatitudeDegrees>
              <LongitudeDegrees>-3.67411731742322444915771484375</LongitudeDegrees>
            </Position>
            <AltitudeMeters>710</AltitudeMeters>
            <DistanceMeters>11664.708486721</DistanceMeters>
          </Trackpoint>
          <Trackpoint>
            <Time>2021-09-26T08:26:27.000Z</Time>
            <Position>
              <LatitudeDegrees>40.4341827146708965301513671875</LatitudeDegrees>
              <LongitudeDegrees>-3.674099631607532501220703125</LongitudeDegrees>
            </Position>
            <AltitudeMeters>710.20001220703125</AltitudeMeters>
            <DistanceMeters>11667.850122211</DistanceMeters>
          </Trackpoint>
          <Trackpoint>
            <Time>2021-09-26T08:26:35.000Z</Time>
            <Position>
              <LatitudeDegrees>40.4340241290628910064697265625</LatitudeDegrees>
              <LongitudeDegrees>-3.67394347675144672393798828125</LongitudeDegrees>
            </Position>
            <AltitudeMeters>709.4000244140625</AltitudeMeters>
            <DistanceMeters>11689.908195086</DistanceMeters>
          </Trackpoint>
          <Trackpoint>
            <Time>2021-09-26T08:26:42.000Z</Time>
            <Position>
              <LatitudeDegrees>40.4338605143129825592041015625</LatitudeDegrees>
              <LongitudeDegrees>-3.6738161556422710418701171875</LongitudeDegrees>
            </Position>
            <AltitudeMeters>708.4000244140625</AltitudeMeters>
            <DistanceMeters>11711.073355898</DistanceMeters>
          </Trackpoint>
          <Trackpoint>
            <Time>2021-09-26T08:26:44.000Z</Time>
            <Position>
              <LatitudeDegrees>40.43383888900279998779296875</LatitudeDegrees>
              <LongitudeDegrees>-3.6737745814025402069091796875</LongitudeDegrees>
            </Position>
            <AltitudeMeters>708.20001220703125</AltitudeMeters>
            <DistanceMeters>11715.340044792</DistanceMeters>
          </Trackpoint>
          <Trackpoint>
            <Time>2021-09-26T08:26:51.000Z</Time>
            <Position>
              <LatitudeDegrees>40.43370880186557769775390625</LatitudeDegrees>
              <LongitudeDegrees>-3.67363653145730495452880859375</LongitudeDegrees>
            </Position>
            <AltitudeMeters>707</AltitudeMeters>
            <DistanceMeters>11733.952428374</DistanceMeters>
          </Trackpoint>
          <Trackpoint>
            <Time>2021-09-26T08:26:59.000Z</Time>
            <Position>
              <LatitudeDegrees>40.433571003377437591552734375</LatitudeDegrees>
              <LongitudeDegrees>-3.67344441823661327362060546875</LongitudeDegrees>
            </Position>
            <AltitudeMeters>706.4000244140625</AltitudeMeters>
            <DistanceMeters>11756.31583048</DistanceMeters>
          </Trackpoint>
          <Trackpoint>
            <Time>2021-09-26T08:27:07.000Z</Time>
            <Position>
              <LatitudeDegrees>40.43341937474906444549560546875</LatitudeDegrees>
              <LongitudeDegrees>-3.6732850782573223114013671875</LongitudeDegrees>
            </Position>
            <AltitudeMeters>706.79998779296875</AltitudeMeters>
            <DistanceMeters>11777.927253706</DistanceMeters>
          </Trackpoint>
          <Trackpoint>
            <Time>2021-09-26T08:27:10.000Z</Time>
            <Position>
              <LatitudeDegrees>40.4333579353988170623779296875</LatitudeDegrees>
              <LongitudeDegrees>-3.67324702441692352294921875</LongitudeDegrees>
            </Position>
            <AltitudeMeters>706.5999755859375</AltitudeMeters>
            <DistanceMeters>11785.487702363</DistanceMeters>
          </Trackpoint>
          <Trackpoint>
            <Time>2021-09-26T08:27:18.000Z</Time>
            <Position>
              <LatitudeDegrees>40.4332084022462368011474609375</LatitudeDegrees>
              <LongitudeDegrees>-3.67311517708003520965576171875</LongitudeDegrees>
            </Position>
            <AltitudeMeters>705.79998779296875</AltitudeMeters>
            <DistanceMeters>11805.531807759</DistanceMeters>
          </Trackpoint>
          <Trackpoint>
            <Time>2021-09-26T08:27:25.000Z</Time>
            <Position>
              <LatitudeDegrees>40.43306431733071804046630859375</LatitudeDegrees>
              <LongitudeDegrees>-3.6730041168630123138427734375</LongitudeDegrees>
            </Position>
            <AltitudeMeters>704.5999755859375</AltitudeMeters>
            <DistanceMeters>11824.125017449</DistanceMeters>
          </Trackpoint>
          <Trackpoint>
            <Time>2021-09-26T08:27:33.000Z</Time>
            <Position>
              <LatitudeDegrees>40.432890392839908599853515625</LatitudeDegrees>
              <LongitudeDegrees>-3.6728753708302974700927734375</LongitudeDegrees>
            </Position>
            <AltitudeMeters>703.79998779296875</AltitudeMeters>
            <DistanceMeters>11846.344205988</DistanceMeters>
          </Trackpoint>
          <Trackpoint>
            <Time>2021-09-26T08:27:34.000Z</Time>
            <Position>
              <LatitudeDegrees>40.4328711144626140594482421875</LatitudeDegrees>
              <LongitudeDegrees>-3.6728633008897304534912109375</LongitudeDegrees>
            </Position>
            <AltitudeMeters>703.79998779296875</AltitudeMeters>
            <DistanceMeters>11848.721773622</DistanceMeters>
          </Trackpoint>
          <Trackpoint>
            <Time>2021-09-26T08:27:41.000Z</Time>
            <Position>
              <LatitudeDegrees>40.4327452182769775390625</LatitudeDegrees>
              <LongitudeDegrees>-3.67274788208305835723876953125</LongitudeDegrees>
            </Position>
            <AltitudeMeters>703.4000244140625</AltitudeMeters>
            <DistanceMeters>11865.808623291</DistanceMeters>
          </Trackpoint>
          <Trackpoint>
            <Time>2021-09-26T08:27:48.000Z</Time>
            <Position>
              <LatitudeDegrees>40.43260549195110797882080078125</LatitudeDegrees>
              <LongitudeDegrees>-3.67258041165769100189208984375</LongitudeDegrees>
            </Position>
            <AltitudeMeters>702.79998779296875</AltitudeMeters>
            <DistanceMeters>11886.859989792</DistanceMeters>
          </Trackpoint>
          <Trackpoint>
            <Time>2021-09-26T08:27:55.000Z</Time>
            <Position>
              <LatitudeDegrees>40.43248345144093036651611328125</LatitudeDegrees>
              <LongitudeDegrees>-3.6724442057311534881591796875</LongitudeDegrees>
            </Position>
            <AltitudeMeters>702.20001220703125</AltitudeMeters>
            <DistanceMeters>11904.683009433</DistanceMeters>
          </Trackpoint>
          <Trackpoint>
            <Time>2021-09-26T08:28:03.000Z</Time>
            <Position>
              <LatitudeDegrees>40.43232821859419345855712890625</LatitudeDegrees>
              <LongitudeDegrees>-3.67230632342398166656494140625</LongitudeDegrees>
            </Position>
            <AltitudeMeters>702.5999755859375</AltitudeMeters>
            <DistanceMeters>11925.538937901</DistanceMeters>
          </Trackpoint>
          <Trackpoint>
            <Time>2021-09-26T08:28:09.000Z</Time>
            <Position>
              <LatitudeDegrees>40.43221439234912395477294921875</LatitudeDegrees>
              <LongitudeDegrees>-3.67222703061997890472412109375</LongitudeDegrees>
            </Position>
            <AltitudeMeters>703</AltitudeMeters>
            <DistanceMeters>11939.878528924</DistanceMeters>
          </Trackpoint>
          <Trackpoint>
            <Time>2021-09-26T08:28:15.000Z</Time>
            <Position>
              <LatitudeDegrees>40.43209520168602466583251953125</LatitudeDegrees>
              <LongitudeDegrees>-3.67213818244636058807373046875</LongitudeDegrees>
            </Position>
            <AltitudeMeters>703.5999755859375</AltitudeMeters>
            <DistanceMeters>11955.131426665</DistanceMeters>
          </Trackpoint>
          <Trackpoint>
            <Time>2021-09-26T08:28:23.000Z</Time>
            <Position>
              <LatitudeDegrees>40.431948266923427581787109375</LatitudeDegrees>
              <LongitudeDegrees>-3.67196761071681976318359375</LongitudeDegrees>
            </Position>
            <AltitudeMeters>704.20001220703125</AltitudeMeters>
            <DistanceMeters>11976.955320725</DistanceMeters>
          </Trackpoint>
          <Trackpoint>
            <Time>2021-09-26T08:28:30.000Z</Time>
            <Position>
              <LatitudeDegrees>40.43178557418286800384521484375</LatitudeDegrees>
              <LongitudeDegrees>-3.67189644835889339447021484375</LongitudeDegrees>
            </Position>
            <AltitudeMeters>704.4000244140625</AltitudeMeters>
            <DistanceMeters>11996.040555686</DistanceMeters>
          </Trackpoint>
          <Trackpoint>
            <Time>2021-09-26T08:28:38.000Z</Time>
            <Position>
              <LatitudeDegrees>40.431620366871356964111328125</LatitudeDegrees>
              <LongitudeDegrees>-3.671772144734859466552734375</LongitudeDegrees>
            </Position>
            <AltitudeMeters>704.20001220703125</AltitudeMeters>
            <DistanceMeters>12017.230447642</DistanceMeters>
          </Trackpoint>
          <Trackpoint>
            <Time>2021-09-26T08:28:46.000Z</Time>
            <Position>
              <LatitudeDegrees>40.43143839575350284576416015625</LatitudeDegrees>
              <LongitudeDegrees>-3.67165957577526569366455078125</LongitudeDegrees>
            </Position>
            <AltitudeMeters>704</AltitudeMeters>
            <DistanceMeters>12039.61725721</DistanceMeters>
          </Trackpoint>
          <Trackpoint>
            <Time>2021-09-26T08:28:48.000Z</Time>
            <Position>
              <LatitudeDegrees>40.43137385509908199310302734375</LatitudeDegrees>
              <LongitudeDegrees>-3.67162789218127727508544921875</LongitudeDegrees>
            </Position>
            <AltitudeMeters>704.20001220703125</AltitudeMeters>
            <DistanceMeters>12047.285624559</DistanceMeters>
          </Trackpoint>
          <Trackpoint>
            <Time>2021-09-26T08:28:55.000Z</Time>
            <Position>
              <LatitudeDegrees>40.43123102746903896331787109375</LatitudeDegrees>
              <LongitudeDegrees>-3.67153082974255084991455078125</LongitudeDegrees>
            </Position>
            <AltitudeMeters>703.79998779296875</AltitudeMeters>
            <DistanceMeters>12065.183471686</DistanceMeters>
          </Trackpoint>
          <Trackpoint>
            <Time>2021-09-26T08:29:03.000Z</Time>
            <Position>
              <LatitudeDegrees>40.4310827516019344329833984375</LatitudeDegrees>
              <LongitudeDegrees>-3.67138020694255828857421875</LongitudeDegrees>
            </Position>
            <AltitudeMeters>702.5999755859375</AltitudeMeters>
            <DistanceMeters>12086.045028057</DistanceMeters>
          </Trackpoint>
          <Trackpoint>
            <Time>2021-09-26T08:29:10.000Z</Time>
            <Position>
              <LatitudeDegrees>40.43091301806271076202392578125</LatitudeDegrees>
              <LongitudeDegrees>-3.67128037847578525543212890625</LongitudeDegrees>
            </Position>
            <AltitudeMeters>701.5999755859375</AltitudeMeters>
            <DistanceMeters>12106.743626485</DistanceMeters>
          </Trackpoint>
          <Trackpoint>
            <Time>2021-09-26T08:29:11.000Z</Time>
            <Position>
              <LatitudeDegrees>40.43089290149509906768798828125</LatitudeDegrees>
              <LongitudeDegrees>-3.67126177065074443817138671875</LongitudeDegrees>
            </Position>
            <AltitudeMeters>701.5999755859375</AltitudeMeters>
            <DistanceMeters>12109.481319574</DistanceMeters>
          </Trackpoint>
          <Trackpoint>
            <Time>2021-09-26T08:29:18.000Z</Time>
            <Position>
              <LatitudeDegrees>40.43073900975286960601806640625</LatitudeDegrees>
              <LongitudeDegrees>-3.6711523868143558502197265625</LongitudeDegrees>
            </Position>
            <AltitudeMeters>700.5999755859375</AltitudeMeters>
            <DistanceMeters>12128.956000846</DistanceMeters>
          </Trackpoint>
          <Trackpoint>
            <Time>2021-09-26T08:29:24.000Z</Time>
            <Position>
              <LatitudeDegrees>40.43063021264970302581787109375</LatitudeDegrees>
              <LongitudeDegrees>-3.67106379009783267974853515625</LongitudeDegrees>
            </Position>
            <AltitudeMeters>699.79998779296875</AltitudeMeters>
            <DistanceMeters>12143.203037671</DistanceMeters>
          </Trackpoint>
          <Trackpoint>
            <Time>2021-09-26T08:29:30.000Z</Time>
            <Position>
              <LatitudeDegrees>40.43050599284470081329345703125</LatitudeDegrees>
              <LongitudeDegrees>-3.67096605710685253143310546875</LongitudeDegrees>
            </Position>
            <AltitudeMeters>699</AltitudeMeters>
            <DistanceMeters>12159.318963294</DistanceMeters>
          </Trackpoint>
          <Trackpoint>
            <Time>2021-09-26T08:29:35.000Z</Time>
            <Position>
              <LatitudeDegrees>40.4304393567144870758056640625</LatitudeDegrees>
              <LongitudeDegrees>-3.67084150202572345733642578125</LongitudeDegrees>
            </Position>
            <AltitudeMeters>698.5999755859375</AltitudeMeters>
            <DistanceMeters>12172.217417791</DistanceMeters>
          </Trackpoint>
          <Trackpoint>
            <Time>2021-09-26T08:29:42.000Z</Time>
            <Position>
              <LatitudeDegrees>40.430294685065746307373046875</LatitudeDegrees>
              <LongitudeDegrees>-3.67073941044509410858154296875</LongitudeDegrees>
            </Position>
            <AltitudeMeters>698</AltitudeMeters>
            <DistanceMeters>12190.495924249</DistanceMeters>
          </Trackpoint>
          <Trackpoint>
            <Time>2021-09-26T08:29:49.000Z</Time>
            <Position>
              <LatitudeDegrees>40.43016049079596996307373046875</LatitudeDegrees>
              <LongitudeDegrees>-3.6706151068210601806640625</LongitudeDegrees>
            </Position>
            <AltitudeMeters>697.4000244140625</AltitudeMeters>
            <DistanceMeters>12208.77121925</DistanceMeters>
          </Trackpoint>
          <Trackpoint>
            <Time>2021-09-26T08:29:55.000Z</Time>
            <Position>
              <LatitudeDegrees>40.43004356324672698974609375</LatitudeDegrees>
              <LongitudeDegrees>-3.67049868218600749969482421875</LongitudeDegrees>
            </Position>
            <AltitudeMeters>696.4000244140625</AltitudeMeters>
            <DistanceMeters>12225.101443301</DistanceMeters>
          </Trackpoint>
          <Trackpoint>
            <Time>2021-09-26T08:29:56.000Z</Time>
            <Position>
              <LatitudeDegrees>40.43004280887544155120849609375</LatitudeDegrees>
              <LongitudeDegrees>-3.67048711515963077545166015625</LongitudeDegrees>
            </Position>
            <AltitudeMeters>696.4000244140625</AltitudeMeters>
            <DistanceMeters>12226.088989885</DistanceMeters>
          </Trackpoint>
          <Trackpoint>
            <Time>2021-09-26T08:29:57.000Z</Time>
            <Position>
              <LatitudeDegrees>40.4300373606383800506591796875</LatitudeDegrees>
              <LongitudeDegrees>-3.6704821698367595672607421875</LongitudeDegrees>
            </Position>
            <AltitudeMeters>696.4000244140625</AltitudeMeters>
            <DistanceMeters>12226.825063649</DistanceMeters>
          </Trackpoint>
          <Trackpoint>
            <Time>2021-09-26T08:32:17.000Z</Time>
            <Position>
              <LatitudeDegrees>40.426913760602474212646484375</LatitudeDegrees>
              <LongitudeDegrees>-3.668540418148040771484375</LongitudeDegrees>
            </Position>
            <AltitudeMeters>692.5999755859375</AltitudeMeters>
            <DistanceMeters>12611.447659322</DistanceMeters>
          </Trackpoint>
          <Trackpoint>
            <Time>2021-09-26T08:32:20.000Z</Time>
            <Position>
              <LatitudeDegrees>40.427090115845203399658203125</LatitudeDegrees>
              <LongitudeDegrees>-3.6682576127350330352783203125</LongitudeDegrees>
            </Position>
            <AltitudeMeters>692.79998779296875</AltitudeMeters>
            <DistanceMeters>12642.42214127</DistanceMeters>
          </Trackpoint>
          <Trackpoint>
            <Time>2021-09-26T08:32:23.000Z</Time>
            <Position>
              <LatitudeDegrees>40.4268703423440456390380859375</LatitudeDegrees>
              <LongitudeDegrees>-3.66820790804922580718994140625</LongitudeDegrees>
            </Position>
            <AltitudeMeters>693.4000244140625</AltitudeMeters>
            <DistanceMeters>12667.243220929</DistanceMeters>
          </Trackpoint>
          <Trackpoint>
            <Time>2021-09-26T08:32:27.000Z</Time>
            <Position>
              <LatitudeDegrees>40.42671049945056438446044921875</LatitudeDegrees>
              <LongitudeDegrees>-3.6682237498462200164794921875</LongitudeDegrees>
            </Position>
            <AltitudeMeters>693.79998779296875</AltitudeMeters>
            <DistanceMeters>12685.084470736</DistanceMeters>
          </Trackpoint>
          <Trackpoint>
            <Time>2021-09-26T08:32:32.000Z</Time>
            <Position>
              <LatitudeDegrees>40.42660094797611236572265625</LatitudeDegrees>
              <LongitudeDegrees>-3.668250404298305511474609375</LongitudeDegrees>
            </Position>
            <AltitudeMeters>694</AltitudeMeters>
            <DistanceMeters>12697.485365939</DistanceMeters>
          </Trackpoint>
          <Trackpoint>
            <Time>2021-09-26T08:32:37.000Z</Time>
            <Position>
              <LatitudeDegrees>40.4264514148235321044921875</LatitudeDegrees>
              <LongitudeDegrees>-3.6683323793113231658935546875</LongitudeDegrees>
            </Position>
            <AltitudeMeters>693.79998779296875</AltitudeMeters>
            <DistanceMeters>12715.51967389</DistanceMeters>
          </Trackpoint>
          <Trackpoint>
            <Time>2021-09-26T08:32:44.000Z</Time>
            <Position>
              <LatitudeDegrees>40.42627631686627864837646484375</LatitudeDegrees>
              <LongitudeDegrees>-3.6683726124465465545654296875</LongitudeDegrees>
            </Position>
            <AltitudeMeters>693.4000244140625</AltitudeMeters>
            <DistanceMeters>12735.304409261</DistanceMeters>
          </Trackpoint>
          <Trackpoint>
            <Time>2021-09-26T08:32:47.000Z</Time>
            <Position>
              <LatitudeDegrees>40.42620724998414516448974609375</LatitudeDegrees>
              <LongitudeDegrees>-3.66838023997843265533447265625</LongitudeDegrees>
            </Position>
            <AltitudeMeters>693</AltitudeMeters>
            <DistanceMeters>12743.018565324</DistanceMeters>
          </Trackpoint>
          <Trackpoint>
            <Time>2021-09-26T08:32:50.000Z</Time>
            <Position>
              <LatitudeDegrees>40.4261340759694576263427734375</LatitudeDegrees>
              <LongitudeDegrees>-3.6683830060064792633056640625</LongitudeDegrees>
            </Position>
            <AltitudeMeters>692.79998779296875</AltitudeMeters>
            <DistanceMeters>12751.166517338</DistanceMeters>
          </Trackpoint>
          <Trackpoint>
            <Time>2021-09-26T08:32:57.000Z</Time>
            <Position>
              <LatitudeDegrees>40.4259396158158779144287109375</LatitudeDegrees>
              <LongitudeDegrees>-3.6684661544859409332275390625</LongitudeDegrees>
            </Position>
            <AltitudeMeters>692</AltitudeMeters>
            <DistanceMeters>12773.927944706</DistanceMeters>
          </Trackpoint>
          <Trackpoint>
            <Time>2021-09-26T08:33:02.000Z</Time>
            <Position>
              <LatitudeDegrees>40.42582134716212749481201171875</LatitudeDegrees>
              <LongitudeDegrees>-3.66847260855138301849365234375</LongitudeDegrees>
            </Position>
            <AltitudeMeters>691.4000244140625</AltitudeMeters>
            <DistanceMeters>12787.102431387</DistanceMeters>
          </Trackpoint>
          <Trackpoint>
            <Time>2021-09-26T08:33:08.000Z</Time>
            <Position>
              <LatitudeDegrees>40.4256536252796649932861328125</LatitudeDegrees>
              <LongitudeDegrees>-3.668549470603466033935546875</LongitudeDegrees>
            </Position>
            <AltitudeMeters>690.79998779296875</AltitudeMeters>
            <DistanceMeters>12806.873469527</DistanceMeters>
          </Trackpoint>
          <Trackpoint>
            <Time>2021-09-26T08:33:10.000Z</Time>
            <Position>
              <LatitudeDegrees>40.425591431558132171630859375</LatitudeDegrees>
              <LongitudeDegrees>-3.66857017390429973602294921875</LongitudeDegrees>
            </Position>
            <AltitudeMeters>690.5999755859375</AltitudeMeters>
            <DistanceMeters>12814.015029003</DistanceMeters>
          </Trackpoint>
          <Trackpoint>
            <Time>2021-09-26T08:33:17.000Z</Time>
            <Position>
              <LatitudeDegrees>40.42544315569102764129638671875</LatitudeDegrees>
              <LongitudeDegrees>-3.6685593612492084503173828125</LongitudeDegrees>
            </Position>
            <AltitudeMeters>690.20001220703125</AltitudeMeters>
            <DistanceMeters>12830.543668776</DistanceMeters>
          </Trackpoint>
          <Trackpoint>
            <Time>2021-09-26T08:33:24.000Z</Time>
            <Position>
              <LatitudeDegrees>40.425296723842620849609375</LatitudeDegrees>
              <LongitudeDegrees>-3.66857268847525119781494140625</LongitudeDegrees>
            </Position>
            <AltitudeMeters>690.79998779296875</AltitudeMeters>
            <DistanceMeters>12846.880803453</DistanceMeters>
          </Trackpoint>
          <Trackpoint>
            <Time>2021-09-26T08:33:31.000Z</Time>
            <Position>
              <LatitudeDegrees>40.42515255510807037353515625</LatitudeDegrees>
              <LongitudeDegrees>-3.66854888387024402618408203125</LongitudeDegrees>
            </Position>
            <AltitudeMeters>691.20001220703125</AltitudeMeters>
            <DistanceMeters>12863.053222385</DistanceMeters>
          </Trackpoint>
          <Trackpoint>
            <Time>2021-09-26T08:33:37.000Z</Time>
            <Position>
              <LatitudeDegrees>40.4250484518706798553466796875</LatitudeDegrees>
              <LongitudeDegrees>-3.66847562603652477264404296875</LongitudeDegrees>
            </Position>
            <AltitudeMeters>691.4000244140625</AltitudeMeters>
            <DistanceMeters>12876.197515923</DistanceMeters>
          </Trackpoint>
          <Trackpoint>
            <Time>2021-09-26T08:33:42.000Z</Time>
            <Position>
              <LatitudeDegrees>40.42490017600357532501220703125</LatitudeDegrees>
              <LongitudeDegrees>-3.6685060523450374603271484375</LongitudeDegrees>
            </Position>
            <AltitudeMeters>692</AltitudeMeters>
            <DistanceMeters>12892.900877018</DistanceMeters>
          </Trackpoint>
          <Trackpoint>
            <Time>2021-09-26T08:33:43.000Z</Time>
            <Position>
              <LatitudeDegrees>40.42487494647502899169921875</LatitudeDegrees>
              <LongitudeDegrees>-3.6685100756585597991943359375</LongitudeDegrees>
            </Position>
            <AltitudeMeters>692.20001220703125</AltitudeMeters>
            <DistanceMeters>12895.729418644</DistanceMeters>
          </Trackpoint>
          <Trackpoint>
            <Time>2021-09-26T08:33:44.000Z</Time>
            <Position>
              <LatitudeDegrees>40.42485424317419528961181640625</LatitudeDegrees>
              <LongitudeDegrees>-3.66851694881916046142578125</LongitudeDegrees>
            </Position>
            <AltitudeMeters>692.20001220703125</AltitudeMeters>
            <DistanceMeters>12898.106986278</DistanceMeters>
          </Trackpoint>
          <Trackpoint>
            <Time>2021-09-26T08:33:46.000Z</Time>
            <Position>
              <LatitudeDegrees>40.42481769807636737823486328125</LatitudeDegrees>
              <LongitudeDegrees>-3.66851854138076305389404296875</LongitudeDegrees>
            </Position>
            <AltitudeMeters>692.4000244140625</AltitudeMeters>
            <DistanceMeters>12902.176526817</DistanceMeters>
          </Trackpoint>
          <Trackpoint>
            <Time>2021-09-26T08:33:48.000Z</Time>
            <Position>
              <LatitudeDegrees>40.42477168142795562744140625</LatitudeDegrees>
              <LongitudeDegrees>-3.66851686500012874603271484375</LongitudeDegrees>
            </Position>
            <AltitudeMeters>692.5999755859375</AltitudeMeters>
            <DistanceMeters>12907.30004438</DistanceMeters>
          </Trackpoint>
          <Trackpoint>
            <Time>2021-09-26T08:33:55.000Z</Time>
            <Position>
              <LatitudeDegrees>40.424588620662689208984375</LatitudeDegrees>
              <LongitudeDegrees>-3.66859682835638523101806640625</LongitudeDegrees>
            </Position>
            <AltitudeMeters>692.4000244140625</AltitudeMeters>
            <DistanceMeters>12928.772297245</DistanceMeters>
          </Trackpoint>
          <Trackpoint>
            <Time>2021-09-26T08:33:56.000Z</Time>
            <Position>
              <LatitudeDegrees>40.4245596192777156829833984375</LatitudeDegrees>
              <LongitudeDegrees>-3.6686213873326778411865234375</LongitudeDegrees>
            </Position>
            <AltitudeMeters>692.20001220703125</AltitudeMeters>
            <DistanceMeters>12932.611188329</DistanceMeters>
          </Trackpoint>
          <Trackpoint>
            <Time>2021-09-26T08:34:03.000Z</Time>
            <Position>
              <LatitudeDegrees>40.424367003142833709716796875</LatitudeDegrees>
              <LongitudeDegrees>-3.66870730184018611907958984375</LongitudeDegrees>
            </Position>
            <AltitudeMeters>690.4000244140625</AltitudeMeters>
            <DistanceMeters>12955.251888835</DistanceMeters>
          </Trackpoint>
          <Trackpoint>
            <Time>2021-09-26T08:34:05.000Z</Time>
            <Position>
              <LatitudeDegrees>40.42431226931512355804443359375</LatitudeDegrees>
              <LongitudeDegrees>-3.66871668957173824310302734375</LongitudeDegrees>
            </Position>
            <AltitudeMeters>690</AltitudeMeters>
            <DistanceMeters>12961.396378205</DistanceMeters>
          </Trackpoint>
          <Trackpoint>
            <Time>2021-09-26T08:34:12.000Z</Time>
            <Position>
              <LatitudeDegrees>40.42411261238157749176025390625</LatitudeDegrees>
              <LongitudeDegrees>-3.6687595210969448089599609375</LongitudeDegrees>
            </Position>
            <AltitudeMeters>688</AltitudeMeters>
            <DistanceMeters>12983.913098038</DistanceMeters>
          </Trackpoint>
          <Trackpoint>
            <Time>2021-09-26T08:34:13.000Z</Time>
            <Position>
              <LatitudeDegrees>40.42409132234752178192138671875</LatitudeDegrees>
              <LongitudeDegrees>-3.66875776089727878570556640625</LongitudeDegrees>
            </Position>
            <AltitudeMeters>687.79998779296875</AltitudeMeters>
            <DistanceMeters>12986.286864602</DistanceMeters>
          </Trackpoint>
          <Trackpoint>
            <Time>2021-09-26T08:34:21.000Z</Time>
            <Position>
              <LatitudeDegrees>40.42391312308609485626220703125</LatitudeDegrees>
              <LongitudeDegrees>-3.6687340401113033294677734375</LongitudeDegrees>
            </Position>
            <AltitudeMeters>686.20001220703125</AltitudeMeters>
            <DistanceMeters>13006.222327836</DistanceMeters>
          </Trackpoint>
          <Trackpoint>
            <Time>2021-09-26T08:34:27.000Z</Time>
            <Position>
              <LatitudeDegrees>40.42376090772449970245361328125</LatitudeDegrees>
              <LongitudeDegrees>-3.6687182821333408355712890625</LongitudeDegrees>
            </Position>
            <AltitudeMeters>684.79998779296875</AltitudeMeters>
            <DistanceMeters>13023.216973022</DistanceMeters>
          </Trackpoint>
          <Trackpoint>
            <Time>2021-09-26T08:34:30.000Z</Time>
            <Position>
              <LatitudeDegrees>40.42371916584670543670654296875</LatitudeDegrees>
              <LongitudeDegrees>-3.6686844192445278167724609375</LongitudeDegrees>
            </Position>
            <AltitudeMeters>684.5999755859375</AltitudeMeters>
            <DistanceMeters>13028.6783229</DistanceMeters>
          </Trackpoint>
          <Trackpoint>
            <Time>2021-09-26T08:34:31.000Z</Time>
            <Position>
              <LatitudeDegrees>40.42371095158159732818603515625</LatitudeDegrees>
              <LongitudeDegrees>-3.6686629615724086761474609375</LongitudeDegrees>
            </Position>
            <AltitudeMeters>684.5999755859375</AltitudeMeters>
            <DistanceMeters>13030.711983396</DistanceMeters>
          </Trackpoint>
          <Trackpoint>
            <Time>2021-09-26T08:34:32.000Z</Time>
            <Position>
              <LatitudeDegrees>40.42370072565972805023193359375</LatitudeDegrees>
              <LongitudeDegrees>-3.6686482094228267669677734375</LongitudeDegrees>
            </Position>
            <AltitudeMeters>684.4000244140625</AltitudeMeters>
            <DistanceMeters>13032.40121522</DistanceMeters>
          </Trackpoint>
          <Trackpoint>
            <Time>2021-09-26T08:34:35.000Z</Time>
            <Position>
              <LatitudeDegrees>40.42363040149211883544921875</LatitudeDegrees>
              <LongitudeDegrees>-3.668636977672576904296875</LongitudeDegrees>
            </Position>
            <AltitudeMeters>683.79998779296875</AltitudeMeters>
            <DistanceMeters>13040.285569743</DistanceMeters>
          </Trackpoint>
          <Trackpoint>
            <Time>2021-09-26T08:34:41.000Z</Time>
            <Position>
              <LatitudeDegrees>40.42343066073954105377197265625</LatitudeDegrees>
              <LongitudeDegrees>-3.66863689385354518890380859375</LongitudeDegrees>
            </Position>
            <AltitudeMeters>682.20001220703125</AltitudeMeters>
            <DistanceMeters>13062.516947207</DistanceMeters>
          </Trackpoint>
          <Trackpoint>
            <Time>2021-09-26T08:34:47.000Z</Time>
            <Position>
              <LatitudeDegrees>40.423242151737213134765625</LatitudeDegrees>
              <LongitudeDegrees>-3.66869933903217315673828125</LongitudeDegrees>
            </Position>
            <AltitudeMeters>680.79998779296875</AltitudeMeters>
            <DistanceMeters>13084.155095547</DistanceMeters>
          </Trackpoint>
          <Trackpoint>
            <Time>2021-09-26T08:34:48.000Z</Time>
            <Position>
              <LatitudeDegrees>40.423210300505161285400390625</LatitudeDegrees>
              <LongitudeDegrees>-3.6687182821333408355712890625</LongitudeDegrees>
            </Position>
            <AltitudeMeters>680.5999755859375</AltitudeMeters>
            <DistanceMeters>13088.04539221</DistanceMeters>
          </Trackpoint>
          <Trackpoint>
            <Time>2021-09-26T08:34:54.000Z</Time>
            <Position>
              <LatitudeDegrees>40.42302464134991168975830078125</LatitudeDegrees>
              <LongitudeDegrees>-3.66880017332732677459716796875</LongitudeDegrees>
            </Position>
            <AltitudeMeters>679.20001220703125</AltitudeMeters>
            <DistanceMeters>13109.843617424</DistanceMeters>
          </Trackpoint>
          <Trackpoint>
            <Time>2021-09-26T08:34:55.000Z</Time>
            <Position>
              <LatitudeDegrees>40.42300636880099773406982421875</LatitudeDegrees>
              <LongitudeDegrees>-3.66880537010729312896728515625</LongitudeDegrees>
            </Position>
            <AltitudeMeters>679.20001220703125</AltitudeMeters>
            <DistanceMeters>13111.925548425</DistanceMeters>
          </Trackpoint>
          <Trackpoint>
            <Time>2021-09-26T08:34:58.000Z</Time>
            <Position>
              <LatitudeDegrees>40.4229362122714519500732421875</LatitudeDegrees>
              <LongitudeDegrees>-3.668831773102283477783203125</LongitudeDegrees>
            </Position>
            <AltitudeMeters>679</AltitudeMeters>
            <DistanceMeters>13120.047970385</DistanceMeters>
          </Trackpoint>
          <Trackpoint>
            <Time>2021-09-26T08:35:01.000Z</Time>
            <Position>
              <LatitudeDegrees>40.422874353826045989990234375</LatitudeDegrees>
              <LongitudeDegrees>-3.6688356287777423858642578125</LongitudeDegrees>
            </Position>
            <AltitudeMeters>678.79998779296875</AltitudeMeters>
            <DistanceMeters>13126.940519418</DistanceMeters>
          </Trackpoint>
          <Trackpoint>
            <Time>2021-09-26T08:35:10.000Z</Time>
            <Position>
              <LatitudeDegrees>40.42267955839633941650390625</LatitudeDegrees>
              <LongitudeDegrees>-3.66883873008191585540771484375</LongitudeDegrees>
            </Position>
            <AltitudeMeters>678.4000244140625</AltitudeMeters>
            <DistanceMeters>13148.623275239</DistanceMeters>
          </Trackpoint>
          <Trackpoint>
            <Time>2021-09-26T08:35:18.000Z</Time>
            <Position>
              <LatitudeDegrees>40.4224790632724761962890625</LatitudeDegrees>
              <LongitudeDegrees>-3.66882967762649059295654296875</LongitudeDegrees>
            </Position>
            <AltitudeMeters>678.4000244140625</AltitudeMeters>
            <DistanceMeters>13170.951520142</DistanceMeters>
          </Trackpoint>
          <Trackpoint>
            <Time>2021-09-26T08:35:23.000Z</Time>
            <Position>
              <LatitudeDegrees>40.4223595373332500457763671875</LatitudeDegrees>
              <LongitudeDegrees>-3.6687873490154743194580078125</LongitudeDegrees>
            </Position>
            <AltitudeMeters>678.4000244140625</AltitudeMeters>
            <DistanceMeters>13184.730066043</DistanceMeters>
          </Trackpoint>
          <Trackpoint>
            <Time>2021-09-26T08:35:29.000Z</Time>
            <Position>
              <LatitudeDegrees>40.42219248600304126739501953125</LatitudeDegrees>
              <LongitudeDegrees>-3.66883252747356891632080078125</LongitudeDegrees>
            </Position>
            <AltitudeMeters>678.4000244140625</AltitudeMeters>
            <DistanceMeters>13203.713302349</DistanceMeters>
          </Trackpoint>
          <Trackpoint>
            <Time>2021-09-26T08:35:35.000Z</Time>
            <Position>
              <LatitudeDegrees>40.4220477305352687835693359375</LatitudeDegrees>
              <LongitudeDegrees>-3.6688761971890926361083984375</LongitudeDegrees>
            </Position>
            <AltitudeMeters>677.79998779296875</AltitudeMeters>
            <DistanceMeters>13220.244127294</DistanceMeters>
          </Trackpoint>
          <Trackpoint>
            <Time>2021-09-26T08:35:38.000Z</Time>
            <Position>
              <LatitudeDegrees>40.4219753108918666839599609375</LatitudeDegrees>
              <LongitudeDegrees>-3.668892793357372283935546875</LongitudeDegrees>
            </Position>
            <AltitudeMeters>677.4000244140625</AltitudeMeters>
            <DistanceMeters>13228.426363343</DistanceMeters>
          </Trackpoint>
          <Trackpoint>
            <Time>2021-09-26T08:35:43.000Z</Time>
            <Position>
              <LatitudeDegrees>40.421837009489536285400390625</LatitudeDegrees>
              <LongitudeDegrees>-3.6689858324825763702392578125</LongitudeDegrees>
            </Position>
            <AltitudeMeters>676.5999755859375</AltitudeMeters>
            <DistanceMeters>13245.720703225</DistanceMeters>
          </Trackpoint>
          <Trackpoint>
            <Time>2021-09-26T08:35:51.000Z</Time>
            <Position>
              <LatitudeDegrees>40.42165386490523815155029296875</LatitudeDegrees>
              <LongitudeDegrees>-3.66903469897806644439697265625</LongitudeDegrees>
            </Position>
            <AltitudeMeters>675.5999755859375</AltitudeMeters>
            <DistanceMeters>13266.521354242</DistanceMeters>
          </Trackpoint>
          <Trackpoint>
            <Time>2021-09-26T08:35:52.000Z</Time>
            <Position>
              <LatitudeDegrees>40.42162888683378696441650390625</LatitudeDegrees>
              <LongitudeDegrees>-3.66902816109359264373779296875</LongitudeDegrees>
            </Position>
            <AltitudeMeters>675.5999755859375</AltitudeMeters>
            <DistanceMeters>13269.356273648</DistanceMeters>
          </Trackpoint>
          <Trackpoint>
            <Time>2021-09-26T08:35:53.000Z</Time>
            <Position>
              <LatitudeDegrees>40.42160793207585811614990234375</LatitudeDegrees>
              <LongitudeDegrees>-3.66903436370193958282470703125</LongitudeDegrees>
            </Position>
            <AltitudeMeters>675.5999755859375</AltitudeMeters>
            <DistanceMeters>13271.747097437</DistanceMeters>
          </Trackpoint>
          <Trackpoint>
            <Time>2021-09-26T08:35:56.000Z</Time>
            <Position>
              <LatitudeDegrees>40.4215515218675136566162109375</LatitudeDegrees>
              <LongitudeDegrees>-3.66904861293733119964599609375</LongitudeDegrees>
            </Position>
            <AltitudeMeters>675.4000244140625</AltitudeMeters>
            <DistanceMeters>13278.141484517</DistanceMeters>
          </Trackpoint>
          <Trackpoint>
            <Time>2021-09-26T08:36:04.000Z</Time>
            <Position>
              <LatitudeDegrees>40.42135831899940967559814453125</LatitudeDegrees>
              <LongitudeDegrees>-3.66906009614467620849609375</LongitudeDegrees>
            </Position>
            <AltitudeMeters>675.20001220703125</AltitudeMeters>
            <DistanceMeters>13299.667500002</DistanceMeters>
          </Trackpoint>
          <Trackpoint>
            <Time>2021-09-26T08:36:08.000Z</Time>
            <Position>
              <LatitudeDegrees>40.421281121671199798583984375</LatitudeDegrees>
              <LongitudeDegrees>-3.66917165927588939666748046875</LongitudeDegrees>
            </Position>
            <AltitudeMeters>674.79998779296875</AltitudeMeters>
            <DistanceMeters>13312.442144478</DistanceMeters>
          </Trackpoint>
          <Trackpoint>
            <Time>2021-09-26T08:36:09.000Z</Time>
            <Position>
              <LatitudeDegrees>40.4212843067944049835205078125</LatitudeDegrees>
              <LongitudeDegrees>-3.669202588498592376708984375</LongitudeDegrees>
            </Position>
            <AltitudeMeters>674.5999755859375</AltitudeMeters>
            <DistanceMeters>13315.085868966</DistanceMeters>
          </Trackpoint>
          <Trackpoint>
            <Time>2021-09-26T08:36:13.000Z</Time>
            <Position>
              <LatitudeDegrees>40.42129746638238430023193359375</LatitudeDegrees>
              <LongitudeDegrees>-3.66933627985417842864990234375</LongitudeDegrees>
            </Position>
            <AltitudeMeters>674.20001220703125</AltitudeMeters>
            <DistanceMeters>13326.508064222</DistanceMeters>
          </Trackpoint>
          <Trackpoint>
            <Time>2021-09-26T08:36:17.000Z</Time>
            <Position>
              <LatitudeDegrees>40.42129562236368656158447265625</LatitudeDegrees>
              <LongitudeDegrees>-3.66947122849524021148681640625</LongitudeDegrees>
            </Position>
            <AltitudeMeters>674.79998779296875</AltitudeMeters>
            <DistanceMeters>13337.944480934</DistanceMeters>
          </Trackpoint>
          <Trackpoint>
            <Time>2021-09-26T08:36:18.000Z</Time>
            <Position>
              <LatitudeDegrees>40.42129344306886196136474609375</LatitudeDegrees>
              <LongitudeDegrees>-3.66950609721243381500244140625</LongitudeDegrees>
            </Position>
            <AltitudeMeters>675.20001220703125</AltitudeMeters>
            <DistanceMeters>13340.910167104</DistanceMeters>
          </Trackpoint>
          <Trackpoint>
            <Time>2021-09-26T08:36:23.000Z</Time>
            <Position>
              <LatitudeDegrees>40.42129327543079853057861328125</LatitudeDegrees>
              <LongitudeDegrees>-3.66968982852995395660400390625</LongitudeDegrees>
            </Position>
            <AltitudeMeters>676.4000244140625</AltitudeMeters>
            <DistanceMeters>13356.478895758</DistanceMeters>
          </Trackpoint>
          <Trackpoint>
            <Time>2021-09-26T08:36:26.000Z</Time>
            <Position>
              <LatitudeDegrees>40.42130785994231700897216796875</LatitudeDegrees>
              <LongitudeDegrees>-3.66977398283779621124267578125</LongitudeDegrees>
            </Position>
            <AltitudeMeters>677</AltitudeMeters>
            <DistanceMeters>13363.792249488</DistanceMeters>
          </Trackpoint>
          <Trackpoint>
            <Time>2021-09-26T08:36:28.000Z</Time>
            <Position>
              <LatitudeDegrees>40.4213004000484943389892578125</LatitudeDegrees>
              <LongitudeDegrees>-3.66982863284647464752197265625</LongitudeDegrees>
            </Position>
            <AltitudeMeters>677.4000244140625</AltitudeMeters>
            <DistanceMeters>13368.497751314</DistanceMeters>
          </Trackpoint>
          <Trackpoint>
            <Time>2021-09-26T08:36:34.000Z</Time>
            <Position>
              <LatitudeDegrees>40.4212625138461589813232421875</LatitudeDegrees>
              <LongitudeDegrees>-3.6700027249753475189208984375</LongitudeDegrees>
            </Position>
            <AltitudeMeters>678.79998779296875</AltitudeMeters>
            <DistanceMeters>13383.840372757</DistanceMeters>
          </Trackpoint>
          <Trackpoint>
            <Time>2021-09-26T08:36:41.000Z</Time>
            <Position>
              <LatitudeDegrees>40.4212504439055919647216796875</LatitudeDegrees>
              <LongitudeDegrees>-3.67020984180271625518798828125</LongitudeDegrees>
            </Position>
            <AltitudeMeters>680.20001220703125</AltitudeMeters>
            <DistanceMeters>13401.441618811</DistanceMeters>
          </Trackpoint>
          <Trackpoint>
            <Time>2021-09-26T08:36:43.000Z</Time>
            <Position>
              <LatitudeDegrees>40.4212532937526702880859375</LatitudeDegrees>
              <LongitudeDegrees>-3.670275472104549407958984375</LongitudeDegrees>
            </Position>
            <AltitudeMeters>680.4000244140625</AltitudeMeters>
            <DistanceMeters>13407.011838076</DistanceMeters>
          </Trackpoint>
          <Trackpoint>
            <Time>2021-09-26T08:36:46.000Z</Time>
            <Position>
              <LatitudeDegrees>40.42127047665417194366455078125</LatitudeDegrees>
              <LongitudeDegrees>-3.6703487299382686614990234375</LongitudeDegrees>
            </Position>
            <AltitudeMeters>680.79998779296875</AltitudeMeters>
            <DistanceMeters>13413.507106904</DistanceMeters>
          </Trackpoint>
          <Trackpoint>
            <Time>2021-09-26T08:36:53.000Z</Time>
            <Position>
              <LatitudeDegrees>40.4212645255029201507568359375</LatitudeDegrees>
              <LongitudeDegrees>-3.67057017982006072998046875</LongitudeDegrees>
            </Position>
            <AltitudeMeters>682.20001220703125</AltitudeMeters>
            <DistanceMeters>13432.283000608</DistanceMeters>
          </Trackpoint>
          <Trackpoint>
            <Time>2021-09-26T08:36:59.000Z</Time>
            <Position>
              <LatitudeDegrees>40.4212541319429874420166015625</LatitudeDegrees>
              <LongitudeDegrees>-3.67076790891587734222412109375</LongitudeDegrees>
            </Position>
            <AltitudeMeters>683.4000244140625</AltitudeMeters>
            <DistanceMeters>13449.07720817</DistanceMeters>
          </Trackpoint>
          <Trackpoint>
            <Time>2021-09-26T08:37:07.000Z</Time>
            <Position>
              <LatitudeDegrees>40.42126201093196868896484375</LatitudeDegrees>
              <LongitudeDegrees>-3.6710249818861484527587890625</LongitudeDegrees>
            </Position>
            <AltitudeMeters>685</AltitudeMeters>
            <DistanceMeters>13470.877504573</DistanceMeters>
          </Trackpoint>
          <Trackpoint>
            <Time>2021-09-26T08:37:09.000Z</Time>
            <Position>
              <LatitudeDegrees>40.42127097956836223602294921875</LatitudeDegrees>
              <LongitudeDegrees>-3.67109228856861591339111328125</LongitudeDegrees>
            </Position>
            <AltitudeMeters>685</AltitudeMeters>
            <DistanceMeters>13476.667119738</DistanceMeters>
          </Trackpoint>
          <Trackpoint>
            <Time>2021-09-26T08:37:16.000Z</Time>
            <Position>
              <LatitudeDegrees>40.42127751745283603668212890625</LatitudeDegrees>
              <LongitudeDegrees>-3.67130787111818790435791015625</LongitudeDegrees>
            </Position>
            <AltitudeMeters>685.4000244140625</AltitudeMeters>
            <DistanceMeters>13494.94883709</DistanceMeters>
          </Trackpoint>
          <Trackpoint>
            <Time>2021-09-26T08:37:17.000Z</Time>
            <Position>
              <LatitudeDegrees>40.42126863263547420501708984375</LatitudeDegrees>
              <LongitudeDegrees>-3.67133595049381256103515625</LongitudeDegrees>
            </Position>
            <AltitudeMeters>685.4000244140625</AltitudeMeters>
            <DistanceMeters>13497.525095265</DistanceMeters>
          </Trackpoint>
          <Trackpoint>
            <Time>2021-09-26T08:37:24.000Z</Time>
            <Position>
              <LatitudeDegrees>40.42120140977203845977783203125</LatitudeDegrees>
              <LongitudeDegrees>-3.67160710506141185760498046875</LongitudeDegrees>
            </Position>
            <AltitudeMeters>685.79998779296875</AltitudeMeters>
            <DistanceMeters>13521.688615555</DistanceMeters>
          </Trackpoint>
          <Trackpoint>
            <Time>2021-09-26T08:37:26.000Z</Time>
            <Position>
              <LatitudeDegrees>40.42118146084249019622802734375</LatitudeDegrees>
              <LongitudeDegrees>-3.67167390882968902587890625</LongitudeDegrees>
            </Position>
            <AltitudeMeters>685.79998779296875</AltitudeMeters>
            <DistanceMeters>13527.768840301</DistanceMeters>
          </Trackpoint>
          <Trackpoint>
            <Time>2021-09-26T08:37:31.000Z</Time>
            <Position>
              <LatitudeDegrees>40.4211746715009212493896484375</LatitudeDegrees>
              <LongitudeDegrees>-3.67182947695255279541015625</LongitudeDegrees>
            </Position>
            <AltitudeMeters>686.20001220703125</AltitudeMeters>
            <DistanceMeters>13540.971741334</DistanceMeters>
          </Trackpoint>
          <Trackpoint>
            <Time>2021-09-26T08:37:37.000Z</Time>
            <Position>
              <LatitudeDegrees>40.42119537480175495147705078125</LatitudeDegrees>
              <LongitudeDegrees>-3.67199317552149295806884765625</LongitudeDegrees>
            </Position>
            <AltitudeMeters>686.79998779296875</AltitudeMeters>
            <DistanceMeters>13555.032484332</DistanceMeters>
          </Trackpoint>
          <Trackpoint>
            <Time>2021-09-26T08:37:38.000Z</Time>
            <Position>
              <LatitudeDegrees>40.42117324657738208770751953125</LatitudeDegrees>
              <LongitudeDegrees>-3.6720328219234943389892578125</LongitudeDegrees>
            </Position>
            <AltitudeMeters>686.79998779296875</AltitudeMeters>
            <DistanceMeters>13559.198514448</DistanceMeters>
          </Trackpoint>
          <Trackpoint>
            <Time>2021-09-26T08:37:41.000Z</Time>
            <Position>
              <LatitudeDegrees>40.42112295515835285186767578125</LatitudeDegrees>
              <LongitudeDegrees>-3.67213784717023372650146484375</LongitudeDegrees>
            </Position>
            <AltitudeMeters>686.79998779296875</AltitudeMeters>
            <DistanceMeters>13569.711750661</DistanceMeters>
          </Trackpoint>
          <Trackpoint>
            <Time>2021-09-26T08:37:44.000Z</Time>
            <Position>
              <LatitudeDegrees>40.42112865485250949859619140625</LatitudeDegrees>
              <LongitudeDegrees>-3.67222636006772518157958984375</LongitudeDegrees>
            </Position>
            <AltitudeMeters>686.79998779296875</AltitudeMeters>
            <DistanceMeters>13577.238682281</DistanceMeters>
          </Trackpoint>
          <Trackpoint>
            <Time>2021-09-26T08:37:45.000Z</Time>
            <Position>
              <LatitudeDegrees>40.42111993767321109771728515625</LatitudeDegrees>
              <LongitudeDegrees>-3.6722520925104618072509765625</LongitudeDegrees>
            </Position>
            <AltitudeMeters>686.79998779296875</AltitudeMeters>
            <DistanceMeters>13579.621940152</DistanceMeters>
          </Trackpoint>
          <Trackpoint>
            <Time>2021-09-26T08:37:49.000Z</Time>
            <Position>
              <LatitudeDegrees>40.42106428183615207672119140625</LatitudeDegrees>
              <LongitudeDegrees>-3.672385029494762420654296875</LongitudeDegrees>
            </Position>
            <AltitudeMeters>686.5999755859375</AltitudeMeters>
            <DistanceMeters>13592.476915801</DistanceMeters>
          </Trackpoint>
          <Trackpoint>
            <Time>2021-09-26T08:37:51.000Z</Time>
            <Position>
              <LatitudeDegrees>40.42107291519641876220703125</LatitudeDegrees>
              <LongitudeDegrees>-3.67245451547205448150634765625</LongitudeDegrees>
            </Position>
            <AltitudeMeters>686.79998779296875</AltitudeMeters>
            <DistanceMeters>13598.44320119</DistanceMeters>
          </Trackpoint>
          <Trackpoint>
            <Time>2021-09-26T08:37:58.000Z</Time>
            <Position>
              <LatitudeDegrees>40.42112798430025577545166015625</LatitudeDegrees>
              <LongitudeDegrees>-3.672682084143161773681640625</LongitudeDegrees>
            </Position>
            <AltitudeMeters>686.79998779296875</AltitudeMeters>
            <DistanceMeters>13618.676751934</DistanceMeters>
          </Trackpoint>
          <Trackpoint>
            <Time>2021-09-26T08:38:05.000Z</Time>
            <Position>
              <LatitudeDegrees>40.42118732817471027374267578125</LatitudeDegrees>
              <LongitudeDegrees>-3.6728854291141033172607421875</LongitudeDegrees>
            </Position>
            <AltitudeMeters>689</AltitudeMeters>
            <DistanceMeters>13637.12955992</DistanceMeters>
          </Trackpoint>
          <Trackpoint>
            <Time>2021-09-26T08:38:13.000Z</Time>
            <Position>
              <LatitudeDegrees>40.4212263040244579315185546875</LatitudeDegrees>
              <LongitudeDegrees>-3.67313412018120288848876953125</LongitudeDegrees>
            </Position>
            <AltitudeMeters>692.79998779296875</AltitudeMeters>
            <DistanceMeters>13658.644036173</DistanceMeters>
          </Trackpoint>
          <Trackpoint>
            <Time>2021-09-26T08:38:14.000Z</Time>
            <Position>
              <LatitudeDegrees>40.4212372004985809326171875</LatitudeDegrees>
              <LongitudeDegrees>-3.673162199556827545166015625</LongitudeDegrees>
            </Position>
            <AltitudeMeters>693.20001220703125</AltitudeMeters>
            <DistanceMeters>13661.314946203</DistanceMeters>
          </Trackpoint>
          <Trackpoint>
            <Time>2021-09-26T08:38:21.000Z</Time>
            <Position>
              <LatitudeDegrees>40.4212963767349720001220703125</LatitudeDegrees>
              <LongitudeDegrees>-3.67338473908603191375732421875</LongitudeDegrees>
            </Position>
            <AltitudeMeters>696.79998779296875</AltitudeMeters>
            <DistanceMeters>13681.288648346</DistanceMeters>
          </Trackpoint>
          <Trackpoint>
            <Time>2021-09-26T08:38:29.000Z</Time>
            <Position>
              <LatitudeDegrees>40.4213064350187778472900390625</LatitudeDegrees>
              <LongitudeDegrees>-3.6736347712576389312744140625</LongitudeDegrees>
            </Position>
            <AltitudeMeters>699</AltitudeMeters>
            <DistanceMeters>13702.504519538</DistanceMeters>
          </Trackpoint>
          <Trackpoint>
            <Time>2021-09-26T08:38:36.000Z</Time>
            <Position>
              <LatitudeDegrees>40.42129394598305225372314453125</LatitudeDegrees>
              <LongitudeDegrees>-3.67384172044694423675537109375</LongitudeDegrees>
            </Position>
            <AltitudeMeters>699</AltitudeMeters>
            <DistanceMeters>13720.095501875</DistanceMeters>
          </Trackpoint>
          <Trackpoint>
            <Time>2021-09-26T08:38:42.000Z</Time>
            <Position>
              <LatitudeDegrees>40.42134339921176433563232421875</LatitudeDegrees>
              <LongitudeDegrees>-3.67401338182389736175537109375</LongitudeDegrees>
            </Position>
            <AltitudeMeters>699</AltitudeMeters>
            <DistanceMeters>13735.647691353</DistanceMeters>
          </Trackpoint>
          <Trackpoint>
            <Time>2021-09-26T08:38:48.000Z</Time>
            <Position>
              <LatitudeDegrees>40.4213278926908969879150390625</LatitudeDegrees>
              <LongitudeDegrees>-3.674200214445590972900390625</LongitudeDegrees>
            </Position>
            <AltitudeMeters>699</AltitudeMeters>
            <DistanceMeters>13751.57253568</DistanceMeters>
          </Trackpoint>
          <Trackpoint>
            <Time>2021-09-26T08:38:56.000Z</Time>
            <Position>
              <LatitudeDegrees>40.42136368341743946075439453125</LatitudeDegrees>
              <LongitudeDegrees>-3.6744578741490840911865234375</LongitudeDegrees>
            </Position>
            <AltitudeMeters>699</AltitudeMeters>
            <DistanceMeters>13773.765698807</DistanceMeters>
          </Trackpoint>
          <Trackpoint>
            <Time>2021-09-26T08:39:04.000Z</Time>
            <Position>
              <LatitudeDegrees>40.42138765566051006317138671875</LatitudeDegrees>
              <LongitudeDegrees>-3.6747227422893047332763671875</LongitudeDegrees>
            </Position>
            <AltitudeMeters>699.4000244140625</AltitudeMeters>
            <DistanceMeters>13796.366879402</DistanceMeters>
          </Trackpoint>
          <Trackpoint>
            <Time>2021-09-26T08:39:11.000Z</Time>
            <Position>
              <LatitudeDegrees>40.42136728763580322265625</LatitudeDegrees>
              <LongitudeDegrees>-3.67496422491967678070068359375</LongitudeDegrees>
            </Position>
            <AltitudeMeters>699.5999755859375</AltitudeMeters>
            <DistanceMeters>13816.953929649</DistanceMeters>
          </Trackpoint>
          <Trackpoint>
            <Time>2021-09-26T08:39:20.000Z</Time>
            <Position>
              <LatitudeDegrees>40.4213989712297916412353515625</LatitudeDegrees>
              <LongitudeDegrees>-3.67520830594003200531005859375</LongitudeDegrees>
            </Position>
            <AltitudeMeters>699.79998779296875</AltitudeMeters>
            <DistanceMeters>13837.93439929</DistanceMeters>
          </Trackpoint>
          <Trackpoint>
            <Time>2021-09-26T08:39:21.000Z</Time>
            <Position>
              <LatitudeDegrees>40.42140274308621883392333984375</LatitudeDegrees>
              <LongitudeDegrees>-3.67524183355271816253662109375</LongitudeDegrees>
            </Position>
            <AltitudeMeters>699.5999755859375</AltitudeMeters>
            <DistanceMeters>13840.805716025</DistanceMeters>
          </Trackpoint>
          <Trackpoint>
            <Time>2021-09-26T08:39:29.000Z</Time>
            <Position>
              <LatitudeDegrees>40.42142353020608425140380859375</LatitudeDegrees>
              <LongitudeDegrees>-3.67548532783985137939453125</LongitudeDegrees>
            </Position>
            <AltitudeMeters>699</AltitudeMeters>
            <DistanceMeters>13861.567041582</DistanceMeters>
          </Trackpoint>
          <Trackpoint>
            <Time>2021-09-26T08:39:30.000Z</Time>
            <Position>
              <LatitudeDegrees>40.4214241169393062591552734375</LatitudeDegrees>
              <LongitudeDegrees>-3.67551541887223720550537109375</LongitudeDegrees>
            </Position>
            <AltitudeMeters>699</AltitudeMeters>
            <DistanceMeters>13864.118646002</DistanceMeters>
          </Trackpoint>
          <Trackpoint>
            <Time>2021-09-26T08:39:38.000Z</Time>
            <Position>
              <LatitudeDegrees>40.4214609973132610321044921875</LatitudeDegrees>
              <LongitudeDegrees>-3.675765953958034515380859375</LongitudeDegrees>
            </Position>
            <AltitudeMeters>698.20001220703125</AltitudeMeters>
            <DistanceMeters>13885.74093029</DistanceMeters>
          </Trackpoint>
          <Trackpoint>
            <Time>2021-09-26T08:39:39.000Z</Time>
            <Position>
              <LatitudeDegrees>40.42146527208387851715087890625</LatitudeDegrees>
              <LongitudeDegrees>-3.67580442689359188079833984375</LongitudeDegrees>
            </Position>
            <AltitudeMeters>698.20001220703125</AltitudeMeters>
            <DistanceMeters>13889.03549428</DistanceMeters>
          </Trackpoint>
          <Trackpoint>
            <Time>2021-09-26T08:39:47.000Z</Time>
            <Position>
              <LatitudeDegrees>40.421451441943645477294921875</LatitudeDegrees>
              <LongitudeDegrees>-3.6760599911212921142578125</LongitudeDegrees>
            </Position>
            <AltitudeMeters>697.5999755859375</AltitudeMeters>
            <DistanceMeters>13910.744887403</DistanceMeters>
          </Trackpoint>
          <Trackpoint>
            <Time>2021-09-26T08:39:53.000Z</Time>
            <Position>
              <LatitudeDegrees>40.421455800533294677734375</LatitudeDegrees>
              <LongitudeDegrees>-3.67626291699707508087158203125</LongitudeDegrees>
            </Position>
            <AltitudeMeters>697.20001220703125</AltitudeMeters>
            <DistanceMeters>13927.946560139</DistanceMeters>
          </Trackpoint>
          <Trackpoint>
            <Time>2021-09-26T08:40:01.000Z</Time>
            <Position>
              <LatitudeDegrees>40.42146443389356136322021484375</LatitudeDegrees>
              <LongitudeDegrees>-3.67653147317469120025634765625</LongitudeDegrees>
            </Position>
            <AltitudeMeters>696.4000244140625</AltitudeMeters>
            <DistanceMeters>13950.722463445</DistanceMeters>
          </Trackpoint>
          <Trackpoint>
            <Time>2021-09-26T08:40:09.000Z</Time>
            <Position>
              <LatitudeDegrees>40.421493351459503173828125</LatitudeDegrees>
              <LongitudeDegrees>-3.6767602153122425079345703125</LongitudeDegrees>
            </Position>
            <AltitudeMeters>696</AltitudeMeters>
            <DistanceMeters>13970.370026599</DistanceMeters>
          </Trackpoint>
          <Trackpoint>
            <Time>2021-09-26T08:40:17.000Z</Time>
            <Position>
              <LatitudeDegrees>40.421510450541973114013671875</LatitudeDegrees>
              <LongitudeDegrees>-3.6769989319145679473876953125</LongitudeDegrees>
            </Position>
            <AltitudeMeters>696.5999755859375</AltitudeMeters>
            <DistanceMeters>13990.686640349</DistanceMeters>
          </Trackpoint>
          <Trackpoint>
            <Time>2021-09-26T08:40:24.000Z</Time>
            <Position>
              <LatitudeDegrees>40.42152880690991878509521484375</LatitudeDegrees>
              <LongitudeDegrees>-3.67724309675395488739013671875</LongitudeDegrees>
            </Position>
            <AltitudeMeters>697.79998779296875</AltitudeMeters>
            <DistanceMeters>14011.476001059</DistanceMeters>
          </Trackpoint>
          <Trackpoint>
            <Time>2021-09-26T08:40:27.000Z</Time>
            <Position>
              <LatitudeDegrees>40.42153517715632915496826171875</LatitudeDegrees>
              <LongitudeDegrees>-3.6773536540567874908447265625</LongitudeDegrees>
            </Position>
            <AltitudeMeters>698.4000244140625</AltitudeMeters>
            <DistanceMeters>14020.870678657</DistanceMeters>
          </Trackpoint>
          <Trackpoint>
            <Time>2021-09-26T08:40:28.000Z</Time>
            <Position>
              <LatitudeDegrees>40.421541295945644378662109375</LatitudeDegrees>
              <LongitudeDegrees>-3.677384667098522186279296875</LongitudeDegrees>
            </Position>
            <AltitudeMeters>698.5999755859375</AltitudeMeters>
            <DistanceMeters>14023.585184575</DistanceMeters>
          </Trackpoint>
          <Trackpoint>
            <Time>2021-09-26T08:40:30.000Z</Time>
            <Position>
              <LatitudeDegrees>40.42156015522778034210205078125</LatitudeDegrees>
              <LongitudeDegrees>-3.67745415307581424713134765625</LongitudeDegrees>
            </Position>
            <AltitudeMeters>698.79998779296875</AltitudeMeters>
            <DistanceMeters>14029.836035779</DistanceMeters>
          </Trackpoint>
          <Trackpoint>
            <Time>2021-09-26T08:40:31.000Z</Time>
            <Position>
              <LatitudeDegrees>40.42156417854130268096923828125</LatitudeDegrees>
              <LongitudeDegrees>-3.67749488912522792816162109375</LongitudeDegrees>
            </Position>
            <AltitudeMeters>698.79998779296875</AltitudeMeters>
            <DistanceMeters>14033.317179641</DistanceMeters>
          </Trackpoint>
          <Trackpoint>
            <Time>2021-09-26T08:40:35.000Z</Time>
            <Position>
              <LatitudeDegrees>40.42154070921242237091064453125</LatitudeDegrees>
              <LongitudeDegrees>-3.6776118166744709014892578125</LongitudeDegrees>
            </Position>
            <AltitudeMeters>699</AltitudeMeters>
            <DistanceMeters>14043.562892825</DistanceMeters>
          </Trackpoint>
          <Trackpoint>
            <Time>2021-09-26T08:40:40.000Z</Time>
            <Position>
              <LatitudeDegrees>40.4215287230908870697021484375</LatitudeDegrees>
              <LongitudeDegrees>-3.67777551524341106414794921875</LongitudeDegrees>
            </Position>
            <AltitudeMeters>699</AltitudeMeters>
            <DistanceMeters>14057.497192366</DistanceMeters>
          </Trackpoint>
          <Trackpoint>
            <Time>2021-09-26T08:40:47.000Z</Time>
            <Position>
              <LatitudeDegrees>40.4215054214000701904296875</LatitudeDegrees>
              <LongitudeDegrees>-3.6780007369816303253173828125</LongitudeDegrees>
            </Position>
            <AltitudeMeters>699.20001220703125</AltitudeMeters>
            <DistanceMeters>14076.756460785</DistanceMeters>
          </Trackpoint>
          <Trackpoint>
            <Time>2021-09-26T08:40:55.000Z</Time>
            <Position>
              <LatitudeDegrees>40.4215163178741931915283203125</LatitudeDegrees>
              <LongitudeDegrees>-3.67823517881333827972412109375</LongitudeDegrees>
            </Position>
            <AltitudeMeters>699</AltitudeMeters>
            <DistanceMeters>14096.658603211</DistanceMeters>
          </Trackpoint>
          <Trackpoint>
            <Time>2021-09-26T08:40:56.000Z</Time>
            <Position>
              <LatitudeDegrees>40.42151606641709804534912109375</LatitudeDegrees>
              <LongitudeDegrees>-3.6782729811966419219970703125</LongitudeDegrees>
            </Position>
            <AltitudeMeters>699</AltitudeMeters>
            <DistanceMeters>14099.861440522</DistanceMeters>
          </Trackpoint>
          <Trackpoint>
            <Time>2021-09-26T08:41:01.000Z</Time>
            <Position>
              <LatitudeDegrees>40.4214975424110889434814453125</LatitudeDegrees>
              <LongitudeDegrees>-3.67840893566608428955078125</LongitudeDegrees>
            </Position>
            <AltitudeMeters>699.20001220703125</AltitudeMeters>
            <DistanceMeters>14111.564010297</DistanceMeters>
          </Trackpoint>
          <Trackpoint>
            <Time>2021-09-26T08:41:09.000Z</Time>
            <Position>
              <LatitudeDegrees>40.4215307347476482391357421875</LatitudeDegrees>
              <LongitudeDegrees>-3.6786496639251708984375</LongitudeDegrees>
            </Position>
            <AltitudeMeters>699.20001220703125</AltitudeMeters>
            <DistanceMeters>14132.293778212</DistanceMeters>
          </Trackpoint>
          <Trackpoint>
            <Time>2021-09-26T08:41:14.000Z</Time>
            <Position>
              <LatitudeDegrees>40.421576835215091705322265625</LatitudeDegrees>
              <LongitudeDegrees>-3.678783439099788665771484375</LongitudeDegrees>
            </Position>
            <AltitudeMeters>699</AltitudeMeters>
            <DistanceMeters>14144.736473283</DistanceMeters>
          </Trackpoint>
          <Trackpoint>
            <Time>2021-09-26T08:41:19.000Z</Time>
            <Position>
              <LatitudeDegrees>40.42161882854998111724853515625</LatitudeDegrees>
              <LongitudeDegrees>-3.6788791604340076446533203125</LongitudeDegrees>
            </Position>
            <AltitudeMeters>699</AltitudeMeters>
            <DistanceMeters>14154.097448757</DistanceMeters>
          </Trackpoint>
          <Trackpoint>
            <Time>2021-09-26T08:41:26.000Z</Time>
            <Position>
              <LatitudeDegrees>40.4216470755636692047119140625</LatitudeDegrees>
              <LongitudeDegrees>-3.6789820902049541473388671875</LongitudeDegrees>
            </Position>
            <AltitudeMeters>698.79998779296875</AltitudeMeters>
            <DistanceMeters>14163.368277608</DistanceMeters>
          </Trackpoint>
          <Trackpoint>
            <Time>2021-09-26T08:41:28.000Z</Time>
            <Position>
              <LatitudeDegrees>40.42164967395365238189697265625</LatitudeDegrees>
              <LongitudeDegrees>-3.67903933860361576080322265625</LongitudeDegrees>
            </Position>
            <AltitudeMeters>698.79998779296875</AltitudeMeters>
            <DistanceMeters>14168.227665419</DistanceMeters>
          </Trackpoint>
          <Trackpoint>
            <Time>2021-09-26T08:41:31.000Z</Time>
            <Position>
              <LatitudeDegrees>40.42160709388554096221923828125</LatitudeDegrees>
              <LongitudeDegrees>-3.6791775561869144439697265625</LongitudeDegrees>
            </Position>
            <AltitudeMeters>699</AltitudeMeters>
            <DistanceMeters>14180.861573414</DistanceMeters>
          </Trackpoint>
          <Trackpoint>
            <Time>2021-09-26T08:41:37.000Z</Time>
            <Position>
              <LatitudeDegrees>40.42156987823545932769775390625</LatitudeDegrees>
              <LongitudeDegrees>-3.67938919924199581146240234375</LongitudeDegrees>
            </Position>
            <AltitudeMeters>699</AltitudeMeters>
            <DistanceMeters>14199.266852215</DistanceMeters>
          </Trackpoint>
          <Trackpoint>
            <Time>2021-09-26T08:41:43.000Z</Time>
            <Position>
              <LatitudeDegrees>40.42150852270424365997314453125</LatitudeDegrees>
              <LongitudeDegrees>-3.6796221323311328887939453125</LongitudeDegrees>
            </Position>
            <AltitudeMeters>699</AltitudeMeters>
            <DistanceMeters>14220.152202167</DistanceMeters>
          </Trackpoint>
          <Trackpoint>
            <Time>2021-09-26T08:41:44.000Z</Time>
            <Position>
              <LatitudeDegrees>40.42150936089456081390380859375</LatitudeDegrees>
              <LongitudeDegrees>-3.67967518977820873260498046875</LongitudeDegrees>
            </Position>
            <AltitudeMeters>699</AltitudeMeters>
            <DistanceMeters>14224.649687157</DistanceMeters>
          </Trackpoint>
          <Trackpoint>
            <Time>2021-09-26T08:41:48.000Z</Time>
            <Position>
              <LatitudeDegrees>40.42157826013863086700439453125</LatitudeDegrees>
              <LongitudeDegrees>-3.6798360385000705718994140625</LongitudeDegrees>
            </Position>
            <AltitudeMeters>698.5999755859375</AltitudeMeters>
            <DistanceMeters>14240.288439997</DistanceMeters>
          </Trackpoint>
          <Trackpoint>
            <Time>2021-09-26T08:41:50.000Z</Time>
            <Position>
              <LatitudeDegrees>40.421615056693553924560546875</LatitudeDegrees>
              <LongitudeDegrees>-3.67986797355115413665771484375</LongitudeDegrees>
            </Position>
            <AltitudeMeters>698.4000244140625</AltitudeMeters>
            <DistanceMeters>14245.196825063</DistanceMeters>
          </Trackpoint>
          <Trackpoint>
            <Time>2021-09-26T08:41:53.000Z</Time>
            <Position>
              <LatitudeDegrees>40.42169845663011074066162109375</LatitudeDegrees>
              <LongitudeDegrees>-3.6799493618309497833251953125</LongitudeDegrees>
            </Position>
            <AltitudeMeters>698.4000244140625</AltitudeMeters>
            <DistanceMeters>14256.761228728</DistanceMeters>
          </Trackpoint>
          <Trackpoint>
            <Time>2021-09-26T08:41:58.000Z</Time>
            <Position>
              <LatitudeDegrees>40.42187665589153766632080078125</LatitudeDegrees>
              <LongitudeDegrees>-3.68002991192042827606201171875</LongitudeDegrees>
            </Position>
            <AltitudeMeters>698.5999755859375</AltitudeMeters>
            <DistanceMeters>14277.73674814</DistanceMeters>
          </Trackpoint>
          <Trackpoint>
            <Time>2021-09-26T08:42:03.000Z</Time>
            <Position>
              <LatitudeDegrees>40.42206089012324810028076171875</LatitudeDegrees>
              <LongitudeDegrees>-3.6801220290362834930419921875</LongitudeDegrees>
            </Position>
            <AltitudeMeters>698.79998779296875</AltitudeMeters>
            <DistanceMeters>14299.677838253</DistanceMeters>
          </Trackpoint>
          <Trackpoint>
            <Time>2021-09-26T08:42:11.000Z</Time>
            <Position>
              <LatitudeDegrees>40.42224193923175334930419921875</LatitudeDegrees>
              <LongitudeDegrees>-3.680245243012905120849609375</LongitudeDegrees>
            </Position>
            <AltitudeMeters>697.79998779296875</AltitudeMeters>
            <DistanceMeters>14322.372716535</DistanceMeters>
          </Trackpoint>
          <Trackpoint>
            <Time>2021-09-26T08:42:18.000Z</Time>
            <Position>
              <LatitudeDegrees>40.42243606410920619964599609375</LatitudeDegrees>
              <LongitudeDegrees>-3.68034808896481990814208984375</LongitudeDegrees>
            </Position>
            <AltitudeMeters>694.79998779296875</AltitudeMeters>
            <DistanceMeters>14345.670352357</DistanceMeters>
          </Trackpoint>
          <Trackpoint>
            <Time>2021-09-26T08:42:19.000Z</Time>
            <Position>
              <LatitudeDegrees>40.422458611428737640380859375</LatitudeDegrees>
              <LongitudeDegrees>-3.6803754977881908416748046875</LongitudeDegrees>
            </Position>
            <AltitudeMeters>694.4000244140625</AltitudeMeters>
            <DistanceMeters>14349.091314074</DistanceMeters>
          </Trackpoint>
          <Trackpoint>
            <Time>2021-09-26T08:42:26.000Z</Time>
            <Position>
              <LatitudeDegrees>40.42263153009116649627685546875</LatitudeDegrees>
              <LongitudeDegrees>-3.6804096959531307220458984375</LongitudeDegrees>
            </Position>
            <AltitudeMeters>692.20001220703125</AltitudeMeters>
            <DistanceMeters>14368.554399822</DistanceMeters>
          </Trackpoint>
          <Trackpoint>
            <Time>2021-09-26T08:42:33.000Z</Time>
            <Position>
              <LatitudeDegrees>40.42277611792087554931640625</LatitudeDegrees>
              <LongitudeDegrees>-3.68038899265229701995849609375</LongitudeDegrees>
            </Position>
            <AltitudeMeters>690.5999755859375</AltitudeMeters>
            <DistanceMeters>14384.742724271</DistanceMeters>
          </Trackpoint>
          <Trackpoint>
            <Time>2021-09-26T08:42:40.000Z</Time>
            <Position>
              <LatitudeDegrees>40.42293814010918140411376953125</LatitudeDegrees>
              <LongitudeDegrees>-3.68037457577884197235107421875</LongitudeDegrees>
            </Position>
            <AltitudeMeters>689.20001220703125</AltitudeMeters>
            <DistanceMeters>14402.817794555</DistanceMeters>
          </Trackpoint>
          <Trackpoint>
            <Time>2021-09-26T08:42:49.000Z</Time>
            <Position>
              <LatitudeDegrees>40.423124134540557861328125</LatitudeDegrees>
              <LongitudeDegrees>-3.6803936026990413665771484375</LongitudeDegrees>
            </Position>
            <AltitudeMeters>689</AltitudeMeters>
            <DistanceMeters>14423.582164518</DistanceMeters>
          </Trackpoint>
          <Trackpoint>
            <Time>2021-09-26T08:42:58.000Z</Time>
            <Position>
              <LatitudeDegrees>40.42332462966442108154296875</LatitudeDegrees>
              <LongitudeDegrees>-3.68037273176014423370361328125</LongitudeDegrees>
            </Position>
            <AltitudeMeters>689.20001220703125</AltitudeMeters>
            <DistanceMeters>14445.967763955</DistanceMeters>
          </Trackpoint>
          <Trackpoint>
            <Time>2021-09-26T08:43:04.000Z</Time>
            <Position>
              <LatitudeDegrees>40.4234485141932964324951171875</LatitudeDegrees>
              <LongitudeDegrees>-3.68039888329803943634033203125</LongitudeDegrees>
            </Position>
            <AltitudeMeters>689.4000244140625</AltitudeMeters>
            <DistanceMeters>14459.933458393</DistanceMeters>
          </Trackpoint>
          <Trackpoint>
            <Time>2021-09-26T08:43:09.000Z</Time>
            <Position>
              <LatitudeDegrees>40.42356108315289020538330078125</LatitudeDegrees>
              <LongitudeDegrees>-3.6804499290883541107177734375</LongitudeDegrees>
            </Position>
            <AltitudeMeters>689.4000244140625</AltitudeMeters>
            <DistanceMeters>14473.188237429</DistanceMeters>
          </Trackpoint>
          <Trackpoint>
            <Time>2021-09-26T08:43:15.000Z</Time>
            <Position>
              <LatitudeDegrees>40.4236483387649059295654296875</LatitudeDegrees>
              <LongitudeDegrees>-3.68042587302625179290771484375</LongitudeDegrees>
            </Position>
            <AltitudeMeters>689.5999755859375</AltitudeMeters>
            <DistanceMeters>14483.112047871</DistanceMeters>
          </Trackpoint>
          <Trackpoint>
            <Time>2021-09-26T08:43:19.000Z</Time>
            <Position>
              <LatitudeDegrees>40.42373475618660449981689453125</LatitudeDegrees>
              <LongitudeDegrees>-3.68038128130137920379638671875</LongitudeDegrees>
            </Position>
            <AltitudeMeters>689.5999755859375</AltitudeMeters>
            <DistanceMeters>14493.445957297</DistanceMeters>
          </Trackpoint>
          <Trackpoint>
            <Time>2021-09-26T08:43:21.000Z</Time>
            <Position>
              <LatitudeDegrees>40.42377817444503307342529296875</LatitudeDegrees>
              <LongitudeDegrees>-3.68035663850605487823486328125</LongitudeDegrees>
            </Position>
            <AltitudeMeters>689.79998779296875</AltitudeMeters>
            <DistanceMeters>14498.711157643</DistanceMeters>
          </Trackpoint>
          <Trackpoint>
            <Time>2021-09-26T08:43:28.000Z</Time>
            <Position>
              <LatitudeDegrees>40.4239182360470294952392578125</LatitudeDegrees>
              <LongitudeDegrees>-3.68028514087200164794921875</LongitudeDegrees>
            </Position>
            <AltitudeMeters>689.5999755859375</AltitudeMeters>
            <DistanceMeters>14515.435859372</DistanceMeters>
          </Trackpoint>
          <Trackpoint>
            <Time>2021-09-26T08:43:31.000Z</Time>
            <Position>
              <LatitudeDegrees>40.42397934012115001678466796875</LatitudeDegrees>
              <LongitudeDegrees>-3.6802413873374462127685546875</LongitudeDegrees>
            </Position>
            <AltitudeMeters>689.5999755859375</AltitudeMeters>
            <DistanceMeters>14523.181556752</DistanceMeters>
          </Trackpoint>
          <Trackpoint>
            <Time>2021-09-26T08:43:32.000Z</Time>
            <Position>
              <LatitudeDegrees>40.42400482110679149627685546875</LatitudeDegrees>
              <LongitudeDegrees>-3.6802159063518047332763671875</LongitudeDegrees>
            </Position>
            <AltitudeMeters>689.5999755859375</AltitudeMeters>
            <DistanceMeters>14526.747275141</DistanceMeters>
          </Trackpoint>
          <Trackpoint>
            <Time>2021-09-26T08:43:35.000Z</Time>
            <Position>
              <LatitudeDegrees>40.42407740838825702667236328125</LatitudeDegrees>
              <LongitudeDegrees>-3.680162094533443450927734375</LongitudeDegrees>
            </Position>
            <AltitudeMeters>689.5999755859375</AltitudeMeters>
            <DistanceMeters>14536.023946339</DistanceMeters>
          </Trackpoint>
          <Trackpoint>
            <Time>2021-09-26T08:43:37.000Z</Time>
            <Position>
              <LatitudeDegrees>40.4241294600069522857666015625</LatitudeDegrees>
              <LongitudeDegrees>-3.68016016669571399688720703125</LongitudeDegrees>
            </Position>
            <AltitudeMeters>689.4000244140625</AltitudeMeters>
            <DistanceMeters>14541.818238722</DistanceMeters>
          </Trackpoint>
          <Trackpoint>
            <Time>2021-09-26T08:43:40.000Z</Time>
            <Position>
              <LatitudeDegrees>40.42421034537255764007568359375</LatitudeDegrees>
              <LongitudeDegrees>-3.6801709793508052825927734375</LongitudeDegrees>
            </Position>
            <AltitudeMeters>689.20001220703125</AltitudeMeters>
            <DistanceMeters>14550.867257077</DistanceMeters>
          </Trackpoint>
          <Trackpoint>
            <Time>2021-09-26T08:43:41.000Z</Time>
            <Position>
              <LatitudeDegrees>40.42423725128173828125</LatitudeDegrees>
              <LongitudeDegrees>-3.68014859966933727264404296875</LongitudeDegrees>
            </Position>
            <AltitudeMeters>689.20001220703125</AltitudeMeters>
            <DistanceMeters>14554.412657817</DistanceMeters>
          </Trackpoint>
          <Trackpoint>
            <Time>2021-09-26T08:43:42.000Z</Time>
            <Position>
              <LatitudeDegrees>40.4242645762860774993896484375</LatitudeDegrees>
              <LongitudeDegrees>-3.68014122359454631805419921875</LongitudeDegrees>
            </Position>
            <AltitudeMeters>689.20001220703125</AltitudeMeters>
            <DistanceMeters>14557.516702206</DistanceMeters>
          </Trackpoint>
          <Trackpoint>
            <Time>2021-09-26T08:43:45.000Z</Time>
            <Position>
              <LatitudeDegrees>40.42434697039425373077392578125</LatitudeDegrees>
              <LongitudeDegrees>-3.680093027651309967041015625</LongitudeDegrees>
            </Position>
            <AltitudeMeters>689.20001220703125</AltitudeMeters>
            <DistanceMeters>14567.555409947</DistanceMeters>
          </Trackpoint>
          <Trackpoint>
            <Time>2021-09-26T08:43:52.000Z</Time>
            <Position>
              <LatitudeDegrees>40.42451108805835247039794921875</LatitudeDegrees>
              <LongitudeDegrees>-3.68007316254079341888427734375</LongitudeDegrees>
            </Position>
            <AltitudeMeters>689</AltitudeMeters>
            <DistanceMeters>14585.899750458</DistanceMeters>
          </Trackpoint>
          <Trackpoint>
            <Time>2021-09-26T08:43:54.000Z</Time>
            <Position>
              <LatitudeDegrees>40.424579568207263946533203125</LatitudeDegrees>
              <LongitudeDegrees>-3.68006092496216297149658203125</LongitudeDegrees>
            </Position>
            <AltitudeMeters>688.79998779296875</AltitudeMeters>
            <DistanceMeters>14593.591633248</DistanceMeters>
          </Trackpoint>
          <Trackpoint>
            <Time>2021-09-26T08:43:58.000Z</Time>
            <Position>
              <LatitudeDegrees>40.42469926178455352783203125</LatitudeDegrees>
              <LongitudeDegrees>-3.6800361983478069305419921875</LongitudeDegrees>
            </Position>
            <AltitudeMeters>688.5999755859375</AltitudeMeters>
            <DistanceMeters>14607.077393871</DistanceMeters>
          </Trackpoint>
          <Trackpoint>
            <Time>2021-09-26T08:44:04.000Z</Time>
            <Position>
              <LatitudeDegrees>40.424872599542140960693359375</LatitudeDegrees>
              <LongitudeDegrees>-3.68018782697618007659912109375</LongitudeDegrees>
            </Position>
            <AltitudeMeters>687.4000244140625</AltitudeMeters>
            <DistanceMeters>14630.256316585</DistanceMeters>
          </Trackpoint>
          <Trackpoint>
            <Time>2021-09-26T08:44:09.000Z</Time>
            <Position>
              <LatitudeDegrees>40.4249171912670135498046875</LatitudeDegrees>
              <LongitudeDegrees>-3.68037558160722255706787109375</LongitudeDegrees>
            </Position>
            <AltitudeMeters>687.20001220703125</AltitudeMeters>
            <DistanceMeters>14646.920978927</DistanceMeters>
          </Trackpoint>
          <Trackpoint>
            <Time>2021-09-26T08:44:15.000Z</Time>
            <Position>
              <LatitudeDegrees>40.4249425046145915985107421875</LatitudeDegrees>
              <LongitudeDegrees>-3.68062050081789493560791015625</LongitudeDegrees>
            </Position>
            <AltitudeMeters>686.79998779296875</AltitudeMeters>
            <DistanceMeters>14667.863107585</DistanceMeters>
          </Trackpoint>
          <Trackpoint>
            <Time>2021-09-26T08:44:16.000Z</Time>
            <Position>
              <LatitudeDegrees>40.424946360290050506591796875</LatitudeDegrees>
              <LongitudeDegrees>-3.68066509254276752471923828125</LongitudeDegrees>
            </Position>
            <AltitudeMeters>686.79998779296875</AltitudeMeters>
            <DistanceMeters>14671.665363808</DistanceMeters>
          </Trackpoint>
          <Trackpoint>
            <Time>2021-09-26T08:44:22.000Z</Time>
            <Position>
              <LatitudeDegrees>40.42498617433011531829833984375</LatitudeDegrees>
              <LongitudeDegrees>-3.68091654963791370391845703125</LongitudeDegrees>
            </Position>
            <AltitudeMeters>686.79998779296875</AltitudeMeters>
            <DistanceMeters>14693.427103835</DistanceMeters>
          </Trackpoint>
          <Trackpoint>
            <Time>2021-09-26T08:44:24.000Z</Time>
            <Position>
              <LatitudeDegrees>40.42500226758420467376708984375</LatitudeDegrees>
              <LongitudeDegrees>-3.68098310194909572601318359375</LongitudeDegrees>
            </Position>
            <AltitudeMeters>687</AltitudeMeters>
            <DistanceMeters>14699.343232324</DistanceMeters>
          </Trackpoint>
          <Trackpoint>
            <Time>2021-09-26T08:44:31.000Z</Time>
            <Position>
              <LatitudeDegrees>40.42501333169639110565185546875</LatitudeDegrees>
              <LongitudeDegrees>-3.681235648691654205322265625</LongitudeDegrees>
            </Position>
            <AltitudeMeters>686.79998779296875</AltitudeMeters>
            <DistanceMeters>14720.776760009</DistanceMeters>
          </Trackpoint>
          <Trackpoint>
            <Time>2021-09-26T08:44:35.000Z</Time>
            <Position>
              <LatitudeDegrees>40.42499690316617488861083984375</LatitudeDegrees>
              <LongitudeDegrees>-3.68140337057411670684814453125</LongitudeDegrees>
            </Position>
            <AltitudeMeters>686.5999755859375</AltitudeMeters>
            <DistanceMeters>14735.104696283</DistanceMeters>
          </Trackpoint>
          <Trackpoint>
            <Time>2021-09-26T08:44:44.000Z</Time>
            <Position>
              <LatitudeDegrees>40.42500595562160015106201171875</LatitudeDegrees>
              <LongitudeDegrees>-3.681646697223186492919921875</LongitudeDegrees>
            </Position>
            <AltitudeMeters>686</AltitudeMeters>
            <DistanceMeters>14755.746283599</DistanceMeters>
          </Trackpoint>
          <Trackpoint>
            <Time>2021-09-26T08:44:52.000Z</Time>
            <Position>
              <LatitudeDegrees>40.42500972747802734375</LatitudeDegrees>
              <LongitudeDegrees>-3.68187996558845043182373046875</LongitudeDegrees>
            </Position>
            <AltitudeMeters>685.5999755859375</AltitudeMeters>
            <DistanceMeters>14775.515266335</DistanceMeters>
          </Trackpoint>
          <Trackpoint>
            <Time>2021-09-26T08:45:00.000Z</Time>
            <Position>
              <LatitudeDegrees>40.425008721649646759033203125</LatitudeDegrees>
              <LongitudeDegrees>-3.68212572298943996429443359375</LongitudeDegrees>
            </Position>
            <AltitudeMeters>685.20001220703125</AltitudeMeters>
            <DistanceMeters>14796.338262772</DistanceMeters>
          </Trackpoint>
          <Trackpoint>
            <Time>2021-09-26T08:45:08.000Z</Time>
            <Position>
              <LatitudeDegrees>40.42500981129705905914306640625</LatitudeDegrees>
              <LongitudeDegrees>-3.6823948659002780914306640625</LongitudeDegrees>
            </Position>
            <AltitudeMeters>685</AltitudeMeters>
            <DistanceMeters>14819.142694412</DistanceMeters>
          </Trackpoint>
          <Trackpoint>
            <Time>2021-09-26T08:45:13.000Z</Time>
            <Position>
              <LatitudeDegrees>40.4250313527882099151611328125</LatitudeDegrees>
              <LongitudeDegrees>-3.68253895081579685211181640625</LongitudeDegrees>
            </Position>
            <AltitudeMeters>685.20001220703125</AltitudeMeters>
            <DistanceMeters>14831.584300836</DistanceMeters>
          </Trackpoint>
          <Trackpoint>
            <Time>2021-09-26T08:45:20.000Z</Time>
            <Position>
              <LatitudeDegrees>40.42505356483161449432373046875</LatitudeDegrees>
              <LongitudeDegrees>-3.68277565576136112213134765625</LongitudeDegrees>
            </Position>
            <AltitudeMeters>685.20001220703125</AltitudeMeters>
            <DistanceMeters>14851.791726619</DistanceMeters>
          </Trackpoint>
          <Trackpoint>
            <Time>2021-09-26T08:45:27.000Z</Time>
            <Position>
              <LatitudeDegrees>40.42507803998887538909912109375</LatitudeDegrees>
              <LongitudeDegrees>-3.68301470763981342315673828125</LongitudeDegrees>
            </Position>
            <AltitudeMeters>684.4000244140625</AltitudeMeters>
            <DistanceMeters>14872.228877982</DistanceMeters>
          </Trackpoint>
          <Trackpoint>
            <Time>2021-09-26T08:45:29.000Z</Time>
            <Position>
              <LatitudeDegrees>40.425085835158824920654296875</LatitudeDegrees>
              <LongitudeDegrees>-3.68308947421610355377197265625</LongitudeDegrees>
            </Position>
            <AltitudeMeters>684.20001220703125</AltitudeMeters>
            <DistanceMeters>14878.62255893</DistanceMeters>
          </Trackpoint>
          <Trackpoint>
            <Time>2021-09-26T08:45:35.000Z</Time>
            <Position>
              <LatitudeDegrees>40.4250702448189258575439453125</LatitudeDegrees>
              <LongitudeDegrees>-3.68328074924647808074951171875</LongitudeDegrees>
            </Position>
            <AltitudeMeters>683.4000244140625</AltitudeMeters>
            <DistanceMeters>14894.921787408</DistanceMeters>
          </Trackpoint>
          <Trackpoint>
            <Time>2021-09-26T08:45:41.000Z</Time>
            <Position>
              <LatitudeDegrees>40.425105951726436614990234375</LatitudeDegrees>
              <LongitudeDegrees>-3.6834704317152500152587890625</LongitudeDegrees>
            </Position>
            <AltitudeMeters>682.79998779296875</AltitudeMeters>
            <DistanceMeters>14911.477448383</DistanceMeters>
          </Trackpoint>
          <Trackpoint>
            <Time>2021-09-26T08:45:47.000Z</Time>
            <Position>
              <LatitudeDegrees>40.42514308355748653411865234375</LatitudeDegrees>
              <LongitudeDegrees>-3.6836591921746730804443359375</LongitudeDegrees>
            </Position>
            <AltitudeMeters>683</AltitudeMeters>
            <DistanceMeters>14927.996251305</DistanceMeters>
          </Trackpoint>
          <Trackpoint>
            <Time>2021-09-26T08:45:52.000Z</Time>
            <Position>
              <LatitudeDegrees>40.42513822205364704132080078125</LatitudeDegrees>
              <LongitudeDegrees>-3.68381769396364688873291015625</LongitudeDegrees>
            </Position>
            <AltitudeMeters>683.5999755859375</AltitudeMeters>
            <DistanceMeters>14941.436401943</DistanceMeters>
          </Trackpoint>
          <Trackpoint>
            <Time>2021-09-26T08:45:59.000Z</Time>
            <Position>
              <LatitudeDegrees>40.42519354261457920074462890625</LatitudeDegrees>
              <LongitudeDegrees>-3.6840219609439373016357421875</LongitudeDegrees>
            </Position>
            <AltitudeMeters>683.79998779296875</AltitudeMeters>
            <DistanceMeters>14959.806321832</DistanceMeters>
          </Trackpoint>
          <Trackpoint>
            <Time>2021-09-26T08:46:04.000Z</Time>
            <Position>
              <LatitudeDegrees>40.425329245626926422119140625</LatitudeDegrees>
              <LongitudeDegrees>-3.6841195262968540191650390625</LongitudeDegrees>
            </Position>
            <AltitudeMeters>683.4000244140625</AltitudeMeters>
            <DistanceMeters>14977.024784882</DistanceMeters>
          </Trackpoint>
          <Trackpoint>
            <Time>2021-09-26T08:46:08.000Z</Time>
            <Position>
              <LatitudeDegrees>40.42541163973510265350341796875</LatitudeDegrees>
              <LongitudeDegrees>-3.6841342784464359283447265625</LongitudeDegrees>
            </Position>
            <AltitudeMeters>683.20001220703125</AltitudeMeters>
            <DistanceMeters>14986.280016113</DistanceMeters>
          </Trackpoint>
          <Trackpoint>
            <Time>2021-09-26T08:46:15.000Z</Time>
            <Position>
              <LatitudeDegrees>40.4255915991961956024169921875</LatitudeDegrees>
              <LongitudeDegrees>-3.684150874614715576171875</LongitudeDegrees>
            </Position>
            <AltitudeMeters>683.5999755859375</AltitudeMeters>
            <DistanceMeters>15006.359230567</DistanceMeters>
          </Trackpoint>
          <Trackpoint>
            <Time>2021-09-26T08:46:22.000Z</Time>
            <Position>
              <LatitudeDegrees>40.42571187950670719146728515625</LatitudeDegrees>
              <LongitudeDegrees>-3.684098236262798309326171875</LongitudeDegrees>
            </Position>
            <AltitudeMeters>684.4000244140625</AltitudeMeters>
            <DistanceMeters>15020.469977733</DistanceMeters>
          </Trackpoint>
          <Trackpoint>
            <Time>2021-09-26T08:46:26.000Z</Time>
            <Position>
              <LatitudeDegrees>40.4258115403354167938232421875</LatitudeDegrees>
              <LongitudeDegrees>-3.6840876750648021697998046875</LongitudeDegrees>
            </Position>
            <AltitudeMeters>685.20001220703125</AltitudeMeters>
            <DistanceMeters>15031.59825111</DistanceMeters>
          </Trackpoint>
          <Trackpoint>
            <Time>2021-09-26T08:46:27.000Z</Time>
            <Position>
              <LatitudeDegrees>40.42584179900586605072021484375</LatitudeDegrees>
              <LongitudeDegrees>-3.68408960290253162384033203125</LongitudeDegrees>
            </Position>
            <AltitudeMeters>685.5999755859375</AltitudeMeters>
            <DistanceMeters>15034.968686715</DistanceMeters>
          </Trackpoint>
          <Trackpoint>
            <Time>2021-09-26T08:46:33.000Z</Time>
            <Position>
              <LatitudeDegrees>40.4259895719587802886962890625</LatitudeDegrees>
              <LongitudeDegrees>-3.6841245554387569427490234375</LongitudeDegrees>
            </Position>
            <AltitudeMeters>687.20001220703125</AltitudeMeters>
            <DistanceMeters>15051.680425232</DistanceMeters>
          </Trackpoint>
          <Trackpoint>
            <Time>2021-09-26T08:46:41.000Z</Time>
            <Position>
              <LatitudeDegrees>40.4261810146272182464599609375</LatitudeDegrees>
              <LongitudeDegrees>-3.68410569615662097930908203125</LongitudeDegrees>
            </Position>
            <AltitudeMeters>689.20001220703125</AltitudeMeters>
            <DistanceMeters>15073.048128084</DistanceMeters>
          </Trackpoint>
          <Trackpoint>
            <Time>2021-09-26T08:46:49.000Z</Time>
            <Position>
              <LatitudeDegrees>40.42637296020984649658203125</LatitudeDegrees>
              <LongitudeDegrees>-3.68410469032824039459228515625</LongitudeDegrees>
            </Position>
            <AltitudeMeters>691</AltitudeMeters>
            <DistanceMeters>15094.412027161</DistanceMeters>
          </Trackpoint>
          <Trackpoint>
            <Time>2021-09-26T08:46:54.000Z</Time>
            <Position>
              <LatitudeDegrees>40.4264820925891399383544921875</LatitudeDegrees>
              <LongitudeDegrees>-3.6840997450053691864013671875</LongitudeDegrees>
            </Position>
            <AltitudeMeters>691.5999755859375</AltitudeMeters>
            <DistanceMeters>15106.566163105</DistanceMeters>
          </Trackpoint>
          <Trackpoint>
            <Time>2021-09-26T08:46:55.000Z</Time>
            <Position>
              <LatitudeDegrees>40.42651377618312835693359375</LatitudeDegrees>
              <LongitudeDegrees>-3.6840999126434326171875</LongitudeDegrees>
            </Position>
            <AltitudeMeters>691.79998779296875</AltitudeMeters>
            <DistanceMeters>15110.093689907</DistanceMeters>
          </Trackpoint>
          <Trackpoint>
            <Time>2021-09-26T08:46:55.000Z</Time>
            <Position>
              <LatitudeDegrees>40.42651377618312835693359375</LatitudeDegrees>
              <LongitudeDegrees>-3.6840999126434326171875</LongitudeDegrees>
            </Position>
            <AltitudeMeters>691.79998779296875</AltitudeMeters>
            <DistanceMeters>15110.093689907</DistanceMeters>
          </Trackpoint>
          <Trackpoint>
            <Time>2021-09-26T08:47:01.000Z</Time>
            <Position>
              <LatitudeDegrees>40.42667512781918048858642578125</LatitudeDegrees>
              <LongitudeDegrees>-3.684096224606037139892578125</LongitudeDegrees>
            </Position>
            <AltitudeMeters>692.5999755859375</AltitudeMeters>
            <DistanceMeters>15128.05524722</DistanceMeters>
          </Trackpoint>
          <Trackpoint>
            <Time>2021-09-26T08:47:02.000Z</Time>
            <Position>
              <LatitudeDegrees>40.426696836948394775390625</LatitudeDegrees>
              <LongitudeDegrees>-3.68409798480570316314697265625</LongitudeDegrees>
            </Position>
            <AltitudeMeters>692.5999755859375</AltitudeMeters>
            <DistanceMeters>15130.474232449</DistanceMeters>
          </Trackpoint>
          <Trackpoint>
            <Time>2021-09-26T08:47:06.000Z</Time>
            <Position>
              <LatitudeDegrees>40.42680705897510051727294921875</LatitudeDegrees>
              <LongitudeDegrees>-3.68409521877765655517578125</LongitudeDegrees>
            </Position>
            <AltitudeMeters>692.79998779296875</AltitudeMeters>
            <DistanceMeters>15142.744091228</DistanceMeters>
          </Trackpoint>
          <Trackpoint>
            <Time>2021-09-26T08:47:11.000Z</Time>
            <Position>
              <LatitudeDegrees>40.42692147195339202880859375</LatitudeDegrees>
              <LongitudeDegrees>-3.684047944843769073486328125</LongitudeDegrees>
            </Position>
            <AltitudeMeters>693</AltitudeMeters>
            <DistanceMeters>15156.093907283</DistanceMeters>
          </Trackpoint>
          <Trackpoint>
            <Time>2021-09-26T08:47:13.000Z</Time>
            <Position>
              <LatitudeDegrees>40.4269588552415370941162109375</LatitudeDegrees>
              <LongitudeDegrees>-3.684042580425739288330078125</LongitudeDegrees>
            </Position>
            <AltitudeMeters>693.20001220703125</AltitudeMeters>
            <DistanceMeters>15160.279399883</DistanceMeters>
          </Trackpoint>
          <Trackpoint>
            <Time>2021-09-26T08:47:16.000Z</Time>
            <Position>
              <LatitudeDegrees>40.4270238988101482391357421875</LatitudeDegrees>
              <LongitudeDegrees>-3.6840368807315826416015625</LongitudeDegrees>
            </Position>
            <AltitudeMeters>693.20001220703125</AltitudeMeters>
            <DistanceMeters>15167.534488827</DistanceMeters>
          </Trackpoint>
          <Trackpoint>
            <Time>2021-09-26T08:47:19.000Z</Time>
            <Position>
              <LatitudeDegrees>40.42709774337708950042724609375</LatitudeDegrees>
              <LongitudeDegrees>-3.684034533798694610595703125</LongitudeDegrees>
            </Position>
            <AltitudeMeters>693.4000244140625</AltitudeMeters>
            <DistanceMeters>15175.75635919</DistanceMeters>
          </Trackpoint>
          <Trackpoint>
            <Time>2021-09-26T08:47:22.000Z</Time>
            <Position>
              <LatitudeDegrees>40.42716831900179386138916015625</LatitudeDegrees>
              <LongitudeDegrees>-3.684013076126575469970703125</LongitudeDegrees>
            </Position>
            <AltitudeMeters>693.5999755859375</AltitudeMeters>
            <DistanceMeters>15183.818523307</DistanceMeters>
          </Trackpoint>
          <Trackpoint>
            <Time>2021-09-26T08:47:26.000Z</Time>
            <Position>
              <LatitudeDegrees>40.4272414930164813995361328125</LatitudeDegrees>
              <LongitudeDegrees>-3.684007041156291961669921875</LongitudeDegrees>
            </Position>
            <AltitudeMeters>693.79998779296875</AltitudeMeters>
            <DistanceMeters>15191.97865711</DistanceMeters>
          </Trackpoint>
          <Trackpoint>
            <Time>2021-09-26T08:47:33.000Z</Time>
            <Position>
              <LatitudeDegrees>40.42742564342916011810302734375</LatitudeDegrees>
              <LongitudeDegrees>-3.68396152742207050323486328125</LongitudeDegrees>
            </Position>
            <AltitudeMeters>694.20001220703125</AltitudeMeters>
            <DistanceMeters>15212.83436909</DistanceMeters>
          </Trackpoint>
          <Trackpoint>
            <Time>2021-09-26T08:47:34.000Z</Time>
            <Position>
              <LatitudeDegrees>40.427456237375736236572265625</LatitudeDegrees>
              <LongitudeDegrees>-3.683964796364307403564453125</LongitudeDegrees>
            </Position>
            <AltitudeMeters>694.20001220703125</AltitudeMeters>
            <DistanceMeters>15216.251369066</DistanceMeters>
          </Trackpoint>
          <Trackpoint>
            <Time>2021-09-26T08:47:41.000Z</Time>
            <Position>
              <LatitudeDegrees>40.42762286961078643798828125</LatitudeDegrees>
              <LongitudeDegrees>-3.6839599348604679107666015625</LongitudeDegrees>
            </Position>
            <AltitudeMeters>694.4000244140625</AltitudeMeters>
            <DistanceMeters>15234.802521143</DistanceMeters>
          </Trackpoint>
          <Trackpoint>
            <Time>2021-09-26T08:47:47.000Z</Time>
            <Position>
              <LatitudeDegrees>40.427750609815120697021484375</LatitudeDegrees>
              <LongitudeDegrees>-3.6840266548097133636474609375</LongitudeDegrees>
            </Position>
            <AltitudeMeters>694.4000244140625</AltitudeMeters>
            <DistanceMeters>15250.102707473</DistanceMeters>
          </Trackpoint>
          <Trackpoint>
            <Time>2021-09-26T08:47:54.000Z</Time>
            <Position>
              <LatitudeDegrees>40.42786686681210994720458984375</LatitudeDegrees>
              <LongitudeDegrees>-3.68404853157699108123779296875</LongitudeDegrees>
            </Position>
            <AltitudeMeters>694.4000244140625</AltitudeMeters>
            <DistanceMeters>15263.174667408</DistanceMeters>
          </Trackpoint>
          <Trackpoint>
            <Time>2021-09-26T08:48:02.000Z</Time>
            <Position>
              <LatitudeDegrees>40.42804573662579059600830078125</LatitudeDegrees>
              <LongitudeDegrees>-3.68403797037899494171142578125</LongitudeDegrees>
            </Position>
            <AltitudeMeters>694.4000244140625</AltitudeMeters>
            <DistanceMeters>15283.103561561</DistanceMeters>
          </Trackpoint>
          <Trackpoint>
            <Time>2021-09-26T08:48:05.000Z</Time>
            <Position>
              <LatitudeDegrees>40.42806350626051425933837890625</LatitudeDegrees>
              <LongitudeDegrees>-3.68403612636029720306396484375</LongitudeDegrees>
            </Position>
            <AltitudeMeters>694.4000244140625</AltitudeMeters>
            <DistanceMeters>15285.08777761</DistanceMeters>
          </Trackpoint>
          <Trackpoint>
            <Time>2021-09-26T08:48:07.000Z</Time>
            <Position>
              <LatitudeDegrees>40.42809921316802501678466796875</LatitudeDegrees>
              <LongitudeDegrees>-3.68400427512824535369873046875</LongitudeDegrees>
            </Position>
            <AltitudeMeters>694.4000244140625</AltitudeMeters>
            <DistanceMeters>15289.892033576</DistanceMeters>
          </Trackpoint>
          <Trackpoint>
            <Time>2021-09-26T08:48:12.000Z</Time>
            <Position>
              <LatitudeDegrees>40.4282245226204395294189453125</LatitudeDegrees>
              <LongitudeDegrees>-3.6839555762708187103271484375</LongitudeDegrees>
            </Position>
            <AltitudeMeters>694.4000244140625</AltitudeMeters>
            <DistanceMeters>15304.43702003</DistanceMeters>
          </Trackpoint>
          <Trackpoint>
            <Time>2021-09-26T08:48:18.000Z</Time>
            <Position>
              <LatitudeDegrees>40.42835108935832977294921875</LatitudeDegrees>
              <LongitudeDegrees>-3.68394040502607822418212890625</LongitudeDegrees>
            </Position>
            <AltitudeMeters>694.5999755859375</AltitudeMeters>
            <DistanceMeters>15318.582601104</DistanceMeters>
          </Trackpoint>
          <Trackpoint>
            <Time>2021-09-26T08:48:21.000Z</Time>
            <Position>
              <LatitudeDegrees>40.42839559726417064666748046875</LatitudeDegrees>
              <LongitudeDegrees>-3.6839207075536251068115234375</LongitudeDegrees>
            </Position>
            <AltitudeMeters>694.5999755859375</AltitudeMeters>
            <DistanceMeters>15323.809934202</DistanceMeters>
          </Trackpoint>
          <Trackpoint>
            <Time>2021-09-26T08:48:23.000Z</Time>
            <Position>
              <LatitudeDegrees>40.428464412689208984375</LatitudeDegrees>
              <LongitudeDegrees>-3.68389933370053768157958984375</LongitudeDegrees>
            </Position>
            <AltitudeMeters>694.5999755859375</AltitudeMeters>
            <DistanceMeters>15331.679959255</DistanceMeters>
          </Trackpoint>
          <Trackpoint>
            <Time>2021-09-26T08:48:24.000Z</Time>
            <Position>
              <LatitudeDegrees>40.4284903965890407562255859375</LatitudeDegrees>
              <LongitudeDegrees>-3.683895729482173919677734375</LongitudeDegrees>
            </Position>
            <AltitudeMeters>694.5999755859375</AltitudeMeters>
            <DistanceMeters>15334.58721768</DistanceMeters>
          </Trackpoint>
          <Trackpoint>
            <Time>2021-09-26T08:48:32.000Z</Time>
            <Position>
              <LatitudeDegrees>40.42867354117333889007568359375</LatitudeDegrees>
              <LongitudeDegrees>-3.6838437616825103759765625</LongitudeDegrees>
            </Position>
            <AltitudeMeters>694.4000244140625</AltitudeMeters>
            <DistanceMeters>15355.441630683</DistanceMeters>
          </Trackpoint>
          <Trackpoint>
            <Time>2021-09-26T08:48:39.000Z</Time>
            <Position>
              <LatitudeDegrees>40.428870432078838348388671875</LatitudeDegrees>
              <LongitudeDegrees>-3.683832027018070220947265625</LongitudeDegrees>
            </Position>
            <AltitudeMeters>694.4000244140625</AltitudeMeters>
            <DistanceMeters>15377.37860481</DistanceMeters>
          </Trackpoint>
          <Trackpoint>
            <Time>2021-09-26T08:48:44.000Z</Time>
            <Position>
              <LatitudeDegrees>40.4289686679840087890625</LatitudeDegrees>
              <LongitudeDegrees>-3.683864884078502655029296875</LongitudeDegrees>
            </Position>
            <AltitudeMeters>694.4000244140625</AltitudeMeters>
            <DistanceMeters>15388.661601651</DistanceMeters>
          </Trackpoint>
          <Trackpoint>
            <Time>2021-09-26T08:48:47.000Z</Time>
            <Position>
              <LatitudeDegrees>40.42901954613626003265380859375</LatitudeDegrees>
              <LongitudeDegrees>-3.68390335701406002044677734375</LongitudeDegrees>
            </Position>
            <AltitudeMeters>694.4000244140625</AltitudeMeters>
            <DistanceMeters>15395.195681649</DistanceMeters>
          </Trackpoint>
          <Trackpoint>
            <Time>2021-09-26T08:48:49.000Z</Time>
            <Position>
              <LatitudeDegrees>40.42905877344310283660888671875</LatitudeDegrees>
              <LongitudeDegrees>-3.68390302173793315887451171875</LongitudeDegrees>
            </Position>
            <AltitudeMeters>694.4000244140625</AltitudeMeters>
            <DistanceMeters>15399.560708716</DistanceMeters>
          </Trackpoint>
          <Trackpoint>
            <Time>2021-09-26T08:48:56.000Z</Time>
            <Position>
              <LatitudeDegrees>40.4292139224708080291748046875</LatitudeDegrees>
              <LongitudeDegrees>-3.68389539420604705810546875</LongitudeDegrees>
            </Position>
            <AltitudeMeters>694.5999755859375</AltitudeMeters>
            <DistanceMeters>15416.840945053</DistanceMeters>
          </Trackpoint>
          <Trackpoint>
            <Time>2021-09-26T08:49:02.000Z</Time>
            <Position>
              <LatitudeDegrees>40.42939270846545696258544921875</LatitudeDegrees>
              <LongitudeDegrees>-3.683829009532928466796875</LongitudeDegrees>
            </Position>
            <AltitudeMeters>695</AltitudeMeters>
            <DistanceMeters>15437.519683891</DistanceMeters>
          </Trackpoint>
          <Trackpoint>
            <Time>2021-09-26T08:49:03.000Z</Time>
            <Position>
              <LatitudeDegrees>40.42941986583173274993896484375</LatitudeDegrees>
              <LongitudeDegrees>-3.68382557295262813568115234375</LongitudeDegrees>
            </Position>
            <AltitudeMeters>695</AltitudeMeters>
            <DistanceMeters>15440.557567714</DistanceMeters>
          </Trackpoint>
          <Trackpoint>
            <Time>2021-09-26T08:49:09.000Z</Time>
            <Position>
              <LatitudeDegrees>40.42956420220434665679931640625</LatitudeDegrees>
              <LongitudeDegrees>-3.68384736590087413787841796875</LongitudeDegrees>
            </Position>
            <AltitudeMeters>695.20001220703125</AltitudeMeters>
            <DistanceMeters>15456.728590679</DistanceMeters>
          </Trackpoint>
          <Trackpoint>
            <Time>2021-09-26T08:49:16.000Z</Time>
            <Position>
              <LatitudeDegrees>40.42971826158463954925537109375</LatitudeDegrees>
              <LongitudeDegrees>-3.68392045609652996063232421875</LongitudeDegrees>
            </Position>
            <AltitudeMeters>695.4000244140625</AltitudeMeters>
            <DistanceMeters>15474.959856509</DistanceMeters>
          </Trackpoint>
          <Trackpoint>
            <Time>2021-09-26T08:49:22.000Z</Time>
            <Position>
              <LatitudeDegrees>40.4298227839171886444091796875</LatitudeDegrees>
              <LongitudeDegrees>-3.68391911499202251434326171875</LongitudeDegrees>
            </Position>
            <AltitudeMeters>695.79998779296875</AltitudeMeters>
            <DistanceMeters>15486.593548345</DistanceMeters>
          </Trackpoint>
          <Trackpoint>
            <Time>2021-09-26T08:49:26.000Z</Time>
            <Position>
              <LatitudeDegrees>40.42983426712453365325927734375</LatitudeDegrees>
              <LongitudeDegrees>-3.68388977833092212677001953125</LongitudeDegrees>
            </Position>
            <AltitudeMeters>696</AltitudeMeters>
            <DistanceMeters>15489.386751891</DistanceMeters>
          </Trackpoint>
          <Trackpoint>
            <Time>2021-09-26T08:49:27.000Z</Time>
            <Position>
              <LatitudeDegrees>40.42982839979231357574462890625</LatitudeDegrees>
              <LongitudeDegrees>-3.68387485854327678680419921875</LongitudeDegrees>
            </Position>
            <AltitudeMeters>696</AltitudeMeters>
            <DistanceMeters>15490.812152607</DistanceMeters>
          </Trackpoint>
          <Trackpoint>
            <Time>2021-09-26T08:49:32.000Z</Time>
            <Position>
              <LatitudeDegrees>40.42992110364139080047607421875</LatitudeDegrees>
              <LongitudeDegrees>-3.68382255546748638153076171875</LongitudeDegrees>
            </Position>
            <AltitudeMeters>696.5999755859375</AltitudeMeters>
            <DistanceMeters>15502.041801646</DistanceMeters>
          </Trackpoint>
          <Trackpoint>
            <Time>2021-09-26T08:49:34.000Z</Time>
            <Position>
              <LatitudeDegrees>40.4299723170697689056396484375</LatitudeDegrees>
              <LongitudeDegrees>-3.6838117428123950958251953125</LongitudeDegrees>
            </Position>
            <AltitudeMeters>696.79998779296875</AltitudeMeters>
            <DistanceMeters>15507.814234588</DistanceMeters>
          </Trackpoint>
          <Trackpoint>
            <Time>2021-09-26T08:49:38.000Z</Time>
            <Position>
              <LatitudeDegrees>40.4300884902477264404296875</LatitudeDegrees>
              <LongitudeDegrees>-3.68380931206047534942626953125</LongitudeDegrees>
            </Position>
            <AltitudeMeters>697.4000244140625</AltitudeMeters>
            <DistanceMeters>15520.746249735</DistanceMeters>
          </Trackpoint>
          <Trackpoint>
            <Time>2021-09-26T08:49:42.000Z</Time>
            <Position>
              <LatitudeDegrees>40.43019653297960758209228515625</LatitudeDegrees>
              <LongitudeDegrees>-3.68382054381072521209716796875</LongitudeDegrees>
            </Position>
            <AltitudeMeters>698</AltitudeMeters>
            <DistanceMeters>15532.80902934</DistanceMeters>
          </Trackpoint>
          <Trackpoint>
            <Time>2021-09-26T08:49:44.000Z</Time>
            <Position>
              <LatitudeDegrees>40.430247075855731964111328125</LatitudeDegrees>
              <LongitudeDegrees>-3.68382004089653491973876953125</LongitudeDegrees>
            </Position>
            <AltitudeMeters>698.4000244140625</AltitudeMeters>
            <DistanceMeters>15538.43409715</DistanceMeters>
          </Trackpoint>
          <Trackpoint>
            <Time>2021-09-26T08:49:51.000Z</Time>
            <Position>
              <LatitudeDegrees>40.43043977580964565277099609375</LatitudeDegrees>
              <LongitudeDegrees>-3.68380361236631870269775390625</LongitudeDegrees>
            </Position>
            <AltitudeMeters>700.20001220703125</AltitudeMeters>
            <DistanceMeters>15559.926946904</DistanceMeters>
          </Trackpoint>
          <Trackpoint>
            <Time>2021-09-26T08:49:58.000Z</Time>
            <Position>
              <LatitudeDegrees>40.4306076653301715850830078125</LatitudeDegrees>
              <LongitudeDegrees>-3.68377679027616977691650390625</LongitudeDegrees>
            </Position>
            <AltitudeMeters>700.4000244140625</AltitudeMeters>
            <DistanceMeters>15578.751113014</DistanceMeters>
          </Trackpoint>
          <Trackpoint>
            <Time>2021-09-26T08:50:03.000Z</Time>
            <Position>
              <LatitudeDegrees>40.43072777800261974334716796875</LatitudeDegrees>
              <LongitudeDegrees>-3.6837433464825153350830078125</LongitudeDegrees>
            </Position>
            <AltitudeMeters>700</AltitudeMeters>
            <DistanceMeters>15592.417130759</DistanceMeters>
          </Trackpoint>
          <Trackpoint>
            <Time>2021-09-26T08:50:05.000Z</Time>
            <Position>
              <LatitudeDegrees>40.43077304027974605560302734375</LatitudeDegrees>
              <LongitudeDegrees>-3.68372968398034572601318359375</LongitudeDegrees>
            </Position>
            <AltitudeMeters>699.79998779296875</AltitudeMeters>
            <DistanceMeters>15597.585396051</DistanceMeters>
          </Trackpoint>
          <Trackpoint>
            <Time>2021-09-26T08:50:09.000Z</Time>
            <Position>
              <LatitudeDegrees>40.43083003722131252288818359375</LatitudeDegrees>
              <LongitudeDegrees>-3.6837202124297618865966796875</LongitudeDegrees>
            </Position>
            <AltitudeMeters>699.5999755859375</AltitudeMeters>
            <DistanceMeters>15603.979783131</DistanceMeters>
          </Trackpoint>
          <Trackpoint>
            <Time>2021-09-26T08:50:15.000Z</Time>
            <Position>
              <LatitudeDegrees>40.43098242022097110748291015625</LatitudeDegrees>
              <LongitudeDegrees>-3.6837108246982097625732421875</LongitudeDegrees>
            </Position>
            <AltitudeMeters>699.20001220703125</AltitudeMeters>
            <DistanceMeters>15620.959012223</DistanceMeters>
          </Trackpoint>
          <Trackpoint>
            <Time>2021-09-26T08:50:20.000Z</Time>
            <Position>
              <LatitudeDegrees>40.43109633028507232666015625</LatitudeDegrees>
              <LongitudeDegrees>-3.6836705915629863739013671875</LongitudeDegrees>
            </Position>
            <AltitudeMeters>698.79998779296875</AltitudeMeters>
            <DistanceMeters>15634.088183151</DistanceMeters>
          </Trackpoint>
          <Trackpoint>
            <Time>2021-09-26T08:50:25.000Z</Time>
            <Position>
              <LatitudeDegrees>40.431220717728137969970703125</LatitudeDegrees>
              <LongitudeDegrees>-3.6836533248424530029296875</LongitudeDegrees>
            </Position>
            <AltitudeMeters>698.4000244140625</AltitudeMeters>
            <DistanceMeters>15648.01016436</DistanceMeters>
          </Trackpoint>
          <Trackpoint>
            <Time>2021-09-26T08:50:33.000Z</Time>
            <Position>
              <LatitudeDegrees>40.43141014873981475830078125</LatitudeDegrees>
              <LongitudeDegrees>-3.68362608365714550018310546875</LongitudeDegrees>
            </Position>
            <AltitudeMeters>698.20001220703125</AltitudeMeters>
            <DistanceMeters>15669.22028879</DistanceMeters>
          </Trackpoint>
          <Trackpoint>
            <Time>2021-09-26T08:50:41.000Z</Time>
            <Position>
              <LatitudeDegrees>40.43159790337085723876953125</LatitudeDegrees>
              <LongitudeDegrees>-3.683677129447460174560546875</LongitudeDegrees>
            </Position>
            <AltitudeMeters>698.5999755859375</AltitudeMeters>
            <DistanceMeters>15690.560504704</DistanceMeters>
          </Trackpoint>
          <Trackpoint>
            <Time>2021-09-26T08:50:42.000Z</Time>
            <Position>
              <LatitudeDegrees>40.43161131441593170166015625</LatitudeDegrees>
              <LongitudeDegrees>-3.68368308059871196746826171875</LongitudeDegrees>
            </Position>
            <AltitudeMeters>698.5999755859375</AltitudeMeters>
            <DistanceMeters>15692.133476714</DistanceMeters>
          </Trackpoint>
          <Trackpoint>
            <Time>2021-09-26T08:50:47.000Z</Time>
            <Position>
              <LatitudeDegrees>40.43173762969672679901123046875</LatitudeDegrees>
              <LongitudeDegrees>-3.68371476419270038604736328125</LongitudeDegrees>
            </Position>
            <AltitudeMeters>699</AltitudeMeters>
            <DistanceMeters>15706.446910067</DistanceMeters>
          </Trackpoint>
          <Trackpoint>
            <Time>2021-09-26T08:50:55.000Z</Time>
            <Position>
              <LatitudeDegrees>40.4319102130830287933349609375</LatitudeDegrees>
              <LongitudeDegrees>-3.68366078473627567291259765625</LongitudeDegrees>
            </Position>
            <AltitudeMeters>699.4000244140625</AltitudeMeters>
            <DistanceMeters>15726.192811938</DistanceMeters>
          </Trackpoint>
          <Trackpoint>
            <Time>2021-09-26T08:51:02.000Z</Time>
            <Position>
              <LatitudeDegrees>40.43210257776081562042236328125</LatitudeDegrees>
              <LongitudeDegrees>-3.68370269425213336944580078125</LongitudeDegrees>
            </Position>
            <AltitudeMeters>699</AltitudeMeters>
            <DistanceMeters>15747.89575684</DistanceMeters>
          </Trackpoint>
          <Trackpoint>
            <Time>2021-09-26T08:51:03.000Z</Time>
            <Position>
              <LatitudeDegrees>40.432126633822917938232421875</LatitudeDegrees>
              <LongitudeDegrees>-3.6837101541459560394287109375</LongitudeDegrees>
            </Position>
            <AltitudeMeters>698.79998779296875</AltitudeMeters>
            <DistanceMeters>15750.64661199</DistanceMeters>
          </Trackpoint>
          <Trackpoint>
            <Time>2021-09-26T08:51:09.000Z</Time>
            <Position>
              <LatitudeDegrees>40.43226451613008975982666015625</LatitudeDegrees>
              <LongitudeDegrees>-3.6837101541459560394287109375</LongitudeDegrees>
            </Position>
            <AltitudeMeters>698.79998779296875</AltitudeMeters>
            <DistanceMeters>15765.993352811</DistanceMeters>
          </Trackpoint>
          <Trackpoint>
            <Time>2021-09-26T08:51:15.000Z</Time>
            <Position>
              <LatitudeDegrees>40.4323925077915191650390625</LatitudeDegrees>
              <LongitudeDegrees>-3.6836695857346057891845703125</LongitudeDegrees>
            </Position>
            <AltitudeMeters>699</AltitudeMeters>
            <DistanceMeters>15780.647507441</DistanceMeters>
          </Trackpoint>
          <Trackpoint>
            <Time>2021-09-26T08:51:20.000Z</Time>
            <Position>
              <LatitudeDegrees>40.43251144699752330780029296875</LatitudeDegrees>
              <LongitudeDegrees>-3.68365776725113391876220703125</LongitudeDegrees>
            </Position>
            <AltitudeMeters>699</AltitudeMeters>
            <DistanceMeters>15793.923389032</DistanceMeters>
          </Trackpoint>
          <Trackpoint>
            <Time>2021-09-26T08:51:27.000Z</Time>
            <Position>
              <LatitudeDegrees>40.4327135346829891204833984375</LatitudeDegrees>
              <LongitudeDegrees>-3.6836182884871959686279296875</LongitudeDegrees>
            </Position>
            <AltitudeMeters>699.4000244140625</AltitudeMeters>
            <DistanceMeters>15816.663581592</DistanceMeters>
          </Trackpoint>
          <Trackpoint>
            <Time>2021-09-26T08:51:33.000Z</Time>
            <Position>
              <LatitudeDegrees>40.4328647442162036895751953125</LatitudeDegrees>
              <LongitudeDegrees>-3.683630861341953277587890625</LongitudeDegrees>
            </Position>
            <AltitudeMeters>699.20001220703125</AltitudeMeters>
            <DistanceMeters>15833.527276248</DistanceMeters>
          </Trackpoint>
          <Trackpoint>
            <Time>2021-09-26T08:51:40.000Z</Time>
            <Position>
              <LatitudeDegrees>40.43301972560584545135498046875</LatitudeDegrees>
              <LongitudeDegrees>-3.6836092360317707061767578125</LongitudeDegrees>
            </Position>
            <AltitudeMeters>700.4000244140625</AltitudeMeters>
            <DistanceMeters>15850.874272167</DistanceMeters>
          </Trackpoint>
          <Trackpoint>
            <Time>2021-09-26T08:51:42.000Z</Time>
            <Position>
              <LatitudeDegrees>40.43305694125592708587646484375</LatitudeDegrees>
              <LongitudeDegrees>-3.68359574116766452789306640625</LongitudeDegrees>
            </Position>
            <AltitudeMeters>700.5999755859375</AltitudeMeters>
            <DistanceMeters>15855.172590024</DistanceMeters>
          </Trackpoint>
          <Trackpoint>
            <Time>2021-09-26T08:51:44.000Z</Time>
            <Position>
              <LatitudeDegrees>40.43308778665959835052490234375</LatitudeDegrees>
              <LongitudeDegrees>-3.6835854314267635345458984375</LongitudeDegrees>
            </Position>
            <AltitudeMeters>700.79998779296875</AltitudeMeters>
            <DistanceMeters>15858.715442866</DistanceMeters>
          </Trackpoint>
          <Trackpoint>
            <Time>2021-09-26T08:51:52.000Z</Time>
            <Position>
              <LatitudeDegrees>40.4332761280238628387451171875</LatitudeDegrees>
              <LongitudeDegrees>-3.68353069759905338287353515625</LongitudeDegrees>
            </Position>
            <AltitudeMeters>701.79998779296875</AltitudeMeters>
            <DistanceMeters>15880.184962005</DistanceMeters>
          </Trackpoint>
          <Trackpoint>
            <Time>2021-09-26T08:52:00.000Z</Time>
            <Position>
              <LatitudeDegrees>40.43346933089196681976318359375</LatitudeDegrees>
              <LongitudeDegrees>-3.68348577059805393218994140625</LongitudeDegrees>
            </Position>
            <AltitudeMeters>702.79998779296875</AltitudeMeters>
            <DistanceMeters>15902.02291972</DistanceMeters>
          </Trackpoint>
          <Trackpoint>
            <Time>2021-09-26T08:52:05.000Z</Time>
            <Position>
              <LatitudeDegrees>40.4335993342101573944091796875</LatitudeDegrees>
              <LongitudeDegrees>-3.6834707669913768768310546875</LongitudeDegrees>
            </Position>
            <AltitudeMeters>703.5999755859375</AltitudeMeters>
            <DistanceMeters>15916.54833662</DistanceMeters>
          </Trackpoint>
          <Trackpoint>
            <Time>2021-09-26T08:52:13.000Z</Time>
            <Position>
              <LatitudeDegrees>40.43377677910029888153076171875</LatitudeDegrees>
              <LongitudeDegrees>-3.68349616415798664093017578125</LongitudeDegrees>
            </Position>
            <AltitudeMeters>704.79998779296875</AltitudeMeters>
            <DistanceMeters>15936.415511592</DistanceMeters>
          </Trackpoint>
          <Trackpoint>
            <Time>2021-09-26T08:52:19.000Z</Time>
            <Position>
              <LatitudeDegrees>40.433887504041194915771484375</LatitudeDegrees>
              <LongitudeDegrees>-3.68353840894997119903564453125</LongitudeDegrees>
            </Position>
            <AltitudeMeters>705.20001220703125</AltitudeMeters>
            <DistanceMeters>15949.248692577</DistanceMeters>
          </Trackpoint>
          <Trackpoint>
            <Time>2021-09-26T08:52:20.000Z</Time>
            <Position>
              <LatitudeDegrees>40.4339014180004596710205078125</LatitudeDegrees>
              <LongitudeDegrees>-3.683536984026432037353515625</LongitudeDegrees>
            </Position>
            <AltitudeMeters>705.20001220703125</AltitudeMeters>
            <DistanceMeters>15950.807246574</DistanceMeters>
          </Trackpoint>
          <Trackpoint>
            <Time>2021-09-26T08:52:26.000Z</Time>
            <Position>
              <LatitudeDegrees>40.4340274818241596221923828125</LatitudeDegrees>
              <LongitudeDegrees>-3.6835435219109058380126953125</LongitudeDegrees>
            </Position>
            <AltitudeMeters>705.4000244140625</AltitudeMeters>
            <DistanceMeters>15964.849674402</DistanceMeters>
          </Trackpoint>
          <Trackpoint>
            <Time>2021-09-26T08:52:31.000Z</Time>
            <Position>
              <LatitudeDegrees>40.43416083790361881256103515625</LatitudeDegrees>
              <LongitudeDegrees>-3.68350236676633358001708984375</LongitudeDegrees>
            </Position>
            <AltitudeMeters>705.4000244140625</AltitudeMeters>
            <DistanceMeters>15980.096650758</DistanceMeters>
          </Trackpoint>
          <Trackpoint>
            <Time>2021-09-26T08:52:33.000Z</Time>
            <Position>
              <LatitudeDegrees>40.4342018254101276397705078125</LatitudeDegrees>
              <LongitudeDegrees>-3.68349381722509860992431640625</LongitudeDegrees>
            </Position>
            <AltitudeMeters>705.4000244140625</AltitudeMeters>
            <DistanceMeters>15984.714988181</DistanceMeters>
          </Trackpoint>
          <Trackpoint>
            <Time>2021-09-26T08:52:41.000Z</Time>
            <Position>
              <LatitudeDegrees>40.43438044376671314239501953125</LatitudeDegrees>
              <LongitudeDegrees>-3.68348627351224422454833984375</LongitudeDegrees>
            </Position>
            <AltitudeMeters>705.5999755859375</AltitudeMeters>
            <DistanceMeters>16004.605784277</DistanceMeters>
          </Trackpoint>
          <Trackpoint>
            <Time>2021-09-26T08:52:45.000Z</Time>
            <Position>
              <LatitudeDegrees>40.43449091725051403045654296875</LatitudeDegrees>
              <LongitudeDegrees>-3.68345140479505062103271484375</LongitudeDegrees>
            </Position>
            <AltitudeMeters>705.79998779296875</AltitudeMeters>
            <DistanceMeters>16017.251123089</DistanceMeters>
          </Trackpoint>
          <Trackpoint>
            <Time>2021-09-26T08:52:48.000Z</Time>
            <Position>
              <LatitudeDegrees>40.43456668965518474578857421875</LatitudeDegrees>
              <LongitudeDegrees>-3.68345978669822216033935546875</LongitudeDegrees>
            </Position>
            <AltitudeMeters>705.79998779296875</AltitudeMeters>
            <DistanceMeters>16025.714371068</DistanceMeters>
          </Trackpoint>
          <Trackpoint>
            <Time>2021-09-26T08:52:54.000Z</Time>
            <Position>
              <LatitudeDegrees>40.43473734520375728607177734375</LatitudeDegrees>
              <LongitudeDegrees>-3.683392144739627838134765625</LongitudeDegrees>
            </Position>
            <AltitudeMeters>705.79998779296875</AltitudeMeters>
            <DistanceMeters>16045.554255952</DistanceMeters>
          </Trackpoint>
          <Trackpoint>
            <Time>2021-09-26T08:52:58.000Z</Time>
            <Position>
              <LatitudeDegrees>40.4348043166100978851318359375</LatitudeDegrees>
              <LongitudeDegrees>-3.68344075977802276611328125</LongitudeDegrees>
            </Position>
            <AltitudeMeters>705.5999755859375</AltitudeMeters>
            <DistanceMeters>16054.070685602</DistanceMeters>
          </Trackpoint>
          <Trackpoint>
            <Time>2021-09-26T08:52:59.000Z</Time>
            <Position>
              <LatitudeDegrees>40.43481496162712574005126953125</LatitudeDegrees>
              <LongitudeDegrees>-3.6834623850882053375244140625</LongitudeDegrees>
            </Position>
            <AltitudeMeters>705.5999755859375</AltitudeMeters>
            <DistanceMeters>16056.252164524</DistanceMeters>
          </Trackpoint>
          <Trackpoint>
            <Time>2021-09-26T08:53:05.000Z</Time>
            <Position>
              <LatitudeDegrees>40.43486994691193103790283203125</LatitudeDegrees>
              <LongitudeDegrees>-3.68361652828752994537353515625</LongitudeDegrees>
            </Position>
            <AltitudeMeters>705.20001220703125</AltitudeMeters>
            <DistanceMeters>16070.67370122</DistanceMeters>
          </Trackpoint>
          <Trackpoint>
            <Time>2021-09-26T08:53:11.000Z</Time>
            <Position>
              <LatitudeDegrees>40.434890650212764739990234375</LatitudeDegrees>
              <LongitudeDegrees>-3.6838047020137310028076171875</LongitudeDegrees>
            </Position>
            <AltitudeMeters>705.20001220703125</AltitudeMeters>
            <DistanceMeters>16086.78093954</DistanceMeters>
          </Trackpoint>
          <Trackpoint>
            <Time>2021-09-26T08:53:17.000Z</Time>
            <Position>
              <LatitudeDegrees>40.43492174707353115081787109375</LatitudeDegrees>
              <LongitudeDegrees>-3.68404383771121501922607421875</LongitudeDegrees>
            </Position>
            <AltitudeMeters>705</AltitudeMeters>
            <DistanceMeters>16107.333089202</DistanceMeters>
          </Trackpoint>
          <Trackpoint>
            <Time>2021-09-26T08:53:18.000Z</Time>
            <Position>
              <LatitudeDegrees>40.434922836720943450927734375</LatitudeDegrees>
              <LongitudeDegrees>-3.6840756051242351531982421875</LongitudeDegrees>
            </Position>
            <AltitudeMeters>705</AltitudeMeters>
            <DistanceMeters>16110.027561592</DistanceMeters>
          </Trackpoint>
          <Trackpoint>
            <Time>2021-09-26T08:53:20.000Z</Time>
            <Position>
              <LatitudeDegrees>40.43492325581610202789306640625</LatitudeDegrees>
              <LongitudeDegrees>-3.6841413192451000213623046875</LongitudeDegrees>
            </Position>
            <AltitudeMeters>704.79998779296875</AltitudeMeters>
            <DistanceMeters>16115.594537644</DistanceMeters>
          </Trackpoint>
          <Trackpoint>
            <Time>2021-09-26T08:53:25.000Z</Time>
            <Position>
              <LatitudeDegrees>40.43496080674231052398681640625</LatitudeDegrees>
              <LongitudeDegrees>-3.68432479910552501678466796875</LongitudeDegrees>
            </Position>
            <AltitudeMeters>704</AltitudeMeters>
            <DistanceMeters>16131.690279105</DistanceMeters>
          </Trackpoint>
          <Trackpoint>
            <Time>2021-09-26T08:53:31.000Z</Time>
            <Position>
              <LatitudeDegrees>40.43500296771526336669921875</LatitudeDegrees>
              <LongitudeDegrees>-3.684444911777973175048828125</LongitudeDegrees>
            </Position>
            <AltitudeMeters>703.4000244140625</AltitudeMeters>
            <DistanceMeters>16142.895375395</DistanceMeters>
          </Trackpoint>
          <Trackpoint>
            <Time>2021-09-26T08:53:36.000Z</Time>
            <Position>
              <LatitudeDegrees>40.4350272752344608306884765625</LatitudeDegrees>
              <LongitudeDegrees>-3.68456996977329254150390625</LongitudeDegrees>
            </Position>
            <AltitudeMeters>702.79998779296875</AltitudeMeters>
            <DistanceMeters>16153.829643186</DistanceMeters>
          </Trackpoint>
          <Trackpoint>
            <Time>2021-09-26T08:53:38.000Z</Time>
            <Position>
              <LatitudeDegrees>40.43502266518771648406982421875</LatitudeDegrees>
              <LongitudeDegrees>-3.68461431004106998443603515625</LongitudeDegrees>
            </Position>
            <AltitudeMeters>702.79998779296875</AltitudeMeters>
            <DistanceMeters>16157.618814803</DistanceMeters>
          </Trackpoint>
          <Trackpoint>
            <Time>2021-09-26T08:53:48.000Z</Time>
            <Position>
              <LatitudeDegrees>40.43501545675098896026611328125</LatitudeDegrees>
              <LongitudeDegrees>-3.6848229356110095977783203125</LongitudeDegrees>
            </Position>
            <AltitudeMeters>702.4000244140625</AltitudeMeters>
            <DistanceMeters>16175.310890424</DistanceMeters>
          </Trackpoint>
          <Trackpoint>
            <Time>2021-09-26T08:53:55.000Z</Time>
            <Position>
              <LatitudeDegrees>40.43502098880708217620849609375</LatitudeDegrees>
              <LongitudeDegrees>-3.684960901737213134765625</LongitudeDegrees>
            </Position>
            <AltitudeMeters>702</AltitudeMeters>
            <DistanceMeters>16187.015003361</DistanceMeters>
          </Trackpoint>
          <Trackpoint>
            <Time>2021-09-26T08:53:57.000Z</Time>
            <Position>
              <LatitudeDegrees>40.435020066797733306884765625</LatitudeDegrees>
              <LongitudeDegrees>-3.68499099276959896087646484375</LongitudeDegrees>
            </Position>
            <AltitudeMeters>701.79998779296875</AltitudeMeters>
            <DistanceMeters>16189.564837678</DistanceMeters>
          </Trackpoint>
          <Trackpoint>
            <Time>2021-09-26T08:54:01.000Z</Time>
            <Position>
              <LatitudeDegrees>40.43502685613930225372314453125</LatitudeDegrees>
              <LongitudeDegrees>-3.68504698388278484344482421875</LongitudeDegrees>
            </Position>
            <AltitudeMeters>701.5999755859375</AltitudeMeters>
            <DistanceMeters>16194.368153752</DistanceMeters>
          </Trackpoint>
          <Trackpoint>
            <Time>2021-09-26T08:54:04.000Z</Time>
            <Position>
              <LatitudeDegrees>40.435033477842807769775390625</LatitudeDegrees>
              <LongitudeDegrees>-3.68510683067142963409423828125</LongitudeDegrees>
            </Position>
            <AltitudeMeters>701.4000244140625</AltitudeMeters>
            <DistanceMeters>16199.491671316</DistanceMeters>
          </Trackpoint>
          <Trackpoint>
            <Time>2021-09-26T08:54:05.000Z</Time>
            <Position>
              <LatitudeDegrees>40.43503020890057086944580078125</LatitudeDegrees>
              <LongitudeDegrees>-3.6851183138787746429443359375</LongitudeDegrees>
            </Position>
            <AltitudeMeters>701.4000244140625</AltitudeMeters>
            <DistanceMeters>16200.528290386</DistanceMeters>
          </Trackpoint>
          <Trackpoint>
            <Time>2021-09-26T08:54:13.000Z</Time>
            <Position>
              <LatitudeDegrees>40.4350426979362964630126953125</LatitudeDegrees>
              <LongitudeDegrees>-3.6852929927408695220947265625</LongitudeDegrees>
            </Position>
            <AltitudeMeters>700.5999755859375</AltitudeMeters>
            <DistanceMeters>16215.391392018</DistanceMeters>
          </Trackpoint>
          <Trackpoint>
            <Time>2021-09-26T08:54:19.000Z</Time>
            <Position>
              <LatitudeDegrees>40.43504496105015277862548828125</LatitudeDegrees>
              <LongitudeDegrees>-3.6854343116283416748046875</LongitudeDegrees>
            </Position>
            <AltitudeMeters>699.79998779296875</AltitudeMeters>
            <DistanceMeters>16227.365889246</DistanceMeters>
          </Trackpoint>
          <Trackpoint>
            <Time>2021-09-26T08:54:20.000Z</Time>
            <Position>
              <LatitudeDegrees>40.435042865574359893798828125</LatitudeDegrees>
              <LongitudeDegrees>-3.68545803241431713104248046875</LongitudeDegrees>
            </Position>
            <AltitudeMeters>699.5999755859375</AltitudeMeters>
            <DistanceMeters>16229.388418511</DistanceMeters>
          </Trackpoint>
          <Trackpoint>
            <Time>2021-09-26T08:54:21.000Z</Time>
            <Position>
              <LatitudeDegrees>40.43504194356501102447509765625</LatitudeDegrees>
              <LongitudeDegrees>-3.6854763887822628021240234375</LongitudeDegrees>
            </Position>
            <AltitudeMeters>699.5999755859375</AltitudeMeters>
            <DistanceMeters>16230.949866762</DistanceMeters>
          </Trackpoint>
          <Trackpoint>
            <Time>2021-09-26T08:54:24.000Z</Time>
            <Position>
              <LatitudeDegrees>40.43505133129656314849853515625</LatitudeDegrees>
              <LongitudeDegrees>-3.68555576540529727935791015625</LongitudeDegrees>
            </Position>
            <AltitudeMeters>699</AltitudeMeters>
            <DistanceMeters>16237.756061893</DistanceMeters>
          </Trackpoint>
          <Trackpoint>
            <Time>2021-09-26T08:54:27.000Z</Time>
            <Position>
              <LatitudeDegrees>40.43505904264748096466064453125</LatitudeDegrees>
              <LongitudeDegrees>-3.68562416173517704010009765625</LongitudeDegrees>
            </Position>
            <AltitudeMeters>698.5999755859375</AltitudeMeters>
            <DistanceMeters>16243.61390198</DistanceMeters>
          </Trackpoint>
          <Trackpoint>
            <Time>2021-09-26T08:54:35.000Z</Time>
            <Position>
              <LatitudeDegrees>40.43508938513696193695068359375</LatitudeDegrees>
              <LongitudeDegrees>-3.6857972480356693267822265625</LongitudeDegrees>
            </Position>
            <AltitudeMeters>698.4000244140625</AltitudeMeters>
            <DistanceMeters>16258.661165411</DistanceMeters>
          </Trackpoint>
          <Trackpoint>
            <Time>2021-09-26T08:54:36.000Z</Time>
            <Position>
              <LatitudeDegrees>40.43509491719305515289306640625</LatitudeDegrees>
              <LongitudeDegrees>-3.68582214228808879852294921875</LongitudeDegrees>
            </Position>
            <AltitudeMeters>698.4000244140625</AltitudeMeters>
            <DistanceMeters>16260.85708454</DistanceMeters>
          </Trackpoint>
          <Trackpoint>
            <Time>2021-09-26T08:54:40.000Z</Time>
            <Position>
              <LatitudeDegrees>40.4350755549967288970947265625</LatitudeDegrees>
              <LongitudeDegrees>-3.68591266684234142303466796875</LongitudeDegrees>
            </Position>
            <AltitudeMeters>698.4000244140625</AltitudeMeters>
            <DistanceMeters>16268.823475018</DistanceMeters>
          </Trackpoint>
          <Trackpoint>
            <Time>2021-09-26T08:54:48.000Z</Time>
            <Position>
              <LatitudeDegrees>40.4350872896611690521240234375</LatitudeDegrees>
              <LongitudeDegrees>-3.6861171014606952667236328125</LongitudeDegrees>
            </Position>
            <AltitudeMeters>697.20001220703125</AltitudeMeters>
            <DistanceMeters>16286.191540644</DistanceMeters>
          </Trackpoint>
          <Trackpoint>
            <Time>2021-09-26T08:54:55.000Z</Time>
            <Position>
              <LatitudeDegrees>40.43509542010724544525146484375</LatitudeDegrees>
              <LongitudeDegrees>-3.686268143355846405029296875</LongitudeDegrees>
            </Position>
            <AltitudeMeters>695</AltitudeMeters>
            <DistanceMeters>16299.019091188</DistanceMeters>
          </Trackpoint>
          <Trackpoint>
            <Time>2021-09-26T08:55:01.000Z</Time>
            <Position>
              <LatitudeDegrees>40.43510262854397296905517578125</LatitudeDegrees>
              <LongitudeDegrees>-3.686401583254337310791015625</LongitudeDegrees>
            </Position>
            <AltitudeMeters>693.20001220703125</AltitudeMeters>
            <DistanceMeters>16310.352396414</DistanceMeters>
          </Trackpoint>
          <Trackpoint>
            <Time>2021-09-26T08:55:03.000Z</Time>
            <Position>
              <LatitudeDegrees>40.435102880001068115234375</LatitudeDegrees>
              <LongitudeDegrees>-3.68644592352211475372314453125</LongitudeDegrees>
            </Position>
            <AltitudeMeters>692.5999755859375</AltitudeMeters>
            <DistanceMeters>16314.109258067</DistanceMeters>
          </Trackpoint>
          <Trackpoint>
            <Time>2021-09-26T08:55:07.000Z</Time>
            <Position>
              <LatitudeDegrees>40.43507161550223827362060546875</LatitudeDegrees>
              <LongitudeDegrees>-3.68652538396418094635009765625</LongitudeDegrees>
            </Position>
            <AltitudeMeters>692</AltitudeMeters>
            <DistanceMeters>16321.687601302</DistanceMeters>
          </Trackpoint>
          <Trackpoint>
            <Time>2021-09-26T08:55:08.000Z</Time>
            <Position>
              <LatitudeDegrees>40.435062982141971588134765625</LatitudeDegrees>
              <LongitudeDegrees>-3.6865378729999065399169921875</LongitudeDegrees>
            </Position>
            <AltitudeMeters>691.79998779296875</AltitudeMeters>
            <DistanceMeters>16323.116166063</DistanceMeters>
          </Trackpoint>
          <Trackpoint>
            <Time>2021-09-26T08:55:13.000Z</Time>
            <Position>
              <LatitudeDegrees>40.43501193635165691375732421875</LatitudeDegrees>
              <LongitudeDegrees>-3.68661037646234035491943359375</LongitudeDegrees>
            </Position>
            <AltitudeMeters>691</AltitudeMeters>
            <DistanceMeters>16331.482835209</DistanceMeters>
          </Trackpoint>
          <Trackpoint>
            <Time>2021-09-26T08:55:20.000Z</Time>
            <Position>
              <LatitudeDegrees>40.434910766780376434326171875</LatitudeDegrees>
              <LongitudeDegrees>-3.686638288199901580810546875</LongitudeDegrees>
            </Position>
            <AltitudeMeters>690.20001220703125</AltitudeMeters>
            <DistanceMeters>16342.988526004</DistanceMeters>
          </Trackpoint>
          <Trackpoint>
            <Time>2021-09-26T08:55:27.000Z</Time>
            <Position>
              <LatitudeDegrees>40.43476986698806285858154296875</LatitudeDegrees>
              <LongitudeDegrees>-3.686632253229618072509765625</LongitudeDegrees>
            </Position>
            <AltitudeMeters>690.20001220703125</AltitudeMeters>
            <DistanceMeters>16358.679160285</DistanceMeters>
          </Trackpoint>
          <Trackpoint>
            <Time>2021-09-26T08:55:34.000Z</Time>
            <Position>
              <LatitudeDegrees>40.43457373045384883880615234375</LatitudeDegrees>
              <LongitudeDegrees>-3.68660844862461090087890625</LongitudeDegrees>
            </Position>
            <AltitudeMeters>690.79998779296875</AltitudeMeters>
            <DistanceMeters>16380.602546174</DistanceMeters>
          </Trackpoint>
          <Trackpoint>
            <Time>2021-09-26T08:55:37.000Z</Time>
            <Position>
              <LatitudeDegrees>40.4344995506107807159423828125</LatitudeDegrees>
              <LongitudeDegrees>-3.68662512861192226409912109375</LongitudeDegrees>
            </Position>
            <AltitudeMeters>690.79998779296875</AltitudeMeters>
            <DistanceMeters>16388.978923312</DistanceMeters>
          </Trackpoint>
          <Trackpoint>
            <Time>2021-09-26T08:55:40.000Z</Time>
            <Position>
              <LatitudeDegrees>40.43442520312964916229248046875</LatitudeDegrees>
              <LongitudeDegrees>-3.6866287328302860260009765625</LongitudeDegrees>
            </Position>
            <AltitudeMeters>691</AltitudeMeters>
            <DistanceMeters>16397.258798937</DistanceMeters>
          </Trackpoint>
          <Trackpoint>
            <Time>2021-09-26T08:55:47.000Z</Time>
            <Position>
              <LatitudeDegrees>40.43425253592431545257568359375</LatitudeDegrees>
              <LongitudeDegrees>-3.68661808781325817108154296875</LongitudeDegrees>
            </Position>
            <AltitudeMeters>691.5999755859375</AltitudeMeters>
            <DistanceMeters>16416.497895419</DistanceMeters>
          </Trackpoint>
          <Trackpoint>
            <Time>2021-09-26T08:55:54.000Z</Time>
            <Position>
              <LatitudeDegrees>40.4340707324445247650146484375</LatitudeDegrees>
              <LongitudeDegrees>-3.6866233684122562408447265625</LongitudeDegrees>
            </Position>
            <AltitudeMeters>691.79998779296875</AltitudeMeters>
            <DistanceMeters>16436.737693291</DistanceMeters>
          </Trackpoint>
          <Trackpoint>
            <Time>2021-09-26T08:55:59.000Z</Time>
            <Position>
              <LatitudeDegrees>40.43395967222750186920166015625</LatitudeDegrees>
              <LongitudeDegrees>-3.68663602508604526519775390625</LongitudeDegrees>
            </Position>
            <AltitudeMeters>691.79998779296875</AltitudeMeters>
            <DistanceMeters>16449.144776475</DistanceMeters>
          </Trackpoint>
          <Trackpoint>
            <Time>2021-09-26T08:56:06.000Z</Time>
            <Position>
              <LatitudeDegrees>40.4337813891470432281494140625</LatitudeDegrees>
              <LongitudeDegrees>-3.6866273917257785797119140625</LongitudeDegrees>
            </Position>
            <AltitudeMeters>691.79998779296875</AltitudeMeters>
            <DistanceMeters>16469.001494679</DistanceMeters>
          </Trackpoint>
          <Trackpoint>
            <Time>2021-09-26T08:56:13.000Z</Time>
            <Position>
              <LatitudeDegrees>40.43359078466892242431640625</LatitudeDegrees>
              <LongitudeDegrees>-3.68661054410040378570556640625</LongitudeDegrees>
            </Position>
            <AltitudeMeters>690.4000244140625</AltitudeMeters>
            <DistanceMeters>16490.264133444</DistanceMeters>
          </Trackpoint>
          <Trackpoint>
            <Time>2021-09-26T08:56:16.000Z</Time>
            <Position>
              <LatitudeDegrees>40.43351844884455204010009765625</LatitudeDegrees>
              <LongitudeDegrees>-3.68662051856517791748046875</LongitudeDegrees>
            </Position>
            <AltitudeMeters>689.5999755859375</AltitudeMeters>
            <DistanceMeters>16498.358714019</DistanceMeters>
          </Trackpoint>
          <Trackpoint>
            <Time>2021-09-26T08:56:22.000Z</Time>
            <Position>
              <LatitudeDegrees>40.4333683289587497711181640625</LatitudeDegrees>
              <LongitudeDegrees>-3.68661825545132160186767578125</LongitudeDegrees>
            </Position>
            <AltitudeMeters>688.4000244140625</AltitudeMeters>
            <DistanceMeters>16515.068561227</DistanceMeters>
          </Trackpoint>
          <Trackpoint>
            <Time>2021-09-26T08:56:28.000Z</Time>
            <Position>
              <LatitudeDegrees>40.433212928473949432373046875</LatitudeDegrees>
              <LongitudeDegrees>-3.6866186745464801788330078125</LongitudeDegrees>
            </Position>
            <AltitudeMeters>687.20001220703125</AltitudeMeters>
            <DistanceMeters>16532.364989546</DistanceMeters>
          </Trackpoint>
          <Trackpoint>
            <Time>2021-09-26T08:56:35.000Z</Time>
            <Position>
              <LatitudeDegrees>40.4330347292125225067138671875</LatitudeDegrees>
              <LongitudeDegrees>-3.68668665178120136260986328125</LongitudeDegrees>
            </Position>
            <AltitudeMeters>684.79998779296875</AltitudeMeters>
            <DistanceMeters>16553.018166565</DistanceMeters>
          </Trackpoint>
          <Trackpoint>
            <Time>2021-09-26T08:56:37.000Z</Time>
            <Position>
              <LatitudeDegrees>40.43299131095409393310546875</LatitudeDegrees>
              <LongitudeDegrees>-3.6867450736463069915771484375</LongitudeDegrees>
            </Position>
            <AltitudeMeters>683.5999755859375</AltitudeMeters>
            <DistanceMeters>16559.936215795</DistanceMeters>
          </Trackpoint>
          <Trackpoint>
            <Time>2021-09-26T08:56:43.000Z</Time>
            <Position>
              <LatitudeDegrees>40.4329753853380680084228515625</LatitudeDegrees>
              <LongitudeDegrees>-3.68697197176516056060791015625</LongitudeDegrees>
            </Position>
            <AltitudeMeters>681</AltitudeMeters>
            <DistanceMeters>16579.240209284</DistanceMeters>
          </Trackpoint>
          <Trackpoint>
            <Time>2021-09-26T08:56:49.000Z</Time>
            <Position>
              <LatitudeDegrees>40.43300874531269073486328125</LatitudeDegrees>
              <LongitudeDegrees>-3.6872070841491222381591796875</LongitudeDegrees>
            </Position>
            <AltitudeMeters>678.79998779296875</AltitudeMeters>
            <DistanceMeters>16599.501634093</DistanceMeters>
          </Trackpoint>
          <Trackpoint>
            <Time>2021-09-26T08:56:51.000Z</Time>
            <Position>
              <LatitudeDegrees>40.43301285244524478912353515625</LatitudeDegrees>
              <LongitudeDegrees>-3.68728059343993663787841796875</LongitudeDegrees>
            </Position>
            <AltitudeMeters>678.20001220703125</AltitudeMeters>
            <DistanceMeters>16605.745981143</DistanceMeters>
          </Trackpoint>
          <Trackpoint>
            <Time>2021-09-26T08:56:58.000Z</Time>
            <Position>
              <LatitudeDegrees>40.4330229945480823516845703125</LatitudeDegrees>
              <LongitudeDegrees>-3.68753322400152683258056640625</LongitudeDegrees>
            </Position>
            <AltitudeMeters>675.79998779296875</AltitudeMeters>
            <DistanceMeters>16627.178455537</DistanceMeters>
          </Trackpoint>
          <Trackpoint>
            <Time>2021-09-26T08:57:05.000Z</Time>
            <Position>
              <LatitudeDegrees>40.43301905505359172821044921875</LatitudeDegrees>
              <LongitudeDegrees>-3.687779568135738372802734375</LongitudeDegrees>
            </Position>
            <AltitudeMeters>674.20001220703125</AltitudeMeters>
            <DistanceMeters>16648.05320988</DistanceMeters>
          </Trackpoint>
          <Trackpoint>
            <Time>2021-09-26T08:57:13.000Z</Time>
            <Position>
              <LatitudeDegrees>40.43302039615809917449951171875</LatitudeDegrees>
              <LongitudeDegrees>-3.68804502300918102264404296875</LongitudeDegrees>
            </Position>
            <AltitudeMeters>674.20001220703125</AltitudeMeters>
            <DistanceMeters>16670.543044067</DistanceMeters>
          </Trackpoint>
          <Trackpoint>
            <Time>2021-09-26T08:57:14.000Z</Time>
            <Position>
              <LatitudeDegrees>40.43301352299749851226806640625</LatitudeDegrees>
              <LongitudeDegrees>-3.6880788020789623260498046875</LongitudeDegrees>
            </Position>
            <AltitudeMeters>674.20001220703125</AltitudeMeters>
            <DistanceMeters>16673.50720742</DistanceMeters>
          </Trackpoint>
          <Trackpoint>
            <Time>2021-09-26T08:57:21.000Z</Time>
            <Position>
              <LatitudeDegrees>40.43303213082253932952880859375</LatitudeDegrees>
              <LongitudeDegrees>-3.68831777013838291168212890625</LongitudeDegrees>
            </Position>
            <AltitudeMeters>674.4000244140625</AltitudeMeters>
            <DistanceMeters>16693.858016397</DistanceMeters>
          </Trackpoint>
          <Trackpoint>
            <Time>2021-09-26T08:57:23.000Z</Time>
            <Position>
              <LatitudeDegrees>40.433027185499668121337890625</LatitudeDegrees>
              <LongitudeDegrees>-3.688379041850566864013671875</LongitudeDegrees>
            </Position>
            <AltitudeMeters>674.20001220703125</AltitudeMeters>
            <DistanceMeters>16699.07843503</DistanceMeters>
          </Trackpoint>
          <Trackpoint>
            <Time>2021-09-26T08:57:30.000Z</Time>
            <Position>
              <LatitudeDegrees>40.4330203123390674591064453125</LatitudeDegrees>
              <LongitudeDegrees>-3.68862538598477840423583984375</LongitudeDegrees>
            </Position>
            <AltitudeMeters>674.20001220703125</AltitudeMeters>
            <DistanceMeters>16719.962271653</DistanceMeters>
          </Trackpoint>
          <Trackpoint>
            <Time>2021-09-26T08:57:38.000Z</Time>
            <Position>
              <LatitudeDegrees>40.433021821081638336181640625</LatitudeDegrees>
              <LongitudeDegrees>-3.68888966739177703857421875</LongitudeDegrees>
            </Position>
            <AltitudeMeters>674.79998779296875</AltitudeMeters>
            <DistanceMeters>16742.35271122</DistanceMeters>
          </Trackpoint>
          <Trackpoint>
            <Time>2021-09-26T08:57:40.000Z</Time>
            <Position>
              <LatitudeDegrees>40.4330229945480823516845703125</LatitudeDegrees>
              <LongitudeDegrees>-3.68895026855170726776123046875</LongitudeDegrees>
            </Position>
            <AltitudeMeters>675</AltitudeMeters>
            <DistanceMeters>16747.489430345</DistanceMeters>
          </Trackpoint>
          <Trackpoint>
            <Time>2021-09-26T08:57:47.000Z</Time>
            <Position>
              <LatitudeDegrees>40.43302039615809917449951171875</LatitudeDegrees>
              <LongitudeDegrees>-3.68917934596538543701171875</LongitudeDegrees>
            </Position>
            <AltitudeMeters>675.5999755859375</AltitudeMeters>
            <DistanceMeters>16766.899087458</DistanceMeters>
          </Trackpoint>
          <Trackpoint>
            <Time>2021-09-26T08:57:55.000Z</Time>
            <Position>
              <LatitudeDegrees>40.4330243356525897979736328125</LatitudeDegrees>
              <LongitudeDegrees>-3.68942870758473873138427734375</LongitudeDegrees>
            </Position>
            <AltitudeMeters>676</AltitudeMeters>
            <DistanceMeters>16788.029447838</DistanceMeters>
          </Trackpoint>
          <Trackpoint>
            <Time>2021-09-26T08:58:02.000Z</Time>
            <Position>
              <LatitudeDegrees>40.43301285244524478912353515625</LatitudeDegrees>
              <LongitudeDegrees>-3.68964227847754955291748046875</LongitudeDegrees>
            </Position>
            <AltitudeMeters>676.20001220703125</AltitudeMeters>
            <DistanceMeters>16806.168352582</DistanceMeters>
          </Trackpoint>
          <Trackpoint>
            <Time>2021-09-26T08:58:04.000Z</Time>
            <Position>
              <LatitudeDegrees>40.43300447054207324981689453125</LatitudeDegrees>
              <LongitudeDegrees>-3.6897062323987483978271484375</LongitudeDegrees>
            </Position>
            <AltitudeMeters>676.4000244140625</AltitudeMeters>
            <DistanceMeters>16811.66677926</DistanceMeters>
          </Trackpoint>
          <Trackpoint>
            <Time>2021-09-26T08:58:10.000Z</Time>
            <Position>
              <LatitudeDegrees>40.432990975677967071533203125</LatitudeDegrees>
              <LongitudeDegrees>-3.68987915106117725372314453125</LongitudeDegrees>
            </Position>
            <AltitudeMeters>676.5999755859375</AltitudeMeters>
            <DistanceMeters>16826.393160889</DistanceMeters>
          </Trackpoint>
          <Trackpoint>
            <Time>2021-09-26T08:58:16.000Z</Time>
            <Position>
              <LatitudeDegrees>40.43299323879182338714599609375</LatitudeDegrees>
              <LongitudeDegrees>-3.69009490124881267547607421875</LongitudeDegrees>
            </Position>
            <AltitudeMeters>676.79998779296875</AltitudeMeters>
            <DistanceMeters>16844.673149368</DistanceMeters>
          </Trackpoint>
          <Trackpoint>
            <Time>2021-09-26T08:58:23.000Z</Time>
            <Position>
              <LatitudeDegrees>40.43296943418681621551513671875</LatitudeDegrees>
              <LongitudeDegrees>-3.69030411355197429656982421875</LongitudeDegrees>
            </Position>
            <AltitudeMeters>677.79998779296875</AltitudeMeters>
            <DistanceMeters>16862.594693916</DistanceMeters>
          </Trackpoint>
          <Trackpoint>
            <Time>2021-09-26T08:58:29.000Z</Time>
            <Position>
              <LatitudeDegrees>40.4329638183116912841796875</LatitudeDegrees>
              <LongitudeDegrees>-3.6905447579920291900634765625</LongitudeDegrees>
            </Position>
            <AltitudeMeters>680.20001220703125</AltitudeMeters>
            <DistanceMeters>16882.991597649</DistanceMeters>
          </Trackpoint>
          <Trackpoint>
            <Time>2021-09-26T08:58:30.000Z</Time>
            <Position>
              <LatitudeDegrees>40.43296189047396183013916015625</LatitudeDegrees>
              <LongitudeDegrees>-3.69057468138635158538818359375</LongitudeDegrees>
            </Position>
            <AltitudeMeters>680.4000244140625</AltitudeMeters>
            <DistanceMeters>16885.534339228</DistanceMeters>
          </Trackpoint>
          <Trackpoint>
            <Time>2021-09-26T08:58:37.000Z</Time>
            <Position>
              <LatitudeDegrees>40.43294797651469707489013671875</LatitudeDegrees>
              <LongitudeDegrees>-3.69081147015094757080078125</LongitudeDegrees>
            </Position>
            <AltitudeMeters>682.5999755859375</AltitudeMeters>
            <DistanceMeters>16905.654436816</DistanceMeters>
          </Trackpoint>
          <Trackpoint>
            <Time>2021-09-26T08:58:43.000Z</Time>
            <Position>
              <LatitudeDegrees>40.4329596273601055145263671875</LatitudeDegrees>
              <LongitudeDegrees>-3.6909678764641284942626953125</LongitudeDegrees>
            </Position>
            <AltitudeMeters>684.20001220703125</AltitudeMeters>
            <DistanceMeters>16918.968354369</DistanceMeters>
          </Trackpoint>
          <Trackpoint>
            <Time>2021-09-26T08:58:50.000Z</Time>
            <Position>
              <LatitudeDegrees>40.4329971782863140106201171875</LatitudeDegrees>
              <LongitudeDegrees>-3.6911380290985107421875</LongitudeDegrees>
            </Position>
            <AltitudeMeters>684.79998779296875</AltitudeMeters>
            <DistanceMeters>16933.977161349</DistanceMeters>
          </Trackpoint>
          <Trackpoint>
            <Time>2021-09-26T08:58:57.000Z</Time>
            <Position>
              <LatitudeDegrees>40.4329851083457469940185546875</LatitudeDegrees>
              <LongitudeDegrees>-3.69135788641870021820068359375</LongitudeDegrees>
            </Position>
            <AltitudeMeters>684.5999755859375</AltitudeMeters>
            <DistanceMeters>16952.652026338</DistanceMeters>
          </Trackpoint>
          <Trackpoint>
            <Time>2021-09-26T08:59:03.000Z</Time>
            <Position>
              <LatitudeDegrees>40.43287991546094417572021484375</LatitudeDegrees>
              <LongitudeDegrees>-3.6915385164320468902587890625</LongitudeDegrees>
            </Position>
            <AltitudeMeters>684.20001220703125</AltitudeMeters>
            <DistanceMeters>16971.92020121</DistanceMeters>
          </Trackpoint>
          <Trackpoint>
            <Time>2021-09-26T08:59:11.000Z</Time>
            <Position>
              <LatitudeDegrees>40.43284513056278228759765625</LatitudeDegrees>
              <LongitudeDegrees>-3.691797517240047454833984375</LongitudeDegrees>
            </Position>
            <AltitudeMeters>684</AltitudeMeters>
            <DistanceMeters>16994.201483551</DistanceMeters>
          </Trackpoint>
          <Trackpoint>
            <Time>2021-09-26T08:59:17.000Z</Time>
            <Position>
              <LatitudeDegrees>40.43283783830702304840087890625</LatitudeDegrees>
              <LongitudeDegrees>-3.6919472180306911468505859375</LongitudeDegrees>
            </Position>
            <AltitudeMeters>684.4000244140625</AltitudeMeters>
            <DistanceMeters>17006.909863353</DistanceMeters>
          </Trackpoint>
          <Trackpoint>
            <Time>2021-09-26T08:59:23.000Z</Time>
            <Position>
              <LatitudeDegrees>40.4328265227377414703369140625</LatitudeDegrees>
              <LongitudeDegrees>-3.69214209727942943572998046875</LongitudeDegrees>
            </Position>
            <AltitudeMeters>685.4000244140625</AltitudeMeters>
            <DistanceMeters>17023.467978614</DistanceMeters>
          </Trackpoint>
          <Trackpoint>
            <Time>2021-09-26T08:59:26.000Z</Time>
            <Position>
              <LatitudeDegrees>40.4328010417520999908447265625</LatitudeDegrees>
              <LongitudeDegrees>-3.69223035871982574462890625</LongitudeDegrees>
            </Position>
            <AltitudeMeters>685.79998779296875</AltitudeMeters>
            <DistanceMeters>17031.466044726</DistanceMeters>
          </Trackpoint>
          <Trackpoint>
            <Time>2021-09-26T08:59:29.000Z</Time>
            <Position>
              <LatitudeDegrees>40.43276625685393810272216796875</LatitudeDegrees>
              <LongitudeDegrees>-3.69229816831648349761962890625</LongitudeDegrees>
            </Position>
            <AltitudeMeters>686</AltitudeMeters>
            <DistanceMeters>17038.394528425</DistanceMeters>
          </Trackpoint>
          <Trackpoint>
            <Time>2021-09-26T08:59:34.000Z</Time>
            <Position>
              <LatitudeDegrees>40.43273289687931537628173828125</LatitudeDegrees>
              <LongitudeDegrees>-3.6924233101308345794677734375</LongitudeDegrees>
            </Position>
            <AltitudeMeters>686.5999755859375</AltitudeMeters>
            <DistanceMeters>17049.627795458</DistanceMeters>
          </Trackpoint>
          <Trackpoint>
            <Time>2021-09-26T08:59:40.000Z</Time>
            <Position>
              <LatitudeDegrees>40.43274077586829662322998046875</LatitudeDegrees>
              <LongitudeDegrees>-3.69261064566671848297119140625</LongitudeDegrees>
            </Position>
            <AltitudeMeters>687.20001220703125</AltitudeMeters>
            <DistanceMeters>17065.522558078</DistanceMeters>
          </Trackpoint>
          <Trackpoint>
            <Time>2021-09-26T08:59:45.000Z</Time>
            <Position>
              <LatitudeDegrees>40.43273247778415679931640625</LatitudeDegrees>
              <LongitudeDegrees>-3.69277484714984893798828125</LongitudeDegrees>
            </Position>
            <AltitudeMeters>687.20001220703125</AltitudeMeters>
            <DistanceMeters>17079.464308164</DistanceMeters>
          </Trackpoint>
          <Trackpoint>
            <Time>2021-09-26T08:59:50.000Z</Time>
            <Position>
              <LatitudeDegrees>40.4327433742582798004150390625</LatitudeDegrees>
              <LongitudeDegrees>-3.69292966090142726898193359375</LongitudeDegrees>
            </Position>
            <AltitudeMeters>686.4000244140625</AltitudeMeters>
            <DistanceMeters>17092.635710088</DistanceMeters>
          </Trackpoint>
          <Trackpoint>
            <Time>2021-09-26T08:59:52.000Z</Time>
            <Position>
              <LatitudeDegrees>40.43273650109767913818359375</LatitudeDegrees>
              <LongitudeDegrees>-3.6929684691131114959716796875</LongitudeDegrees>
            </Position>
            <AltitudeMeters>686.5999755859375</AltitudeMeters>
            <DistanceMeters>17096.010162102</DistanceMeters>
          </Trackpoint>
          <Trackpoint>
            <Time>2021-09-26T08:59:54.000Z</Time>
            <Position>
              <LatitudeDegrees>40.43272367678582668304443359375</LatitudeDegrees>
              <LongitudeDegrees>-3.693033345043659210205078125</LongitudeDegrees>
            </Position>
            <AltitudeMeters>687</AltitudeMeters>
            <DistanceMeters>17101.688753739</DistanceMeters>
          </Trackpoint>
          <Trackpoint>
            <Time>2021-09-26T08:59:59.000Z</Time>
            <Position>
              <LatitudeDegrees>40.4327252693474292755126953125</LatitudeDegrees>
              <LongitudeDegrees>-3.69321514852344989776611328125</LongitudeDegrees>
            </Position>
            <AltitudeMeters>688.79998779296875</AltitudeMeters>
            <DistanceMeters>17117.091877724</DistanceMeters>
          </Trackpoint>
          <Trackpoint>
            <Time>2021-09-26T09:00:04.000Z</Time>
            <Position>
              <LatitudeDegrees>40.4327427037060260772705078125</LatitudeDegrees>
              <LongitudeDegrees>-3.69334590621292591094970703125</LongitudeDegrees>
            </Position>
            <AltitudeMeters>690.20001220703125</AltitudeMeters>
            <DistanceMeters>17128.338400776</DistanceMeters>
          </Trackpoint>
          <Trackpoint>
            <Time>2021-09-26T09:00:09.000Z</Time>
            <Position>
              <LatitudeDegrees>40.4327473975718021392822265625</LatitudeDegrees>
              <LongitudeDegrees>-3.69349393062293529510498046875</LongitudeDegrees>
            </Position>
            <AltitudeMeters>691.79998779296875</AltitudeMeters>
            <DistanceMeters>17140.889843467</DistanceMeters>
          </Trackpoint>
          <Trackpoint>
            <Time>2021-09-26T09:00:15.000Z</Time>
            <Position>
              <LatitudeDegrees>40.43273960240185260772705078125</LatitudeDegrees>
              <LongitudeDegrees>-3.69371898472309112548828125</LongitudeDegrees>
            </Position>
            <AltitudeMeters>692.20001220703125</AltitudeMeters>
            <DistanceMeters>17159.976024694</DistanceMeters>
          </Trackpoint>
          <Trackpoint>
            <Time>2021-09-26T09:00:17.000Z</Time>
            <Position>
              <LatitudeDegrees>40.43273021467030048370361328125</LatitudeDegrees>
              <LongitudeDegrees>-3.6937732994556427001953125</LongitudeDegrees>
            </Position>
            <AltitudeMeters>692.20001220703125</AltitudeMeters>
            <DistanceMeters>17164.694940725</DistanceMeters>
          </Trackpoint>
          <Trackpoint>
            <Time>2021-09-26T09:00:19.000Z</Time>
            <Position>
              <LatitudeDegrees>40.43271965347230434417724609375</LatitudeDegrees>
              <LongitudeDegrees>-3.69383071549236774444580078125</LongitudeDegrees>
            </Position>
            <AltitudeMeters>692.20001220703125</AltitudeMeters>
            <DistanceMeters>17169.69988149</DistanceMeters>
          </Trackpoint>
          <Trackpoint>
            <Time>2021-09-26T09:00:24.000Z</Time>
            <Position>
              <LatitudeDegrees>40.43270238675177097320556640625</LatitudeDegrees>
              <LongitudeDegrees>-3.69398779235780239105224609375</LongitudeDegrees>
            </Position>
            <AltitudeMeters>692.20001220703125</AltitudeMeters>
            <DistanceMeters>17183.145406039</DistanceMeters>
          </Trackpoint>
          <Trackpoint>
            <Time>2021-09-26T09:00:26.000Z</Time>
            <Position>
              <LatitudeDegrees>40.43269752524793148040771484375</LatitudeDegrees>
              <LongitudeDegrees>-3.6940334737300872802734375</LongitudeDegrees>
            </Position>
            <AltitudeMeters>692.20001220703125</AltitudeMeters>
            <DistanceMeters>17187.054228029</DistanceMeters>
          </Trackpoint>
          <Trackpoint>
            <Time>2021-09-26T09:00:32.000Z</Time>
            <Position>
              <LatitudeDegrees>40.43270003981888294219970703125</LatitudeDegrees>
              <LongitudeDegrees>-3.6942257545888423919677734375</LongitudeDegrees>
            </Position>
            <AltitudeMeters>692.4000244140625</AltitudeMeters>
            <DistanceMeters>17203.347084046</DistanceMeters>
          </Trackpoint>
          <Trackpoint>
            <Time>2021-09-26T09:00:39.000Z</Time>
            <Position>
              <LatitudeDegrees>40.4327091760933399200439453125</LatitudeDegrees>
              <LongitudeDegrees>-3.69441057555377483367919921875</LongitudeDegrees>
            </Position>
            <AltitudeMeters>692.79998779296875</AltitudeMeters>
            <DistanceMeters>17219.038293825</DistanceMeters>
          </Trackpoint>
          <Trackpoint>
            <Time>2021-09-26T09:00:44.000Z</Time>
            <Position>
              <LatitudeDegrees>40.4326961003243923187255859375</LatitudeDegrees>
              <LongitudeDegrees>-3.69458173401653766632080078125</LongitudeDegrees>
            </Position>
            <AltitudeMeters>693.20001220703125</AltitudeMeters>
            <DistanceMeters>17233.611810833</DistanceMeters>
          </Trackpoint>
          <Trackpoint>
            <Time>2021-09-26T09:00:52.000Z</Time>
            <Position>
              <LatitudeDegrees>40.43269668705761432647705078125</LatitudeDegrees>
              <LongitudeDegrees>-3.69482271373271942138671875</LongitudeDegrees>
            </Position>
            <AltitudeMeters>693.5999755859375</AltitudeMeters>
            <DistanceMeters>17254.027742565</DistanceMeters>
          </Trackpoint>
          <Trackpoint>
            <Time>2021-09-26T09:00:58.000Z</Time>
            <Position>
              <LatitudeDegrees>40.4326776601374149322509765625</LatitudeDegrees>
              <LongitudeDegrees>-3.69501206092536449432373046875</LongitudeDegrees>
            </Position>
            <AltitudeMeters>693.4000244140625</AltitudeMeters>
            <DistanceMeters>17270.208534771</DistanceMeters>
          </Trackpoint>
          <Trackpoint>
            <Time>2021-09-26T09:01:04.000Z</Time>
            <Position>
              <LatitudeDegrees>40.43267288245260715484619140625</LatitudeDegrees>
              <LongitudeDegrees>-3.6951916851103305816650390625</LongitudeDegrees>
            </Position>
            <AltitudeMeters>693.4000244140625</AltitudeMeters>
            <DistanceMeters>17285.435361189</DistanceMeters>
          </Trackpoint>
          <Trackpoint>
            <Time>2021-09-26T09:01:13.000Z</Time>
            <Position>
              <LatitudeDegrees>40.43267942033708095550537109375</LatitudeDegrees>
              <LongitudeDegrees>-3.69543920271098613739013671875</LongitudeDegrees>
            </Position>
            <AltitudeMeters>695.20001220703125</AltitudeMeters>
            <DistanceMeters>17306.417552375</DistanceMeters>
          </Trackpoint>
          <Trackpoint>
            <Time>2021-09-26T09:01:21.000Z</Time>
            <Position>
              <LatitudeDegrees>40.43266265653073787689208984375</LatitudeDegrees>
              <LongitudeDegrees>-3.6956577189266681671142578125</LongitudeDegrees>
            </Position>
            <AltitudeMeters>695.79998779296875</AltitudeMeters>
            <DistanceMeters>17325.023870407</DistanceMeters>
          </Trackpoint>
          <Trackpoint>
            <Time>2021-09-26T09:01:23.000Z</Time>
            <Position>
              <LatitudeDegrees>40.43266282416880130767822265625</LatitudeDegrees>
              <LongitudeDegrees>-3.6957167275249958038330078125</LongitudeDegrees>
            </Position>
            <AltitudeMeters>695.79998779296875</AltitudeMeters>
            <DistanceMeters>17330.023395544</DistanceMeters>
          </Trackpoint>
          <Trackpoint>
            <Time>2021-09-26T09:01:24.000Z</Time>
            <Position>
              <LatitudeDegrees>40.432664416730403900146484375</LatitudeDegrees>
              <LongitudeDegrees>-3.69574195705354213714599609375</LongitudeDegrees>
            </Position>
            <AltitudeMeters>695.79998779296875</AltitudeMeters>
            <DistanceMeters>17332.1694009</DistanceMeters>
          </Trackpoint>
          <Trackpoint>
            <Time>2021-09-26T09:01:30.000Z</Time>
            <Position>
              <LatitudeDegrees>40.4326498322188854217529296875</LatitudeDegrees>
              <LongitudeDegrees>-3.69595192372798919677734375</LongitudeDegrees>
            </Position>
            <AltitudeMeters>696</AltitudeMeters>
            <DistanceMeters>17350.031895716</DistanceMeters>
          </Trackpoint>
          <Trackpoint>
            <Time>2021-09-26T09:01:37.000Z</Time>
            <Position>
              <LatitudeDegrees>40.4326347447931766510009765625</LatitudeDegrees>
              <LongitudeDegrees>-3.69622224010527133941650390625</LongitudeDegrees>
            </Position>
            <AltitudeMeters>695.5999755859375</AltitudeMeters>
            <DistanceMeters>17372.994565938</DistanceMeters>
          </Trackpoint>
          <Trackpoint>
            <Time>2021-09-26T09:01:38.000Z</Time>
            <Position>
              <LatitudeDegrees>40.4326360858976840972900390625</LatitudeDegrees>
              <LongitudeDegrees>-3.696251995861530303955078125</LongitudeDegrees>
            </Position>
            <AltitudeMeters>695.5999755859375</AltitudeMeters>
            <DistanceMeters>17375.519488505</DistanceMeters>
          </Trackpoint>
          <Trackpoint>
            <Time>2021-09-26T09:01:44.000Z</Time>
            <Position>
              <LatitudeDegrees>40.4326303862035274505615234375</LatitudeDegrees>
              <LongitudeDegrees>-3.69644050486385822296142578125</LongitudeDegrees>
            </Position>
            <AltitudeMeters>695</AltitudeMeters>
            <DistanceMeters>17391.502631581</DistanceMeters>
          </Trackpoint>
          <Trackpoint>
            <Time>2021-09-26T09:01:48.000Z</Time>
            <Position>
              <LatitudeDegrees>40.43261772952973842620849609375</LatitudeDegrees>
              <LongitudeDegrees>-3.696560449898242950439453125</LongitudeDegrees>
            </Position>
            <AltitudeMeters>694.5999755859375</AltitudeMeters>
            <DistanceMeters>17401.761116405</DistanceMeters>
          </Trackpoint>
          <Trackpoint>
            <Time>2021-09-26T09:01:49.000Z</Time>
            <Position>
              <LatitudeDegrees>40.43261588551104068756103515625</LatitudeDegrees>
              <LongitudeDegrees>-3.69658802635967731475830078125</LongitudeDegrees>
            </Position>
            <AltitudeMeters>694.5999755859375</AltitudeMeters>
            <DistanceMeters>17404.10425244</DistanceMeters>
          </Trackpoint>
          <Trackpoint>
            <Time>2021-09-26T09:01:55.000Z</Time>
            <Position>
              <LatitudeDegrees>40.43255746364593505859375</LatitudeDegrees>
              <LongitudeDegrees>-3.69674141518771648406982421875</LongitudeDegrees>
            </Position>
            <AltitudeMeters>694</AltitudeMeters>
            <DistanceMeters>17418.635574044</DistanceMeters>
          </Trackpoint>
          <Trackpoint>
            <Time>2021-09-26T09:01:56.000Z</Time>
            <Position>
              <LatitudeDegrees>40.43254598043859004974365234375</LatitudeDegrees>
              <LongitudeDegrees>-3.69676404632627964019775390625</LongitudeDegrees>
            </Position>
            <AltitudeMeters>693.79998779296875</AltitudeMeters>
            <DistanceMeters>17420.939849407</DistanceMeters>
          </Trackpoint>
          <Trackpoint>
            <Time>2021-09-26T09:02:00.000Z</Time>
            <Position>
              <LatitudeDegrees>40.43252854607999324798583984375</LatitudeDegrees>
              <LongitudeDegrees>-3.696880973875522613525390625</LongitudeDegrees>
            </Position>
            <AltitudeMeters>693.4000244140625</AltitudeMeters>
            <DistanceMeters>17431.034173684</DistanceMeters>
          </Trackpoint>
          <Trackpoint>
            <Time>2021-09-26T09:02:04.000Z</Time>
            <Position>
              <LatitudeDegrees>40.43249384500086307525634765625</LatitudeDegrees>
              <LongitudeDegrees>-3.69697694666683673858642578125</LongitudeDegrees>
            </Position>
            <AltitudeMeters>693.4000244140625</AltitudeMeters>
            <DistanceMeters>17440.035666667</DistanceMeters>
          </Trackpoint>
          <Trackpoint>
            <Time>2021-09-26T09:02:05.000Z</Time>
            <Position>
              <LatitudeDegrees>40.43247708119451999664306640625</LatitudeDegrees>
              <LongitudeDegrees>-3.6969870887696743011474609375</LongitudeDegrees>
            </Position>
            <AltitudeMeters>693.4000244140625</AltitudeMeters>
            <DistanceMeters>17442.091408814</DistanceMeters>
          </Trackpoint>
          <Trackpoint>
            <Time>2021-09-26T09:02:08.000Z</Time>
            <Position>
              <LatitudeDegrees>40.43239879421889781951904296875</LatitudeDegrees>
              <LongitudeDegrees>-3.6970377154648303985595703125</LongitudeDegrees>
            </Position>
            <AltitudeMeters>693.20001220703125</AltitudeMeters>
            <DistanceMeters>17451.803678298</DistanceMeters>
          </Trackpoint>
          <Trackpoint>
            <Time>2021-09-26T09:02:12.000Z</Time>
            <Position>
              <LatitudeDegrees>40.4323534481227397918701171875</LatitudeDegrees>
              <LongitudeDegrees>-3.69714374653995037078857421875</LongitudeDegrees>
            </Position>
            <AltitudeMeters>693.20001220703125</AltitudeMeters>
            <DistanceMeters>17462.107834685</DistanceMeters>
          </Trackpoint>
          <Trackpoint>
            <Time>2021-09-26T09:02:17.000Z</Time>
            <Position>
              <LatitudeDegrees>40.432286560535430908203125</LatitudeDegrees>
              <LongitudeDegrees>-3.69726679287850856781005859375</LongitudeDegrees>
            </Position>
            <AltitudeMeters>693.20001220703125</AltitudeMeters>
            <DistanceMeters>17474.917774151</DistanceMeters>
          </Trackpoint>
          <Trackpoint>
            <Time>2021-09-26T09:02:22.000Z</Time>
            <Position>
              <LatitudeDegrees>40.4322961159050464630126953125</LatitudeDegrees>
              <LongitudeDegrees>-3.6974350176751613616943359375</LongitudeDegrees>
            </Position>
            <AltitudeMeters>693.20001220703125</AltitudeMeters>
            <DistanceMeters>17489.209741446</DistanceMeters>
          </Trackpoint>
          <Trackpoint>
            <Time>2021-09-26T09:02:23.000Z</Time>
            <Position>
              <LatitudeDegrees>40.43230600655078887939453125</LatitudeDegrees>
              <LongitudeDegrees>-3.69746276177465915679931640625</LongitudeDegrees>
            </Position>
            <AltitudeMeters>693.20001220703125</AltitudeMeters>
            <DistanceMeters>17491.80520615</DistanceMeters>
          </Trackpoint>
          <Trackpoint>
            <Time>2021-09-26T09:02:28.000Z</Time>
            <Position>
              <LatitudeDegrees>40.43239510618150234222412109375</LatitudeDegrees>
              <LongitudeDegrees>-3.69757734239101409912109375</LongitudeDegrees>
            </Position>
            <AltitudeMeters>693.20001220703125</AltitudeMeters>
            <DistanceMeters>17505.682360406</DistanceMeters>
          </Trackpoint>
          <Trackpoint>
            <Time>2021-09-26T09:02:34.000Z</Time>
            <Position>
              <LatitudeDegrees>40.432537682354450225830078125</LatitudeDegrees>
              <LongitudeDegrees>-3.69766644202172756195068359375</LongitudeDegrees>
            </Position>
            <AltitudeMeters>693</AltitudeMeters>
            <DistanceMeters>17523.255366814</DistanceMeters>
          </Trackpoint>
          <Trackpoint>
            <Time>2021-09-26T09:02:40.000Z</Time>
            <Position>
              <LatitudeDegrees>40.43272250331938266754150390625</LatitudeDegrees>
              <LongitudeDegrees>-3.69774992577731609344482421875</LongitudeDegrees>
            </Position>
            <AltitudeMeters>693.20001220703125</AltitudeMeters>
            <DistanceMeters>17545.008183545</DistanceMeters>
          </Trackpoint>
          <Trackpoint>
            <Time>2021-09-26T09:02:42.000Z</Time>
            <Position>
              <LatitudeDegrees>40.43277665041387081146240234375</LatitudeDegrees>
              <LongitudeDegrees>-3.69777389802038669586181640625</LongitudeDegrees>
            </Position>
            <AltitudeMeters>693.20001220703125</AltitudeMeters>
            <DistanceMeters>17551.368587815</DistanceMeters>
          </Trackpoint>
          <Trackpoint>
            <Time>2021-09-26T09:02:50.000Z</Time>
            <Position>
              <LatitudeDegrees>40.43295853771269321441650390625</LatitudeDegrees>
              <LongitudeDegrees>-3.69787104427814483642578125</LongitudeDegrees>
            </Position>
            <AltitudeMeters>693.5999755859375</AltitudeMeters>
            <DistanceMeters>17573.221839811</DistanceMeters>
          </Trackpoint>
          <Trackpoint>
            <Time>2021-09-26T09:02:58.000Z</Time>
            <Position>
              <LatitudeDegrees>40.43314696289598941802978515625</LatitudeDegrees>
              <LongitudeDegrees>-3.69796492159366607666015625</LongitudeDegrees>
            </Position>
            <AltitudeMeters>694.4000244140625</AltitudeMeters>
            <DistanceMeters>17595.651365416</DistanceMeters>
          </Trackpoint>
          <Trackpoint>
            <Time>2021-09-26T09:02:59.000Z</Time>
            <Position>
              <LatitudeDegrees>40.43317328207194805145263671875</LatitudeDegrees>
              <LongitudeDegrees>-3.69797104038298130035400390625</LongitudeDegrees>
            </Position>
            <AltitudeMeters>694.4000244140625</AltitudeMeters>
            <DistanceMeters>17598.626172118</DistanceMeters>
          </Trackpoint>
          <Trackpoint>
            <Time>2021-09-26T09:03:06.000Z</Time>
            <Position>
              <LatitudeDegrees>40.43331208638846874237060546875</LatitudeDegrees>
              <LongitudeDegrees>-3.69803692214190959930419921875</LongitudeDegrees>
            </Position>
            <AltitudeMeters>695</AltitudeMeters>
            <DistanceMeters>17615.052880379</DistanceMeters>
          </Trackpoint>
          <Trackpoint>
            <Time>2021-09-26T09:03:14.000Z</Time>
            <Position>
              <LatitudeDegrees>40.4334826581180095672607421875</LatitudeDegrees>
              <LongitudeDegrees>-3.69812183082103729248046875</LongitudeDegrees>
            </Position>
            <AltitudeMeters>695.5999755859375</AltitudeMeters>
            <DistanceMeters>17635.355043793</DistanceMeters>
          </Trackpoint>
          <Trackpoint>
            <Time>2021-09-26T09:03:15.000Z</Time>
            <Position>
              <LatitudeDegrees>40.43350436724722385406494140625</LatitudeDegrees>
              <LongitudeDegrees>-3.69812945835292339324951171875</LongitudeDegrees>
            </Position>
            <AltitudeMeters>695.5999755859375</AltitudeMeters>
            <DistanceMeters>17637.854806361</DistanceMeters>
          </Trackpoint>
          <Trackpoint>
            <Time>2021-09-26T09:03:22.000Z</Time>
            <Position>
              <LatitudeDegrees>40.43368122540414333343505859375</LatitudeDegrees>
              <LongitudeDegrees>-3.69818997569382190704345703125</LongitudeDegrees>
            </Position>
            <AltitudeMeters>695.5999755859375</AltitudeMeters>
            <DistanceMeters>17658.196295068</DistanceMeters>
          </Trackpoint>
          <Trackpoint>
            <Time>2021-09-26T09:03:24.000Z</Time>
            <Position>
              <LatitudeDegrees>40.4337230511009693145751953125</LatitudeDegrees>
              <LongitudeDegrees>-3.698210008442401885986328125</LongitudeDegrees>
            </Position>
            <AltitudeMeters>695.5999755859375</AltitudeMeters>
            <DistanceMeters>17663.152282147</DistanceMeters>
          </Trackpoint>
          <Trackpoint>
            <Time>2021-09-26T09:03:30.000Z</Time>
            <Position>
              <LatitudeDegrees>40.43384919874370098114013671875</LatitudeDegrees>
              <LongitudeDegrees>-3.69827731512486934661865234375</LongitudeDegrees>
            </Position>
            <AltitudeMeters>695.79998779296875</AltitudeMeters>
            <DistanceMeters>17678.306585303</DistanceMeters>
          </Trackpoint>
          <Trackpoint>
            <Time>2021-09-26T09:03:37.000Z</Time>
            <Position>
              <LatitudeDegrees>40.43400158174335956573486328125</LatitudeDegrees>
              <LongitudeDegrees>-3.69836180470883846282958984375</LongitudeDegrees>
            </Position>
            <AltitudeMeters>696.4000244140625</AltitudeMeters>
            <DistanceMeters>17696.715788679</DistanceMeters>
          </Trackpoint>
          <Trackpoint>
            <Time>2021-09-26T09:03:44.000Z</Time>
            <Position>
              <LatitudeDegrees>40.434138961136341094970703125</LatitudeDegrees>
              <LongitudeDegrees>-3.69843992404639720916748046875</LongitudeDegrees>
            </Position>
            <AltitudeMeters>696.79998779296875</AltitudeMeters>
            <DistanceMeters>17713.376928495</DistanceMeters>
          </Trackpoint>
          <Trackpoint>
            <Time>2021-09-26T09:03:47.000Z</Time>
            <Position>
              <LatitudeDegrees>40.434209369122982025146484375</LatitudeDegrees>
              <LongitudeDegrees>-3.69847378693521022796630859375</LongitudeDegrees>
            </Position>
            <AltitudeMeters>697</AltitudeMeters>
            <DistanceMeters>17721.721442828</DistanceMeters>
          </Trackpoint>
          <Trackpoint>
            <Time>2021-09-26T09:03:50.000Z</Time>
            <Position>
              <LatitudeDegrees>40.434268377721309661865234375</LatitudeDegrees>
              <LongitudeDegrees>-3.69847797788679599761962890625</LongitudeDegrees>
            </Position>
            <AltitudeMeters>697</AltitudeMeters>
            <DistanceMeters>17728.298225185</DistanceMeters>
          </Trackpoint>
          <Trackpoint>
            <Time>2021-09-26T09:03:57.000Z</Time>
            <Position>
              <LatitudeDegrees>40.43445269577205181121826171875</LatitudeDegrees>
              <LongitudeDegrees>-3.6985669098794460296630859375</LongitudeDegrees>
            </Position>
            <AltitudeMeters>697.5999755859375</AltitudeMeters>
            <DistanceMeters>17750.152923383</DistanceMeters>
          </Trackpoint>
          <Trackpoint>
            <Time>2021-09-26T09:04:03.000Z</Time>
            <Position>
              <LatitudeDegrees>40.4346306435763835906982421875</LatitudeDegrees>
              <LongitudeDegrees>-3.6986522376537322998046875</LongitudeDegrees>
            </Position>
            <AltitudeMeters>697.79998779296875</AltitudeMeters>
            <DistanceMeters>17771.236865215</DistanceMeters>
          </Trackpoint>
          <Trackpoint>
            <Time>2021-09-26T09:04:06.000Z</Time>
            <Position>
              <LatitudeDegrees>40.434700548648834228515625</LatitudeDegrees>
              <LongitudeDegrees>-3.69869439862668514251708984375</LongitudeDegrees>
            </Position>
            <AltitudeMeters>697.79998779296875</AltitudeMeters>
            <DistanceMeters>17779.79823955</DistanceMeters>
          </Trackpoint>
          <Trackpoint>
            <Time>2021-09-26T09:04:13.000Z</Time>
            <Position>
              <LatitudeDegrees>40.43489475734531879425048828125</LatitudeDegrees>
              <LongitudeDegrees>-3.69877159595489501953125</LongitudeDegrees>
            </Position>
            <AltitudeMeters>698</AltitudeMeters>
            <DistanceMeters>17802.382033466</DistanceMeters>
          </Trackpoint>
          <Trackpoint>
            <Time>2021-09-26T09:04:14.000Z</Time>
            <Position>
              <LatitudeDegrees>40.4349164664745330810546875</LatitudeDegrees>
              <LongitudeDegrees>-3.69878157041966915130615234375</LongitudeDegrees>
            </Position>
            <AltitudeMeters>698</AltitudeMeters>
            <DistanceMeters>17804.942470049</DistanceMeters>
          </Trackpoint>
          <Trackpoint>
            <Time>2021-09-26T09:04:21.000Z</Time>
            <Position>
              <LatitudeDegrees>40.43506708927452564239501953125</LatitudeDegrees>
              <LongitudeDegrees>-3.69886019267141819000244140625</LongitudeDegrees>
            </Position>
            <AltitudeMeters>698</AltitudeMeters>
            <DistanceMeters>17822.982034758</DistanceMeters>
          </Trackpoint>
          <Trackpoint>
            <Time>2021-09-26T09:04:26.000Z</Time>
            <Position>
              <LatitudeDegrees>40.4351516626775264739990234375</LatitudeDegrees>
              <LongitudeDegrees>-3.69891065172851085662841796875</LongitudeDegrees>
            </Position>
            <AltitudeMeters>698.20001220703125</AltitudeMeters>
            <DistanceMeters>17833.32074913</DistanceMeters>
          </Trackpoint>
          <Trackpoint>
            <Time>2021-09-26T09:04:35.000Z</Time>
            <Position>
              <LatitudeDegrees>40.4353511519730091094970703125</LatitudeDegrees>
              <LongitudeDegrees>-3.69896295480430126190185546875</LongitudeDegrees>
            </Position>
            <AltitudeMeters>698.4000244140625</AltitudeMeters>
            <DistanceMeters>17855.962247308</DistanceMeters>
          </Trackpoint>
          <Trackpoint>
            <Time>2021-09-26T09:04:36.000Z</Time>
            <Position>
              <LatitudeDegrees>40.435376130044460296630859375</LatitudeDegrees>
              <LongitudeDegrees>-3.69897670112550258636474609375</LongitudeDegrees>
            </Position>
            <AltitudeMeters>698.4000244140625</AltitudeMeters>
            <DistanceMeters>17858.976257411</DistanceMeters>
          </Trackpoint>
          <Trackpoint>
            <Time>2021-09-26T09:04:44.000Z</Time>
            <Position>
              <LatitudeDegrees>40.43555474840104579925537109375</LatitudeDegrees>
              <LongitudeDegrees>-3.699051551520824432373046875</LongitudeDegrees>
            </Position>
            <AltitudeMeters>698.20001220703125</AltitudeMeters>
            <DistanceMeters>17879.843656537</DistanceMeters>
          </Trackpoint>
          <Trackpoint>
            <Time>2021-09-26T09:04:50.000Z</Time>
            <Position>
              <LatitudeDegrees>40.43573856353759765625</LatitudeDegrees>
              <LongitudeDegrees>-3.6991455964744091033935546875</LongitudeDegrees>
            </Position>
            <AltitudeMeters>698.20001220703125</AltitudeMeters>
            <DistanceMeters>17901.799146528</DistanceMeters>
          </Trackpoint>
          <Trackpoint>
            <Time>2021-09-26T09:04:52.000Z</Time>
            <Position>
              <LatitudeDegrees>40.4357870109379291534423828125</LatitudeDegrees>
              <LongitudeDegrees>-3.6991730891168117523193359375</LongitudeDegrees>
            </Position>
            <AltitudeMeters>698.5999755859375</AltitudeMeters>
            <DistanceMeters>17907.673150451</DistanceMeters>
          </Trackpoint>
          <Trackpoint>
            <Time>2021-09-26T09:04:55.000Z</Time>
            <Position>
              <LatitudeDegrees>40.43585783801972866058349609375</LatitudeDegrees>
              <LongitudeDegrees>-3.69920049794018268585205078125</LongitudeDegrees>
            </Position>
            <AltitudeMeters>699.20001220703125</AltitudeMeters>
            <DistanceMeters>17915.891725254</DistanceMeters>
          </Trackpoint>
          <Trackpoint>
            <Time>2021-09-26T09:04:57.000Z</Time>
            <Position>
              <LatitudeDegrees>40.43588407337665557861328125</LatitudeDegrees>
              <LongitudeDegrees>-3.699196390807628631591796875</LongitudeDegrees>
            </Position>
            <AltitudeMeters>699.4000244140625</AltitudeMeters>
            <DistanceMeters>17918.832951739</DistanceMeters>
          </Trackpoint>
          <Trackpoint>
            <Time>2021-09-26T09:05:03.000Z</Time>
            <Position>
              <LatitudeDegrees>40.43601424433290958404541015625</LatitudeDegrees>
              <LongitudeDegrees>-3.69920066557824611663818359375</LongitudeDegrees>
            </Position>
            <AltitudeMeters>700.20001220703125</AltitudeMeters>
            <DistanceMeters>17933.325693995</DistanceMeters>
          </Trackpoint>
          <Trackpoint>
            <Time>2021-09-26T09:05:10.000Z</Time>
            <Position>
              <LatitudeDegrees>40.43616210110485553741455078125</LatitudeDegrees>
              <LongitudeDegrees>-3.699274174869060516357421875</LongitudeDegrees>
            </Position>
            <AltitudeMeters>701.4000244140625</AltitudeMeters>
            <DistanceMeters>17950.921039143</DistanceMeters>
          </Trackpoint>
          <Trackpoint>
            <Time>2021-09-26T09:05:17.000Z</Time>
            <Position>
              <LatitudeDegrees>40.4363170824944972991943359375</LatitudeDegrees>
              <LongitudeDegrees>-3.69934634305536746978759765625</LongitudeDegrees>
            </Position>
            <AltitudeMeters>702.79998779296875</AltitudeMeters>
            <DistanceMeters>17969.222010027</DistanceMeters>
          </Trackpoint>
          <Trackpoint>
            <Time>2021-09-26T09:05:23.000Z</Time>
            <Position>
              <LatitudeDegrees>40.43643568642437458038330078125</LatitudeDegrees>
              <LongitudeDegrees>-3.69939009658992290496826171875</LongitudeDegrees>
            </Position>
            <AltitudeMeters>702.79998779296875</AltitudeMeters>
            <DistanceMeters>17982.933215717</DistanceMeters>
          </Trackpoint>
          <Trackpoint>
            <Time>2021-09-26T09:05:29.000Z</Time>
            <Position>
              <LatitudeDegrees>40.4365785978734493255615234375</LatitudeDegrees>
              <LongitudeDegrees>-3.69945581071078777313232421875</LongitudeDegrees>
            </Position>
            <AltitudeMeters>702.4000244140625</AltitudeMeters>
            <DistanceMeters>17999.785393742</DistanceMeters>
          </Trackpoint>
          <Trackpoint>
            <Time>2021-09-26T09:05:36.000Z</Time>
            <Position>
              <LatitudeDegrees>40.436749421060085296630859375</LatitudeDegrees>
              <LongitudeDegrees>-3.69953879155218601226806640625</LongitudeDegrees>
            </Position>
            <AltitudeMeters>702</AltitudeMeters>
            <DistanceMeters>18020.056175634</DistanceMeters>
          </Trackpoint>
          <Trackpoint>
            <Time>2021-09-26T09:05:42.000Z</Time>
            <Position>
              <LatitudeDegrees>40.43688311241567134857177734375</LatitudeDegrees>
              <LongitudeDegrees>-3.6995908431708812713623046875</LongitudeDegrees>
            </Position>
            <AltitudeMeters>701.79998779296875</AltitudeMeters>
            <DistanceMeters>18035.57610666</DistanceMeters>
          </Trackpoint>
          <Trackpoint>
            <Time>2021-09-26T09:05:50.000Z</Time>
            <Position>
              <LatitudeDegrees>40.43701588176190853118896484375</LatitudeDegrees>
              <LongitudeDegrees>-3.69962789118289947509765625</LongitudeDegrees>
            </Position>
            <AltitudeMeters>702.20001220703125</AltitudeMeters>
            <DistanceMeters>18050.683262317</DistanceMeters>
          </Trackpoint>
          <Trackpoint>
            <Time>2021-09-26T09:05:57.000Z</Time>
            <Position>
              <LatitudeDegrees>40.43714965693652629852294921875</LatitudeDegrees>
              <LongitudeDegrees>-3.69967876933515071868896484375</LongitudeDegrees>
            </Position>
            <AltitudeMeters>703</AltitudeMeters>
            <DistanceMeters>18066.183980817</DistanceMeters>
          </Trackpoint>
          <Trackpoint>
            <Time>2021-09-26T09:06:04.000Z</Time>
            <Position>
              <LatitudeDegrees>40.43729617260396480560302734375</LatitudeDegrees>
              <LongitudeDegrees>-3.69976208545267581939697265625</LongitudeDegrees>
            </Position>
            <AltitudeMeters>704</AltitudeMeters>
            <DistanceMeters>18083.953214142</DistanceMeters>
          </Trackpoint>
          <Trackpoint>
            <Time>2021-09-26T09:06:11.000Z</Time>
            <Position>
              <LatitudeDegrees>40.437460877001285552978515625</LatitudeDegrees>
              <LongitudeDegrees>-3.69986132718622684478759765625</LongitudeDegrees>
            </Position>
            <AltitudeMeters>704.79998779296875</AltitudeMeters>
            <DistanceMeters>18104.12082935</DistanceMeters>
          </Trackpoint>
          <Trackpoint>
            <Time>2021-09-26T09:06:18.000Z</Time>
            <Position>
              <LatitudeDegrees>40.437621809542179107666015625</LatitudeDegrees>
              <LongitudeDegrees>-3.69991547428071498870849609375</LongitudeDegrees>
            </Position>
            <AltitudeMeters>706</AltitudeMeters>
            <DistanceMeters>18122.610791334</DistanceMeters>
          </Trackpoint>
          <Trackpoint>
            <Time>2021-09-26T09:06:19.000Z</Time>
            <Position>
              <LatitudeDegrees>40.43763832189142704010009765625</LatitudeDegrees>
              <LongitudeDegrees>-3.6999289691448211669921875</LongitudeDegrees>
            </Position>
            <AltitudeMeters>706.20001220703125</AltitudeMeters>
            <DistanceMeters>18124.775649222</DistanceMeters>
          </Trackpoint>
          <Trackpoint>
            <Time>2021-09-26T09:06:26.000Z</Time>
            <Position>
              <LatitudeDegrees>40.4377906210720539093017578125</LatitudeDegrees>
              <LongitudeDegrees>-3.69999543763697147369384765625</LongitudeDegrees>
            </Position>
            <AltitudeMeters>707.5999755859375</AltitudeMeters>
            <DistanceMeters>18142.637638498</DistanceMeters>
          </Trackpoint>
          <Trackpoint>
            <Time>2021-09-26T09:06:31.000Z</Time>
            <Position>
              <LatitudeDegrees>40.43787167407572269439697265625</LatitudeDegrees>
              <LongitudeDegrees>-3.70004095137119293212890625</LongitudeDegrees>
            </Position>
            <AltitudeMeters>708.4000244140625</AltitudeMeters>
            <DistanceMeters>18152.448427703</DistanceMeters>
          </Trackpoint>
          <Trackpoint>
            <Time>2021-09-26T09:06:37.000Z</Time>
            <Position>
              <LatitudeDegrees>40.43800494633615016937255859375</LatitudeDegrees>
              <LongitudeDegrees>-3.7000883929431438446044921875</LongitudeDegrees>
            </Position>
            <AltitudeMeters>709.4000244140625</AltitudeMeters>
            <DistanceMeters>18167.816924034</DistanceMeters>
          </Trackpoint>
          <Trackpoint>
            <Time>2021-09-26T09:06:42.000Z</Time>
            <Position>
              <LatitudeDegrees>40.43810603208839893341064453125</LatitudeDegrees>
              <LongitudeDegrees>-3.70013591833412647247314453125</LongitudeDegrees>
            </Position>
            <AltitudeMeters>710</AltitudeMeters>
            <DistanceMeters>18179.766509751</DistanceMeters>
          </Trackpoint>
          <Trackpoint>
            <Time>2021-09-26T09:06:43.000Z</Time>
            <Position>
              <LatitudeDegrees>40.4381269030272960662841796875</LatitudeDegrees>
              <LongitudeDegrees>-3.70015234686434268951416015625</LongitudeDegrees>
            </Position>
            <AltitudeMeters>710</AltitudeMeters>
            <DistanceMeters>18182.474354294</DistanceMeters>
          </Trackpoint>
          <Trackpoint>
            <Time>2021-09-26T09:06:50.000Z</Time>
            <Position>
              <LatitudeDegrees>40.43831423856317996978759765625</LatitudeDegrees>
              <LongitudeDegrees>-3.70024521835148334503173828125</LongitudeDegrees>
            </Position>
            <AltitudeMeters>710.4000244140625</AltitudeMeters>
            <DistanceMeters>18204.760094229</DistanceMeters>
          </Trackpoint>
          <Trackpoint>
            <Time>2021-09-26T09:06:56.000Z</Time>
            <Position>
              <LatitudeDegrees>40.4384018294513225555419921875</LatitudeDegrees>
              <LongitudeDegrees>-3.70039911009371280670166015625</LongitudeDegrees>
            </Position>
            <AltitudeMeters>710.4000244140625</AltitudeMeters>
            <DistanceMeters>18221.038811111</DistanceMeters>
          </Trackpoint>
          <Trackpoint>
            <Time>2021-09-26T09:07:02.000Z</Time>
            <Position>
              <LatitudeDegrees>40.43841876089572906494140625</LatitudeDegrees>
              <LongitudeDegrees>-3.7006006948649883270263671875</LongitudeDegrees>
            </Position>
            <AltitudeMeters>710.5999755859375</AltitudeMeters>
            <DistanceMeters>18238.219210079</DistanceMeters>
          </Trackpoint>
          <Trackpoint>
            <Time>2021-09-26T09:07:07.000Z</Time>
            <Position>
              <LatitudeDegrees>40.43840861879289150238037109375</LatitudeDegrees>
              <LongitudeDegrees>-3.7007676623761653900146484375</LongitudeDegrees>
            </Position>
            <AltitudeMeters>709.4000244140625</AltitudeMeters>
            <DistanceMeters>18252.408451933</DistanceMeters>
          </Trackpoint>
          <Trackpoint>
            <Time>2021-09-26T09:07:14.000Z</Time>
            <Position>
              <LatitudeDegrees>40.43840727768838405609130859375</LatitudeDegrees>
              <LongitudeDegrees>-3.7009976617991924285888671875</LongitudeDegrees>
            </Position>
            <AltitudeMeters>707.79998779296875</AltitudeMeters>
            <DistanceMeters>18271.892868113</DistanceMeters>
          </Trackpoint>
          <Trackpoint>
            <Time>2021-09-26T09:07:20.000Z</Time>
            <Position>
              <LatitudeDegrees>40.43840132653713226318359375</LatitudeDegrees>
              <LongitudeDegrees>-3.70121349580585956573486328125</LongitudeDegrees>
            </Position>
            <AltitudeMeters>704.79998779296875</AltitudeMeters>
            <DistanceMeters>18290.188904126</DistanceMeters>
          </Trackpoint>
          <Trackpoint>
            <Time>2021-09-26T09:07:26.000Z</Time>
            <Position>
              <LatitudeDegrees>40.438396967947483062744140625</LatitudeDegrees>
              <LongitudeDegrees>-3.70141147635877132415771484375</LongitudeDegrees>
            </Position>
            <AltitudeMeters>701.5999755859375</AltitudeMeters>
            <DistanceMeters>18306.967511434</DistanceMeters>
          </Trackpoint>
          <Trackpoint>
            <Time>2021-09-26T09:07:33.000Z</Time>
            <Position>
              <LatitudeDegrees>40.4384497739374637603759765625</LatitudeDegrees>
              <LongitudeDegrees>-3.7016216106712818145751953125</LongitudeDegrees>
            </Position>
            <AltitudeMeters>700.4000244140625</AltitudeMeters>
            <DistanceMeters>18325.713804</DistanceMeters>
          </Trackpoint>
          <Trackpoint>
            <Time>2021-09-26T09:07:41.000Z</Time>
            <Position>
              <LatitudeDegrees>40.43846704065799713134765625</LatitudeDegrees>
              <LongitudeDegrees>-3.70185722596943378448486328125</LongitudeDegrees>
            </Position>
            <AltitudeMeters>699.4000244140625</AltitudeMeters>
            <DistanceMeters>18345.76556661</DistanceMeters>
          </Trackpoint>
          <Trackpoint>
            <Time>2021-09-26T09:07:47.000Z</Time>
            <Position>
              <LatitudeDegrees>40.4384863190352916717529296875</LatitudeDegrees>
              <LongitudeDegrees>-3.70201564393937587738037109375</LongitudeDegrees>
            </Position>
            <AltitudeMeters>699.5999755859375</AltitudeMeters>
            <DistanceMeters>18359.356047969</DistanceMeters>
          </Trackpoint>
          <Trackpoint>
            <Time>2021-09-26T09:07:48.000Z</Time>
            <Position>
              <LatitudeDegrees>40.43848447501659393310546875</LatitudeDegrees>
              <LongitudeDegrees>-3.70204456150531768798828125</LongitudeDegrees>
            </Position>
            <AltitudeMeters>699.5999755859375</AltitudeMeters>
            <DistanceMeters>18361.812079537</DistanceMeters>
          </Trackpoint>
          <Trackpoint>
            <Time>2021-09-26T09:07:52.000Z</Time>
            <Position>
              <LatitudeDegrees>40.43847885914146900177001953125</LatitudeDegrees>
              <LongitudeDegrees>-3.702178336679935455322265625</LongitudeDegrees>
            </Position>
            <AltitudeMeters>699.79998779296875</AltitudeMeters>
            <DistanceMeters>18373.162104672</DistanceMeters>
          </Trackpoint>
          <Trackpoint>
            <Time>2021-09-26T09:08:00.000Z</Time>
            <Position>
              <LatitudeDegrees>40.43847332708537578582763671875</LatitudeDegrees>
              <LongitudeDegrees>-3.70241831056773662567138671875</LongitudeDegrees>
            </Position>
            <AltitudeMeters>700</AltitudeMeters>
            <DistanceMeters>18393.500263676</DistanceMeters>
          </Trackpoint>
          <Trackpoint>
            <Time>2021-09-26T09:08:07.000Z</Time>
            <Position>
              <LatitudeDegrees>40.43846301734447479248046875</LatitudeDegrees>
              <LongitudeDegrees>-3.702622912824153900146484375</LongitudeDegrees>
            </Position>
            <AltitudeMeters>700.20001220703125</AltitudeMeters>
            <DistanceMeters>18410.870668803</DistanceMeters>
          </Trackpoint>
          <Trackpoint>
            <Time>2021-09-26T09:08:15.000Z</Time>
            <Position>
              <LatitudeDegrees>40.43851263821125030517578125</LatitudeDegrees>
              <LongitudeDegrees>-3.70288811624050140380859375</LongitudeDegrees>
            </Position>
            <AltitudeMeters>701.5999755859375</AltitudeMeters>
            <DistanceMeters>18434.005526938</DistanceMeters>
          </Trackpoint>
          <Trackpoint>
            <Time>2021-09-26T09:08:16.000Z</Time>
            <Position>
              <LatitudeDegrees>40.43851406313478946685791015625</LatitudeDegrees>
              <LongitudeDegrees>-3.70291150175034999847412109375</LongitudeDegrees>
            </Position>
            <AltitudeMeters>701.79998779296875</AltitudeMeters>
            <DistanceMeters>18435.992017161</DistanceMeters>
          </Trackpoint>
          <Trackpoint>
            <Time>2021-09-26T09:08:24.000Z</Time>
            <Position>
              <LatitudeDegrees>40.43851909227669239044189453125</LatitudeDegrees>
              <LongitudeDegrees>-3.703150637447834014892578125</LongitudeDegrees>
            </Position>
            <AltitudeMeters>701.4000244140625</AltitudeMeters>
            <DistanceMeters>18456.257452677</DistanceMeters>
          </Trackpoint>
          <Trackpoint>
            <Time>2021-09-26T09:08:26.000Z</Time>
            <Position>
              <LatitudeDegrees>40.4385195113718509674072265625</LatitudeDegrees>
              <LongitudeDegrees>-3.70320118032395839691162109375</LongitudeDegrees>
            </Position>
            <AltitudeMeters>701.20001220703125</AltitudeMeters>
            <DistanceMeters>18460.541039414</DistanceMeters>
          </Trackpoint>
          <Trackpoint>
            <Time>2021-09-26T09:08:29.000Z</Time>
            <Position>
              <LatitudeDegrees>40.43851054273545742034912109375</LatitudeDegrees>
              <LongitudeDegrees>-3.703280724585056304931640625</LongitudeDegrees>
            </Position>
            <AltitudeMeters>700.79998779296875</AltitudeMeters>
            <DistanceMeters>18467.353202276</DistanceMeters>
          </Trackpoint>
          <Trackpoint>
            <Time>2021-09-26T09:08:35.000Z</Time>
            <Position>
              <LatitudeDegrees>40.43848824687302112579345703125</LatitudeDegrees>
              <LongitudeDegrees>-3.70344333350658416748046875</LongitudeDegrees>
            </Position>
            <AltitudeMeters>700</AltitudeMeters>
            <DistanceMeters>18481.349898616</DistanceMeters>
          </Trackpoint>
          <Trackpoint>
            <Time>2021-09-26T09:08:37.000Z</Time>
            <Position>
              <LatitudeDegrees>40.43848003260791301727294921875</LatitudeDegrees>
              <LongitudeDegrees>-3.70350234210491180419921875</LongitudeDegrees>
            </Position>
            <AltitudeMeters>699.5999755859375</AltitudeMeters>
            <DistanceMeters>18486.430052007</DistanceMeters>
          </Trackpoint>
          <Trackpoint>
            <Time>2021-09-26T09:08:43.000Z</Time>
            <Position>
              <LatitudeDegrees>40.43854708783328533172607421875</LatitudeDegrees>
              <LongitudeDegrees>-3.7037060223519802093505859375</LongitudeDegrees>
            </Position>
            <AltitudeMeters>697.79998779296875</AltitudeMeters>
            <DistanceMeters>18505.229016652</DistanceMeters>
          </Trackpoint>
          <Trackpoint>
            <Time>2021-09-26T09:08:51.000Z</Time>
            <Position>
              <LatitudeDegrees>40.43855421245098114013671875</LatitudeDegrees>
              <LongitudeDegrees>-3.70396309532225131988525390625</LongitudeDegrees>
            </Position>
            <AltitudeMeters>695.5999755859375</AltitudeMeters>
            <DistanceMeters>18527.020612739</DistanceMeters>
          </Trackpoint>
          <Trackpoint>
            <Time>2021-09-26T09:08:56.000Z</Time>
            <Position>
              <LatitudeDegrees>40.4384983889758586883544921875</LatitudeDegrees>
              <LongitudeDegrees>-3.704067952930927276611328125</LongitudeDegrees>
            </Position>
            <AltitudeMeters>695.20001220703125</AltitudeMeters>
            <DistanceMeters>18537.861157691</DistanceMeters>
          </Trackpoint>
          <Trackpoint>
            <Time>2021-09-26T09:08:57.000Z</Time>
            <Position>
              <LatitudeDegrees>40.4384891688823699951171875</LatitudeDegrees>
              <LongitudeDegrees>-3.704080022871494293212890625</LongitudeDegrees>
            </Position>
            <AltitudeMeters>695.20001220703125</AltitudeMeters>
            <DistanceMeters>18539.308561482</DistanceMeters>
          </Trackpoint>
          <Trackpoint>
            <Time>2021-09-26T09:09:00.000Z</Time>
            <Position>
              <LatitudeDegrees>40.4384521208703517913818359375</LatitudeDegrees>
              <LongitudeDegrees>-3.704124949872493743896484375</LongitudeDegrees>
            </Position>
            <AltitudeMeters>695.20001220703125</AltitudeMeters>
            <DistanceMeters>18544.919162741</DistanceMeters>
          </Trackpoint>
          <Trackpoint>
            <Time>2021-09-26T09:09:08.000Z</Time>
            <Position>
              <LatitudeDegrees>40.43829915113747119903564453125</LatitudeDegrees>
              <LongitudeDegrees>-3.7041936814785003662109375</LongitudeDegrees>
            </Position>
            <AltitudeMeters>695.79998779296875</AltitudeMeters>
            <DistanceMeters>18562.912866942</DistanceMeters>
          </Trackpoint>
          <Trackpoint>
            <Time>2021-09-26T09:09:15.000Z</Time>
            <Position>
              <LatitudeDegrees>40.43813486583530902862548828125</LatitudeDegrees>
              <LongitudeDegrees>-3.70418228209018707275390625</LongitudeDegrees>
            </Position>
            <AltitudeMeters>697.20001220703125</AltitudeMeters>
            <DistanceMeters>18581.223210418</DistanceMeters>
          </Trackpoint>
          <Trackpoint>
            <Time>2021-09-26T09:09:21.000Z</Time>
            <Position>
              <LatitudeDegrees>40.43800326995551586151123046875</LatitudeDegrees>
              <LongitudeDegrees>-3.70417817495763301849365234375</LongitudeDegrees>
            </Position>
            <AltitudeMeters>698.20001220703125</AltitudeMeters>
            <DistanceMeters>18595.873975486</DistanceMeters>
          </Trackpoint>
          <Trackpoint>
            <Time>2021-09-26T09:09:27.000Z</Time>
            <Position>
              <LatitudeDegrees>40.43784535489976406097412109375</LatitudeDegrees>
              <LongitudeDegrees>-3.70417465455830097198486328125</LongitudeDegrees>
            </Position>
            <AltitudeMeters>697.79998779296875</AltitudeMeters>
            <DistanceMeters>18613.452890299</DistanceMeters>
          </Trackpoint>
          <Trackpoint>
            <Time>2021-09-26T09:09:34.000Z</Time>
            <Position>
              <LatitudeDegrees>40.43767972849309444427490234375</LatitudeDegrees>
              <LongitudeDegrees>-3.7041754089295864105224609375</LongitudeDegrees>
            </Position>
            <AltitudeMeters>697.20001220703125</AltitudeMeters>
            <DistanceMeters>18631.887583052</DistanceMeters>
          </Trackpoint>
          <Trackpoint>
            <Time>2021-09-26T09:09:40.000Z</Time>
            <Position>
              <LatitudeDegrees>40.43753539212048053741455078125</LatitudeDegrees>
              <LongitudeDegrees>-3.7041817791759967803955078125</LongitudeDegrees>
            </Position>
            <AltitudeMeters>696.5999755859375</AltitudeMeters>
            <DistanceMeters>18647.961429735</DistanceMeters>
          </Trackpoint>
          <Trackpoint>
            <Time>2021-09-26T09:09:47.000Z</Time>
            <Position>
              <LatitudeDegrees>40.4373312927782535552978515625</LatitudeDegrees>
              <LongitudeDegrees>-3.7041780911386013031005859375</LongitudeDegrees>
            </Position>
            <AltitudeMeters>696</AltitudeMeters>
            <DistanceMeters>18670.680367639</DistanceMeters>
          </Trackpoint>
          <Trackpoint>
            <Time>2021-09-26T09:09:53.000Z</Time>
            <Position>
              <LatitudeDegrees>40.43716491200029850006103515625</LatitudeDegrees>
              <LongitudeDegrees>-3.7041566334664821624755859375</LongitudeDegrees>
            </Position>
            <AltitudeMeters>695.4000244140625</AltitudeMeters>
            <DistanceMeters>18689.287898939</DistanceMeters>
          </Trackpoint>
          <Trackpoint>
            <Time>2021-09-26T09:10:00.000Z</Time>
            <Position>
              <LatitudeDegrees>40.4370442964136600494384765625</LatitudeDegrees>
              <LongitudeDegrees>-3.704210780560970306396484375</LongitudeDegrees>
            </Position>
            <AltitudeMeters>695.4000244140625</AltitudeMeters>
            <DistanceMeters>18703.474594953</DistanceMeters>
          </Trackpoint>
          <Trackpoint>
            <Time>2021-09-26T09:10:08.000Z</Time>
            <Position>
              <LatitudeDegrees>40.4368629120290279388427734375</LatitudeDegrees>
              <LongitudeDegrees>-3.7042176537215709686279296875</LongitudeDegrees>
            </Position>
            <AltitudeMeters>696.4000244140625</AltitudeMeters>
            <DistanceMeters>18723.671293028</DistanceMeters>
          </Trackpoint>
          <Trackpoint>
            <Time>2021-09-26T09:10:14.000Z</Time>
            <Position>
              <LatitudeDegrees>40.43671689927577972412109375</LatitudeDegrees>
              <LongitudeDegrees>-3.70420332066714763641357421875</LongitudeDegrees>
            </Position>
            <AltitudeMeters>697</AltitudeMeters>
            <DistanceMeters>18739.968028231</DistanceMeters>
          </Trackpoint>
          <Trackpoint>
            <Time>2021-09-26T09:10:21.000Z</Time>
            <Position>
              <LatitudeDegrees>40.4365276359021663665771484375</LatitudeDegrees>
              <LongitudeDegrees>-3.70421203784644603729248046875</LongitudeDegrees>
            </Position>
            <AltitudeMeters>698</AltitudeMeters>
            <DistanceMeters>18761.046401536</DistanceMeters>
          </Trackpoint>
          <Trackpoint>
            <Time>2021-09-26T09:10:24.000Z</Time>
            <Position>
              <LatitudeDegrees>40.43645429424941539764404296875</LatitudeDegrees>
              <LongitudeDegrees>-3.7042005546391010284423828125</LongitudeDegrees>
            </Position>
            <AltitudeMeters>698.20001220703125</AltitudeMeters>
            <DistanceMeters>18769.267173526</DistanceMeters>
          </Trackpoint>
          <Trackpoint>
            <Time>2021-09-26T09:10:31.000Z</Time>
            <Position>
              <LatitudeDegrees>40.43628280051052570343017578125</LatitudeDegrees>
              <LongitudeDegrees>-3.70415747165679931640625</LongitudeDegrees>
            </Position>
            <AltitudeMeters>697.5999755859375</AltitudeMeters>
            <DistanceMeters>18788.700543204</DistanceMeters>
          </Trackpoint>
          <Trackpoint>
            <Time>2021-09-26T09:10:38.000Z</Time>
            <Position>
              <LatitudeDegrees>40.4360974766314029693603515625</LatitudeDegrees>
              <LongitudeDegrees>-3.70420533232390880584716796875</LongitudeDegrees>
            </Position>
            <AltitudeMeters>697.20001220703125</AltitudeMeters>
            <DistanceMeters>18809.722291015</DistanceMeters>
          </Trackpoint>
          <Trackpoint>
            <Time>2021-09-26T09:10:44.000Z</Time>
            <Position>
              <LatitudeDegrees>40.4359885118901729583740234375</LatitudeDegrees>
              <LongitudeDegrees>-3.70427339337766170501708984375</LongitudeDegrees>
            </Position>
            <AltitudeMeters>697</AltitudeMeters>
            <DistanceMeters>18823.151014952</DistanceMeters>
          </Trackpoint>
          <Trackpoint>
            <Time>2021-09-26T09:10:51.000Z</Time>
            <Position>
              <LatitudeDegrees>40.43582129292190074920654296875</LatitudeDegrees>
              <LongitudeDegrees>-3.7042619101703166961669921875</LongitudeDegrees>
            </Position>
            <AltitudeMeters>696.5999755859375</AltitudeMeters>
            <DistanceMeters>18841.788367782</DistanceMeters>
          </Trackpoint>
          <Trackpoint>
            <Time>2021-09-26T09:10:59.000Z</Time>
            <Position>
              <LatitudeDegrees>40.43563638813793659210205078125</LatitudeDegrees>
              <LongitudeDegrees>-3.7042283825576305389404296875</LongitudeDegrees>
            </Position>
            <AltitudeMeters>696.20001220703125</AltitudeMeters>
            <DistanceMeters>18862.563606981</DistanceMeters>
          </Trackpoint>
          <Trackpoint>
            <Time>2021-09-26T09:11:01.000Z</Time>
            <Position>
              <LatitudeDegrees>40.43559397570788860321044921875</LatitudeDegrees>
              <LongitudeDegrees>-3.7042129598557949066162109375</LongitudeDegrees>
            </Position>
            <AltitudeMeters>696</AltitudeMeters>
            <DistanceMeters>18867.461863111</DistanceMeters>
          </Trackpoint>
          <Trackpoint>
            <Time>2021-09-26T09:11:08.000Z</Time>
            <Position>
              <LatitudeDegrees>40.435451231896877288818359375</LatitudeDegrees>
              <LongitudeDegrees>-3.704222850501537322998046875</LongitudeDegrees>
            </Position>
            <AltitudeMeters>695.79998779296875</AltitudeMeters>
            <DistanceMeters>18883.371957481</DistanceMeters>
          </Trackpoint>
          <Trackpoint>
            <Time>2021-09-26T09:11:15.000Z</Time>
            <Position>
              <LatitudeDegrees>40.43526942841708660125732421875</LatitudeDegrees>
              <LongitudeDegrees>-3.7042079307138919830322265625</LongitudeDegrees>
            </Position>
            <AltitudeMeters>695.20001220703125</AltitudeMeters>
            <DistanceMeters>18903.646525536</DistanceMeters>
          </Trackpoint>
          <Trackpoint>
            <Time>2021-09-26T09:11:16.000Z</Time>
            <Position>
              <LatitudeDegrees>40.43523824773728847503662109375</LatitudeDegrees>
              <LongitudeDegrees>-3.70420650579035282135009765625</LongitudeDegrees>
            </Position>
            <AltitudeMeters>695.20001220703125</AltitudeMeters>
            <DistanceMeters>18907.119878689</DistanceMeters>
          </Trackpoint>
          <Trackpoint>
            <Time>2021-09-26T09:11:23.000Z</Time>
            <Position>
              <LatitudeDegrees>40.43505267240107059478759765625</LatitudeDegrees>
              <LongitudeDegrees>-3.70422695763409137725830078125</LongitudeDegrees>
            </Position>
            <AltitudeMeters>694.79998779296875</AltitudeMeters>
            <DistanceMeters>18927.847468444</DistanceMeters>
          </Trackpoint>
          <Trackpoint>
            <Time>2021-09-26T09:11:24.000Z</Time>
            <Position>
              <LatitudeDegrees>40.4350309632718563079833984375</LatitudeDegrees>
              <LongitudeDegrees>-3.704226203262805938720703125</LongitudeDegrees>
            </Position>
            <AltitudeMeters>694.79998779296875</AltitudeMeters>
            <DistanceMeters>18930.266453673</DistanceMeters>
          </Trackpoint>
          <Trackpoint>
            <Time>2021-09-26T09:11:32.000Z</Time>
            <Position>
              <LatitudeDegrees>40.4348432086408138275146484375</LatitudeDegrees>
              <LongitudeDegrees>-3.7042340822517871856689453125</LongitudeDegrees>
            </Position>
            <AltitudeMeters>694.20001220703125</AltitudeMeters>
            <DistanceMeters>18951.174490421</DistanceMeters>
          </Trackpoint>
          <Trackpoint>
            <Time>2021-09-26T09:11:38.000Z</Time>
            <Position>
              <LatitudeDegrees>40.4347318969666957855224609375</LatitudeDegrees>
              <LongitudeDegrees>-3.70425763539969921112060546875</LongitudeDegrees>
            </Position>
            <AltitudeMeters>694</AltitudeMeters>
            <DistanceMeters>18963.723055001</DistanceMeters>
          </Trackpoint>
          <Trackpoint>
            <Time>2021-09-26T09:11:46.000Z</Time>
            <Position>
              <LatitudeDegrees>40.43453198857605457305908203125</LatitudeDegrees>
              <LongitudeDegrees>-3.70425160042941570281982421875</LongitudeDegrees>
            </Position>
            <AltitudeMeters>693.5999755859375</AltitudeMeters>
            <DistanceMeters>18985.979196025</DistanceMeters>
          </Trackpoint>
          <Trackpoint>
            <Time>2021-09-26T09:11:48.000Z</Time>
            <Position>
              <LatitudeDegrees>40.434475243091583251953125</LatitudeDegrees>
              <LongitudeDegrees>-3.70425746776163578033447265625</LongitudeDegrees>
            </Position>
            <AltitudeMeters>693.5999755859375</AltitudeMeters>
            <DistanceMeters>18992.313993552</DistanceMeters>
          </Trackpoint>
          <Trackpoint>
            <Time>2021-09-26T09:11:53.000Z</Time>
            <Position>
              <LatitudeDegrees>40.43432570993900299072265625</LatitudeDegrees>
              <LongitudeDegrees>-3.70426584966480731964111328125</LongitudeDegrees>
            </Position>
            <AltitudeMeters>693.4000244140625</AltitudeMeters>
            <DistanceMeters>19008.972423226</DistanceMeters>
          </Trackpoint>
          <Trackpoint>
            <Time>2021-09-26T09:12:01.000Z</Time>
            <Position>
              <LatitudeDegrees>40.43413787148892879486083984375</LatitudeDegrees>
              <LongitudeDegrees>-3.70424623601138591766357421875</LongitudeDegrees>
            </Position>
            <AltitudeMeters>693</AltitudeMeters>
            <DistanceMeters>19029.945144165</DistanceMeters>
          </Trackpoint>
          <Trackpoint>
            <Time>2021-09-26T09:12:02.000Z</Time>
            <Position>
              <LatitudeDegrees>40.43413787148892879486083984375</LatitudeDegrees>
              <LongitudeDegrees>-3.70424623601138591766357421875</LongitudeDegrees>
            </Position>
            <AltitudeMeters>693</AltitudeMeters>
            <DistanceMeters>19029.945144165</DistanceMeters>
          </Trackpoint>
          <Trackpoint>
            <Time>2021-09-26T09:12:09.000Z</Time>
            <Position>
              <LatitudeDegrees>40.43395296670496463775634765625</LatitudeDegrees>
              <LongitudeDegrees>-3.70425478555262088775634765625</LongitudeDegrees>
            </Position>
            <AltitudeMeters>692.79998779296875</AltitudeMeters>
            <DistanceMeters>19050.538115052</DistanceMeters>
          </Trackpoint>
          <Trackpoint>
            <Time>2021-09-26T09:12:12.000Z</Time>
            <Position>
              <LatitudeDegrees>40.43388926424086093902587890625</LatitudeDegrees>
              <LongitudeDegrees>-3.70426132343709468841552734375</LongitudeDegrees>
            </Position>
            <AltitudeMeters>693</AltitudeMeters>
            <DistanceMeters>19057.650532942</DistanceMeters>
          </Trackpoint>
          <Trackpoint>
            <Time>2021-09-26T09:12:20.000Z</Time>
            <Position>
              <LatitudeDegrees>40.4336895234882831573486328125</LatitudeDegrees>
              <LongitudeDegrees>-3.70430105365812778472900390625</LongitudeDegrees>
            </Position>
            <AltitudeMeters>693</AltitudeMeters>
            <DistanceMeters>19080.135548396</DistanceMeters>
          </Trackpoint>
          <Trackpoint>
            <Time>2021-09-26T09:12:21.000Z</Time>
            <Position>
              <LatitudeDegrees>40.43367384932935237884521484375</LatitudeDegrees>
              <LongitudeDegrees>-3.7043088488280773162841796875</LongitudeDegrees>
            </Position>
            <AltitudeMeters>693</AltitudeMeters>
            <DistanceMeters>19082.002527107</DistanceMeters>
          </Trackpoint>
          <Trackpoint>
            <Time>2021-09-26T09:12:28.000Z</Time>
            <Position>
              <LatitudeDegrees>40.4335312731564044952392578125</LatitudeDegrees>
              <LongitudeDegrees>-3.70440213941037654876708984375</LongitudeDegrees>
            </Position>
            <AltitudeMeters>693</AltitudeMeters>
            <DistanceMeters>19099.730804255</DistanceMeters>
          </Trackpoint>
          <Trackpoint>
            <Time>2021-09-26T09:12:36.000Z</Time>
            <Position>
              <LatitudeDegrees>40.4333411715924739837646484375</LatitudeDegrees>
              <LongitudeDegrees>-3.7044412828981876373291015625</LongitudeDegrees>
            </Position>
            <AltitudeMeters>692.79998779296875</AltitudeMeters>
            <DistanceMeters>19121.147894698</DistanceMeters>
          </Trackpoint>
          <Trackpoint>
            <Time>2021-09-26T09:12:37.000Z</Time>
            <Position>
              <LatitudeDegrees>40.4333210550248622894287109375</LatitudeDegrees>
              <LongitudeDegrees>-3.70444740168750286102294921875</LongitudeDegrees>
            </Position>
            <AltitudeMeters>692.79998779296875</AltitudeMeters>
            <DistanceMeters>19123.444319015</DistanceMeters>
          </Trackpoint>
          <Trackpoint>
            <Time>2021-09-26T09:12:41.000Z</Time>
            <Position>
              <LatitudeDegrees>40.43322172947227954864501953125</LatitudeDegrees>
              <LongitudeDegrees>-3.70448059402406215667724609375</LongitudeDegrees>
            </Position>
            <AltitudeMeters>692.79998779296875</AltitudeMeters>
            <DistanceMeters>19134.851483498</DistanceMeters>
          </Trackpoint>
          <Trackpoint>
            <Time>2021-09-26T09:12:43.000Z</Time>
            <Position>
              <LatitudeDegrees>40.43317898176610469818115234375</LatitudeDegrees>
              <LongitudeDegrees>-3.7044932506978511810302734375</LongitudeDegrees>
            </Position>
            <AltitudeMeters>692.5999755859375</AltitudeMeters>
            <DistanceMeters>19139.729418659</DistanceMeters>
          </Trackpoint>
          <Trackpoint>
            <Time>2021-09-26T09:12:49.000Z</Time>
            <Position>
              <LatitudeDegrees>40.43301972560584545135498046875</LatitudeDegrees>
              <LongitudeDegrees>-3.70453876443207263946533203125</LongitudeDegrees>
            </Position>
            <AltitudeMeters>692.5999755859375</AltitudeMeters>
            <DistanceMeters>19157.869816829</DistanceMeters>
          </Trackpoint>
          <Trackpoint>
            <Time>2021-09-26T09:12:56.000Z</Time>
            <Position>
              <LatitudeDegrees>40.4328597150743007659912109375</LatitudeDegrees>
              <LongitudeDegrees>-3.70459559373557567596435546875</LongitudeDegrees>
            </Position>
            <AltitudeMeters>693</AltitudeMeters>
            <DistanceMeters>19176.318709514</DistanceMeters>
          </Trackpoint>
          <Trackpoint>
            <Time>2021-09-26T09:13:04.000Z</Time>
            <Position>
              <LatitudeDegrees>40.43266835622489452362060546875</LatitudeDegrees>
              <LongitudeDegrees>-3.70465560816228389739990234375</LongitudeDegrees>
            </Position>
            <AltitudeMeters>693.4000244140625</AltitudeMeters>
            <DistanceMeters>19198.215924614</DistanceMeters>
          </Trackpoint>
          <Trackpoint>
            <Time>2021-09-26T09:13:06.000Z</Time>
            <Position>
              <LatitudeDegrees>40.43261957354843616485595703125</LatitudeDegrees>
              <LongitudeDegrees>-3.70465024374425411224365234375</LongitudeDegrees>
            </Position>
            <AltitudeMeters>693.20001220703125</AltitudeMeters>
            <DistanceMeters>19203.664859496</DistanceMeters>
          </Trackpoint>
          <Trackpoint>
            <Time>2021-09-26T09:13:14.000Z</Time>
            <Position>
              <LatitudeDegrees>40.43245084583759307861328125</LatitudeDegrees>
              <LongitudeDegrees>-3.70468511246144771575927734375</LongitudeDegrees>
            </Position>
            <AltitudeMeters>693.20001220703125</AltitudeMeters>
            <DistanceMeters>19222.67542812</DistanceMeters>
          </Trackpoint>
          <Trackpoint>
            <Time>2021-09-26T09:13:19.000Z</Time>
            <Position>
              <LatitudeDegrees>40.43234162963926792144775390625</LatitudeDegrees>
              <LongitudeDegrees>-3.704730458557605743408203125</LongitudeDegrees>
            </Position>
            <AltitudeMeters>693</AltitudeMeters>
            <DistanceMeters>19235.423891394</DistanceMeters>
          </Trackpoint>
          <Trackpoint>
            <Time>2021-09-26T09:13:26.000Z</Time>
            <Position>
              <LatitudeDegrees>40.43219871819019317626953125</LatitudeDegrees>
              <LongitudeDegrees>-3.7048052251338958740234375</LongitudeDegrees>
            </Position>
            <AltitudeMeters>693.20001220703125</AltitudeMeters>
            <DistanceMeters>19252.545057871</DistanceMeters>
          </Trackpoint>
          <Trackpoint>
            <Time>2021-09-26T09:13:31.000Z</Time>
            <Position>
              <LatitudeDegrees>40.43208966962993144989013671875</LatitudeDegrees>
              <LongitudeDegrees>-3.7048660777509212493896484375</LongitudeDegrees>
            </Position>
            <AltitudeMeters>693.5999755859375</AltitudeMeters>
            <DistanceMeters>19265.731876368</DistanceMeters>
          </Trackpoint>
          <Trackpoint>
            <Time>2021-09-26T09:13:38.000Z</Time>
            <Position>
              <LatitudeDegrees>40.43193141929805278778076171875</LatitudeDegrees>
              <LongitudeDegrees>-3.70499138720333576202392578125</LongitudeDegrees>
            </Position>
            <AltitudeMeters>694.5999755859375</AltitudeMeters>
            <DistanceMeters>19286.297642108</DistanceMeters>
          </Trackpoint>
          <Trackpoint>
            <Time>2021-09-26T09:13:40.000Z</Time>
            <Position>
              <LatitudeDegrees>40.43188230134546756744384765625</LatitudeDegrees>
              <LongitudeDegrees>-3.70501804165542125701904296875</LongitudeDegrees>
            </Position>
            <AltitudeMeters>694.79998779296875</AltitudeMeters>
            <DistanceMeters>19292.212244051</DistanceMeters>
          </Trackpoint>
          <Trackpoint>
            <Time>2021-09-26T09:13:48.000Z</Time>
            <Position>
              <LatitudeDegrees>40.43169504962861537933349609375</LatitudeDegrees>
              <LongitudeDegrees>-3.70507839135825634002685546875</LongitudeDegrees>
            </Position>
            <AltitudeMeters>696</AltitudeMeters>
            <DistanceMeters>19313.671876818</DistanceMeters>
          </Trackpoint>
          <Trackpoint>
            <Time>2021-09-26T09:13:56.000Z</Time>
            <Position>
              <LatitudeDegrees>40.431508719921112060546875</LatitudeDegrees>
              <LongitudeDegrees>-3.7050773017108440399169921875</LongitudeDegrees>
            </Position>
            <AltitudeMeters>696.79998779296875</AltitudeMeters>
            <DistanceMeters>19334.41122592</DistanceMeters>
          </Trackpoint>
          <Trackpoint>
            <Time>2021-09-26T09:14:01.000Z</Time>
            <Position>
              <LatitudeDegrees>40.43140889145433902740478515625</LatitudeDegrees>
              <LongitudeDegrees>-3.70511124841868877410888671875</LongitudeDegrees>
            </Position>
            <AltitudeMeters>697.4000244140625</AltitudeMeters>
            <DistanceMeters>19345.888627855</DistanceMeters>
          </Trackpoint>
          <Trackpoint>
            <Time>2021-09-26T09:14:07.000Z</Time>
            <Position>
              <LatitudeDegrees>40.43132834136486053466796875</LatitudeDegrees>
              <LongitudeDegrees>-3.7052258290350437164306640625</LongitudeDegrees>
            </Position>
            <AltitudeMeters>697.79998779296875</AltitudeMeters>
            <DistanceMeters>19359.103150861</DistanceMeters>
          </Trackpoint>
          <Trackpoint>
            <Time>2021-09-26T09:14:15.000Z</Time>
            <Position>
              <LatitudeDegrees>40.4311705939471721649169921875</LatitudeDegrees>
              <LongitudeDegrees>-3.705281652510166168212890625</LongitudeDegrees>
            </Position>
            <AltitudeMeters>696.4000244140625</AltitudeMeters>
            <DistanceMeters>19377.28655673</DistanceMeters>
          </Trackpoint>
          <Trackpoint>
            <Time>2021-09-26T09:14:21.000Z</Time>
            <Position>
              <LatitudeDegrees>40.4309965856373310089111328125</LatitudeDegrees>
              <LongitudeDegrees>-3.70529665611684322357177734375</LongitudeDegrees>
            </Position>
            <AltitudeMeters>695.20001220703125</AltitudeMeters>
            <DistanceMeters>19396.695748601</DistanceMeters>
          </Trackpoint>
          <Trackpoint>
            <Time>2021-09-26T09:14:28.000Z</Time>
            <Position>
              <LatitudeDegrees>40.4308118484914302825927734375</LatitudeDegrees>
              <LongitudeDegrees>-3.7053492106497287750244140625</LongitudeDegrees>
            </Position>
            <AltitudeMeters>693.5999755859375</AltitudeMeters>
            <DistanceMeters>19417.733813313</DistanceMeters>
          </Trackpoint>
          <Trackpoint>
            <Time>2021-09-26T09:14:30.000Z</Time>
            <Position>
              <LatitudeDegrees>40.43076164089143276214599609375</LatitudeDegrees>
              <LongitudeDegrees>-3.7053689919412136077880859375</LongitudeDegrees>
            </Position>
            <AltitudeMeters>693.20001220703125</AltitudeMeters>
            <DistanceMeters>19423.566936665</DistanceMeters>
          </Trackpoint>
          <Trackpoint>
            <Time>2021-09-26T09:14:37.000Z</Time>
            <Position>
              <LatitudeDegrees>40.43057640083134174346923828125</LatitudeDegrees>
              <LongitudeDegrees>-3.7054373882710933685302734375</LongitudeDegrees>
            </Position>
            <AltitudeMeters>691.5999755859375</AltitudeMeters>
            <DistanceMeters>19444.983394654</DistanceMeters>
          </Trackpoint>
          <Trackpoint>
            <Time>2021-09-26T09:14:45.000Z</Time>
            <Position>
              <LatitudeDegrees>40.4303605668246746063232421875</LatitudeDegrees>
              <LongitudeDegrees>-3.70549279265105724334716796875</LongitudeDegrees>
            </Position>
            <AltitudeMeters>690.5999755859375</AltitudeMeters>
            <DistanceMeters>19469.460476014</DistanceMeters>
          </Trackpoint>
          <Trackpoint>
            <Time>2021-09-26T09:14:46.000Z</Time>
            <Position>
              <LatitudeDegrees>40.4303270392119884490966796875</LatitudeDegrees>
              <LongitudeDegrees>-3.70550335384905338287353515625</LongitudeDegrees>
            </Position>
            <AltitudeMeters>690.5999755859375</AltitudeMeters>
            <DistanceMeters>19473.298190787</DistanceMeters>
          </Trackpoint>
          <Trackpoint>
            <Time>2021-09-26T09:14:47.000Z</Time>
            <Position>
              <LatitudeDegrees>40.430304743349552154541015625</LatitudeDegrees>
              <LongitudeDegrees>-3.70551894418895244598388671875</LongitudeDegrees>
            </Position>
            <AltitudeMeters>690.5999755859375</AltitudeMeters>
            <DistanceMeters>19476.107512202</DistanceMeters>
          </Trackpoint>
          <Trackpoint>
            <Time>2021-09-26T09:14:50.000Z</Time>
            <Position>
              <LatitudeDegrees>40.43022536672651767730712890625</LatitudeDegrees>
              <LongitudeDegrees>-3.70552749373018741607666015625</LongitudeDegrees>
            </Position>
            <AltitudeMeters>690.5999755859375</AltitudeMeters>
            <DistanceMeters>19484.971523435</DistanceMeters>
          </Trackpoint>
          <Trackpoint>
            <Time>2021-09-26T09:14:56.000Z</Time>
            <Position>
              <LatitudeDegrees>40.4301040805876255035400390625</LatitudeDegrees>
              <LongitudeDegrees>-3.7055550701916217803955078125</LongitudeDegrees>
            </Position>
            <AltitudeMeters>690.20001220703125</AltitudeMeters>
            <DistanceMeters>19498.671858065</DistanceMeters>
          </Trackpoint>
          <Trackpoint>
            <Time>2021-09-26T09:15:02.000Z</Time>
            <Position>
              <LatitudeDegrees>40.43000006116926670074462890625</LatitudeDegrees>
              <LongitudeDegrees>-3.70558717288076877593994140625</LongitudeDegrees>
            </Position>
            <AltitudeMeters>689.4000244140625</AltitudeMeters>
            <DistanceMeters>19510.56463265</DistanceMeters>
          </Trackpoint>
          <Trackpoint>
            <Time>2021-09-26T09:15:09.000Z</Time>
            <Position>
              <LatitudeDegrees>40.4298569820821285247802734375</LatitudeDegrees>
              <LongitudeDegrees>-3.70566110126674175262451171875</LongitudeDegrees>
            </Position>
            <AltitudeMeters>688.4000244140625</AltitudeMeters>
            <DistanceMeters>19527.677358298</DistanceMeters>
          </Trackpoint>
          <Trackpoint>
            <Time>2021-09-26T09:15:17.000Z</Time>
            <Position>
              <LatitudeDegrees>40.42973770759999752044677734375</LatitudeDegrees>
              <LongitudeDegrees>-3.70587416924536228179931640625</LongitudeDegrees>
            </Position>
            <AltitudeMeters>687.5999755859375</AltitudeMeters>
            <DistanceMeters>19550.085133078</DistanceMeters>
          </Trackpoint>
          <Trackpoint>
            <Time>2021-09-26T09:15:23.000Z</Time>
            <Position>
              <LatitudeDegrees>40.4295854084193706512451171875</LatitudeDegrees>
              <LongitudeDegrees>-3.70599956251680850982666015625</LongitudeDegrees>
            </Position>
            <AltitudeMeters>686.79998779296875</AltitudeMeters>
            <DistanceMeters>19570.090457069</DistanceMeters>
          </Trackpoint>
          <Trackpoint>
            <Time>2021-09-26T09:15:29.000Z</Time>
            <Position>
              <LatitudeDegrees>40.42955179698765277862548828125</LatitudeDegrees>
              <LongitudeDegrees>-3.70625051669776439666748046875</LongitudeDegrees>
            </Position>
            <AltitudeMeters>687.20001220703125</AltitudeMeters>
            <DistanceMeters>19591.678886966</DistanceMeters>
          </Trackpoint>
          <Trackpoint>
            <Time>2021-09-26T09:15:34.000Z</Time>
            <Position>
              <LatitudeDegrees>40.4295294173061847686767578125</LatitudeDegrees>
              <LongitudeDegrees>-3.70643860660493373870849609375</LongitudeDegrees>
            </Position>
            <AltitudeMeters>687.4000244140625</AltitudeMeters>
            <DistanceMeters>19607.808254665</DistanceMeters>
          </Trackpoint>
          <Trackpoint>
            <Time>2021-09-26T09:15:41.000Z</Time>
            <Position>
              <LatitudeDegrees>40.42955498211085796356201171875</LatitudeDegrees>
              <LongitudeDegrees>-3.70665603317320346832275390625</LongitudeDegrees>
            </Position>
            <AltitudeMeters>687.5999755859375</AltitudeMeters>
            <DistanceMeters>19626.448029912</DistanceMeters>
          </Trackpoint>
          <Trackpoint>
            <Time>2021-09-26T09:15:47.000Z</Time>
            <Position>
              <LatitudeDegrees>40.42960175313055515289306640625</LatitudeDegrees>
              <LongitudeDegrees>-3.70683993212878704071044921875</LongitudeDegrees>
            </Position>
            <AltitudeMeters>688</AltitudeMeters>
            <DistanceMeters>19642.875287883</DistanceMeters>
          </Trackpoint>
          <Trackpoint>
            <Time>2021-09-26T09:15:53.000Z</Time>
            <Position>
              <LatitudeDegrees>40.42968272231519222259521484375</LatitudeDegrees>
              <LongitudeDegrees>-3.70709742419421672821044921875</LongitudeDegrees>
            </Position>
            <AltitudeMeters>688.20001220703125</AltitudeMeters>
            <DistanceMeters>19666.47905149</DistanceMeters>
          </Trackpoint>
          <Trackpoint>
            <Time>2021-09-26T09:15:58.000Z</Time>
            <Position>
              <LatitudeDegrees>40.4297416470944881439208984375</LatitudeDegrees>
              <LongitudeDegrees>-3.70721317827701568603515625</LongitudeDegrees>
            </Position>
            <AltitudeMeters>688.4000244140625</AltitudeMeters>
            <DistanceMeters>19678.276915632</DistanceMeters>
          </Trackpoint>
          <Trackpoint>
            <Time>2021-09-26T09:16:01.000Z</Time>
            <Position>
              <LatitudeDegrees>40.4297510348260402679443359375</LatitudeDegrees>
              <LongitudeDegrees>-3.707302697002887725830078125</LongitudeDegrees>
            </Position>
            <AltitudeMeters>688.4000244140625</AltitudeMeters>
            <DistanceMeters>19685.932908461</DistanceMeters>
          </Trackpoint>
          <Trackpoint>
            <Time>2021-09-26T09:16:04.000Z</Time>
            <Position>
              <LatitudeDegrees>40.429746843874454498291015625</LatitudeDegrees>
              <LongitudeDegrees>-3.7074275873601436614990234375</LongitudeDegrees>
            </Position>
            <AltitudeMeters>688.4000244140625</AltitudeMeters>
            <DistanceMeters>19696.524870967</DistanceMeters>
          </Trackpoint>
          <Trackpoint>
            <Time>2021-09-26T09:16:08.000Z</Time>
            <Position>
              <LatitudeDegrees>40.42973066680133342742919921875</LatitudeDegrees>
              <LongitudeDegrees>-3.7075486220419406890869140625</LongitudeDegrees>
            </Position>
            <AltitudeMeters>688.4000244140625</AltitudeMeters>
            <DistanceMeters>19706.936260771</DistanceMeters>
          </Trackpoint>
          <Trackpoint>
            <Time>2021-09-26T09:16:10.000Z</Time>
            <Position>
              <LatitudeDegrees>40.42972035706043243408203125</LatitudeDegrees>
              <LongitudeDegrees>-3.70759950019419193267822265625</LongitudeDegrees>
            </Position>
            <AltitudeMeters>688.4000244140625</AltitudeMeters>
            <DistanceMeters>19711.39745887</DistanceMeters>
          </Trackpoint>
          <Trackpoint>
            <Time>2021-09-26T09:16:12.000Z</Time>
            <Position>
              <LatitudeDegrees>40.4297315888106822967529296875</LatitudeDegrees>
              <LongitudeDegrees>-3.70765213854610919952392578125</LongitudeDegrees>
            </Position>
            <AltitudeMeters>688.20001220703125</AltitudeMeters>
            <DistanceMeters>19716.028488081</DistanceMeters>
          </Trackpoint>
          <Trackpoint>
            <Time>2021-09-26T09:16:15.000Z</Time>
            <Position>
              <LatitudeDegrees>40.429718010127544403076171875</LatitudeDegrees>
              <LongitudeDegrees>-3.707717098295688629150390625</LongitudeDegrees>
            </Position>
            <AltitudeMeters>688</AltitudeMeters>
            <DistanceMeters>19721.735631476</DistanceMeters>
          </Trackpoint>
          <Trackpoint>
            <Time>2021-09-26T09:16:18.000Z</Time>
            <Position>
              <LatitudeDegrees>40.4297030903398990631103515625</LatitudeDegrees>
              <LongitudeDegrees>-3.70779454708099365234375</LongitudeDegrees>
            </Position>
            <AltitudeMeters>687.4000244140625</AltitudeMeters>
            <DistanceMeters>19728.504575846</DistanceMeters>
          </Trackpoint>
          <Trackpoint>
            <Time>2021-09-26T09:16:21.000Z</Time>
            <Position>
              <LatitudeDegrees>40.42971993796527385711669921875</LatitudeDegrees>
              <LongitudeDegrees>-3.707855902612209320068359375</LongitudeDegrees>
            </Position>
            <AltitudeMeters>687</AltitudeMeters>
            <DistanceMeters>19734.030851132</DistanceMeters>
          </Trackpoint>
          <Trackpoint>
            <Time>2021-09-26T09:16:28.000Z</Time>
            <Position>
              <LatitudeDegrees>40.42974474839866161346435546875</LatitudeDegrees>
              <LongitudeDegrees>-3.7081159092485904693603515625</LongitudeDegrees>
            </Position>
            <AltitudeMeters>685.20001220703125</AltitudeMeters>
            <DistanceMeters>19756.231743737</DistanceMeters>
          </Trackpoint>
          <Trackpoint>
            <Time>2021-09-26T09:16:34.000Z</Time>
            <Position>
              <LatitudeDegrees>40.4297533817589282989501953125</LatitudeDegrees>
              <LongitudeDegrees>-3.7082952819764614105224609375</LongitudeDegrees>
            </Position>
            <AltitudeMeters>684</AltitudeMeters>
            <DistanceMeters>19771.459163181</DistanceMeters>
          </Trackpoint>
          <Trackpoint>
            <Time>2021-09-26T09:16:36.000Z</Time>
            <Position>
              <LatitudeDegrees>40.4297537170350551605224609375</LatitudeDegrees>
              <LongitudeDegrees>-3.70835445821285247802734375</LongitudeDegrees>
            </Position>
            <AltitudeMeters>683.5999755859375</AltitudeMeters>
            <DistanceMeters>19776.473116992</DistanceMeters>
          </Trackpoint>
          <Trackpoint>
            <Time>2021-09-26T09:16:39.000Z</Time>
            <Position>
              <LatitudeDegrees>40.42977131903171539306640625</LatitudeDegrees>
              <LongitudeDegrees>-3.70844892226159572601318359375</LongitudeDegrees>
            </Position>
            <AltitudeMeters>683</AltitudeMeters>
            <DistanceMeters>19784.712541408</DistanceMeters>
          </Trackpoint>
          <Trackpoint>
            <Time>2021-09-26T09:16:46.000Z</Time>
            <Position>
              <LatitudeDegrees>40.42984306812286376953125</LatitudeDegrees>
              <LongitudeDegrees>-3.708700127899646759033203125</LongitudeDegrees>
            </Position>
            <AltitudeMeters>682.5999755859375</AltitudeMeters>
            <DistanceMeters>19807.444592008</DistanceMeters>
          </Trackpoint>
          <Trackpoint>
            <Time>2021-09-26T09:16:47.000Z</Time>
            <Position>
              <LatitudeDegrees>40.429848767817020416259765625</LatitudeDegrees>
              <LongitudeDegrees>-3.708737678825855255126953125</LongitudeDegrees>
            </Position>
            <AltitudeMeters>682.4000244140625</AltitudeMeters>
            <DistanceMeters>19810.689444722</DistanceMeters>
          </Trackpoint>
          <Trackpoint>
            <Time>2021-09-26T09:16:51.000Z</Time>
            <Position>
              <LatitudeDegrees>40.42985756881535053253173828125</LatitudeDegrees>
              <LongitudeDegrees>-3.7088421173393726348876953125</LongitudeDegrees>
            </Position>
            <AltitudeMeters>682.20001220703125</AltitudeMeters>
            <DistanceMeters>19819.592590853</DistanceMeters>
          </Trackpoint>
          <Trackpoint>
            <Time>2021-09-26T09:16:52.000Z</Time>
            <Position>
              <LatitudeDegrees>40.42985823936760425567626953125</LatitudeDegrees>
              <LongitudeDegrees>-3.7088714540004730224609375</LongitudeDegrees>
            </Position>
            <AltitudeMeters>682</AltitudeMeters>
            <DistanceMeters>19822.077861922</DistanceMeters>
          </Trackpoint>
          <Trackpoint>
            <Time>2021-09-26T09:16:58.000Z</Time>
            <Position>
              <LatitudeDegrees>40.429850108921527862548828125</LatitudeDegrees>
              <LongitudeDegrees>-3.70904353447258472442626953125</LongitudeDegrees>
            </Position>
            <AltitudeMeters>681.4000244140625</AltitudeMeters>
            <DistanceMeters>19836.685418404</DistanceMeters>
          </Trackpoint>
          <Trackpoint>
            <Time>2021-09-26T09:16:59.000Z</Time>
            <Position>
              <LatitudeDegrees>40.429857484996318817138671875</LatitudeDegrees>
              <LongitudeDegrees>-3.70907136239111423492431640625</LongitudeDegrees>
            </Position>
            <AltitudeMeters>681.20001220703125</AltitudeMeters>
            <DistanceMeters>19839.181565985</DistanceMeters>
          </Trackpoint>
          <Trackpoint>
            <Time>2021-09-26T09:17:03.000Z</Time>
            <Position>
              <LatitudeDegrees>40.429861508309841156005859375</LatitudeDegrees>
              <LongitudeDegrees>-3.7092239968478679656982421875</LongitudeDegrees>
            </Position>
            <AltitudeMeters>680.79998779296875</AltitudeMeters>
            <DistanceMeters>19852.12091092</DistanceMeters>
          </Trackpoint>
          <Trackpoint>
            <Time>2021-09-26T09:17:09.000Z</Time>
            <Position>
              <LatitudeDegrees>40.4298486001789569854736328125</LatitudeDegrees>
              <LongitudeDegrees>-3.7094358913600444793701171875</LongitudeDegrees>
            </Position>
            <AltitudeMeters>680.4000244140625</AltitudeMeters>
            <DistanceMeters>19870.130667048</DistanceMeters>
          </Trackpoint>
          <Trackpoint>
            <Time>2021-09-26T09:17:10.000Z</Time>
            <Position>
              <LatitudeDegrees>40.42984499596059322357177734375</LatitudeDegrees>
              <LongitudeDegrees>-3.709465228021144866943359375</LongitudeDegrees>
            </Position>
            <AltitudeMeters>680.4000244140625</AltitudeMeters>
            <DistanceMeters>19872.6484267</DistanceMeters>
          </Trackpoint>
          <Trackpoint>
            <Time>2021-09-26T09:17:14.000Z</Time>
            <Position>
              <LatitudeDegrees>40.42985253967344760894775390625</LatitudeDegrees>
              <LongitudeDegrees>-3.7095840834081172943115234375</LongitudeDegrees>
            </Position>
            <AltitudeMeters>680.5999755859375</AltitudeMeters>
            <DistanceMeters>19882.75303329</DistanceMeters>
          </Trackpoint>
          <Trackpoint>
            <Time>2021-09-26T09:17:16.000Z</Time>
            <Position>
              <LatitudeDegrees>40.42984968982636928558349609375</LatitudeDegrees>
              <LongitudeDegrees>-3.70963261462748050689697265625</LongitudeDegrees>
            </Position>
            <AltitudeMeters>680.79998779296875</AltitudeMeters>
            <DistanceMeters>19886.876579573</DistanceMeters>
          </Trackpoint>
          <Trackpoint>
            <Time>2021-09-26T09:17:17.000Z</Time>
            <Position>
              <LatitudeDegrees>40.42985287494957447052001953125</LatitudeDegrees>
              <LongitudeDegrees>-3.70965801179409027099609375</LongitudeDegrees>
            </Position>
            <AltitudeMeters>680.79998779296875</AltitudeMeters>
            <DistanceMeters>19889.058058495</DistanceMeters>
          </Trackpoint>
          <Trackpoint>
            <Time>2021-09-26T09:17:19.000Z</Time>
            <Position>
              <LatitudeDegrees>40.42985103093087673187255859375</LatitudeDegrees>
              <LongitudeDegrees>-3.7097083032131195068359375</LongitudeDegrees>
            </Position>
            <AltitudeMeters>680.79998779296875</AltitudeMeters>
            <DistanceMeters>19893.324747388</DistanceMeters>
          </Trackpoint>
          <Trackpoint>
            <Time>2021-09-26T09:17:20.000Z</Time>
            <Position>
              <LatitudeDegrees>40.42985471896827220916748046875</LatitudeDegrees>
              <LongitudeDegrees>-3.7097362987697124481201171875</LongitudeDegrees>
            </Position>
            <AltitudeMeters>680.79998779296875</AltitudeMeters>
            <DistanceMeters>19895.732507566</DistanceMeters>
          </Trackpoint>
          <Trackpoint>
            <Time>2021-09-26T09:17:27.000Z</Time>
            <Position>
              <LatitudeDegrees>40.42985270731151103973388671875</LatitudeDegrees>
              <LongitudeDegrees>-3.7099337764084339141845703125</LongitudeDegrees>
            </Position>
            <AltitudeMeters>681.20001220703125</AltitudeMeters>
            <DistanceMeters>19912.465036369</DistanceMeters>
          </Trackpoint>
          <Trackpoint>
            <Time>2021-09-26T09:17:31.000Z</Time>
            <Position>
              <LatitudeDegrees>40.42987592518329620361328125</LatitudeDegrees>
              <LongitudeDegrees>-3.71004768647253513336181640625</LongitudeDegrees>
            </Position>
            <AltitudeMeters>681.20001220703125</AltitudeMeters>
            <DistanceMeters>19922.455955497</DistanceMeters>
          </Trackpoint>
          <Trackpoint>
            <Time>2021-09-26T09:17:37.000Z</Time>
            <Position>
              <LatitudeDegrees>40.42989411391317844390869140625</LatitudeDegrees>
              <LongitudeDegrees>-3.7102030031383037567138671875</LongitudeDegrees>
            </Position>
            <AltitudeMeters>680.79998779296875</AltitudeMeters>
            <DistanceMeters>19935.769873049</DistanceMeters>
          </Trackpoint>
          <Trackpoint>
            <Time>2021-09-26T09:17:38.000Z</Time>
            <Position>
              <LatitudeDegrees>40.4298913478851318359375</LatitudeDegrees>
              <LongitudeDegrees>-3.71022974140942096710205078125</LongitudeDegrees>
            </Position>
            <AltitudeMeters>680.79998779296875</AltitudeMeters>
            <DistanceMeters>19938.056445651</DistanceMeters>
          </Trackpoint>
          <Trackpoint>
            <Time>2021-09-26T09:17:45.000Z</Time>
            <Position>
              <LatitudeDegrees>40.42992680333554744720458984375</LatitudeDegrees>
              <LongitudeDegrees>-3.71045554988086223602294921875</LongitudeDegrees>
            </Position>
            <AltitudeMeters>680.5999755859375</AltitudeMeters>
            <DistanceMeters>19957.590157027</DistanceMeters>
          </Trackpoint>
          <Trackpoint>
            <Time>2021-09-26T09:17:50.000Z</Time>
            <Position>
              <LatitudeDegrees>40.4299570620059967041015625</LatitudeDegrees>
              <LongitudeDegrees>-3.710622601211071014404296875</LongitudeDegrees>
            </Position>
            <AltitudeMeters>680.5999755859375</AltitudeMeters>
            <DistanceMeters>19972.138557687</DistanceMeters>
          </Trackpoint>
          <Trackpoint>
            <Time>2021-09-26T09:17:52.000Z</Time>
            <Position>
              <LatitudeDegrees>40.4299543797969818115234375</LatitudeDegrees>
              <LongitudeDegrees>-3.7106811068952083587646484375</LongitudeDegrees>
            </Position>
            <AltitudeMeters>680.5999755859375</AltitudeMeters>
            <DistanceMeters>19977.104555952</DistanceMeters>
          </Trackpoint>
          <Trackpoint>
            <Time>2021-09-26T09:17:58.000Z</Time>
            <Position>
              <LatitudeDegrees>40.429966449737548828125</LatitudeDegrees>
              <LongitudeDegrees>-3.7108896486461162567138671875</LongitudeDegrees>
            </Position>
            <AltitudeMeters>680.20001220703125</AltitudeMeters>
            <DistanceMeters>19994.823917057</DistanceMeters>
          </Trackpoint>
          <Trackpoint>
            <Time>2021-09-26T09:18:02.000Z</Time>
            <Position>
              <LatitudeDegrees>40.4300075210630893707275390625</LatitudeDegrees>
              <LongitudeDegrees>-3.71100188232958316802978515625</LongitudeDegrees>
            </Position>
            <AltitudeMeters>680.4000244140625</AltitudeMeters>
            <DistanceMeters>20005.374450329</DistanceMeters>
          </Trackpoint>
          <Trackpoint>
            <Time>2021-09-26T09:18:06.000Z</Time>
            <Position>
              <LatitudeDegrees>40.4300370253622531890869140625</LatitudeDegrees>
              <LongitudeDegrees>-3.71112777851521968841552734375</LongitudeDegrees>
            </Position>
            <AltitudeMeters>680</AltitudeMeters>
            <DistanceMeters>20016.534325522</DistanceMeters>
          </Trackpoint>
          <Trackpoint>
            <Time>2021-09-26T09:18:11.000Z</Time>
            <Position>
              <LatitudeDegrees>40.4300675354897975921630859375</LatitudeDegrees>
              <LongitudeDegrees>-3.71129709295928478240966796875</LongitudeDegrees>
            </Position>
            <AltitudeMeters>679.5999755859375</AltitudeMeters>
            <DistanceMeters>20031.275416375</DistanceMeters>
          </Trackpoint>
          <Trackpoint>
            <Time>2021-09-26T09:18:17.000Z</Time>
            <Position>
              <LatitudeDegrees>40.430082790553569793701171875</LatitudeDegrees>
              <LongitudeDegrees>-3.71149624697864055633544921875</LongitudeDegrees>
            </Position>
            <AltitudeMeters>679</AltitudeMeters>
            <DistanceMeters>20048.233891383</DistanceMeters>
          </Trackpoint>
          <Trackpoint>
            <Time>2021-09-26T09:18:23.000Z</Time>
            <Position>
              <LatitudeDegrees>40.4300930164754390716552734375</LatitudeDegrees>
              <LongitudeDegrees>-3.7117067165672779083251953125</LongitudeDegrees>
            </Position>
            <AltitudeMeters>678.4000244140625</AltitudeMeters>
            <DistanceMeters>20066.101946194</DistanceMeters>
          </Trackpoint>
          <Trackpoint>
            <Time>2021-09-26T09:18:25.000Z</Time>
            <Position>
              <LatitudeDegrees>40.43011455796658992767333984375</LatitudeDegrees>
              <LongitudeDegrees>-3.71176312677562236785888671875</LongitudeDegrees>
            </Position>
            <AltitudeMeters>678.4000244140625</AltitudeMeters>
            <DistanceMeters>20071.448835198</DistanceMeters>
          </Trackpoint>
          <Trackpoint>
            <Time>2021-09-26T09:18:28.000Z</Time>
            <Position>
              <LatitudeDegrees>40.4301480017602443695068359375</LatitudeDegrees>
              <LongitudeDegrees>-3.7118441797792911529541015625</LongitudeDegrees>
            </Position>
            <AltitudeMeters>678.4000244140625</AltitudeMeters>
            <DistanceMeters>20079.259545567</DistanceMeters>
          </Trackpoint>
          <Trackpoint>
            <Time>2021-09-26T09:18:35.000Z</Time>
            <Position>
              <LatitudeDegrees>40.4302100278437137603759765625</LatitudeDegrees>
              <LongitudeDegrees>-3.71206261217594146728515625</LongitudeDegrees>
            </Position>
            <AltitudeMeters>678.4000244140625</AltitudeMeters>
            <DistanceMeters>20099.011848795</DistanceMeters>
          </Trackpoint>
          <Trackpoint>
            <Time>2021-09-26T09:18:43.000Z</Time>
            <Position>
              <LatitudeDegrees>40.43022251687943935394287109375</LatitudeDegrees>
              <LongitudeDegrees>-3.71231029741466045379638671875</LongitudeDegrees>
            </Position>
            <AltitudeMeters>677.79998779296875</AltitudeMeters>
            <DistanceMeters>20120.042615406</DistanceMeters>
          </Trackpoint>
          <Trackpoint>
            <Time>2021-09-26T09:18:50.000Z</Time>
            <Position>
              <LatitudeDegrees>40.4302226006984710693359375</LatitudeDegrees>
              <LongitudeDegrees>-3.7125211022794246673583984375</LongitudeDegrees>
            </Position>
            <AltitudeMeters>677</AltitudeMeters>
            <DistanceMeters>20137.90258238</DistanceMeters>
          </Trackpoint>
          <Trackpoint>
            <Time>2021-09-26T09:18:51.000Z</Time>
            <Position>
              <LatitudeDegrees>40.4302204214036464691162109375</LatitudeDegrees>
              <LongitudeDegrees>-3.71255404315888881683349609375</LongitudeDegrees>
            </Position>
            <AltitudeMeters>676.79998779296875</AltitudeMeters>
            <DistanceMeters>20140.702244208</DistanceMeters>
          </Trackpoint>
          <Trackpoint>
            <Time>2021-09-26T09:18:57.000Z</Time>
            <Position>
              <LatitudeDegrees>40.43019183911383152008056640625</LatitudeDegrees>
              <LongitudeDegrees>-3.71272645890712738037109375</LongitudeDegrees>
            </Position>
            <AltitudeMeters>676.4000244140625</AltitudeMeters>
            <DistanceMeters>20155.651973035</DistanceMeters>
          </Trackpoint>
          <Trackpoint>
            <Time>2021-09-26T09:19:00.000Z</Time>
            <Position>
              <LatitudeDegrees>40.430186055600643157958984375</LatitudeDegrees>
              <LongitudeDegrees>-3.7127909995615482330322265625</LongitudeDegrees>
            </Position>
            <AltitudeMeters>676.4000244140625</AltitudeMeters>
            <DistanceMeters>20161.156965001</DistanceMeters>
          </Trackpoint>
          <Trackpoint>
            <Time>2021-09-26T09:19:03.000Z</Time>
            <Position>
              <LatitudeDegrees>40.43017893098294734954833984375</LatitudeDegrees>
              <LongitudeDegrees>-3.71287263929843902587890625</LongitudeDegrees>
            </Position>
            <AltitudeMeters>676.4000244140625</AltitudeMeters>
            <DistanceMeters>20168.119252725</DistanceMeters>
          </Trackpoint>
          <Trackpoint>
            <Time>2021-09-26T09:19:04.000Z</Time>
            <Position>
              <LatitudeDegrees>40.4301889054477214813232421875</LatitudeDegrees>
              <LongitudeDegrees>-3.7129110284149646759033203125</LongitudeDegrees>
            </Position>
            <AltitudeMeters>676.5999755859375</AltitudeMeters>
            <DistanceMeters>20171.556015735</DistanceMeters>
          </Trackpoint>
          <Trackpoint>
            <Time>2021-09-26T09:19:07.000Z</Time>
            <Position>
              <LatitudeDegrees>40.43020592071115970611572265625</LatitudeDegrees>
              <LongitudeDegrees>-3.7129935063421726226806640625</LongitudeDegrees>
            </Position>
            <AltitudeMeters>676.5999755859375</AltitudeMeters>
            <DistanceMeters>20178.796777009</DistanceMeters>
          </Trackpoint>
          <Trackpoint>
            <Time>2021-09-26T09:19:12.000Z</Time>
            <Position>
              <LatitudeDegrees>40.43020122684538364410400390625</LatitudeDegrees>
              <LongitudeDegrees>-3.713139183819293975830078125</LongitudeDegrees>
            </Position>
            <AltitudeMeters>676.79998779296875</AltitudeMeters>
            <DistanceMeters>20191.150249877</DistanceMeters>
          </Trackpoint>
          <Trackpoint>
            <Time>2021-09-26T09:19:14.000Z</Time>
            <Position>
              <LatitudeDegrees>40.4302026517689228057861328125</LatitudeDegrees>
              <LongitudeDegrees>-3.7132107652723789215087890625</LongitudeDegrees>
            </Position>
            <AltitudeMeters>677</AltitudeMeters>
            <DistanceMeters>20197.217093504</DistanceMeters>
          </Trackpoint>
          <Trackpoint>
            <Time>2021-09-26T09:19:20.000Z</Time>
            <Position>
              <LatitudeDegrees>40.43021656572818756103515625</LatitudeDegrees>
              <LongitudeDegrees>-3.71342291124165058135986328125</LongitudeDegrees>
            </Position>
            <AltitudeMeters>677.20001220703125</AltitudeMeters>
            <DistanceMeters>20215.257158776</DistanceMeters>
          </Trackpoint>
          <Trackpoint>
            <Time>2021-09-26T09:19:22.000Z</Time>
            <Position>
              <LatitudeDegrees>40.43022503145039081573486328125</LatitudeDegrees>
              <LongitudeDegrees>-3.71345627121627330780029296875</LongitudeDegrees>
            </Position>
            <AltitudeMeters>677.20001220703125</AltitudeMeters>
            <DistanceMeters>20218.236515275</DistanceMeters>
          </Trackpoint>
          <Trackpoint>
            <Time>2021-09-26T09:19:24.000Z</Time>
            <Position>
              <LatitudeDegrees>40.43023576028645038604736328125</LatitudeDegrees>
              <LongitudeDegrees>-3.71348954737186431884765625</LongitudeDegrees>
            </Position>
            <AltitudeMeters>677.4000244140625</AltitudeMeters>
            <DistanceMeters>20221.29808666</DistanceMeters>
          </Trackpoint>
          <Trackpoint>
            <Time>2021-09-26T09:19:28.000Z</Time>
            <Position>
              <LatitudeDegrees>40.43023324571549892425537109375</LatitudeDegrees>
              <LongitudeDegrees>-3.71354578994214534759521484375</LongitudeDegrees>
            </Position>
            <AltitudeMeters>677.4000244140625</AltitudeMeters>
            <DistanceMeters>20226.072174316</DistanceMeters>
          </Trackpoint>
          <Trackpoint>
            <Time>2021-09-26T09:19:30.000Z</Time>
            <Position>
              <LatitudeDegrees>40.4302351735532283782958984375</LatitudeDegrees>
              <LongitudeDegrees>-3.7135802395641803741455078125</LongitudeDegrees>
            </Position>
            <AltitudeMeters>677.4000244140625</AltitudeMeters>
            <DistanceMeters>20228.998009661</DistanceMeters>
          </Trackpoint>
          <Trackpoint>
            <Time>2021-09-26T09:19:35.000Z</Time>
            <Position>
              <LatitudeDegrees>40.43025084771215915679931640625</LatitudeDegrees>
              <LongitudeDegrees>-3.71369582600891590118408203125</LongitudeDegrees>
            </Position>
            <AltitudeMeters>677.5999755859375</AltitudeMeters>
            <DistanceMeters>20238.944996522</DistanceMeters>
          </Trackpoint>
          <Trackpoint>
            <Time>2021-09-26T09:19:37.000Z</Time>
            <Position>
              <LatitudeDegrees>40.4302271269261837005615234375</LatitudeDegrees>
              <LongitudeDegrees>-3.71375986374914646148681640625</LongitudeDegrees>
            </Position>
            <AltitudeMeters>677.5999755859375</AltitudeMeters>
            <DistanceMeters>20244.978257509</DistanceMeters>
          </Trackpoint>
          <Trackpoint>
            <Time>2021-09-26T09:19:38.000Z</Time>
            <Position>
              <LatitudeDegrees>40.4302257858216762542724609375</LatitudeDegrees>
              <LongitudeDegrees>-3.71378517709672451019287109375</LongitudeDegrees>
            </Position>
            <AltitudeMeters>677.5999755859375</AltitudeMeters>
            <DistanceMeters>20247.128466601</DistanceMeters>
          </Trackpoint>
          <Trackpoint>
            <Time>2021-09-26T09:19:42.000Z</Time>
            <Position>
              <LatitudeDegrees>40.43025671504437923431396484375</LatitudeDegrees>
              <LongitudeDegrees>-3.71388358063995838165283203125</LongitudeDegrees>
            </Position>
            <AltitudeMeters>677.79998779296875</AltitudeMeters>
            <DistanceMeters>20256.148499238</DistanceMeters>
          </Trackpoint>
          <Trackpoint>
            <Time>2021-09-26T09:19:47.000Z</Time>
            <Position>
              <LatitudeDegrees>40.43034791015088558197021484375</LatitudeDegrees>
              <LongitudeDegrees>-3.713955916464328765869140625</LongitudeDegrees>
            </Position>
            <AltitudeMeters>677.79998779296875</AltitudeMeters>
            <DistanceMeters>20268.005152647</DistanceMeters>
          </Trackpoint>
          <Trackpoint>
            <Time>2021-09-26T09:19:51.000Z</Time>
            <Position>
              <LatitudeDegrees>40.43040541000664234161376953125</LatitudeDegrees>
              <LongitudeDegrees>-3.71405624784529209136962890625</LongitudeDegrees>
            </Position>
            <AltitudeMeters>678</AltitudeMeters>
            <DistanceMeters>20278.645598994</DistanceMeters>
          </Trackpoint>
          <Trackpoint>
            <Time>2021-09-26T09:19:52.000Z</Time>
            <Position>
              <LatitudeDegrees>40.4304061643779277801513671875</LatitudeDegrees>
              <LongitudeDegrees>-3.71409899555146694183349609375</LongitudeDegrees>
            </Position>
            <AltitudeMeters>678</AltitudeMeters>
            <DistanceMeters>20282.269096082</DistanceMeters>
          </Trackpoint>
          <Trackpoint>
            <Time>2021-09-26T09:19:57.000Z</Time>
            <Position>
              <LatitudeDegrees>40.43039132840931415557861328125</LatitudeDegrees>
              <LongitudeDegrees>-3.714342154562473297119140625</LongitudeDegrees>
            </Position>
            <AltitudeMeters>677.79998779296875</AltitudeMeters>
            <DistanceMeters>20302.936041086</DistanceMeters>
          </Trackpoint>
          <Trackpoint>
            <Time>2021-09-26T09:19:59.000Z</Time>
            <Position>
              <LatitudeDegrees>40.43037607334554195404052734375</LatitudeDegrees>
              <LongitudeDegrees>-3.71444181539118289947509765625</LongitudeDegrees>
            </Position>
            <AltitudeMeters>678.20001220703125</AltitudeMeters>
            <DistanceMeters>20311.548418685</DistanceMeters>
          </Trackpoint>
          <Trackpoint>
            <Time>2021-09-26T09:20:00.000Z</Time>
            <Position>
              <LatitudeDegrees>40.43036006391048431396484375</LatitudeDegrees>
              <LongitudeDegrees>-3.71449269354343414306640625</LongitudeDegrees>
            </Position>
            <AltitudeMeters>678.20001220703125</AltitudeMeters>
            <DistanceMeters>20316.212478521</DistanceMeters>
          </Trackpoint>
          <Trackpoint>
            <Time>2021-09-26T09:20:04.000Z</Time>
            <Position>
              <LatitudeDegrees>40.4304007999598979949951171875</LatitudeDegrees>
              <LongitudeDegrees>-3.714637197554111480712890625</LongitudeDegrees>
            </Position>
            <AltitudeMeters>678.20001220703125</AltitudeMeters>
            <DistanceMeters>20329.267848791</DistanceMeters>
          </Trackpoint>
          <Trackpoint>
            <Time>2021-09-26T09:20:09.000Z</Time>
            <Position>
              <LatitudeDegrees>40.4303969442844390869140625</LatitudeDegrees>
              <LongitudeDegrees>-3.7147614173591136932373046875</LongitudeDegrees>
            </Position>
            <AltitudeMeters>678.20001220703125</AltitudeMeters>
            <DistanceMeters>20339.800821742</DistanceMeters>
          </Trackpoint>
          <Trackpoint>
            <Time>2021-09-26T09:20:11.000Z</Time>
            <Position>
              <LatitudeDegrees>40.43040306307375431060791015625</LatitudeDegrees>
              <LongitudeDegrees>-3.71480475179851055145263671875</LongitudeDegrees>
            </Position>
            <AltitudeMeters>678.20001220703125</AltitudeMeters>
            <DistanceMeters>20343.534779164</DistanceMeters>
          </Trackpoint>
          <Trackpoint>
            <Time>2021-09-26T09:20:19.000Z</Time>
            <Position>
              <LatitudeDegrees>40.43041781522333621978759765625</LatitudeDegrees>
              <LongitudeDegrees>-3.715034835040569305419921875</LongitudeDegrees>
            </Position>
            <AltitudeMeters>678.20001220703125</AltitudeMeters>
            <DistanceMeters>20363.097131007</DistanceMeters>
          </Trackpoint>
          <Trackpoint>
            <Time>2021-09-26T09:20:26.000Z</Time>
            <Position>
              <LatitudeDegrees>40.43040029704570770263671875</LatitudeDegrees>
              <LongitudeDegrees>-3.7152603082358837127685546875</LongitudeDegrees>
            </Position>
            <AltitudeMeters>677.5999755859375</AltitudeMeters>
            <DistanceMeters>20382.29911219</DistanceMeters>
          </Trackpoint>
          <Trackpoint>
            <Time>2021-09-26T09:20:31.000Z</Time>
            <Position>
              <LatitudeDegrees>40.43038613162934780120849609375</LatitudeDegrees>
              <LongitudeDegrees>-3.715436495840549468994140625</LongitudeDegrees>
            </Position>
            <AltitudeMeters>675.79998779296875</AltitudeMeters>
            <DistanceMeters>20397.309122426</DistanceMeters>
          </Trackpoint>
          <Trackpoint>
            <Time>2021-09-26T09:20:32.000Z</Time>
            <Position>
              <LatitudeDegrees>40.43038696981966495513916015625</LatitudeDegrees>
              <LongitudeDegrees>-3.7154819257557392120361328125</LongitudeDegrees>
            </Position>
            <AltitudeMeters>675.4000244140625</AltitudeMeters>
            <DistanceMeters>20401.159756857</DistanceMeters>
          </Trackpoint>
          <Trackpoint>
            <Time>2021-09-26T09:20:36.000Z</Time>
            <Position>
              <LatitudeDegrees>40.4304336570203304290771484375</LatitudeDegrees>
              <LongitudeDegrees>-3.71563020162284374237060546875</LongitudeDegrees>
            </Position>
            <AltitudeMeters>673.5999755859375</AltitudeMeters>
            <DistanceMeters>20414.754224279</DistanceMeters>
          </Trackpoint>
          <Trackpoint>
            <Time>2021-09-26T09:20:43.000Z</Time>
            <Position>
              <LatitudeDegrees>40.4304474033415317535400390625</LatitudeDegrees>
              <LongitudeDegrees>-3.7158091552555561065673828125</LongitudeDegrees>
            </Position>
            <AltitudeMeters>671.5999755859375</AltitudeMeters>
            <DistanceMeters>20429.992314241</DistanceMeters>
          </Trackpoint>
          <Trackpoint>
            <Time>2021-09-26T09:20:50.000Z</Time>
            <Position>
              <LatitudeDegrees>40.43048252351582050323486328125</LatitudeDegrees>
              <LongitudeDegrees>-3.71599229983985424041748046875</LongitudeDegrees>
            </Position>
            <AltitudeMeters>669.4000244140625</AltitudeMeters>
            <DistanceMeters>20445.99380847</DistanceMeters>
          </Trackpoint>
          <Trackpoint>
            <Time>2021-09-26T09:20:55.000Z</Time>
            <Position>
              <LatitudeDegrees>40.43053440749645233154296875</LatitudeDegrees>
              <LongitudeDegrees>-3.716133199632167816162109375</LongitudeDegrees>
            </Position>
            <AltitudeMeters>669.5999755859375</AltitudeMeters>
            <DistanceMeters>20459.254717514</DistanceMeters>
          </Trackpoint>
          <Trackpoint>
            <Time>2021-09-26T09:20:56.000Z</Time>
            <Position>
              <LatitudeDegrees>40.43055494315922260284423828125</LatitudeDegrees>
              <LongitudeDegrees>-3.71616647578775882720947265625</LongitudeDegrees>
            </Position>
            <AltitudeMeters>670</AltitudeMeters>
            <DistanceMeters>20462.884439478</DistanceMeters>
          </Trackpoint>
          <Trackpoint>
            <Time>2021-09-26T09:21:01.000Z</Time>
            <Position>
              <LatitudeDegrees>40.4306955076754093170166015625</LatitudeDegrees>
              <LongitudeDegrees>-3.71632774360477924346923828125</LongitudeDegrees>
            </Position>
            <AltitudeMeters>671.5999755859375</AltitudeMeters>
            <DistanceMeters>20483.655766407</DistanceMeters>
          </Trackpoint>
          <Trackpoint>
            <Time>2021-09-26T09:21:03.000Z</Time>
            <Position>
              <LatitudeDegrees>40.43078561313450336456298828125</LatitudeDegrees>
              <LongitudeDegrees>-3.71636219322681427001953125</LongitudeDegrees>
            </Position>
            <AltitudeMeters>672.4000244140625</AltitudeMeters>
            <DistanceMeters>20494.100494911</DistanceMeters>
          </Trackpoint>
          <Trackpoint>
            <Time>2021-09-26T09:21:09.000Z</Time>
            <Position>
              <LatitudeDegrees>40.4309365712106227874755859375</LatitudeDegrees>
              <LongitudeDegrees>-3.71649437583982944488525390625</LongitudeDegrees>
            </Position>
            <AltitudeMeters>673.79998779296875</AltitudeMeters>
            <DistanceMeters>20514.292497821</DistanceMeters>
          </Trackpoint>
          <Trackpoint>
            <Time>2021-09-26T09:21:17.000Z</Time>
            <Position>
              <LatitudeDegrees>40.43109004385769367218017578125</LatitudeDegrees>
              <LongitudeDegrees>-3.71663519181311130523681640625</LongitudeDegrees>
            </Position>
            <AltitudeMeters>675</AltitudeMeters>
            <DistanceMeters>20535.128283266</DistanceMeters>
          </Trackpoint>
          <Trackpoint>
            <Time>2021-09-26T09:21:24.000Z</Time>
            <Position>
              <LatitudeDegrees>40.43125801719725131988525390625</LatitudeDegrees>
              <LongitudeDegrees>-3.71673912741243839263916015625</LongitudeDegrees>
            </Position>
            <AltitudeMeters>676.4000244140625</AltitudeMeters>
            <DistanceMeters>20555.794135908</DistanceMeters>
          </Trackpoint>
          <Trackpoint>
            <Time>2021-09-26T09:21:31.000Z</Time>
            <Position>
              <LatitudeDegrees>40.4314019344747066497802734375</LatitudeDegrees>
              <LongitudeDegrees>-3.71685815043747425079345703125</LongitudeDegrees>
            </Position>
            <AltitudeMeters>677.20001220703125</AltitudeMeters>
            <DistanceMeters>20574.722350642</DistanceMeters>
          </Trackpoint>
          <Trackpoint>
            <Time>2021-09-26T09:21:37.000Z</Time>
            <Position>
              <LatitudeDegrees>40.431525148451328277587890625</LatitudeDegrees>
              <LongitudeDegrees>-3.71695253066718578338623046875</LongitudeDegrees>
            </Position>
            <AltitudeMeters>677.5999755859375</AltitudeMeters>
            <DistanceMeters>20590.597216732</DistanceMeters>
          </Trackpoint>
          <Trackpoint>
            <Time>2021-09-26T09:21:45.000Z</Time>
            <Position>
              <LatitudeDegrees>40.4317006655037403106689453125</LatitudeDegrees>
              <LongitudeDegrees>-3.71706359088420867919921875</LongitudeDegrees>
            </Position>
            <AltitudeMeters>678.20001220703125</AltitudeMeters>
            <DistanceMeters>20612.280389013</DistanceMeters>
          </Trackpoint>
          <Trackpoint>
            <Time>2021-09-26T09:21:50.000Z</Time>
            <Position>
              <LatitudeDegrees>40.431783981621265411376953125</LatitudeDegrees>
              <LongitudeDegrees>-3.7171358428895473480224609375</LongitudeDegrees>
            </Position>
            <AltitudeMeters>678.4000244140625</AltitudeMeters>
            <DistanceMeters>20623.392015141</DistanceMeters>
          </Trackpoint>
          <Trackpoint>
            <Time>2021-09-26T09:21:52.000Z</Time>
            <Position>
              <LatitudeDegrees>40.4318319261074066162109375</LatitudeDegrees>
              <LongitudeDegrees>-3.71716082096099853515625</LongitudeDegrees>
            </Position>
            <AltitudeMeters>678.4000244140625</AltitudeMeters>
            <DistanceMeters>20629.133075933</DistanceMeters>
          </Trackpoint>
          <Trackpoint>
            <Time>2021-09-26T09:21:59.000Z</Time>
            <Position>
              <LatitudeDegrees>40.431956313550472259521484375</LatitudeDegrees>
              <LongitudeDegrees>-3.717275820672512054443359375</LongitudeDegrees>
            </Position>
            <AltitudeMeters>678.79998779296875</AltitudeMeters>
            <DistanceMeters>20646.062239119</DistanceMeters>
          </Trackpoint>
          <Trackpoint>
            <Time>2021-09-26T09:22:09.000Z</Time>
            <Position>
              <LatitudeDegrees>40.4321452416479587554931640625</LatitudeDegrees>
              <LongitudeDegrees>-3.71736475266516208648681640625</LongitudeDegrees>
            </Position>
            <AltitudeMeters>679.4000244140625</AltitudeMeters>
            <DistanceMeters>20668.399379577</DistanceMeters>
          </Trackpoint>
          <Trackpoint>
            <Time>2021-09-26T09:22:15.000Z</Time>
            <Position>
              <LatitudeDegrees>40.4322562180459499359130859375</LatitudeDegrees>
              <LongitudeDegrees>-3.71746055781841278076171875</LongitudeDegrees>
            </Position>
            <AltitudeMeters>679.20001220703125</AltitudeMeters>
            <DistanceMeters>20683.179623463</DistanceMeters>
          </Trackpoint>
          <Trackpoint>
            <Time>2021-09-26T09:22:20.000Z</Time>
            <Position>
              <LatitudeDegrees>40.432355962693691253662109375</LatitudeDegrees>
              <LongitudeDegrees>-3.7175465561449527740478515625</LongitudeDegrees>
            </Position>
            <AltitudeMeters>678.79998779296875</AltitudeMeters>
            <DistanceMeters>20696.458225522</DistanceMeters>
          </Trackpoint>
          <Trackpoint>
            <Time>2021-09-26T09:22:26.000Z</Time>
            <Position>
              <LatitudeDegrees>40.4324915818870067596435546875</LatitudeDegrees>
              <LongitudeDegrees>-3.7176038883626461029052734375</LongitudeDegrees>
            </Position>
            <AltitudeMeters>677.5999755859375</AltitudeMeters>
            <DistanceMeters>20712.314878653</DistanceMeters>
          </Trackpoint>
          <Trackpoint>
            <Time>2021-09-26T09:22:33.000Z</Time>
            <Position>
              <LatitudeDegrees>40.43262183666229248046875</LatitudeDegrees>
              <LongitudeDegrees>-3.71768452227115631103515625</LongitudeDegrees>
            </Position>
            <AltitudeMeters>676.4000244140625</AltitudeMeters>
            <DistanceMeters>20728.341465762</DistanceMeters>
          </Trackpoint>
          <Trackpoint>
            <Time>2021-09-26T09:22:38.000Z</Time>
            <Position>
              <LatitudeDegrees>40.43273515999317169189453125</LatitudeDegrees>
              <LongitudeDegrees>-3.7177463807165622711181640625</LongitudeDegrees>
            </Position>
            <AltitudeMeters>675.4000244140625</AltitudeMeters>
            <DistanceMeters>20741.999882554</DistanceMeters>
          </Trackpoint>
          <Trackpoint>
            <Time>2021-09-26T09:22:44.000Z</Time>
            <Position>
              <LatitudeDegrees>40.4328426159918308258056640625</LatitudeDegrees>
              <LongitudeDegrees>-3.71784386225044727325439453125</LongitudeDegrees>
            </Position>
            <AltitudeMeters>674.20001220703125</AltitudeMeters>
            <DistanceMeters>20756.534310934</DistanceMeters>
          </Trackpoint>
          <Trackpoint>
            <Time>2021-09-26T09:22:51.000Z</Time>
            <Position>
              <LatitudeDegrees>40.43298016302287578582763671875</LatitudeDegrees>
              <LongitudeDegrees>-3.71795014478266239166259765625</LongitudeDegrees>
            </Position>
            <AltitudeMeters>672.5999755859375</AltitudeMeters>
            <DistanceMeters>20774.29541142</DistanceMeters>
          </Trackpoint>
          <Trackpoint>
            <Time>2021-09-26T09:22:58.000Z</Time>
            <Position>
              <LatitudeDegrees>40.4331182129681110382080078125</LatitudeDegrees>
              <LongitudeDegrees>-3.7180595286190509796142578125</LongitudeDegrees>
            </Position>
            <AltitudeMeters>672.79998779296875</AltitudeMeters>
            <DistanceMeters>20792.238609171</DistanceMeters>
          </Trackpoint>
          <Trackpoint>
            <Time>2021-09-26T09:23:03.000Z</Time>
            <Position>
              <LatitudeDegrees>40.433219969272613525390625</LatitudeDegrees>
              <LongitudeDegrees>-3.7181339599192142486572265625</LongitudeDegrees>
            </Position>
            <AltitudeMeters>673</AltitudeMeters>
            <DistanceMeters>20805.201311917</DistanceMeters>
          </Trackpoint>
          <Trackpoint>
            <Time>2021-09-26T09:23:11.000Z</Time>
            <Position>
              <LatitudeDegrees>40.433395989239215850830078125</LatitudeDegrees>
              <LongitudeDegrees>-3.71825809590518474578857421875</LongitudeDegrees>
            </Position>
            <AltitudeMeters>672.79998779296875</AltitudeMeters>
            <DistanceMeters>20827.437156979</DistanceMeters>
          </Trackpoint>
          <Trackpoint>
            <Time>2021-09-26T09:23:18.000Z</Time>
            <Position>
              <LatitudeDegrees>40.4335493780672550201416015625</LatitudeDegrees>
              <LongitudeDegrees>-3.71834241785109043121337890625</LongitudeDegrees>
            </Position>
            <AltitudeMeters>672</AltitudeMeters>
            <DistanceMeters>20845.943716339</DistanceMeters>
          </Trackpoint>
          <Trackpoint>
            <Time>2021-09-26T09:23:23.000Z</Time>
            <Position>
              <LatitudeDegrees>40.4336533136665821075439453125</LatitudeDegrees>
              <LongitudeDegrees>-3.718411065638065338134765625</LongitudeDegrees>
            </Position>
            <AltitudeMeters>671.20001220703125</AltitudeMeters>
            <DistanceMeters>20858.891781803</DistanceMeters>
          </Trackpoint>
          <Trackpoint>
            <Time>2021-09-26T09:23:30.000Z</Time>
            <Position>
              <LatitudeDegrees>40.43381785042583942413330078125</LatitudeDegrees>
              <LongitudeDegrees>-3.7185255624353885650634765625</LongitudeDegrees>
            </Position>
            <AltitudeMeters>670.20001220703125</AltitudeMeters>
            <DistanceMeters>20879.615450293</DistanceMeters>
          </Trackpoint>
          <Trackpoint>
            <Time>2021-09-26T09:23:31.000Z</Time>
            <Position>
              <LatitudeDegrees>40.4338377155363559722900390625</LatitudeDegrees>
              <LongitudeDegrees>-3.7185369618237018585205078125</LongitudeDegrees>
            </Position>
            <AltitudeMeters>670</AltitudeMeters>
            <DistanceMeters>20882.026957961</DistanceMeters>
          </Trackpoint>
          <Trackpoint>
            <Time>2021-09-26T09:23:38.000Z</Time>
            <Position>
              <LatitudeDegrees>40.43399579823017120361328125</LatitudeDegrees>
              <LongitudeDegrees>-3.7186516262590885162353515625</LongitudeDegrees>
            </Position>
            <AltitudeMeters>670</AltitudeMeters>
            <DistanceMeters>20902.125501182</DistanceMeters>
          </Trackpoint>
          <Trackpoint>
            <Time>2021-09-26T09:23:42.000Z</Time>
            <Position>
              <LatitudeDegrees>40.43409344740211963653564453125</LatitudeDegrees>
              <LongitudeDegrees>-3.71870870701968669891357421875</LongitudeDegrees>
            </Position>
            <AltitudeMeters>670</AltitudeMeters>
            <DistanceMeters>20914.021692087</DistanceMeters>
          </Trackpoint>
          <Trackpoint>
            <Time>2021-09-26T09:23:50.000Z</Time>
            <Position>
              <LatitudeDegrees>40.43427885510027408599853515625</LatitudeDegrees>
              <LongitudeDegrees>-3.718828819692134857177734375</LongitudeDegrees>
            </Position>
            <AltitudeMeters>670</AltitudeMeters>
            <DistanceMeters>20937.030326588</DistanceMeters>
          </Trackpoint>
          <Trackpoint>
            <Time>2021-09-26T09:23:58.000Z</Time>
            <Position>
              <LatitudeDegrees>40.43446158058941364288330078125</LatitudeDegrees>
              <LongitudeDegrees>-3.71894289739429950714111328125</LongitudeDegrees>
            </Position>
            <AltitudeMeters>668.20001220703125</AltitudeMeters>
            <DistanceMeters>20959.547447456</DistanceMeters>
          </Trackpoint>
          <Trackpoint>
            <Time>2021-09-26T09:23:59.000Z</Time>
            <Position>
              <LatitudeDegrees>40.4344801045954227447509765625</LatitudeDegrees>
              <LongitudeDegrees>-3.718953542411327362060546875</LongitudeDegrees>
            </Position>
            <AltitudeMeters>668</AltitudeMeters>
            <DistanceMeters>20961.800201983</DistanceMeters>
          </Trackpoint>
          <Trackpoint>
            <Time>2021-09-26T09:24:06.000Z</Time>
            <Position>
              <LatitudeDegrees>40.43465302325785160064697265625</LatitudeDegrees>
              <LongitudeDegrees>-3.719062842428684234619140625</LongitudeDegrees>
            </Position>
            <AltitudeMeters>665.5999755859375</AltitudeMeters>
            <DistanceMeters>20983.157971332</DistanceMeters>
          </Trackpoint>
          <Trackpoint>
            <Time>2021-09-26T09:24:07.000Z</Time>
            <Position>
              <LatitudeDegrees>40.43467632494866847991943359375</LatitudeDegrees>
              <LongitudeDegrees>-3.71907885186374187469482421875</LongitudeDegrees>
            </Position>
            <AltitudeMeters>665.20001220703125</AltitudeMeters>
            <DistanceMeters>20986.085349433</DistanceMeters>
          </Trackpoint>
          <Trackpoint>
            <Time>2021-09-26T09:24:15.000Z</Time>
            <Position>
              <LatitudeDegrees>40.43485946953296661376953125</LatitudeDegrees>
              <LongitudeDegrees>-3.71920977719128131866455078125</LongitudeDegrees>
            </Position>
            <AltitudeMeters>662.5999755859375</AltitudeMeters>
            <DistanceMeters>21009.29191594</DistanceMeters>
          </Trackpoint>
          <Trackpoint>
            <Time>2021-09-26T09:24:23.000Z</Time>
            <Position>
              <LatitudeDegrees>40.43502870015799999237060546875</LatitudeDegrees>
              <LongitudeDegrees>-3.71935629285871982574462890625</LongitudeDegrees>
            </Position>
            <AltitudeMeters>661.4000244140625</AltitudeMeters>
            <DistanceMeters>21031.849504632</DistanceMeters>
          </Trackpoint>
          <Trackpoint>
            <Time>2021-09-26T09:24:25.000Z</Time>
            <Position>
              <LatitudeDegrees>40.43507404625415802001953125</LatitudeDegrees>
              <LongitudeDegrees>-3.719387054443359375</LongitudeDegrees>
            </Position>
            <AltitudeMeters>661.4000244140625</AltitudeMeters>
            <DistanceMeters>21037.528891312</DistanceMeters>
          </Trackpoint>
          <Trackpoint>
            <Time>2021-09-26T09:24:32.000Z</Time>
            <Position>
              <LatitudeDegrees>40.43524713255465030670166015625</LatitudeDegrees>
              <LongitudeDegrees>-3.719481937587261199951171875</LongitudeDegrees>
            </Position>
            <AltitudeMeters>661.79998779296875</AltitudeMeters>
            <DistanceMeters>21058.403429362</DistanceMeters>
          </Trackpoint>
          <Trackpoint>
            <Time>2021-09-26T09:24:33.000Z</Time>
            <Position>
              <LatitudeDegrees>40.4352653212845325469970703125</LatitudeDegrees>
              <LongitudeDegrees>-3.71948637999594211578369140625</LongitudeDegrees>
            </Position>
            <AltitudeMeters>661.79998779296875</AltitudeMeters>
            <DistanceMeters>21060.463559438</DistanceMeters>
          </Trackpoint>
          <Trackpoint>
            <Time>2021-09-26T09:24:40.000Z</Time>
            <Position>
              <LatitudeDegrees>40.4354513995349407196044921875</LatitudeDegrees>
              <LongitudeDegrees>-3.71946928091347217559814453125</LongitudeDegrees>
            </Position>
            <AltitudeMeters>662.5999755859375</AltitudeMeters>
            <DistanceMeters>21081.225102468</DistanceMeters>
          </Trackpoint>
          <Trackpoint>
            <Time>2021-09-26T09:24:46.000Z</Time>
            <Position>
              <LatitudeDegrees>40.43557402677834033966064453125</LatitudeDegrees>
              <LongitudeDegrees>-3.71933550573885440826416015625</LongitudeDegrees>
            </Position>
            <AltitudeMeters>663.4000244140625</AltitudeMeters>
            <DistanceMeters>21098.965600045</DistanceMeters>
          </Trackpoint>
          <Trackpoint>
            <Time>2021-09-26T09:24:54.000Z</Time>
            <Position>
              <LatitudeDegrees>40.4356847517192363739013671875</LatitudeDegrees>
              <LongitudeDegrees>-3.71910215355455875396728515625</LongitudeDegrees>
            </Position>
            <AltitudeMeters>665.79998779296875</AltitudeMeters>
            <DistanceMeters>21122.260910174</DistanceMeters>
          </Trackpoint>
          <Trackpoint>
            <Time>2021-09-26T09:24:59.000Z</Time>
            <Position>
              <LatitudeDegrees>40.4357893578708171844482421875</LatitudeDegrees>
              <LongitudeDegrees>-3.71900542639195919036865234375</LongitudeDegrees>
            </Position>
            <AltitudeMeters>666.5999755859375</AltitudeMeters>
            <DistanceMeters>21136.498436504</DistanceMeters>
          </Trackpoint>
          <Trackpoint>
            <Time>2021-09-26T09:25:00.000Z</Time>
            <Position>
              <LatitudeDegrees>40.43580830097198486328125</LatitudeDegrees>
              <LongitudeDegrees>-3.71900509111583232879638671875</LongitudeDegrees>
            </Position>
            <AltitudeMeters>666.5999755859375</AltitudeMeters>
            <DistanceMeters>21138.606230994</DistanceMeters>
          </Trackpoint>
          <Trackpoint>
            <Time>2021-09-26T09:25:05.000Z</Time>
            <Position>
              <LatitudeDegrees>40.4359234683215618133544921875</LatitudeDegrees>
              <LongitudeDegrees>-3.71907080523669719696044921875</LongitudeDegrees>
            </Position>
            <AltitudeMeters>666</AltitudeMeters>
            <DistanceMeters>21152.581297839</DistanceMeters>
          </Trackpoint>
          <Trackpoint>
            <Time>2021-09-26T09:25:12.000Z</Time>
            <Position>
              <LatitudeDegrees>40.43605816550552845001220703125</LatitudeDegrees>
              <LongitudeDegrees>-3.71917859651148319244384765625</LongitudeDegrees>
            </Position>
            <AltitudeMeters>665.20001220703125</AltitudeMeters>
            <DistanceMeters>21170.135281107</DistanceMeters>
          </Trackpoint>
          <Trackpoint>
            <Time>2021-09-26T09:25:19.000Z</Time>
            <Position>
              <LatitudeDegrees>40.43616310693323612213134765625</LatitudeDegrees>
              <LongitudeDegrees>-3.7193382717669010162353515625</LongitudeDegrees>
            </Position>
            <AltitudeMeters>664</AltitudeMeters>
            <DistanceMeters>21188.007378465</DistanceMeters>
          </Trackpoint>
          <Trackpoint>
            <Time>2021-09-26T09:25:26.000Z</Time>
            <Position>
              <LatitudeDegrees>40.4362361133098602294921875</LatitudeDegrees>
              <LongitudeDegrees>-3.71952560730278491973876953125</LongitudeDegrees>
            </Position>
            <AltitudeMeters>663.4000244140625</AltitudeMeters>
            <DistanceMeters>21205.836983372</DistanceMeters>
          </Trackpoint>
          <Trackpoint>
            <Time>2021-09-26T09:25:34.000Z</Time>
            <Position>
              <LatitudeDegrees>40.43634180910885334014892578125</LatitudeDegrees>
              <LongitudeDegrees>-3.71971202082931995391845703125</LongitudeDegrees>
            </Position>
            <AltitudeMeters>663</AltitudeMeters>
            <DistanceMeters>21225.529306821</DistanceMeters>
          </Trackpoint>
          <Trackpoint>
            <Time>2021-09-26T09:25:42.000Z</Time>
            <Position>
              <LatitudeDegrees>40.43643317185342311859130859375</LatitudeDegrees>
              <LongitudeDegrees>-3.71992358006536960601806640625</LongitudeDegrees>
            </Position>
            <AltitudeMeters>663</AltitudeMeters>
            <DistanceMeters>21246.135209482</DistanceMeters>
          </Trackpoint>
          <Trackpoint>
            <Time>2021-09-26T09:25:43.000Z</Time>
            <Position>
              <LatitudeDegrees>40.4364394582808017730712890625</LatitudeDegrees>
              <LongitudeDegrees>-3.7199481390416622161865234375</LongitudeDegrees>
            </Position>
            <AltitudeMeters>662.79998779296875</AltitudeMeters>
            <DistanceMeters>21248.329071543</DistanceMeters>
          </Trackpoint>
          <Trackpoint>
            <Time>2021-09-26T09:25:50.000Z</Time>
            <Position>
              <LatitudeDegrees>40.43652319349348545074462890625</LatitudeDegrees>
              <LongitudeDegrees>-3.7201583571732044219970703125</LongitudeDegrees>
            </Position>
            <AltitudeMeters>662.5999755859375</AltitudeMeters>
            <DistanceMeters>21268.42896259</DistanceMeters>
          </Trackpoint>
          <Trackpoint>
            <Time>2021-09-26T09:25:51.000Z</Time>
            <Position>
              <LatitudeDegrees>40.4365380294620990753173828125</LatitudeDegrees>
              <LongitudeDegrees>-3.720180988311767578125</LongitudeDegrees>
            </Position>
            <AltitudeMeters>662.5999755859375</AltitudeMeters>
            <DistanceMeters>21270.961027809</DistanceMeters>
          </Trackpoint>
          <Trackpoint>
            <Time>2021-09-26T09:25:58.000Z</Time>
            <Position>
              <LatitudeDegrees>40.4366396181285381317138671875</LatitudeDegrees>
              <LongitudeDegrees>-3.7203642167150974273681640625</LongitudeDegrees>
            </Position>
            <AltitudeMeters>662.5999755859375</AltitudeMeters>
            <DistanceMeters>21290.16465486</DistanceMeters>
          </Trackpoint>
          <Trackpoint>
            <Time>2021-09-26T09:26:04.000Z</Time>
            <Position>
              <LatitudeDegrees>40.4367001354694366455078125</LatitudeDegrees>
              <LongitudeDegrees>-3.720505870878696441650390625</LongitudeDegrees>
            </Position>
            <AltitudeMeters>662.20001220703125</AltitudeMeters>
            <DistanceMeters>21303.926150534</DistanceMeters>
          </Trackpoint>
          <Trackpoint>
            <Time>2021-09-26T09:26:11.000Z</Time>
            <Position>
              <LatitudeDegrees>40.436813123524188995361328125</LatitudeDegrees>
              <LongitudeDegrees>-3.7206683121621608734130859375</LongitudeDegrees>
            </Position>
            <AltitudeMeters>662.4000244140625</AltitudeMeters>
            <DistanceMeters>21322.568105687</DistanceMeters>
          </Trackpoint>
          <Trackpoint>
            <Time>2021-09-26T09:26:12.000Z</Time>
            <Position>
              <LatitudeDegrees>40.43683298863470554351806640625</LatitudeDegrees>
              <LongitudeDegrees>-3.7206973135471343994140625</LongitudeDegrees>
            </Position>
            <AltitudeMeters>662.5999755859375</AltitudeMeters>
            <DistanceMeters>21325.874980734</DistanceMeters>
          </Trackpoint>
          <Trackpoint>
            <Time>2021-09-26T09:26:20.000Z</Time>
            <Position>
              <LatitudeDegrees>40.43694731779396533966064453125</LatitudeDegrees>
              <LongitudeDegrees>-3.72089445590972900390625</LongitudeDegrees>
            </Position>
            <AltitudeMeters>662.79998779296875</AltitudeMeters>
            <DistanceMeters>21346.87136928</DistanceMeters>
          </Trackpoint>
          <Trackpoint>
            <Time>2021-09-26T09:26:27.000Z</Time>
            <Position>
              <LatitudeDegrees>40.437061227858066558837890625</LatitudeDegrees>
              <LongitudeDegrees>-3.72108464129269123077392578125</LongitudeDegrees>
            </Position>
            <AltitudeMeters>663</AltitudeMeters>
            <DistanceMeters>21367.373148916</DistanceMeters>
          </Trackpoint>
          <Trackpoint>
            <Time>2021-09-26T09:26:28.000Z</Time>
            <Position>
              <LatitudeDegrees>40.43707304634153842926025390625</LatitudeDegrees>
              <LongitudeDegrees>-3.7211048416793346405029296875</LongitudeDegrees>
            </Position>
            <AltitudeMeters>663.20001220703125</AltitudeMeters>
            <DistanceMeters>21369.531740922</DistanceMeters>
          </Trackpoint>
          <Trackpoint>
            <Time>2021-09-26T09:26:35.000Z</Time>
            <Position>
              <LatitudeDegrees>40.437156446278095245361328125</LatitudeDegrees>
              <LongitudeDegrees>-3.7212912552058696746826171875</LongitudeDegrees>
            </Position>
            <AltitudeMeters>663.5999755859375</AltitudeMeters>
            <DistanceMeters>21387.849480425</DistanceMeters>
          </Trackpoint>
          <Trackpoint>
            <Time>2021-09-26T09:26:42.000Z</Time>
            <Position>
              <LatitudeDegrees>40.43719089590013027191162109375</LatitudeDegrees>
              <LongitudeDegrees>-3.72146417386829853057861328125</LongitudeDegrees>
            </Position>
            <AltitudeMeters>663.79998779296875</AltitudeMeters>
            <DistanceMeters>21402.991265026</DistanceMeters>
          </Trackpoint>
          <Trackpoint>
            <Time>2021-09-26T09:26:50.000Z</Time>
            <Position>
              <LatitudeDegrees>40.437184609472751617431640625</LatitudeDegrees>
              <LongitudeDegrees>-3.72171261347830295562744140625</LongitudeDegrees>
            </Position>
            <AltitudeMeters>663.4000244140625</AltitudeMeters>
            <DistanceMeters>21424.04906486</DistanceMeters>
          </Trackpoint>
          <Trackpoint>
            <Time>2021-09-26T09:26:57.000Z</Time>
            <Position>
              <LatitudeDegrees>40.43720263056457042694091796875</LatitudeDegrees>
              <LongitudeDegrees>-3.72190631926059722900390625</LongitudeDegrees>
            </Position>
            <AltitudeMeters>663.20001220703125</AltitudeMeters>
            <DistanceMeters>21440.580436053</DistanceMeters>
          </Trackpoint>
          <Trackpoint>
            <Time>2021-09-26T09:27:03.000Z</Time>
            <Position>
              <LatitudeDegrees>40.43727035634219646453857421875</LatitudeDegrees>
              <LongitudeDegrees>-3.722107820212841033935546875</LongitudeDegrees>
            </Position>
            <AltitudeMeters>662</AltitudeMeters>
            <DistanceMeters>21459.24054719</DistanceMeters>
          </Trackpoint>
          <Trackpoint>
            <Time>2021-09-26T09:27:11.000Z</Time>
            <Position>
              <LatitudeDegrees>40.43740698136389255523681640625</LatitudeDegrees>
              <LongitudeDegrees>-3.7222987599670886993408203125</LongitudeDegrees>
            </Position>
            <AltitudeMeters>661.79998779296875</AltitudeMeters>
            <DistanceMeters>21481.441439796</DistanceMeters>
          </Trackpoint>
          <Trackpoint>
            <Time>2021-09-26T09:27:12.000Z</Time>
            <Position>
              <LatitudeDegrees>40.43742307461798191070556640625</LatitudeDegrees>
              <LongitudeDegrees>-3.72232432477176189422607421875</LongitudeDegrees>
            </Position>
            <AltitudeMeters>661.79998779296875</AltitudeMeters>
            <DistanceMeters>21484.2539737</DistanceMeters>
          </Trackpoint>
          <Trackpoint>
            <Time>2021-09-26T09:27:18.000Z</Time>
            <Position>
              <LatitudeDegrees>40.4375088214874267578125</LatitudeDegrees>
              <LongitudeDegrees>-3.72247670777142047882080078125</LongitudeDegrees>
            </Position>
            <AltitudeMeters>661.79998779296875</AltitudeMeters>
            <DistanceMeters>21500.307583316</DistanceMeters>
          </Trackpoint>
          <Trackpoint>
            <Time>2021-09-26T09:27:24.000Z</Time>
            <Position>
              <LatitudeDegrees>40.43758618645370006561279296875</LatitudeDegrees>
              <LongitudeDegrees>-3.72261735610663890838623046875</LongitudeDegrees>
            </Position>
            <AltitudeMeters>662</AltitudeMeters>
            <DistanceMeters>21515.008495517</DistanceMeters>
          </Trackpoint>
          <Trackpoint>
            <Time>2021-09-26T09:27:32.000Z</Time>
            <Position>
              <LatitudeDegrees>40.43767704628407955169677734375</LatitudeDegrees>
              <LongitudeDegrees>-3.7228278256952762603759765625</LongitudeDegrees>
            </Position>
            <AltitudeMeters>662.20001220703125</AltitudeMeters>
            <DistanceMeters>21535.506530958</DistanceMeters>
          </Trackpoint>
          <Trackpoint>
            <Time>2021-09-26T09:27:33.000Z</Time>
            <Position>
              <LatitudeDegrees>40.43768559582531452178955078125</LatitudeDegrees>
              <LongitudeDegrees>-3.7228496186435222625732421875</LongitudeDegrees>
            </Position>
            <AltitudeMeters>662.20001220703125</AltitudeMeters>
            <DistanceMeters>21537.584120075</DistanceMeters>
          </Trackpoint>
          <Trackpoint>
            <Time>2021-09-26T09:27:39.000Z</Time>
            <Position>
              <LatitudeDegrees>40.43776120059192180633544921875</LatitudeDegrees>
              <LongitudeDegrees>-3.72302253730595111846923828125</LongitudeDegrees>
            </Position>
            <AltitudeMeters>661.5999755859375</AltitudeMeters>
            <DistanceMeters>21554.477507419</DistanceMeters>
          </Trackpoint>
          <Trackpoint>
            <Time>2021-09-26T09:27:44.000Z</Time>
            <Position>
              <LatitudeDegrees>40.43783269822597503662109375</LatitudeDegrees>
              <LongitudeDegrees>-3.72316067107021808624267578125</LongitudeDegrees>
            </Position>
            <AltitudeMeters>660.79998779296875</AltitudeMeters>
            <DistanceMeters>21568.628832632</DistanceMeters>
          </Trackpoint>
          <Trackpoint>
            <Time>2021-09-26T09:27:45.000Z</Time>
            <Position>
              <LatitudeDegrees>40.4378580115735530853271484375</LatitudeDegrees>
              <LongitudeDegrees>-3.72318548150360584259033203125</LongitudeDegrees>
            </Position>
            <AltitudeMeters>660.5999755859375</AltitudeMeters>
            <DistanceMeters>21572.143536685</DistanceMeters>
          </Trackpoint>
          <Trackpoint>
            <Time>2021-09-26T09:27:48.000Z</Time>
            <Position>
              <LatitudeDegrees>40.4378948919475078582763671875</LatitudeDegrees>
              <LongitudeDegrees>-3.723247759044170379638671875</LongitudeDegrees>
            </Position>
            <AltitudeMeters>660.4000244140625</AltitudeMeters>
            <DistanceMeters>21578.827907878</DistanceMeters>
          </Trackpoint>
          <Trackpoint>
            <Time>2021-09-26T09:27:53.000Z</Time>
            <Position>
              <LatitudeDegrees>40.437942333519458770751953125</LatitudeDegrees>
              <LongitudeDegrees>-3.72338145039975643157958984375</LongitudeDegrees>
            </Position>
            <AltitudeMeters>659.20001220703125</AltitudeMeters>
            <DistanceMeters>21591.323469161</DistanceMeters>
          </Trackpoint>
          <Trackpoint>
            <Time>2021-09-26T09:27:54.000Z</Time>
            <Position>
              <LatitudeDegrees>40.43795364908874034881591796875</LatitudeDegrees>
              <LongitudeDegrees>-3.723408021032810211181640625</LongitudeDegrees>
            </Position>
            <AltitudeMeters>659</AltitudeMeters>
            <DistanceMeters>21593.901479297</DistanceMeters>
          </Trackpoint>
          <Trackpoint>
            <Time>2021-09-26T09:28:03.000Z</Time>
            <Position>
              <LatitudeDegrees>40.4381051100790500640869140625</LatitudeDegrees>
              <LongitudeDegrees>-3.72364665381610393524169921875</LongitudeDegrees>
            </Position>
            <AltitudeMeters>656.20001220703125</AltitudeMeters>
            <DistanceMeters>21620.223364588</DistanceMeters>
          </Trackpoint>
          <Trackpoint>
            <Time>2021-09-26T09:28:11.000Z</Time>
            <Position>
              <LatitudeDegrees>40.438214242458343505859375</LatitudeDegrees>
              <LongitudeDegrees>-3.7238125316798686981201171875</LongitudeDegrees>
            </Position>
            <AltitudeMeters>653.5999755859375</AltitudeMeters>
            <DistanceMeters>21638.797380592</DistanceMeters>
          </Trackpoint>
          <Trackpoint>
            <Time>2021-09-26T09:28:12.000Z</Time>
            <Position>
              <LatitudeDegrees>40.43822824023663997650146484375</LatitudeDegrees>
              <LongitudeDegrees>-3.7238354980945587158203125</LongitudeDegrees>
            </Position>
            <AltitudeMeters>653.20001220703125</AltitudeMeters>
            <DistanceMeters>21641.289907943</DistanceMeters>
          </Trackpoint>
          <Trackpoint>
            <Time>2021-09-26T09:28:12.000Z</Time>
            <Position>
              <LatitudeDegrees>40.43822824023663997650146484375</LatitudeDegrees>
              <LongitudeDegrees>-3.7238354980945587158203125</LongitudeDegrees>
            </Position>
            <AltitudeMeters>653.20001220703125</AltitudeMeters>
            <DistanceMeters>21641.289907943</DistanceMeters>
          </Trackpoint>
          <Trackpoint>
            <Time>2021-09-26T09:28:18.000Z</Time>
            <Position>
              <LatitudeDegrees>40.438348688185214996337890625</LatitudeDegrees>
              <LongitudeDegrees>-3.72394077479839324951171875</LongitudeDegrees>
            </Position>
            <AltitudeMeters>651.4000244140625</AltitudeMeters>
            <DistanceMeters>21657.391539065</DistanceMeters>
          </Trackpoint>
          <Trackpoint>
            <Time>2021-09-26T09:28:19.000Z</Time>
            <Position>
              <LatitudeDegrees>40.43836218304932117462158203125</LatitudeDegrees>
              <LongitudeDegrees>-3.72396114282310009002685546875</LongitudeDegrees>
            </Position>
            <AltitudeMeters>651</AltitudeMeters>
            <DistanceMeters>21659.680085402</DistanceMeters>
          </Trackpoint>
          <Trackpoint>
            <Time>2021-09-26T09:28:21.000Z</Time>
            <Position>
              <LatitudeDegrees>40.43839369900524616241455078125</LatitudeDegrees>
              <LongitudeDegrees>-3.723996765911579132080078125</LongitudeDegrees>
            </Position>
            <AltitudeMeters>651</AltitudeMeters>
            <DistanceMeters>21664.307213156</DistanceMeters>
          </Trackpoint>
          <Trackpoint>
            <Time>2021-09-26T09:28:28.000Z</Time>
            <Position>
              <LatitudeDegrees>40.43852604925632476806640625</LatitudeDegrees>
              <LongitudeDegrees>-3.72411285527050495147705078125</LongitudeDegrees>
            </Position>
            <AltitudeMeters>652.4000244140625</AltitudeMeters>
            <DistanceMeters>21682.018928365</DistanceMeters>
          </Trackpoint>
          <Trackpoint>
            <Time>2021-09-26T09:28:29.000Z</Time>
            <Position>
              <LatitudeDegrees>40.4385406337678432464599609375</LatitudeDegrees>
              <LongitudeDegrees>-3.7241347320377826690673828125</LongitudeDegrees>
            </Position>
            <AltitudeMeters>652.5999755859375</AltitudeMeters>
            <DistanceMeters>21684.482302346</DistanceMeters>
          </Trackpoint>
          <Trackpoint>
            <Time>2021-09-26T09:28:33.000Z</Time>
            <Position>
              <LatitudeDegrees>40.43860240839421749114990234375</LatitudeDegrees>
              <LongitudeDegrees>-3.724240176379680633544921875</LongitudeDegrees>
            </Position>
            <AltitudeMeters>653.4000244140625</AltitudeMeters>
            <DistanceMeters>21695.754890147</DistanceMeters>
          </Trackpoint>
          <Trackpoint>
            <Time>2021-09-26T09:28:40.000Z</Time>
            <Position>
              <LatitudeDegrees>40.43872294016182422637939453125</LatitudeDegrees>
              <LongitudeDegrees>-3.724425919353961944580078125</LongitudeDegrees>
            </Position>
            <AltitudeMeters>654.5999755859375</AltitudeMeters>
            <DistanceMeters>21716.432100534</DistanceMeters>
          </Trackpoint>
          <Trackpoint>
            <Time>2021-09-26T09:28:41.000Z</Time>
            <Position>
              <LatitudeDegrees>40.43873534537851810455322265625</LatitudeDegrees>
              <LongitudeDegrees>-3.72445114888250827789306640625</LongitudeDegrees>
            </Position>
            <AltitudeMeters>654.4000244140625</AltitudeMeters>
            <DistanceMeters>21718.97661715</DistanceMeters>
          </Trackpoint>
          <Trackpoint>
            <Time>2021-09-26T09:28:49.000Z</Time>
            <Position>
              <LatitudeDegrees>40.4388869740068912506103515625</LatitudeDegrees>
              <LongitudeDegrees>-3.724606968462467193603515625</LongitudeDegrees>
            </Position>
            <AltitudeMeters>653.20001220703125</AltitudeMeters>
            <DistanceMeters>21740.402138523</DistanceMeters>
          </Trackpoint>
          <Trackpoint>
            <Time>2021-09-26T09:28:56.000Z</Time>
            <Position>
              <LatitudeDegrees>40.43898847885429859161376953125</LatitudeDegrees>
              <LongitudeDegrees>-3.72476362623274326324462890625</LongitudeDegrees>
            </Position>
            <AltitudeMeters>651.20001220703125</AltitudeMeters>
            <DistanceMeters>21757.830670057</DistanceMeters>
          </Trackpoint>
          <Trackpoint>
            <Time>2021-09-26T09:28:57.000Z</Time>
            <Position>
              <LatitudeDegrees>40.4390090145170688629150390625</LatitudeDegrees>
              <LongitudeDegrees>-3.72479346580803394317626953125</LongitudeDegrees>
            </Position>
            <AltitudeMeters>651</AltitudeMeters>
            <DistanceMeters>21761.239732741</DistanceMeters>
          </Trackpoint>
          <Trackpoint>
            <Time>2021-09-26T09:29:00.000Z</Time>
            <Position>
              <LatitudeDegrees>40.43905419297516345977783203125</LatitudeDegrees>
              <LongitudeDegrees>-3.724859096109867095947265625</LongitudeDegrees>
            </Position>
            <AltitudeMeters>650.20001220703125</AltitudeMeters>
            <DistanceMeters>21768.736611811</DistanceMeters>
          </Trackpoint>
          <Trackpoint>
            <Time>2021-09-26T09:29:02.000Z</Time>
            <Position>
              <LatitudeDegrees>40.43908738531172275543212890625</LatitudeDegrees>
              <LongitudeDegrees>-3.72489698231220245361328125</LongitudeDegrees>
            </Position>
            <AltitudeMeters>649.5999755859375</AltitudeMeters>
            <DistanceMeters>21773.630256948</DistanceMeters>
          </Trackpoint>
          <Trackpoint>
            <Time>2021-09-26T09:29:07.000Z</Time>
            <Position>
              <LatitudeDegrees>40.43915796093642711639404296875</LatitudeDegrees>
              <LongitudeDegrees>-3.7250263988971710205078125</LongitudeDegrees>
            </Position>
            <AltitudeMeters>649.4000244140625</AltitudeMeters>
            <DistanceMeters>21787.116687155</DistanceMeters>
          </Trackpoint>
          <Trackpoint>
            <Time>2021-09-26T09:29:13.000Z</Time>
            <Position>
              <LatitudeDegrees>40.4392302967607975006103515625</LatitudeDegrees>
              <LongitudeDegrees>-3.7251122295856475830078125</LongitudeDegrees>
            </Position>
            <AltitudeMeters>649.79998779296875</AltitudeMeters>
            <DistanceMeters>21797.964726435</DistanceMeters>
          </Trackpoint>
          <Trackpoint>
            <Time>2021-09-26T09:29:15.000Z</Time>
            <Position>
              <LatitudeDegrees>40.43924898840487003326416015625</LatitudeDegrees>
              <LongitudeDegrees>-3.72517718933522701263427734375</LongitudeDegrees>
            </Position>
            <AltitudeMeters>649.5999755859375</AltitudeMeters>
            <DistanceMeters>21803.847946897</DistanceMeters>
          </Trackpoint>
          <Trackpoint>
            <Time>2021-09-26T09:29:18.000Z</Time>
            <Position>
              <LatitudeDegrees>40.4392882995307445526123046875</LatitudeDegrees>
              <LongitudeDegrees>-3.72526972554624080657958984375</LongitudeDegrees>
            </Position>
            <AltitudeMeters>649.5999755859375</AltitudeMeters>
            <DistanceMeters>21812.825331386</DistanceMeters>
          </Trackpoint>
          <Trackpoint>
            <Time>2021-09-26T09:29:26.000Z</Time>
            <Position>
              <LatitudeDegrees>40.43942601419985294342041015625</LatitudeDegrees>
              <LongitudeDegrees>-3.72546887956559658050537109375</LongitudeDegrees>
            </Position>
            <AltitudeMeters>649.4000244140625</AltitudeMeters>
            <DistanceMeters>21835.619069085</DistanceMeters>
          </Trackpoint>
          <Trackpoint>
            <Time>2021-09-26T09:29:34.000Z</Time>
            <Position>
              <LatitudeDegrees>40.43956431560218334197998046875</LatitudeDegrees>
              <LongitudeDegrees>-3.72563031502068042755126953125</LongitudeDegrees>
            </Position>
            <AltitudeMeters>648.79998779296875</AltitudeMeters>
            <DistanceMeters>21856.209408787</DistanceMeters>
          </Trackpoint>
          <Trackpoint>
            <Time>2021-09-26T09:29:35.000Z</Time>
            <Position>
              <LatitudeDegrees>40.43957437388598918914794921875</LatitudeDegrees>
              <LongitudeDegrees>-3.72564976103603839874267578125</LongitudeDegrees>
            </Position>
            <AltitudeMeters>648.79998779296875</AltitudeMeters>
            <DistanceMeters>21858.202705964</DistanceMeters>
          </Trackpoint>
          <Trackpoint>
            <Time>2021-09-26T09:29:42.000Z</Time>
            <Position>
              <LatitudeDegrees>40.4396641440689563751220703125</LatitudeDegrees>
              <LongitudeDegrees>-3.7258355878293514251708984375</LongitudeDegrees>
            </Position>
            <AltitudeMeters>647.79998779296875</AltitudeMeters>
            <DistanceMeters>21876.847325102</DistanceMeters>
          </Trackpoint>
          <Trackpoint>
            <Time>2021-09-26T09:29:46.000Z</Time>
            <Position>
              <LatitudeDegrees>40.4397211410105228424072265625</LatitudeDegrees>
              <LongitudeDegrees>-3.7259713746607303619384765625</LongitudeDegrees>
            </Position>
            <AltitudeMeters>646.79998779296875</AltitudeMeters>
            <DistanceMeters>21889.983028383</DistanceMeters>
          </Trackpoint>
          <Trackpoint>
            <Time>2021-09-26T09:29:48.000Z</Time>
            <Position>
              <LatitudeDegrees>40.43974318541586399078369140625</LatitudeDegrees>
              <LongitudeDegrees>-3.7260300479829311370849609375</LongitudeDegrees>
            </Position>
            <AltitudeMeters>646.5999755859375</AltitudeMeters>
            <DistanceMeters>21895.526434388</DistanceMeters>
          </Trackpoint>
          <Trackpoint>
            <Time>2021-09-26T09:29:51.000Z</Time>
            <Position>
              <LatitudeDegrees>40.43976933695375919342041015625</LatitudeDegrees>
              <LongitudeDegrees>-3.726108334958553314208984375</LongitudeDegrees>
            </Position>
            <AltitudeMeters>646.4000244140625</AltitudeMeters>
            <DistanceMeters>21902.768442672</DistanceMeters>
          </Trackpoint>
          <Trackpoint>
            <Time>2021-09-26T09:29:52.000Z</Time>
            <Position>
              <LatitudeDegrees>40.4397982545197010040283203125</LatitudeDegrees>
              <LongitudeDegrees>-3.72612300328910350799560546875</LongitudeDegrees>
            </Position>
            <AltitudeMeters>646.4000244140625</AltitudeMeters>
            <DistanceMeters>21906.218318141</DistanceMeters>
          </Trackpoint>
          <Trackpoint>
            <Time>2021-09-26T09:29:54.000Z</Time>
            <Position>
              <LatitudeDegrees>40.4398458637297153472900390625</LatitudeDegrees>
              <LongitudeDegrees>-3.72614085674285888671875</LongitudeDegrees>
            </Position>
            <AltitudeMeters>646.5999755859375</AltitudeMeters>
            <DistanceMeters>21911.728228939</DistanceMeters>
          </Trackpoint>
          <Trackpoint>
            <Time>2021-09-26T09:29:55.000Z</Time>
            <Position>
              <LatitudeDegrees>40.4398626275360584259033203125</LatitudeDegrees>
              <LongitudeDegrees>-3.72615686617791652679443359375</LongitudeDegrees>
            </Position>
            <AltitudeMeters>646.5999755859375</AltitudeMeters>
            <DistanceMeters>21914.032504303</DistanceMeters>
          </Trackpoint>
          <Trackpoint>
            <Time>2021-09-26T09:30:02.000Z</Time>
            <Position>
              <LatitudeDegrees>40.4400341212749481201171875</LatitudeDegrees>
              <LongitudeDegrees>-3.72626314871013164520263671875</LongitudeDegrees>
            </Position>
            <AltitudeMeters>647.20001220703125</AltitudeMeters>
            <DistanceMeters>21935.136994122</DistanceMeters>
          </Trackpoint>
          <Trackpoint>
            <Time>2021-09-26T09:30:04.000Z</Time>
            <Position>
              <LatitudeDegrees>40.44006697833538055419921875</LatitudeDegrees>
              <LongitudeDegrees>-3.726306818425655364990234375</LongitudeDegrees>
            </Position>
            <AltitudeMeters>647.20001220703125</AltitudeMeters>
            <DistanceMeters>21940.33921856</DistanceMeters>
          </Trackpoint>
          <Trackpoint>
            <Time>2021-09-26T09:30:11.000Z</Time>
            <Position>
              <LatitudeDegrees>40.440172590315341949462890625</LatitudeDegrees>
              <LongitudeDegrees>-3.72645928524434566497802734375</LongitudeDegrees>
            </Position>
            <AltitudeMeters>646.5999755859375</AltitudeMeters>
            <DistanceMeters>21957.803463804</DistanceMeters>
          </Trackpoint>
          <Trackpoint>
            <Time>2021-09-26T09:30:17.000Z</Time>
            <Position>
              <LatitudeDegrees>40.4403068684041500091552734375</LatitudeDegrees>
              <LongitudeDegrees>-3.726528100669384002685546875</LongitudeDegrees>
            </Position>
            <AltitudeMeters>646.4000244140625</AltitudeMeters>
            <DistanceMeters>21973.845819574</DistanceMeters>
          </Trackpoint>
          <Trackpoint>
            <Time>2021-09-26T09:30:24.000Z</Time>
            <Position>
              <LatitudeDegrees>40.44048666022717952728271484375</LatitudeDegrees>
              <LongitudeDegrees>-3.7265597842633724212646484375</LongitudeDegrees>
            </Position>
            <AltitudeMeters>646.5999755859375</AltitudeMeters>
            <DistanceMeters>21994.036257187</DistanceMeters>
          </Trackpoint>
          <Trackpoint>
            <Time>2021-09-26T09:30:32.000Z</Time>
            <Position>
              <LatitudeDegrees>40.44067181646823883056640625</LatitudeDegrees>
              <LongitudeDegrees>-3.72659775428473949432373046875</LongitudeDegrees>
            </Position>
            <AltitudeMeters>646.5999755859375</AltitudeMeters>
            <DistanceMeters>22014.894133947</DistanceMeters>
          </Trackpoint>
          <Trackpoint>
            <Time>2021-09-26T09:30:39.000Z</Time>
            <Position>
              <LatitudeDegrees>40.440841130912303924560546875</LatitudeDegrees>
              <LongitudeDegrees>-3.72666480951011180877685546875</LongitudeDegrees>
            </Position>
            <AltitudeMeters>646.5999755859375</AltitudeMeters>
            <DistanceMeters>22034.576825317</DistanceMeters>
          </Trackpoint>
          <Trackpoint>
            <Time>2021-09-26T09:30:45.000Z</Time>
            <Position>
              <LatitudeDegrees>40.44099896214902400970458984375</LatitudeDegrees>
              <LongitudeDegrees>-3.72670286335051059722900390625</LongitudeDegrees>
            </Position>
            <AltitudeMeters>647.20001220703125</AltitudeMeters>
            <DistanceMeters>22052.437297888</DistanceMeters>
          </Trackpoint>
          <Trackpoint>
            <Time>2021-09-26T09:30:53.000Z</Time>
            <Position>
              <LatitudeDegrees>40.44119828380644321441650390625</LatitudeDegrees>
              <LongitudeDegrees>-3.72673789970576763153076171875</LongitudeDegrees>
            </Position>
            <AltitudeMeters>648</AltitudeMeters>
            <DistanceMeters>22074.819871713</DistanceMeters>
          </Trackpoint>
          <Trackpoint>
            <Time>2021-09-26T09:31:01.000Z</Time>
            <Position>
              <LatitudeDegrees>40.44138151220977306365966796875</LatitudeDegrees>
              <LongitudeDegrees>-3.72678400017321109771728515625</LongitudeDegrees>
            </Position>
            <AltitudeMeters>648.20001220703125</AltitudeMeters>
            <DistanceMeters>22095.584241677</DistanceMeters>
          </Trackpoint>
          <Trackpoint>
            <Time>2021-09-26T09:31:02.000Z</Time>
            <Position>
              <LatitudeDegrees>40.4413985274732112884521484375</LatitudeDegrees>
              <LongitudeDegrees>-3.72679891996085643768310546875</LongitudeDegrees>
            </Position>
            <AltitudeMeters>648</AltitudeMeters>
            <DistanceMeters>22097.860919932</DistanceMeters>
          </Trackpoint>
          <Trackpoint>
            <Time>2021-09-26T09:31:10.000Z</Time>
            <Position>
              <LatitudeDegrees>40.44159424491226673126220703125</LatitudeDegrees>
              <LongitudeDegrees>-3.72681937180459499359130859375</LongitudeDegrees>
            </Position>
            <AltitudeMeters>647.20001220703125</AltitudeMeters>
            <DistanceMeters>22119.713345484</DistanceMeters>
          </Trackpoint>
          <Trackpoint>
            <Time>2021-09-26T09:31:15.000Z</Time>
            <Position>
              <LatitudeDegrees>40.44170069508254528045654296875</LatitudeDegrees>
              <LongitudeDegrees>-3.72685231268405914306640625</LongitudeDegrees>
            </Position>
            <AltitudeMeters>646.79998779296875</AltitudeMeters>
            <DistanceMeters>22131.885670418</DistanceMeters>
          </Trackpoint>
          <Trackpoint>
            <Time>2021-09-26T09:31:22.000Z</Time>
            <Position>
              <LatitudeDegrees>40.441878139972686767578125</LatitudeDegrees>
              <LongitudeDegrees>-3.7268893606960773468017578125</LongitudeDegrees>
            </Position>
            <AltitudeMeters>645.79998779296875</AltitudeMeters>
            <DistanceMeters>22151.883545192</DistanceMeters>
          </Trackpoint>
          <Trackpoint>
            <Time>2021-09-26T09:31:23.000Z</Time>
            <Position>
              <LatitudeDegrees>40.441903956234455108642578125</LatitudeDegrees>
              <LongitudeDegrees>-3.726897574961185455322265625</LongitudeDegrees>
            </Position>
            <AltitudeMeters>645.79998779296875</AltitudeMeters>
            <DistanceMeters>22154.840082693</DistanceMeters>
          </Trackpoint>
          <Trackpoint>
            <Time>2021-09-26T09:31:30.000Z</Time>
            <Position>
              <LatitudeDegrees>40.442064218223094940185546875</LatitudeDegrees>
              <LongitudeDegrees>-3.72691961936652660369873046875</LongitudeDegrees>
            </Position>
            <AltitudeMeters>645</AltitudeMeters>
            <DistanceMeters>22172.775226492</DistanceMeters>
          </Trackpoint>
          <Trackpoint>
            <Time>2021-09-26T09:31:36.000Z</Time>
            <Position>
              <LatitudeDegrees>40.4422095604240894317626953125</LatitudeDegrees>
              <LongitudeDegrees>-3.726935796439647674560546875</LongitudeDegrees>
            </Position>
            <AltitudeMeters>644.4000244140625</AltitudeMeters>
            <DistanceMeters>22189.010339714</DistanceMeters>
          </Trackpoint>
          <Trackpoint>
            <Time>2021-09-26T09:31:42.000Z</Time>
            <Position>
              <LatitudeDegrees>40.442352555692195892333984375</LatitudeDegrees>
              <LongitudeDegrees>-3.72696873731911182403564453125</LongitudeDegrees>
            </Position>
            <AltitudeMeters>643.4000244140625</AltitudeMeters>
            <DistanceMeters>22205.168793548</DistanceMeters>
          </Trackpoint>
          <Trackpoint>
            <Time>2021-09-26T09:31:50.000Z</Time>
            <Position>
              <LatitudeDegrees>40.44254642911255359649658203125</LatitudeDegrees>
              <LongitudeDegrees>-3.7269835732877254486083984375</LongitudeDegrees>
            </Position>
            <AltitudeMeters>642.20001220703125</AltitudeMeters>
            <DistanceMeters>22226.783976989</DistanceMeters>
          </Trackpoint>
          <Trackpoint>
            <Time>2021-09-26T09:31:57.000Z</Time>
            <Position>
              <LatitudeDegrees>40.4427201859652996063232421875</LatitudeDegrees>
              <LongitudeDegrees>-3.72701651416718959808349609375</LongitudeDegrees>
            </Position>
            <AltitudeMeters>641</AltitudeMeters>
            <DistanceMeters>22246.323697103</DistanceMeters>
          </Trackpoint>
          <Trackpoint>
            <Time>2021-09-26T09:32:05.000Z</Time>
            <Position>
              <LatitudeDegrees>40.44291523285210132598876953125</LatitudeDegrees>
              <LongitudeDegrees>-3.72703176923096179962158203125</LongitudeDegrees>
            </Position>
            <AltitudeMeters>640.20001220703125</AltitudeMeters>
            <DistanceMeters>22268.071324188</DistanceMeters>
          </Trackpoint>
          <Trackpoint>
            <Time>2021-09-26T09:32:12.000Z</Time>
            <Position>
              <LatitudeDegrees>40.44307918287813663482666015625</LatitudeDegrees>
              <LongitudeDegrees>-3.72706663794815540313720703125</LongitudeDegrees>
            </Position>
            <AltitudeMeters>639.79998779296875</AltitudeMeters>
            <DistanceMeters>22286.556646006</DistanceMeters>
          </Trackpoint>
          <Trackpoint>
            <Time>2021-09-26T09:32:19.000Z</Time>
            <Position>
              <LatitudeDegrees>40.44323064386844635009765625</LatitudeDegrees>
              <LongitudeDegrees>-3.727083317935466766357421875</LongitudeDegrees>
            </Position>
            <AltitudeMeters>639.79998779296875</AltitudeMeters>
            <DistanceMeters>22303.473536461</DistanceMeters>
          </Trackpoint>
          <Trackpoint>
            <Time>2021-09-26T09:32:21.000Z</Time>
            <Position>
              <LatitudeDegrees>40.4432757385075092315673828125</LatitudeDegrees>
              <LongitudeDegrees>-3.72708910144865512847900390625</LongitudeDegrees>
            </Position>
            <AltitudeMeters>639.5999755859375</AltitudeMeters>
            <DistanceMeters>22308.516223767</DistanceMeters>
          </Trackpoint>
          <Trackpoint>
            <Time>2021-09-26T09:32:28.000Z</Time>
            <Position>
              <LatitudeDegrees>40.4434292949736118316650390625</LatitudeDegrees>
              <LongitudeDegrees>-3.7271126545965671539306640625</LongitudeDegrees>
            </Position>
            <AltitudeMeters>639.4000244140625</AltitudeMeters>
            <DistanceMeters>22325.723407631</DistanceMeters>
          </Trackpoint>
          <Trackpoint>
            <Time>2021-09-26T09:32:35.000Z</Time>
            <Position>
              <LatitudeDegrees>40.44360204599797725677490234375</LatitudeDegrees>
              <LongitudeDegrees>-3.72716135345399379730224609375</LongitudeDegrees>
            </Position>
            <AltitudeMeters>639.4000244140625</AltitudeMeters>
            <DistanceMeters>22345.388427939</DistanceMeters>
          </Trackpoint>
          <Trackpoint>
            <Time>2021-09-26T09:32:36.000Z</Time>
            <Position>
              <LatitudeDegrees>40.44361629523336887359619140625</LatitudeDegrees>
              <LongitudeDegrees>-3.727168142795562744140625</LongitudeDegrees>
            </Position>
            <AltitudeMeters>639.4000244140625</AltitudeMeters>
            <DistanceMeters>22347.072305608</DistanceMeters>
          </Trackpoint>
          <Trackpoint>
            <Time>2021-09-26T09:32:37.000Z</Time>
            <Position>
              <LatitudeDegrees>40.4436351545155048370361328125</LatitudeDegrees>
              <LongitudeDegrees>-3.7271753512322902679443359375</LongitudeDegrees>
            </Position>
            <AltitudeMeters>639.5999755859375</AltitudeMeters>
            <DistanceMeters>22349.255853263</DistanceMeters>
          </Trackpoint>
          <Trackpoint>
            <Time>2021-09-26T09:32:44.000Z</Time>
            <Position>
              <LatitudeDegrees>40.44382064603269100189208984375</LatitudeDegrees>
              <LongitudeDegrees>-3.72722405008971691131591796875</LongitudeDegrees>
            </Position>
            <AltitudeMeters>639.79998779296875</AltitudeMeters>
            <DistanceMeters>22370.309793333</DistanceMeters>
          </Trackpoint>
          <Trackpoint>
            <Time>2021-09-26T09:32:47.000Z</Time>
            <Position>
              <LatitudeDegrees>40.4438876174390316009521484375</LatitudeDegrees>
              <LongitudeDegrees>-3.727236203849315643310546875</LongitudeDegrees>
            </Position>
            <AltitudeMeters>640.20001220703125</AltitudeMeters>
            <DistanceMeters>22377.835525155</DistanceMeters>
          </Trackpoint>
          <Trackpoint>
            <Time>2021-09-26T09:32:55.000Z</Time>
            <Position>
              <LatitudeDegrees>40.44407076202332973480224609375</LatitudeDegrees>
              <LongitudeDegrees>-3.72725665569305419921875</LongitudeDegrees>
            </Position>
            <AltitudeMeters>641.4000244140625</AltitudeMeters>
            <DistanceMeters>22398.293212046</DistanceMeters>
          </Trackpoint>
          <Trackpoint>
            <Time>2021-09-26T09:33:02.000Z</Time>
            <Position>
              <LatitudeDegrees>40.44422800652682781219482421875</LatitudeDegrees>
              <LongitudeDegrees>-3.72728976421058177947998046875</LongitudeDegrees>
            </Position>
            <AltitudeMeters>642.4000244140625</AltitudeMeters>
            <DistanceMeters>22416.018178045</DistanceMeters>
          </Trackpoint>
          <Trackpoint>
            <Time>2021-09-26T09:33:09.000Z</Time>
            <Position>
              <LatitudeDegrees>40.44440545141696929931640625</LatitudeDegrees>
              <LongitudeDegrees>-3.72731960378587245941162109375</LongitudeDegrees>
            </Position>
            <AltitudeMeters>642.4000244140625</AltitudeMeters>
            <DistanceMeters>22435.929392879</DistanceMeters>
          </Trackpoint>
          <Trackpoint>
            <Time>2021-09-26T09:33:16.000Z</Time>
            <Position>
              <LatitudeDegrees>40.44458381831645965576171875</LatitudeDegrees>
              <LongitudeDegrees>-3.7273466773331165313720703125</LongitudeDegrees>
            </Position>
            <AltitudeMeters>642.20001220703125</AltitudeMeters>
            <DistanceMeters>22455.914394283</DistanceMeters>
          </Trackpoint>
          <Trackpoint>
            <Time>2021-09-26T09:33:17.000Z</Time>
            <Position>
              <LatitudeDegrees>40.4446087963879108428955078125</LatitudeDegrees>
              <LongitudeDegrees>-3.7273493595421314239501953125</LongitudeDegrees>
            </Position>
            <AltitudeMeters>642.20001220703125</AltitudeMeters>
            <DistanceMeters>22458.704363082</DistanceMeters>
          </Trackpoint>
          <Trackpoint>
            <Time>2021-09-26T09:33:22.000Z</Time>
            <Position>
              <LatitudeDegrees>40.4447185993194580078125</LatitudeDegrees>
              <LongitudeDegrees>-3.727375678718090057373046875</LongitudeDegrees>
            </Position>
            <AltitudeMeters>642.20001220703125</AltitudeMeters>
            <DistanceMeters>22471.127447904</DistanceMeters>
          </Trackpoint>
          <Trackpoint>
            <Time>2021-09-26T09:33:30.000Z</Time>
            <Position>
              <LatitudeDegrees>40.44490543194115161895751953125</LatitudeDegrees>
              <LongitudeDegrees>-3.72740325517952442169189453125</LongitudeDegrees>
            </Position>
            <AltitudeMeters>642</AltitudeMeters>
            <DistanceMeters>22492.053184854</DistanceMeters>
          </Trackpoint>
          <Trackpoint>
            <Time>2021-09-26T09:33:37.000Z</Time>
            <Position>
              <LatitudeDegrees>40.44508329592645168304443359375</LatitudeDegrees>
              <LongitudeDegrees>-3.72741934843361377716064453125</LongitudeDegrees>
            </Position>
            <AltitudeMeters>642.4000244140625</AltitudeMeters>
            <DistanceMeters>22511.896710585</DistanceMeters>
          </Trackpoint>
          <Trackpoint>
            <Time>2021-09-26T09:33:44.000Z</Time>
            <Position>
              <LatitudeDegrees>40.4452488385140895843505859375</LatitudeDegrees>
              <LongitudeDegrees>-3.727439381182193756103515625</LongitudeDegrees>
            </Position>
            <AltitudeMeters>642.79998779296875</AltitudeMeters>
            <DistanceMeters>22530.399854056</DistanceMeters>
          </Trackpoint>
          <Trackpoint>
            <Time>2021-09-26T09:33:51.000Z</Time>
            <Position>
              <LatitudeDegrees>40.445396192371845245361328125</LatitudeDegrees>
              <LongitudeDegrees>-3.727486319839954376220703125</LongitudeDegrees>
            </Position>
            <AltitudeMeters>643</AltitudeMeters>
            <DistanceMeters>22547.275592584</DistanceMeters>
          </Trackpoint>
          <Trackpoint>
            <Time>2021-09-26T09:33:58.000Z</Time>
            <Position>
              <LatitudeDegrees>40.44556290842592716217041015625</LatitudeDegrees>
              <LongitudeDegrees>-3.72751439921557903289794921875</LongitudeDegrees>
            </Position>
            <AltitudeMeters>642.79998779296875</AltitudeMeters>
            <DistanceMeters>22565.983068167</DistanceMeters>
          </Trackpoint>
          <Trackpoint>
            <Time>2021-09-26T09:34:06.000Z</Time>
            <Position>
              <LatitudeDegrees>40.44574387371540069580078125</LatitudeDegrees>
              <LongitudeDegrees>-3.72754566371440887451171875</LongitudeDegrees>
            </Position>
            <AltitudeMeters>642.20001220703125</AltitudeMeters>
            <DistanceMeters>22586.29834847</DistanceMeters>
          </Trackpoint>
          <Trackpoint>
            <Time>2021-09-26T09:34:07.000Z</Time>
            <Position>
              <LatitudeDegrees>40.44577044434845447540283203125</LatitudeDegrees>
              <LongitudeDegrees>-3.72754910029470920562744140625</LongitudeDegrees>
            </Position>
            <AltitudeMeters>642.4000244140625</AltitudeMeters>
            <DistanceMeters>22589.270118104</DistanceMeters>
          </Trackpoint>
          <Trackpoint>
            <Time>2021-09-26T09:34:15.000Z</Time>
            <Position>
              <LatitudeDegrees>40.44595786370337009429931640625</LatitudeDegrees>
              <LongitudeDegrees>-3.72757910750806331634521484375</LongitudeDegrees>
            </Position>
            <AltitudeMeters>643</AltitudeMeters>
            <DistanceMeters>22610.284132434</DistanceMeters>
          </Trackpoint>
          <Trackpoint>
            <Time>2021-09-26T09:34:16.000Z</Time>
            <Position>
              <LatitudeDegrees>40.445981584489345550537109375</LatitudeDegrees>
              <LongitudeDegrees>-3.72758078388869762420654296875</LongitudeDegrees>
            </Position>
            <AltitudeMeters>643.20001220703125</AltitudeMeters>
            <DistanceMeters>22612.927856922</DistanceMeters>
          </Trackpoint>
          <Trackpoint>
            <Time>2021-09-26T09:34:21.000Z</Time>
            <Position>
              <LatitudeDegrees>40.4460967518389225006103515625</LatitudeDegrees>
              <LongitudeDegrees>-3.72761246748268604278564453125</LongitudeDegrees>
            </Position>
            <AltitudeMeters>643.5999755859375</AltitudeMeters>
            <DistanceMeters>22626.023627683</DistanceMeters>
          </Trackpoint>
          <Trackpoint>
            <Time>2021-09-26T09:34:25.000Z</Time>
            <Position>
              <LatitudeDegrees>40.44619322754442691802978515625</LatitudeDegrees>
              <LongitudeDegrees>-3.72763727791607379913330078125</LongitudeDegrees>
            </Position>
            <AltitudeMeters>644.20001220703125</AltitudeMeters>
            <DistanceMeters>22636.964912956</DistanceMeters>
          </Trackpoint>
          <Trackpoint>
            <Time>2021-09-26T09:34:27.000Z</Time>
            <Position>
              <LatitudeDegrees>40.44624268077313899993896484375</LatitudeDegrees>
              <LongitudeDegrees>-3.72764297761023044586181640625</LongitudeDegrees>
            </Position>
            <AltitudeMeters>644.20001220703125</AltitudeMeters>
            <DistanceMeters>22642.491188242</DistanceMeters>
          </Trackpoint>
          <Trackpoint>
            <Time>2021-09-26T09:34:31.000Z</Time>
            <Position>
              <LatitudeDegrees>40.4463394917547702789306640625</LatitudeDegrees>
              <LongitudeDegrees>-3.72765965759754180908203125</LongitudeDegrees>
            </Position>
            <AltitudeMeters>644.5999755859375</AltitudeMeters>
            <DistanceMeters>22653.358771681</DistanceMeters>
          </Trackpoint>
          <Trackpoint>
            <Time>2021-09-26T09:34:33.000Z</Time>
            <Position>
              <LatitudeDegrees>40.44638760387897491455078125</LatitudeDegrees>
              <LongitudeDegrees>-3.72766233980655670166015625</LongitudeDegrees>
            </Position>
            <AltitudeMeters>644.5999755859375</AltitudeMeters>
            <DistanceMeters>22658.719154433</DistanceMeters>
          </Trackpoint>
          <Trackpoint>
            <Time>2021-09-26T09:34:36.000Z</Time>
            <Position>
              <LatitudeDegrees>40.44645038433372974395751953125</LatitudeDegrees>
              <LongitudeDegrees>-3.72766845859587192535400390625</LongitudeDegrees>
            </Position>
            <AltitudeMeters>644.4000244140625</AltitudeMeters>
            <DistanceMeters>22665.726045728</DistanceMeters>
          </Trackpoint>
          <Trackpoint>
            <Time>2021-09-26T09:34:39.000Z</Time>
            <Position>
              <LatitudeDegrees>40.4465170204639434814453125</LatitudeDegrees>
              <LongitudeDegrees>-3.72768622823059558868408203125</LongitudeDegrees>
            </Position>
            <AltitudeMeters>644.20001220703125</AltitudeMeters>
            <DistanceMeters>22673.294850453</DistanceMeters>
          </Trackpoint>
          <Trackpoint>
            <Time>2021-09-26T09:34:47.000Z</Time>
            <Position>
              <LatitudeDegrees>40.44669027440249919891357421875</LatitudeDegrees>
              <LongitudeDegrees>-3.7277473323047161102294921875</LongitudeDegrees>
            </Position>
            <AltitudeMeters>643.4000244140625</AltitudeMeters>
            <DistanceMeters>22693.260865446</DistanceMeters>
          </Trackpoint>
          <Trackpoint>
            <Time>2021-09-26T09:34:54.000Z</Time>
            <Position>
              <LatitudeDegrees>40.44687400572001934051513671875</LatitudeDegrees>
              <LongitudeDegrees>-3.727808184921741485595703125</LongitudeDegrees>
            </Position>
            <AltitudeMeters>642.20001220703125</AltitudeMeters>
            <DistanceMeters>22714.350160244</DistanceMeters>
          </Trackpoint>
          <Trackpoint>
            <Time>2021-09-26T09:34:56.000Z</Time>
            <Position>
              <LatitudeDegrees>40.44692865572869777679443359375</LatitudeDegrees>
              <LongitudeDegrees>-3.72782754711806774139404296875</LongitudeDegrees>
            </Position>
            <AltitudeMeters>641.79998779296875</AltitudeMeters>
            <DistanceMeters>22720.650653562</DistanceMeters>
          </Trackpoint>
          <Trackpoint>
            <Time>2021-09-26T09:35:05.000Z</Time>
            <Position>
              <LatitudeDegrees>40.4471233673393726348876953125</LatitudeDegrees>
              <LongitudeDegrees>-3.7278660200536251068115234375</LongitudeDegrees>
            </Position>
            <AltitudeMeters>641.79998779296875</AltitudeMeters>
            <DistanceMeters>22742.566212097</DistanceMeters>
          </Trackpoint>
          <Trackpoint>
            <Time>2021-09-26T09:35:11.000Z</Time>
            <Position>
              <LatitudeDegrees>40.44724465347826480865478515625</LatitudeDegrees>
              <LongitudeDegrees>-3.7278614938259124755859375</LongitudeDegrees>
            </Position>
            <AltitudeMeters>642</AltitudeMeters>
            <DistanceMeters>22756.07104286</DistanceMeters>
          </Trackpoint>
          <Trackpoint>
            <Time>2021-09-26T09:35:18.000Z</Time>
            <Position>
              <LatitudeDegrees>40.44740960933268070220947265625</LatitudeDegrees>
              <LongitudeDegrees>-3.72788320295512676239013671875</LongitudeDegrees>
            </Position>
            <AltitudeMeters>642</AltitudeMeters>
            <DistanceMeters>22774.522872098</DistanceMeters>
          </Trackpoint>
          <Trackpoint>
            <Time>2021-09-26T09:35:23.000Z</Time>
            <Position>
              <LatitudeDegrees>40.4475032351911067962646484375</LatitudeDegrees>
              <LongitudeDegrees>-3.72792947106063365936279296875</LongitudeDegrees>
            </Position>
            <AltitudeMeters>642</AltitudeMeters>
            <DistanceMeters>22785.656418674</DistanceMeters>
          </Trackpoint>
          <Trackpoint>
            <Time>2021-09-26T09:35:31.000Z</Time>
            <Position>
              <LatitudeDegrees>40.4476891458034515380859375</LatitudeDegrees>
              <LongitudeDegrees>-3.72795864008367061614990234375</LongitudeDegrees>
            </Position>
            <AltitudeMeters>642</AltitudeMeters>
            <DistanceMeters>22806.49545431</DistanceMeters>
          </Trackpoint>
          <Trackpoint>
            <Time>2021-09-26T09:35:40.000Z</Time>
            <Position>
              <LatitudeDegrees>40.44786809943616390228271484375</LatitudeDegrees>
              <LongitudeDegrees>-3.72801915742456912994384765625</LongitudeDegrees>
            </Position>
            <AltitudeMeters>642.20001220703125</AltitudeMeters>
            <DistanceMeters>22827.062098198</DistanceMeters>
          </Trackpoint>
          <Trackpoint>
            <Time>2021-09-26T09:35:42.000Z</Time>
            <Position>
              <LatitudeDegrees>40.447859801352024078369140625</LatitudeDegrees>
              <LongitudeDegrees>-3.7280452251434326171875</LongitudeDegrees>
            </Position>
            <AltitudeMeters>642.20001220703125</AltitudeMeters>
            <DistanceMeters>22829.454809728</DistanceMeters>
          </Trackpoint>
          <Trackpoint>
            <Time>2021-09-26T09:35:44.000Z</Time>
            <Position>
              <LatitudeDegrees>40.44782250188291072845458984375</LatitudeDegrees>
              <LongitudeDegrees>-3.72804195620119571685791015625</LongitudeDegrees>
            </Position>
            <AltitudeMeters>642.20001220703125</AltitudeMeters>
            <DistanceMeters>22833.615417441</DistanceMeters>
          </Trackpoint>
          <Trackpoint>
            <Time>2021-09-26T09:35:51.000Z</Time>
            <Position>
              <LatitudeDegrees>40.44765469618141651153564453125</LatitudeDegrees>
              <LongitudeDegrees>-3.72800163924694061279296875</LongitudeDegrees>
            </Position>
            <AltitudeMeters>642</AltitudeMeters>
            <DistanceMeters>22852.601983263</DistanceMeters>
          </Trackpoint>
          <Trackpoint>
            <Time>2021-09-26T09:35:52.000Z</Time>
            <Position>
              <LatitudeDegrees>40.44763323850929737091064453125</LatitudeDegrees>
              <LongitudeDegrees>-3.72800054959952831268310546875</LongitudeDegrees>
            </Position>
            <AltitudeMeters>642</AltitudeMeters>
            <DistanceMeters>22854.992807052</DistanceMeters>
          </Trackpoint>
          <Trackpoint>
            <Time>2021-09-26T09:35:57.000Z</Time>
            <Position>
              <LatitudeDegrees>40.44751505367457866668701171875</LatitudeDegrees>
              <LongitudeDegrees>-3.7279800139367580413818359375</LongitudeDegrees>
            </Position>
            <AltitudeMeters>642</AltitudeMeters>
            <DistanceMeters>22868.261885034</DistanceMeters>
          </Trackpoint>
          <Trackpoint>
            <Time>2021-09-26T09:36:02.000Z</Time>
            <Position>
              <LatitudeDegrees>40.4473925940692424774169921875</LatitudeDegrees>
              <LongitudeDegrees>-3.7279491685330867767333984375</LongitudeDegrees>
            </Position>
            <AltitudeMeters>642</AltitudeMeters>
            <DistanceMeters>22882.140015329</DistanceMeters>
          </Trackpoint>
          <Trackpoint>
            <Time>2021-09-26T09:36:04.000Z</Time>
            <Position>
              <LatitudeDegrees>40.44734188355505466461181640625</LatitudeDegrees>
              <LongitudeDegrees>-3.72793517075479030609130859375</LongitudeDegrees>
            </Position>
            <AltitudeMeters>642</AltitudeMeters>
            <DistanceMeters>22887.907753327</DistanceMeters>
          </Trackpoint>
          <Trackpoint>
            <Time>2021-09-26T09:36:10.000Z</Time>
            <Position>
              <LatitudeDegrees>40.447207354009151458740234375</LatitudeDegrees>
              <LongitudeDegrees>-3.72786912135779857635498046875</LongitudeDegrees>
            </Position>
            <AltitudeMeters>642</AltitudeMeters>
            <DistanceMeters>22903.892026314</DistanceMeters>
          </Trackpoint>
          <Trackpoint>
            <Time>2021-09-26T09:36:16.000Z</Time>
            <Position>
              <LatitudeDegrees>40.4470630176365375518798828125</LatitudeDegrees>
              <LongitudeDegrees>-3.72784674167633056640625</LongitudeDegrees>
            </Position>
            <AltitudeMeters>641.5999755859375</AltitudeMeters>
            <DistanceMeters>22920.068353313</DistanceMeters>
          </Trackpoint>
          <Trackpoint>
            <Time>2021-09-26T09:36:22.000Z</Time>
            <Position>
              <LatitudeDegrees>40.446914993226528167724609375</LatitudeDegrees>
              <LongitudeDegrees>-3.72782687656581401824951171875</LongitudeDegrees>
            </Position>
            <AltitudeMeters>641.79998779296875</AltitudeMeters>
            <DistanceMeters>22936.629195132</DistanceMeters>
          </Trackpoint>
          <Trackpoint>
            <Time>2021-09-26T09:36:30.000Z</Time>
            <Position>
              <LatitudeDegrees>40.446727909147739410400390625</LatitudeDegrees>
              <LongitudeDegrees>-3.72779167257249355316162109375</LongitudeDegrees>
            </Position>
            <AltitudeMeters>642.79998779296875</AltitudeMeters>
            <DistanceMeters>22957.664684333</DistanceMeters>
          </Trackpoint>
          <Trackpoint>
            <Time>2021-09-26T09:36:38.000Z</Time>
            <Position>
              <LatitudeDegrees>40.446541495621204376220703125</LatitudeDegrees>
              <LongitudeDegrees>-3.72776686213910579681396484375</LongitudeDegrees>
            </Position>
            <AltitudeMeters>643.5999755859375</AltitudeMeters>
            <DistanceMeters>22978.519097336</DistanceMeters>
          </Trackpoint>
          <Trackpoint>
            <Time>2021-09-26T09:36:40.000Z</Time>
            <Position>
              <LatitudeDegrees>40.44649397023022174835205078125</LatitudeDegrees>
              <LongitudeDegrees>-3.72774590738117694854736328125</LongitudeDegrees>
            </Position>
            <AltitudeMeters>644</AltitudeMeters>
            <DistanceMeters>22984.098225718</DistanceMeters>
          </Trackpoint>
          <Trackpoint>
            <Time>2021-09-26T09:36:47.000Z</Time>
            <Position>
              <LatitudeDegrees>40.44633018784224987030029296875</LatitudeDegrees>
              <LongitudeDegrees>-3.72773115523159503936767578125</LongitudeDegrees>
            </Position>
            <AltitudeMeters>644.79998779296875</AltitudeMeters>
            <DistanceMeters>23002.370555795</DistanceMeters>
          </Trackpoint>
          <Trackpoint>
            <Time>2021-09-26T09:36:56.000Z</Time>
            <Position>
              <LatitudeDegrees>40.446138493716716766357421875</LatitudeDegrees>
              <LongitudeDegrees>-3.7276893295347690582275390625</LongitudeDegrees>
            </Position>
            <AltitudeMeters>644.4000244140625</AltitudeMeters>
            <DistanceMeters>23023.998686087</DistanceMeters>
          </Trackpoint>
          <Trackpoint>
            <Time>2021-09-26T09:37:03.000Z</Time>
            <Position>
              <LatitudeDegrees>40.4459904693067073822021484375</LatitudeDegrees>
              <LongitudeDegrees>-3.7276568077504634857177734375</LongitudeDegrees>
            </Position>
            <AltitudeMeters>643.79998779296875</AltitudeMeters>
            <DistanceMeters>23040.702858084</DistanceMeters>
          </Trackpoint>
          <Trackpoint>
            <Time>2021-09-26T09:37:06.000Z</Time>
            <Position>
              <LatitudeDegrees>40.44592232443392276763916015625</LatitudeDegrees>
              <LongitudeDegrees>-3.7276393733918666839599609375</LongitudeDegrees>
            </Position>
            <AltitudeMeters>643.4000244140625</AltitudeMeters>
            <DistanceMeters>23048.430464151</DistanceMeters>
          </Trackpoint>
          <Trackpoint>
            <Time>2021-09-26T09:37:09.000Z</Time>
            <Position>
              <LatitudeDegrees>40.44586231000721454620361328125</LatitudeDegrees>
              <LongitudeDegrees>-3.7276413850486278533935546875</LongitudeDegrees>
            </Position>
            <AltitudeMeters>643.4000244140625</AltitudeMeters>
            <DistanceMeters>23055.11213295</DistanceMeters>
          </Trackpoint>
          <Trackpoint>
            <Time>2021-09-26T09:37:14.000Z</Time>
            <Position>
              <LatitudeDegrees>40.44575451873242855072021484375</LatitudeDegrees>
              <LongitudeDegrees>-3.7276132218539714813232421875</LongitudeDegrees>
            </Position>
            <AltitudeMeters>642.79998779296875</AltitudeMeters>
            <DistanceMeters>23067.344400388</DistanceMeters>
          </Trackpoint>
          <Trackpoint>
            <Time>2021-09-26T09:37:21.000Z</Time>
            <Position>
              <LatitudeDegrees>40.44557380490005016326904296875</LatitudeDegrees>
              <LongitudeDegrees>-3.72758128680288791656494140625</LongitudeDegrees>
            </Position>
            <AltitudeMeters>642.5999755859375</AltitudeMeters>
            <DistanceMeters>23087.63922354</DistanceMeters>
          </Trackpoint>
          <Trackpoint>
            <Time>2021-09-26T09:37:26.000Z</Time>
            <Position>
              <LatitudeDegrees>40.445439778268337249755859375</LatitudeDegrees>
              <LongitudeDegrees>-3.7275837175548076629638671875</LongitudeDegrees>
            </Position>
            <AltitudeMeters>643</AltitudeMeters>
            <DistanceMeters>23102.55811506</DistanceMeters>
          </Trackpoint>
          <Trackpoint>
            <Time>2021-09-26T09:37:34.000Z</Time>
            <Position>
              <LatitudeDegrees>40.44524632394313812255859375</LatitudeDegrees>
              <LongitudeDegrees>-3.72757743112742900848388671875</LongitudeDegrees>
            </Position>
            <AltitudeMeters>642.5999755859375</AltitudeMeters>
            <DistanceMeters>23124.096292492</DistanceMeters>
          </Trackpoint>
          <Trackpoint>
            <Time>2021-09-26T09:37:42.000Z</Time>
            <Position>
              <LatitudeDegrees>40.4450453259050846099853515625</LatitudeDegrees>
              <LongitudeDegrees>-3.7275361083447933197021484375</LongitudeDegrees>
            </Position>
            <AltitudeMeters>642.20001220703125</AltitudeMeters>
            <DistanceMeters>23146.739784725</DistanceMeters>
          </Trackpoint>
          <Trackpoint>
            <Time>2021-09-26T09:37:49.000Z</Time>
            <Position>
              <LatitudeDegrees>40.44486620463430881500244140625</LatitudeDegrees>
              <LongitudeDegrees>-3.72751875780522823333740234375</LongitudeDegrees>
            </Position>
            <AltitudeMeters>641.79998779296875</AltitudeMeters>
            <DistanceMeters>23166.730207505</DistanceMeters>
          </Trackpoint>
          <Trackpoint>
            <Time>2021-09-26T09:37:56.000Z</Time>
            <Position>
              <LatitudeDegrees>40.44470828957855701446533203125</LatitudeDegrees>
              <LongitudeDegrees>-3.7274965457618236541748046875</LongitudeDegrees>
            </Position>
            <AltitudeMeters>641.79998779296875</AltitudeMeters>
            <DistanceMeters>23184.406709001</DistanceMeters>
          </Trackpoint>
          <Trackpoint>
            <Time>2021-09-26T09:37:59.000Z</Time>
            <Position>
              <LatitudeDegrees>40.44465087354183197021484375</LatitudeDegrees>
              <LongitudeDegrees>-3.7274941988289356231689453125</LongitudeDegrees>
            </Position>
            <AltitudeMeters>641.79998779296875</AltitudeMeters>
            <DistanceMeters>23190.800389948</DistanceMeters>
          </Trackpoint>
          <Trackpoint>
            <Time>2021-09-26T09:38:02.000Z</Time>
            <Position>
              <LatitudeDegrees>40.4445724189281463623046875</LatitudeDegrees>
              <LongitudeDegrees>-3.72747014276683330535888671875</LongitudeDegrees>
            </Position>
            <AltitudeMeters>641.79998779296875</AltitudeMeters>
            <DistanceMeters>23199.767206588</DistanceMeters>
          </Trackpoint>
          <Trackpoint>
            <Time>2021-09-26T09:38:09.000Z</Time>
            <Position>
              <LatitudeDegrees>40.444426238536834716796875</LatitudeDegrees>
              <LongitudeDegrees>-3.72742018662393093109130859375</LongitudeDegrees>
            </Position>
            <AltitudeMeters>642</AltitudeMeters>
            <DistanceMeters>23216.578342852</DistanceMeters>
          </Trackpoint>
          <Trackpoint>
            <Time>2021-09-26T09:38:15.000Z</Time>
            <Position>
              <LatitudeDegrees>40.44430310837924480438232421875</LatitudeDegrees>
              <LongitudeDegrees>-3.72735748998820781707763671875</LongitudeDegrees>
            </Position>
            <AltitudeMeters>642.20001220703125</AltitudeMeters>
            <DistanceMeters>23231.275876274</DistanceMeters>
          </Trackpoint>
          <Trackpoint>
            <Time>2021-09-26T09:38:24.000Z</Time>
            <Position>
              <LatitudeDegrees>40.44409967958927154541015625</LatitudeDegrees>
              <LongitudeDegrees>-3.727315329015254974365234375</LongitudeDegrees>
            </Position>
            <AltitudeMeters>641.79998779296875</AltitudeMeters>
            <DistanceMeters>23254.19800593</DistanceMeters>
          </Trackpoint>
          <Trackpoint>
            <Time>2021-09-26T09:38:25.000Z</Time>
            <Position>
              <LatitudeDegrees>40.4440743662416934967041015625</LatitudeDegrees>
              <LongitudeDegrees>-3.72731373645365238189697265625</LongitudeDegrees>
            </Position>
            <AltitudeMeters>641.5999755859375</AltitudeMeters>
            <DistanceMeters>23257.016953831</DistanceMeters>
          </Trackpoint>
          <Trackpoint>
            <Time>2021-09-26T09:38:29.000Z</Time>
            <Position>
              <LatitudeDegrees>40.44398040510714054107666015625</LatitudeDegrees>
              <LongitudeDegrees>-3.7273034267127513885498046875</LongitudeDegrees>
            </Position>
            <AltitudeMeters>641</AltitudeMeters>
            <DistanceMeters>23267.51170692</DistanceMeters>
          </Trackpoint>
          <Trackpoint>
            <Time>2021-09-26T09:38:32.000Z</Time>
            <Position>
              <LatitudeDegrees>40.44391184113919734954833984375</LatitudeDegrees>
              <LongitudeDegrees>-3.72729487717151641845703125</LongitudeDegrees>
            </Position>
            <AltitudeMeters>640.5999755859375</AltitudeMeters>
            <DistanceMeters>23275.177129767</DistanceMeters>
          </Trackpoint>
          <Trackpoint>
            <Time>2021-09-26T09:38:34.000Z</Time>
            <Position>
              <LatitudeDegrees>40.44386272318661212921142578125</LatitudeDegrees>
              <LongitudeDegrees>-3.72731004841625690460205078125</LongitudeDegrees>
            </Position>
            <AltitudeMeters>640.20001220703125</AltitudeMeters>
            <DistanceMeters>23280.793361334</DistanceMeters>
          </Trackpoint>
          <Trackpoint>
            <Time>2021-09-26T09:38:40.000Z</Time>
            <Position>
              <LatitudeDegrees>40.44370405375957489013671875</LatitudeDegrees>
              <LongitudeDegrees>-3.7272645346820354461669921875</LongitudeDegrees>
            </Position>
            <AltitudeMeters>639.79998779296875</AltitudeMeters>
            <DistanceMeters>23298.869430764</DistanceMeters>
          </Trackpoint>
          <Trackpoint>
            <Time>2021-09-26T09:38:47.000Z</Time>
            <Position>
              <LatitudeDegrees>40.4435305483639240264892578125</LatitudeDegrees>
              <LongitudeDegrees>-3.7272392213344573974609375</LongitudeDegrees>
            </Position>
            <AltitudeMeters>639.5999755859375</AltitudeMeters>
            <DistanceMeters>23318.29954749</DistanceMeters>
          </Trackpoint>
          <Trackpoint>
            <Time>2021-09-26T09:38:52.000Z</Time>
            <Position>
              <LatitudeDegrees>40.44340859167277812957763671875</LatitudeDegrees>
              <LongitudeDegrees>-3.72723729349672794342041015625</LongitudeDegrees>
            </Position>
            <AltitudeMeters>639.4000244140625</AltitudeMeters>
            <DistanceMeters>23331.874738099</DistanceMeters>
          </Trackpoint>
          <Trackpoint>
            <Time>2021-09-26T09:38:54.000Z</Time>
            <Position>
              <LatitudeDegrees>40.44336534105241298675537109375</LatitudeDegrees>
              <LongitudeDegrees>-3.72722136788070201873779296875</LongitudeDegrees>
            </Position>
            <AltitudeMeters>639.5999755859375</AltitudeMeters>
            <DistanceMeters>23336.874263236</DistanceMeters>
          </Trackpoint>
          <Trackpoint>
            <Time>2021-09-26T09:39:01.000Z</Time>
            <Position>
              <LatitudeDegrees>40.4431875608861446380615234375</LatitudeDegrees>
              <LongitudeDegrees>-3.727199994027614593505859375</LongitudeDegrees>
            </Position>
            <AltitudeMeters>639.79998779296875</AltitudeMeters>
            <DistanceMeters>23356.744165155</DistanceMeters>
          </Trackpoint>
          <Trackpoint>
            <Time>2021-09-26T09:39:08.000Z</Time>
            <Position>
              <LatitudeDegrees>40.44303392060101032257080078125</LatitudeDegrees>
              <LongitudeDegrees>-3.7271545641124248504638671875</LongitudeDegrees>
            </Position>
            <AltitudeMeters>640</AltitudeMeters>
            <DistanceMeters>23374.272151088</DistanceMeters>
          </Trackpoint>
          <Trackpoint>
            <Time>2021-09-26T09:39:15.000Z</Time>
            <Position>
              <LatitudeDegrees>40.4428799450397491455078125</LatitudeDegrees>
              <LongitudeDegrees>-3.72712187469005584716796875</LongitudeDegrees>
            </Position>
            <AltitudeMeters>640.20001220703125</AltitudeMeters>
            <DistanceMeters>23391.63215602</DistanceMeters>
          </Trackpoint>
          <Trackpoint>
            <Time>2021-09-26T09:39:23.000Z</Time>
            <Position>
              <LatitudeDegrees>40.4427136480808258056640625</LatitudeDegrees>
              <LongitudeDegrees>-3.727073259651660919189453125</LongitudeDegrees>
            </Position>
            <AltitudeMeters>641</AltitudeMeters>
            <DistanceMeters>23410.59373622</DistanceMeters>
          </Trackpoint>
          <Trackpoint>
            <Time>2021-09-26T09:39:30.000Z</Time>
            <Position>
              <LatitudeDegrees>40.44252983294427394866943359375</LatitudeDegrees>
              <LongitudeDegrees>-3.7270241416990756988525390625</LongitudeDegrees>
            </Position>
            <AltitudeMeters>642.20001220703125</AltitudeMeters>
            <DistanceMeters>23431.471518429</DistanceMeters>
          </Trackpoint>
          <Trackpoint>
            <Time>2021-09-26T09:39:33.000Z</Time>
            <Position>
              <LatitudeDegrees>40.44244400225579738616943359375</LatitudeDegrees>
              <LongitudeDegrees>-3.72700762934982776641845703125</LongitudeDegrees>
            </Position>
            <AltitudeMeters>642.79998779296875</AltitudeMeters>
            <DistanceMeters>23441.126438373</DistanceMeters>
          </Trackpoint>
          <Trackpoint>
            <Time>2021-09-26T09:39:41.000Z</Time>
            <Position>
              <LatitudeDegrees>40.4422575049102306365966796875</LatitudeDegrees>
              <LongitudeDegrees>-3.72698416002094745635986328125</LongitudeDegrees>
            </Position>
            <AltitudeMeters>644</AltitudeMeters>
            <DistanceMeters>23461.979119282</DistanceMeters>
          </Trackpoint>
          <Trackpoint>
            <Time>2021-09-26T09:39:48.000Z</Time>
            <Position>
              <LatitudeDegrees>40.44209430925548076629638671875</LatitudeDegrees>
              <LongitudeDegrees>-3.726955242455005645751953125</LongitudeDegrees>
            </Position>
            <AltitudeMeters>644.5999755859375</AltitudeMeters>
            <DistanceMeters>23480.307208209</DistanceMeters>
          </Trackpoint>
          <Trackpoint>
            <Time>2021-09-26T09:39:55.000Z</Time>
            <Position>
              <LatitudeDegrees>40.4419420100748538970947265625</LatitudeDegrees>
              <LongitudeDegrees>-3.72691391967236995697021484375</LongitudeDegrees>
            </Position>
            <AltitudeMeters>645.4000244140625</AltitudeMeters>
            <DistanceMeters>23497.616161853</DistanceMeters>
          </Trackpoint>
          <Trackpoint>
            <Time>2021-09-26T09:40:02.000Z</Time>
            <Position>
              <LatitudeDegrees>40.441776216030120849609375</LatitudeDegrees>
              <LongitudeDegrees>-3.72688114643096923828125</LongitudeDegrees>
            </Position>
            <AltitudeMeters>646.20001220703125</AltitudeMeters>
            <DistanceMeters>23516.277240814</DistanceMeters>
          </Trackpoint>
          <Trackpoint>
            <Time>2021-09-26T09:40:03.000Z</Time>
            <Position>
              <LatitudeDegrees>40.4417532496154308319091796875</LatitudeDegrees>
              <LongitudeDegrees>-3.7268766202032566070556640625</LongitudeDegrees>
            </Position>
            <AltitudeMeters>646.4000244140625</AltitudeMeters>
            <DistanceMeters>23518.86224692</DistanceMeters>
          </Trackpoint>
          <Trackpoint>
            <Time>2021-09-26T09:40:09.000Z</Time>
            <Position>
              <LatitudeDegrees>40.44161553494632244110107421875</LatitudeDegrees>
              <LongitudeDegrees>-3.7268467806279659271240234375</LongitudeDegrees>
            </Position>
            <AltitudeMeters>647</AltitudeMeters>
            <DistanceMeters>23534.397298353</DistanceMeters>
          </Trackpoint>
          <Trackpoint>
            <Time>2021-09-26T09:40:11.000Z</Time>
            <Position>
              <LatitudeDegrees>40.44157127849757671356201171875</LatitudeDegrees>
              <LongitudeDegrees>-3.7268476188182830810546875</LongitudeDegrees>
            </Position>
            <AltitudeMeters>647.20001220703125</AltitudeMeters>
            <DistanceMeters>23539.324046315</DistanceMeters>
          </Trackpoint>
          <Trackpoint>
            <Time>2021-09-26T09:40:14.000Z</Time>
            <Position>
              <LatitudeDegrees>40.44149458408355712890625</LatitudeDegrees>
              <LongitudeDegrees>-3.7268347106873989105224609375</LongitudeDegrees>
            </Position>
            <AltitudeMeters>647.5999755859375</AltitudeMeters>
            <DistanceMeters>23547.930655234</DistanceMeters>
          </Trackpoint>
          <Trackpoint>
            <Time>2021-09-26T09:40:22.000Z</Time>
            <Position>
              <LatitudeDegrees>40.44129903428256511688232421875</LatitudeDegrees>
              <LongitudeDegrees>-3.72683328576385974884033203125</LongitudeDegrees>
            </Position>
            <AltitudeMeters>648</AltitudeMeters>
            <DistanceMeters>23569.696129508</DistanceMeters>
          </Trackpoint>
          <Trackpoint>
            <Time>2021-09-26T09:40:30.000Z</Time>
            <Position>
              <LatitudeDegrees>40.4411095194518566131591796875</LatitudeDegrees>
              <LongitudeDegrees>-3.72680931352078914642333984375</LongitudeDegrees>
            </Position>
            <AltitudeMeters>647.20001220703125</AltitudeMeters>
            <DistanceMeters>23590.886873747</DistanceMeters>
          </Trackpoint>
          <Trackpoint>
            <Time>2021-09-26T09:40:36.000Z</Time>
            <Position>
              <LatitudeDegrees>40.44104271568357944488525390625</LatitudeDegrees>
              <LongitudeDegrees>-3.72680612839758396148681640625</LongitudeDegrees>
            </Position>
            <AltitudeMeters>647</AltitudeMeters>
            <DistanceMeters>23598.326925401</DistanceMeters>
          </Trackpoint>
          <Trackpoint>
            <Time>2021-09-26T09:40:37.000Z</Time>
            <Position>
              <LatitudeDegrees>40.44104489497840404510498046875</LatitudeDegrees>
              <LongitudeDegrees>-3.7268068827688694000244140625</LongitudeDegrees>
            </Position>
            <AltitudeMeters>647</AltitudeMeters>
            <DistanceMeters>23598.578342455</DistanceMeters>
          </Trackpoint>
          <Trackpoint>
            <Time>2021-09-26T09:40:42.000Z</Time>
            <Position>
              <LatitudeDegrees>40.44097616337239742279052734375</LatitudeDegrees>
              <LongitudeDegrees>-3.72678458690643310546875</LongitudeDegrees>
            </Position>
            <AltitudeMeters>646.79998779296875</AltitudeMeters>
            <DistanceMeters>23606.458114382</DistanceMeters>
          </Trackpoint>
          <Trackpoint>
            <Time>2021-09-26T09:40:44.000Z</Time>
            <Position>
              <LatitudeDegrees>40.4409375227987766265869140625</LatitudeDegrees>
              <LongitudeDegrees>-3.726779557764530181884765625</LongitudeDegrees>
            </Position>
            <AltitudeMeters>646.5999755859375</AltitudeMeters>
            <DistanceMeters>23610.779479686</DistanceMeters>
          </Trackpoint>
          <Trackpoint>
            <Time>2021-09-26T09:40:48.000Z</Time>
            <Position>
              <LatitudeDegrees>40.44084104709327220916748046875</LatitudeDegrees>
              <LongitudeDegrees>-3.72675064019858837127685546875</LongitudeDegrees>
            </Position>
            <AltitudeMeters>646.20001220703125</AltitudeMeters>
            <DistanceMeters>23621.792743816</DistanceMeters>
          </Trackpoint>
          <Trackpoint>
            <Time>2021-09-26T09:40:50.000Z</Time>
            <Position>
              <LatitudeDegrees>40.4407905042171478271484375</LatitudeDegrees>
              <LongitudeDegrees>-3.726737983524799346923828125</LongitudeDegrees>
            </Position>
            <AltitudeMeters>646</AltitudeMeters>
            <DistanceMeters>23627.519631072</DistanceMeters>
          </Trackpoint>
          <Trackpoint>
            <Time>2021-09-26T09:40:51.000Z</Time>
            <Position>
              <LatitudeDegrees>40.44076502323150634765625</LatitudeDegrees>
              <LongitudeDegrees>-3.72673136182129383087158203125</LongitudeDegrees>
            </Position>
            <AltitudeMeters>646</AltitudeMeters>
            <DistanceMeters>23630.411317567</DistanceMeters>
          </Trackpoint>
          <Trackpoint>
            <Time>2021-09-26T09:40:53.000Z</Time>
            <Position>
              <LatitudeDegrees>40.4407269693911075592041015625</LatitudeDegrees>
              <LongitudeDegrees>-3.7267237342894077301025390625</LongitudeDegrees>
            </Position>
            <AltitudeMeters>645.79998779296875</AltitudeMeters>
            <DistanceMeters>23634.695958207</DistanceMeters>
          </Trackpoint>
          <Trackpoint>
            <Time>2021-09-26T09:41:36.000Z</Time>
            <Position>
              <LatitudeDegrees>40.43986321426928043365478515625</LatitudeDegrees>
              <LongitudeDegrees>-3.726949207484722137451171875</LongitudeDegrees>
            </Position>
            <AltitudeMeters>639.4000244140625</AltitudeMeters>
            <DistanceMeters>23732.712593888</DistanceMeters>
          </Trackpoint>
          <Trackpoint>
            <Time>2021-09-26T09:41:37.000Z</Time>
            <Position>
              <LatitudeDegrees>40.43986321426928043365478515625</LatitudeDegrees>
              <LongitudeDegrees>-3.726949207484722137451171875</LongitudeDegrees>
            </Position>
            <AltitudeMeters>639.4000244140625</AltitudeMeters>
            <DistanceMeters>23732.807620602</DistanceMeters>
          </Trackpoint>
          <Trackpoint>
            <Time>2021-09-26T09:41:38.000Z</Time>
            <Position>
              <LatitudeDegrees>40.4398277588188648223876953125</LatitudeDegrees>
              <LongitudeDegrees>-3.72701416723430156707763671875</LongitudeDegrees>
            </Position>
            <AltitudeMeters>639</AltitudeMeters>
            <DistanceMeters>23739.579232536</DistanceMeters>
          </Trackpoint>
          <Trackpoint>
            <Time>2021-09-26T09:41:39.000Z</Time>
            <Position>
              <LatitudeDegrees>40.4398086480796337127685546875</LatitudeDegrees>
              <LongitudeDegrees>-3.72703696601092815399169921875</LongitudeDegrees>
            </Position>
            <AltitudeMeters>639</AltitudeMeters>
            <DistanceMeters>23742.452121303</DistanceMeters>
          </Trackpoint>
          <Trackpoint>
            <Time>2021-09-26T09:41:42.000Z</Time>
            <Position>
              <LatitudeDegrees>40.43976531364023685455322265625</LatitudeDegrees>
              <LongitudeDegrees>-3.727094717323780059814453125</LongitudeDegrees>
            </Position>
            <AltitudeMeters>639</AltitudeMeters>
            <DistanceMeters>23749.321704951</DistanceMeters>
          </Trackpoint>
          <Trackpoint>
            <Time>2021-09-26T09:41:50.000Z</Time>
            <Position>
              <LatitudeDegrees>40.4396701790392398834228515625</LatitudeDegrees>
              <LongitudeDegrees>-3.7273014150559902191162109375</LongitudeDegrees>
            </Position>
            <AltitudeMeters>639</AltitudeMeters>
            <DistanceMeters>23769.784026045</DistanceMeters>
          </Trackpoint>
          <Trackpoint>
            <Time>2021-09-26T09:41:52.000Z</Time>
            <Position>
              <LatitudeDegrees>40.43965333141386508941650390625</LatitudeDegrees>
              <LongitudeDegrees>-3.727360256016254425048828125</LongitudeDegrees>
            </Position>
            <AltitudeMeters>639</AltitudeMeters>
            <DistanceMeters>23775.10891478</DistanceMeters>
          </Trackpoint>
          <Trackpoint>
            <Time>2021-09-26T09:42:00.000Z</Time>
            <Position>
              <LatitudeDegrees>40.4395907185971736907958984375</LatitudeDegrees>
              <LongitudeDegrees>-3.727589584887027740478515625</LongitudeDegrees>
            </Position>
            <AltitudeMeters>638.20001220703125</AltitudeMeters>
            <DistanceMeters>23795.747439578</DistanceMeters>
          </Trackpoint>
          <Trackpoint>
            <Time>2021-09-26T09:42:02.000Z</Time>
            <Position>
              <LatitudeDegrees>40.439573787152767181396484375</LatitudeDegrees>
              <LongitudeDegrees>-3.72765370644629001617431640625</LongitudeDegrees>
            </Position>
            <AltitudeMeters>637.79998779296875</AltitudeMeters>
            <DistanceMeters>23801.497929987</DistanceMeters>
          </Trackpoint>
          <Trackpoint>
            <Time>2021-09-26T09:42:10.000Z</Time>
            <Position>
              <LatitudeDegrees>40.4394923150539398193359375</LatitudeDegrees>
              <LongitudeDegrees>-3.72789644636213779449462890625</LongitudeDegrees>
            </Position>
            <AltitudeMeters>636</AltitudeMeters>
            <DistanceMeters>23823.971496806</DistanceMeters>
          </Trackpoint>
          <Trackpoint>
            <Time>2021-09-26T09:42:16.000Z</Time>
            <Position>
              <LatitudeDegrees>40.43943422846496105194091796875</LatitudeDegrees>
              <LongitudeDegrees>-3.7280567921698093414306640625</LongitudeDegrees>
            </Position>
            <AltitudeMeters>634.5999755859375</AltitudeMeters>
            <DistanceMeters>23839.014558851</DistanceMeters>
          </Trackpoint>
          <Trackpoint>
            <Time>2021-09-26T09:42:21.000Z</Time>
            <Position>
              <LatitudeDegrees>40.43938728980720043182373046875</LatitudeDegrees>
              <LongitudeDegrees>-3.72820808552205562591552734375</LongitudeDegrees>
            </Position>
            <AltitudeMeters>633.4000244140625</AltitudeMeters>
            <DistanceMeters>23852.854898862</DistanceMeters>
          </Trackpoint>
          <Trackpoint>
            <Time>2021-09-26T09:42:24.000Z</Time>
            <Position>
              <LatitudeDegrees>40.4393704421818256378173828125</LatitudeDegrees>
              <LongitudeDegrees>-3.72829156927764415740966796875</LongitudeDegrees>
            </Position>
            <AltitudeMeters>633.20001220703125</AltitudeMeters>
            <DistanceMeters>23860.170721651</DistanceMeters>
          </Trackpoint>
          <Trackpoint>
            <Time>2021-09-26T09:42:33.000Z</Time>
            <Position>
              <LatitudeDegrees>40.43929995037615299224853515625</LatitudeDegrees>
              <LongitudeDegrees>-3.72852844186127185821533203125</LongitudeDegrees>
            </Position>
            <AltitudeMeters>632.20001220703125</AltitudeMeters>
            <DistanceMeters>23881.715606184</DistanceMeters>
          </Trackpoint>
          <Trackpoint>
            <Time>2021-09-26T09:42:39.000Z</Time>
            <Position>
              <LatitudeDegrees>40.4392587952315807342529296875</LatitudeDegrees>
              <LongitudeDegrees>-3.7287095747888088226318359375</LongitudeDegrees>
            </Position>
            <AltitudeMeters>631.5999755859375</AltitudeMeters>
            <DistanceMeters>23897.728664939</DistanceMeters>
          </Trackpoint>
          <Trackpoint>
            <Time>2021-09-26T09:42:47.000Z</Time>
            <Position>
              <LatitudeDegrees>40.439201630651950836181640625</LatitudeDegrees>
              <LongitudeDegrees>-3.72895424254238605499267578125</LongitudeDegrees>
            </Position>
            <AltitudeMeters>630.5999755859375</AltitudeMeters>
            <DistanceMeters>23919.409754842</DistanceMeters>
          </Trackpoint>
          <Trackpoint>
            <Time>2021-09-26T09:42:54.000Z</Time>
            <Position>
              <LatitudeDegrees>40.43913918547332286834716796875</LatitudeDegrees>
              <LongitudeDegrees>-3.72917854227125644683837890625</LongitudeDegrees>
            </Position>
            <AltitudeMeters>630.79998779296875</AltitudeMeters>
            <DistanceMeters>23939.641966665</DistanceMeters>
          </Trackpoint>
          <Trackpoint>
            <Time>2021-09-26T09:42:57.000Z</Time>
            <Position>
              <LatitudeDegrees>40.43911336921155452728271484375</LatitudeDegrees>
              <LongitudeDegrees>-3.729270659387111663818359375</LongitudeDegrees>
            </Position>
            <AltitudeMeters>630.79998779296875</AltitudeMeters>
            <DistanceMeters>23947.957754386</DistanceMeters>
          </Trackpoint>
          <Trackpoint>
            <Time>2021-09-26T09:43:05.000Z</Time>
            <Position>
              <LatitudeDegrees>40.43904849328100681304931640625</LatitudeDegrees>
              <LongitudeDegrees>-3.7295222841203212738037109375</LongitudeDegrees>
            </Position>
            <AltitudeMeters>630.20001220703125</AltitudeMeters>
            <DistanceMeters>23970.463242333</DistanceMeters>
          </Trackpoint>
          <Trackpoint>
            <Time>2021-09-26T09:43:06.000Z</Time>
            <Position>
              <LatitudeDegrees>40.4390415363013744354248046875</LatitudeDegrees>
              <LongitudeDegrees>-3.72955338098108768463134765625</LongitudeDegrees>
            </Position>
            <AltitudeMeters>630.20001220703125</AltitudeMeters>
            <DistanceMeters>23973.210812879</DistanceMeters>
          </Trackpoint>
          <Trackpoint>
            <Time>2021-09-26T09:43:14.000Z</Time>
            <Position>
              <LatitudeDegrees>40.438987053930759429931640625</LatitudeDegrees>
              <LongitudeDegrees>-3.7297992222011089324951171875</LongitudeDegrees>
            </Position>
            <AltitudeMeters>629.4000244140625</AltitudeMeters>
            <DistanceMeters>23994.901480063</DistanceMeters>
          </Trackpoint>
          <Trackpoint>
            <Time>2021-09-26T09:43:17.000Z</Time>
            <Position>
              <LatitudeDegrees>40.4389563761651515960693359375</LatitudeDegrees>
              <LongitudeDegrees>-3.72990190051496028900146484375</LongitudeDegrees>
            </Position>
            <AltitudeMeters>629.4000244140625</AltitudeMeters>
            <DistanceMeters>24004.245558891</DistanceMeters>
          </Trackpoint>
          <Trackpoint>
            <Time>2021-09-26T09:43:27.000Z</Time>
            <Position>
              <LatitudeDegrees>40.43891857378184795379638671875</LatitudeDegrees>
              <LongitudeDegrees>-3.73009954579174518585205078125</LongitudeDegrees>
            </Position>
            <AltitudeMeters>629</AltitudeMeters>
            <DistanceMeters>24021.508803455</DistanceMeters>
          </Trackpoint>
          <Trackpoint>
            <Time>2021-09-26T09:43:35.000Z</Time>
            <Position>
              <LatitudeDegrees>40.4389054141938686370849609375</LatitudeDegrees>
              <LongitudeDegrees>-3.7302218377590179443359375</LongitudeDegrees>
            </Position>
            <AltitudeMeters>628.5999755859375</AltitudeMeters>
            <DistanceMeters>24031.971240391</DistanceMeters>
          </Trackpoint>
          <Trackpoint>
            <Time>2021-09-26T09:43:44.000Z</Time>
            <Position>
              <LatitudeDegrees>40.4388400353491306304931640625</LatitudeDegrees>
              <LongitudeDegrees>-3.73040498234331607818603515625</LongitudeDegrees>
            </Position>
            <AltitudeMeters>627.20001220703125</AltitudeMeters>
            <DistanceMeters>24049.107695274</DistanceMeters>
          </Trackpoint>
          <Trackpoint>
            <Time>2021-09-26T09:43:52.000Z</Time>
            <Position>
              <LatitudeDegrees>40.4387748241424560546875</LatitudeDegrees>
              <LongitudeDegrees>-3.73065761290490627288818359375</LongitudeDegrees>
            </Position>
            <AltitudeMeters>624.79998779296875</AltitudeMeters>
            <DistanceMeters>24071.706078916</DistanceMeters>
          </Trackpoint>
          <Trackpoint>
            <Time>2021-09-26T09:43:53.000Z</Time>
            <Position>
              <LatitudeDegrees>40.43876342475414276123046875</LatitudeDegrees>
              <LongitudeDegrees>-3.73068661428987979888916015625</LongitudeDegrees>
            </Position>
            <AltitudeMeters>624.5999755859375</AltitudeMeters>
            <DistanceMeters>24074.470033451</DistanceMeters>
          </Trackpoint>
          <Trackpoint>
            <Time>2021-09-26T09:44:01.000Z</Time>
            <Position>
              <LatitudeDegrees>40.438699387013912200927734375</LatitudeDegrees>
              <LongitudeDegrees>-3.73092231340706348419189453125</LongitudeDegrees>
            </Position>
            <AltitudeMeters>622.79998779296875</AltitudeMeters>
            <DistanceMeters>24095.670576485</DistanceMeters>
          </Trackpoint>
          <Trackpoint>
            <Time>2021-09-26T09:44:02.000Z</Time>
            <Position>
              <LatitudeDegrees>40.43868857435882091522216796875</LatitudeDegrees>
              <LongitudeDegrees>-3.730957098305225372314453125</LongitudeDegrees>
            </Position>
            <AltitudeMeters>622.5999755859375</AltitudeMeters>
            <DistanceMeters>24098.853616819</DistanceMeters>
          </Trackpoint>
          <Trackpoint>
            <Time>2021-09-26T09:44:11.000Z</Time>
            <Position>
              <LatitudeDegrees>40.4386019892990589141845703125</LatitudeDegrees>
              <LongitudeDegrees>-3.73118542134761810302734375</LongitudeDegrees>
            </Position>
            <AltitudeMeters>622</AltitudeMeters>
            <DistanceMeters>24120.463368627</DistanceMeters>
          </Trackpoint>
          <Trackpoint>
            <Time>2021-09-26T09:44:12.000Z</Time>
            <Position>
              <LatitudeDegrees>40.4385892488062381744384765625</LatitudeDegrees>
              <LongitudeDegrees>-3.7312124110758304595947265625</LongitudeDegrees>
            </Position>
            <AltitudeMeters>621.79998779296875</AltitudeMeters>
            <DistanceMeters>24123.154487597</DistanceMeters>
          </Trackpoint>
          <Trackpoint>
            <Time>2021-09-26T09:44:20.000Z</Time>
            <Position>
              <LatitudeDegrees>40.4385347664356231689453125</LatitudeDegrees>
              <LongitudeDegrees>-3.73141550458967685699462890625</LongitudeDegrees>
            </Position>
            <AltitudeMeters>620.5999755859375</AltitudeMeters>
            <DistanceMeters>24141.396151911</DistanceMeters>
          </Trackpoint>
          <Trackpoint>
            <Time>2021-09-26T09:44:28.000Z</Time>
            <Position>
              <LatitudeDegrees>40.4384933598339557647705078125</LatitudeDegrees>
              <LongitudeDegrees>-3.73165070079267024993896484375</LongitudeDegrees>
            </Position>
            <AltitudeMeters>618.79998779296875</AltitudeMeters>
            <DistanceMeters>24161.845892012</DistanceMeters>
          </Trackpoint>
          <Trackpoint>
            <Time>2021-09-26T09:44:35.000Z</Time>
            <Position>
              <LatitudeDegrees>40.4384167492389678955078125</LatitudeDegrees>
              <LongitudeDegrees>-3.73186963610351085662841796875</LongitudeDegrees>
            </Position>
            <AltitudeMeters>616.5999755859375</AltitudeMeters>
            <DistanceMeters>24182.258506185</DistanceMeters>
          </Trackpoint>
          <Trackpoint>
            <Time>2021-09-26T09:44:37.000Z</Time>
            <Position>
              <LatitudeDegrees>40.43838632293045520782470703125</LatitudeDegrees>
              <LongitudeDegrees>-3.7319191731512546539306640625</LongitudeDegrees>
            </Position>
            <AltitudeMeters>615.79998779296875</AltitudeMeters>
            <DistanceMeters>24187.650801257</DistanceMeters>
          </Trackpoint>
          <Trackpoint>
            <Time>2021-09-26T09:44:44.000Z</Time>
            <Position>
              <LatitudeDegrees>40.43825590051710605621337890625</LatitudeDegrees>
              <LongitudeDegrees>-3.73213970102369785308837890625</LongitudeDegrees>
            </Position>
            <AltitudeMeters>614.4000244140625</AltitudeMeters>
            <DistanceMeters>24211.30882734</DistanceMeters>
          </Trackpoint>
          <Trackpoint>
            <Time>2021-09-26T09:44:46.000Z</Time>
            <Position>
              <LatitudeDegrees>40.43823947198688983917236328125</LatitudeDegrees>
              <LongitudeDegrees>-3.7321689538657665252685546875</LongitudeDegrees>
            </Position>
            <AltitudeMeters>614.5999755859375</AltitudeMeters>
            <DistanceMeters>24214.388044817</DistanceMeters>
          </Trackpoint>
          <Trackpoint>
            <Time>2021-09-26T09:44:53.000Z</Time>
            <Position>
              <LatitudeDegrees>40.438083820044994354248046875</LatitudeDegrees>
              <LongitudeDegrees>-3.7323292158544063568115234375</LongitudeDegrees>
            </Position>
            <AltitudeMeters>615.4000244140625</AltitudeMeters>
            <DistanceMeters>24236.398168421</DistanceMeters>
          </Trackpoint>
          <Trackpoint>
            <Time>2021-09-26T09:44:58.000Z</Time>
            <Position>
              <LatitudeDegrees>40.43796949088573455810546875</LatitudeDegrees>
              <LongitudeDegrees>-3.73229996301233768463134765625</LongitudeDegrees>
            </Position>
            <AltitudeMeters>615</AltitudeMeters>
            <DistanceMeters>24249.362264331</DistanceMeters>
          </Trackpoint>
          <Trackpoint>
            <Time>2021-09-26T09:45:06.000Z</Time>
            <Position>
              <LatitudeDegrees>40.43779238127171993255615234375</LatitudeDegrees>
              <LongitudeDegrees>-3.7322308123111724853515625</LongitudeDegrees>
            </Position>
            <AltitudeMeters>614.79998779296875</AltitudeMeters>
            <DistanceMeters>24269.92671278</DistanceMeters>
          </Trackpoint>
          <Trackpoint>
            <Time>2021-09-26T09:45:07.000Z</Time>
            <Position>
              <LatitudeDegrees>40.4377708397805690765380859375</LatitudeDegrees>
              <LongitudeDegrees>-3.73222050257027149200439453125</LongitudeDegrees>
            </Position>
            <AltitudeMeters>614.79998779296875</AltitudeMeters>
            <DistanceMeters>24272.480086077</DistanceMeters>
          </Trackpoint>
          <Trackpoint>
            <Time>2021-09-26T09:45:15.000Z</Time>
            <Position>
              <LatitudeDegrees>40.43759155087172985076904296875</LatitudeDegrees>
              <LongitudeDegrees>-3.73213752172887325286865234375</LongitudeDegrees>
            </Position>
            <AltitudeMeters>613.4000244140625</AltitudeMeters>
            <DistanceMeters>24293.637139022</DistanceMeters>
          </Trackpoint>
          <Trackpoint>
            <Time>2021-09-26T09:45:21.000Z</Time>
            <Position>
              <LatitudeDegrees>40.43745794333517551422119140625</LatitudeDegrees>
              <LongitudeDegrees>-3.73206493444740772247314453125</LongitudeDegrees>
            </Position>
            <AltitudeMeters>613</AltitudeMeters>
            <DistanceMeters>24309.728672263</DistanceMeters>
          </Trackpoint>
          <Trackpoint>
            <Time>2021-09-26T09:45:28.000Z</Time>
            <Position>
              <LatitudeDegrees>40.4372796602547168731689453125</LatitudeDegrees>
              <LongitudeDegrees>-3.732004500925540924072265625</LongitudeDegrees>
            </Position>
            <AltitudeMeters>613</AltitudeMeters>
            <DistanceMeters>24330.221420617</DistanceMeters>
          </Trackpoint>
          <Trackpoint>
            <Time>2021-09-26T09:45:29.000Z</Time>
            <Position>
              <LatitudeDegrees>40.4372580349445343017578125</LatitudeDegrees>
              <LongitudeDegrees>-3.73199603520333766937255859375</LongitudeDegrees>
            </Position>
            <AltitudeMeters>613</AltitudeMeters>
            <DistanceMeters>24332.731996917</DistanceMeters>
          </Trackpoint>
          <Trackpoint>
            <Time>2021-09-26T09:45:33.000Z</Time>
            <Position>
              <LatitudeDegrees>40.43717153370380401611328125</LatitudeDegrees>
              <LongitudeDegrees>-3.73196854256093502044677734375</LongitudeDegrees>
            </Position>
            <AltitudeMeters>613.5999755859375</AltitudeMeters>
            <DistanceMeters>24342.637591833</DistanceMeters>
          </Trackpoint>
          <Trackpoint>
            <Time>2021-09-26T09:45:35.000Z</Time>
            <Position>
              <LatitudeDegrees>40.43713440187275409698486328125</LatitudeDegrees>
              <LongitudeDegrees>-3.7319446541368961334228515625</LongitudeDegrees>
            </Position>
            <AltitudeMeters>614</AltitudeMeters>
            <DistanceMeters>24347.240260552</DistanceMeters>
          </Trackpoint>
          <Trackpoint>
            <Time>2021-09-26T09:45:39.000Z</Time>
            <Position>
              <LatitudeDegrees>40.43705594725906848907470703125</LatitudeDegrees>
              <LongitudeDegrees>-3.73191406019032001495361328125</LongitudeDegrees>
            </Position>
            <AltitudeMeters>615</AltitudeMeters>
            <DistanceMeters>24356.348956527</DistanceMeters>
          </Trackpoint>
          <Trackpoint>
            <Time>2021-09-26T09:45:40.000Z</Time>
            <Position>
              <LatitudeDegrees>40.43703163973987102508544921875</LatitudeDegrees>
              <LongitudeDegrees>-3.73190836049616336822509765625</LongitudeDegrees>
            </Position>
            <AltitudeMeters>615.20001220703125</AltitudeMeters>
            <DistanceMeters>24359.098169866</DistanceMeters>
          </Trackpoint>
          <Trackpoint>
            <Time>2021-09-26T09:45:46.000Z</Time>
            <Position>
              <LatitudeDegrees>40.4369081743061542510986328125</LatitudeDegrees>
              <LongitudeDegrees>-3.73184901662170886993408203125</LongitudeDegrees>
            </Position>
            <AltitudeMeters>616.79998779296875</AltitudeMeters>
            <DistanceMeters>24373.730741156</DistanceMeters>
          </Trackpoint>
          <Trackpoint>
            <Time>2021-09-26T09:45:52.000Z</Time>
            <Position>
              <LatitudeDegrees>40.4368045739829540252685546875</LatitudeDegrees>
              <LongitudeDegrees>-3.73178414069116115570068359375</LongitudeDegrees>
            </Position>
            <AltitudeMeters>617.5999755859375</AltitudeMeters>
            <DistanceMeters>24386.504678738</DistanceMeters>
          </Trackpoint>
          <Trackpoint>
            <Time>2021-09-26T09:45:57.000Z</Time>
            <Position>
              <LatitudeDegrees>40.43669049628078937530517578125</LatitudeDegrees>
              <LongitudeDegrees>-3.73176167719066143035888671875</LongitudeDegrees>
            </Position>
            <AltitudeMeters>618.5999755859375</AltitudeMeters>
            <DistanceMeters>24399.34383936</DistanceMeters>
          </Trackpoint>
          <Trackpoint>
            <Time>2021-09-26T09:46:00.000Z</Time>
            <Position>
              <LatitudeDegrees>40.4366134665906429290771484375</LatitudeDegrees>
              <LongitudeDegrees>-3.73174197971820831298828125</LongitudeDegrees>
            </Position>
            <AltitudeMeters>618.5999755859375</AltitudeMeters>
            <DistanceMeters>24408.078029981</DistanceMeters>
          </Trackpoint>
          <Trackpoint>
            <Time>2021-09-26T09:46:07.000Z</Time>
            <Position>
              <LatitudeDegrees>40.4364238679409027099609375</LatitudeDegrees>
              <LongitudeDegrees>-3.73167492449283599853515625</LongitudeDegrees>
            </Position>
            <AltitudeMeters>617.4000244140625</AltitudeMeters>
            <DistanceMeters>24429.93210839</DistanceMeters>
          </Trackpoint>
          <Trackpoint>
            <Time>2021-09-26T09:46:14.000Z</Time>
            <Position>
              <LatitudeDegrees>40.43626301921904087066650390625</LatitudeDegrees>
              <LongitudeDegrees>-3.73160426504909992218017578125</LongitudeDegrees>
            </Position>
            <AltitudeMeters>617.5999755859375</AltitudeMeters>
            <DistanceMeters>24448.809207655</DistanceMeters>
          </Trackpoint>
          <Trackpoint>
            <Time>2021-09-26T09:46:22.000Z</Time>
            <Position>
              <LatitudeDegrees>40.43606218881905078887939453125</LatitudeDegrees>
              <LongitudeDegrees>-3.731519021093845367431640625</LongitudeDegrees>
            </Position>
            <AltitudeMeters>617.20001220703125</AltitudeMeters>
            <DistanceMeters>24472.299457785</DistanceMeters>
          </Trackpoint>
          <Trackpoint>
            <Time>2021-09-26T09:46:23.000Z</Time>
            <Position>
              <LatitudeDegrees>40.43603536672890186309814453125</LatitudeDegrees>
              <LongitudeDegrees>-3.73150586150586605072021484375</LongitudeDegrees>
            </Position>
            <AltitudeMeters>617.20001220703125</AltitudeMeters>
            <DistanceMeters>24475.48675068</DistanceMeters>
          </Trackpoint>
          <Trackpoint>
            <Time>2021-09-26T09:46:29.000Z</Time>
            <Position>
              <LatitudeDegrees>40.43589522130787372589111328125</LatitudeDegrees>
              <LongitudeDegrees>-3.73144400306046009063720703125</LongitudeDegrees>
            </Position>
            <AltitudeMeters>617.4000244140625</AltitudeMeters>
            <DistanceMeters>24491.94201951</DistanceMeters>
          </Trackpoint>
          <Trackpoint>
            <Time>2021-09-26T09:46:35.000Z</Time>
            <Position>
              <LatitudeDegrees>40.43577049858868122100830078125</LatitudeDegrees>
              <LongitudeDegrees>-3.73141047544777393341064453125</LongitudeDegrees>
            </Position>
            <AltitudeMeters>616.5999755859375</AltitudeMeters>
            <DistanceMeters>24506.111519136</DistanceMeters>
          </Trackpoint>
          <Trackpoint>
            <Time>2021-09-26T09:46:43.000Z</Time>
            <Position>
              <LatitudeDegrees>40.43559028767049312591552734375</LatitudeDegrees>
              <LongitudeDegrees>-3.73133839108049869537353515625</LongitudeDegrees>
            </Position>
            <AltitudeMeters>615.20001220703125</AltitudeMeters>
            <DistanceMeters>24527.078426669</DistanceMeters>
          </Trackpoint>
          <Trackpoint>
            <Time>2021-09-26T09:46:50.000Z</Time>
            <Position>
              <LatitudeDegrees>40.43540437705814838409423828125</LatitudeDegrees>
              <LongitudeDegrees>-3.731271587312221527099609375</LongitudeDegrees>
            </Position>
            <AltitudeMeters>613.4000244140625</AltitudeMeters>
            <DistanceMeters>24548.530904752</DistanceMeters>
          </Trackpoint>
          <Trackpoint>
            <Time>2021-09-26T09:46:51.000Z</Time>
            <Position>
              <LatitudeDegrees>40.435380823910236358642578125</LatitudeDegrees>
              <LongitudeDegrees>-3.731262870132923126220703125</LongitudeDegrees>
            </Position>
            <AltitudeMeters>613.20001220703125</AltitudeMeters>
            <DistanceMeters>24551.255372193</DistanceMeters>
          </Trackpoint>
          <Trackpoint>
            <Time>2021-09-26T09:46:58.000Z</Time>
            <Position>
              <LatitudeDegrees>40.435229949653148651123046875</LatitudeDegrees>
              <LongitudeDegrees>-3.73121559619903564453125</LongitudeDegrees>
            </Position>
            <AltitudeMeters>611.4000244140625</AltitudeMeters>
            <DistanceMeters>24568.518878296</DistanceMeters>
          </Trackpoint>
          <Trackpoint>
            <Time>2021-09-26T09:47:05.000Z</Time>
            <Position>
              <LatitudeDegrees>40.43508117087185382843017578125</LatitudeDegrees>
              <LongitudeDegrees>-3.73118651099503040313720703125</LongitudeDegrees>
            </Position>
            <AltitudeMeters>610.5999755859375</AltitudeMeters>
            <DistanceMeters>24585.260579008</DistanceMeters>
          </Trackpoint>
          <Trackpoint>
            <Time>2021-09-26T09:47:10.000Z</Time>
            <Position>
              <LatitudeDegrees>40.43498394079506397247314453125</LatitudeDegrees>
              <LongitudeDegrees>-3.73127938248217105865478515625</LongitudeDegrees>
            </Position>
            <AltitudeMeters>608.79998779296875</AltitudeMeters>
            <DistanceMeters>24598.64012442</DistanceMeters>
          </Trackpoint>
          <Trackpoint>
            <Time>2021-09-26T09:47:17.000Z</Time>
            <Position>
              <LatitudeDegrees>40.43491219170391559600830078125</LatitudeDegrees>
              <LongitudeDegrees>-3.731497563421726226806640625</LongitudeDegrees>
            </Position>
            <AltitudeMeters>607</AltitudeMeters>
            <DistanceMeters>24618.775027251</DistanceMeters>
          </Trackpoint>
          <Trackpoint>
            <Time>2021-09-26T09:47:19.000Z</Time>
            <Position>
              <LatitudeDegrees>40.43489090166985988616943359375</LatitudeDegrees>
              <LongitudeDegrees>-3.7315751798450946807861328125</LongitudeDegrees>
            </Position>
            <AltitudeMeters>606.79998779296875</AltitudeMeters>
            <DistanceMeters>24625.764498874</DistanceMeters>
          </Trackpoint>
          <Trackpoint>
            <Time>2021-09-26T09:47:27.000Z</Time>
            <Position>
              <LatitudeDegrees>40.434839017689228057861328125</LatitudeDegrees>
              <LongitudeDegrees>-3.73180241324007511138916015625</LongitudeDegrees>
            </Position>
            <AltitudeMeters>606.20001220703125</AltitudeMeters>
            <DistanceMeters>24645.8625928</DistanceMeters>
          </Trackpoint>
          <Trackpoint>
            <Time>2021-09-26T09:47:35.000Z</Time>
            <Position>
              <LatitudeDegrees>40.43476022779941558837890625</LatitudeDegrees>
              <LongitudeDegrees>-3.73204364441335201263427734375</LongitudeDegrees>
            </Position>
            <AltitudeMeters>605.79998779296875</AltitudeMeters>
            <DistanceMeters>24668.101077385</DistanceMeters>
          </Trackpoint>
          <Trackpoint>
            <Time>2021-09-26T09:47:43.000Z</Time>
            <Position>
              <LatitudeDegrees>40.43469183146953582763671875</LatitudeDegrees>
              <LongitudeDegrees>-3.7322873063385486602783203125</LongitudeDegrees>
            </Position>
            <AltitudeMeters>605</AltitudeMeters>
            <DistanceMeters>24690.102173214</DistanceMeters>
          </Trackpoint>
          <Trackpoint>
            <Time>2021-09-26T09:47:51.000Z</Time>
            <Position>
              <LatitudeDegrees>40.4346407018601894378662109375</LatitudeDegrees>
              <LongitudeDegrees>-3.73251621611416339874267578125</LongitudeDegrees>
            </Position>
            <AltitudeMeters>604</AltitudeMeters>
            <DistanceMeters>24710.31272684</DistanceMeters>
          </Trackpoint>
          <Trackpoint>
            <Time>2021-09-26T09:47:52.000Z</Time>
            <Position>
              <LatitudeDegrees>40.43463818728923797607421875</LatitudeDegrees>
              <LongitudeDegrees>-3.73254504986107349395751953125</LongitudeDegrees>
            </Position>
            <AltitudeMeters>603.79998779296875</AltitudeMeters>
            <DistanceMeters>24712.772432355</DistanceMeters>
          </Trackpoint>
          <Trackpoint>
            <Time>2021-09-26T09:47:58.000Z</Time>
            <Position>
              <LatitudeDegrees>40.434586219489574432373046875</LatitudeDegrees>
              <LongitudeDegrees>-3.732738085091114044189453125</LongitudeDegrees>
            </Position>
            <AltitudeMeters>602.79998779296875</AltitudeMeters>
            <DistanceMeters>24730.118387131</DistanceMeters>
          </Trackpoint>
          <Trackpoint>
            <Time>2021-09-26T09:48:04.000Z</Time>
            <Position>
              <LatitudeDegrees>40.434549339115619659423828125</LatitudeDegrees>
              <LongitudeDegrees>-3.73291452415287494659423828125</LongitudeDegrees>
            </Position>
            <AltitudeMeters>602.4000244140625</AltitudeMeters>
            <DistanceMeters>24745.619105631</DistanceMeters>
          </Trackpoint>
          <Trackpoint>
            <Time>2021-09-26T09:48:10.000Z</Time>
            <Position>
              <LatitudeDegrees>40.4345159791409969329833984375</LatitudeDegrees>
              <LongitudeDegrees>-3.733090795576572418212890625</LongitudeDegrees>
            </Position>
            <AltitudeMeters>602</AltitudeMeters>
            <DistanceMeters>24761.006979575</DistanceMeters>
          </Trackpoint>
          <Trackpoint>
            <Time>2021-09-26T09:48:17.000Z</Time>
            <Position>
              <LatitudeDegrees>40.43450550176203250885009765625</LatitudeDegrees>
              <LongitudeDegrees>-3.73326974920928478240966796875</LongitudeDegrees>
            </Position>
            <AltitudeMeters>601.79998779296875</AltitudeMeters>
            <DistanceMeters>24776.212144724</DistanceMeters>
          </Trackpoint>
          <Trackpoint>
            <Time>2021-09-26T09:48:24.000Z</Time>
            <Position>
              <LatitudeDegrees>40.434417910873889923095703125</LatitudeDegrees>
              <LongitudeDegrees>-3.73347694985568523406982421875</LongitudeDegrees>
            </Position>
            <AltitudeMeters>599.4000244140625</AltitudeMeters>
            <DistanceMeters>24796.291359177</DistanceMeters>
          </Trackpoint>
          <Trackpoint>
            <Time>2021-09-26T09:48:31.000Z</Time>
            <Position>
              <LatitudeDegrees>40.43432411737740039825439453125</LatitudeDegrees>
              <LongitudeDegrees>-3.7336958013474941253662109375</LongitudeDegrees>
            </Position>
            <AltitudeMeters>594</AltitudeMeters>
            <DistanceMeters>24817.568856977</DistanceMeters>
          </Trackpoint>
          <Trackpoint>
            <Time>2021-09-26T09:48:35.000Z</Time>
            <Position>
              <LatitudeDegrees>40.43427952565252780914306640625</LatitudeDegrees>
              <LongitudeDegrees>-3.73378020711243152618408203125</LongitudeDegrees>
            </Position>
            <AltitudeMeters>593</AltitudeMeters>
            <DistanceMeters>24826.274050916</DistanceMeters>
          </Trackpoint>
          <Trackpoint>
            <Time>2021-09-26T09:48:36.000Z</Time>
            <Position>
              <LatitudeDegrees>40.43427340686321258544921875</LatitudeDegrees>
              <LongitudeDegrees>-3.7337839789688587188720703125</LongitudeDegrees>
            </Position>
            <AltitudeMeters>592.79998779296875</AltitudeMeters>
            <DistanceMeters>24827.028302078</DistanceMeters>
          </Trackpoint>
          <Trackpoint>
            <Time>2021-09-26T09:48:39.000Z</Time>
            <Position>
              <LatitudeDegrees>40.43423317372798919677734375</LatitudeDegrees>
              <LongitudeDegrees>-3.7338138185441493988037109375</LongitudeDegrees>
            </Position>
            <AltitudeMeters>592</AltitudeMeters>
            <DistanceMeters>24832.170292338</DistanceMeters>
          </Trackpoint>
          <Trackpoint>
            <Time>2021-09-26T09:48:40.000Z</Time>
            <Position>
              <LatitudeDegrees>40.43421230278909206390380859375</LatitudeDegrees>
              <LongitudeDegrees>-3.73382681049406528472900390625</LongitudeDegrees>
            </Position>
            <AltitudeMeters>591.5999755859375</AltitudeMeters>
            <DistanceMeters>24834.741287467</DistanceMeters>
          </Trackpoint>
          <Trackpoint>
            <Time>2021-09-26T09:48:48.000Z</Time>
            <Position>
              <LatitudeDegrees>40.434060506522655487060546875</LatitudeDegrees>
              <LongitudeDegrees>-3.733973242342472076416015625</LongitudeDegrees>
            </Position>
            <AltitudeMeters>590.20001220703125</AltitudeMeters>
            <DistanceMeters>24855.701949177</DistanceMeters>
          </Trackpoint>
          <Trackpoint>
            <Time>2021-09-26T09:48:53.000Z</Time>
            <Position>
              <LatitudeDegrees>40.43393678963184356689453125</LatitudeDegrees>
              <LongitudeDegrees>-3.73404725454747676849365234375</LongitudeDegrees>
            </Position>
            <AltitudeMeters>590.5999755859375</AltitudeMeters>
            <DistanceMeters>24870.832398542</DistanceMeters>
          </Trackpoint>
          <Trackpoint>
            <Time>2021-09-26T09:48:58.000Z</Time>
            <Position>
              <LatitudeDegrees>40.43381868861615657806396484375</LatitudeDegrees>
              <LongitudeDegrees>-3.7340186722576618194580078125</LongitudeDegrees>
            </Position>
            <AltitudeMeters>590.4000244140625</AltitudeMeters>
            <DistanceMeters>24884.198438808</DistanceMeters>
          </Trackpoint>
          <Trackpoint>
            <Time>2021-09-26T09:49:06.000Z</Time>
            <Position>
              <LatitudeDegrees>40.43368323706090450286865234375</LatitudeDegrees>
              <LongitudeDegrees>-3.733850531280040740966796875</LongitudeDegrees>
            </Position>
            <AltitudeMeters>590.4000244140625</AltitudeMeters>
            <DistanceMeters>24904.939529468</DistanceMeters>
          </Trackpoint>
          <Trackpoint>
            <Time>2021-09-26T09:49:09.000Z</Time>
            <Position>
              <LatitudeDegrees>40.43362724594771862030029296875</LatitudeDegrees>
              <LongitudeDegrees>-3.7338165007531642913818359375</LongitudeDegrees>
            </Position>
            <AltitudeMeters>590.4000244140625</AltitudeMeters>
            <DistanceMeters>24911.80648361</DistanceMeters>
          </Trackpoint>
          <Trackpoint>
            <Time>2021-09-26T09:49:11.000Z</Time>
            <Position>
              <LatitudeDegrees>40.43358131311833858489990234375</LatitudeDegrees>
              <LongitudeDegrees>-3.7338079512119293212890625</LongitudeDegrees>
            </Position>
            <AltitudeMeters>590.5999755859375</AltitudeMeters>
            <DistanceMeters>24916.970379014</DistanceMeters>
          </Trackpoint>
          <Trackpoint>
            <Time>2021-09-26T09:49:17.000Z</Time>
            <Position>
              <LatitudeDegrees>40.433477126061916351318359375</LatitudeDegrees>
              <LongitudeDegrees>-3.7337021715939044952392578125</LongitudeDegrees>
            </Position>
            <AltitudeMeters>590.20001220703125</AltitudeMeters>
            <DistanceMeters>24931.626074094</DistanceMeters>
          </Trackpoint>
          <Trackpoint>
            <Time>2021-09-26T09:49:23.000Z</Time>
            <Position>
              <LatitudeDegrees>40.43337285518646240234375</LatitudeDegrees>
              <LongitudeDegrees>-3.73359496705234050750732421875</LongitudeDegrees>
            </Position>
            <AltitudeMeters>589.5999755859375</AltitudeMeters>
            <DistanceMeters>24946.362876274</DistanceMeters>
          </Trackpoint>
          <Trackpoint>
            <Time>2021-09-26T09:49:29.000Z</Time>
            <Position>
              <LatitudeDegrees>40.4332305304706096649169921875</LatitudeDegrees>
              <LongitudeDegrees>-3.73351600952446460723876953125</LongitudeDegrees>
            </Position>
            <AltitudeMeters>588.79998779296875</AltitudeMeters>
            <DistanceMeters>24963.558248415</DistanceMeters>
          </Trackpoint>
          <Trackpoint>
            <Time>2021-09-26T09:49:35.000Z</Time>
            <Position>
              <LatitudeDegrees>40.4330987669527530670166015625</LatitudeDegrees>
              <LongitudeDegrees>-3.7334029376506805419921875</LongitudeDegrees>
            </Position>
            <AltitudeMeters>589.5999755859375</AltitudeMeters>
            <DistanceMeters>24981.075154465</DistanceMeters>
          </Trackpoint>
          <Trackpoint>
            <Time>2021-09-26T09:49:40.000Z</Time>
            <Position>
              <LatitudeDegrees>40.43299709446728229522705078125</LatitudeDegrees>
              <LongitudeDegrees>-3.7333144247531890869140625</LongitudeDegrees>
            </Position>
            <AltitudeMeters>590.4000244140625</AltitudeMeters>
            <DistanceMeters>24994.651010248</DistanceMeters>
          </Trackpoint>
          <Trackpoint>
            <Time>2021-09-26T09:49:46.000Z</Time>
            <Position>
              <LatitudeDegrees>40.43288134038448333740234375</LatitudeDegrees>
              <LongitudeDegrees>-3.7332052923738956451416015625</LongitudeDegrees>
            </Position>
            <AltitudeMeters>592</AltitudeMeters>
            <DistanceMeters>25010.508802301</DistanceMeters>
          </Trackpoint>
          <Trackpoint>
            <Time>2021-09-26T09:49:54.000Z</Time>
            <Position>
              <LatitudeDegrees>40.4327269457280635833740234375</LatitudeDegrees>
              <LongitudeDegrees>-3.7330705113708972930908203125</LongitudeDegrees>
            </Position>
            <AltitudeMeters>594.20001220703125</AltitudeMeters>
            <DistanceMeters>25031.141200701</DistanceMeters>
          </Trackpoint>
          <Trackpoint>
            <Time>2021-09-26T09:49:59.000Z</Time>
            <Position>
              <LatitudeDegrees>40.4326213337481021881103515625</LatitudeDegrees>
              <LongitudeDegrees>-3.73298258520662784576416015625</LongitudeDegrees>
            </Position>
            <AltitudeMeters>595</AltitudeMeters>
            <DistanceMeters>25045.057991982</DistanceMeters>
          </Trackpoint>
          <Trackpoint>
            <Time>2021-09-26T09:50:04.000Z</Time>
            <Position>
              <LatitudeDegrees>40.43253810144960880279541015625</LatitudeDegrees>
              <LongitudeDegrees>-3.7328700162470340728759765625</LongitudeDegrees>
            </Position>
            <AltitudeMeters>596.20001220703125</AltitudeMeters>
            <DistanceMeters>25058.353584352</DistanceMeters>
          </Trackpoint>
          <Trackpoint>
            <Time>2021-09-26T09:50:12.000Z</Time>
            <Position>
              <LatitudeDegrees>40.4324047453701496124267578125</LatitudeDegrees>
              <LongitudeDegrees>-3.732754848897457122802734375</LongitudeDegrees>
            </Position>
            <AltitudeMeters>597</AltitudeMeters>
            <DistanceMeters>25076.11595584</DistanceMeters>
          </Trackpoint>
          <Trackpoint>
            <Time>2021-09-26T09:50:17.000Z</Time>
            <Position>
              <LatitudeDegrees>40.432326793670654296875</LatitudeDegrees>
              <LongitudeDegrees>-3.7326621450483798980712890625</LongitudeDegrees>
            </Position>
            <AltitudeMeters>596.79998779296875</AltitudeMeters>
            <DistanceMeters>25087.818911425</DistanceMeters>
          </Trackpoint>
          <Trackpoint>
            <Time>2021-09-26T09:50:18.000Z</Time>
            <Position>
              <LatitudeDegrees>40.43229930102825164794921875</LatitudeDegrees>
              <LongitudeDegrees>-3.732654266059398651123046875</LongitudeDegrees>
            </Position>
            <AltitudeMeters>597</AltitudeMeters>
            <DistanceMeters>25090.950470624</DistanceMeters>
          </Trackpoint>
          <Trackpoint>
            <Time>2021-09-26T09:50:25.000Z</Time>
            <Position>
              <LatitudeDegrees>40.4321837984025478363037109375</LatitudeDegrees>
              <LongitudeDegrees>-3.7325038947165012359619140625</LongitudeDegrees>
            </Position>
            <AltitudeMeters>596</AltitudeMeters>
            <DistanceMeters>25109.049255749</DistanceMeters>
          </Trackpoint>
          <Trackpoint>
            <Time>2021-09-26T09:50:31.000Z</Time>
            <Position>
              <LatitudeDegrees>40.43204122222959995269775390625</LatitudeDegrees>
              <LongitudeDegrees>-3.73239065520465373992919921875</LongitudeDegrees>
            </Position>
            <AltitudeMeters>594.20001220703125</AltitudeMeters>
            <DistanceMeters>25127.592861412</DistanceMeters>
          </Trackpoint>
          <Trackpoint>
            <Time>2021-09-26T09:50:38.000Z</Time>
            <Position>
              <LatitudeDegrees>40.43188355863094329833984375</LatitudeDegrees>
              <LongitudeDegrees>-3.732259310781955718994140625</LongitudeDegrees>
            </Position>
            <AltitudeMeters>592.79998779296875</AltitudeMeters>
            <DistanceMeters>25148.371794857</DistanceMeters>
          </Trackpoint>
          <Trackpoint>
            <Time>2021-09-26T09:50:40.000Z</Time>
            <Position>
              <LatitudeDegrees>40.43184441514313220977783203125</LatitudeDegrees>
              <LongitudeDegrees>-3.73222301714122295379638671875</LongitudeDegrees>
            </Position>
            <AltitudeMeters>592.5999755859375</AltitudeMeters>
            <DistanceMeters>25153.704309341</DistanceMeters>
          </Trackpoint>
          <Trackpoint>
            <Time>2021-09-26T09:50:47.000Z</Time>
            <Position>
              <LatitudeDegrees>40.43170879594981670379638671875</LatitudeDegrees>
              <LongitudeDegrees>-3.73211086727678775787353515625</LongitudeDegrees>
            </Position>
            <AltitudeMeters>591.79998779296875</AltitudeMeters>
            <DistanceMeters>25171.540497082</DistanceMeters>
          </Trackpoint>
          <Trackpoint>
            <Time>2021-09-26T09:50:53.000Z</Time>
            <Position>
              <LatitudeDegrees>40.43159522116184234619140625</LatitudeDegrees>
              <LongitudeDegrees>-3.732012212276458740234375</LongitudeDegrees>
            </Position>
            <AltitudeMeters>591.20001220703125</AltitudeMeters>
            <DistanceMeters>25186.694800237</DistanceMeters>
          </Trackpoint>
          <Trackpoint>
            <Time>2021-09-26T09:51:00.000Z</Time>
            <Position>
              <LatitudeDegrees>40.43146655894815921783447265625</LatitudeDegrees>
              <LongitudeDegrees>-3.731910288333892822265625</LongitudeDegrees>
            </Position>
            <AltitudeMeters>591.5999755859375</AltitudeMeters>
            <DistanceMeters>25203.417342128</DistanceMeters>
          </Trackpoint>
          <Trackpoint>
            <Time>2021-09-26T09:51:01.000Z</Time>
            <Position>
              <LatitudeDegrees>40.43144409544765949249267578125</LatitudeDegrees>
              <LongitudeDegrees>-3.7318980507552623748779296875</LongitudeDegrees>
            </Position>
            <AltitudeMeters>591.5999755859375</AltitudeMeters>
            <DistanceMeters>25206.125186672</DistanceMeters>
          </Trackpoint>
          <Trackpoint>
            <Time>2021-09-26T09:51:08.000Z</Time>
            <Position>
              <LatitudeDegrees>40.43131333775818347930908203125</LatitudeDegrees>
              <LongitudeDegrees>-3.73179721646010875701904296875</LongitudeDegrees>
            </Position>
            <AltitudeMeters>591.20001220703125</AltitudeMeters>
            <DistanceMeters>25223.000925201</DistanceMeters>
          </Trackpoint>
          <Trackpoint>
            <Time>2021-09-26T09:51:16.000Z</Time>
            <Position>
              <LatitudeDegrees>40.4311213083565235137939453125</LatitudeDegrees>
              <LongitudeDegrees>-3.731718845665454864501953125</LongitudeDegrees>
            </Position>
            <AltitudeMeters>590.20001220703125</AltitudeMeters>
            <DistanceMeters>25245.382086933</DistanceMeters>
          </Trackpoint>
          <Trackpoint>
            <Time>2021-09-26T09:51:22.000Z</Time>
            <Position>
              <LatitudeDegrees>40.4309939034283161163330078125</LatitudeDegrees>
              <LongitudeDegrees>-3.7316482700407505035400390625</LongitudeDegrees>
            </Position>
            <AltitudeMeters>589.20001220703125</AltitudeMeters>
            <DistanceMeters>25260.771721269</DistanceMeters>
          </Trackpoint>
          <Trackpoint>
            <Time>2021-09-26T09:51:28.000Z</Time>
            <Position>
              <LatitudeDegrees>40.43086993508040904998779296875</LatitudeDegrees>
              <LongitudeDegrees>-3.73157844878733158111572265625</LongitudeDegrees>
            </Position>
            <AltitudeMeters>588.4000244140625</AltitudeMeters>
            <DistanceMeters>25275.784137726</DistanceMeters>
          </Trackpoint>
          <Trackpoint>
            <Time>2021-09-26T09:51:29.000Z</Time>
            <Position>
              <LatitudeDegrees>40.430851243436336517333984375</LatitudeDegrees>
              <LongitudeDegrees>-3.73155514709651470184326171875</LongitudeDegrees>
            </Position>
            <AltitudeMeters>588.20001220703125</AltitudeMeters>
            <DistanceMeters>25278.652307812</DistanceMeters>
          </Trackpoint>
          <Trackpoint>
            <Time>2021-09-26T09:51:37.000Z</Time>
            <Position>
              <LatitudeDegrees>40.43070732615888118743896484375</LatitudeDegrees>
              <LongitudeDegrees>-3.73142371885478496551513671875</LongitudeDegrees>
            </Position>
            <AltitudeMeters>589</AltitudeMeters>
            <DistanceMeters>25298.160577128</DistanceMeters>
          </Trackpoint>
          <Trackpoint>
            <Time>2021-09-26T09:51:42.000Z</Time>
            <Position>
              <LatitudeDegrees>40.43059903196990489959716796875</LatitudeDegrees>
              <LongitudeDegrees>-3.73133503831923007965087890625</LongitudeDegrees>
            </Position>
            <AltitudeMeters>590</AltitudeMeters>
            <DistanceMeters>25312.363495057</DistanceMeters>
          </Trackpoint>
          <Trackpoint>
            <Time>2021-09-26T09:51:44.000Z</Time>
            <Position>
              <LatitudeDegrees>40.43055142275989055633544921875</LatitudeDegrees>
              <LongitudeDegrees>-3.73129933141171932220458984375</LongitudeDegrees>
            </Position>
            <AltitudeMeters>590</AltitudeMeters>
            <DistanceMeters>25318.464476544</DistanceMeters>
          </Trackpoint>
          <Trackpoint>
            <Time>2021-09-26T09:51:51.000Z</Time>
            <Position>
              <LatitudeDegrees>40.4304068349301815032958984375</LatitudeDegrees>
              <LongitudeDegrees>-3.73117008246481418609619140625</LongitudeDegrees>
            </Position>
            <AltitudeMeters>591</AltitudeMeters>
            <DistanceMeters>25337.929649995</DistanceMeters>
          </Trackpoint>
          <Trackpoint>
            <Time>2021-09-26T09:51:52.000Z</Time>
            <Position>
              <LatitudeDegrees>40.4303887300193309783935546875</LatitudeDegrees>
              <LongitudeDegrees>-3.73115264810621738433837890625</LongitudeDegrees>
            </Position>
            <AltitudeMeters>591</AltitudeMeters>
            <DistanceMeters>25340.429412564</DistanceMeters>
          </Trackpoint>
          <Trackpoint>
            <Time>2021-09-26T09:51:59.000Z</Time>
            <Position>
              <LatitudeDegrees>40.43025285936892032623291015625</LatitudeDegrees>
              <LongitudeDegrees>-3.73102339915931224822998046875</LongitudeDegrees>
            </Position>
            <AltitudeMeters>590.4000244140625</AltitudeMeters>
            <DistanceMeters>25359.100408818</DistanceMeters>
          </Trackpoint>
          <Trackpoint>
            <Time>2021-09-26T09:52:06.000Z</Time>
            <Position>
              <LatitudeDegrees>40.43010793626308441162109375</LatitudeDegrees>
              <LongitudeDegrees>-3.73090705834329128265380859375</LongitudeDegrees>
            </Position>
            <AltitudeMeters>589.20001220703125</AltitudeMeters>
            <DistanceMeters>25378.003799652</DistanceMeters>
          </Trackpoint>
          <Trackpoint>
            <Time>2021-09-26T09:52:09.000Z</Time>
            <Position>
              <LatitudeDegrees>40.43004649691283702850341796875</LatitudeDegrees>
              <LongitudeDegrees>-3.73085710220038890838623046875</LongitudeDegrees>
            </Position>
            <AltitudeMeters>588.79998779296875</AltitudeMeters>
            <DistanceMeters>25386.045777487</DistanceMeters>
          </Trackpoint>
          <Trackpoint>
            <Time>2021-09-26T09:52:12.000Z</Time>
            <Position>
              <LatitudeDegrees>40.429984889924526214599609375</LatitudeDegrees>
              <LongitudeDegrees>-3.7308000214397907257080078125</LongitudeDegrees>
            </Position>
            <AltitudeMeters>588.4000244140625</AltitudeMeters>
            <DistanceMeters>25394.437233625</DistanceMeters>
          </Trackpoint>
          <Trackpoint>
            <Time>2021-09-26T09:52:17.000Z</Time>
            <Position>
              <LatitudeDegrees>40.42988774366676807403564453125</LatitudeDegrees>
              <LongitudeDegrees>-3.7307232432067394256591796875</LongitudeDegrees>
            </Position>
            <AltitudeMeters>587.79998779296875</AltitudeMeters>
            <DistanceMeters>25407.055765153</DistanceMeters>
          </Trackpoint>
          <Trackpoint>
            <Time>2021-09-26T09:52:18.000Z</Time>
            <Position>
              <LatitudeDegrees>40.42986645363271236419677734375</LatitudeDegrees>
              <LongitudeDegrees>-3.73070891015231609344482421875</LongitudeDegrees>
            </Position>
            <AltitudeMeters>587.79998779296875</AltitudeMeters>
            <DistanceMeters>25409.71820952</DistanceMeters>
          </Trackpoint>
          <Trackpoint>
            <Time>2021-09-26T09:52:23.000Z</Time>
            <Position>
              <LatitudeDegrees>40.429779700934886932373046875</LatitudeDegrees>
              <LongitudeDegrees>-3.73061033897101879119873046875</LongitudeDegrees>
            </Position>
            <AltitudeMeters>587.5999755859375</AltitudeMeters>
            <DistanceMeters>25422.484368679</DistanceMeters>
          </Trackpoint>
          <Trackpoint>
            <Time>2021-09-26T09:52:25.000Z</Time>
            <Position>
              <LatitudeDegrees>40.4297403059899806976318359375</LatitudeDegrees>
              <LongitudeDegrees>-3.73057764954864978790283203125</LongitudeDegrees>
            </Position>
            <AltitudeMeters>587.79998779296875</AltitudeMeters>
            <DistanceMeters>25427.670076697</DistanceMeters>
          </Trackpoint>
          <Trackpoint>
            <Time>2021-09-26T09:52:27.000Z</Time>
            <Position>
              <LatitudeDegrees>40.42969579808413982391357421875</LatitudeDegrees>
              <LongitudeDegrees>-3.73055644333362579345703125</LongitudeDegrees>
            </Position>
            <AltitudeMeters>588.20001220703125</AltitudeMeters>
            <DistanceMeters>25432.940419679</DistanceMeters>
          </Trackpoint>
          <Trackpoint>
            <Time>2021-09-26T09:52:30.000Z</Time>
            <Position>
              <LatitudeDegrees>40.42964198626577854156494140625</LatitudeDegrees>
              <LongitudeDegrees>-3.73049902729690074920654296875</LongitudeDegrees>
            </Position>
            <AltitudeMeters>588.79998779296875</AltitudeMeters>
            <DistanceMeters>25440.656916557</DistanceMeters>
          </Trackpoint>
          <Trackpoint>
            <Time>2021-09-26T09:52:32.000Z</Time>
            <Position>
              <LatitudeDegrees>40.429602004587650299072265625</LatitudeDegrees>
              <LongitudeDegrees>-3.73046482913196086883544921875</LongitudeDegrees>
            </Position>
            <AltitudeMeters>589.20001220703125</AltitudeMeters>
            <DistanceMeters>25445.966520935</DistanceMeters>
          </Trackpoint>
          <Trackpoint>
            <Time>2021-09-26T09:52:37.000Z</Time>
            <Position>
              <LatitudeDegrees>40.42950603179633617401123046875</LatitudeDegrees>
              <LongitudeDegrees>-3.730370365083217620849609375</LongitudeDegrees>
            </Position>
            <AltitudeMeters>589.79998779296875</AltitudeMeters>
            <DistanceMeters>25459.313631038</DistanceMeters>
          </Trackpoint>
          <Trackpoint>
            <Time>2021-09-26T09:52:42.000Z</Time>
            <Position>
              <LatitudeDegrees>40.42941550724208354949951171875</LatitudeDegrees>
              <LongitudeDegrees>-3.7302686087787151336669921875</LongitudeDegrees>
            </Position>
            <AltitudeMeters>590.20001220703125</AltitudeMeters>
            <DistanceMeters>25472.57385911</DistanceMeters>
          </Trackpoint>
          <Trackpoint>
            <Time>2021-09-26T09:52:43.000Z</Time>
            <Position>
              <LatitudeDegrees>40.42939991690218448638916015625</LatitudeDegrees>
              <LongitudeDegrees>-3.73024639673531055450439453125</LongitudeDegrees>
            </Position>
            <AltitudeMeters>590.4000244140625</AltitudeMeters>
            <DistanceMeters>25475.1325317</DistanceMeters>
          </Trackpoint>
          <Trackpoint>
            <Time>2021-09-26T09:52:43.000Z</Time>
            <Position>
              <LatitudeDegrees>40.42939991690218448638916015625</LatitudeDegrees>
              <LongitudeDegrees>-3.73024639673531055450439453125</LongitudeDegrees>
            </Position>
            <AltitudeMeters>590.4000244140625</AltitudeMeters>
            <DistanceMeters>25475.1325317</DistanceMeters>
          </Trackpoint>
          <Trackpoint>
            <Time>2021-09-26T09:52:50.000Z</Time>
            <Position>
              <LatitudeDegrees>40.4292803071439266204833984375</LatitudeDegrees>
              <LongitudeDegrees>-3.7301033176481723785400390625</LongitudeDegrees>
            </Position>
            <AltitudeMeters>590.79998779296875</AltitudeMeters>
            <DistanceMeters>25493.137523906</DistanceMeters>
          </Trackpoint>
          <Trackpoint>
            <Time>2021-09-26T09:52:58.000Z</Time>
            <Position>
              <LatitudeDegrees>40.4291404969990253448486328125</LatitudeDegrees>
              <LongitudeDegrees>-3.729938529431819915771484375</LongitudeDegrees>
            </Position>
            <AltitudeMeters>590.5999755859375</AltitudeMeters>
            <DistanceMeters>25514.043833002</DistanceMeters>
          </Trackpoint>
          <Trackpoint>
            <Time>2021-09-26T09:53:04.000Z</Time>
            <Position>
              <LatitudeDegrees>40.42904175817966461181640625</LatitudeDegrees>
              <LongitudeDegrees>-3.72982495464384555816650390625</LongitudeDegrees>
            </Position>
            <AltitudeMeters>590</AltitudeMeters>
            <DistanceMeters>25528.650771292</DistanceMeters>
          </Trackpoint>
          <Trackpoint>
            <Time>2021-09-26T09:53:13.000Z</Time>
            <Position>
              <LatitudeDegrees>40.428909324109554290771484375</LatitudeDegrees>
              <LongitudeDegrees>-3.72965119779109954833984375</LongitudeDegrees>
            </Position>
            <AltitudeMeters>588.4000244140625</AltitudeMeters>
            <DistanceMeters>25549.483306039</DistanceMeters>
          </Trackpoint>
          <Trackpoint>
            <Time>2021-09-26T09:53:21.000Z</Time>
            <Position>
              <LatitudeDegrees>40.42874210514128208160400390625</LatitudeDegrees>
              <LongitudeDegrees>-3.72953527607023715972900390625</LongitudeDegrees>
            </Position>
            <AltitudeMeters>588.20001220703125</AltitudeMeters>
            <DistanceMeters>25570.527593602</DistanceMeters>
          </Trackpoint>
          <Trackpoint>
            <Time>2021-09-26T09:53:22.000Z</Time>
            <Position>
              <LatitudeDegrees>40.4287220723927021026611328125</LatitudeDegrees>
              <LongitudeDegrees>-3.7295216135680675506591796875</LongitudeDegrees>
            </Position>
            <AltitudeMeters>588.20001220703125</AltitudeMeters>
            <DistanceMeters>25573.038169902</DistanceMeters>
          </Trackpoint>
          <Trackpoint>
            <Time>2021-09-26T09:53:28.000Z</Time>
            <Position>
              <LatitudeDegrees>40.42857832275331020355224609375</LatitudeDegrees>
              <LongitudeDegrees>-3.7294072844088077545166015625</LongitudeDegrees>
            </Position>
            <AltitudeMeters>588.79998779296875</AltitudeMeters>
            <DistanceMeters>25591.741542095</DistanceMeters>
          </Trackpoint>
          <Trackpoint>
            <Time>2021-09-26T09:53:33.000Z</Time>
            <Position>
              <LatitudeDegrees>40.4284766502678394317626953125</LatitudeDegrees>
              <LongitudeDegrees>-3.7293020077049732208251953125</LongitudeDegrees>
            </Position>
            <AltitudeMeters>589</AltitudeMeters>
            <DistanceMeters>25606.150550305</DistanceMeters>
          </Trackpoint>
          <Trackpoint>
            <Time>2021-09-26T09:53:35.000Z</Time>
            <Position>
              <LatitudeDegrees>40.42843666858971118927001953125</LatitudeDegrees>
              <LongitudeDegrees>-3.72926588170230388641357421875</LongitudeDegrees>
            </Position>
            <AltitudeMeters>588.79998779296875</AltitudeMeters>
            <DistanceMeters>25611.551212015</DistanceMeters>
          </Trackpoint>
          <Trackpoint>
            <Time>2021-09-26T09:53:38.000Z</Time>
            <Position>
              <LatitudeDegrees>40.42838587425649166107177734375</LatitudeDegrees>
              <LongitudeDegrees>-3.72919614426791667938232421875</LongitudeDegrees>
            </Position>
            <AltitudeMeters>588.5999755859375</AltitudeMeters>
            <DistanceMeters>25619.729032394</DistanceMeters>
          </Trackpoint>
          <Trackpoint>
            <Time>2021-09-26T09:53:42.000Z</Time>
            <Position>
              <LatitudeDegrees>40.42830473743379116058349609375</LatitudeDegrees>
              <LongitudeDegrees>-3.72911316342651844024658203125</LongitudeDegrees>
            </Position>
            <AltitudeMeters>588.5999755859375</AltitudeMeters>
            <DistanceMeters>25631.174131297</DistanceMeters>
          </Trackpoint>
          <Trackpoint>
            <Time>2021-09-26T09:53:49.000Z</Time>
            <Position>
              <LatitudeDegrees>40.428168363869190216064453125</LatitudeDegrees>
              <LongitudeDegrees>-3.728970251977443695068359375</LongitudeDegrees>
            </Position>
            <AltitudeMeters>590</AltitudeMeters>
            <DistanceMeters>25650.5907657</DistanceMeters>
          </Trackpoint>
          <Trackpoint>
            <Time>2021-09-26T09:53:55.000Z</Time>
            <Position>
              <LatitudeDegrees>40.4280634224414825439453125</LatitudeDegrees>
              <LongitudeDegrees>-3.72884075157344341278076171875</LongitudeDegrees>
            </Position>
            <AltitudeMeters>591.5999755859375</AltitudeMeters>
            <DistanceMeters>25666.616225882</DistanceMeters>
          </Trackpoint>
          <Trackpoint>
            <Time>2021-09-26T09:54:01.000Z</Time>
            <Position>
              <LatitudeDegrees>40.42794515378773212432861328125</LatitudeDegrees>
              <LongitudeDegrees>-3.728738240897655487060546875</LongitudeDegrees>
            </Position>
            <AltitudeMeters>593.79998779296875</AltitudeMeters>
            <DistanceMeters>25682.386652808</DistanceMeters>
          </Trackpoint>
          <Trackpoint>
            <Time>2021-09-26T09:54:06.000Z</Time>
            <Position>
              <LatitudeDegrees>40.42784473858773708343505859375</LatitudeDegrees>
              <LongitudeDegrees>-3.72864562086760997772216796875</LongitudeDegrees>
            </Position>
            <AltitudeMeters>594.5999755859375</AltitudeMeters>
            <DistanceMeters>25696.042755426</DistanceMeters>
          </Trackpoint>
          <Trackpoint>
            <Time>2021-09-26T09:54:14.000Z</Time>
            <Position>
              <LatitudeDegrees>40.42770643718540668487548828125</LatitudeDegrees>
              <LongitudeDegrees>-3.7284933216869831085205078125</LongitudeDegrees>
            </Position>
            <AltitudeMeters>593.20001220703125</AltitudeMeters>
            <DistanceMeters>25716.129164153</DistanceMeters>
          </Trackpoint>
          <Trackpoint>
            <Time>2021-09-26T09:54:15.000Z</Time>
            <Position>
              <LatitudeDegrees>40.42768648825585842132568359375</LatitudeDegrees>
              <LongitudeDegrees>-3.72847161255776882171630859375</LongitudeDegrees>
            </Position>
            <AltitudeMeters>592.79998779296875</AltitudeMeters>
            <DistanceMeters>25719.011467108</DistanceMeters>
          </Trackpoint>
          <Trackpoint>
            <Time>2021-09-26T09:54:22.000Z</Time>
            <Position>
              <LatitudeDegrees>40.4275811277329921722412109375</LatitudeDegrees>
              <LongitudeDegrees>-3.7283162958920001983642578125</LongitudeDegrees>
            </Position>
            <AltitudeMeters>590.4000244140625</AltitudeMeters>
            <DistanceMeters>25736.637834009</DistanceMeters>
          </Trackpoint>
          <Trackpoint>
            <Time>2021-09-26T09:54:29.000Z</Time>
            <Position>
              <LatitudeDegrees>40.427455902099609375</LatitudeDegrees>
              <LongitudeDegrees>-3.72818377800285816192626953125</LongitudeDegrees>
            </Position>
            <AltitudeMeters>587.79998779296875</AltitudeMeters>
            <DistanceMeters>25754.535681136</DistanceMeters>
          </Trackpoint>
          <Trackpoint>
            <Time>2021-09-26T09:54:34.000Z</Time>
            <Position>
              <LatitudeDegrees>40.4273719154298305511474609375</LatitudeDegrees>
              <LongitudeDegrees>-3.72809492982923984527587890625</LongitudeDegrees>
            </Position>
            <AltitudeMeters>587.20001220703125</AltitudeMeters>
            <DistanceMeters>25766.538047966</DistanceMeters>
          </Trackpoint>
          <Trackpoint>
            <Time>2021-09-26T09:54:41.000Z</Time>
            <Position>
              <LatitudeDegrees>40.42722581885755062103271484375</LatitudeDegrees>
              <LongitudeDegrees>-3.72798227705061435699462890625</LongitudeDegrees>
            </Position>
            <AltitudeMeters>587.4000244140625</AltitudeMeters>
            <DistanceMeters>25785.393369222</DistanceMeters>
          </Trackpoint>
          <Trackpoint>
            <Time>2021-09-26T09:54:46.000Z</Time>
            <Position>
              <LatitudeDegrees>40.42712775059044361114501953125</LatitudeDegrees>
              <LongitudeDegrees>-3.72793332673609256744384765625</LongitudeDegrees>
            </Position>
            <AltitudeMeters>587.79998779296875</AltitudeMeters>
            <DistanceMeters>25797.07044738</DistanceMeters>
          </Trackpoint>
          <Trackpoint>
            <Time>2021-09-26T09:54:53.000Z</Time>
            <Position>
              <LatitudeDegrees>40.42699791491031646728515625</LatitudeDegrees>
              <LongitudeDegrees>-3.727835677564144134521484375</LongitudeDegrees>
            </Position>
            <AltitudeMeters>589.20001220703125</AltitudeMeters>
            <DistanceMeters>25813.722099769</DistanceMeters>
          </Trackpoint>
          <Trackpoint>
            <Time>2021-09-26T09:54:59.000Z</Time>
            <Position>
              <LatitudeDegrees>40.426893644034862518310546875</LatitudeDegrees>
              <LongitudeDegrees>-3.727762587368488311767578125</LongitudeDegrees>
            </Position>
            <AltitudeMeters>590</AltitudeMeters>
            <DistanceMeters>25826.876694209</DistanceMeters>
          </Trackpoint>
          <Trackpoint>
            <Time>2021-09-26T09:55:05.000Z</Time>
            <Position>
              <LatitudeDegrees>40.42677621357142925262451171875</LatitudeDegrees>
              <LongitudeDegrees>-3.72766762040555477142333984375</LongitudeDegrees>
            </Position>
            <AltitudeMeters>590.4000244140625</AltitudeMeters>
            <DistanceMeters>25842.224905968</DistanceMeters>
          </Trackpoint>
          <Trackpoint>
            <Time>2021-09-26T09:55:07.000Z</Time>
            <Position>
              <LatitudeDegrees>40.42674905620515346527099609375</LatitudeDegrees>
              <LongitudeDegrees>-3.7276360206305980682373046875</LongitudeDegrees>
            </Position>
            <AltitudeMeters>590.5999755859375</AltitudeMeters>
            <DistanceMeters>25846.263261829</DistanceMeters>
          </Trackpoint>
          <Trackpoint>
            <Time>2021-09-26T09:55:08.000Z</Time>
            <Position>
              <LatitudeDegrees>40.4267410933971405029296875</LatitudeDegrees>
              <LongitudeDegrees>-3.72761632315814495086669921875</LongitudeDegrees>
            </Position>
            <AltitudeMeters>590.5999755859375</AltitudeMeters>
            <DistanceMeters>25848.149488252</DistanceMeters>
          </Trackpoint>
          <Trackpoint>
            <Time>2021-09-26T09:55:10.000Z</Time>
            <Position>
              <LatitudeDegrees>40.4267194680869579315185546875</LatitudeDegrees>
              <LongitudeDegrees>-3.72757441364228725433349609375</LongitudeDegrees>
            </Position>
            <AltitudeMeters>590.5999755859375</AltitudeMeters>
            <DistanceMeters>25852.43939452</DistanceMeters>
          </Trackpoint>
          <Trackpoint>
            <Time>2021-09-26T09:55:15.000Z</Time>
            <Position>
              <LatitudeDegrees>40.42662332765758037567138671875</LatitudeDegrees>
              <LongitudeDegrees>-3.72748187743127346038818359375</LongitudeDegrees>
            </Position>
            <AltitudeMeters>590.4000244140625</AltitudeMeters>
            <DistanceMeters>25865.70506939</DistanceMeters>
          </Trackpoint>
          <Trackpoint>
            <Time>2021-09-26T09:55:17.000Z</Time>
            <Position>
              <LatitudeDegrees>40.426591224968433380126953125</LatitudeDegrees>
              <LongitudeDegrees>-3.72743611223995685577392578125</LongitudeDegrees>
            </Position>
            <AltitudeMeters>590.20001220703125</AltitudeMeters>
            <DistanceMeters>25870.978838009</DistanceMeters>
          </Trackpoint>
          <Trackpoint>
            <Time>2021-09-26T09:55:19.000Z</Time>
            <Position>
              <LatitudeDegrees>40.42656918056309223175048828125</LatitudeDegrees>
              <LongitudeDegrees>-3.7273733317852020263671875</LongitudeDegrees>
            </Position>
            <AltitudeMeters>590</AltitudeMeters>
            <DistanceMeters>25876.836678096</DistanceMeters>
          </Trackpoint>
          <Trackpoint>
            <Time>2021-09-26T09:55:20.000Z</Time>
            <Position>
              <LatitudeDegrees>40.4265479743480682373046875</LatitudeDegrees>
              <LongitudeDegrees>-3.72734944336116313934326171875</LongitudeDegrees>
            </Position>
            <AltitudeMeters>590</AltitudeMeters>
            <DistanceMeters>25879.94508312</DistanceMeters>
          </Trackpoint>
          <Trackpoint>
            <Time>2021-09-26T09:55:22.000Z</Time>
            <Position>
              <LatitudeDegrees>40.42651017196476459503173828125</LatitudeDegrees>
              <LongitudeDegrees>-3.72731222771108150482177734375</LongitudeDegrees>
            </Position>
            <AltitudeMeters>590</AltitudeMeters>
            <DistanceMeters>25885.203418795</DistanceMeters>
          </Trackpoint>
          <Trackpoint>
            <Time>2021-09-26T09:55:28.000Z</Time>
            <Position>
              <LatitudeDegrees>40.42643456719815731048583984375</LatitudeDegrees>
              <LongitudeDegrees>-3.727173842489719390869140625</LongitudeDegrees>
            </Position>
            <AltitudeMeters>590.20001220703125</AltitudeMeters>
            <DistanceMeters>25899.635596152</DistanceMeters>
          </Trackpoint>
          <Trackpoint>
            <Time>2021-09-26T09:55:30.000Z</Time>
            <Position>
              <LatitudeDegrees>40.42644445784389972686767578125</LatitudeDegrees>
              <LongitudeDegrees>-3.7271238863468170166015625</LongitudeDegrees>
            </Position>
            <AltitudeMeters>589.79998779296875</AltitudeMeters>
            <DistanceMeters>25904.008890323</DistanceMeters>
          </Trackpoint>
          <Trackpoint>
            <Time>2021-09-26T09:55:32.000Z</Time>
            <Position>
              <LatitudeDegrees>40.42641562409698963165283203125</LatitudeDegrees>
              <LongitudeDegrees>-3.72707351110875606536865234375</LongitudeDegrees>
            </Position>
            <AltitudeMeters>589.79998779296875</AltitudeMeters>
            <DistanceMeters>25909.348174108</DistanceMeters>
          </Trackpoint>
          <Trackpoint>
            <Time>2021-09-26T09:55:38.000Z</Time>
            <Position>
              <LatitudeDegrees>40.426330380141735076904296875</LatitudeDegrees>
              <LongitudeDegrees>-3.72693152166903018951416015625</LongitudeDegrees>
            </Position>
            <AltitudeMeters>590</AltitudeMeters>
            <DistanceMeters>25924.669592686</DistanceMeters>
          </Trackpoint>
          <Trackpoint>
            <Time>2021-09-26T09:55:43.000Z</Time>
            <Position>
              <LatitudeDegrees>40.42621931992471218109130859375</LatitudeDegrees>
              <LongitudeDegrees>-3.7268481217324733734130859375</LongitudeDegrees>
            </Position>
            <AltitudeMeters>591</AltitudeMeters>
            <DistanceMeters>25938.907753247</DistanceMeters>
          </Trackpoint>
          <Trackpoint>
            <Time>2021-09-26T09:55:45.000Z</Time>
            <Position>
              <LatitudeDegrees>40.4261880554258823394775390625</LatitudeDegrees>
              <LongitudeDegrees>-3.72679640538990497589111328125</LongitudeDegrees>
            </Position>
            <AltitudeMeters>591</AltitudeMeters>
            <DistanceMeters>25944.502236687</DistanceMeters>
          </Trackpoint>
          <Trackpoint>
            <Time>2021-09-26T09:55:48.000Z</Time>
            <Position>
              <LatitudeDegrees>40.4261572100222110748291015625</LatitudeDegrees>
              <LongitudeDegrees>-3.726713843643665313720703125</LongitudeDegrees>
            </Position>
            <AltitudeMeters>591</AltitudeMeters>
            <DistanceMeters>25952.294427265</DistanceMeters>
          </Trackpoint>
          <Trackpoint>
            <Time>2021-09-26T09:55:55.000Z</Time>
            <Position>
              <LatitudeDegrees>40.42604447342455387115478515625</LatitudeDegrees>
              <LongitudeDegrees>-3.72658350504934787750244140625</LongitudeDegrees>
            </Position>
            <AltitudeMeters>591</AltitudeMeters>
            <DistanceMeters>25969.009947757</DistanceMeters>
          </Trackpoint>
          <Trackpoint>
            <Time>2021-09-26T09:55:58.000Z</Time>
            <Position>
              <LatitudeDegrees>40.42593668214976787567138671875</LatitudeDegrees>
              <LongitudeDegrees>-3.7265611253678798675537109375</LongitudeDegrees>
            </Position>
            <AltitudeMeters>591.79998779296875</AltitudeMeters>
            <DistanceMeters>25981.156280082</DistanceMeters>
          </Trackpoint>
          <Trackpoint>
            <Time>2021-09-26T09:56:02.000Z</Time>
            <Position>
              <LatitudeDegrees>40.42582604102790355682373046875</LatitudeDegrees>
              <LongitudeDegrees>-3.72650630772113800048828125</LongitudeDegrees>
            </Position>
            <AltitudeMeters>592.4000244140625</AltitudeMeters>
            <DistanceMeters>25994.317394258</DistanceMeters>
          </Trackpoint>
          <Trackpoint>
            <Time>2021-09-26T09:56:08.000Z</Time>
            <Position>
              <LatitudeDegrees>40.4256901703774929046630859375</LatitudeDegrees>
              <LongitudeDegrees>-3.72634428553283214569091796875</LongitudeDegrees>
            </Position>
            <AltitudeMeters>591.20001220703125</AltitudeMeters>
            <DistanceMeters>26014.741728063</DistanceMeters>
          </Trackpoint>
          <Trackpoint>
            <Time>2021-09-26T09:56:15.000Z</Time>
            <Position>
              <LatitudeDegrees>40.42552965693175792694091796875</LatitudeDegrees>
              <LongitudeDegrees>-3.72619307599961757659912109375</LongitudeDegrees>
            </Position>
            <AltitudeMeters>590</AltitudeMeters>
            <DistanceMeters>26036.72640026</DistanceMeters>
          </Trackpoint>
          <Trackpoint>
            <Time>2021-09-26T09:56:18.000Z</Time>
            <Position>
              <LatitudeDegrees>40.4254591651260852813720703125</LatitudeDegrees>
              <LongitudeDegrees>-3.72615753673017024993896484375</LongitudeDegrees>
            </Position>
            <AltitudeMeters>589.4000244140625</AltitudeMeters>
            <DistanceMeters>26045.130759721</DistanceMeters>
          </Trackpoint>
          <Trackpoint>
            <Time>2021-09-26T09:56:23.000Z</Time>
            <Position>
              <LatitudeDegrees>40.4253605939447879791259765625</LatitudeDegrees>
              <LongitudeDegrees>-3.72608394362032413482666015625</LongitudeDegrees>
            </Position>
            <AltitudeMeters>588.4000244140625</AltitudeMeters>
            <DistanceMeters>26057.750364634</DistanceMeters>
          </Trackpoint>
          <Trackpoint>
            <Time>2021-09-26T09:56:24.000Z</Time>
            <Position>
              <LatitudeDegrees>40.425341315567493438720703125</LatitudeDegrees>
              <LongitudeDegrees>-3.7260689400136470794677734375</LongitudeDegrees>
            </Position>
            <AltitudeMeters>588.4000244140625</AltitudeMeters>
            <DistanceMeters>26060.244702756</DistanceMeters>
          </Trackpoint>
          <Trackpoint>
            <Time>2021-09-26T09:56:30.000Z</Time>
            <Position>
              <LatitudeDegrees>40.425216257572174072265625</LatitudeDegrees>
              <LongitudeDegrees>-3.72596944682300090789794921875</LongitudeDegrees>
            </Position>
            <AltitudeMeters>588.4000244140625</AltitudeMeters>
            <DistanceMeters>26076.51759407</DistanceMeters>
          </Trackpoint>
          <Trackpoint>
            <Time>2021-09-26T09:56:37.000Z</Time>
            <Position>
              <LatitudeDegrees>40.42507854290306568145751953125</LatitudeDegrees>
              <LongitudeDegrees>-3.72586727142333984375</LongitudeDegrees>
            </Position>
            <AltitudeMeters>587.79998779296875</AltitudeMeters>
            <DistanceMeters>26094.121405118</DistanceMeters>
          </Trackpoint>
          <Trackpoint>
            <Time>2021-09-26T09:56:44.000Z</Time>
            <Position>
              <LatitudeDegrees>40.42494074441492557525634765625</LatitudeDegrees>
              <LongitudeDegrees>-3.72571916319429874420166015625</LongitudeDegrees>
            </Position>
            <AltitudeMeters>587.4000244140625</AltitudeMeters>
            <DistanceMeters>26113.938519554</DistanceMeters>
          </Trackpoint>
          <Trackpoint>
            <Time>2021-09-26T09:56:49.000Z</Time>
            <Position>
              <LatitudeDegrees>40.4248680733144283294677734375</LatitudeDegrees>
              <LongitudeDegrees>-3.72559829615056514739990234375</LongitudeDegrees>
            </Position>
            <AltitudeMeters>587.5999755859375</AltitudeMeters>
            <DistanceMeters>26126.988355248</DistanceMeters>
          </Trackpoint>
          <Trackpoint>
            <Time>2021-09-26T09:56:50.000Z</Time>
            <Position>
              <LatitudeDegrees>40.4248617030680179595947265625</LatitudeDegrees>
              <LongitudeDegrees>-3.725583292543888092041015625</LongitudeDegrees>
            </Position>
            <AltitudeMeters>587.79998779296875</AltitudeMeters>
            <DistanceMeters>26128.445087195</DistanceMeters>
          </Trackpoint>
          <Trackpoint>
            <Time>2021-09-26T09:56:51.000Z</Time>
            <Position>
              <LatitudeDegrees>40.42483915574848651885986328125</LatitudeDegrees>
              <LongitudeDegrees>-3.725563846528530120849609375</LongitudeDegrees>
            </Position>
            <AltitudeMeters>587.5999755859375</AltitudeMeters>
            <DistanceMeters>26131.447089242</DistanceMeters>
          </Trackpoint>
          <Trackpoint>
            <Time>2021-09-26T09:56:55.000Z</Time>
            <Position>
              <LatitudeDegrees>40.42481283657252788543701171875</LatitudeDegrees>
              <LongitudeDegrees>-3.7254439853131771087646484375</LongitudeDegrees>
            </Position>
            <AltitudeMeters>587.5999755859375</AltitudeMeters>
            <DistanceMeters>26142.016862455</DistanceMeters>
          </Trackpoint>
          <Trackpoint>
            <Time>2021-09-26T09:56:56.000Z</Time>
            <Position>
              <LatitudeDegrees>40.4248013533651828765869140625</LatitudeDegrees>
              <LongitudeDegrees>-3.72542479075491428375244140625</LongitudeDegrees>
            </Position>
            <AltitudeMeters>587.4000244140625</AltitudeMeters>
            <DistanceMeters>26144.085740468</DistanceMeters>
          </Trackpoint>
          <Trackpoint>
            <Time>2021-09-26T09:56:59.000Z</Time>
            <Position>
              <LatitudeDegrees>40.4247909598052501678466796875</LatitudeDegrees>
              <LongitudeDegrees>-3.725366033613681793212890625</LongitudeDegrees>
            </Position>
            <AltitudeMeters>587</AltitudeMeters>
            <DistanceMeters>26149.19690581</DistanceMeters>
          </Trackpoint>
          <Trackpoint>
            <Time>2021-09-26T09:57:02.000Z</Time>
            <Position>
              <LatitudeDegrees>40.4247715137898921966552734375</LatitudeDegrees>
              <LongitudeDegrees>-3.7252907641232013702392578125</LongitudeDegrees>
            </Position>
            <AltitudeMeters>586.79998779296875</AltitudeMeters>
            <DistanceMeters>26155.931746118</DistanceMeters>
          </Trackpoint>
          <Trackpoint>
            <Time>2021-09-26T09:57:04.000Z</Time>
            <Position>
              <LatitudeDegrees>40.4247661493718624114990234375</LatitudeDegrees>
              <LongitudeDegrees>-3.72524206526577472686767578125</LongitudeDegrees>
            </Position>
            <AltitudeMeters>587</AltitudeMeters>
            <DistanceMeters>26160.10102629</DistanceMeters>
          </Trackpoint>
          <Trackpoint>
            <Time>2021-09-26T09:57:08.000Z</Time>
            <Position>
              <LatitudeDegrees>40.4247296042740345001220703125</LatitudeDegrees>
              <LongitudeDegrees>-3.725183643400669097900390625</LongitudeDegrees>
            </Position>
            <AltitudeMeters>587.20001220703125</AltitudeMeters>
            <DistanceMeters>26166.506700912</DistanceMeters>
          </Trackpoint>
          <Trackpoint>
            <Time>2021-09-26T09:57:09.000Z</Time>
            <Position>
              <LatitudeDegrees>40.42471401393413543701171875</LatitudeDegrees>
              <LongitudeDegrees>-3.725170902907848358154296875</LongitudeDegrees>
            </Position>
            <AltitudeMeters>587.20001220703125</AltitudeMeters>
            <DistanceMeters>26168.551432042</DistanceMeters>
          </Trackpoint>
          <Trackpoint>
            <Time>2021-09-26T09:57:11.000Z</Time>
            <Position>
              <LatitudeDegrees>40.42467587627470493316650390625</LatitudeDegrees>
              <LongitudeDegrees>-3.72512438334524631500244140625</LongitudeDegrees>
            </Position>
            <AltitudeMeters>587.79998779296875</AltitudeMeters>
            <DistanceMeters>26174.344165772</DistanceMeters>
          </Trackpoint>
          <Trackpoint>
            <Time>2021-09-26T09:57:15.000Z</Time>
            <Position>
              <LatitudeDegrees>40.424602031707763671875</LatitudeDegrees>
              <LongitudeDegrees>-3.7250419892370700836181640625</LongitudeDegrees>
            </Position>
            <AltitudeMeters>588.20001220703125</AltitudeMeters>
            <DistanceMeters>26185.127918572</DistanceMeters>
          </Trackpoint>
          <Trackpoint>
            <Time>2021-09-26T09:57:20.000Z</Time>
            <Position>
              <LatitudeDegrees>40.42451913468539714813232421875</LatitudeDegrees>
              <LongitudeDegrees>-3.72490611858665943145751953125</LongitudeDegrees>
            </Position>
            <AltitudeMeters>589.5999755859375</AltitudeMeters>
            <DistanceMeters>26199.88125591</DistanceMeters>
          </Trackpoint>
          <Trackpoint>
            <Time>2021-09-26T09:57:27.000Z</Time>
            <Position>
              <LatitudeDegrees>40.42440581135451793670654296875</LatitudeDegrees>
              <LongitudeDegrees>-3.7247865088284015655517578125</LongitudeDegrees>
            </Position>
            <AltitudeMeters>591</AltitudeMeters>
            <DistanceMeters>26216.061490032</DistanceMeters>
          </Trackpoint>
          <Trackpoint>
            <Time>2021-09-26T09:57:29.000Z</Time>
            <Position>
              <LatitudeDegrees>40.42437479831278324127197265625</LatitudeDegrees>
              <LongitudeDegrees>-3.72475105337798595428466796875</LongitudeDegrees>
            </Position>
            <AltitudeMeters>591.4000244140625</AltitudeMeters>
            <DistanceMeters>26220.638582707</DistanceMeters>
          </Trackpoint>
          <Trackpoint>
            <Time>2021-09-26T09:57:32.000Z</Time>
            <Position>
              <LatitudeDegrees>40.42431578971445560455322265625</LatitudeDegrees>
              <LongitudeDegrees>-3.72467947192490100860595703125</LongitudeDegrees>
            </Position>
            <AltitudeMeters>592.5999755859375</AltitudeMeters>
            <DistanceMeters>26229.578167514</DistanceMeters>
          </Trackpoint>
          <Trackpoint>
            <Time>2021-09-26T09:57:33.000Z</Time>
            <Position>
              <LatitudeDegrees>40.42430656962096691131591796875</LatitudeDegrees>
              <LongitudeDegrees>-3.72466136701405048370361328125</LongitudeDegrees>
            </Position>
            <AltitudeMeters>592.79998779296875</AltitudeMeters>
            <DistanceMeters>26231.425698</DistanceMeters>
          </Trackpoint>
          <Trackpoint>
            <Time>2021-09-26T09:57:36.000Z</Time>
            <Position>
              <LatitudeDegrees>40.42427505366504192352294921875</LatitudeDegrees>
              <LongitudeDegrees>-3.7245933897793292999267578125</LongitudeDegrees>
            </Position>
            <AltitudeMeters>593.5999755859375</AltitudeMeters>
            <DistanceMeters>26238.16991738</DistanceMeters>
          </Trackpoint>
          <Trackpoint>
            <Time>2021-09-26T09:57:42.000Z</Time>
            <Position>
              <LatitudeDegrees>40.4242270253598690032958984375</LatitudeDegrees>
              <LongitudeDegrees>-3.7244351394474506378173828125</LongitudeDegrees>
            </Position>
            <AltitudeMeters>594.5999755859375</AltitudeMeters>
            <DistanceMeters>26252.60522285</DistanceMeters>
          </Trackpoint>
          <Trackpoint>
            <Time>2021-09-26T09:57:47.000Z</Time>
            <Position>
              <LatitudeDegrees>40.42416550219058990478515625</LatitudeDegrees>
              <LongitudeDegrees>-3.724346123635768890380859375</LongitudeDegrees>
            </Position>
            <AltitudeMeters>594.5999755859375</AltitudeMeters>
            <DistanceMeters>26262.792157546</DistanceMeters>
          </Trackpoint>
          <Trackpoint>
            <Time>2021-09-26T09:57:50.000Z</Time>
            <Position>
              <LatitudeDegrees>40.4241113550961017608642578125</LatitudeDegrees>
              <LongitudeDegrees>-3.7242993526160717010498046875</LongitudeDegrees>
            </Position>
            <AltitudeMeters>594.5999755859375</AltitudeMeters>
            <DistanceMeters>26270.005430068</DistanceMeters>
          </Trackpoint>
          <Trackpoint>
            <Time>2021-09-26T09:57:52.000Z</Time>
            <Position>
              <LatitudeDegrees>40.4240895621478557586669921875</LatitudeDegrees>
              <LongitudeDegrees>-3.72425853274762630462646484375</LongitudeDegrees>
            </Position>
            <AltitudeMeters>594.5999755859375</AltitudeMeters>
            <DistanceMeters>26274.230647355</DistanceMeters>
          </Trackpoint>
          <Trackpoint>
            <Time>2021-09-26T09:57:55.000Z</Time>
            <Position>
              <LatitudeDegrees>40.42404958046972751617431640625</LatitudeDegrees>
              <LongitudeDegrees>-3.72417923994362354278564453125</LongitudeDegrees>
            </Position>
            <AltitudeMeters>594.20001220703125</AltitudeMeters>
            <DistanceMeters>26282.288330002</DistanceMeters>
          </Trackpoint>
          <Trackpoint>
            <Time>2021-09-26T09:57:57.000Z</Time>
            <Position>
              <LatitudeDegrees>40.42401940561830997467041015625</LatitudeDegrees>
              <LongitudeDegrees>-3.72413179837167263031005859375</LongitudeDegrees>
            </Position>
            <AltitudeMeters>593.79998779296875</AltitudeMeters>
            <DistanceMeters>26287.52687964</DistanceMeters>
          </Trackpoint>
          <Trackpoint>
            <Time>2021-09-26T09:58:04.000Z</Time>
            <Position>
              <LatitudeDegrees>40.423872806131839752197265625</LatitudeDegrees>
              <LongitudeDegrees>-3.723992407321929931640625</LongitudeDegrees>
            </Position>
            <AltitudeMeters>593.20001220703125</AltitudeMeters>
            <DistanceMeters>26307.669629321</DistanceMeters>
          </Trackpoint>
          <Trackpoint>
            <Time>2021-09-26T09:58:12.000Z</Time>
            <Position>
              <LatitudeDegrees>40.42370189912617206573486328125</LatitudeDegrees>
              <LongitudeDegrees>-3.72388084419071674346923828125</LongitudeDegrees>
            </Position>
            <AltitudeMeters>591.79998779296875</AltitudeMeters>
            <DistanceMeters>26328.911022863</DistanceMeters>
          </Trackpoint>
          <Trackpoint>
            <Time>2021-09-26T09:58:18.000Z</Time>
            <Position>
              <LatitudeDegrees>40.423614978790283203125</LatitudeDegrees>
              <LongitudeDegrees>-3.723774142563343048095703125</LongitudeDegrees>
            </Position>
            <AltitudeMeters>590.79998779296875</AltitudeMeters>
            <DistanceMeters>26342.152169499</DistanceMeters>
          </Trackpoint>
          <Trackpoint>
            <Time>2021-09-26T09:58:22.000Z</Time>
            <Position>
              <LatitudeDegrees>40.42354381643235683441162109375</LatitudeDegrees>
              <LongitudeDegrees>-3.7236978672444820404052734375</LongitudeDegrees>
            </Position>
            <AltitudeMeters>590.4000244140625</AltitudeMeters>
            <DistanceMeters>26352.374500183</DistanceMeters>
          </Trackpoint>
          <Trackpoint>
            <Time>2021-09-26T09:58:24.000Z</Time>
            <Position>
              <LatitudeDegrees>40.42351481504738330841064453125</LatitudeDegrees>
              <LongitudeDegrees>-3.72363810427486896514892578125</LongitudeDegrees>
            </Position>
            <AltitudeMeters>590</AltitudeMeters>
            <DistanceMeters>26358.380008098</DistanceMeters>
          </Trackpoint>
          <Trackpoint>
            <Time>2021-09-26T09:58:25.000Z</Time>
            <Position>
              <LatitudeDegrees>40.423495285212993621826171875</LatitudeDegrees>
              <LongitudeDegrees>-3.72361865825951099395751953125</LongitudeDegrees>
            </Position>
            <AltitudeMeters>590</AltitudeMeters>
            <DistanceMeters>26361.107787962</DistanceMeters>
          </Trackpoint>
          <Trackpoint>
            <Time>2021-09-26T09:58:29.000Z</Time>
            <Position>
              <LatitudeDegrees>40.423401407897472381591796875</LatitudeDegrees>
              <LongitudeDegrees>-3.723564930260181427001953125</LongitudeDegrees>
            </Position>
            <AltitudeMeters>589.79998779296875</AltitudeMeters>
            <DistanceMeters>26372.50505297</DistanceMeters>
          </Trackpoint>
          <Trackpoint>
            <Time>2021-09-26T09:58:36.000Z</Time>
            <Position>
              <LatitudeDegrees>40.42329311370849609375</LatitudeDegrees>
              <LongitudeDegrees>-3.723400644958019256591796875</LongitudeDegrees>
            </Position>
            <AltitudeMeters>589.4000244140625</AltitudeMeters>
            <DistanceMeters>26390.918425291</DistanceMeters>
          </Trackpoint>
          <Trackpoint>
            <Time>2021-09-26T09:58:43.000Z</Time>
            <Position>
              <LatitudeDegrees>40.42316277511417865753173828125</LatitudeDegrees>
              <LongitudeDegrees>-3.72327382676303386688232421875</LongitudeDegrees>
            </Position>
            <AltitudeMeters>591.20001220703125</AltitudeMeters>
            <DistanceMeters>26408.971750444</DistanceMeters>
          </Trackpoint>
          <Trackpoint>
            <Time>2021-09-26T09:58:45.000Z</Time>
            <Position>
              <LatitudeDegrees>40.4231132380664348602294921875</LatitudeDegrees>
              <LongitudeDegrees>-3.7232402153313159942626953125</LongitudeDegrees>
            </Position>
            <AltitudeMeters>592</AltitudeMeters>
            <DistanceMeters>26415.176929407</DistanceMeters>
          </Trackpoint>
          <Trackpoint>
            <Time>2021-09-26T09:58:48.000Z</Time>
            <Position>
              <LatitudeDegrees>40.42307225055992603302001953125</LatitudeDegrees>
              <LongitudeDegrees>-3.72318598441779613494873046875</LongitudeDegrees>
            </Position>
            <AltitudeMeters>592.5999755859375</AltitudeMeters>
            <DistanceMeters>26421.651310833</DistanceMeters>
          </Trackpoint>
          <Trackpoint>
            <Time>2021-09-26T09:58:54.000Z</Time>
            <Position>
              <LatitudeDegrees>40.4229915328323841094970703125</LatitudeDegrees>
              <LongitudeDegrees>-3.72304089367389678955078125</LongitudeDegrees>
            </Position>
            <AltitudeMeters>593.5999755859375</AltitudeMeters>
            <DistanceMeters>26436.878137251</DistanceMeters>
          </Trackpoint>
          <Trackpoint>
            <Time>2021-09-26T09:59:00.000Z</Time>
            <Position>
              <LatitudeDegrees>40.422927998006343841552734375</LatitudeDegrees>
              <LongitudeDegrees>-3.72291659004986286163330078125</LongitudeDegrees>
            </Position>
            <AltitudeMeters>594.5999755859375</AltitudeMeters>
            <DistanceMeters>26449.564470546</DistanceMeters>
          </Trackpoint>
          <Trackpoint>
            <Time>2021-09-26T09:59:06.000Z</Time>
            <Position>
              <LatitudeDegrees>40.4228158481419086456298828125</LatitudeDegrees>
              <LongitudeDegrees>-3.72278700582683086395263671875</LongitudeDegrees>
            </Position>
            <AltitudeMeters>597.4000244140625</AltitudeMeters>
            <DistanceMeters>26466.188986167</DistanceMeters>
          </Trackpoint>
          <Trackpoint>
            <Time>2021-09-26T09:59:11.000Z</Time>
            <Position>
              <LatitudeDegrees>40.4227177798748016357421875</LatitudeDegrees>
              <LongitudeDegrees>-3.722687847912311553955078125</LongitudeDegrees>
            </Position>
            <AltitudeMeters>599.5999755859375</AltitudeMeters>
            <DistanceMeters>26479.963599274</DistanceMeters>
          </Trackpoint>
          <Trackpoint>
            <Time>2021-09-26T09:59:15.000Z</Time>
            <Position>
              <LatitudeDegrees>40.4226669855415821075439453125</LatitudeDegrees>
              <LongitudeDegrees>-3.72259690426290035247802734375</LongitudeDegrees>
            </Position>
            <AltitudeMeters>600.5999755859375</AltitudeMeters>
            <DistanceMeters>26489.521227291</DistanceMeters>
          </Trackpoint>
          <Trackpoint>
            <Time>2021-09-26T09:59:17.000Z</Time>
            <Position>
              <LatitudeDegrees>40.42262482456862926483154296875</LatitudeDegrees>
              <LongitudeDegrees>-3.72256211936473846435546875</LongitudeDegrees>
            </Position>
            <AltitudeMeters>601.4000244140625</AltitudeMeters>
            <DistanceMeters>26495.06300408</DistanceMeters>
          </Trackpoint>
          <Trackpoint>
            <Time>2021-09-26T09:59:21.000Z</Time>
            <Position>
              <LatitudeDegrees>40.4225717671215534210205078125</LatitudeDegrees>
              <LongitudeDegrees>-3.72247855179011821746826171875</LongitudeDegrees>
            </Position>
            <AltitudeMeters>602.20001220703125</AltitudeMeters>
            <DistanceMeters>26504.283044191</DistanceMeters>
          </Trackpoint>
          <Trackpoint>
            <Time>2021-09-26T09:59:26.000Z</Time>
            <Position>
              <LatitudeDegrees>40.4225187934935092926025390625</LatitudeDegrees>
              <LongitudeDegrees>-3.7223803997039794921875</LongitudeDegrees>
            </Position>
            <AltitudeMeters>602.5999755859375</AltitudeMeters>
            <DistanceMeters>26514.477510817</DistanceMeters>
          </Trackpoint>
          <Trackpoint>
            <Time>2021-09-26T09:59:34.000Z</Time>
            <Position>
              <LatitudeDegrees>40.42239884845912456512451171875</LatitudeDegrees>
              <LongitudeDegrees>-3.72220731340348720550537109375</LongitudeDegrees>
            </Position>
            <AltitudeMeters>601.79998779296875</AltitudeMeters>
            <DistanceMeters>26534.309884343</DistanceMeters>
          </Trackpoint>
          <Trackpoint>
            <Time>2021-09-26T09:59:40.000Z</Time>
            <Position>
              <LatitudeDegrees>40.4222837649285793304443359375</LatitudeDegrees>
              <LongitudeDegrees>-3.722089715301990509033203125</LongitudeDegrees>
            </Position>
            <AltitudeMeters>599.79998779296875</AltitudeMeters>
            <DistanceMeters>26550.538043494</DistanceMeters>
          </Trackpoint>
          <Trackpoint>
            <Time>2021-09-26T09:59:41.000Z</Time>
            <Position>
              <LatitudeDegrees>40.422272868454456329345703125</LatitudeDegrees>
              <LongitudeDegrees>-3.7220637314021587371826171875</LongitudeDegrees>
            </Position>
            <AltitudeMeters>599.4000244140625</AltitudeMeters>
            <DistanceMeters>26553.052214035</DistanceMeters>
          </Trackpoint>
          <Trackpoint>
            <Time>2021-09-26T09:59:44.000Z</Time>
            <Position>
              <LatitudeDegrees>40.42222031392157077789306640625</LatitudeDegrees>
              <LongitudeDegrees>-3.72201268561184406280517578125</LongitudeDegrees>
            </Position>
            <AltitudeMeters>598.20001220703125</AltitudeMeters>
            <DistanceMeters>26560.327810788</DistanceMeters>
          </Trackpoint>
          <Trackpoint>
            <Time>2021-09-26T09:59:49.000Z</Time>
            <Position>
              <LatitudeDegrees>40.422170273959636688232421875</LatitudeDegrees>
              <LongitudeDegrees>-3.72190640307962894439697265625</LongitudeDegrees>
            </Position>
            <AltitudeMeters>597.79998779296875</AltitudeMeters>
            <DistanceMeters>26570.916362584</DistanceMeters>
          </Trackpoint>
          <Trackpoint>
            <Time>2021-09-26T09:59:55.000Z</Time>
            <Position>
              <LatitudeDegrees>40.422115959227085113525390625</LatitudeDegrees>
              <LongitudeDegrees>-3.7217676825821399688720703125</LongitudeDegrees>
            </Position>
            <AltitudeMeters>597.20001220703125</AltitudeMeters>
            <DistanceMeters>26584.133618686</DistanceMeters>
          </Trackpoint>
          <Trackpoint>
            <Time>2021-09-26T10:00:01.000Z</Time>
            <Position>
              <LatitudeDegrees>40.42209391482174396514892578125</LatitudeDegrees>
              <LongitudeDegrees>-3.72161529958248138427734375</LongitudeDegrees>
            </Position>
            <AltitudeMeters>596.20001220703125</AltitudeMeters>
            <DistanceMeters>26597.276194622</DistanceMeters>
          </Trackpoint>
          <Trackpoint>
            <Time>2021-09-26T10:00:02.000Z</Time>
            <Position>
              <LatitudeDegrees>40.42209140025079250335693359375</LatitudeDegrees>
              <LongitudeDegrees>-3.7215933389961719512939453125</LongitudeDegrees>
            </Position>
            <AltitudeMeters>596</AltitudeMeters>
            <DistanceMeters>26599.157627577</DistanceMeters>
          </Trackpoint>
          <Trackpoint>
            <Time>2021-09-26T10:00:04.000Z</Time>
            <Position>
              <LatitudeDegrees>40.422098524868488311767578125</LatitudeDegrees>
              <LongitudeDegrees>-3.72154547832906246185302734375</LongitudeDegrees>
            </Position>
            <AltitudeMeters>595.5999755859375</AltitudeMeters>
            <DistanceMeters>26603.288831334</DistanceMeters>
          </Trackpoint>
          <Trackpoint>
            <Time>2021-09-26T10:00:06.000Z</Time>
            <Position>
              <LatitudeDegrees>40.4221198149025440216064453125</LatitudeDegrees>
              <LongitudeDegrees>-3.7214930914342403411865234375</LongitudeDegrees>
            </Position>
            <AltitudeMeters>595.4000244140625</AltitudeMeters>
            <DistanceMeters>26608.320762807</DistanceMeters>
          </Trackpoint>
          <Trackpoint>
            <Time>2021-09-26T10:00:07.000Z</Time>
            <Position>
              <LatitudeDegrees>40.422121323645114898681640625</LatitudeDegrees>
              <LongitudeDegrees>-3.72146585024893283843994140625</LongitudeDegrees>
            </Position>
            <AltitudeMeters>595.20001220703125</AltitudeMeters>
            <DistanceMeters>26610.636764838</DistanceMeters>
          </Trackpoint>
          <Trackpoint>
            <Time>2021-09-26T10:00:08.000Z</Time>
            <Position>
              <LatitudeDegrees>40.42212727479636669158935546875</LatitudeDegrees>
              <LongitudeDegrees>-3.7214362621307373046875</LongitudeDegrees>
            </Position>
            <AltitudeMeters>594.79998779296875</AltitudeMeters>
            <DistanceMeters>26613.228748031</DistanceMeters>
          </Trackpoint>
          <Trackpoint>
            <Time>2021-09-26T10:00:12.000Z</Time>
            <Position>
              <LatitudeDegrees>40.422156192362308502197265625</LatitudeDegrees>
              <LongitudeDegrees>-3.72131229378283023834228515625</LongitudeDegrees>
            </Position>
            <AltitudeMeters>594</AltitudeMeters>
            <DistanceMeters>26624.214921239</DistanceMeters>
          </Trackpoint>
          <Trackpoint>
            <Time>2021-09-26T10:00:13.000Z</Time>
            <Position>
              <LatitudeDegrees>40.422160215675830841064453125</LatitudeDegrees>
              <LongitudeDegrees>-3.7212828733026981353759765625</LongitudeDegrees>
            </Position>
            <AltitudeMeters>593.79998779296875</AltitudeMeters>
            <DistanceMeters>26626.746986459</DistanceMeters>
          </Trackpoint>
          <Trackpoint>
            <Time>2021-09-26T10:00:16.000Z</Time>
            <Position>
              <LatitudeDegrees>40.4221706092357635498046875</LatitudeDegrees>
              <LongitudeDegrees>-3.72121120803058147430419921875</LongitudeDegrees>
            </Position>
            <AltitudeMeters>593.20001220703125</AltitudeMeters>
            <DistanceMeters>26632.928837598</DistanceMeters>
          </Trackpoint>
          <Trackpoint>
            <Time>2021-09-26T10:00:17.000Z</Time>
            <Position>
              <LatitudeDegrees>40.422163568437099456787109375</LatitudeDegrees>
              <LongitudeDegrees>-3.72118421830236911773681640625</LongitudeDegrees>
            </Position>
            <AltitudeMeters>593</AltitudeMeters>
            <DistanceMeters>26635.347822827</DistanceMeters>
          </Trackpoint>
          <Trackpoint>
            <Time>2021-09-26T10:00:23.000Z</Time>
            <Position>
              <LatitudeDegrees>40.42210933752357959747314453125</LatitudeDegrees>
              <LongitudeDegrees>-3.7210404686629772186279296875</LongitudeDegrees>
            </Position>
            <AltitudeMeters>591.5999755859375</AltitudeMeters>
            <DistanceMeters>26648.941293843</DistanceMeters>
          </Trackpoint>
          <Trackpoint>
            <Time>2021-09-26T10:00:29.000Z</Time>
            <Position>
              <LatitudeDegrees>40.4220058210194110870361328125</LatitudeDegrees>
              <LongitudeDegrees>-3.72094181366264820098876953125</LongitudeDegrees>
            </Position>
            <AltitudeMeters>591</AltitudeMeters>
            <DistanceMeters>26663.175648596</DistanceMeters>
          </Trackpoint>
          <Trackpoint>
            <Time>2021-09-26T10:00:31.000Z</Time>
            <Position>
              <LatitudeDegrees>40.42198360897600650787353515625</LatitudeDegrees>
              <LongitudeDegrees>-3.72089856304228305816650390625</LongitudeDegrees>
            </Position>
            <AltitudeMeters>590.79998779296875</AltitudeMeters>
            <DistanceMeters>26667.59617859</DistanceMeters>
          </Trackpoint>
          <Trackpoint>
            <Time>2021-09-26T10:00:33.000Z</Time>
            <Position>
              <LatitudeDegrees>40.42194941081106662750244140625</LatitudeDegrees>
              <LongitudeDegrees>-3.7208577431738376617431640625</LongitudeDegrees>
            </Position>
            <AltitudeMeters>591</AltitudeMeters>
            <DistanceMeters>26672.739924694</DistanceMeters>
          </Trackpoint>
          <Trackpoint>
            <Time>2021-09-26T10:00:38.000Z</Time>
            <Position>
              <LatitudeDegrees>40.4218401946127414703369140625</LatitudeDegrees>
              <LongitudeDegrees>-3.72078607790172100067138671875</LongitudeDegrees>
            </Position>
            <AltitudeMeters>592.4000244140625</AltitudeMeters>
            <DistanceMeters>26686.328412583</DistanceMeters>
          </Trackpoint>
          <Trackpoint>
            <Time>2021-09-26T10:00:44.000Z</Time>
            <Position>
              <LatitudeDegrees>40.42166970670223236083984375</LatitudeDegrees>
              <LongitudeDegrees>-3.72071499936282634735107421875</LongitudeDegrees>
            </Position>
            <AltitudeMeters>593.5999755859375</AltitudeMeters>
            <DistanceMeters>26706.23690613</DistanceMeters>
          </Trackpoint>
          <Trackpoint>
            <Time>2021-09-26T10:00:49.000Z</Time>
            <Position>
              <LatitudeDegrees>40.421464852988719940185546875</LatitudeDegrees>
              <LongitudeDegrees>-3.72064031660556793212890625</LongitudeDegrees>
            </Position>
            <AltitudeMeters>593.5999755859375</AltitudeMeters>
            <DistanceMeters>26729.899512072</DistanceMeters>
          </Trackpoint>
          <Trackpoint>
            <Time>2021-09-26T10:00:50.000Z</Time>
            <Position>
              <LatitudeDegrees>40.4214261285960674285888671875</LatitudeDegrees>
              <LongitudeDegrees>-3.72062548063695430755615234375</LongitudeDegrees>
            </Position>
            <AltitudeMeters>593.4000244140625</AltitudeMeters>
            <DistanceMeters>26734.388958655</DistanceMeters>
          </Trackpoint>
          <Trackpoint>
            <Time>2021-09-26T10:00:55.000Z</Time>
            <Position>
              <LatitudeDegrees>40.4212869890034198760986328125</LatitudeDegrees>
              <LongitudeDegrees>-3.72054082341492176055908203125</LongitudeDegrees>
            </Position>
            <AltitudeMeters>593.5999755859375</AltitudeMeters>
            <DistanceMeters>26751.455978777</DistanceMeters>
          </Trackpoint>
          <Trackpoint>
            <Time>2021-09-26T10:00:59.000Z</Time>
            <Position>
              <LatitudeDegrees>40.42117525823414325714111328125</LatitudeDegrees>
              <LongitudeDegrees>-3.72047862969338893890380859375</LongitudeDegrees>
            </Position>
            <AltitudeMeters>594</AltitudeMeters>
            <DistanceMeters>26764.962481075</DistanceMeters>
          </Trackpoint>
          <Trackpoint>
            <Time>2021-09-26T10:01:01.000Z</Time>
            <Position>
              <LatitudeDegrees>40.42111222632229328155517578125</LatitudeDegrees>
              <LongitudeDegrees>-3.72046354226768016815185546875</LongitudeDegrees>
            </Position>
            <AltitudeMeters>593.79998779296875</AltitudeMeters>
            <DistanceMeters>26772.093917854</DistanceMeters>
          </Trackpoint>
          <Trackpoint>
            <Time>2021-09-26T10:01:04.000Z</Time>
            <Position>
              <LatitudeDegrees>40.4209138266742229461669921875</LatitudeDegrees>
              <LongitudeDegrees>-3.7204822339117527008056640625</LongitudeDegrees>
            </Position>
            <AltitudeMeters>597.4000244140625</AltitudeMeters>
            <DistanceMeters>26794.232899069</DistanceMeters>
          </Trackpoint>
          <Trackpoint>
            <Time>2021-09-26T10:01:06.000Z</Time>
            <Position>
              <LatitudeDegrees>40.42075197212398052215576171875</LatitudeDegrees>
              <LongitudeDegrees>-3.72053227387368679046630859375</LongitudeDegrees>
            </Position>
            <AltitudeMeters>599.5999755859375</AltitudeMeters>
            <DistanceMeters>26812.739702398</DistanceMeters>
          </Trackpoint>
          <Trackpoint>
            <Time>2021-09-26T10:01:11.000Z</Time>
            <Position>
              <LatitudeDegrees>40.42056136764585971832275390625</LatitudeDegrees>
              <LongitudeDegrees>-3.7205570004880428314208984375</LongitudeDegrees>
            </Position>
            <AltitudeMeters>601.20001220703125</AltitudeMeters>
            <DistanceMeters>26834.057267855</DistanceMeters>
          </Trackpoint>
          <Trackpoint>
            <Time>2021-09-26T10:01:12.000Z</Time>
            <Position>
              <LatitudeDegrees>40.42053320445120334625244140625</LatitudeDegrees>
              <LongitudeDegrees>-3.72055658139288425445556640625</LongitudeDegrees>
            </Position>
            <AltitudeMeters>601.79998779296875</AltitudeMeters>
            <DistanceMeters>26837.1917093</DistanceMeters>
          </Trackpoint>
          <Trackpoint>
            <Time>2021-09-26T10:01:15.000Z</Time>
            <Position>
              <LatitudeDegrees>40.42044737376272678375244140625</LatitudeDegrees>
              <LongitudeDegrees>-3.72056965716183185577392578125</LongitudeDegrees>
            </Position>
            <AltitudeMeters>601.5999755859375</AltitudeMeters>
            <DistanceMeters>26846.80867571</DistanceMeters>
          </Trackpoint>
          <Trackpoint>
            <Time>2021-09-26T10:01:20.000Z</Time>
            <Position>
              <LatitudeDegrees>40.42027437128126621246337890625</LatitudeDegrees>
              <LongitudeDegrees>-3.7205821461975574493408203125</LongitudeDegrees>
            </Position>
            <AltitudeMeters>601</AltitudeMeters>
            <DistanceMeters>26866.093246441</DistanceMeters>
          </Trackpoint>
          <Trackpoint>
            <Time>2021-09-26T10:01:26.000Z</Time>
            <Position>
              <LatitudeDegrees>40.42008125223219394683837890625</LatitudeDegrees>
              <LongitudeDegrees>-3.7205388955771923065185546875</LongitudeDegrees>
            </Position>
            <AltitudeMeters>598.20001220703125</AltitudeMeters>
            <DistanceMeters>26887.897684631</DistanceMeters>
          </Trackpoint>
          <Trackpoint>
            <Time>2021-09-26T10:01:32.000Z</Time>
            <Position>
              <LatitudeDegrees>40.4199358262121677398681640625</LatitudeDegrees>
              <LongitudeDegrees>-3.720453567802906036376953125</LongitudeDegrees>
            </Position>
            <AltitudeMeters>595.5999755859375</AltitudeMeters>
            <DistanceMeters>26905.625197722</DistanceMeters>
          </Trackpoint>
          <Trackpoint>
            <Time>2021-09-26T10:01:33.000Z</Time>
            <Position>
              <LatitudeDegrees>40.41991076432168483734130859375</LatitudeDegrees>
              <LongitudeDegrees>-3.72043822892010211944580078125</LongitudeDegrees>
            </Position>
            <AltitudeMeters>595</AltitudeMeters>
            <DistanceMeters>26908.701481213</DistanceMeters>
          </Trackpoint>
          <Trackpoint>
            <Time>2021-09-26T10:01:37.000Z</Time>
            <Position>
              <LatitudeDegrees>40.4198080860078334808349609375</LatitudeDegrees>
              <LongitudeDegrees>-3.7204423360526561737060546875</LongitudeDegrees>
            </Position>
            <AltitudeMeters>593.5999755859375</AltitudeMeters>
            <DistanceMeters>26920.13473913</DistanceMeters>
          </Trackpoint>
          <Trackpoint>
            <Time>2021-09-26T10:01:45.000Z</Time>
            <Position>
              <LatitudeDegrees>40.4196189902722835540771484375</LatitudeDegrees>
              <LongitudeDegrees>-3.7205345369875431060791015625</LongitudeDegrees>
            </Position>
            <AltitudeMeters>591</AltitudeMeters>
            <DistanceMeters>26942.58478783</DistanceMeters>
          </Trackpoint>
          <Trackpoint>
            <Time>2021-09-26T10:01:49.000Z</Time>
            <Position>
              <LatitudeDegrees>40.41952419094741344451904296875</LatitudeDegrees>
              <LongitudeDegrees>-3.7205868400633335113525390625</LongitudeDegrees>
            </Position>
            <AltitudeMeters>589.4000244140625</AltitudeMeters>
            <DistanceMeters>26954.029097715</DistanceMeters>
          </Trackpoint>
          <Trackpoint>
            <Time>2021-09-26T10:01:51.000Z</Time>
            <Position>
              <LatitudeDegrees>40.41947809047996997833251953125</LatitudeDegrees>
              <LongitudeDegrees>-3.72060100547969341278076171875</LongitudeDegrees>
            </Position>
            <AltitudeMeters>588.79998779296875</AltitudeMeters>
            <DistanceMeters>26959.297727042</DistanceMeters>
          </Trackpoint>
          <Trackpoint>
            <Time>2021-09-26T10:01:52.000Z</Time>
            <Position>
              <LatitudeDegrees>40.41945277713239192962646484375</LatitudeDegrees>
              <LongitudeDegrees>-3.72060569934546947479248046875</LongitudeDegrees>
            </Position>
            <AltitudeMeters>588.4000244140625</AltitudeMeters>
            <DistanceMeters>26962.142186305</DistanceMeters>
          </Trackpoint>
          <Trackpoint>
            <Time>2021-09-26T10:01:53.000Z</Time>
            <Position>
              <LatitudeDegrees>40.41942494921386241912841796875</LatitudeDegrees>
              <LongitudeDegrees>-3.72061349451541900634765625</LongitudeDegrees>
            </Position>
            <AltitudeMeters>588</AltitudeMeters>
            <DistanceMeters>26965.308159276</DistanceMeters>
          </Trackpoint>
          <Trackpoint>
            <Time>2021-09-26T10:02:01.000Z</Time>
            <Position>
              <LatitudeDegrees>40.4192297346889972686767578125</LatitudeDegrees>
              <LongitudeDegrees>-3.72064241208136081695556640625</LongitudeDegrees>
            </Position>
            <AltitudeMeters>587.79998779296875</AltitudeMeters>
            <DistanceMeters>26987.173597696</DistanceMeters>
          </Trackpoint>
          <Trackpoint>
            <Time>2021-09-26T10:02:08.000Z</Time>
            <Position>
              <LatitudeDegrees>40.41904977522790431976318359375</LatitudeDegrees>
              <LongitudeDegrees>-3.72069119475781917572021484375</LongitudeDegrees>
            </Position>
            <AltitudeMeters>588.4000244140625</AltitudeMeters>
            <DistanceMeters>27007.625766311</DistanceMeters>
          </Trackpoint>
          <Trackpoint>
            <Time>2021-09-26T10:02:09.000Z</Time>
            <Position>
              <LatitudeDegrees>40.41902630589902400970458984375</LatitudeDegrees>
              <LongitudeDegrees>-3.7206961400806903839111328125</LongitudeDegrees>
            </Position>
            <AltitudeMeters>588.79998779296875</AltitudeMeters>
            <DistanceMeters>27010.27290426</DistanceMeters>
          </Trackpoint>
          <Trackpoint>
            <Time>2021-09-26T10:02:15.000Z</Time>
            <Position>
              <LatitudeDegrees>40.4188874177634716033935546875</LatitudeDegrees>
              <LongitudeDegrees>-3.7207380495965480804443359375</LongitudeDegrees>
            </Position>
            <AltitudeMeters>590</AltitudeMeters>
            <DistanceMeters>27026.134397248</DistanceMeters>
          </Trackpoint>
          <Trackpoint>
            <Time>2021-09-26T10:02:21.000Z</Time>
            <Position>
              <LatitudeDegrees>40.41877853684127330780029296875</LatitudeDegrees>
              <LongitudeDegrees>-3.72084776870906352996826171875</LongitudeDegrees>
            </Position>
            <AltitudeMeters>590.20001220703125</AltitudeMeters>
            <DistanceMeters>27041.408888567</DistanceMeters>
          </Trackpoint>
          <Trackpoint>
            <Time>2021-09-26T10:02:27.000Z</Time>
            <Position>
              <LatitudeDegrees>40.41875154711306095123291015625</LatitudeDegrees>
              <LongitudeDegrees>-3.7210622616112232208251953125</LongitudeDegrees>
            </Position>
            <AltitudeMeters>588.79998779296875</AltitudeMeters>
            <DistanceMeters>27059.83084104</DistanceMeters>
          </Trackpoint>
          <Trackpoint>
            <Time>2021-09-26T10:02:33.000Z</Time>
            <Position>
              <LatitudeDegrees>40.418785996735095977783203125</LatitudeDegrees>
              <LongitudeDegrees>-3.72122864238917827606201171875</LongitudeDegrees>
            </Position>
            <AltitudeMeters>586.79998779296875</AltitudeMeters>
            <DistanceMeters>27074.441488088</DistanceMeters>
          </Trackpoint>
          <Trackpoint>
            <Time>2021-09-26T10:02:34.000Z</Time>
            <Position>
              <LatitudeDegrees>40.41878943331539630889892578125</LatitudeDegrees>
              <LongitudeDegrees>-3.72125563211739063262939453125</LongitudeDegrees>
            </Position>
            <AltitudeMeters>586.5999755859375</AltitudeMeters>
            <DistanceMeters>27076.759438795</DistanceMeters>
          </Trackpoint>
          <Trackpoint>
            <Time>2021-09-26T10:02:39.000Z</Time>
            <Position>
              <LatitudeDegrees>40.41880250908434391021728515625</LatitudeDegrees>
              <LongitudeDegrees>-3.7214270420372486114501953125</LongitudeDegrees>
            </Position>
            <AltitudeMeters>586.4000244140625</AltitudeMeters>
            <DistanceMeters>27091.356791769</DistanceMeters>
          </Trackpoint>
          <Trackpoint>
            <Time>2021-09-26T10:02:44.000Z</Time>
            <Position>
              <LatitudeDegrees>40.4188307560980319976806640625</LatitudeDegrees>
              <LongitudeDegrees>-3.7215997092425823211669921875</LongitudeDegrees>
            </Position>
            <AltitudeMeters>585.5999755859375</AltitudeMeters>
            <DistanceMeters>27106.322217121</DistanceMeters>
          </Trackpoint>
          <Trackpoint>
            <Time>2021-09-26T10:02:51.000Z</Time>
            <Position>
              <LatitudeDegrees>40.41884131729602813720703125</LatitudeDegrees>
              <LongitudeDegrees>-3.72183415107429027557373046875</LongitudeDegrees>
            </Position>
            <AltitudeMeters>584.79998779296875</AltitudeMeters>
            <DistanceMeters>27126.222544569</DistanceMeters>
          </Trackpoint>
          <Trackpoint>
            <Time>2021-09-26T10:02:53.000Z</Time>
            <Position>
              <LatitudeDegrees>40.418840982019901275634765625</LatitudeDegrees>
              <LongitudeDegrees>-3.72190237976610660552978515625</LongitudeDegrees>
            </Position>
            <AltitudeMeters>584.4000244140625</AltitudeMeters>
            <DistanceMeters>27132.002793944</DistanceMeters>
          </Trackpoint>
          <Trackpoint>
            <Time>2021-09-26T10:02:59.000Z</Time>
            <Position>
              <LatitudeDegrees>40.418842323124408721923828125</LatitudeDegrees>
              <LongitudeDegrees>-3.72210689820349216461181640625</LongitudeDegrees>
            </Position>
            <AltitudeMeters>584</AltitudeMeters>
            <DistanceMeters>27149.333645126</DistanceMeters>
          </Trackpoint>
          <Trackpoint>
            <Time>2021-09-26T10:03:04.000Z</Time>
            <Position>
              <LatitudeDegrees>40.41884575970470905303955078125</LatitudeDegrees>
              <LongitudeDegrees>-3.72227084822952747344970703125</LongitudeDegrees>
            </Position>
            <AltitudeMeters>584</AltitudeMeters>
            <DistanceMeters>27163.231606672</DistanceMeters>
          </Trackpoint>
          <Trackpoint>
            <Time>2021-09-26T10:03:11.000Z</Time>
            <Position>
              <LatitudeDegrees>40.4188535548746585845947265625</LatitudeDegrees>
              <LongitudeDegrees>-3.72248961590230464935302734375</LongitudeDegrees>
            </Position>
            <AltitudeMeters>584.5999755859375</AltitudeMeters>
            <DistanceMeters>27181.789572226</DistanceMeters>
          </Trackpoint>
          <Trackpoint>
            <Time>2021-09-26T10:03:13.000Z</Time>
            <Position>
              <LatitudeDegrees>40.4188552312552928924560546875</LatitudeDegrees>
              <LongitudeDegrees>-3.722545020282268524169921875</LongitudeDegrees>
            </Position>
            <AltitudeMeters>584.79998779296875</AltitudeMeters>
            <DistanceMeters>27186.48835259</DistanceMeters>
          </Trackpoint>
          <Trackpoint>
            <Time>2021-09-26T10:03:16.000Z</Time>
            <Position>
              <LatitudeDegrees>40.4188656248152256011962890625</LatitudeDegrees>
              <LongitudeDegrees>-3.722626827657222747802734375</LongitudeDegrees>
            </Position>
            <AltitudeMeters>585.20001220703125</AltitudeMeters>
            <DistanceMeters>27193.516475963</DistanceMeters>
          </Trackpoint>
          <Trackpoint>
            <Time>2021-09-26T10:03:19.000Z</Time>
            <Position>
              <LatitudeDegrees>40.418882556259632110595703125</LatitudeDegrees>
              <LongitudeDegrees>-3.72271827422082424163818359375</LongitudeDegrees>
            </Position>
            <AltitudeMeters>585.5999755859375</AltitudeMeters>
            <DistanceMeters>27201.490797145</DistanceMeters>
          </Trackpoint>
          <Trackpoint>
            <Time>2021-09-26T10:03:21.000Z</Time>
            <Position>
              <LatitudeDegrees>40.41887325234711170196533203125</LatitudeDegrees>
              <LongitudeDegrees>-3.72278113849461078643798828125</LongitudeDegrees>
            </Position>
            <AltitudeMeters>585.79998779296875</AltitudeMeters>
            <DistanceMeters>27206.918145426</DistanceMeters>
          </Trackpoint>
          <Trackpoint>
            <Time>2021-09-26T10:03:26.000Z</Time>
            <Position>
              <LatitudeDegrees>40.41885212995111942291259765625</LatitudeDegrees>
              <LongitudeDegrees>-3.722886331379413604736328125</LongitudeDegrees>
            </Position>
            <AltitudeMeters>585.79998779296875</AltitudeMeters>
            <DistanceMeters>27216.137206088</DistanceMeters>
          </Trackpoint>
          <Trackpoint>
            <Time>2021-09-26T10:03:28.000Z</Time>
            <Position>
              <LatitudeDegrees>40.41884290985763072967529296875</LatitudeDegrees>
              <LongitudeDegrees>-3.722957074642181396484375</LongitudeDegrees>
            </Position>
            <AltitudeMeters>585.5999755859375</AltitudeMeters>
            <DistanceMeters>27222.218915807</DistanceMeters>
          </Trackpoint>
          <Trackpoint>
            <Time>2021-09-26T10:03:34.000Z</Time>
            <Position>
              <LatitudeDegrees>40.41879379190504550933837890625</LatitudeDegrees>
              <LongitudeDegrees>-3.72316536493599414825439453125</LongitudeDegrees>
            </Position>
            <AltitudeMeters>584.79998779296875</AltitudeMeters>
            <DistanceMeters>27240.69617562</DistanceMeters>
          </Trackpoint>
          <Trackpoint>
            <Time>2021-09-26T10:03:41.000Z</Time>
            <Position>
              <LatitudeDegrees>40.418733023107051849365234375</LatitudeDegrees>
              <LongitudeDegrees>-3.72338882647454738616943359375</LongitudeDegrees>
            </Position>
            <AltitudeMeters>584.5999755859375</AltitudeMeters>
            <DistanceMeters>27260.803702636</DistanceMeters>
          </Trackpoint>
          <Trackpoint>
            <Time>2021-09-26T10:03:48.000Z</Time>
            <Position>
              <LatitudeDegrees>40.41869203560054302215576171875</LatitudeDegrees>
              <LongitudeDegrees>-3.7235775031149387359619140625</LongitudeDegrees>
            </Position>
            <AltitudeMeters>583.5999755859375</AltitudeMeters>
            <DistanceMeters>27277.429847713</DistanceMeters>
          </Trackpoint>
          <Trackpoint>
            <Time>2021-09-26T10:03:55.000Z</Time>
            <Position>
              <LatitudeDegrees>40.41866186074912548065185546875</LatitudeDegrees>
              <LongitudeDegrees>-3.72377187944948673248291015625</LongitudeDegrees>
            </Position>
            <AltitudeMeters>583</AltitudeMeters>
            <DistanceMeters>27294.239641051</DistanceMeters>
          </Trackpoint>
          <Trackpoint>
            <Time>2021-09-26T10:04:03.000Z</Time>
            <Position>
              <LatitudeDegrees>40.418607629835605621337890625</LatitudeDegrees>
              <LongitudeDegrees>-3.724018223583698272705078125</LongitudeDegrees>
            </Position>
            <AltitudeMeters>583</AltitudeMeters>
            <DistanceMeters>27315.969406288</DistanceMeters>
          </Trackpoint>
          <Trackpoint>
            <Time>2021-09-26T10:04:09.000Z</Time>
            <Position>
              <LatitudeDegrees>40.41858851909637451171875</LatitudeDegrees>
              <LongitudeDegrees>-3.724202625453472137451171875</LongitudeDegrees>
            </Position>
            <AltitudeMeters>583</AltitudeMeters>
            <DistanceMeters>27331.739260608</DistanceMeters>
          </Trackpoint>
          <Trackpoint>
            <Time>2021-09-26T10:04:15.000Z</Time>
            <Position>
              <LatitudeDegrees>40.4185705818235874176025390625</LatitudeDegrees>
              <LongitudeDegrees>-3.72440907172858715057373046875</LongitudeDegrees>
            </Position>
            <AltitudeMeters>583</AltitudeMeters>
            <DistanceMeters>27349.34666202</DistanceMeters>
          </Trackpoint>
          <Trackpoint>
            <Time>2021-09-26T10:04:18.000Z</Time>
            <Position>
              <LatitudeDegrees>40.41855591349303722381591796875</LatitudeDegrees>
              <LongitudeDegrees>-3.72451208531856536865234375</LongitudeDegrees>
            </Position>
            <AltitudeMeters>583.20001220703125</AltitudeMeters>
            <DistanceMeters>27358.227466469</DistanceMeters>
          </Trackpoint>
          <Trackpoint>
            <Time>2021-09-26T10:04:19.000Z</Time>
            <Position>
              <LatitudeDegrees>40.41855490766465663909912109375</LatitudeDegrees>
              <LongitudeDegrees>-3.7245417572557926177978515625</LongitudeDegrees>
            </Position>
            <AltitudeMeters>583.20001220703125</AltitudeMeters>
            <DistanceMeters>27360.745226121</DistanceMeters>
          </Trackpoint>
          <Trackpoint>
            <Time>2021-09-26T10:04:22.000Z</Time>
            <Position>
              <LatitudeDegrees>40.41854719631373882293701171875</LatitudeDegrees>
              <LongitudeDegrees>-3.72461878694593906402587890625</LongitudeDegrees>
            </Position>
            <AltitudeMeters>583.5999755859375</AltitudeMeters>
            <DistanceMeters>27367.328184183</DistanceMeters>
          </Trackpoint>
          <Trackpoint>
            <Time>2021-09-26T10:04:23.000Z</Time>
            <Position>
              <LatitudeDegrees>40.41854560375213623046875</LatitudeDegrees>
              <LongitudeDegrees>-3.72465315274894237518310546875</LongitudeDegrees>
            </Position>
            <AltitudeMeters>583.5999755859375</AltitudeMeters>
            <DistanceMeters>27370.246293518</DistanceMeters>
          </Trackpoint>
          <Trackpoint>
            <Time>2021-09-26T10:04:24.000Z</Time>
            <Position>
              <LatitudeDegrees>40.4185430891811847686767578125</LatitudeDegrees>
              <LongitudeDegrees>-3.72467930428683757781982421875</LongitudeDegrees>
            </Position>
            <AltitudeMeters>583.79998779296875</AltitudeMeters>
            <DistanceMeters>27372.480937174</DistanceMeters>
          </Trackpoint>
          <Trackpoint>
            <Time>2021-09-26T10:04:30.000Z</Time>
            <Position>
              <LatitudeDegrees>40.41853127069771289825439453125</LatitudeDegrees>
              <LongitudeDegrees>-3.72488147579133510589599609375</LongitudeDegrees>
            </Position>
            <AltitudeMeters>584.4000244140625</AltitudeMeters>
            <DistanceMeters>27389.662650101</DistanceMeters>
          </Trackpoint>
          <Trackpoint>
            <Time>2021-09-26T10:04:36.000Z</Time>
            <Position>
              <LatitudeDegrees>40.4185182787477970123291015625</LatitudeDegrees>
              <LongitudeDegrees>-3.72505615465342998504638671875</LongitudeDegrees>
            </Position>
            <AltitudeMeters>585</AltitudeMeters>
            <DistanceMeters>27404.53486219</DistanceMeters>
          </Trackpoint>
          <Trackpoint>
            <Time>2021-09-26T10:04:43.000Z</Time>
            <Position>
              <LatitudeDegrees>40.4185038618743419647216796875</LatitudeDegrees>
              <LongitudeDegrees>-3.72527140192687511444091796875</LongitudeDegrees>
            </Position>
            <AltitudeMeters>584.20001220703125</AltitudeMeters>
            <DistanceMeters>27422.844712492</DistanceMeters>
          </Trackpoint>
          <Trackpoint>
            <Time>2021-09-26T10:04:49.000Z</Time>
            <Position>
              <LatitudeDegrees>40.4184958152472972869873046875</LatitudeDegrees>
              <LongitudeDegrees>-3.725425042212009429931640625</LongitudeDegrees>
            </Position>
            <AltitudeMeters>583</AltitudeMeters>
            <DistanceMeters>27435.894202197</DistanceMeters>
          </Trackpoint>
          <Trackpoint>
            <Time>2021-09-26T10:04:58.000Z</Time>
            <Position>
              <LatitudeDegrees>40.41848349384963512420654296875</LatitudeDegrees>
              <LongitudeDegrees>-3.72566350735723972320556640625</LongitudeDegrees>
            </Position>
            <AltitudeMeters>582.5999755859375</AltitudeMeters>
            <DistanceMeters>27456.147603209</DistanceMeters>
          </Trackpoint>
          <Trackpoint>
            <Time>2021-09-26T10:04:59.000Z</Time>
            <Position>
              <LatitudeDegrees>40.41847519576549530029296875</LatitudeDegrees>
              <LongitudeDegrees>-3.72568823397159576416015625</LongitudeDegrees>
            </Position>
            <AltitudeMeters>582.5999755859375</AltitudeMeters>
            <DistanceMeters>27458.436149546</DistanceMeters>
          </Trackpoint>
          <Trackpoint>
            <Time>2021-09-26T10:05:05.000Z</Time>
            <Position>
              <LatitudeDegrees>40.4184683226048946380615234375</LatitudeDegrees>
              <LongitudeDegrees>-3.7258365936577320098876953125</LongitudeDegrees>
            </Position>
            <AltitudeMeters>582.5999755859375</AltitudeMeters>
            <DistanceMeters>27471.030684981</DistanceMeters>
          </Trackpoint>
          <Trackpoint>
            <Time>2021-09-26T10:05:07.000Z</Time>
            <Position>
              <LatitudeDegrees>40.4184663109481334686279296875</LatitudeDegrees>
              <LongitudeDegrees>-3.72590281069278717041015625</LongitudeDegrees>
            </Position>
            <AltitudeMeters>582.4000244140625</AltitudeMeters>
            <DistanceMeters>27476.646112564</DistanceMeters>
          </Trackpoint>
          <Trackpoint>
            <Time>2021-09-26T10:05:15.000Z</Time>
            <Position>
              <LatitudeDegrees>40.4184532351791858673095703125</LatitudeDegrees>
              <LongitudeDegrees>-3.72610758058726787567138671875</LongitudeDegrees>
            </Position>
            <AltitudeMeters>583</AltitudeMeters>
            <DistanceMeters>27494.058834257</DistanceMeters>
          </Trackpoint>
          <Trackpoint>
            <Time>2021-09-26T10:05:22.000Z</Time>
            <Position>
              <LatitudeDegrees>40.41845331899821758270263671875</LatitudeDegrees>
              <LongitudeDegrees>-3.7263032980263233184814453125</LongitudeDegrees>
            </Position>
            <AltitudeMeters>584</AltitudeMeters>
            <DistanceMeters>27510.643105973</DistanceMeters>
          </Trackpoint>
          <Trackpoint>
            <Time>2021-09-26T10:05:23.000Z</Time>
            <Position>
              <LatitudeDegrees>40.41845449246466159820556640625</LatitudeDegrees>
              <LongitudeDegrees>-3.72632869519293308258056640625</LongitudeDegrees>
            </Position>
            <AltitudeMeters>584</AltitudeMeters>
            <DistanceMeters>27512.797510599</DistanceMeters>
          </Trackpoint>
          <Trackpoint>
            <Time>2021-09-26T10:05:23.000Z</Time>
            <Position>
              <LatitudeDegrees>40.41845449246466159820556640625</LatitudeDegrees>
              <LongitudeDegrees>-3.72632869519293308258056640625</LongitudeDegrees>
            </Position>
            <AltitudeMeters>584</AltitudeMeters>
            <DistanceMeters>27512.797510599</DistanceMeters>
          </Trackpoint>
          <Trackpoint>
            <Time>2021-09-26T10:05:30.000Z</Time>
            <Position>
              <LatitudeDegrees>40.4184445179998874664306640625</LatitudeDegrees>
              <LongitudeDegrees>-3.72656154446303844451904296875</LongitudeDegrees>
            </Position>
            <AltitudeMeters>584.4000244140625</AltitudeMeters>
            <DistanceMeters>27532.559868914</DistanceMeters>
          </Trackpoint>
          <Trackpoint>
            <Time>2021-09-26T10:05:37.000Z</Time>
            <Position>
              <LatitudeDegrees>40.41844527237117290496826171875</LatitudeDegrees>
              <LongitudeDegrees>-3.7267502211034297943115234375</LongitudeDegrees>
            </Position>
            <AltitudeMeters>585.5999755859375</AltitudeMeters>
            <DistanceMeters>27548.548095957</DistanceMeters>
          </Trackpoint>
          <Trackpoint>
            <Time>2021-09-26T10:05:45.000Z</Time>
            <Position>
              <LatitudeDegrees>40.41842364706099033355712890625</LatitudeDegrees>
              <LongitudeDegrees>-3.72701936401426792144775390625</LongitudeDegrees>
            </Position>
            <AltitudeMeters>586.4000244140625</AltitudeMeters>
            <DistanceMeters>27571.48145032</DistanceMeters>
          </Trackpoint>
          <Trackpoint>
            <Time>2021-09-26T10:05:46.000Z</Time>
            <Position>
              <LatitudeDegrees>40.41842113249003887176513671875</LatitudeDegrees>
              <LongitudeDegrees>-3.727045096457004547119140625</LongitudeDegrees>
            </Position>
            <AltitudeMeters>586.5999755859375</AltitudeMeters>
            <DistanceMeters>27573.679424591</DistanceMeters>
          </Trackpoint>
          <Trackpoint>
            <Time>2021-09-26T10:05:52.000Z</Time>
            <Position>
              <LatitudeDegrees>40.41838802397251129150390625</LatitudeDegrees>
              <LongitudeDegrees>-3.72724936343729496002197265625</LongitudeDegrees>
            </Position>
            <AltitudeMeters>586.79998779296875</AltitudeMeters>
            <DistanceMeters>27591.37634837</DistanceMeters>
          </Trackpoint>
          <Trackpoint>
            <Time>2021-09-26T10:06:01.000Z</Time>
            <Position>
              <LatitudeDegrees>40.4183469526469707489013671875</LatitudeDegrees>
              <LongitudeDegrees>-3.7274873256683349609375</LongitudeDegrees>
            </Position>
            <AltitudeMeters>587.5999755859375</AltitudeMeters>
            <DistanceMeters>27612.052466937</DistanceMeters>
          </Trackpoint>
          <Trackpoint>
            <Time>2021-09-26T10:06:07.000Z</Time>
            <Position>
              <LatitudeDegrees>40.4183221422135829925537109375</LatitudeDegrees>
              <LongitudeDegrees>-3.72757173143327236175537109375</LongitudeDegrees>
            </Position>
            <AltitudeMeters>588</AltitudeMeters>
            <DistanceMeters>27619.719656621</DistanceMeters>
          </Trackpoint>
          <Trackpoint>
            <Time>2021-09-26T10:06:09.000Z</Time>
            <Position>
              <LatitudeDegrees>40.4183140955865383148193359375</LatitudeDegrees>
              <LongitudeDegrees>-3.72759017162024974822998046875</LongitudeDegrees>
            </Position>
            <AltitudeMeters>588.20001220703125</AltitudeMeters>
            <DistanceMeters>27621.517646434</DistanceMeters>
          </Trackpoint>
          <Trackpoint>
            <Time>2021-09-26T10:06:13.000Z</Time>
            <Position>
              <LatitudeDegrees>40.4182936437427997589111328125</LatitudeDegrees>
              <LongitudeDegrees>-3.72768941335380077362060546875</LongitudeDegrees>
            </Position>
            <AltitudeMeters>589</AltitudeMeters>
            <DistanceMeters>27630.229580348</DistanceMeters>
          </Trackpoint>
          <Trackpoint>
            <Time>2021-09-26T10:06:15.000Z</Time>
            <Position>
              <LatitudeDegrees>40.41827864013612270355224609375</LatitudeDegrees>
              <LongitudeDegrees>-3.727759234607219696044921875</LongitudeDegrees>
            </Position>
            <AltitudeMeters>589.5999755859375</AltitudeMeters>
            <DistanceMeters>27636.377742674</DistanceMeters>
          </Trackpoint>
          <Trackpoint>
            <Time>2021-09-26T10:06:19.000Z</Time>
            <Position>
              <LatitudeDegrees>40.41825818829238414764404296875</LatitudeDegrees>
              <LongitudeDegrees>-3.72789544053375720977783203125</LongitudeDegrees>
            </Position>
            <AltitudeMeters>590.20001220703125</AltitudeMeters>
            <DistanceMeters>27648.141881044</DistanceMeters>
          </Trackpoint>
          <Trackpoint>
            <Time>2021-09-26T10:06:20.000Z</Time>
            <Position>
              <LatitudeDegrees>40.41825600899755954742431640625</LatitudeDegrees>
              <LongitudeDegrees>-3.72792343609035015106201171875</LongitudeDegrees>
            </Position>
            <AltitudeMeters>590.20001220703125</AltitudeMeters>
            <DistanceMeters>27650.525138916</DistanceMeters>
          </Trackpoint>
          <Trackpoint>
            <Time>2021-09-26T10:06:21.000Z</Time>
            <Position>
              <LatitudeDegrees>40.418255589902400970458984375</LatitudeDegrees>
              <LongitudeDegrees>-3.727955706417560577392578125</LongitudeDegrees>
            </Position>
            <AltitudeMeters>590.4000244140625</AltitudeMeters>
            <DistanceMeters>27653.25953159</DistanceMeters>
          </Trackpoint>
          <Trackpoint>
            <Time>2021-09-26T10:06:29.000Z</Time>
            <Position>
              <LatitudeDegrees>40.41823354549705982208251953125</LatitudeDegrees>
              <LongitudeDegrees>-3.72818880714476108551025390625</LongitudeDegrees>
            </Position>
            <AltitudeMeters>591</AltitudeMeters>
            <DistanceMeters>27673.163942505</DistanceMeters>
          </Trackpoint>
          <Trackpoint>
            <Time>2021-09-26T10:06:35.000Z</Time>
            <Position>
              <LatitudeDegrees>40.4182304441928863525390625</LatitudeDegrees>
              <LongitudeDegrees>-3.7283437885344028472900390625</LongitudeDegrees>
            </Position>
            <AltitudeMeters>591.5999755859375</AltitudeMeters>
            <DistanceMeters>27686.301020605</DistanceMeters>
          </Trackpoint>
          <Trackpoint>
            <Time>2021-09-26T10:06:37.000Z</Time>
            <Position>
              <LatitudeDegrees>40.41824192740023136138916015625</LatitudeDegrees>
              <LongitudeDegrees>-3.72841008938848972320556640625</LongitudeDegrees>
            </Position>
            <AltitudeMeters>591.79998779296875</AltitudeMeters>
            <DistanceMeters>27692.062492727</DistanceMeters>
          </Trackpoint>
          <Trackpoint>
            <Time>2021-09-26T10:06:42.000Z</Time>
            <Position>
              <LatitudeDegrees>40.418278388679027557373046875</LatitudeDegrees>
              <LongitudeDegrees>-3.72854369692504405975341796875</LongitudeDegrees>
            </Position>
            <AltitudeMeters>593</AltitudeMeters>
            <DistanceMeters>27704.089286334</DistanceMeters>
          </Trackpoint>
          <Trackpoint>
            <Time>2021-09-26T10:06:50.000Z</Time>
            <Position>
              <LatitudeDegrees>40.4184009321033954620361328125</LatitudeDegrees>
              <LongitudeDegrees>-3.72872717678546905517578125</LongitudeDegrees>
            </Position>
            <AltitudeMeters>594.79998779296875</AltitudeMeters>
            <DistanceMeters>27724.77151835</DistanceMeters>
          </Trackpoint>
          <Trackpoint>
            <Time>2021-09-26T10:06:51.000Z</Time>
            <Position>
              <LatitudeDegrees>40.41842532344162464141845703125</LatitudeDegrees>
              <LongitudeDegrees>-3.728750981390476226806640625</LongitudeDegrees>
            </Position>
            <AltitudeMeters>595</AltitudeMeters>
            <DistanceMeters>27728.152653777</DistanceMeters>
          </Trackpoint>
          <Trackpoint>
            <Time>2021-09-26T10:06:54.000Z</Time>
            <Position>
              <LatitudeDegrees>40.418482907116413116455078125</LatitudeDegrees>
              <LongitudeDegrees>-3.72879934497177600860595703125</LongitudeDegrees>
            </Position>
            <AltitudeMeters>595.5999755859375</AltitudeMeters>
            <DistanceMeters>27735.759540779</DistanceMeters>
          </Trackpoint>
          <Trackpoint>
            <Time>2021-09-26T10:06:56.000Z</Time>
            <Position>
              <LatitudeDegrees>40.418533869087696075439453125</LatitudeDegrees>
              <LongitudeDegrees>-3.72880051843822002410888671875</LongitudeDegrees>
            </Position>
            <AltitudeMeters>595.79998779296875</AltitudeMeters>
            <DistanceMeters>27741.432563998</DistanceMeters>
          </Trackpoint>
          <Trackpoint>
            <Time>2021-09-26T10:07:03.000Z</Time>
            <Position>
              <LatitudeDegrees>40.4186989925801753997802734375</LatitudeDegrees>
              <LongitudeDegrees>-3.7288768775761127471923828125</LongitudeDegrees>
            </Position>
            <AltitudeMeters>596.4000244140625</AltitudeMeters>
            <DistanceMeters>27760.91674845</DistanceMeters>
          </Trackpoint>
          <Trackpoint>
            <Time>2021-09-26T10:07:05.000Z</Time>
            <Position>
              <LatitudeDegrees>40.418741405010223388671875</LatitudeDegrees>
              <LongitudeDegrees>-3.7288990058004856109619140625</LongitudeDegrees>
            </Position>
            <AltitudeMeters>596.5999755859375</AltitudeMeters>
            <DistanceMeters>27765.996901842</DistanceMeters>
          </Trackpoint>
          <Trackpoint>
            <Time>2021-09-26T10:07:09.000Z</Time>
            <Position>
              <LatitudeDegrees>40.4188109748065471649169921875</LatitudeDegrees>
              <LongitudeDegrees>-3.7289392389357089996337890625</LongitudeDegrees>
            </Position>
            <AltitudeMeters>597</AltitudeMeters>
            <DistanceMeters>27774.456948289</DistanceMeters>
          </Trackpoint>
          <Trackpoint>
            <Time>2021-09-26T10:07:14.000Z</Time>
            <Position>
              <LatitudeDegrees>40.41892689652740955352783203125</LatitudeDegrees>
              <LongitudeDegrees>-3.7289912067353725433349609375</LongitudeDegrees>
            </Position>
            <AltitudeMeters>596.4000244140625</AltitudeMeters>
            <DistanceMeters>27788.089887568</DistanceMeters>
          </Trackpoint>
          <Trackpoint>
            <Time>2021-09-26T10:07:20.000Z</Time>
            <Position>
              <LatitudeDegrees>40.41904072277247905731201171875</LatitudeDegrees>
              <LongitudeDegrees>-3.7290368042886257171630859375</LongitudeDegrees>
            </Position>
            <AltitudeMeters>595.4000244140625</AltitudeMeters>
            <DistanceMeters>27801.334784512</DistanceMeters>
          </Trackpoint>
          <Trackpoint>
            <Time>2021-09-26T10:07:25.000Z</Time>
            <Position>
              <LatitudeDegrees>40.4191289842128753662109375</LatitudeDegrees>
              <LongitudeDegrees>-3.72909539379179477691650390625</LongitudeDegrees>
            </Position>
            <AltitudeMeters>595</AltitudeMeters>
            <DistanceMeters>27812.341487269</DistanceMeters>
          </Trackpoint>
          <Trackpoint>
            <Time>2021-09-26T10:07:32.000Z</Time>
            <Position>
              <LatitudeDegrees>40.41927038691937923431396484375</LatitudeDegrees>
              <LongitudeDegrees>-3.7291571684181690216064453125</LongitudeDegrees>
            </Position>
            <AltitudeMeters>594.5999755859375</AltitudeMeters>
            <DistanceMeters>27828.927392393</DistanceMeters>
          </Trackpoint>
          <Trackpoint>
            <Time>2021-09-26T10:07:35.000Z</Time>
            <Position>
              <LatitudeDegrees>40.4193511046469211578369140625</LatitudeDegrees>
              <LongitudeDegrees>-3.72918239794671535491943359375</LongitudeDegrees>
            </Position>
            <AltitudeMeters>594.20001220703125</AltitudeMeters>
            <DistanceMeters>27838.162111768</DistanceMeters>
          </Trackpoint>
          <Trackpoint>
            <Time>2021-09-26T10:07:38.000Z</Time>
            <Position>
              <LatitudeDegrees>40.4194186627864837646484375</LatitudeDegrees>
              <LongitudeDegrees>-3.7292025983333587646484375</LongitudeDegrees>
            </Position>
            <AltitudeMeters>594</AltitudeMeters>
            <DistanceMeters>27845.873926306</DistanceMeters>
          </Trackpoint>
          <Trackpoint>
            <Time>2021-09-26T10:07:47.000Z</Time>
            <Position>
              <LatitudeDegrees>40.4196055792272090911865234375</LatitudeDegrees>
              <LongitudeDegrees>-3.7292604334652423858642578125</LongitudeDegrees>
            </Position>
            <AltitudeMeters>593.5999755859375</AltitudeMeters>
            <DistanceMeters>27867.247544794</DistanceMeters>
          </Trackpoint>
          <Trackpoint>
            <Time>2021-09-26T10:07:55.000Z</Time>
            <Position>
              <LatitudeDegrees>40.41979056783020496368408203125</LatitudeDegrees>
              <LongitudeDegrees>-3.7292758561670780181884765625</LongitudeDegrees>
            </Position>
            <AltitudeMeters>594.20001220703125</AltitudeMeters>
            <DistanceMeters>27887.878630157</DistanceMeters>
          </Trackpoint>
          <Trackpoint>
            <Time>2021-09-26T10:07:59.000Z</Time>
            <Position>
              <LatitudeDegrees>40.41986617259681224822998046875</LatitudeDegrees>
              <LongitudeDegrees>-3.7292986549437046051025390625</LongitudeDegrees>
            </Position>
            <AltitudeMeters>594.4000244140625</AltitudeMeters>
            <DistanceMeters>27896.511952286</DistanceMeters>
          </Trackpoint>
          <Trackpoint>
            <Time>2021-09-26T10:08:01.000Z</Time>
            <Position>
              <LatitudeDegrees>40.41989886201918125152587890625</LatitudeDegrees>
              <LongitudeDegrees>-3.72931189835071563720703125</LongitudeDegrees>
            </Position>
            <AltitudeMeters>594.4000244140625</AltitudeMeters>
            <DistanceMeters>27900.320141195</DistanceMeters>
          </Trackpoint>
          <Trackpoint>
            <Time>2021-09-26T10:08:06.000Z</Time>
            <Position>
              <LatitudeDegrees>40.42000003159046173095703125</LatitudeDegrees>
              <LongitudeDegrees>-3.7293338589370250701904296875</LongitudeDegrees>
            </Position>
            <AltitudeMeters>595.4000244140625</AltitudeMeters>
            <DistanceMeters>27911.733241243</DistanceMeters>
          </Trackpoint>
          <Trackpoint>
            <Time>2021-09-26T10:08:11.000Z</Time>
            <Position>
              <LatitudeDegrees>40.4201101697981357574462890625</LatitudeDegrees>
              <LongitudeDegrees>-3.72938297688961029052734375</LongitudeDegrees>
            </Position>
            <AltitudeMeters>595.5999755859375</AltitudeMeters>
            <DistanceMeters>27924.679214316</DistanceMeters>
          </Trackpoint>
          <Trackpoint>
            <Time>2021-09-26T10:08:14.000Z</Time>
            <Position>
              <LatitudeDegrees>40.42016339488327503204345703125</LatitudeDegrees>
              <LongitudeDegrees>-3.7294398061931133270263671875</LongitudeDegrees>
            </Position>
            <AltitudeMeters>597</AltitudeMeters>
            <DistanceMeters>27932.313947019</DistanceMeters>
          </Trackpoint>
          <Trackpoint>
            <Time>2021-09-26T10:08:16.000Z</Time>
            <Position>
              <LatitudeDegrees>40.4202090762555599212646484375</LatitudeDegrees>
              <LongitudeDegrees>-3.72946235351264476776123046875</LongitudeDegrees>
            </Position>
            <AltitudeMeters>597.79998779296875</AltitudeMeters>
            <DistanceMeters>27937.745453232</DistanceMeters>
          </Trackpoint>
          <Trackpoint>
            <Time>2021-09-26T10:08:22.000Z</Time>
            <Position>
              <LatitudeDegrees>40.4203076474368572235107421875</LatitudeDegrees>
              <LongitudeDegrees>-3.72957366518676280975341796875</LongitudeDegrees>
            </Position>
            <AltitudeMeters>598.5999755859375</AltitudeMeters>
            <DistanceMeters>27952.213875126</DistanceMeters>
          </Trackpoint>
          <Trackpoint>
            <Time>2021-09-26T10:08:29.000Z</Time>
            <Position>
              <LatitudeDegrees>40.4204042069613933563232421875</LatitudeDegrees>
              <LongitudeDegrees>-3.72969201765954494476318359375</LongitudeDegrees>
            </Position>
            <AltitudeMeters>598.20001220703125</AltitudeMeters>
            <DistanceMeters>27966.913251615</DistanceMeters>
          </Trackpoint>
          <Trackpoint>
            <Time>2021-09-26T10:08:36.000Z</Time>
            <Position>
              <LatitudeDegrees>40.42044938541948795318603515625</LatitudeDegrees>
              <LongitudeDegrees>-3.72987457551062107086181640625</LongitudeDegrees>
            </Position>
            <AltitudeMeters>597.79998779296875</AltitudeMeters>
            <DistanceMeters>27983.178649847</DistanceMeters>
          </Trackpoint>
          <Trackpoint>
            <Time>2021-09-26T10:08:39.000Z</Time>
            <Position>
              <LatitudeDegrees>40.42045868933200836181640625</LatitudeDegrees>
              <LongitudeDegrees>-3.72994665987789630889892578125</LongitudeDegrees>
            </Position>
            <AltitudeMeters>597.5999755859375</AltitudeMeters>
            <DistanceMeters>27989.373633696</DistanceMeters>
          </Trackpoint>
          <Trackpoint>
            <Time>2021-09-26T10:08:42.000Z</Time>
            <Position>
              <LatitudeDegrees>40.42045793496072292327880859375</LatitudeDegrees>
              <LongitudeDegrees>-3.73003953136503696441650390625</LongitudeDegrees>
            </Position>
            <AltitudeMeters>597.20001220703125</AltitudeMeters>
            <DistanceMeters>27997.243085027</DistanceMeters>
          </Trackpoint>
          <Trackpoint>
            <Time>2021-09-26T10:08:49.000Z</Time>
            <Position>
              <LatitudeDegrees>40.42046514339745044708251953125</LatitudeDegrees>
              <LongitudeDegrees>-3.73026131652295589447021484375</LongitudeDegrees>
            </Position>
            <AltitudeMeters>594.79998779296875</AltitudeMeters>
            <DistanceMeters>28016.05309447</DistanceMeters>
          </Trackpoint>
          <Trackpoint>
            <Time>2021-09-26T10:08:56.000Z</Time>
            <Position>
              <LatitudeDegrees>40.42048861272633075714111328125</LatitudeDegrees>
              <LongitudeDegrees>-3.7304711155593395233154296875</LongitudeDegrees>
            </Position>
            <AltitudeMeters>593.79998779296875</AltitudeMeters>
            <DistanceMeters>28034.021437553</DistanceMeters>
          </Trackpoint>
          <Trackpoint>
            <Time>2021-09-26T10:09:01.000Z</Time>
            <Position>
              <LatitudeDegrees>40.42050562798976898193359375</LatitudeDegrees>
              <LongitudeDegrees>-3.73059558682143688201904296875</LongitudeDegrees>
            </Position>
            <AltitudeMeters>593.5999755859375</AltitudeMeters>
            <DistanceMeters>28044.736726723</DistanceMeters>
          </Trackpoint>
          <Trackpoint>
            <Time>2021-09-26T10:09:03.000Z</Time>
            <Position>
              <LatitudeDegrees>40.4205047897994518280029296875</LatitudeDegrees>
              <LongitudeDegrees>-3.730648644268512725830078125</LongitudeDegrees>
            </Position>
            <AltitudeMeters>594</AltitudeMeters>
            <DistanceMeters>28049.232203459</DistanceMeters>
          </Trackpoint>
          <Trackpoint>
            <Time>2021-09-26T10:09:09.000Z</Time>
            <Position>
              <LatitudeDegrees>40.42051727883517742156982421875</LatitudeDegrees>
              <LongitudeDegrees>-3.730808906257152557373046875</LongitudeDegrees>
            </Position>
            <AltitudeMeters>593.4000244140625</AltitudeMeters>
            <DistanceMeters>28062.883015064</DistanceMeters>
          </Trackpoint>
          <Trackpoint>
            <Time>2021-09-26T10:09:16.000Z</Time>
            <Position>
              <LatitudeDegrees>40.42049448005855083465576171875</LatitudeDegrees>
              <LongitudeDegrees>-3.731014765799045562744140625</LongitudeDegrees>
            </Position>
            <AltitudeMeters>594</AltitudeMeters>
            <DistanceMeters>28080.510150406</DistanceMeters>
          </Trackpoint>
          <Trackpoint>
            <Time>2021-09-26T10:09:22.000Z</Time>
            <Position>
              <LatitudeDegrees>40.42048710398375988006591796875</LatitudeDegrees>
              <LongitudeDegrees>-3.731185086071491241455078125</LongitudeDegrees>
            </Position>
            <AltitudeMeters>594.79998779296875</AltitudeMeters>
            <DistanceMeters>28094.965459774</DistanceMeters>
          </Trackpoint>
          <Trackpoint>
            <Time>2021-09-26T10:09:29.000Z</Time>
            <Position>
              <LatitudeDegrees>40.4204672388732433319091796875</LatitudeDegrees>
              <LongitudeDegrees>-3.73140578158199787139892578125</LongitudeDegrees>
            </Position>
            <AltitudeMeters>597.20001220703125</AltitudeMeters>
            <DistanceMeters>28113.796100809</DistanceMeters>
          </Trackpoint>
          <Trackpoint>
            <Time>2021-09-26T10:09:30.000Z</Time>
            <Position>
              <LatitudeDegrees>40.42046313174068927764892578125</LatitudeDegrees>
              <LongitudeDegrees>-3.73144417069852352142333984375</LongitudeDegrees>
            </Position>
            <AltitudeMeters>597.5999755859375</AltitudeMeters>
            <DistanceMeters>28117.082431807</DistanceMeters>
          </Trackpoint>
          <Trackpoint>
            <Time>2021-09-26T10:09:34.000Z</Time>
            <Position>
              <LatitudeDegrees>40.42047335766255855560302734375</LatitudeDegrees>
              <LongitudeDegrees>-3.731575347483158111572265625</LongitudeDegrees>
            </Position>
            <AltitudeMeters>598.4000244140625</AltitudeMeters>
            <DistanceMeters>28128.256054179</DistanceMeters>
          </Trackpoint>
          <Trackpoint>
            <Time>2021-09-26T10:09:37.000Z</Time>
            <Position>
              <LatitudeDegrees>40.42048006318509578704833984375</LatitudeDegrees>
              <LongitudeDegrees>-3.731681294739246368408203125</LongitudeDegrees>
            </Position>
            <AltitudeMeters>598.5999755859375</AltitudeMeters>
            <DistanceMeters>28137.264566653</DistanceMeters>
          </Trackpoint>
          <Trackpoint>
            <Time>2021-09-26T10:09:38.000Z</Time>
            <Position>
              <LatitudeDegrees>40.42048291303217411041259765625</LatitudeDegrees>
              <LongitudeDegrees>-3.7317129783332347869873046875</LongitudeDegrees>
            </Position>
            <AltitudeMeters>598.5999755859375</AltitudeMeters>
            <DistanceMeters>28139.969074357</DistanceMeters>
          </Trackpoint>
          <Trackpoint>
            <Time>2021-09-26T10:09:42.000Z</Time>
            <Position>
              <LatitudeDegrees>40.42050370015203952789306640625</LatitudeDegrees>
              <LongitudeDegrees>-3.7318239547312259674072265625</LongitudeDegrees>
            </Position>
            <AltitudeMeters>597.79998779296875</AltitudeMeters>
            <DistanceMeters>28149.652944651</DistanceMeters>
          </Trackpoint>
          <Trackpoint>
            <Time>2021-09-26T10:09:48.000Z</Time>
            <Position>
              <LatitudeDegrees>40.42052616365253925323486328125</LatitudeDegrees>
              <LongitudeDegrees>-3.732006847858428955078125</LongitudeDegrees>
            </Position>
            <AltitudeMeters>596.20001220703125</AltitudeMeters>
            <DistanceMeters>28165.351058747</DistanceMeters>
          </Trackpoint>
          <Trackpoint>
            <Time>2021-09-26T10:09:49.000Z</Time>
            <Position>
              <LatitudeDegrees>40.42053571902215480804443359375</LatitudeDegrees>
              <LongitudeDegrees>-3.7320288084447383880615234375</LongitudeDegrees>
            </Position>
            <AltitudeMeters>596</AltitudeMeters>
            <DistanceMeters>28167.494959143</DistanceMeters>
          </Trackpoint>
          <Trackpoint>
            <Time>2021-09-26T10:09:52.000Z</Time>
            <Position>
              <LatitudeDegrees>40.42054452002048492431640625</LatitudeDegrees>
              <LongitudeDegrees>-3.7321112863719463348388671875</LongitudeDegrees>
            </Position>
            <AltitudeMeters>596.4000244140625</AltitudeMeters>
            <DistanceMeters>28174.552572172</DistanceMeters>
          </Trackpoint>
          <Trackpoint>
            <Time>2021-09-26T10:09:59.000Z</Time>
            <Position>
              <LatitudeDegrees>40.4205705039203166961669921875</LatitudeDegrees>
              <LongitudeDegrees>-3.73231957666575908660888671875</LongitudeDegrees>
            </Position>
            <AltitudeMeters>597</AltitudeMeters>
            <DistanceMeters>28192.437296598</DistanceMeters>
          </Trackpoint>
          <Trackpoint>
            <Time>2021-09-26T10:10:06.000Z</Time>
            <Position>
              <LatitudeDegrees>40.4206107370555400848388671875</LatitudeDegrees>
              <LongitudeDegrees>-3.73251118697226047515869140625</LongitudeDegrees>
            </Position>
            <AltitudeMeters>597.5999755859375</AltitudeMeters>
            <DistanceMeters>28209.279826735</DistanceMeters>
          </Trackpoint>
          <Trackpoint>
            <Time>2021-09-26T10:10:07.000Z</Time>
            <Position>
              <LatitudeDegrees>40.4206093959510326385498046875</LatitudeDegrees>
              <LongitudeDegrees>-3.73254798352718353271484375</LongitudeDegrees>
            </Position>
            <AltitudeMeters>597.5999755859375</AltitudeMeters>
            <DistanceMeters>28212.399830326</DistanceMeters>
          </Trackpoint>
          <Trackpoint>
            <Time>2021-09-26T10:10:11.000Z</Time>
            <Position>
              <LatitudeDegrees>40.4206392355263233184814453125</LatitudeDegrees>
              <LongitudeDegrees>-3.7326336465775966644287109375</LongitudeDegrees>
            </Position>
            <AltitudeMeters>598.20001220703125</AltitudeMeters>
            <DistanceMeters>28220.382639948</DistanceMeters>
          </Trackpoint>
          <Trackpoint>
            <Time>2021-09-26T10:10:12.000Z</Time>
            <Position>
              <LatitudeDegrees>40.42064602486789226531982421875</LatitudeDegrees>
              <LongitudeDegrees>-3.73265300877392292022705078125</LongitudeDegrees>
            </Position>
            <AltitudeMeters>598.20001220703125</AltitudeMeters>
            <DistanceMeters>28222.190646495</DistanceMeters>
          </Trackpoint>
          <Trackpoint>
            <Time>2021-09-26T10:10:13.000Z</Time>
            <Position>
              <LatitudeDegrees>40.420650132000446319580078125</LatitudeDegrees>
              <LongitudeDegrees>-3.73267413116991519927978515625</LongitudeDegrees>
            </Position>
            <AltitudeMeters>598.4000244140625</AltitudeMeters>
            <DistanceMeters>28224.03817698</DistanceMeters>
          </Trackpoint>
          <Trackpoint>
            <Time>2021-09-26T10:10:16.000Z</Time>
            <Position>
              <LatitudeDegrees>40.4206606931984424591064453125</LatitudeDegrees>
              <LongitudeDegrees>-3.732758872210979461669921875</LongitudeDegrees>
            </Position>
            <AltitudeMeters>599</AltitudeMeters>
            <DistanceMeters>28231.313773734</DistanceMeters>
          </Trackpoint>
          <Trackpoint>
            <Time>2021-09-26T10:10:22.000Z</Time>
            <Position>
              <LatitudeDegrees>40.420677624642848968505859375</LatitudeDegrees>
              <LongitudeDegrees>-3.732964731752872467041015625</LongitudeDegrees>
            </Position>
            <AltitudeMeters>600</AltitudeMeters>
            <DistanceMeters>28248.859009724</DistanceMeters>
          </Trackpoint>
          <Trackpoint>
            <Time>2021-09-26T10:10:25.000Z</Time>
            <Position>
              <LatitudeDegrees>40.4206818155944347381591796875</LatitudeDegrees>
              <LongitudeDegrees>-3.7330301105976104736328125</LongitudeDegrees>
            </Position>
            <AltitudeMeters>600.4000244140625</AltitudeMeters>
            <DistanceMeters>28254.418681627</DistanceMeters>
          </Trackpoint>
          <Trackpoint>
            <Time>2021-09-26T10:10:28.000Z</Time>
            <Position>
              <LatitudeDegrees>40.4206633754074573516845703125</LatitudeDegrees>
              <LongitudeDegrees>-3.73308601789176464080810546875</LongitudeDegrees>
            </Position>
            <AltitudeMeters>600.79998779296875</AltitudeMeters>
            <DistanceMeters>28259.581702609</DistanceMeters>
          </Trackpoint>
          <Trackpoint>
            <Time>2021-09-26T10:10:35.000Z</Time>
            <Position>
              <LatitudeDegrees>40.42058366350829601287841796875</LatitudeDegrees>
              <LongitudeDegrees>-3.7332527339458465576171875</LongitudeDegrees>
            </Position>
            <AltitudeMeters>601.4000244140625</AltitudeMeters>
            <DistanceMeters>28276.263154456</DistanceMeters>
          </Trackpoint>
          <Trackpoint>
            <Time>2021-09-26T10:10:42.000Z</Time>
            <Position>
              <LatitudeDegrees>40.42050923220813274383544921875</LatitudeDegrees>
              <LongitudeDegrees>-3.73342615552246570587158203125</LongitudeDegrees>
            </Position>
            <AltitudeMeters>602.20001220703125</AltitudeMeters>
            <DistanceMeters>28293.132470656</DistanceMeters>
          </Trackpoint>
          <Trackpoint>
            <Time>2021-09-26T10:10:49.000Z</Time>
            <Position>
              <LatitudeDegrees>40.42042382061481475830078125</LatitudeDegrees>
              <LongitudeDegrees>-3.733627907931804656982421875</LongitudeDegrees>
            </Position>
            <AltitudeMeters>603.20001220703125</AltitudeMeters>
            <DistanceMeters>28312.693437635</DistanceMeters>
          </Trackpoint>
          <Trackpoint>
            <Time>2021-09-26T10:10:57.000Z</Time>
            <Position>
              <LatitudeDegrees>40.42030907236039638519287109375</LatitudeDegrees>
              <LongitudeDegrees>-3.73384189791977405548095703125</LongitudeDegrees>
            </Position>
            <AltitudeMeters>604.4000244140625</AltitudeMeters>
            <DistanceMeters>28334.872151622</DistanceMeters>
          </Trackpoint>
          <Trackpoint>
            <Time>2021-09-26T10:11:01.000Z</Time>
            <Position>
              <LatitudeDegrees>40.420248471200466156005859375</LatitudeDegrees>
              <LongitudeDegrees>-3.73393611051142215728759765625</LongitudeDegrees>
            </Position>
            <AltitudeMeters>604.79998779296875</AltitudeMeters>
            <DistanceMeters>28345.323362302</DistanceMeters>
          </Trackpoint>
          <Trackpoint>
            <Time>2021-09-26T10:11:05.000Z</Time>
            <Position>
              <LatitudeDegrees>40.42018032632768154144287109375</LatitudeDegrees>
              <LongitudeDegrees>-3.7340475060045719146728515625</LongitudeDegrees>
            </Position>
            <AltitudeMeters>604.4000244140625</AltitudeMeters>
            <DistanceMeters>28357.432092674</DistanceMeters>
          </Trackpoint>
          <Trackpoint>
            <Time>2021-09-26T10:11:11.000Z</Time>
            <Position>
              <LatitudeDegrees>40.42009131051599979400634765625</LatitudeDegrees>
              <LongitudeDegrees>-3.73418656177818775177001953125</LongitudeDegrees>
            </Position>
            <AltitudeMeters>603.79998779296875</AltitudeMeters>
            <DistanceMeters>28372.827006975</DistanceMeters>
          </Trackpoint>
          <Trackpoint>
            <Time>2021-09-26T10:11:19.000Z</Time>
            <Position>
              <LatitudeDegrees>40.41995418258011341094970703125</LatitudeDegrees>
              <LongitudeDegrees>-3.73433542437851428985595703125</LongitudeDegrees>
            </Position>
            <AltitudeMeters>602</AltitudeMeters>
            <DistanceMeters>28392.627482448</DistanceMeters>
          </Trackpoint>
          <Trackpoint>
            <Time>2021-09-26T10:11:27.000Z</Time>
            <Position>
              <LatitudeDegrees>40.419797189533710479736328125</LatitudeDegrees>
              <LongitudeDegrees>-3.73446752317249774932861328125</LongitudeDegrees>
            </Position>
            <AltitudeMeters>598.79998779296875</AltitudeMeters>
            <DistanceMeters>28413.37901939</DistanceMeters>
          </Trackpoint>
          <Trackpoint>
            <Time>2021-09-26T10:11:34.000Z</Time>
            <Position>
              <LatitudeDegrees>40.4196686111390590667724609375</LatitudeDegrees>
              <LongitudeDegrees>-3.7346184812486171722412109375</LongitudeDegrees>
            </Position>
            <AltitudeMeters>596.20001220703125</AltitudeMeters>
            <DistanceMeters>28432.573945258</DistanceMeters>
          </Trackpoint>
          <Trackpoint>
            <Time>2021-09-26T10:11:40.000Z</Time>
            <Position>
              <LatitudeDegrees>40.4195804335176944732666015625</LatitudeDegrees>
              <LongitudeDegrees>-3.734764158725738525390625</LongitudeDegrees>
            </Position>
            <AltitudeMeters>595.20001220703125</AltitudeMeters>
            <DistanceMeters>28448.344372184</DistanceMeters>
          </Trackpoint>
          <Trackpoint>
            <Time>2021-09-26T10:11:43.000Z</Time>
            <Position>
              <LatitudeDegrees>40.4195321537554264068603515625</LatitudeDegrees>
              <LongitudeDegrees>-3.73483448289334774017333984375</LongitudeDegrees>
            </Position>
            <AltitudeMeters>595.20001220703125</AltitudeMeters>
            <DistanceMeters>28456.369489329</DistanceMeters>
          </Trackpoint>
          <Trackpoint>
            <Time>2021-09-26T10:11:51.000Z</Time>
            <Position>
              <LatitudeDegrees>40.41937298141419887542724609375</LatitudeDegrees>
              <LongitudeDegrees>-3.73498217202723026275634765625</LongitudeDegrees>
            </Position>
            <AltitudeMeters>595.79998779296875</AltitudeMeters>
            <DistanceMeters>28478.060156513</DistanceMeters>
          </Trackpoint>
          <Trackpoint>
            <Time>2021-09-26T10:11:52.000Z</Time>
            <Position>
              <LatitudeDegrees>40.41935068555176258087158203125</LatitudeDegrees>
              <LongitudeDegrees>-3.73501050285995006561279296875</LongitudeDegrees>
            </Position>
            <AltitudeMeters>596</AltitudeMeters>
            <DistanceMeters>28481.512648498</DistanceMeters>
          </Trackpoint>
          <Trackpoint>
            <Time>2021-09-26T10:11:57.000Z</Time>
            <Position>
              <LatitudeDegrees>40.41924230754375457763671875</LatitudeDegrees>
              <LongitudeDegrees>-3.735092394053936004638671875</LongitudeDegrees>
            </Position>
            <AltitudeMeters>596.79998779296875</AltitudeMeters>
            <DistanceMeters>28495.428466452</DistanceMeters>
          </Trackpoint>
          <Trackpoint>
            <Time>2021-09-26T10:12:05.000Z</Time>
            <Position>
              <LatitudeDegrees>40.4191137291491031646728515625</LatitudeDegrees>
              <LongitudeDegrees>-3.73528459109365940093994140625</LongitudeDegrees>
            </Position>
            <AltitudeMeters>597.5999755859375</AltitudeMeters>
            <DistanceMeters>28517.109139856</DistanceMeters>
          </Trackpoint>
          <Trackpoint>
            <Time>2021-09-26T10:12:06.000Z</Time>
            <Position>
              <LatitudeDegrees>40.419106520712375640869140625</LatitudeDegrees>
              <LongitudeDegrees>-3.73532147146761417388916015625</LongitudeDegrees>
            </Position>
            <AltitudeMeters>597.79998779296875</AltitudeMeters>
            <DistanceMeters>28520.334453494</DistanceMeters>
          </Trackpoint>
          <Trackpoint>
            <Time>2021-09-26T10:12:12.000Z</Time>
            <Position>
              <LatitudeDegrees>40.4190691374242305755615234375</LatitudeDegrees>
              <LongitudeDegrees>-3.73550335876643657684326171875</LongitudeDegrees>
            </Position>
            <AltitudeMeters>598.5999755859375</AltitudeMeters>
            <DistanceMeters>28536.298375863</DistanceMeters>
          </Trackpoint>
          <Trackpoint>
            <Time>2021-09-26T10:12:19.000Z</Time>
            <Position>
              <LatitudeDegrees>40.41903250850737094879150390625</LatitudeDegrees>
              <LongitudeDegrees>-3.73572430573403835296630859375</LongitudeDegrees>
            </Position>
            <AltitudeMeters>600</AltitudeMeters>
            <DistanceMeters>28555.459400054</DistanceMeters>
          </Trackpoint>
          <Trackpoint>
            <Time>2021-09-26T10:12:27.000Z</Time>
            <Position>
              <LatitudeDegrees>40.4189896769821643829345703125</LatitudeDegrees>
              <LongitudeDegrees>-3.7359478510916233062744140625</LongitudeDegrees>
            </Position>
            <AltitudeMeters>600.79998779296875</AltitudeMeters>
            <DistanceMeters>28574.992417996</DistanceMeters>
          </Trackpoint>
          <Trackpoint>
            <Time>2021-09-26T10:12:34.000Z</Time>
            <Position>
              <LatitudeDegrees>40.41899043135344982147216796875</LatitudeDegrees>
              <LongitudeDegrees>-3.736140467226505279541015625</LongitudeDegrees>
            </Position>
            <AltitudeMeters>600.79998779296875</AltitudeMeters>
            <DistanceMeters>28591.314345432</DistanceMeters>
          </Trackpoint>
          <Trackpoint>
            <Time>2021-09-26T10:12:35.000Z</Time>
            <Position>
              <LatitudeDegrees>40.41898909024894237518310546875</LatitudeDegrees>
              <LongitudeDegrees>-3.73616904951632022857666015625</LongitudeDegrees>
            </Position>
            <AltitudeMeters>600.79998779296875</AltitudeMeters>
            <DistanceMeters>28593.740785178</DistanceMeters>
          </Trackpoint>
          <Trackpoint>
            <Time>2021-09-26T10:12:43.000Z</Time>
            <Position>
              <LatitudeDegrees>40.4189625196158885955810546875</LatitudeDegrees>
              <LongitudeDegrees>-3.73640407808125019073486328125</LongitudeDegrees>
            </Position>
            <AltitudeMeters>599.79998779296875</AltitudeMeters>
            <DistanceMeters>28613.874791032</DistanceMeters>
          </Trackpoint>
          <Trackpoint>
            <Time>2021-09-26T10:12:45.000Z</Time>
            <Position>
              <LatitudeDegrees>40.41895824484527111053466796875</LatitudeDegrees>
              <LongitudeDegrees>-3.7364658527076244354248046875</LongitudeDegrees>
            </Position>
            <AltitudeMeters>599.79998779296875</AltitudeMeters>
            <DistanceMeters>28619.129691009</DistanceMeters>
          </Trackpoint>
          <Trackpoint>
            <Time>2021-09-26T10:12:53.000Z</Time>
            <Position>
              <LatitudeDegrees>40.41894366033375263214111328125</LatitudeDegrees>
              <LongitudeDegrees>-3.7367079220712184906005859375</LongitudeDegrees>
            </Position>
            <AltitudeMeters>599.79998779296875</AltitudeMeters>
            <DistanceMeters>28639.706430894</DistanceMeters>
          </Trackpoint>
          <Trackpoint>
            <Time>2021-09-26T10:12:54.000Z</Time>
            <Position>
              <LatitudeDegrees>40.41894047521054744720458984375</LatitudeDegrees>
              <LongitudeDegrees>-3.7367320619523525238037109375</LongitudeDegrees>
            </Position>
            <AltitudeMeters>599.79998779296875</AltitudeMeters>
            <DistanceMeters>28641.779669035</DistanceMeters>
          </Trackpoint>
          <Trackpoint>
            <Time>2021-09-26T10:12:59.000Z</Time>
            <Position>
              <LatitudeDegrees>40.418937541544437408447265625</LatitudeDegrees>
              <LongitudeDegrees>-3.73688167892396450042724609375</LongitudeDegrees>
            </Position>
            <AltitudeMeters>599.79998779296875</AltitudeMeters>
            <DistanceMeters>28654.462086849</DistanceMeters>
          </Trackpoint>
          <Trackpoint>
            <Time>2021-09-26T10:13:06.000Z</Time>
            <Position>
              <LatitudeDegrees>40.41893519461154937744140625</LatitudeDegrees>
              <LongitudeDegrees>-3.7370824255049228668212890625</LongitudeDegrees>
            </Position>
            <AltitudeMeters>600</AltitudeMeters>
            <DistanceMeters>28671.474788286</DistanceMeters>
          </Trackpoint>
          <Trackpoint>
            <Time>2021-09-26T10:13:13.000Z</Time>
            <Position>
              <LatitudeDegrees>40.41892656125128269195556640625</LatitudeDegrees>
              <LongitudeDegrees>-3.73729758895933628082275390625</LongitudeDegrees>
            </Position>
            <AltitudeMeters>601.20001220703125</AltitudeMeters>
            <DistanceMeters>28689.732781111</DistanceMeters>
          </Trackpoint>
          <Trackpoint>
            <Time>2021-09-26T10:13:20.000Z</Time>
            <Position>
              <LatitudeDegrees>40.4189236275851726531982421875</LatitudeDegrees>
              <LongitudeDegrees>-3.73749003745615482330322265625</LongitudeDegrees>
            </Position>
            <AltitudeMeters>602</AltitudeMeters>
            <DistanceMeters>28706.043639832</DistanceMeters>
          </Trackpoint>
          <Trackpoint>
            <Time>2021-09-26T10:13:27.000Z</Time>
            <Position>
              <LatitudeDegrees>40.41892002336680889129638671875</LatitudeDegrees>
              <LongitudeDegrees>-3.73769958503544330596923828125</LongitudeDegrees>
            </Position>
            <AltitudeMeters>602</AltitudeMeters>
            <DistanceMeters>28723.804486107</DistanceMeters>
          </Trackpoint>
          <Trackpoint>
            <Time>2021-09-26T10:13:35.000Z</Time>
            <Position>
              <LatitudeDegrees>40.41890242137014865875244140625</LatitudeDegrees>
              <LongitudeDegrees>-3.73796462081372737884521484375</LongitudeDegrees>
            </Position>
            <AltitudeMeters>601.4000244140625</AltitudeMeters>
            <DistanceMeters>28746.347859239</DistanceMeters>
          </Trackpoint>
          <Trackpoint>
            <Time>2021-09-26T10:13:43.000Z</Time>
            <Position>
              <LatitudeDegrees>40.41888046078383922576904296875</LatitudeDegrees>
              <LongitudeDegrees>-3.7382012419402599334716796875</LongitudeDegrees>
            </Position>
            <AltitudeMeters>600.20001220703125</AltitudeMeters>
            <DistanceMeters>28766.546569194</DistanceMeters>
          </Trackpoint>
          <Trackpoint>
            <Time>2021-09-26T10:13:49.000Z</Time>
            <Position>
              <LatitudeDegrees>40.4188875854015350341796875</LatitudeDegrees>
              <LongitudeDegrees>-3.7383668683469295501708984375</LongitudeDegrees>
            </Position>
            <AltitudeMeters>599</AltitudeMeters>
            <DistanceMeters>28780.60345835</DistanceMeters>
          </Trackpoint>
          <Trackpoint>
            <Time>2021-09-26T10:13:52.000Z</Time>
            <Position>
              <LatitudeDegrees>40.41888984851539134979248046875</LatitudeDegrees>
              <LongitudeDegrees>-3.73845261521637439727783203125</LongitudeDegrees>
            </Position>
            <AltitudeMeters>599.20001220703125</AltitudeMeters>
            <DistanceMeters>28787.874709795</DistanceMeters>
          </Trackpoint>
          <Trackpoint>
            <Time>2021-09-26T10:13:59.000Z</Time>
            <Position>
              <LatitudeDegrees>40.41887023486196994781494140625</LatitudeDegrees>
              <LongitudeDegrees>-3.73867926187813282012939453125</LongitudeDegrees>
            </Position>
            <AltitudeMeters>600</AltitudeMeters>
            <DistanceMeters>28807.203713463</DistanceMeters>
          </Trackpoint>
          <Trackpoint>
            <Time>2021-09-26T10:14:00.000Z</Time>
            <Position>
              <LatitudeDegrees>40.41887350380420684814453125</LatitudeDegrees>
              <LongitudeDegrees>-3.73869569040834903717041015625</LongitudeDegrees>
            </Position>
            <AltitudeMeters>600</AltitudeMeters>
            <DistanceMeters>28808.638585384</DistanceMeters>
          </Trackpoint>
          <Trackpoint>
            <Time>2021-09-26T10:14:08.000Z</Time>
            <Position>
              <LatitudeDegrees>40.4188518784940242767333984375</LatitudeDegrees>
              <LongitudeDegrees>-3.73889735899865627288818359375</LongitudeDegrees>
            </Position>
            <AltitudeMeters>600</AltitudeMeters>
            <DistanceMeters>28825.896075097</DistanceMeters>
          </Trackpoint>
          <Trackpoint>
            <Time>2021-09-26T10:14:15.000Z</Time>
            <Position>
              <LatitudeDegrees>40.41882966645061969757080078125</LatitudeDegrees>
              <LongitudeDegrees>-3.7390786595642566680908203125</LongitudeDegrees>
            </Position>
            <AltitudeMeters>601</AltitudeMeters>
            <DistanceMeters>28841.45668144</DistanceMeters>
          </Trackpoint>
          <Trackpoint>
            <Time>2021-09-26T10:14:17.000Z</Time>
            <Position>
              <LatitudeDegrees>40.4188258945941925048828125</LatitudeDegrees>
              <LongitudeDegrees>-3.7391242571175098419189453125</LongitudeDegrees>
            </Position>
            <AltitudeMeters>601.4000244140625</AltitudeMeters>
            <DistanceMeters>28845.343494774</DistanceMeters>
          </Trackpoint>
          <Trackpoint>
            <Time>2021-09-26T10:14:20.000Z</Time>
            <Position>
              <LatitudeDegrees>40.41880301199853420257568359375</LatitudeDegrees>
              <LongitudeDegrees>-3.739223666489124298095703125</LongitudeDegrees>
            </Position>
            <AltitudeMeters>602.20001220703125</AltitudeMeters>
            <DistanceMeters>28854.144630822</DistanceMeters>
          </Trackpoint>
          <Trackpoint>
            <Time>2021-09-26T10:14:25.000Z</Time>
            <Position>
              <LatitudeDegrees>40.41878909803926944732666015625</LatitudeDegrees>
              <LongitudeDegrees>-3.73935987241566181182861328125</LongitudeDegrees>
            </Position>
            <AltitudeMeters>603</AltitudeMeters>
            <DistanceMeters>28865.789959844</DistanceMeters>
          </Trackpoint>
          <Trackpoint>
            <Time>2021-09-26T10:14:32.000Z</Time>
            <Position>
              <LatitudeDegrees>40.41875557042658329010009765625</LatitudeDegrees>
              <LongitudeDegrees>-3.7395738624036312103271484375</LongitudeDegrees>
            </Position>
            <AltitudeMeters>604.5999755859375</AltitudeMeters>
            <DistanceMeters>28884.302861328</DistanceMeters>
          </Trackpoint>
          <Trackpoint>
            <Time>2021-09-26T10:14:41.000Z</Time>
            <Position>
              <LatitudeDegrees>40.41872866451740264892578125</LatitudeDegrees>
              <LongitudeDegrees>-3.7398269958794116973876953125</LongitudeDegrees>
            </Position>
            <AltitudeMeters>605.20001220703125</AltitudeMeters>
            <DistanceMeters>28905.96040645</DistanceMeters>
          </Trackpoint>
          <Trackpoint>
            <Time>2021-09-26T10:14:48.000Z</Time>
            <Position>
              <LatitudeDegrees>40.418694131076335906982421875</LatitudeDegrees>
              <LongitudeDegrees>-3.74001516960561275482177734375</LongitudeDegrees>
            </Position>
            <AltitudeMeters>603.5999755859375</AltitudeMeters>
            <DistanceMeters>28922.362358694</DistanceMeters>
          </Trackpoint>
          <Trackpoint>
            <Time>2021-09-26T10:14:56.000Z</Time>
            <Position>
              <LatitudeDegrees>40.41867393068969249725341796875</LatitudeDegrees>
              <LongitudeDegrees>-3.740238882601261138916015625</LongitudeDegrees>
            </Position>
            <AltitudeMeters>602.4000244140625</AltitudeMeters>
            <DistanceMeters>28941.452088</DistanceMeters>
          </Trackpoint>
          <Trackpoint>
            <Time>2021-09-26T10:15:02.000Z</Time>
            <Position>
              <LatitudeDegrees>40.4186637885868549346923828125</LatitudeDegrees>
              <LongitudeDegrees>-3.74042051844298839569091796875</LongitudeDegrees>
            </Position>
            <AltitudeMeters>601.5999755859375</AltitudeMeters>
            <DistanceMeters>28956.88449663</DistanceMeters>
          </Trackpoint>
          <Trackpoint>
            <Time>2021-09-26T10:15:09.000Z</Time>
            <Position>
              <LatitudeDegrees>40.41863746941089630126953125</LatitudeDegrees>
              <LongitudeDegrees>-3.740602992475032806396484375</LongitudeDegrees>
            </Position>
            <AltitudeMeters>602</AltitudeMeters>
            <DistanceMeters>28972.621677971</DistanceMeters>
          </Trackpoint>
          <Trackpoint>
            <Time>2021-09-26T10:15:17.000Z</Time>
            <Position>
              <LatitudeDegrees>40.4186153411865234375</LatitudeDegrees>
              <LongitudeDegrees>-3.74083198606967926025390625</LongitudeDegrees>
            </Position>
            <AltitudeMeters>603.5999755859375</AltitudeMeters>
            <DistanceMeters>28992.181490823</DistanceMeters>
          </Trackpoint>
          <Trackpoint>
            <Time>2021-09-26T10:15:25.000Z</Time>
            <Position>
              <LatitudeDegrees>40.41859765537083148956298828125</LatitudeDegrees>
              <LongitudeDegrees>-3.74106399714946746826171875</LongitudeDegrees>
            </Position>
            <AltitudeMeters>605.79998779296875</AltitudeMeters>
            <DistanceMeters>29011.939736312</DistanceMeters>
          </Trackpoint>
          <Trackpoint>
            <Time>2021-09-26T10:15:32.000Z</Time>
            <Position>
              <LatitudeDegrees>40.41856236755847930908203125</LatitudeDegrees>
              <LongitudeDegrees>-3.74129642732441425323486328125</LongitudeDegrees>
            </Position>
            <AltitudeMeters>607</AltitudeMeters>
            <DistanceMeters>29032.023222676</DistanceMeters>
          </Trackpoint>
          <Trackpoint>
            <Time>2021-09-26T10:15:34.000Z</Time>
            <Position>
              <LatitudeDegrees>40.41855792514979839324951171875</LatitudeDegrees>
              <LongitudeDegrees>-3.74136532656848430633544921875</LongitudeDegrees>
            </Position>
            <AltitudeMeters>607</AltitudeMeters>
            <DistanceMeters>29037.882604097</DistanceMeters>
          </Trackpoint>
          <Trackpoint>
            <Time>2021-09-26T10:15:39.000Z</Time>
            <Position>
              <LatitudeDegrees>40.4185581766068935394287109375</LatitudeDegrees>
              <LongitudeDegrees>-3.741493485867977142333984375</LongitudeDegrees>
            </Position>
            <AltitudeMeters>607</AltitudeMeters>
            <DistanceMeters>29048.742706695</DistanceMeters>
          </Trackpoint>
          <Trackpoint>
            <Time>2021-09-26T10:15:41.000Z</Time>
            <Position>
              <LatitudeDegrees>40.41856312192976474761962890625</LatitudeDegrees>
              <LongitudeDegrees>-3.74155106954276561737060546875</LongitudeDegrees>
            </Position>
            <AltitudeMeters>606.79998779296875</AltitudeMeters>
            <DistanceMeters>29053.654769832</DistanceMeters>
          </Trackpoint>
          <Trackpoint>
            <Time>2021-09-26T10:15:44.000Z</Time>
            <Position>
              <LatitudeDegrees>40.41855826042592525482177734375</LatitudeDegrees>
              <LongitudeDegrees>-3.7416193820536136627197265625</LongitudeDegrees>
            </Position>
            <AltitudeMeters>606.5999755859375</AltitudeMeters>
            <DistanceMeters>29059.469286682</DistanceMeters>
          </Trackpoint>
          <Trackpoint>
            <Time>2021-09-26T10:15:51.000Z</Time>
            <Position>
              <LatitudeDegrees>40.41854334063827991485595703125</LatitudeDegrees>
              <LongitudeDegrees>-3.74175441451370716094970703125</LongitudeDegrees>
            </Position>
            <AltitudeMeters>606.20001220703125</AltitudeMeters>
            <DistanceMeters>29071.031347557</DistanceMeters>
          </Trackpoint>
          <Trackpoint>
            <Time>2021-09-26T10:15:59.000Z</Time>
            <Position>
              <LatitudeDegrees>40.41851014830172061920166015625</LatitudeDegrees>
              <LongitudeDegrees>-3.7419730983674526214599609375</LongitudeDegrees>
            </Position>
            <AltitudeMeters>606.20001220703125</AltitudeMeters>
            <DistanceMeters>29089.926854762</DistanceMeters>
          </Trackpoint>
          <Trackpoint>
            <Time>2021-09-26T10:16:04.000Z</Time>
            <Position>
              <LatitudeDegrees>40.41849036701023578643798828125</LatitudeDegrees>
              <LongitudeDegrees>-3.74214467592537403106689453125</LongitudeDegrees>
            </Position>
            <AltitudeMeters>606.4000244140625</AltitudeMeters>
            <DistanceMeters>29104.631759064</DistanceMeters>
          </Trackpoint>
          <Trackpoint>
            <Time>2021-09-26T10:16:06.000Z</Time>
            <Position>
              <LatitudeDegrees>40.41848533786833286285400390625</LatitudeDegrees>
              <LongitudeDegrees>-3.74221466481685638427734375</LongitudeDegrees>
            </Position>
            <AltitudeMeters>606.79998779296875</AltitudeMeters>
            <DistanceMeters>29110.588956427</DistanceMeters>
          </Trackpoint>
          <Trackpoint>
            <Time>2021-09-26T10:16:13.000Z</Time>
            <Position>
              <LatitudeDegrees>40.41844560764729976654052734375</LatitudeDegrees>
              <LongitudeDegrees>-3.74246184714138507843017578125</LongitudeDegrees>
            </Position>
            <AltitudeMeters>607.79998779296875</AltitudeMeters>
            <DistanceMeters>29131.996136284</DistanceMeters>
          </Trackpoint>
          <Trackpoint>
            <Time>2021-09-26T10:16:16.000Z</Time>
            <Position>
              <LatitudeDegrees>40.418442003428936004638671875</LatitudeDegrees>
              <LongitudeDegrees>-3.7425263039767742156982421875</LongitudeDegrees>
            </Position>
            <AltitudeMeters>608.20001220703125</AltitudeMeters>
            <DistanceMeters>29137.473171426</DistanceMeters>
          </Trackpoint>
          <Trackpoint>
            <Time>2021-09-26T10:16:19.000Z</Time>
            <Position>
              <LatitudeDegrees>40.41843228042125701904296875</LatitudeDegrees>
              <LongitudeDegrees>-3.74259285628795623779296875</LongitudeDegrees>
            </Position>
            <AltitudeMeters>608.79998779296875</AltitudeMeters>
            <DistanceMeters>29143.215804897</DistanceMeters>
          </Trackpoint>
          <Trackpoint>
            <Time>2021-09-26T10:16:24.000Z</Time>
            <Position>
              <LatitudeDegrees>40.418405123054981231689453125</LatitudeDegrees>
              <LongitudeDegrees>-3.74273157678544521331787109375</LongitudeDegrees>
            </Position>
            <AltitudeMeters>610.20001220703125</AltitudeMeters>
            <DistanceMeters>29155.353212656</DistanceMeters>
          </Trackpoint>
          <Trackpoint>
            <Time>2021-09-26T10:16:29.000Z</Time>
            <Position>
              <LatitudeDegrees>40.41837595403194427490234375</LatitudeDegrees>
              <LongitudeDegrees>-3.742853365838527679443359375</LongitudeDegrees>
            </Position>
            <AltitudeMeters>611</AltitudeMeters>
            <DistanceMeters>29166.172078163</DistanceMeters>
          </Trackpoint>
          <Trackpoint>
            <Time>2021-09-26T10:16:37.000Z</Time>
            <Position>
              <LatitudeDegrees>40.41832658462226390838623046875</LatitudeDegrees>
              <LongitudeDegrees>-3.743057548999786376953125</LongitudeDegrees>
            </Position>
            <AltitudeMeters>611.79998779296875</AltitudeMeters>
            <DistanceMeters>29184.325662928</DistanceMeters>
          </Trackpoint>
          <Trackpoint>
            <Time>2021-09-26T10:16:45.000Z</Time>
            <Position>
              <LatitudeDegrees>40.41825617663562297821044921875</LatitudeDegrees>
              <LongitudeDegrees>-3.74330707825720310211181640625</LongitudeDegrees>
            </Position>
            <AltitudeMeters>612</AltitudeMeters>
            <DistanceMeters>29206.87584463</DistanceMeters>
          </Trackpoint>
          <Trackpoint>
            <Time>2021-09-26T10:16:51.000Z</Time>
            <Position>
              <LatitudeDegrees>40.41822440922260284423828125</LatitudeDegrees>
              <LongitudeDegrees>-3.7434939108788967132568359375</LongitudeDegrees>
            </Position>
            <AltitudeMeters>611.79998779296875</AltitudeMeters>
            <DistanceMeters>29223.097603402</DistanceMeters>
          </Trackpoint>
          <Trackpoint>
            <Time>2021-09-26T10:16:58.000Z</Time>
            <Position>
              <LatitudeDegrees>40.41818928904831409454345703125</LatitudeDegrees>
              <LongitudeDegrees>-3.74368208460509777069091796875</LongitudeDegrees>
            </Position>
            <AltitudeMeters>610.5999755859375</AltitudeMeters>
            <DistanceMeters>29239.514963777</DistanceMeters>
          </Trackpoint>
          <Trackpoint>
            <Time>2021-09-26T10:17:04.000Z</Time>
            <Position>
              <LatitudeDegrees>40.41814930737018585205078125</LatitudeDegrees>
              <LongitudeDegrees>-3.74385215342044830322265625</LongitudeDegrees>
            </Position>
            <AltitudeMeters>610.20001220703125</AltitudeMeters>
            <DistanceMeters>29254.597592387</DistanceMeters>
          </Trackpoint>
          <Trackpoint>
            <Time>2021-09-26T10:17:10.000Z</Time>
            <Position>
              <LatitudeDegrees>40.4180936515331268310546875</LatitudeDegrees>
              <LongitudeDegrees>-3.7440387345850467681884765625</LongitudeDegrees>
            </Position>
            <AltitudeMeters>609.4000244140625</AltitudeMeters>
            <DistanceMeters>29271.578416896</DistanceMeters>
          </Trackpoint>
          <Trackpoint>
            <Time>2021-09-26T10:17:14.000Z</Time>
            <Position>
              <LatitudeDegrees>40.41804344393312931060791015625</LatitudeDegrees>
              <LongitudeDegrees>-3.7441476993262767791748046875</LongitudeDegrees>
            </Position>
            <AltitudeMeters>609</AltitudeMeters>
            <DistanceMeters>29282.371376922</DistanceMeters>
          </Trackpoint>
          <Trackpoint>
            <Time>2021-09-26T10:17:17.000Z</Time>
            <Position>
              <LatitudeDegrees>40.4179918952286243438720703125</LatitudeDegrees>
              <LongitudeDegrees>-3.7442194484174251556396484375</LongitudeDegrees>
            </Position>
            <AltitudeMeters>609</AltitudeMeters>
            <DistanceMeters>29290.730487612</DistanceMeters>
          </Trackpoint>
          <Trackpoint>
            <Time>2021-09-26T10:17:25.000Z</Time>
            <Position>
              <LatitudeDegrees>40.41787169873714447021484375</LatitudeDegrees>
              <LongitudeDegrees>-3.7443424947559833526611328125</LongitudeDegrees>
            </Position>
            <AltitudeMeters>609.79998779296875</AltitudeMeters>
            <DistanceMeters>29307.692157209</DistanceMeters>
          </Trackpoint>
          <Trackpoint>
            <Time>2021-09-26T10:17:26.000Z</Time>
            <Position>
              <LatitudeDegrees>40.41786239482462406158447265625</LatitudeDegrees>
              <LongitudeDegrees>-3.7443652935326099395751953125</LongitudeDegrees>
            </Position>
            <AltitudeMeters>610</AltitudeMeters>
            <DistanceMeters>29309.883960272</DistanceMeters>
          </Trackpoint>
          <Trackpoint>
            <Time>2021-09-26T10:17:29.000Z</Time>
            <Position>
              <LatitudeDegrees>40.417826436460018157958984375</LatitudeDegrees>
              <LongitudeDegrees>-3.74440661631524562835693359375</LongitudeDegrees>
            </Position>
            <AltitudeMeters>610.20001220703125</AltitudeMeters>
            <DistanceMeters>29315.20121232</DistanceMeters>
          </Trackpoint>
          <Trackpoint>
            <Time>2021-09-26T10:17:37.000Z</Time>
            <Position>
              <LatitudeDegrees>40.41770515032112598419189453125</LatitudeDegrees>
              <LongitudeDegrees>-3.7445419840514659881591796875</LongitudeDegrees>
            </Position>
            <AltitudeMeters>611.5999755859375</AltitudeMeters>
            <DistanceMeters>29332.915986284</DistanceMeters>
          </Trackpoint>
          <Trackpoint>
            <Time>2021-09-26T10:17:45.000Z</Time>
            <Position>
              <LatitudeDegrees>40.4175761528313159942626953125</LatitudeDegrees>
              <LongitudeDegrees>-3.744673915207386016845703125</LongitudeDegrees>
            </Position>
            <AltitudeMeters>613.4000244140625</AltitudeMeters>
            <DistanceMeters>29351.113043826</DistanceMeters>
          </Trackpoint>
          <Trackpoint>
            <Time>2021-09-26T10:17:49.000Z</Time>
            <Position>
              <LatitudeDegrees>40.41749459691345691680908203125</LatitudeDegrees>
              <LongitudeDegrees>-3.7447917647659778594970703125</LongitudeDegrees>
            </Position>
            <AltitudeMeters>615</AltitudeMeters>
            <DistanceMeters>29364.608844724</DistanceMeters>
          </Trackpoint>
          <Trackpoint>
            <Time>2021-09-26T10:17:53.000Z</Time>
            <Position>
              <LatitudeDegrees>40.41741798631846904754638671875</LatitudeDegrees>
              <LongitudeDegrees>-3.74488254077732563018798828125</LongitudeDegrees>
            </Position>
            <AltitudeMeters>615.5999755859375</AltitudeMeters>
            <DistanceMeters>29376.093325406</DistanceMeters>
          </Trackpoint>
          <Trackpoint>
            <Time>2021-09-26T10:18:01.000Z</Time>
            <Position>
              <LatitudeDegrees>40.41726543568074703216552734375</LatitudeDegrees>
              <LongitudeDegrees>-3.74501765705645084381103515625</LongitudeDegrees>
            </Position>
            <AltitudeMeters>616</AltitudeMeters>
            <DistanceMeters>29396.572409135</DistanceMeters>
          </Trackpoint>
          <Trackpoint>
            <Time>2021-09-26T10:18:09.000Z</Time>
            <Position>
              <LatitudeDegrees>40.4171325825154781341552734375</LatitudeDegrees>
              <LongitudeDegrees>-3.74517875723540782928466796875</LongitudeDegrees>
            </Position>
            <AltitudeMeters>616</AltitudeMeters>
            <DistanceMeters>29416.697443015</DistanceMeters>
          </Trackpoint>
          <Trackpoint>
            <Time>2021-09-26T10:18:10.000Z</Time>
            <Position>
              <LatitudeDegrees>40.41711422614753246307373046875</LatitudeDegrees>
              <LongitudeDegrees>-3.74519116245210170745849609375</LongitudeDegrees>
            </Position>
            <AltitudeMeters>615.79998779296875</AltitudeMeters>
            <DistanceMeters>29418.993867332</DistanceMeters>
          </Trackpoint>
          <Trackpoint>
            <Time>2021-09-26T10:18:18.000Z</Time>
            <Position>
              <LatitudeDegrees>40.416985563933849334716796875</LatitudeDegrees>
              <LongitudeDegrees>-3.74536165036261081695556640625</LongitudeDegrees>
            </Position>
            <AltitudeMeters>615.5999755859375</AltitudeMeters>
            <DistanceMeters>29439.335799958</DistanceMeters>
          </Trackpoint>
          <Trackpoint>
            <Time>2021-09-26T10:18:26.000Z</Time>
            <Position>
              <LatitudeDegrees>40.41686075739562511444091796875</LatitudeDegrees>
              <LongitudeDegrees>-3.745520822703838348388671875</LongitudeDegrees>
            </Position>
            <AltitudeMeters>615.5999755859375</AltitudeMeters>
            <DistanceMeters>29458.69794482</DistanceMeters>
          </Trackpoint>
          <Trackpoint>
            <Time>2021-09-26T10:18:33.000Z</Time>
            <Position>
              <LatitudeDegrees>40.41674374602735042572021484375</LatitudeDegrees>
              <LongitudeDegrees>-3.745618052780628204345703125</LongitudeDegrees>
            </Position>
            <AltitudeMeters>616</AltitudeMeters>
            <DistanceMeters>29474.108688165</DistanceMeters>
          </Trackpoint>
          <Trackpoint>
            <Time>2021-09-26T10:18:39.000Z</Time>
            <Position>
              <LatitudeDegrees>40.41659086011350154876708984375</LatitudeDegrees>
              <LongitudeDegrees>-3.74576230533421039581298828125</LongitudeDegrees>
            </Position>
            <AltitudeMeters>615.4000244140625</AltitudeMeters>
            <DistanceMeters>29495.060300898</DistanceMeters>
          </Trackpoint>
          <Trackpoint>
            <Time>2021-09-26T10:18:42.000Z</Time>
            <Position>
              <LatitudeDegrees>40.41653453372418880462646484375</LatitudeDegrees>
              <LongitudeDegrees>-3.7458448670804500579833984375</LongitudeDegrees>
            </Position>
            <AltitudeMeters>614.79998779296875</AltitudeMeters>
            <DistanceMeters>29504.454017256</DistanceMeters>
          </Trackpoint>
          <Trackpoint>
            <Time>2021-09-26T10:18:47.000Z</Time>
            <Position>
              <LatitudeDegrees>40.41644317097961902618408203125</LatitudeDegrees>
              <LongitudeDegrees>-3.7459310330450534820556640625</LongitudeDegrees>
            </Position>
            <AltitudeMeters>614.20001220703125</AltitudeMeters>
            <DistanceMeters>29516.972682388</DistanceMeters>
          </Trackpoint>
          <Trackpoint>
            <Time>2021-09-26T10:18:51.000Z</Time>
            <Position>
              <LatitudeDegrees>40.4163651354610919952392578125</LatitudeDegrees>
              <LongitudeDegrees>-3.74599213711917400360107421875</LongitudeDegrees>
            </Position>
            <AltitudeMeters>614</AltitudeMeters>
            <DistanceMeters>29527.08488223</DistanceMeters>
          </Trackpoint>
          <Trackpoint>
            <Time>2021-09-26T10:18:59.000Z</Time>
            <Position>
              <LatitudeDegrees>40.41625441052019596099853515625</LatitudeDegrees>
              <LongitudeDegrees>-3.74617603607475757598876953125</LongitudeDegrees>
            </Position>
            <AltitudeMeters>614</AltitudeMeters>
            <DistanceMeters>29546.952511719</DistanceMeters>
          </Trackpoint>
          <Trackpoint>
            <Time>2021-09-26T10:19:04.000Z</Time>
            <Position>
              <LatitudeDegrees>40.4161985032260417938232421875</LatitudeDegrees>
              <LongitudeDegrees>-3.74631701968610286712646484375</LongitudeDegrees>
            </Position>
            <AltitudeMeters>615</AltitudeMeters>
            <DistanceMeters>29560.422862719</DistanceMeters>
          </Trackpoint>
          <Trackpoint>
            <Time>2021-09-26T10:19:12.000Z</Time>
            <Position>
              <LatitudeDegrees>40.41610269807279109954833984375</LatitudeDegrees>
              <LongitudeDegrees>-3.74653712846338748931884765625</LongitudeDegrees>
            </Position>
            <AltitudeMeters>615.79998779296875</AltitudeMeters>
            <DistanceMeters>29581.907728268</DistanceMeters>
          </Trackpoint>
          <Trackpoint>
            <Time>2021-09-26T10:19:19.000Z</Time>
            <Position>
              <LatitudeDegrees>40.41606849990785121917724609375</LatitudeDegrees>
              <LongitudeDegrees>-3.74675824306905269622802734375</LongitudeDegrees>
            </Position>
            <AltitudeMeters>614.79998779296875</AltitudeMeters>
            <DistanceMeters>29601.027707734</DistanceMeters>
          </Trackpoint>
          <Trackpoint>
            <Time>2021-09-26T10:19:25.000Z</Time>
            <Position>
              <LatitudeDegrees>40.4160617105662822723388671875</LatitudeDegrees>
              <LongitudeDegrees>-3.746947757899761199951171875</LongitudeDegrees>
            </Position>
            <AltitudeMeters>615.4000244140625</AltitudeMeters>
            <DistanceMeters>29617.104924786</DistanceMeters>
          </Trackpoint>
          <Trackpoint>
            <Time>2021-09-26T10:19:32.000Z</Time>
            <Position>
              <LatitudeDegrees>40.41602876968681812286376953125</LatitudeDegrees>
              <LongitudeDegrees>-3.747126795351505279541015625</LongitudeDegrees>
            </Position>
            <AltitudeMeters>616.20001220703125</AltitudeMeters>
            <DistanceMeters>29632.71362308</DistanceMeters>
          </Trackpoint>
          <Trackpoint>
            <Time>2021-09-26T10:19:39.000Z</Time>
            <Position>
              <LatitudeDegrees>40.4159913025796413421630859375</LatitudeDegrees>
              <LongitudeDegrees>-3.74732972122728824615478515625</LongitudeDegrees>
            </Position>
            <AltitudeMeters>617.5999755859375</AltitudeMeters>
            <DistanceMeters>29650.407995363</DistanceMeters>
          </Trackpoint>
          <Trackpoint>
            <Time>2021-09-26T10:19:47.000Z</Time>
            <Position>
              <LatitudeDegrees>40.41593958623707294464111328125</LatitudeDegrees>
              <LongitudeDegrees>-3.747553937137126922607421875</LongitudeDegrees>
            </Position>
            <AltitudeMeters>618.5999755859375</AltitudeMeters>
            <DistanceMeters>29670.260620289</DistanceMeters>
          </Trackpoint>
          <Trackpoint>
            <Time>2021-09-26T10:19:55.000Z</Time>
            <Position>
              <LatitudeDegrees>40.41591376997530460357666015625</LatitudeDegrees>
              <LongitudeDegrees>-3.7477847747504711151123046875</LongitudeDegrees>
            </Position>
            <AltitudeMeters>619.5999755859375</AltitudeMeters>
            <DistanceMeters>29690.031886793</DistanceMeters>
          </Trackpoint>
          <Trackpoint>
            <Time>2021-09-26T10:20:02.000Z</Time>
            <Position>
              <LatitudeDegrees>40.4159009456634521484375</LatitudeDegrees>
              <LongitudeDegrees>-3.747974373400211334228515625</LongitudeDegrees>
            </Position>
            <AltitudeMeters>620</AltitudeMeters>
            <DistanceMeters>29706.161814335</DistanceMeters>
          </Trackpoint>
          <Trackpoint>
            <Time>2021-09-26T10:20:10.000Z</Time>
            <Position>
              <LatitudeDegrees>40.4158632270991802215576171875</LatitudeDegrees>
              <LongitudeDegrees>-3.748207390308380126953125</LongitudeDegrees>
            </Position>
            <AltitudeMeters>620.4000244140625</AltitudeMeters>
            <DistanceMeters>29726.349344645</DistanceMeters>
          </Trackpoint>
          <Trackpoint>
            <Time>2021-09-26T10:20:11.000Z</Time>
            <Position>
              <LatitudeDegrees>40.41586062870919704437255859375</LatitudeDegrees>
              <LongitudeDegrees>-3.7482363916933536529541015625</LongitudeDegrees>
            </Position>
            <AltitudeMeters>620.5999755859375</AltitudeMeters>
            <DistanceMeters>29728.82551546</DistanceMeters>
          </Trackpoint>
          <Trackpoint>
            <Time>2021-09-26T10:20:19.000Z</Time>
            <Position>
              <LatitudeDegrees>40.4157985188066959381103515625</LatitudeDegrees>
              <LongitudeDegrees>-3.74846278689801692962646484375</LongitudeDegrees>
            </Position>
            <AltitudeMeters>620.79998779296875</AltitudeMeters>
            <DistanceMeters>29749.217991533</DistanceMeters>
          </Trackpoint>
          <Trackpoint>
            <Time>2021-09-26T10:20:25.000Z</Time>
            <Position>
              <LatitudeDegrees>40.415784604847431182861328125</LatitudeDegrees>
              <LongitudeDegrees>-3.748647272586822509765625</LongitudeDegrees>
            </Position>
            <AltitudeMeters>620.79998779296875</AltitudeMeters>
            <DistanceMeters>29764.928180881</DistanceMeters>
          </Trackpoint>
          <Trackpoint>
            <Time>2021-09-26T10:20:26.000Z</Time>
            <Position>
              <LatitudeDegrees>40.415781922638416290283203125</LatitudeDegrees>
              <LongitudeDegrees>-3.7486813031136989593505859375</LongitudeDegrees>
            </Position>
            <AltitudeMeters>620.5999755859375</AltitudeMeters>
            <DistanceMeters>29767.829220565</DistanceMeters>
          </Trackpoint>
          <Trackpoint>
            <Time>2021-09-26T10:20:33.000Z</Time>
            <Position>
              <LatitudeDegrees>40.41577999480068683624267578125</LatitudeDegrees>
              <LongitudeDegrees>-3.74886243604123592376708984375</LongitudeDegrees>
            </Position>
            <AltitudeMeters>619.5999755859375</AltitudeMeters>
            <DistanceMeters>29783.180079658</DistanceMeters>
          </Trackpoint>
          <Trackpoint>
            <Time>2021-09-26T10:20:39.000Z</Time>
            <Position>
              <LatitudeDegrees>40.41577228344976902008056640625</LatitudeDegrees>
              <LongitudeDegrees>-3.749041222035884857177734375</LongitudeDegrees>
            </Position>
            <AltitudeMeters>618.79998779296875</AltitudeMeters>
            <DistanceMeters>29798.354629052</DistanceMeters>
          </Trackpoint>
          <Trackpoint>
            <Time>2021-09-26T10:20:40.000Z</Time>
            <Position>
              <LatitudeDegrees>40.415770523250102996826171875</LatitudeDegrees>
              <LongitudeDegrees>-3.74907382763922214508056640625</LongitudeDegrees>
            </Position>
            <AltitudeMeters>618.79998779296875</AltitudeMeters>
            <DistanceMeters>29801.125110053</DistanceMeters>
          </Trackpoint>
          <Trackpoint>
            <Time>2021-09-26T10:20:47.000Z</Time>
            <Position>
              <LatitudeDegrees>40.41577295400202274322509765625</LatitudeDegrees>
              <LongitudeDegrees>-3.7492767535150051116943359375</LongitudeDegrees>
            </Position>
            <AltitudeMeters>618.79998779296875</AltitudeMeters>
            <DistanceMeters>29818.323370254</DistanceMeters>
          </Trackpoint>
          <Trackpoint>
            <Time>2021-09-26T10:20:55.000Z</Time>
            <Position>
              <LatitudeDegrees>40.4157495684921741485595703125</LatitudeDegrees>
              <LongitudeDegrees>-3.74951622448861598968505859375</LongitudeDegrees>
            </Position>
            <AltitudeMeters>619.5999755859375</AltitudeMeters>
            <DistanceMeters>29838.782822679</DistanceMeters>
          </Trackpoint>
          <Trackpoint>
            <Time>2021-09-26T10:21:02.000Z</Time>
            <Position>
              <LatitudeDegrees>40.4157425276935100555419921875</LatitudeDegrees>
              <LongitudeDegrees>-3.74971152283251285552978515625</LongitudeDegrees>
            </Position>
            <AltitudeMeters>620.20001220703125</AltitudeMeters>
            <DistanceMeters>29855.351023964</DistanceMeters>
          </Trackpoint>
          <Trackpoint>
            <Time>2021-09-26T10:21:09.000Z</Time>
            <Position>
              <LatitudeDegrees>40.4157328046858310699462890625</LatitudeDegrees>
              <LongitudeDegrees>-3.74992199242115020751953125</LongitudeDegrees>
            </Position>
            <AltitudeMeters>620.4000244140625</AltitudeMeters>
            <DistanceMeters>29873.219078776</DistanceMeters>
          </Trackpoint>
          <Trackpoint>
            <Time>2021-09-26T10:21:17.000Z</Time>
            <Position>
              <LatitudeDegrees>40.4157281108200550079345703125</LatitudeDegrees>
              <LongitudeDegrees>-3.75016246922314167022705078125</LongitudeDegrees>
            </Position>
            <AltitudeMeters>620.79998779296875</AltitudeMeters>
            <DistanceMeters>29893.604025619</DistanceMeters>
          </Trackpoint>
          <Trackpoint>
            <Time>2021-09-26T10:21:24.000Z</Time>
            <Position>
              <LatitudeDegrees>40.41572433896362781524658203125</LatitudeDegrees>
              <LongitudeDegrees>-3.75035424716770648956298828125</LongitudeDegrees>
            </Position>
            <AltitudeMeters>620.5999755859375</AltitudeMeters>
            <DistanceMeters>29909.860816424</DistanceMeters>
          </Trackpoint>
          <Trackpoint>
            <Time>2021-09-26T10:21:33.000Z</Time>
            <Position>
              <LatitudeDegrees>40.41573624126613140106201171875</LatitudeDegrees>
              <LongitudeDegrees>-3.75059363432228565216064453125</LongitudeDegrees>
            </Position>
            <AltitudeMeters>620.20001220703125</AltitudeMeters>
            <DistanceMeters>29930.189871457</DistanceMeters>
          </Trackpoint>
          <Trackpoint>
            <Time>2021-09-26T10:21:40.000Z</Time>
            <Position>
              <LatitudeDegrees>40.41572459042072296142578125</LatitudeDegrees>
              <LongitudeDegrees>-3.75079245306551456451416015625</LongitudeDegrees>
            </Position>
            <AltitudeMeters>619.4000244140625</AltitudeMeters>
            <DistanceMeters>29947.087801722</DistanceMeters>
          </Trackpoint>
          <Trackpoint>
            <Time>2021-09-26T10:21:47.000Z</Time>
            <Position>
              <LatitudeDegrees>40.4157287813723087310791015625</LatitudeDegrees>
              <LongitudeDegrees>-3.75101239420473575592041015625</LongitudeDegrees>
            </Position>
            <AltitudeMeters>619</AltitudeMeters>
            <DistanceMeters>29965.731694356</DistanceMeters>
          </Trackpoint>
          <Trackpoint>
            <Time>2021-09-26T10:21:54.000Z</Time>
            <Position>
              <LatitudeDegrees>40.4157324694097042083740234375</LatitudeDegrees>
              <LongitudeDegrees>-3.7511941976845264434814453125</LongitudeDegrees>
            </Position>
            <AltitudeMeters>619</AltitudeMeters>
            <DistanceMeters>29981.143316617</DistanceMeters>
          </Trackpoint>
          <Trackpoint>
            <Time>2021-09-26T10:22:00.000Z</Time>
            <Position>
              <LatitudeDegrees>40.41573288850486278533935546875</LatitudeDegrees>
              <LongitudeDegrees>-3.751372396945953369140625</LongitudeDegrees>
            </Position>
            <AltitudeMeters>619</AltitudeMeters>
            <DistanceMeters>29996.244493741</DistanceMeters>
          </Trackpoint>
          <Trackpoint>
            <Time>2021-09-26T10:22:02.000Z</Time>
            <Position>
              <LatitudeDegrees>40.41572903282940387725830078125</LatitudeDegrees>
              <LongitudeDegrees>-3.7514273822307586669921875</LongitudeDegrees>
            </Position>
            <AltitudeMeters>619</AltitudeMeters>
            <DistanceMeters>30000.923051777</DistanceMeters>
          </Trackpoint>
          <Trackpoint>
            <Time>2021-09-26T10:22:10.000Z</Time>
            <Position>
              <LatitudeDegrees>40.41572383604943752288818359375</LatitudeDegrees>
              <LongitudeDegrees>-3.7516709603369235992431640625</LongitudeDegrees>
            </Position>
            <AltitudeMeters>619.4000244140625</AltitudeMeters>
            <DistanceMeters>30021.572074745</DistanceMeters>
          </Trackpoint>
          <Trackpoint>
            <Time>2021-09-26T10:22:18.000Z</Time>
            <Position>
              <LatitudeDegrees>40.41573188267648220062255859375</LatitudeDegrees>
              <LongitudeDegrees>-3.75189601443707942962646484375</LongitudeDegrees>
            </Position>
            <AltitudeMeters>620.20001220703125</AltitudeMeters>
            <DistanceMeters>30040.664169071</DistanceMeters>
          </Trackpoint>
          <Trackpoint>
            <Time>2021-09-26T10:22:20.000Z</Time>
            <Position>
              <LatitudeDegrees>40.415742695331573486328125</LatitudeDegrees>
              <LongitudeDegrees>-3.75194747932255268096923828125</LongitudeDegrees>
            </Position>
            <AltitudeMeters>620.5999755859375</AltitudeMeters>
            <DistanceMeters>30045.188678248</DistanceMeters>
          </Trackpoint>
          <Trackpoint>
            <Time>2021-09-26T10:22:29.000Z</Time>
            <Position>
              <LatitudeDegrees>40.41574847884476184844970703125</LatitudeDegrees>
              <LongitudeDegrees>-3.7521891295909881591796875</LongitudeDegrees>
            </Position>
            <AltitudeMeters>621.20001220703125</AltitudeMeters>
            <DistanceMeters>30065.676138151</DistanceMeters>
          </Trackpoint>
          <Trackpoint>
            <Time>2021-09-26T10:22:31.000Z</Time>
            <Position>
              <LatitudeDegrees>40.41574537754058837890625</LatitudeDegrees>
              <LongitudeDegrees>-3.7522489763796329498291015625</LongitudeDegrees>
            </Position>
            <AltitudeMeters>621.20001220703125</AltitudeMeters>
            <DistanceMeters>30070.758957123</DistanceMeters>
          </Trackpoint>
          <Trackpoint>
            <Time>2021-09-26T10:22:34.000Z</Time>
            <Position>
              <LatitudeDegrees>40.41573858819901943206787109375</LatitudeDegrees>
              <LongitudeDegrees>-3.75234159640967845916748046875</LongitudeDegrees>
            </Position>
            <AltitudeMeters>621.20001220703125</AltitudeMeters>
            <DistanceMeters>30078.644456879</DistanceMeters>
          </Trackpoint>
          <Trackpoint>
            <Time>2021-09-26T10:22:35.000Z</Time>
            <Position>
              <LatitudeDegrees>40.41573506779968738555908203125</LatitudeDegrees>
              <LongitudeDegrees>-3.75237763859331607818603515625</LongitudeDegrees>
            </Position>
            <AltitudeMeters>621.20001220703125</AltitudeMeters>
            <DistanceMeters>30081.7251403</DistanceMeters>
          </Trackpoint>
          <Trackpoint>
            <Time>2021-09-26T10:22:40.000Z</Time>
            <Position>
              <LatitudeDegrees>40.4157358221709728240966796875</LatitudeDegrees>
              <LongitudeDegrees>-3.75252029858529567718505859375</LongitudeDegrees>
            </Position>
            <AltitudeMeters>621.20001220703125</AltitudeMeters>
            <DistanceMeters>30093.814092164</DistanceMeters>
          </Trackpoint>
          <Trackpoint>
            <Time>2021-09-26T10:22:42.000Z</Time>
            <Position>
              <LatitudeDegrees>40.41573640890419483184814453125</LatitudeDegrees>
              <LongitudeDegrees>-3.75258400104939937591552734375</LongitudeDegrees>
            </Position>
            <AltitudeMeters>621.20001220703125</AltitudeMeters>
            <DistanceMeters>30099.212245245</DistanceMeters>
          </Trackpoint>
          <Trackpoint>
            <Time>2021-09-26T10:22:49.000Z</Time>
            <Position>
              <LatitudeDegrees>40.41572165675461292266845703125</LatitudeDegrees>
              <LongitudeDegrees>-3.7527864240109920501708984375</LongitudeDegrees>
            </Position>
            <AltitudeMeters>621</AltitudeMeters>
            <DistanceMeters>30116.444338379</DistanceMeters>
          </Trackpoint>
          <Trackpoint>
            <Time>2021-09-26T10:22:55.000Z</Time>
            <Position>
              <LatitudeDegrees>40.41570656932890415191650390625</LatitudeDegrees>
              <LongitudeDegrees>-3.75293268822133541107177734375</LongitudeDegrees>
            </Position>
            <AltitudeMeters>621</AltitudeMeters>
            <DistanceMeters>30128.952539867</DistanceMeters>
          </Trackpoint>
          <Trackpoint>
            <Time>2021-09-26T10:23:01.000Z</Time>
            <Position>
              <LatitudeDegrees>40.41564789600670337677001953125</LatitudeDegrees>
              <LongitudeDegrees>-3.75307090580463409423828125</LongitudeDegrees>
            </Position>
            <AltitudeMeters>621</AltitudeMeters>
            <DistanceMeters>30142.36242213</DistanceMeters>
          </Trackpoint>
          <Trackpoint>
            <Time>2021-09-26T10:23:04.000Z</Time>
            <Position>
              <LatitudeDegrees>40.4156097583472728729248046875</LatitudeDegrees>
              <LongitudeDegrees>-3.75315564684569835662841796875</LongitudeDegrees>
            </Position>
            <AltitudeMeters>621</AltitudeMeters>
            <DistanceMeters>30150.704230632</DistanceMeters>
          </Trackpoint>
          <Trackpoint>
            <Time>2021-09-26T10:23:07.000Z</Time>
            <Position>
              <LatitudeDegrees>40.41558134369552135467529296875</LatitudeDegrees>
              <LongitudeDegrees>-3.7532269768416881561279296875</LongitudeDegrees>
            </Position>
            <AltitudeMeters>621</AltitudeMeters>
            <DistanceMeters>30157.526328109</DistanceMeters>
          </Trackpoint>
          <Trackpoint>
            <Time>2021-09-26T10:23:08.000Z</Time>
            <Position>
              <LatitudeDegrees>40.4155671782791614532470703125</LatitudeDegrees>
              <LongitudeDegrees>-3.7532548047602176666259765625</LongitudeDegrees>
            </Position>
            <AltitudeMeters>621</AltitudeMeters>
            <DistanceMeters>30160.36443103</DistanceMeters>
          </Trackpoint>
          <Trackpoint>
            <Time>2021-09-26T10:23:13.000Z</Time>
            <Position>
              <LatitudeDegrees>40.41550188325345516204833984375</LatitudeDegrees>
              <LongitudeDegrees>-3.7533570639789104461669921875</LongitudeDegrees>
            </Position>
            <AltitudeMeters>621.20001220703125</AltitudeMeters>
            <DistanceMeters>30171.674207015</DistanceMeters>
          </Trackpoint>
          <Trackpoint>
            <Time>2021-09-26T10:23:19.000Z</Time>
            <Position>
              <LatitudeDegrees>40.4154209978878498077392578125</LatitudeDegrees>
              <LongitudeDegrees>-3.753482289612293243408203125</LongitudeDegrees>
            </Position>
            <AltitudeMeters>621.4000244140625</AltitudeMeters>
            <DistanceMeters>30185.590673861</DistanceMeters>
          </Trackpoint>
          <Trackpoint>
            <Time>2021-09-26T10:23:27.000Z</Time>
            <Position>
              <LatitudeDegrees>40.4153237678110599517822265625</LatitudeDegrees>
              <LongitudeDegrees>-3.75365252606570720672607421875</LongitudeDegrees>
            </Position>
            <AltitudeMeters>621.79998779296875</AltitudeMeters>
            <DistanceMeters>30203.624731453</DistanceMeters>
          </Trackpoint>
          <Trackpoint>
            <Time>2021-09-26T10:23:34.000Z</Time>
            <Position>
              <LatitudeDegrees>40.415233410894870758056640625</LatitudeDegrees>
              <LongitudeDegrees>-3.753796778619289398193359375</LongitudeDegrees>
            </Position>
            <AltitudeMeters>622</AltitudeMeters>
            <DistanceMeters>30219.454311082</DistanceMeters>
          </Trackpoint>
          <Trackpoint>
            <Time>2021-09-26T10:23:38.000Z</Time>
            <Position>
              <LatitudeDegrees>40.41518052108585834503173828125</LatitudeDegrees>
              <LongitudeDegrees>-3.75389208085834980010986328125</LongitudeDegrees>
            </Position>
            <AltitudeMeters>621.79998779296875</AltitudeMeters>
            <DistanceMeters>30229.448844869</DistanceMeters>
          </Trackpoint>
          <Trackpoint>
            <Time>2021-09-26T10:23:41.000Z</Time>
            <Position>
              <LatitudeDegrees>40.4151440598070621490478515625</LatitudeDegrees>
              <LongitudeDegrees>-3.7539588846266269683837890625</LongitudeDegrees>
            </Position>
            <AltitudeMeters>621.5999755859375</AltitudeMeters>
            <DistanceMeters>30236.414374335</DistanceMeters>
          </Trackpoint>
          <Trackpoint>
            <Time>2021-09-26T10:23:44.000Z</Time>
            <Position>
              <LatitudeDegrees>40.4151125438511371612548828125</LatitudeDegrees>
              <LongitudeDegrees>-3.75401663593947887420654296875</LongitudeDegrees>
            </Position>
            <AltitudeMeters>621.5999755859375</AltitudeMeters>
            <DistanceMeters>30242.434899797</DistanceMeters>
          </Trackpoint>
          <Trackpoint>
            <Time>2021-09-26T10:23:49.000Z</Time>
            <Position>
              <LatitudeDegrees>40.41505881585180759429931640625</LatitudeDegrees>
              <LongitudeDegrees>-3.75413465313613414764404296875</LongitudeDegrees>
            </Position>
            <AltitudeMeters>622</AltitudeMeters>
            <DistanceMeters>30254.087980487</DistanceMeters>
          </Trackpoint>
          <Trackpoint>
            <Time>2021-09-26T10:23:51.000Z</Time>
            <Position>
              <LatitudeDegrees>40.4150394536554813385009765625</LatitudeDegrees>
              <LongitudeDegrees>-3.7541898898780345916748046875</LongitudeDegrees>
            </Position>
            <AltitudeMeters>622</AltitudeMeters>
            <DistanceMeters>30259.241373042</DistanceMeters>
          </Trackpoint>
          <Trackpoint>
            <Time>2021-09-26T10:23:54.000Z</Time>
            <Position>
              <LatitudeDegrees>40.41501070372760295867919921875</LatitudeDegrees>
              <LongitudeDegrees>-3.7542515806853771209716796875</LongitudeDegrees>
            </Position>
            <AltitudeMeters>622</AltitudeMeters>
            <DistanceMeters>30265.371885105</DistanceMeters>
          </Trackpoint>
          <Trackpoint>
            <Time>2021-09-26T10:23:57.000Z</Time>
            <Position>
              <LatitudeDegrees>40.414967201650142669677734375</LatitudeDegrees>
              <LongitudeDegrees>-3.7543186359107494354248046875</LongitudeDegrees>
            </Position>
            <AltitudeMeters>622.20001220703125</AltitudeMeters>
            <DistanceMeters>30272.837381191</DistanceMeters>
          </Trackpoint>
          <Trackpoint>
            <Time>2021-09-26T10:24:04.000Z</Time>
            <Position>
              <LatitudeDegrees>40.414880029857158660888671875</LatitudeDegrees>
              <LongitudeDegrees>-3.7544918060302734375</LongitudeDegrees>
            </Position>
            <AltitudeMeters>622.5999755859375</AltitudeMeters>
            <DistanceMeters>30290.429390169</DistanceMeters>
          </Trackpoint>
          <Trackpoint>
            <Time>2021-09-26T10:24:07.000Z</Time>
            <Position>
              <LatitudeDegrees>40.41484088636934757232666015625</LatitudeDegrees>
              <LongitudeDegrees>-3.75454804860055446624755859375</LongitudeDegrees>
            </Position>
            <AltitudeMeters>622.5999755859375</AltitudeMeters>
            <DistanceMeters>30296.887013031</DistanceMeters>
          </Trackpoint>
          <Trackpoint>
            <Time>2021-09-26T10:24:11.000Z</Time>
            <Position>
              <LatitudeDegrees>40.41478875093162059783935546875</LatitudeDegrees>
              <LongitudeDegrees>-3.75464938580989837646484375</LongitudeDegrees>
            </Position>
            <AltitudeMeters>622.4000244140625</AltitudeMeters>
            <DistanceMeters>30307.251896988</DistanceMeters>
          </Trackpoint>
          <Trackpoint>
            <Time>2021-09-26T10:24:13.000Z</Time>
            <Position>
              <LatitudeDegrees>40.414764694869518280029296875</LatitudeDegrees>
              <LongitudeDegrees>-3.754698671400547027587890625</LongitudeDegrees>
            </Position>
            <AltitudeMeters>622.20001220703125</AltitudeMeters>
            <DistanceMeters>30312.213347218</DistanceMeters>
          </Trackpoint>
          <Trackpoint>
            <Time>2021-09-26T10:24:21.000Z</Time>
            <Position>
              <LatitudeDegrees>40.4146585799753665924072265625</LatitudeDegrees>
              <LongitudeDegrees>-3.7548976577818393707275390625</LongitudeDegrees>
            </Position>
            <AltitudeMeters>622.20001220703125</AltitudeMeters>
            <DistanceMeters>30332.800616779</DistanceMeters>
          </Trackpoint>
          <Trackpoint>
            <Time>2021-09-26T10:24:30.000Z</Time>
            <Position>
              <LatitudeDegrees>40.41455380618572235107421875</LatitudeDegrees>
              <LongitudeDegrees>-3.75510058365762233734130859375</LongitudeDegrees>
            </Position>
            <AltitudeMeters>622.5999755859375</AltitudeMeters>
            <DistanceMeters>30353.578246448</DistanceMeters>
          </Trackpoint>
          <Trackpoint>
            <Time>2021-09-26T10:24:39.000Z</Time>
            <Position>
              <LatitudeDegrees>40.41442614980041980743408203125</LatitudeDegrees>
              <LongitudeDegrees>-3.75527073629200458526611328125</LongitudeDegrees>
            </Position>
            <AltitudeMeters>622.79998779296875</AltitudeMeters>
            <DistanceMeters>30373.821836277</DistanceMeters>
          </Trackpoint>
          <Trackpoint>
            <Time>2021-09-26T10:24:40.000Z</Time>
            <Position>
              <LatitudeDegrees>40.4144081287086009979248046875</LatitudeDegrees>
              <LongitudeDegrees>-3.75529177486896514892578125</LongitudeDegrees>
            </Position>
            <AltitudeMeters>622.79998779296875</AltitudeMeters>
            <DistanceMeters>30376.506235838</DistanceMeters>
          </Trackpoint>
          <Trackpoint>
            <Time>2021-09-26T10:24:48.000Z</Time>
            <Position>
              <LatitudeDegrees>40.41427577845752239227294921875</LatitudeDegrees>
              <LongitudeDegrees>-3.7554713152348995208740234375</LongitudeDegrees>
            </Position>
            <AltitudeMeters>622.4000244140625</AltitudeMeters>
            <DistanceMeters>30397.683552632</DistanceMeters>
          </Trackpoint>
          <Trackpoint>
            <Time>2021-09-26T10:24:56.000Z</Time>
            <Position>
              <LatitudeDegrees>40.4141462780535221099853515625</LatitudeDegrees>
              <LongitudeDegrees>-3.75565311871469020843505859375</LongitudeDegrees>
            </Position>
            <AltitudeMeters>622.20001220703125</AltitudeMeters>
            <DistanceMeters>30418.781195345</DistanceMeters>
          </Trackpoint>
          <Trackpoint>
            <Time>2021-09-26T10:24:57.000Z</Time>
            <Position>
              <LatitudeDegrees>40.41413001716136932373046875</LatitudeDegrees>
              <LongitudeDegrees>-3.75567407347261905670166015625</LongitudeDegrees>
            </Position>
            <AltitudeMeters>622.20001220703125</AltitudeMeters>
            <DistanceMeters>30421.315043082</DistanceMeters>
          </Trackpoint>
          <Trackpoint>
            <Time>2021-09-26T10:25:06.000Z</Time>
            <Position>
              <LatitudeDegrees>40.4139923863112926483154296875</LatitudeDegrees>
              <LongitudeDegrees>-3.75586484558880329132080078125</LongitudeDegrees>
            </Position>
            <AltitudeMeters>622.4000244140625</AltitudeMeters>
            <DistanceMeters>30443.586596666</DistanceMeters>
          </Trackpoint>
          <Trackpoint>
            <Time>2021-09-26T10:25:15.000Z</Time>
            <Position>
              <LatitudeDegrees>40.41386959142982959747314453125</LatitudeDegrees>
              <LongitudeDegrees>-3.75605578534305095672607421875</LongitudeDegrees>
            </Position>
            <AltitudeMeters>622.5999755859375</AltitudeMeters>
            <DistanceMeters>30464.767111243</DistanceMeters>
          </Trackpoint>
          <Trackpoint>
            <Time>2021-09-26T10:25:17.000Z</Time>
            <Position>
              <LatitudeDegrees>40.41384360752999782562255859375</LatitudeDegrees>
              <LongitudeDegrees>-3.75610859133303165435791015625</LongitudeDegrees>
            </Position>
            <AltitudeMeters>622.79998779296875</AltitudeMeters>
            <DistanceMeters>30470.095390547</DistanceMeters>
          </Trackpoint>
          <Trackpoint>
            <Time>2021-09-26T10:25:23.000Z</Time>
            <Position>
              <LatitudeDegrees>40.41377873159945011138916015625</LatitudeDegrees>
              <LongitudeDegrees>-3.75625929795205593109130859375</LongitudeDegrees>
            </Position>
            <AltitudeMeters>623</AltitudeMeters>
            <DistanceMeters>30484.767096728</DistanceMeters>
          </Trackpoint>
          <Trackpoint>
            <Time>2021-09-26T10:25:31.000Z</Time>
            <Position>
              <LatitudeDegrees>40.4136805795133113861083984375</LatitudeDegrees>
              <LongitudeDegrees>-3.7564694322645664215087890625</LongitudeDegrees>
            </Position>
            <AltitudeMeters>623.4000244140625</AltitudeMeters>
            <DistanceMeters>30505.65871502</DistanceMeters>
          </Trackpoint>
          <Trackpoint>
            <Time>2021-09-26T10:25:34.000Z</Time>
            <Position>
              <LatitudeDegrees>40.41364395059645175933837890625</LatitudeDegrees>
              <LongitudeDegrees>-3.75654294155538082122802734375</LongitudeDegrees>
            </Position>
            <AltitudeMeters>623.5999755859375</AltitudeMeters>
            <DistanceMeters>30513.103619936</DistanceMeters>
          </Trackpoint>
          <Trackpoint>
            <Time>2021-09-26T10:25:36.000Z</Time>
            <Position>
              <LatitudeDegrees>40.41362701915204524993896484375</LatitudeDegrees>
              <LongitudeDegrees>-3.75658887438476085662841796875</LongitudeDegrees>
            </Position>
            <AltitudeMeters>623.5999755859375</AltitudeMeters>
            <DistanceMeters>30517.429162491</DistanceMeters>
          </Trackpoint>
          <Trackpoint>
            <Time>2021-09-26T10:25:43.000Z</Time>
            <Position>
              <LatitudeDegrees>40.41356096975505352020263671875</LatitudeDegrees>
              <LongitudeDegrees>-3.75677797012031078338623046875</LongitudeDegrees>
            </Position>
            <AltitudeMeters>624.20001220703125</AltitudeMeters>
            <DistanceMeters>30535.059627356</DistanceMeters>
          </Trackpoint>
          <Trackpoint>
            <Time>2021-09-26T10:25:46.000Z</Time>
            <Position>
              <LatitudeDegrees>40.4135285317897796630859375</LatitudeDegrees>
              <LongitudeDegrees>-3.756865896284580230712890625</LongitudeDegrees>
            </Position>
            <AltitudeMeters>624.4000244140625</AltitudeMeters>
            <DistanceMeters>30543.339502981</DistanceMeters>
          </Trackpoint>
          <Trackpoint>
            <Time>2021-09-26T10:25:50.000Z</Time>
            <Position>
              <LatitudeDegrees>40.41347111575305461883544921875</LatitudeDegrees>
              <LongitudeDegrees>-3.75696052797138690948486328125</LongitudeDegrees>
            </Position>
            <AltitudeMeters>624.79998779296875</AltitudeMeters>
            <DistanceMeters>30553.593585588</DistanceMeters>
          </Trackpoint>
          <Trackpoint>
            <Time>2021-09-26T10:25:56.000Z</Time>
            <Position>
              <LatitudeDegrees>40.41341797448694705963134765625</LatitudeDegrees>
              <LongitudeDegrees>-3.757122047245502471923828125</LongitudeDegrees>
            </Position>
            <AltitudeMeters>625.4000244140625</AltitudeMeters>
            <DistanceMeters>30568.504606418</DistanceMeters>
          </Trackpoint>
          <Trackpoint>
            <Time>2021-09-26T10:25:57.000Z</Time>
            <Position>
              <LatitudeDegrees>40.4134049825370311737060546875</LatitudeDegrees>
              <LongitudeDegrees>-3.75714777968823909759521484375</LongitudeDegrees>
            </Position>
            <AltitudeMeters>625.4000244140625</AltitudeMeters>
            <DistanceMeters>30571.119136561</DistanceMeters>
          </Trackpoint>
          <Trackpoint>
            <Time>2021-09-26T10:26:03.000Z</Time>
            <Position>
              <LatitudeDegrees>40.413320995867252349853515625</LatitudeDegrees>
              <LongitudeDegrees>-3.75729077495634555816650390625</LongitudeDegrees>
            </Position>
            <AltitudeMeters>626</AltitudeMeters>
            <DistanceMeters>30586.423748705</DistanceMeters>
          </Trackpoint>
          <Trackpoint>
            <Time>2021-09-26T10:26:10.000Z</Time>
            <Position>
              <LatitudeDegrees>40.4132091812789440155029296875</LatitudeDegrees>
              <LongitudeDegrees>-3.757421784102916717529296875</LongitudeDegrees>
            </Position>
            <AltitudeMeters>626</AltitudeMeters>
            <DistanceMeters>30603.10141085</DistanceMeters>
          </Trackpoint>
          <Trackpoint>
            <Time>2021-09-26T10:26:18.000Z</Time>
            <Position>
              <LatitudeDegrees>40.41314162313938140869140625</LatitudeDegrees>
              <LongitudeDegrees>-3.75760995782911777496337890625</LongitudeDegrees>
            </Position>
            <AltitudeMeters>626</AltitudeMeters>
            <DistanceMeters>30620.732131806</DistanceMeters>
          </Trackpoint>
          <Trackpoint>
            <Time>2021-09-26T10:26:24.000Z</Time>
            <Position>
              <LatitudeDegrees>40.413106419146060943603515625</LatitudeDegrees>
              <LongitudeDegrees>-3.7577867321670055389404296875</LongitudeDegrees>
            </Position>
            <AltitudeMeters>626</AltitudeMeters>
            <DistanceMeters>30636.216530075</DistanceMeters>
          </Trackpoint>
          <Trackpoint>
            <Time>2021-09-26T10:26:31.000Z</Time>
            <Position>
              <LatitudeDegrees>40.41303894482553005218505859375</LatitudeDegrees>
              <LongitudeDegrees>-3.757968954741954803466796875</LongitudeDegrees>
            </Position>
            <AltitudeMeters>626</AltitudeMeters>
            <DistanceMeters>30653.388254397</DistanceMeters>
          </Trackpoint>
          <Trackpoint>
            <Time>2021-09-26T10:26:38.000Z</Time>
            <Position>
              <LatitudeDegrees>40.4129057563841342926025390625</LatitudeDegrees>
              <LongitudeDegrees>-3.75803089700639247894287109375</LongitudeDegrees>
            </Position>
            <AltitudeMeters>624.5999755859375</AltitudeMeters>
            <DistanceMeters>30669.114242556</DistanceMeters>
          </Trackpoint>
          <Trackpoint>
            <Time>2021-09-26T10:26:45.000Z</Time>
            <Position>
              <LatitudeDegrees>40.41276552714407444000244140625</LatitudeDegrees>
              <LongitudeDegrees>-3.75805520452558994293212890625</LongitudeDegrees>
            </Position>
            <AltitudeMeters>623</AltitudeMeters>
            <DistanceMeters>30684.857734489</DistanceMeters>
          </Trackpoint>
          <Trackpoint>
            <Time>2021-09-26T10:26:48.000Z</Time>
            <Position>
              <LatitudeDegrees>40.41269293986260890960693359375</LatitudeDegrees>
              <LongitudeDegrees>-3.75804766081273555755615234375</LongitudeDegrees>
            </Position>
            <AltitudeMeters>622.20001220703125</AltitudeMeters>
            <DistanceMeters>30692.96234898</DistanceMeters>
          </Trackpoint>
          <Trackpoint>
            <Time>2021-09-26T10:26:54.000Z</Time>
            <Position>
              <LatitudeDegrees>40.41256754659116268157958984375</LatitudeDegrees>
              <LongitudeDegrees>-3.7580603174865245819091796875</LongitudeDegrees>
            </Position>
            <AltitudeMeters>621.4000244140625</AltitudeMeters>
            <DistanceMeters>30706.960335576</DistanceMeters>
          </Trackpoint>
          <Trackpoint>
            <Time>2021-09-26T10:27:01.000Z</Time>
            <Position>
              <LatitudeDegrees>40.41241700761020183563232421875</LatitudeDegrees>
              <LongitudeDegrees>-3.75808672048151493072509765625</LongitudeDegrees>
            </Position>
            <AltitudeMeters>620.79998779296875</AltitudeMeters>
            <DistanceMeters>30723.864410203</DistanceMeters>
          </Trackpoint>
          <Trackpoint>
            <Time>2021-09-26T10:27:09.000Z</Time>
            <Position>
              <LatitudeDegrees>40.4122523032128810882568359375</LatitudeDegrees>
              <LongitudeDegrees>-3.75809711404144763946533203125</LongitudeDegrees>
            </Position>
            <AltitudeMeters>620.20001220703125</AltitudeMeters>
            <DistanceMeters>30742.217609148</DistanceMeters>
          </Trackpoint>
          <Trackpoint>
            <Time>2021-09-26T10:27:17.000Z</Time>
            <Position>
              <LatitudeDegrees>40.412065051496028900146484375</LatitudeDegrees>
              <LongitudeDegrees>-3.75807984732091426849365234375</LongitudeDegrees>
            </Position>
            <AltitudeMeters>620</AltitudeMeters>
            <DistanceMeters>30763.110524103</DistanceMeters>
          </Trackpoint>
          <Trackpoint>
            <Time>2021-09-26T10:27:25.000Z</Time>
            <Position>
              <LatitudeDegrees>40.41188500821590423583984375</LatitudeDegrees>
              <LongitudeDegrees>-3.7580321542918682098388671875</LongitudeDegrees>
            </Position>
            <AltitudeMeters>620.79998779296875</AltitudeMeters>
            <DistanceMeters>30783.553418659</DistanceMeters>
          </Trackpoint>
          <Trackpoint>
            <Time>2021-09-26T10:27:32.000Z</Time>
            <Position>
              <LatitudeDegrees>40.41173572652041912078857421875</LatitudeDegrees>
              <LongitudeDegrees>-3.7580143846571445465087890625</LongitudeDegrees>
            </Position>
            <AltitudeMeters>622.4000244140625</AltitudeMeters>
            <DistanceMeters>30800.236765033</DistanceMeters>
          </Trackpoint>
          <Trackpoint>
            <Time>2021-09-26T10:27:38.000Z</Time>
            <Position>
              <LatitudeDegrees>40.41160069406032562255859375</LatitudeDegrees>
              <LongitudeDegrees>-3.7580023147165775299072265625</LongitudeDegrees>
            </Position>
            <AltitudeMeters>624.20001220703125</AltitudeMeters>
            <DistanceMeters>30815.30082229</DistanceMeters>
          </Trackpoint>
          <Trackpoint>
            <Time>2021-09-26T10:27:40.000Z</Time>
            <Position>
              <LatitudeDegrees>40.41155434213578701019287109375</LatitudeDegrees>
              <LongitudeDegrees>-3.7579853832721710205078125</LongitudeDegrees>
            </Position>
            <AltitudeMeters>624.5999755859375</AltitudeMeters>
            <DistanceMeters>30820.65614887</DistanceMeters>
          </Trackpoint>
          <Trackpoint>
            <Time>2021-09-26T10:27:47.000Z</Time>
            <Position>
              <LatitudeDegrees>40.41141050867736339569091796875</LatitudeDegrees>
              <LongitudeDegrees>-3.75794791616499423980712890625</LongitudeDegrees>
            </Position>
            <AltitudeMeters>625</AltitudeMeters>
            <DistanceMeters>30836.976969773</DistanceMeters>
          </Trackpoint>
          <Trackpoint>
            <Time>2021-09-26T10:27:55.000Z</Time>
            <Position>
              <LatitudeDegrees>40.41124957613646984100341796875</LatitudeDegrees>
              <LongitudeDegrees>-3.757921345531940460205078125</LongitudeDegrees>
            </Position>
            <AltitudeMeters>624.79998779296875</AltitudeMeters>
            <DistanceMeters>30855.03004483</DistanceMeters>
          </Trackpoint>
          <Trackpoint>
            <Time>2021-09-26T10:28:02.000Z</Time>
            <Position>
              <LatitudeDegrees>40.41112996637821197509765625</LatitudeDegrees>
              <LongitudeDegrees>-3.75782839022576808929443359375</LongitudeDegrees>
            </Position>
            <AltitudeMeters>624.20001220703125</AltitudeMeters>
            <DistanceMeters>30870.498689425</DistanceMeters>
          </Trackpoint>
          <Trackpoint>
            <Time>2021-09-26T10:28:07.000Z</Time>
            <Position>
              <LatitudeDegrees>40.411124266684055328369140625</LatitudeDegrees>
              <LongitudeDegrees>-3.75767684541642665863037109375</LongitudeDegrees>
            </Position>
            <AltitudeMeters>623.5999755859375</AltitudeMeters>
            <DistanceMeters>30883.357176883</DistanceMeters>
          </Trackpoint>
          <Trackpoint>
            <Time>2021-09-26T10:28:16.000Z</Time>
            <Position>
              <LatitudeDegrees>40.41118537075817584991455078125</LatitudeDegrees>
              <LongitudeDegrees>-3.75744156539440155029296875</LongitudeDegrees>
            </Position>
            <AltitudeMeters>624</AltitudeMeters>
            <DistanceMeters>30904.424408718</DistanceMeters>
          </Trackpoint>
          <Trackpoint>
            <Time>2021-09-26T10:28:17.000Z</Time>
            <Position>
              <LatitudeDegrees>40.41119475848972797393798828125</LatitudeDegrees>
              <LongitudeDegrees>-3.757416419684886932373046875</LongitudeDegrees>
            </Position>
            <AltitudeMeters>624.20001220703125</AltitudeMeters>
            <DistanceMeters>30906.798175283</DistanceMeters>
          </Trackpoint>
          <Trackpoint>
            <Time>2021-09-26T10:28:18.000Z</Time>
            <Position>
              <LatitudeDegrees>40.41120448149740695953369140625</LatitudeDegrees>
              <LongitudeDegrees>-3.75738984905183315277099609375</LongitudeDegrees>
            </Position>
            <AltitudeMeters>624.4000244140625</AltitudeMeters>
            <DistanceMeters>30909.297937851</DistanceMeters>
          </Trackpoint>
          <Trackpoint>
            <Time>2021-09-26T10:28:26.000Z</Time>
            <Position>
              <LatitudeDegrees>40.41129165329039096832275390625</LatitudeDegrees>
              <LongitudeDegrees>-3.75717326067388057708740234375</LongitudeDegrees>
            </Position>
            <AltitudeMeters>624.5999755859375</AltitudeMeters>
            <DistanceMeters>30930.059480881</DistanceMeters>
          </Trackpoint>
          <Trackpoint>
            <Time>2021-09-26T10:28:33.000Z</Time>
            <Position>
              <LatitudeDegrees>40.41133926250040531158447265625</LatitudeDegrees>
              <LongitudeDegrees>-3.7569870986044406890869140625</LongitudeDegrees>
            </Position>
            <AltitudeMeters>624</AltitudeMeters>
            <DistanceMeters>30946.702183028</DistanceMeters>
          </Trackpoint>
          <Trackpoint>
            <Time>2021-09-26T10:28:39.000Z</Time>
            <Position>
              <LatitudeDegrees>40.411390475928783416748046875</LatitudeDegrees>
              <LongitudeDegrees>-3.75681987963616847991943359375</LongitudeDegrees>
            </Position>
            <AltitudeMeters>623.20001220703125</AltitudeMeters>
            <DistanceMeters>30961.976969939</DistanceMeters>
          </Trackpoint>
          <Trackpoint>
            <Time>2021-09-26T10:28:47.000Z</Time>
            <Position>
              <LatitudeDegrees>40.41147387586534023284912109375</LatitudeDegrees>
              <LongitudeDegrees>-3.7566068954765796661376953125</LongitudeDegrees>
            </Position>
            <AltitudeMeters>622.5999755859375</AltitudeMeters>
            <DistanceMeters>30982.273572792</DistanceMeters>
          </Trackpoint>
          <Trackpoint>
            <Time>2021-09-26T10:28:48.000Z</Time>
            <Position>
              <LatitudeDegrees>40.411478988826274871826171875</LatitudeDegrees>
              <LongitudeDegrees>-3.75658166594803333282470703125</LongitudeDegrees>
            </Position>
            <AltitudeMeters>622.4000244140625</AltitudeMeters>
            <DistanceMeters>30984.485879604</DistanceMeters>
          </Trackpoint>
          <Trackpoint>
            <Time>2021-09-26T10:28:50.000Z</Time>
            <Position>
              <LatitudeDegrees>40.41149600408971309661865234375</LatitudeDegrees>
              <LongitudeDegrees>-3.7565287761390209197998046875</LongitudeDegrees>
            </Position>
            <AltitudeMeters>622.20001220703125</AltitudeMeters>
            <DistanceMeters>30989.352694837</DistanceMeters>
          </Trackpoint>
          <Trackpoint>
            <Time>2021-09-26T10:28:53.000Z</Time>
            <Position>
              <LatitudeDegrees>40.41152567602694034576416015625</LatitudeDegrees>
              <LongitudeDegrees>-3.75644269399344921112060546875</LongitudeDegrees>
            </Position>
            <AltitudeMeters>622.20001220703125</AltitudeMeters>
            <DistanceMeters>30997.360915795</DistanceMeters>
          </Trackpoint>
          <Trackpoint>
            <Time>2021-09-26T10:28:54.000Z</Time>
            <Position>
              <LatitudeDegrees>40.411534644663333892822265625</LatitudeDegrees>
              <LongitudeDegrees>-3.7564090825617313385009765625</LongitudeDegrees>
            </Position>
            <AltitudeMeters>622.4000244140625</AltitudeMeters>
            <DistanceMeters>31000.380912021</DistanceMeters>
          </Trackpoint>
          <Trackpoint>
            <Time>2021-09-26T10:29:01.000Z</Time>
            <Position>
              <LatitudeDegrees>40.411564148962497711181640625</LatitudeDegrees>
              <LongitudeDegrees>-3.75621420331299304962158203125</LongitudeDegrees>
            </Position>
            <AltitudeMeters>623.4000244140625</AltitudeMeters>
            <DistanceMeters>31017.219688709</DistanceMeters>
          </Trackpoint>
          <Trackpoint>
            <Time>2021-09-26T10:29:08.000Z</Time>
            <Position>
              <LatitudeDegrees>40.41161268018186092376708984375</LatitudeDegrees>
              <LongitudeDegrees>-3.75601119361817836761474609375</LongitudeDegrees>
            </Position>
            <AltitudeMeters>625</AltitudeMeters>
            <DistanceMeters>31035.251993683</DistanceMeters>
          </Trackpoint>
          <Trackpoint>
            <Time>2021-09-26T10:29:16.000Z</Time>
            <Position>
              <LatitudeDegrees>40.41167914867401123046875</LatitudeDegrees>
              <LongitudeDegrees>-3.75577725470066070556640625</LongitudeDegrees>
            </Position>
            <AltitudeMeters>626.20001220703125</AltitudeMeters>
            <DistanceMeters>31056.412674216</DistanceMeters>
          </Trackpoint>
          <Trackpoint>
            <Time>2021-09-26T10:29:17.000Z</Time>
            <Position>
              <LatitudeDegrees>40.41168895550072193145751953125</LatitudeDegrees>
              <LongitudeDegrees>-3.75574506819248199462890625</LongitudeDegrees>
            </Position>
            <AltitudeMeters>626.20001220703125</AltitudeMeters>
            <DistanceMeters>31059.350828923</DistanceMeters>
          </Trackpoint>
          <Trackpoint>
            <Time>2021-09-26T10:29:26.000Z</Time>
            <Position>
              <LatitudeDegrees>40.4117088206112384796142578125</LatitudeDegrees>
              <LongitudeDegrees>-3.7555289827287197113037109375</LongitudeDegrees>
            </Position>
            <AltitudeMeters>625.5999755859375</AltitudeMeters>
            <DistanceMeters>31077.795805478</DistanceMeters>
          </Trackpoint>
          <Trackpoint>
            <Time>2021-09-26T10:29:30.000Z</Time>
            <Position>
              <LatitudeDegrees>40.41176430881023406982421875</LatitudeDegrees>
              <LongitudeDegrees>-3.75539931468665599822998046875</LongitudeDegrees>
            </Position>
            <AltitudeMeters>624.79998779296875</AltitudeMeters>
            <DistanceMeters>31090.40109108</DistanceMeters>
          </Trackpoint>
          <Trackpoint>
            <Time>2021-09-26T10:29:32.000Z</Time>
            <Position>
              <LatitudeDegrees>40.41178199462592601776123046875</LatitudeDegrees>
              <LongitudeDegrees>-3.75535254366695880889892578125</LongitudeDegrees>
            </Position>
            <AltitudeMeters>624.5999755859375</AltitudeMeters>
            <DistanceMeters>31094.827745107</DistanceMeters>
          </Trackpoint>
          <Trackpoint>
            <Time>2021-09-26T10:29:39.000Z</Time>
            <Position>
              <LatitudeDegrees>40.4118199646472930908203125</LatitudeDegrees>
              <LongitudeDegrees>-3.75517778098583221435546875</LongitudeDegrees>
            </Position>
            <AltitudeMeters>623.4000244140625</AltitudeMeters>
            <DistanceMeters>31110.229403398</DistanceMeters>
          </Trackpoint>
          <Trackpoint>
            <Time>2021-09-26T10:29:47.000Z</Time>
            <Position>
              <LatitudeDegrees>40.411917865276336669921875</LatitudeDegrees>
              <LongitudeDegrees>-3.75496999360620975494384765625</LongitudeDegrees>
            </Position>
            <AltitudeMeters>622.5999755859375</AltitudeMeters>
            <DistanceMeters>31130.937161367</DistanceMeters>
          </Trackpoint>
          <Trackpoint>
            <Time>2021-09-26T10:29:55.000Z</Time>
            <Position>
              <LatitudeDegrees>40.41203948669135570526123046875</LatitudeDegrees>
              <LongitudeDegrees>-3.75476731918752193450927734375</LongitudeDegrees>
            </Position>
            <AltitudeMeters>621.20001220703125</AltitudeMeters>
            <DistanceMeters>31152.80610987</DistanceMeters>
          </Trackpoint>
          <Trackpoint>
            <Time>2021-09-26T10:29:56.000Z</Time>
            <Position>
              <LatitudeDegrees>40.41204920969903469085693359375</LatitudeDegrees>
              <LongitudeDegrees>-3.754748962819576263427734375</LongitudeDegrees>
            </Position>
            <AltitudeMeters>621.20001220703125</AltitudeMeters>
            <DistanceMeters>31154.701886868</DistanceMeters>
          </Trackpoint>
          <Trackpoint>
            <Time>2021-09-26T10:30:05.000Z</Time>
            <Position>
              <LatitudeDegrees>40.41216135956346988677978515625</LatitudeDegrees>
              <LongitudeDegrees>-3.75457403250038623809814453125</LongitudeDegrees>
            </Position>
            <AltitudeMeters>621</AltitudeMeters>
            <DistanceMeters>31174.081745986</DistanceMeters>
          </Trackpoint>
          <Trackpoint>
            <Time>2021-09-26T10:30:13.000Z</Time>
            <Position>
              <LatitudeDegrees>40.41228256188333034515380859375</LatitudeDegrees>
              <LongitudeDegrees>-3.7543751299381256103515625</LongitudeDegrees>
            </Position>
            <AltitudeMeters>620.79998779296875</AltitudeMeters>
            <DistanceMeters>31195.671221566</DistanceMeters>
          </Trackpoint>
          <Trackpoint>
            <Time>2021-09-26T10:30:19.000Z</Time>
            <Position>
              <LatitudeDegrees>40.412368476390838623046875</LatitudeDegrees>
              <LongitudeDegrees>-3.75423431396484375</LongitudeDegrees>
            </Position>
            <AltitudeMeters>620.79998779296875</AltitudeMeters>
            <DistanceMeters>31210.963142949</DistanceMeters>
          </Trackpoint>
          <Trackpoint>
            <Time>2021-09-26T10:30:27.000Z</Time>
            <Position>
              <LatitudeDegrees>40.4124985635280609130859375</LatitudeDegrees>
              <LongitudeDegrees>-3.7540621496737003326416015625</LongitudeDegrees>
            </Position>
            <AltitudeMeters>620</AltitudeMeters>
            <DistanceMeters>31231.517928685</DistanceMeters>
          </Trackpoint>
          <Trackpoint>
            <Time>2021-09-26T10:30:28.000Z</Time>
            <Position>
              <LatitudeDegrees>40.41252010501921176910400390625</LatitudeDegrees>
              <LongitudeDegrees>-3.754043541848659515380859375</LongitudeDegrees>
            </Position>
            <AltitudeMeters>619.79998779296875</AltitudeMeters>
            <DistanceMeters>31234.387672527</DistanceMeters>
          </Trackpoint>
          <Trackpoint>
            <Time>2021-09-26T10:30:33.000Z</Time>
            <Position>
              <LatitudeDegrees>40.4126160778105258941650390625</LatitudeDegrees>
              <LongitudeDegrees>-3.75397472642362117767333984375</LongitudeDegrees>
            </Position>
            <AltitudeMeters>619.4000244140625</AltitudeMeters>
            <DistanceMeters>31246.557771698</DistanceMeters>
          </Trackpoint>
          <Trackpoint>
            <Time>2021-09-26T10:30:35.000Z</Time>
            <Position>
              <LatitudeDegrees>40.41265010833740234375</LatitudeDegrees>
              <LongitudeDegrees>-3.75396315939724445343017578125</LongitudeDegrees>
            </Position>
            <AltitudeMeters>619.4000244140625</AltitudeMeters>
            <DistanceMeters>31250.471211317</DistanceMeters>
          </Trackpoint>
          <Trackpoint>
            <Time>2021-09-26T10:30:40.000Z</Time>
            <Position>
              <LatitudeDegrees>40.4127404652535915374755859375</LatitudeDegrees>
              <LongitudeDegrees>-3.75396852381527423858642578125</LongitudeDegrees>
            </Position>
            <AltitudeMeters>619</AltitudeMeters>
            <DistanceMeters>31260.538662733</DistanceMeters>
          </Trackpoint>
          <Trackpoint>
            <Time>2021-09-26T10:30:48.000Z</Time>
            <Position>
              <LatitudeDegrees>40.41291606612503528594970703125</LatitudeDegrees>
              <LongitudeDegrees>-3.75396542251110076904296875</LongitudeDegrees>
            </Position>
            <AltitudeMeters>619</AltitudeMeters>
            <DistanceMeters>31280.085544696</DistanceMeters>
          </Trackpoint>
          <Trackpoint>
            <Time>2021-09-26T10:30:57.000Z</Time>
            <Position>
              <LatitudeDegrees>40.4130935110151767730712890625</LatitudeDegrees>
              <LongitudeDegrees>-3.75394664704799652099609375</LongitudeDegrees>
            </Position>
            <AltitudeMeters>619.4000244140625</AltitudeMeters>
            <DistanceMeters>31299.899697051</DistanceMeters>
          </Trackpoint>
          <Trackpoint>
            <Time>2021-09-26T10:31:04.000Z</Time>
            <Position>
              <LatitudeDegrees>40.41323927231132984161376953125</LatitudeDegrees>
              <LongitudeDegrees>-3.75380943529307842254638671875</LongitudeDegrees>
            </Position>
            <AltitudeMeters>620.79998779296875</AltitudeMeters>
            <DistanceMeters>31319.859831638</DistanceMeters>
          </Trackpoint>
          <Trackpoint>
            <Time>2021-09-26T10:31:09.000Z</Time>
            <Position>
              <LatitudeDegrees>40.41328621096909046173095703125</LatitudeDegrees>
              <LongitudeDegrees>-3.75364959239959716796875</LongitudeDegrees>
            </Position>
            <AltitudeMeters>622</AltitudeMeters>
            <DistanceMeters>31334.377786531</DistanceMeters>
          </Trackpoint>
          <Trackpoint>
            <Time>2021-09-26T10:31:15.000Z</Time>
            <Position>
              <LatitudeDegrees>40.41331194341182708740234375</LatitudeDegrees>
              <LongitudeDegrees>-3.7534740753471851348876953125</LongitudeDegrees>
            </Position>
            <AltitudeMeters>622.79998779296875</AltitudeMeters>
            <DistanceMeters>31349.525235569</DistanceMeters>
          </Trackpoint>
          <Trackpoint>
            <Time>2021-09-26T10:31:20.000Z</Time>
            <Position>
              <LatitudeDegrees>40.4133483208715915679931640625</LatitudeDegrees>
              <LongitudeDegrees>-3.75332705676555633544921875</LongitudeDegrees>
            </Position>
            <AltitudeMeters>622.79998779296875</AltitudeMeters>
            <DistanceMeters>31362.625832231</DistanceMeters>
          </Trackpoint>
          <Trackpoint>
            <Time>2021-09-26T10:31:23.000Z</Time>
            <Position>
              <LatitudeDegrees>40.41339567862451076507568359375</LatitudeDegrees>
              <LongitudeDegrees>-3.7532082013785839080810546875</LongitudeDegrees>
            </Position>
            <AltitudeMeters>622.4000244140625</AltitudeMeters>
            <DistanceMeters>31373.994141431</DistanceMeters>
          </Trackpoint>
          <Trackpoint>
            <Time>2021-09-26T10:31:28.000Z</Time>
            <Position>
              <LatitudeDegrees>40.4134287871420383453369140625</LatitudeDegrees>
              <LongitudeDegrees>-3.753058500587940216064453125</LongitudeDegrees>
            </Position>
            <AltitudeMeters>621.79998779296875</AltitudeMeters>
            <DistanceMeters>31387.204905505</DistanceMeters>
          </Trackpoint>
          <Trackpoint>
            <Time>2021-09-26T10:31:35.000Z</Time>
            <Position>
              <LatitudeDegrees>40.41347446851432323455810546875</LatitudeDegrees>
              <LongitudeDegrees>-3.7528484500944614410400390625</LongitudeDegrees>
            </Position>
            <AltitudeMeters>621.20001220703125</AltitudeMeters>
            <DistanceMeters>31405.717319211</DistanceMeters>
          </Trackpoint>
          <Trackpoint>
            <Time>2021-09-26T10:31:41.000Z</Time>
            <Position>
              <LatitudeDegrees>40.41350564919412136077880859375</LatitudeDegrees>
              <LongitudeDegrees>-3.75265759415924549102783203125</LongitudeDegrees>
            </Position>
            <AltitudeMeters>620.79998779296875</AltitudeMeters>
            <DistanceMeters>31422.259065685</DistanceMeters>
          </Trackpoint>
          <Trackpoint>
            <Time>2021-09-26T10:31:49.000Z</Time>
            <Position>
              <LatitudeDegrees>40.4135327227413654327392578125</LatitudeDegrees>
              <LongitudeDegrees>-3.75243245624005794525146484375</LongitudeDegrees>
            </Position>
            <AltitudeMeters>620.4000244140625</AltitudeMeters>
            <DistanceMeters>31441.574516452</DistanceMeters>
          </Trackpoint>
          <Trackpoint>
            <Time>2021-09-26T10:31:56.000Z</Time>
            <Position>
              <LatitudeDegrees>40.41356918402016162872314453125</LatitudeDegrees>
              <LongitudeDegrees>-3.75222341157495975494384765625</LongitudeDegrees>
            </Position>
            <AltitudeMeters>619.79998779296875</AltitudeMeters>
            <DistanceMeters>31459.748732698</DistanceMeters>
          </Trackpoint>
          <Trackpoint>
            <Time>2021-09-26T10:32:03.000Z</Time>
            <Position>
              <LatitudeDegrees>40.41362701915204524993896484375</LatitudeDegrees>
              <LongitudeDegrees>-3.75201813876628875732421875</LongitudeDegrees>
            </Position>
            <AltitudeMeters>618.79998779296875</AltitudeMeters>
            <DistanceMeters>31478.297207367</DistanceMeters>
          </Trackpoint>
          <Trackpoint>
            <Time>2021-09-26T10:32:09.000Z</Time>
            <Position>
              <LatitudeDegrees>40.41366473771631717681884765625</LatitudeDegrees>
              <LongitudeDegrees>-3.75183784402906894683837890625</LongitudeDegrees>
            </Position>
            <AltitudeMeters>618.4000244140625</AltitudeMeters>
            <DistanceMeters>31494.142466766</DistanceMeters>
          </Trackpoint>
          <Trackpoint>
            <Time>2021-09-26T10:32:15.000Z</Time>
            <Position>
              <LatitudeDegrees>40.41372827254235744476318359375</LatitudeDegrees>
              <LongitudeDegrees>-3.75166702084243297576904296875</LongitudeDegrees>
            </Position>
            <AltitudeMeters>618</AltitudeMeters>
            <DistanceMeters>31510.253628965</DistanceMeters>
          </Trackpoint>
          <Trackpoint>
            <Time>2021-09-26T10:32:17.000Z</Time>
            <Position>
              <LatitudeDegrees>40.4137466289103031158447265625</LatitudeDegrees>
              <LongitudeDegrees>-3.75161186791956424713134765625</LongitudeDegrees>
            </Position>
            <AltitudeMeters>618</AltitudeMeters>
            <DistanceMeters>31515.355068008</DistanceMeters>
          </Trackpoint>
          <Trackpoint>
            <Time>2021-09-26T10:32:21.000Z</Time>
            <Position>
              <LatitudeDegrees>40.4137860238552093505859375</LatitudeDegrees>
              <LongitudeDegrees>-3.75152117572724819183349609375</LongitudeDegrees>
            </Position>
            <AltitudeMeters>618</AltitudeMeters>
            <DistanceMeters>31524.203274762</DistanceMeters>
          </Trackpoint>
          <Trackpoint>
            <Time>2021-09-26T10:32:27.000Z</Time>
            <Position>
              <LatitudeDegrees>40.41385819204151630401611328125</LatitudeDegrees>
              <LongitudeDegrees>-3.75136108137667179107666015625</LongitudeDegrees>
            </Position>
            <AltitudeMeters>617.5999755859375</AltitudeMeters>
            <DistanceMeters>31539.96969301</DistanceMeters>
          </Trackpoint>
          <Trackpoint>
            <Time>2021-09-26T10:32:35.000Z</Time>
            <Position>
              <LatitudeDegrees>40.4139538295567035675048828125</LatitudeDegrees>
              <LongitudeDegrees>-3.75117433257400989532470703125</LongitudeDegrees>
            </Position>
            <AltitudeMeters>617</AltitudeMeters>
            <DistanceMeters>31559.042148787</DistanceMeters>
          </Trackpoint>
          <Trackpoint>
            <Time>2021-09-26T10:32:40.000Z</Time>
            <Position>
              <LatitudeDegrees>40.41401845403015613555908203125</LatitudeDegrees>
              <LongitudeDegrees>-3.7510652840137481689453125</LongitudeDegrees>
            </Position>
            <AltitudeMeters>617</AltitudeMeters>
            <DistanceMeters>31570.752817895</DistanceMeters>
          </Trackpoint>
          <Trackpoint>
            <Time>2021-09-26T10:32:49.000Z</Time>
            <Position>
              <LatitudeDegrees>40.414135716855525970458984375</LatitudeDegrees>
              <LongitudeDegrees>-3.7508802115917205810546875</LongitudeDegrees>
            </Position>
            <AltitudeMeters>617</AltitudeMeters>
            <DistanceMeters>31591.156361318</DistanceMeters>
          </Trackpoint>
          <Trackpoint>
            <Time>2021-09-26T10:32:55.000Z</Time>
            <Position>
              <LatitudeDegrees>40.41424141265451908111572265625</LatitudeDegrees>
              <LongitudeDegrees>-3.7507972307503223419189453125</LongitudeDegrees>
            </Position>
            <AltitudeMeters>617</AltitudeMeters>
            <DistanceMeters>31604.861638408</DistanceMeters>
          </Trackpoint>
          <Trackpoint>
            <Time>2021-09-26T10:32:57.000Z</Time>
            <Position>
              <LatitudeDegrees>40.4142679832875728607177734375</LatitudeDegrees>
              <LongitudeDegrees>-3.75078407116234302520751953125</LongitudeDegrees>
            </Position>
            <AltitudeMeters>617</AltitudeMeters>
            <DistanceMeters>31608.023330143</DistanceMeters>
          </Trackpoint>
          <Trackpoint>
            <Time>2021-09-26T10:33:07.000Z</Time>
            <Position>
              <LatitudeDegrees>40.41445615701377391815185546875</LatitudeDegrees>
              <LongitudeDegrees>-3.7507030181586742401123046875</LongitudeDegrees>
            </Position>
            <AltitudeMeters>616.79998779296875</AltitudeMeters>
            <DistanceMeters>31630.065021839</DistanceMeters>
          </Trackpoint>
          <Trackpoint>
            <Time>2021-09-26T10:33:17.000Z</Time>
            <Position>
              <LatitudeDegrees>40.41464625857770442962646484375</LatitudeDegrees>
              <LongitudeDegrees>-3.75063504092395305633544921875</LongitudeDegrees>
            </Position>
            <AltitudeMeters>617</AltitudeMeters>
            <DistanceMeters>31651.993761675</DistanceMeters>
          </Trackpoint>
          <Trackpoint>
            <Time>2021-09-26T10:33:25.000Z</Time>
            <Position>
              <LatitudeDegrees>40.41480383835732936859130859375</LatitudeDegrees>
              <LongitudeDegrees>-3.7505494616925716400146484375</LongitudeDegrees>
            </Position>
            <AltitudeMeters>617.4000244140625</AltitudeMeters>
            <DistanceMeters>31670.972478418</DistanceMeters>
          </Trackpoint>
          <Trackpoint>
            <Time>2021-09-26T10:33:32.000Z</Time>
            <Position>
              <LatitudeDegrees>40.4149589873850345611572265625</LatitudeDegrees>
              <LongitudeDegrees>-3.75045784749090671539306640625</LongitudeDegrees>
            </Position>
            <AltitudeMeters>618</AltitudeMeters>
            <DistanceMeters>31689.905463246</DistanceMeters>
          </Trackpoint>
          <Trackpoint>
            <Time>2021-09-26T10:33:33.000Z</Time>
            <Position>
              <LatitudeDegrees>40.41498388163745403289794921875</LatitudeDegrees>
              <LongitudeDegrees>-3.75043689273297786712646484375</LongitudeDegrees>
            </Position>
            <AltitudeMeters>618</AltitudeMeters>
            <DistanceMeters>31693.197285194</DistanceMeters>
          </Trackpoint>
          <Trackpoint>
            <Time>2021-09-26T10:33:41.000Z</Time>
            <Position>
              <LatitudeDegrees>40.4151386953890323638916015625</LatitudeDegrees>
              <LongitudeDegrees>-3.7502728588879108428955078125</LongitudeDegrees>
            </Position>
            <AltitudeMeters>618</AltitudeMeters>
            <DistanceMeters>31715.336266408</DistanceMeters>
          </Trackpoint>
          <Trackpoint>
            <Time>2021-09-26T10:33:42.000Z</Time>
            <Position>
              <LatitudeDegrees>40.41515537537634372711181640625</LatitudeDegrees>
              <LongitudeDegrees>-3.75024880282580852508544921875</LongitudeDegrees>
            </Position>
            <AltitudeMeters>618</AltitudeMeters>
            <DistanceMeters>31718.09367903</DistanceMeters>
          </Trackpoint>
          <Trackpoint>
            <Time>2021-09-26T10:33:49.000Z</Time>
            <Position>
              <LatitudeDegrees>40.41522963903844356536865234375</LatitudeDegrees>
              <LongitudeDegrees>-3.75005736015737056732177734375</LongitudeDegrees>
            </Position>
            <AltitudeMeters>616.79998779296875</AltitudeMeters>
            <DistanceMeters>31736.301154594</DistanceMeters>
          </Trackpoint>
          <Trackpoint>
            <Time>2021-09-26T10:33:56.000Z</Time>
            <Position>
              <LatitudeDegrees>40.41530809365212917327880859375</LatitudeDegrees>
              <LongitudeDegrees>-3.7498567812144756317138671875</LongitudeDegrees>
            </Position>
            <AltitudeMeters>616.79998779296875</AltitudeMeters>
            <DistanceMeters>31755.410504696</DistanceMeters>
          </Trackpoint>
          <Trackpoint>
            <Time>2021-09-26T10:34:03.000Z</Time>
            <Position>
              <LatitudeDegrees>40.41538797318935394287109375</LatitudeDegrees>
              <LongitudeDegrees>-3.749639354646205902099609375</LongitudeDegrees>
            </Position>
            <AltitudeMeters>616.79998779296875</AltitudeMeters>
            <DistanceMeters>31775.868412287</DistanceMeters>
          </Trackpoint>
          <Trackpoint>
            <Time>2021-09-26T10:34:04.000Z</Time>
            <Position>
              <LatitudeDegrees>40.4153921641409397125244140625</LatitudeDegrees>
              <LongitudeDegrees>-3.7496046535670757293701171875</LongitudeDegrees>
            </Position>
            <AltitudeMeters>616.79998779296875</AltitudeMeters>
            <DistanceMeters>31778.847768786</DistanceMeters>
          </Trackpoint>
          <Trackpoint>
            <Time>2021-09-26T10:34:10.000Z</Time>
            <Position>
              <LatitudeDegrees>40.41543968953192234039306640625</LatitudeDegrees>
              <LongitudeDegrees>-3.749452270567417144775390625</LongitudeDegrees>
            </Position>
            <AltitudeMeters>616.79998779296875</AltitudeMeters>
            <DistanceMeters>31792.802466866</DistanceMeters>
          </Trackpoint>
          <Trackpoint>
            <Time>2021-09-26T10:34:16.000Z</Time>
            <Position>
              <LatitudeDegrees>40.41549551300704479217529296875</LatitudeDegrees>
              <LongitudeDegrees>-3.74928840436041355133056640625</LongitudeDegrees>
            </Position>
            <AltitudeMeters>616.79998779296875</AltitudeMeters>
            <DistanceMeters>31808.01505373</DistanceMeters>
          </Trackpoint>
          <Trackpoint>
            <Time>2021-09-26T10:34:22.000Z</Time>
            <Position>
              <LatitudeDegrees>40.41550892405211925506591796875</LatitudeDegrees>
              <LongitudeDegrees>-3.74910014681518077850341796875</LongitudeDegrees>
            </Position>
            <AltitudeMeters>617.4000244140625</AltitudeMeters>
            <DistanceMeters>31824.03769625</DistanceMeters>
          </Trackpoint>
          <Trackpoint>
            <Time>2021-09-26T10:34:30.000Z</Time>
            <Position>
              <LatitudeDegrees>40.41554094292223453521728515625</LatitudeDegrees>
              <LongitudeDegrees>-3.7488673813641071319580078125</LongitudeDegrees>
            </Position>
            <AltitudeMeters>618</AltitudeMeters>
            <DistanceMeters>31844.0820269</DistanceMeters>
          </Trackpoint>
          <Trackpoint>
            <Time>2021-09-26T10:34:37.000Z</Time>
            <Position>
              <LatitudeDegrees>40.41559123434126377105712890625</LatitudeDegrees>
              <LongitudeDegrees>-3.7486548162996768951416015625</LongitudeDegrees>
            </Position>
            <AltitudeMeters>618.5999755859375</AltitudeMeters>
            <DistanceMeters>31862.944769862</DistanceMeters>
          </Trackpoint>
          <Trackpoint>
            <Time>2021-09-26T10:34:44.000Z</Time>
            <Position>
              <LatitudeDegrees>40.4156265221536159515380859375</LatitudeDegrees>
              <LongitudeDegrees>-3.74845105223357677459716796875</LongitudeDegrees>
            </Position>
            <AltitudeMeters>619</AltitudeMeters>
            <DistanceMeters>31880.652915857</DistanceMeters>
          </Trackpoint>
          <Trackpoint>
            <Time>2021-09-26T10:34:49.000Z</Time>
            <Position>
              <LatitudeDegrees>40.4156060703098773956298828125</LatitudeDegrees>
              <LongitudeDegrees>-3.74830369837582111358642578125</LongitudeDegrees>
            </Position>
            <AltitudeMeters>618</AltitudeMeters>
            <DistanceMeters>31893.346009409</DistanceMeters>
          </Trackpoint>
          <Trackpoint>
            <Time>2021-09-26T10:34:53.000Z</Time>
            <Position>
              <LatitudeDegrees>40.415605567395687103271484375</LatitudeDegrees>
              <LongitudeDegrees>-3.7481636367738246917724609375</LongitudeDegrees>
            </Position>
            <AltitudeMeters>617</AltitudeMeters>
            <DistanceMeters>31905.215222635</DistanceMeters>
          </Trackpoint>
          <Trackpoint>
            <Time>2021-09-26T10:34:55.000Z</Time>
            <Position>
              <LatitudeDegrees>40.41559156961739063262939453125</LatitudeDegrees>
              <LongitudeDegrees>-3.74809146858751773834228515625</LongitudeDegrees>
            </Position>
            <AltitudeMeters>616.5999755859375</AltitudeMeters>
            <DistanceMeters>31911.527171405</DistanceMeters>
          </Trackpoint>
          <Trackpoint>
            <Time>2021-09-26T10:35:02.000Z</Time>
            <Position>
              <LatitudeDegrees>40.41556390933692455291748046875</LatitudeDegrees>
              <LongitudeDegrees>-3.74787454493343830108642578125</LongitudeDegrees>
            </Position>
            <AltitudeMeters>615.4000244140625</AltitudeMeters>
            <DistanceMeters>31930.165977722</DistanceMeters>
          </Trackpoint>
          <Trackpoint>
            <Time>2021-09-26T10:35:06.000Z</Time>
            <Position>
              <LatitudeDegrees>40.41554328985512256622314453125</LatitudeDegrees>
              <LongitudeDegrees>-3.747753761708736419677734375</LongitudeDegrees>
            </Position>
            <AltitudeMeters>614.20001220703125</AltitudeMeters>
            <DistanceMeters>31940.655997339</DistanceMeters>
          </Trackpoint>
          <Trackpoint>
            <Time>2021-09-26T10:35:14.000Z</Time>
            <Position>
              <LatitudeDegrees>40.415486209094524383544921875</LatitudeDegrees>
              <LongitudeDegrees>-3.74750993214547634124755859375</LongitudeDegrees>
            </Position>
            <AltitudeMeters>611.79998779296875</AltitudeMeters>
            <DistanceMeters>31962.273269506</DistanceMeters>
          </Trackpoint>
          <Trackpoint>
            <Time>2021-09-26T10:35:21.000Z</Time>
            <Position>
              <LatitudeDegrees>40.41541873477399349212646484375</LatitudeDegrees>
              <LongitudeDegrees>-3.74732066877186298370361328125</LongitudeDegrees>
            </Position>
            <AltitudeMeters>610</AltitudeMeters>
            <DistanceMeters>31979.982945253</DistanceMeters>
          </Trackpoint>
          <Trackpoint>
            <Time>2021-09-26T10:35:26.000Z</Time>
            <Position>
              <LatitudeDegrees>40.41531379334628582000732421875</LatitudeDegrees>
              <LongitudeDegrees>-3.74721069820225238800048828125</LongitudeDegrees>
            </Position>
            <AltitudeMeters>609.4000244140625</AltitudeMeters>
            <DistanceMeters>31994.925423968</DistanceMeters>
          </Trackpoint>
          <Trackpoint>
            <Time>2021-09-26T10:35:31.000Z</Time>
            <Position>
              <LatitudeDegrees>40.41522033512592315673828125</LatitudeDegrees>
              <LongitudeDegrees>-3.7471148930490016937255859375</LongitudeDegrees>
            </Position>
            <AltitudeMeters>610.5999755859375</AltitudeMeters>
            <DistanceMeters>32008.120799446</DistanceMeters>
          </Trackpoint>
          <Trackpoint>
            <Time>2021-09-26T10:35:38.000Z</Time>
            <Position>
              <LatitudeDegrees>40.4150699637830257415771484375</LatitudeDegrees>
              <LongitudeDegrees>-3.74701556749641895294189453125</LongitudeDegrees>
            </Position>
            <AltitudeMeters>611.5999755859375</AltitudeMeters>
            <DistanceMeters>32026.85432263</DistanceMeters>
          </Trackpoint>
          <Trackpoint>
            <Time>2021-09-26T10:35:46.000Z</Time>
            <Position>
              <LatitudeDegrees>40.414906851947307586669921875</LatitudeDegrees>
              <LongitudeDegrees>-3.74694683589041233062744140625</LongitudeDegrees>
            </Position>
            <AltitudeMeters>612.79998779296875</AltitudeMeters>
            <DistanceMeters>32045.920385604</DistanceMeters>
          </Trackpoint>
          <Trackpoint>
            <Time>2021-09-26T10:35:56.000Z</Time>
            <Position>
              <LatitudeDegrees>40.4147283174097537994384765625</LatitudeDegrees>
              <LongitudeDegrees>-3.74682781286537647247314453125</LongitudeDegrees>
            </Position>
            <AltitudeMeters>614.4000244140625</AltitudeMeters>
            <DistanceMeters>32068.20490992</DistanceMeters>
          </Trackpoint>
          <Trackpoint>
            <Time>2021-09-26T10:36:02.000Z</Time>
            <Position>
              <LatitudeDegrees>40.41462932713329792022705078125</LatitudeDegrees>
              <LongitudeDegrees>-3.74669923447072505950927734375</LongitudeDegrees>
            </Position>
            <AltitudeMeters>615.5999755859375</AltitudeMeters>
            <DistanceMeters>32083.700384506</DistanceMeters>
          </Trackpoint>
          <Trackpoint>
            <Time>2021-09-26T10:36:07.000Z</Time>
            <Position>
              <LatitudeDegrees>40.41459160856902599334716796875</LatitudeDegrees>
              <LongitudeDegrees>-3.74658574350178241729736328125</LongitudeDegrees>
            </Position>
            <AltitudeMeters>616.4000244140625</AltitudeMeters>
            <DistanceMeters>32094.193846859</DistanceMeters>
          </Trackpoint>
          <Trackpoint>
            <Time>2021-09-26T10:36:08.000Z</Time>
            <Position>
              <LatitudeDegrees>40.41459739208221435546875</LatitudeDegrees>
              <LongitudeDegrees>-3.7465596757829189300537109375</LongitudeDegrees>
            </Position>
            <AltitudeMeters>616.4000244140625</AltitudeMeters>
            <DistanceMeters>32096.492236452</DistanceMeters>
          </Trackpoint>
          <Trackpoint>
            <Time>2021-09-26T10:36:15.000Z</Time>
            <Position>
              <LatitudeDegrees>40.414707027375698089599609375</LatitudeDegrees>
              <LongitudeDegrees>-3.74637753702700138092041015625</LongitudeDegrees>
            </Position>
            <AltitudeMeters>616.20001220703125</AltitudeMeters>
            <DistanceMeters>32116.167815407</DistanceMeters>
          </Trackpoint>
          <Trackpoint>
            <Time>2021-09-26T10:36:22.000Z</Time>
            <Position>
              <LatitudeDegrees>40.41481356136500835418701171875</LatitudeDegrees>
              <LongitudeDegrees>-3.746222890913486480712890625</LongitudeDegrees>
            </Position>
            <AltitudeMeters>616.4000244140625</AltitudeMeters>
            <DistanceMeters>32133.840740576</DistanceMeters>
          </Trackpoint>
          <Trackpoint>
            <Time>2021-09-26T10:36:29.000Z</Time>
            <Position>
              <LatitudeDegrees>40.41490173898637294769287109375</LatitudeDegrees>
              <LongitudeDegrees>-3.746071346104145050048828125</LongitudeDegrees>
            </Position>
            <AltitudeMeters>617</AltitudeMeters>
            <DistanceMeters>32150.003664555</DistanceMeters>
          </Trackpoint>
          <Trackpoint>
            <Time>2021-09-26T10:36:37.000Z</Time>
            <Position>
              <LatitudeDegrees>40.41506065987050533294677734375</LatitudeDegrees>
              <LongitudeDegrees>-3.7459556758403778076171875</LongitudeDegrees>
            </Position>
            <AltitudeMeters>616.79998779296875</AltitudeMeters>
            <DistanceMeters>32170.226278184</DistanceMeters>
          </Trackpoint>
          <Trackpoint>
            <Time>2021-09-26T10:36:38.000Z</Time>
            <Position>
              <LatitudeDegrees>40.41507708840072154998779296875</LatitudeDegrees>
              <LongitudeDegrees>-3.74595190398395061492919921875</LongitudeDegrees>
            </Position>
            <AltitudeMeters>616.5999755859375</AltitudeMeters>
            <DistanceMeters>32172.083558238</DistanceMeters>
          </Trackpoint>
          <Trackpoint>
            <Time>2021-09-26T10:36:45.000Z</Time>
            <Position>
              <LatitudeDegrees>40.41520399041473865509033203125</LatitudeDegrees>
              <LongitudeDegrees>-3.745933212339878082275390625</LongitudeDegrees>
            </Position>
            <AltitudeMeters>615.4000244140625</AltitudeMeters>
            <DistanceMeters>32186.296962834</DistanceMeters>
          </Trackpoint>
          <Trackpoint>
            <Time>2021-09-26T10:36:51.000Z</Time>
            <Position>
              <LatitudeDegrees>40.41533659212291240692138671875</LatitudeDegrees>
              <LongitudeDegrees>-3.745909743010997772216796875</LongitudeDegrees>
            </Position>
            <AltitudeMeters>614</AltitudeMeters>
            <DistanceMeters>32201.18919831</DistanceMeters>
          </Trackpoint>
          <Trackpoint>
            <Time>2021-09-26T10:36:57.000Z</Time>
            <Position>
              <LatitudeDegrees>40.4154722951352596282958984375</LatitudeDegrees>
              <LongitudeDegrees>-3.74592105858027935028076171875</LongitudeDegrees>
            </Position>
            <AltitudeMeters>612.5999755859375</AltitudeMeters>
            <DistanceMeters>32216.323526475</DistanceMeters>
          </Trackpoint>
          <Trackpoint>
            <Time>2021-09-26T10:36:59.000Z</Time>
            <Position>
              <LatitudeDegrees>40.4155101813375949859619140625</LatitudeDegrees>
              <LongitudeDegrees>-3.7459327094256877899169921875</LongitudeDegrees>
            </Position>
            <AltitudeMeters>612</AltitudeMeters>
            <DistanceMeters>32220.655327353</DistanceMeters>
          </Trackpoint>
          <Trackpoint>
            <Time>2021-09-26T10:37:05.000Z</Time>
            <Position>
              <LatitudeDegrees>40.4156367480754852294921875</LatitudeDegrees>
              <LongitudeDegrees>-3.74598559923470020294189453125</LongitudeDegrees>
            </Position>
            <AltitudeMeters>611.5999755859375</AltitudeMeters>
            <DistanceMeters>32235.438625703</DistanceMeters>
          </Trackpoint>
          <Trackpoint>
            <Time>2021-09-26T10:37:14.000Z</Time>
            <Position>
              <LatitudeDegrees>40.415828190743923187255859375</LatitudeDegrees>
              <LongitudeDegrees>-3.746024072170257568359375</LongitudeDegrees>
            </Position>
            <AltitudeMeters>612.4000244140625</AltitudeMeters>
            <DistanceMeters>32256.994823736</DistanceMeters>
          </Trackpoint>
          <Trackpoint>
            <Time>2021-09-26T10:37:22.000Z</Time>
            <Position>
              <LatitudeDegrees>40.41602491401135921478271484375</LatitudeDegrees>
              <LongitudeDegrees>-3.7460795603692531585693359375</LongitudeDegrees>
            </Position>
            <AltitudeMeters>613</AltitudeMeters>
            <DistanceMeters>32279.38990078</DistanceMeters>
          </Trackpoint>
          <Trackpoint>
            <Time>2021-09-26T10:37:28.000Z</Time>
            <Position>
              <LatitudeDegrees>40.416178889572620391845703125</LatitudeDegrees>
              <LongitudeDegrees>-3.746051900088787078857421875</LongitudeDegrees>
            </Position>
            <AltitudeMeters>613.79998779296875</AltitudeMeters>
            <DistanceMeters>32296.687373222</DistanceMeters>
          </Trackpoint>
          <Trackpoint>
            <Time>2021-09-26T10:37:33.000Z</Time>
            <Position>
              <LatitudeDegrees>40.4162709228694438934326171875</LatitudeDegrees>
              <LongitudeDegrees>-3.74595492146909236907958984375</LongitudeDegrees>
            </Position>
            <AltitudeMeters>613.79998779296875</AltitudeMeters>
            <DistanceMeters>32309.819982635</DistanceMeters>
          </Trackpoint>
          <Trackpoint>
            <Time>2021-09-26T10:37:35.000Z</Time>
            <Position>
              <LatitudeDegrees>40.41630470193922519683837890625</LatitudeDegrees>
              <LongitudeDegrees>-3.74588183127343654632568359375</LongitudeDegrees>
            </Position>
            <AltitudeMeters>613.5999755859375</AltitudeMeters>
            <DistanceMeters>32317.064484295</DistanceMeters>
          </Trackpoint>
          <Trackpoint>
            <Time>2021-09-26T10:37:41.000Z</Time>
            <Position>
              <LatitudeDegrees>40.41634677909314632415771484375</LatitudeDegrees>
              <LongitudeDegrees>-3.74571536667644977569580078125</LongitudeDegrees>
            </Position>
            <AltitudeMeters>613.79998779296875</AltitudeMeters>
            <DistanceMeters>32331.927585927</DistanceMeters>
          </Trackpoint>
          <Trackpoint>
            <Time>2021-09-26T10:37:45.000Z</Time>
            <Position>
              <LatitudeDegrees>40.41637192480266094207763671875</LatitudeDegrees>
              <LongitudeDegrees>-3.74560422264039516448974609375</LongitudeDegrees>
            </Position>
            <AltitudeMeters>614</AltitudeMeters>
            <DistanceMeters>32341.75263133</DistanceMeters>
          </Trackpoint>
          <Trackpoint>
            <Time>2021-09-26T10:37:48.000Z</Time>
            <Position>
              <LatitudeDegrees>40.41638298891484737396240234375</LatitudeDegrees>
              <LongitudeDegrees>-3.74552794732153415679931640625</LongitudeDegrees>
            </Position>
            <AltitudeMeters>614.4000244140625</AltitudeMeters>
            <DistanceMeters>32348.33284535</DistanceMeters>
          </Trackpoint>
          <Trackpoint>
            <Time>2021-09-26T10:37:53.000Z</Time>
            <Position>
              <LatitudeDegrees>40.4164191149175167083740234375</LatitudeDegrees>
              <LongitudeDegrees>-3.7453845329582691192626953125</LongitudeDegrees>
            </Position>
            <AltitudeMeters>614.79998779296875</AltitudeMeters>
            <DistanceMeters>32361.133617481</DistanceMeters>
          </Trackpoint>
          <Trackpoint>
            <Time>2021-09-26T10:37:57.000Z</Time>
            <Position>
              <LatitudeDegrees>40.416461862623691558837890625</LatitudeDegrees>
              <LongitudeDegrees>-3.745255284011363983154296875</LongitudeDegrees>
            </Position>
            <AltitudeMeters>615</AltitudeMeters>
            <DistanceMeters>32373.075265911</DistanceMeters>
          </Trackpoint>
          <Trackpoint>
            <Time>2021-09-26T10:38:01.000Z</Time>
            <Position>
              <LatitudeDegrees>40.41649379767477512359619140625</LatitudeDegrees>
              <LongitudeDegrees>-3.7451330758631229400634765625</LongitudeDegrees>
            </Position>
            <AltitudeMeters>615</AltitudeMeters>
            <DistanceMeters>32384.024388929</DistanceMeters>
          </Trackpoint>
          <Trackpoint>
            <Time>2021-09-26T10:38:03.000Z</Time>
            <Position>
              <LatitudeDegrees>40.41652095504105091094970703125</LatitudeDegrees>
              <LongitudeDegrees>-3.74506023712456226348876953125</LongitudeDegrees>
            </Position>
            <AltitudeMeters>615</AltitudeMeters>
            <DistanceMeters>32390.897258044</DistanceMeters>
          </Trackpoint>
          <Trackpoint>
            <Time>2021-09-26T10:38:04.000Z</Time>
            <Position>
              <LatitudeDegrees>40.4165347851812839508056640625</LatitudeDegrees>
              <LongitudeDegrees>-3.74502888880670070648193359375</LongitudeDegrees>
            </Position>
            <AltitudeMeters>614.79998779296875</AltitudeMeters>
            <DistanceMeters>32393.967665152</DistanceMeters>
          </Trackpoint>
          <Trackpoint>
            <Time>2021-09-26T10:38:10.000Z</Time>
            <Position>
              <LatitudeDegrees>40.41656185872852802276611328125</LatitudeDegrees>
              <LongitudeDegrees>-3.74488212168216705322265625</LongitudeDegrees>
            </Position>
            <AltitudeMeters>613.5999755859375</AltitudeMeters>
            <DistanceMeters>32406.764909636</DistanceMeters>
          </Trackpoint>
          <Trackpoint>
            <Time>2021-09-26T10:38:16.000Z</Time>
            <Position>
              <LatitudeDegrees>40.41657091118395328521728515625</LatitudeDegrees>
              <LongitudeDegrees>-3.74476117081940174102783203125</LongitudeDegrees>
            </Position>
            <AltitudeMeters>613.5999755859375</AltitudeMeters>
            <DistanceMeters>32417.063368154</DistanceMeters>
          </Trackpoint>
          <Trackpoint>
            <Time>2021-09-26T10:38:19.000Z</Time>
            <Position>
              <LatitudeDegrees>40.41655699722468852996826171875</LatitudeDegrees>
              <LongitudeDegrees>-3.7447371147572994232177734375</LongitudeDegrees>
            </Position>
            <AltitudeMeters>613.5999755859375</AltitudeMeters>
            <DistanceMeters>32419.620275533</DistanceMeters>
          </Trackpoint>
          <Trackpoint>
            <Time>2021-09-26T10:38:20.000Z</Time>
            <Position>
              <LatitudeDegrees>40.4165522195398807525634765625</LatitudeDegrees>
              <LongitudeDegrees>-3.7447433173656463623046875</LongitudeDegrees>
            </Position>
            <AltitudeMeters>613.5999755859375</AltitudeMeters>
            <DistanceMeters>32420.36851663</DistanceMeters>
          </Trackpoint>
          <Trackpoint>
            <Time>2021-09-26T10:38:23.000Z</Time>
            <Position>
              <LatitudeDegrees>40.41656839661300182342529296875</LatitudeDegrees>
              <LongitudeDegrees>-3.7447263859212398529052734375</LongitudeDegrees>
            </Position>
            <AltitudeMeters>613.5999755859375</AltitudeMeters>
            <DistanceMeters>32422.670831741</DistanceMeters>
          </Trackpoint>
          <Trackpoint>
            <Time>2021-09-26T10:39:03.000Z</Time>
            <Position>
              <LatitudeDegrees>40.41663042269647121429443359375</LatitudeDegrees>
              <LongitudeDegrees>-3.74456696212291717529296875</LongitudeDegrees>
            </Position>
            <AltitudeMeters>613</AltitudeMeters>
            <DistanceMeters>32437.842405442</DistanceMeters>
          </Trackpoint>
          <Trackpoint>
            <Time>2021-09-26T10:39:04.000Z</Time>
            <Position>
              <LatitudeDegrees>40.41663997806608676910400390625</LatitudeDegrees>
              <LongitudeDegrees>-3.744544498622417449951171875</LongitudeDegrees>
            </Position>
            <AltitudeMeters>613</AltitudeMeters>
            <DistanceMeters>32440.023884364</DistanceMeters>
          </Trackpoint>
          <Trackpoint>
            <Time>2021-09-26T10:39:05.000Z</Time>
            <Position>
              <LatitudeDegrees>40.4166501201689243316650390625</LatitudeDegrees>
              <LongitudeDegrees>-3.744520358741283416748046875</LongitudeDegrees>
            </Position>
            <AltitudeMeters>613</AltitudeMeters>
            <DistanceMeters>32442.361232487</DistanceMeters>
          </Trackpoint>
          <Trackpoint>
            <Time>2021-09-26T10:39:15.000Z</Time>
            <Position>
              <LatitudeDegrees>40.4166675545275211334228515625</LatitudeDegrees>
              <LongitudeDegrees>-3.74436101876199245452880859375</LongitudeDegrees>
            </Position>
            <AltitudeMeters>612.4000244140625</AltitudeMeters>
            <DistanceMeters>32456.002117913</DistanceMeters>
          </Trackpoint>
          <Trackpoint>
            <Time>2021-09-26T10:39:24.000Z</Time>
            <Position>
              <LatitudeDegrees>40.4166987352073192596435546875</LatitudeDegrees>
              <LongitudeDegrees>-3.74425155110657215118408203125</LongitudeDegrees>
            </Position>
            <AltitudeMeters>611.79998779296875</AltitudeMeters>
            <DistanceMeters>32465.905889434</DistanceMeters>
          </Trackpoint>
          <Trackpoint>
            <Time>2021-09-26T10:39:34.000Z</Time>
            <Position>
              <LatitudeDegrees>40.41676118038594722747802734375</LatitudeDegrees>
              <LongitudeDegrees>-3.744060695171356201171875</LongitudeDegrees>
            </Position>
            <AltitudeMeters>611.20001220703125</AltitudeMeters>
            <DistanceMeters>32483.509187512</DistanceMeters>
          </Trackpoint>
          <Trackpoint>
            <Time>2021-09-26T10:39:40.000Z</Time>
            <Position>
              <LatitudeDegrees>40.41678934358060359954833984375</LatitudeDegrees>
              <LongitudeDegrees>-3.743959777057170867919921875</LongitudeDegrees>
            </Position>
            <AltitudeMeters>611</AltitudeMeters>
            <DistanceMeters>32492.617883488</DistanceMeters>
          </Trackpoint>
          <Trackpoint>
            <Time>2021-09-26T10:39:42.000Z</Time>
            <Position>
              <LatitudeDegrees>40.41680141352117061614990234375</LatitudeDegrees>
              <LongitudeDegrees>-3.74392180703580379486083984375</LongitudeDegrees>
            </Position>
            <AltitudeMeters>610.79998779296875</AltitudeMeters>
            <DistanceMeters>32496.105506313</DistanceMeters>
          </Trackpoint>
          <Trackpoint>
            <Time>2021-09-26T10:39:48.000Z</Time>
            <Position>
              <LatitudeDegrees>40.416823960840702056884765625</LatitudeDegrees>
              <LongitudeDegrees>-3.74382239766418933868408203125</LongitudeDegrees>
            </Position>
            <AltitudeMeters>610.79998779296875</AltitudeMeters>
            <DistanceMeters>32504.895348976</DistanceMeters>
          </Trackpoint>
          <Trackpoint>
            <Time>2021-09-26T10:39:50.000Z</Time>
            <Position>
              <LatitudeDegrees>40.41683100163936614990234375</LatitudeDegrees>
              <LongitudeDegrees>-3.7437951564788818359375</LongitudeDegrees>
            </Position>
            <AltitudeMeters>610.5999755859375</AltitudeMeters>
            <DistanceMeters>32507.332927755</DistanceMeters>
          </Trackpoint>
          <Trackpoint>
            <Time>2021-09-26T10:39:59.000Z</Time>
            <Position>
              <LatitudeDegrees>40.4168693907558917999267578125</LatitudeDegrees>
              <LongitudeDegrees>-3.7436441145837306976318359375</LongitudeDegrees>
            </Position>
            <AltitudeMeters>610.20001220703125</AltitudeMeters>
            <DistanceMeters>32520.826051976</DistanceMeters>
          </Trackpoint>
          <Trackpoint>
            <Time>2021-09-26T10:40:05.000Z</Time>
            <Position>
              <LatitudeDegrees>40.41690266691148281097412109375</LatitudeDegrees>
              <LongitudeDegrees>-3.7435344792902469635009765625</LongitudeDegrees>
            </Position>
            <AltitudeMeters>610</AltitudeMeters>
            <DistanceMeters>32530.826908274</DistanceMeters>
          </Trackpoint>
          <Trackpoint>
            <Time>2021-09-26T10:40:07.000Z</Time>
            <Position>
              <LatitudeDegrees>40.416913144290447235107421875</LatitudeDegrees>
              <LongitudeDegrees>-3.74350807629525661468505859375</LongitudeDegrees>
            </Position>
            <AltitudeMeters>610</AltitudeMeters>
            <DistanceMeters>32533.348251927</DistanceMeters>
          </Trackpoint>
          <Trackpoint>
            <Time>2021-09-26T10:40:18.000Z</Time>
            <Position>
              <LatitudeDegrees>40.4169646091759204864501953125</LatitudeDegrees>
              <LongitudeDegrees>-3.74332082457840442657470703125</LongitudeDegrees>
            </Position>
            <AltitudeMeters>610</AltitudeMeters>
            <DistanceMeters>32550.218103415</DistanceMeters>
          </Trackpoint>
          <Trackpoint>
            <Time>2021-09-26T10:40:28.000Z</Time>
            <Position>
              <LatitudeDegrees>40.41701431386172771453857421875</LatitudeDegrees>
              <LongitudeDegrees>-3.74314011074602603912353515625</LongitudeDegrees>
            </Position>
            <AltitudeMeters>610.20001220703125</AltitudeMeters>
            <DistanceMeters>32566.500148257</DistanceMeters>
          </Trackpoint>
          <Trackpoint>
            <Time>2021-09-26T10:40:31.000Z</Time>
            <Position>
              <LatitudeDegrees>40.41703091003000736236572265625</LatitudeDegrees>
              <LongitudeDegrees>-3.74308344908058643341064453125</LongitudeDegrees>
            </Position>
            <AltitudeMeters>610.5999755859375</AltitudeMeters>
            <DistanceMeters>32571.643894361</DistanceMeters>
          </Trackpoint>
          <Trackpoint>
            <Time>2021-09-26T10:40:35.000Z</Time>
            <Position>
              <LatitudeDegrees>40.41706946678459644317626953125</LatitudeDegrees>
              <LongitudeDegrees>-3.74299627728760242462158203125</LongitudeDegrees>
            </Position>
            <AltitudeMeters>611.4000244140625</AltitudeMeters>
            <DistanceMeters>32580.187319195</DistanceMeters>
          </Trackpoint>
          <Trackpoint>
            <Time>2021-09-26T10:40:43.000Z</Time>
            <Position>
              <LatitudeDegrees>40.417112968862056732177734375</LatitudeDegrees>
              <LongitudeDegrees>-3.7428451515734195709228515625</LongitudeDegrees>
            </Position>
            <AltitudeMeters>612.4000244140625</AltitudeMeters>
            <DistanceMeters>32593.878423125</DistanceMeters>
          </Trackpoint>
          <Trackpoint>
            <Time>2021-09-26T10:40:53.000Z</Time>
            <Position>
              <LatitudeDegrees>40.41715362109243869781494140625</LatitudeDegrees>
              <LongitudeDegrees>-3.742662258446216583251953125</LongitudeDegrees>
            </Position>
            <AltitudeMeters>613.4000244140625</AltitudeMeters>
            <DistanceMeters>32610.0234591</DistanceMeters>
          </Trackpoint>
          <Trackpoint>
            <Time>2021-09-26T10:41:03.000Z</Time>
            <Position>
              <LatitudeDegrees>40.41718882508575916290283203125</LatitudeDegrees>
              <LongitudeDegrees>-3.7424947880208492279052734375</LongitudeDegrees>
            </Position>
            <AltitudeMeters>613.79998779296875</AltitudeMeters>
            <DistanceMeters>32624.74554777</DistanceMeters>
          </Trackpoint>
          <Trackpoint>
            <Time>2021-09-26T10:41:13.000Z</Time>
            <Position>
              <LatitudeDegrees>40.41723869740962982177734375</LatitudeDegrees>
              <LongitudeDegrees>-3.74232052825391292572021484375</LongitudeDegrees>
            </Position>
            <AltitudeMeters>612.5999755859375</AltitudeMeters>
            <DistanceMeters>32640.520841007</DistanceMeters>
          </Trackpoint>
          <Trackpoint>
            <Time>2021-09-26T10:41:22.000Z</Time>
            <Position>
              <LatitudeDegrees>40.4172755777835845947265625</LatitudeDegrees>
              <LongitudeDegrees>-3.74215540476143360137939453125</LongitudeDegrees>
            </Position>
            <AltitudeMeters>610.4000244140625</AltitudeMeters>
            <DistanceMeters>32655.103030147</DistanceMeters>
          </Trackpoint>
          <Trackpoint>
            <Time>2021-09-26T10:41:30.000Z</Time>
            <Position>
              <LatitudeDegrees>40.41730248369276523590087890625</LatitudeDegrees>
              <LongitudeDegrees>-3.74201123602688312530517578125</LongitudeDegrees>
            </Position>
            <AltitudeMeters>608.5999755859375</AltitudeMeters>
            <DistanceMeters>32667.68178205</DistanceMeters>
          </Trackpoint>
          <Trackpoint>
            <Time>2021-09-26T10:41:37.000Z</Time>
            <Position>
              <LatitudeDegrees>40.41737138293683528900146484375</LatitudeDegrees>
              <LongitudeDegrees>-3.74189950525760650634765625</LongitudeDegrees>
            </Position>
            <AltitudeMeters>607.20001220703125</AltitudeMeters>
            <DistanceMeters>32679.865229698</DistanceMeters>
          </Trackpoint>
          <Trackpoint>
            <Time>2021-09-26T10:41:45.000Z</Time>
            <Position>
              <LatitudeDegrees>40.41735864244401454925537109375</LatitudeDegrees>
              <LongitudeDegrees>-3.74177000485360622406005859375</LongitudeDegrees>
            </Position>
            <AltitudeMeters>606.5999755859375</AltitudeMeters>
            <DistanceMeters>32690.930028676</DistanceMeters>
          </Trackpoint>
          <Trackpoint>
            <Time>2021-09-26T10:41:54.000Z</Time>
            <Position>
              <LatitudeDegrees>40.41738496161997318267822265625</LatitudeDegrees>
              <LongitudeDegrees>-3.74163128435611724853515625</LongitudeDegrees>
            </Position>
            <AltitudeMeters>605.5999755859375</AltitudeMeters>
            <DistanceMeters>32703.044350876</DistanceMeters>
          </Trackpoint>
          <Trackpoint>
            <Time>2021-09-26T10:42:04.000Z</Time>
            <Position>
              <LatitudeDegrees>40.41738831438124179840087890625</LatitudeDegrees>
              <LongitudeDegrees>-3.741467334330081939697265625</LongitudeDegrees>
            </Position>
            <AltitudeMeters>604.79998779296875</AltitudeMeters>
            <DistanceMeters>32716.941987548</DistanceMeters>
          </Trackpoint>
          <Trackpoint>
            <Time>2021-09-26T10:42:12.000Z</Time>
            <Position>
              <LatitudeDegrees>40.41740097105503082275390625</LatitudeDegrees>
              <LongitudeDegrees>-3.741331882774829864501953125</LongitudeDegrees>
            </Position>
            <AltitudeMeters>604.20001220703125</AltitudeMeters>
            <DistanceMeters>32728.506391213</DistanceMeters>
          </Trackpoint>
          <Trackpoint>
            <Time>2021-09-26T10:42:21.000Z</Time>
            <Position>
              <LatitudeDegrees>40.41739250533282756805419921875</LatitudeDegrees>
              <LongitudeDegrees>-3.74117824248969554901123046875</LongitudeDegrees>
            </Position>
            <AltitudeMeters>603.5999755859375</AltitudeMeters>
            <DistanceMeters>32741.559686292</DistanceMeters>
          </Trackpoint>
          <Trackpoint>
            <Time>2021-09-26T10:42:22.000Z</Time>
            <Position>
              <LatitudeDegrees>40.4173882305622100830078125</LatitudeDegrees>
              <LongitudeDegrees>-3.74115762300789356231689453125</LongitudeDegrees>
            </Position>
            <AltitudeMeters>603.79998779296875</AltitudeMeters>
            <DistanceMeters>32743.370188363</DistanceMeters>
          </Trackpoint>
          <Trackpoint>
            <Time>2021-09-26T10:42:24.000Z</Time>
            <Position>
              <LatitudeDegrees>40.41738479398190975189208984375</LatitudeDegrees>
              <LongitudeDegrees>-3.7411161325871944427490234375</LongitudeDegrees>
            </Position>
            <AltitudeMeters>603.79998779296875</AltitudeMeters>
            <DistanceMeters>32746.905386491</DistanceMeters>
          </Trackpoint>
          <Trackpoint>
            <Time>2021-09-26T10:42:29.000Z</Time>
            <Position>
              <LatitudeDegrees>40.41737792082130908966064453125</LatitudeDegrees>
              <LongitudeDegrees>-3.74101446010172367095947265625</LongitudeDegrees>
            </Position>
            <AltitudeMeters>604.4000244140625</AltitudeMeters>
            <DistanceMeters>32755.554383731</DistanceMeters>
          </Trackpoint>
          <Trackpoint>
            <Time>2021-09-26T10:42:38.000Z</Time>
            <Position>
              <LatitudeDegrees>40.4173679463565349578857421875</LatitudeDegrees>
              <LongitudeDegrees>-3.740814886987209320068359375</LongitudeDegrees>
            </Position>
            <AltitudeMeters>604</AltitudeMeters>
            <DistanceMeters>32772.502738568</DistanceMeters>
          </Trackpoint>
          <Trackpoint>
            <Time>2021-09-26T10:42:47.000Z</Time>
            <Position>
              <LatitudeDegrees>40.41737272404134273529052734375</LatitudeDegrees>
              <LongitudeDegrees>-3.74062721617519855499267578125</LongitudeDegrees>
            </Position>
            <AltitudeMeters>604.79998779296875</AltitudeMeters>
            <DistanceMeters>32788.414535554</DistanceMeters>
          </Trackpoint>
          <Trackpoint>
            <Time>2021-09-26T10:42:56.000Z</Time>
            <Position>
              <LatitudeDegrees>40.4173441417515277862548828125</LatitudeDegrees>
              <LongitudeDegrees>-3.740444071590900421142578125</LongitudeDegrees>
            </Position>
            <AltitudeMeters>605.4000244140625</AltitudeMeters>
            <DistanceMeters>32804.256945241</DistanceMeters>
          </Trackpoint>
          <Trackpoint>
            <Time>2021-09-26T10:43:03.000Z</Time>
            <Position>
              <LatitudeDegrees>40.417340286076068878173828125</LatitudeDegrees>
              <LongitudeDegrees>-3.74031658284366130828857421875</LongitudeDegrees>
            </Position>
            <AltitudeMeters>605.4000244140625</AltitudeMeters>
            <DistanceMeters>32815.069131405</DistanceMeters>
          </Trackpoint>
          <Trackpoint>
            <Time>2021-09-26T10:43:12.000Z</Time>
            <Position>
              <LatitudeDegrees>40.41732251644134521484375</LatitudeDegrees>
              <LongitudeDegrees>-3.74016067944467067718505859375</LongitudeDegrees>
            </Position>
            <AltitudeMeters>605.5999755859375</AltitudeMeters>
            <DistanceMeters>32828.427400028</DistanceMeters>
          </Trackpoint>
          <Trackpoint>
            <Time>2021-09-26T10:43:16.000Z</Time>
            <Position>
              <LatitudeDegrees>40.4173132963478565216064453125</LatitudeDegrees>
              <LongitudeDegrees>-3.74008188955485820770263671875</LongitudeDegrees>
            </Position>
            <AltitudeMeters>605.5999755859375</AltitudeMeters>
            <DistanceMeters>32835.182990776</DistanceMeters>
          </Trackpoint>
          <Trackpoint>
            <Time>2021-09-26T10:43:19.000Z</Time>
            <Position>
              <LatitudeDegrees>40.4173139669001102447509765625</LatitudeDegrees>
              <LongitudeDegrees>-3.74003268778324127197265625</LongitudeDegrees>
            </Position>
            <AltitudeMeters>605.4000244140625</AltitudeMeters>
            <DistanceMeters>32839.353353737</DistanceMeters>
          </Trackpoint>
          <Trackpoint>
            <Time>2021-09-26T10:43:28.000Z</Time>
            <Position>
              <LatitudeDegrees>40.41730080731213092803955078125</LatitudeDegrees>
              <LongitudeDegrees>-3.73979925177991390228271484375</LongitudeDegrees>
            </Position>
            <AltitudeMeters>605.20001220703125</AltitudeMeters>
            <DistanceMeters>32859.188458995</DistanceMeters>
          </Trackpoint>
          <Trackpoint>
            <Time>2021-09-26T10:43:32.000Z</Time>
            <Position>
              <LatitudeDegrees>40.41728303767740726470947265625</LatitudeDegrees>
              <LongitudeDegrees>-3.7396808154881000518798828125</LongitudeDegrees>
            </Position>
            <AltitudeMeters>605.4000244140625</AltitudeMeters>
            <DistanceMeters>32869.416971383</DistanceMeters>
          </Trackpoint>
          <Trackpoint>
            <Time>2021-09-26T10:43:36.000Z</Time>
            <Position>
              <LatitudeDegrees>40.417271554470062255859375</LatitudeDegrees>
              <LongitudeDegrees>-3.73955919407308101654052734375</LongitudeDegrees>
            </Position>
            <AltitudeMeters>605.4000244140625</AltitudeMeters>
            <DistanceMeters>32879.801439251</DistanceMeters>
          </Trackpoint>
          <Trackpoint>
            <Time>2021-09-26T10:43:43.000Z</Time>
            <Position>
              <LatitudeDegrees>40.41726007126271724700927734375</LatitudeDegrees>
              <LongitudeDegrees>-3.73933506198227405548095703125</LongitudeDegrees>
            </Position>
            <AltitudeMeters>606.5999755859375</AltitudeMeters>
            <DistanceMeters>32898.837166386</DistanceMeters>
          </Trackpoint>
          <Trackpoint>
            <Time>2021-09-26T10:43:48.000Z</Time>
            <Position>
              <LatitudeDegrees>40.4172656871378421783447265625</LatitudeDegrees>
              <LongitudeDegrees>-3.73919315636157989501953125</LongitudeDegrees>
            </Position>
            <AltitudeMeters>607.20001220703125</AltitudeMeters>
            <DistanceMeters>32910.878217311</DistanceMeters>
          </Trackpoint>
          <Trackpoint>
            <Time>2021-09-26T10:43:51.000Z</Time>
            <Position>
              <LatitudeDegrees>40.41726375930011272430419921875</LatitudeDegrees>
              <LongitudeDegrees>-3.7391225807368755340576171875</LongitudeDegrees>
            </Position>
            <AltitudeMeters>607</AltitudeMeters>
            <DistanceMeters>32916.861882835</DistanceMeters>
          </Trackpoint>
          <Trackpoint>
            <Time>2021-09-26T10:43:55.000Z</Time>
            <Position>
              <LatitudeDegrees>40.41725152172148227691650390625</LatitudeDegrees>
              <LongitudeDegrees>-3.73902141116559505462646484375</LongitudeDegrees>
            </Position>
            <AltitudeMeters>606.5999755859375</AltitudeMeters>
            <DistanceMeters>32925.54214538</DistanceMeters>
          </Trackpoint>
          <Trackpoint>
            <Time>2021-09-26T10:43:58.000Z</Time>
            <Position>
              <LatitudeDegrees>40.41724531911313533782958984375</LatitudeDegrees>
              <LongitudeDegrees>-3.73893641866743564605712890625</LongitudeDegrees>
            </Position>
            <AltitudeMeters>606.4000244140625</AltitudeMeters>
            <DistanceMeters>32932.776668382</DistanceMeters>
          </Trackpoint>
          <Trackpoint>
            <Time>2021-09-26T10:44:06.000Z</Time>
            <Position>
              <LatitudeDegrees>40.4172392003238201141357421875</LatitudeDegrees>
              <LongitudeDegrees>-3.73870323412120342254638671875</LongitudeDegrees>
            </Position>
            <AltitudeMeters>604.79998779296875</AltitudeMeters>
            <DistanceMeters>32952.548391608</DistanceMeters>
          </Trackpoint>
          <Trackpoint>
            <Time>2021-09-26T10:44:12.000Z</Time>
            <Position>
              <LatitudeDegrees>40.41722436435520648956298828125</LatitudeDegrees>
              <LongitudeDegrees>-3.73854699544608592987060546875</LongitudeDegrees>
            </Position>
            <AltitudeMeters>603.4000244140625</AltitudeMeters>
            <DistanceMeters>32965.890764973</DistanceMeters>
          </Trackpoint>
          <Trackpoint>
            <Time>2021-09-26T10:44:20.000Z</Time>
            <Position>
              <LatitudeDegrees>40.417207516729831695556640625</LatitudeDegrees>
              <LongitudeDegrees>-3.7383128888905048370361328125</LongitudeDegrees>
            </Position>
            <AltitudeMeters>602</AltitudeMeters>
            <DistanceMeters>32985.817393423</DistanceMeters>
          </Trackpoint>
          <Trackpoint>
            <Time>2021-09-26T10:44:28.000Z</Time>
            <Position>
              <LatitudeDegrees>40.417193435132503509521484375</LatitudeDegrees>
              <LongitudeDegrees>-3.738084398210048675537109375</LongitudeDegrees>
            </Position>
            <AltitudeMeters>601.79998779296875</AltitudeMeters>
            <DistanceMeters>33005.243094557</DistanceMeters>
          </Trackpoint>
          <Trackpoint>
            <Time>2021-09-26T10:44:34.000Z</Time>
            <Position>
              <LatitudeDegrees>40.41719033382833003997802734375</LatitudeDegrees>
              <LongitudeDegrees>-3.73792338185012340545654296875</LongitudeDegrees>
            </Position>
            <AltitudeMeters>601.4000244140625</AltitudeMeters>
            <DistanceMeters>33018.891921504</DistanceMeters>
          </Trackpoint>
          <Trackpoint>
            <Time>2021-09-26T10:44:42.000Z</Time>
            <Position>
              <LatitudeDegrees>40.41717298328876495361328125</LatitudeDegrees>
              <LongitudeDegrees>-3.737680725753307342529296875</LongitudeDegrees>
            </Position>
            <AltitudeMeters>601.79998779296875</AltitudeMeters>
            <DistanceMeters>33039.54487991</DistanceMeters>
          </Trackpoint>
          <Trackpoint>
            <Time>2021-09-26T10:44:49.000Z</Time>
            <Position>
              <LatitudeDegrees>40.417192764580249786376953125</LatitudeDegrees>
              <LongitudeDegrees>-3.73747042380273342132568359375</LongitudeDegrees>
            </Position>
            <AltitudeMeters>603</AltitudeMeters>
            <DistanceMeters>33057.501157628</DistanceMeters>
          </Trackpoint>
          <Trackpoint>
            <Time>2021-09-26T10:44:58.000Z</Time>
            <Position>
              <LatitudeDegrees>40.4171433113515377044677734375</LatitudeDegrees>
              <LongitudeDegrees>-3.73721879906952381134033203125</LongitudeDegrees>
            </Position>
            <AltitudeMeters>605.79998779296875</AltitudeMeters>
            <DistanceMeters>33079.522355715</DistanceMeters>
          </Trackpoint>
          <Trackpoint>
            <Time>2021-09-26T10:45:06.000Z</Time>
            <Position>
              <LatitudeDegrees>40.41715462692081928253173828125</LatitudeDegrees>
              <LongitudeDegrees>-3.73697228729724884033203125</LongitudeDegrees>
            </Position>
            <AltitudeMeters>606.79998779296875</AltitudeMeters>
            <DistanceMeters>33100.449387215</DistanceMeters>
          </Trackpoint>
          <Trackpoint>
            <Time>2021-09-26T10:45:13.000Z</Time>
            <Position>
              <LatitudeDegrees>40.4171925969421863555908203125</LatitudeDegrees>
              <LongitudeDegrees>-3.73677019961178302764892578125</LongitudeDegrees>
            </Position>
            <AltitudeMeters>606.20001220703125</AltitudeMeters>
            <DistanceMeters>33118.088045151</DistanceMeters>
          </Trackpoint>
          <Trackpoint>
            <Time>2021-09-26T10:45:21.000Z</Time>
            <Position>
              <LatitudeDegrees>40.41724213398993015289306640625</LatitudeDegrees>
              <LongitudeDegrees>-3.7365573830902576446533203125</LongitudeDegrees>
            </Position>
            <AltitudeMeters>604.79998779296875</AltitudeMeters>
            <DistanceMeters>33136.94600025</DistanceMeters>
          </Trackpoint>
          <Trackpoint>
            <Time>2021-09-26T10:45:28.000Z</Time>
            <Position>
              <LatitudeDegrees>40.41726761497557163238525390625</LatitudeDegrees>
              <LongitudeDegrees>-3.736377842724323272705078125</LongitudeDegrees>
            </Position>
            <AltitudeMeters>603.4000244140625</AltitudeMeters>
            <DistanceMeters>33152.422523687</DistanceMeters>
          </Trackpoint>
          <Trackpoint>
            <Time>2021-09-26T10:45:34.000Z</Time>
            <Position>
              <LatitudeDegrees>40.41729510761797428131103515625</LatitudeDegrees>
              <LongitudeDegrees>-3.7362348474562168121337890625</LongitudeDegrees>
            </Position>
            <AltitudeMeters>601.5999755859375</AltitudeMeters>
            <DistanceMeters>33164.919891497</DistanceMeters>
          </Trackpoint>
          <Trackpoint>
            <Time>2021-09-26T10:45:35.000Z</Time>
            <Position>
              <LatitudeDegrees>40.41729980148375034332275390625</LatitudeDegrees>
              <LongitudeDegrees>-3.73620794154703617095947265625</LongitudeDegrees>
            </Position>
            <AltitudeMeters>601.20001220703125</AltitudeMeters>
            <DistanceMeters>33167.25723962</DistanceMeters>
          </Trackpoint>
          <Trackpoint>
            <Time>2021-09-26T10:45:41.000Z</Time>
            <Position>
              <LatitudeDegrees>40.417282283306121826171875</LatitudeDegrees>
              <LongitudeDegrees>-3.73612563125789165496826171875</LongitudeDegrees>
            </Position>
            <AltitudeMeters>601</AltitudeMeters>
            <DistanceMeters>33174.498624426</DistanceMeters>
          </Trackpoint>
          <Trackpoint>
            <Time>2021-09-26T10:45:42.000Z</Time>
            <Position>
              <LatitudeDegrees>40.41728002019226551055908203125</LatitudeDegrees>
              <LongitudeDegrees>-3.73610417358577251434326171875</LongitudeDegrees>
            </Position>
            <AltitudeMeters>600.79998779296875</AltitudeMeters>
            <DistanceMeters>33176.331433318</DistanceMeters>
          </Trackpoint>
          <Trackpoint>
            <Time>2021-09-26T10:45:45.000Z</Time>
            <Position>
              <LatitudeDegrees>40.41728831827640533447265625</LatitudeDegrees>
              <LongitudeDegrees>-3.73601700179278850555419921875</LongitudeDegrees>
            </Position>
            <AltitudeMeters>600.4000244140625</AltitudeMeters>
            <DistanceMeters>33183.776338235</DistanceMeters>
          </Trackpoint>
          <Trackpoint>
            <Time>2021-09-26T10:45:49.000Z</Time>
            <Position>
              <LatitudeDegrees>40.41732779704034328460693359375</LatitudeDegrees>
              <LongitudeDegrees>-3.73589110560715198516845703125</LongitudeDegrees>
            </Position>
            <AltitudeMeters>599.5999755859375</AltitudeMeters>
            <DistanceMeters>33195.31416242</DistanceMeters>
          </Trackpoint>
          <Trackpoint>
            <Time>2021-09-26T10:45:56.000Z</Time>
            <Position>
              <LatitudeDegrees>40.41735512204468250274658203125</LatitudeDegrees>
              <LongitudeDegrees>-3.73570360243320465087890625</LongitudeDegrees>
            </Position>
            <AltitudeMeters>599.79998779296875</AltitudeMeters>
            <DistanceMeters>33211.491605837</DistanceMeters>
          </Trackpoint>
          <Trackpoint>
            <Time>2021-09-26T10:46:04.000Z</Time>
            <Position>
              <LatitudeDegrees>40.41741429828107357025146484375</LatitudeDegrees>
              <LongitudeDegrees>-3.73546211980283260345458984375</LongitudeDegrees>
            </Position>
            <AltitudeMeters>599.79998779296875</AltitudeMeters>
            <DistanceMeters>33232.988446582</DistanceMeters>
          </Trackpoint>
          <Trackpoint>
            <Time>2021-09-26T10:46:10.000Z</Time>
            <Position>
              <LatitudeDegrees>40.417469032108783721923828125</LatitudeDegrees>
              <LongitudeDegrees>-3.735253997147083282470703125</LongitudeDegrees>
            </Position>
            <AltitudeMeters>600.4000244140625</AltitudeMeters>
            <DistanceMeters>33251.646863909</DistanceMeters>
          </Trackpoint>
          <Trackpoint>
            <Time>2021-09-26T10:46:12.000Z</Time>
            <Position>
              <LatitudeDegrees>40.41745889000594615936279296875</LatitudeDegrees>
              <LongitudeDegrees>-3.73517931438982486724853515625</LongitudeDegrees>
            </Position>
            <AltitudeMeters>600.5999755859375</AltitudeMeters>
            <DistanceMeters>33258.075054153</DistanceMeters>
          </Trackpoint>
          <Trackpoint>
            <Time>2021-09-26T10:46:17.000Z</Time>
            <Position>
              <LatitudeDegrees>40.41737859137356281280517578125</LatitudeDegrees>
              <LongitudeDegrees>-3.7350124306976795196533203125</LongitudeDegrees>
            </Position>
            <AltitudeMeters>601.20001220703125</AltitudeMeters>
            <DistanceMeters>33274.80407472</DistanceMeters>
          </Trackpoint>
          <Trackpoint>
            <Time>2021-09-26T10:46:19.000Z</Time>
            <Position>
              <LatitudeDegrees>40.41735243983566761016845703125</LatitudeDegrees>
              <LongitudeDegrees>-3.7349785678088665008544921875</LongitudeDegrees>
            </Position>
            <AltitudeMeters>601.20001220703125</AltitudeMeters>
            <DistanceMeters>33278.892432764</DistanceMeters>
          </Trackpoint>
          <Trackpoint>
            <Time>2021-09-26T10:46:22.000Z</Time>
            <Position>
              <LatitudeDegrees>40.4173139669001102447509765625</LatitudeDegrees>
              <LongitudeDegrees>-3.73492777347564697265625</LongitudeDegrees>
            </Position>
            <AltitudeMeters>601.20001220703125</AltitudeMeters>
            <DistanceMeters>33284.963740041</DistanceMeters>
          </Trackpoint>
          <Trackpoint>
            <Time>2021-09-26T10:46:28.000Z</Time>
            <Position>
              <LatitudeDegrees>40.417230986058712005615234375</LatitudeDegrees>
              <LongitudeDegrees>-3.73479542322456836700439453125</LongitudeDegrees>
            </Position>
            <AltitudeMeters>601.79998779296875</AltitudeMeters>
            <DistanceMeters>33299.491954205</DistanceMeters>
          </Trackpoint>
          <Trackpoint>
            <Time>2021-09-26T10:46:34.000Z</Time>
            <Position>
              <LatitudeDegrees>40.41716384701430797576904296875</LatitudeDegrees>
              <LongitudeDegrees>-3.73470875434577465057373046875</LongitudeDegrees>
            </Position>
            <AltitudeMeters>602.5999755859375</AltitudeMeters>
            <DistanceMeters>33309.969053482</DistanceMeters>
          </Trackpoint>
          <Trackpoint>
            <Time>2021-09-26T10:46:40.000Z</Time>
            <Position>
              <LatitudeDegrees>40.41708421893417835235595703125</LatitudeDegrees>
              <LongitudeDegrees>-3.73462124727666378021240234375</LongitudeDegrees>
            </Position>
            <AltitudeMeters>603.5999755859375</AltitudeMeters>
            <DistanceMeters>33321.524083135</DistanceMeters>
          </Trackpoint>
          <Trackpoint>
            <Time>2021-09-26T10:46:42.000Z</Time>
            <Position>
              <LatitudeDegrees>40.4170604981482028961181640625</LatitudeDegrees>
              <LongitudeDegrees>-3.7345926649868488311767578125</LongitudeDegrees>
            </Position>
            <AltitudeMeters>603.79998779296875</AltitudeMeters>
            <DistanceMeters>33325.107484969</DistanceMeters>
          </Trackpoint>
          <Trackpoint>
            <Time>2021-09-26T10:46:45.000Z</Time>
            <Position>
              <LatitudeDegrees>40.417020432651042938232421875</LatitudeDegrees>
              <LongitudeDegrees>-3.7345588020980358123779296875</LongitudeDegrees>
            </Position>
            <AltitudeMeters>604.20001220703125</AltitudeMeters>
            <DistanceMeters>33330.41028216</DistanceMeters>
          </Trackpoint>
          <Trackpoint>
            <Time>2021-09-26T10:46:52.000Z</Time>
            <Position>
              <LatitudeDegrees>40.41691272519528865814208984375</LatitudeDegrees>
              <LongitudeDegrees>-3.734517730772495269775390625</LongitudeDegrees>
            </Position>
            <AltitudeMeters>605.20001220703125</AltitudeMeters>
            <DistanceMeters>33342.89319044</DistanceMeters>
          </Trackpoint>
          <Trackpoint>
            <Time>2021-09-26T10:47:00.000Z</Time>
            <Position>
              <LatitudeDegrees>40.41679487563669681549072265625</LatitudeDegrees>
              <LongitudeDegrees>-3.7344548664987087249755859375</LongitudeDegrees>
            </Position>
            <AltitudeMeters>606.20001220703125</AltitudeMeters>
            <DistanceMeters>33357.050576383</DistanceMeters>
          </Trackpoint>
          <Trackpoint>
            <Time>2021-09-26T10:47:08.000Z</Time>
            <Position>
              <LatitudeDegrees>40.41671357117593288421630859375</LatitudeDegrees>
              <LongitudeDegrees>-3.73438269831240177154541015625</LongitudeDegrees>
            </Position>
            <AltitudeMeters>606.79998779296875</AltitudeMeters>
            <DistanceMeters>33367.972862769</DistanceMeters>
          </Trackpoint>
          <Trackpoint>
            <Time>2021-09-26T10:47:12.000Z</Time>
            <Position>
              <LatitudeDegrees>40.41663846932351589202880859375</LatitudeDegrees>
              <LongitudeDegrees>-3.73433877713978290557861328125</LongitudeDegrees>
            </Position>
            <AltitudeMeters>607</AltitudeMeters>
            <DistanceMeters>33377.123101498</DistanceMeters>
          </Trackpoint>
          <Trackpoint>
            <Time>2021-09-26T10:47:15.000Z</Time>
            <Position>
              <LatitudeDegrees>40.41659002192318439483642578125</LatitudeDegrees>
              <LongitudeDegrees>-3.73428781516849994659423828125</LongitudeDegrees>
            </Position>
            <AltitudeMeters>607.79998779296875</AltitudeMeters>
            <DistanceMeters>33384.031354099</DistanceMeters>
          </Trackpoint>
          <Trackpoint>
            <Time>2021-09-26T10:47:19.000Z</Time>
            <Position>
              <LatitudeDegrees>40.4165334440767765045166015625</LatitudeDegrees>
              <LongitudeDegrees>-3.7342174910008907318115234375</LongitudeDegrees>
            </Position>
            <AltitudeMeters>608.20001220703125</AltitudeMeters>
            <DistanceMeters>33392.701207404</DistanceMeters>
          </Trackpoint>
          <Trackpoint>
            <Time>2021-09-26T10:47:21.000Z</Time>
            <Position>
              <LatitudeDegrees>40.41650787927210330963134765625</LatitudeDegrees>
              <LongitudeDegrees>-3.73417700640857219696044921875</LongitudeDegrees>
            </Position>
            <AltitudeMeters>608.79998779296875</AltitudeMeters>
            <DistanceMeters>33397.158355391</DistanceMeters>
          </Trackpoint>
          <Trackpoint>
            <Time>2021-09-26T10:47:28.000Z</Time>
            <Position>
              <LatitudeDegrees>40.4164405725896358489990234375</LatitudeDegrees>
              <LongitudeDegrees>-3.73403795063495635986328125</LongitudeDegrees>
            </Position>
            <AltitudeMeters>610.20001220703125</AltitudeMeters>
            <DistanceMeters>33411.12178658</DistanceMeters>
          </Trackpoint>
          <Trackpoint>
            <Time>2021-09-26T10:47:36.000Z</Time>
            <Position>
              <LatitudeDegrees>40.4163785465061664581298828125</LatitudeDegrees>
              <LongitudeDegrees>-3.7338617630302906036376953125</LongitudeDegrees>
            </Position>
            <AltitudeMeters>611.4000244140625</AltitudeMeters>
            <DistanceMeters>33427.57046891</DistanceMeters>
          </Trackpoint>
          <Trackpoint>
            <Time>2021-09-26T10:47:39.000Z</Time>
            <Position>
              <LatitudeDegrees>40.4163544066250324249267578125</LatitudeDegrees>
              <LongitudeDegrees>-3.7337930314242839813232421875</LongitudeDegrees>
            </Position>
            <AltitudeMeters>611.79998779296875</AltitudeMeters>
            <DistanceMeters>33433.985300035</DistanceMeters>
          </Trackpoint>
          <Trackpoint>
            <Time>2021-09-26T10:47:43.000Z</Time>
            <Position>
              <LatitudeDegrees>40.41632498614490032196044921875</LatitudeDegrees>
              <LongitudeDegrees>-3.73369923792779445648193359375</LongitudeDegrees>
            </Position>
            <AltitudeMeters>612.4000244140625</AltitudeMeters>
            <DistanceMeters>33442.58193575</DistanceMeters>
          </Trackpoint>
          <Trackpoint>
            <Time>2021-09-26T10:47:50.000Z</Time>
            <Position>
              <LatitudeDegrees>40.4162799753248691558837890625</LatitudeDegrees>
              <LongitudeDegrees>-3.73352439142763614654541015625</LongitudeDegrees>
            </Position>
            <AltitudeMeters>613.4000244140625</AltitudeMeters>
            <DistanceMeters>33458.222420745</DistanceMeters>
          </Trackpoint>
          <Trackpoint>
            <Time>2021-09-26T10:47:57.000Z</Time>
            <Position>
              <LatitudeDegrees>40.41621266864240169525146484375</LatitudeDegrees>
              <LongitudeDegrees>-3.73335457406938076019287109375</LongitudeDegrees>
            </Position>
            <AltitudeMeters>614.20001220703125</AltitudeMeters>
            <DistanceMeters>33474.446127725</DistanceMeters>
          </Trackpoint>
          <Trackpoint>
            <Time>2021-09-26T10:48:02.000Z</Time>
            <Position>
              <LatitudeDegrees>40.416143350303173065185546875</LatitudeDegrees>
              <LongitudeDegrees>-3.733232952654361724853515625</LongitudeDegrees>
            </Position>
            <AltitudeMeters>615</AltitudeMeters>
            <DistanceMeters>33487.32005576</DistanceMeters>
          </Trackpoint>
          <Trackpoint>
            <Time>2021-09-26T10:48:04.000Z</Time>
            <Position>
              <LatitudeDegrees>40.41611761786043643951416015625</LatitudeDegrees>
              <LongitudeDegrees>-3.73318442143499851226806640625</LongitudeDegrees>
            </Position>
            <AltitudeMeters>615.4000244140625</AltitudeMeters>
            <DistanceMeters>33492.332208258</DistanceMeters>
          </Trackpoint>
          <Trackpoint>
            <Time>2021-09-26T10:48:12.000Z</Time>
            <Position>
              <LatitudeDegrees>40.4160325415432453155517578125</LatitudeDegrees>
              <LongitudeDegrees>-3.73298610560595989227294921875</LongitudeDegrees>
            </Position>
            <AltitudeMeters>616.5999755859375</AltitudeMeters>
            <DistanceMeters>33511.621929095</DistanceMeters>
          </Trackpoint>
          <Trackpoint>
            <Time>2021-09-26T10:48:17.000Z</Time>
            <Position>
              <LatitudeDegrees>40.41599147021770477294921875</LatitudeDegrees>
              <LongitudeDegrees>-3.73285752721130847930908203125</LongitudeDegrees>
            </Position>
            <AltitudeMeters>617</AltitudeMeters>
            <DistanceMeters>33523.437766429</DistanceMeters>
          </Trackpoint>
          <Trackpoint>
            <Time>2021-09-26T10:48:19.000Z</Time>
            <Position>
              <LatitudeDegrees>40.41597713716328144073486328125</LatitudeDegrees>
              <LongitudeDegrees>-3.732806146144866943359375</LongitudeDegrees>
            </Position>
            <AltitudeMeters>617.5999755859375</AltitudeMeters>
            <DistanceMeters>33528.075615293</DistanceMeters>
          </Trackpoint>
          <Trackpoint>
            <Time>2021-09-26T10:48:20.000Z</Time>
            <Position>
              <LatitudeDegrees>40.4159685038030147552490234375</LatitudeDegrees>
              <LongitudeDegrees>-3.7327838502824306488037109375</LongitudeDegrees>
            </Position>
            <AltitudeMeters>618</AltitudeMeters>
            <DistanceMeters>33530.196223241</DistanceMeters>
          </Trackpoint>
          <Trackpoint>
            <Time>2021-09-26T10:48:25.000Z</Time>
            <Position>
              <LatitudeDegrees>40.415922068059444427490234375</LatitudeDegrees>
              <LongitudeDegrees>-3.73265334405004978179931640625</LongitudeDegrees>
            </Position>
            <AltitudeMeters>618.79998779296875</AltitudeMeters>
            <DistanceMeters>33542.403365474</DistanceMeters>
          </Trackpoint>
          <Trackpoint>
            <Time>2021-09-26T10:48:32.000Z</Time>
            <Position>
              <LatitudeDegrees>40.4158488102257251739501953125</LatitudeDegrees>
              <LongitudeDegrees>-3.73246860690414905548095703125</LongitudeDegrees>
            </Position>
            <AltitudeMeters>618</AltitudeMeters>
            <DistanceMeters>33560.054050089</DistanceMeters>
          </Trackpoint>
          <Trackpoint>
            <Time>2021-09-26T10:48:35.000Z</Time>
            <Position>
              <LatitudeDegrees>40.415823161602020263671875</LatitudeDegrees>
              <LongitudeDegrees>-3.73238009400665760040283203125</LongitudeDegrees>
            </Position>
            <AltitudeMeters>617.4000244140625</AltitudeMeters>
            <DistanceMeters>33568.079729828</DistanceMeters>
          </Trackpoint>
          <Trackpoint>
            <Time>2021-09-26T10:48:42.000Z</Time>
            <Position>
              <LatitudeDegrees>40.415773876011371612548828125</LatitudeDegrees>
              <LongitudeDegrees>-3.73218362219631671905517578125</LongitudeDegrees>
            </Position>
            <AltitudeMeters>616</AltitudeMeters>
            <DistanceMeters>33585.609261234</DistanceMeters>
          </Trackpoint>
          <Trackpoint>
            <Time>2021-09-26T10:48:49.000Z</Time>
            <Position>
              <LatitudeDegrees>40.41570715606212615966796875</LatitudeDegrees>
              <LongitudeDegrees>-3.73200207017362117767333984375</LongitudeDegrees>
            </Position>
            <AltitudeMeters>614.5999755859375</AltitudeMeters>
            <DistanceMeters>33602.69267543</DistanceMeters>
          </Trackpoint>
          <Trackpoint>
            <Time>2021-09-26T10:48:56.000Z</Time>
            <Position>
              <LatitudeDegrees>40.41563213802874088287353515625</LatitudeDegrees>
              <LongitudeDegrees>-3.73181951232254505157470703125</LongitudeDegrees>
            </Position>
            <AltitudeMeters>614.79998779296875</AltitudeMeters>
            <DistanceMeters>33620.272360758</DistanceMeters>
          </Trackpoint>
          <Trackpoint>
            <Time>2021-09-26T10:49:04.000Z</Time>
            <Position>
              <LatitudeDegrees>40.41555519215762615203857421875</LatitudeDegrees>
              <LongitudeDegrees>-3.73159906826913356781005859375</LongitudeDegrees>
            </Position>
            <AltitudeMeters>615</AltitudeMeters>
            <DistanceMeters>33640.82275285</DistanceMeters>
          </Trackpoint>
          <Trackpoint>
            <Time>2021-09-26T10:49:12.000Z</Time>
            <Position>
              <LatitudeDegrees>40.4154870472848415374755859375</LatitudeDegrees>
              <LongitudeDegrees>-3.731372840702533721923828125</LongitudeDegrees>
            </Position>
            <AltitudeMeters>615.5999755859375</AltitudeMeters>
            <DistanceMeters>33661.439389292</DistanceMeters>
          </Trackpoint>
          <Trackpoint>
            <Time>2021-09-26T10:49:14.000Z</Time>
            <Position>
              <LatitudeDegrees>40.41546986438333988189697265625</LatitudeDegrees>
              <LongitudeDegrees>-3.7313200347125530242919921875</LongitudeDegrees>
            </Position>
            <AltitudeMeters>615.5999755859375</AltitudeMeters>
            <DistanceMeters>33666.305276718</DistanceMeters>
          </Trackpoint>
          <Trackpoint>
            <Time>2021-09-26T10:49:20.000Z</Time>
            <Position>
              <LatitudeDegrees>40.41541638784110546112060546875</LatitudeDegrees>
              <LongitudeDegrees>-3.7311728484928607940673828125</LongitudeDegrees>
            </Position>
            <AltitudeMeters>615.5999755859375</AltitudeMeters>
            <DistanceMeters>33680.125049393</DistanceMeters>
          </Trackpoint>
          <Trackpoint>
            <Time>2021-09-26T10:49:28.000Z</Time>
            <Position>
              <LatitudeDegrees>40.4153522662818431854248046875</LatitudeDegrees>
              <LongitudeDegrees>-3.73095500282943248748779296875</LongitudeDegrees>
            </Position>
            <AltitudeMeters>615.4000244140625</AltitudeMeters>
            <DistanceMeters>33699.9173142</DistanceMeters>
          </Trackpoint>
          <Trackpoint>
            <Time>2021-09-26T10:49:34.000Z</Time>
            <Position>
              <LatitudeDegrees>40.41528864763677120208740234375</LatitudeDegrees>
              <LongitudeDegrees>-3.73079943470656871795654296875</LongitudeDegrees>
            </Position>
            <AltitudeMeters>615.20001220703125</AltitudeMeters>
            <DistanceMeters>33714.881834431</DistanceMeters>
          </Trackpoint>
          <Trackpoint>
            <Time>2021-09-26T10:49:35.000Z</Time>
            <Position>
              <LatitudeDegrees>40.4152768291532993316650390625</LatitudeDegrees>
              <LongitudeDegrees>-3.73077328316867351531982421875</LongitudeDegrees>
            </Position>
            <AltitudeMeters>615.20001220703125</AltitudeMeters>
            <DistanceMeters>33717.459844567</DistanceMeters>
          </Trackpoint>
          <Trackpoint>
            <Time>2021-09-26T10:49:37.000Z</Time>
            <Position>
              <LatitudeDegrees>40.41525042615830898284912109375</LatitudeDegrees>
              <LongitudeDegrees>-3.73071980662643909454345703125</LongitudeDegrees>
            </Position>
            <AltitudeMeters>615</AltitudeMeters>
            <DistanceMeters>33722.860506278</DistanceMeters>
          </Trackpoint>
          <Trackpoint>
            <Time>2021-09-26T10:49:42.000Z</Time>
            <Position>
              <LatitudeDegrees>40.415176413953304290771484375</LatitudeDegrees>
              <LongitudeDegrees>-3.7305995263159275054931640625</LongitudeDegrees>
            </Position>
            <AltitudeMeters>614.79998779296875</AltitudeMeters>
            <DistanceMeters>33735.965927064</DistanceMeters>
          </Trackpoint>
          <Trackpoint>
            <Time>2021-09-26T10:49:47.000Z</Time>
            <Position>
              <LatitudeDegrees>40.41510323993861675262451171875</LatitudeDegrees>
              <LongitudeDegrees>-3.7304784916341304779052734375</LongitudeDegrees>
            </Position>
            <AltitudeMeters>615</AltitudeMeters>
            <DistanceMeters>33749.062732096</DistanceMeters>
          </Trackpoint>
          <Trackpoint>
            <Time>2021-09-26T10:49:55.000Z</Time>
            <Position>
              <LatitudeDegrees>40.41497667320072650909423828125</LatitudeDegrees>
              <LongitudeDegrees>-3.7302739731967449188232421875</LongitudeDegrees>
            </Position>
            <AltitudeMeters>615</AltitudeMeters>
            <DistanceMeters>33771.397042534</DistanceMeters>
          </Trackpoint>
          <Trackpoint>
            <Time>2021-09-26T10:49:56.000Z</Time>
            <Position>
              <LatitudeDegrees>40.41496192105114459991455078125</LatitudeDegrees>
              <LongitudeDegrees>-3.73024974949657917022705078125</LongitudeDegrees>
            </Position>
            <AltitudeMeters>614.79998779296875</AltitudeMeters>
            <DistanceMeters>33774.027068876</DistanceMeters>
          </Trackpoint>
          <Trackpoint>
            <Time>2021-09-26T10:50:01.000Z</Time>
            <Position>
              <LatitudeDegrees>40.41488547809422016143798828125</LatitudeDegrees>
              <LongitudeDegrees>-3.730145059525966644287109375</LongitudeDegrees>
            </Position>
            <AltitudeMeters>614</AltitudeMeters>
            <DistanceMeters>33786.319353819</DistanceMeters>
          </Trackpoint>
          <Trackpoint>
            <Time>2021-09-26T10:50:02.000Z</Time>
            <Position>
              <LatitudeDegrees>40.41486896574497222900390625</LatitudeDegrees>
              <LongitudeDegrees>-3.730122260749340057373046875</LongitudeDegrees>
            </Position>
            <AltitudeMeters>614</AltitudeMeters>
            <DistanceMeters>33788.985187678</DistanceMeters>
          </Trackpoint>
          <Trackpoint>
            <Time>2021-09-26T10:50:07.000Z</Time>
            <Position>
              <LatitudeDegrees>40.4147843085229396820068359375</LatitudeDegrees>
              <LongitudeDegrees>-3.7299889884889125823974609375</LongitudeDegrees>
            </Position>
            <AltitudeMeters>613.4000244140625</AltitudeMeters>
            <DistanceMeters>33803.693469065</DistanceMeters>
          </Trackpoint>
          <Trackpoint>
            <Time>2021-09-26T10:50:13.000Z</Time>
            <Position>
              <LatitudeDegrees>40.41469386778771877288818359375</LatitudeDegrees>
              <LongitudeDegrees>-3.729835934937000274658203125</LongitudeDegrees>
            </Position>
            <AltitudeMeters>611.4000244140625</AltitudeMeters>
            <DistanceMeters>33820.111379464</DistanceMeters>
          </Trackpoint>
          <Trackpoint>
            <Time>2021-09-26T10:50:21.000Z</Time>
            <Position>
              <LatitudeDegrees>40.4145891778171062469482421875</LatitudeDegrees>
              <LongitudeDegrees>-3.72961523942649364471435546875</LongitudeDegrees>
            </Position>
            <AltitudeMeters>609.4000244140625</AltitudeMeters>
            <DistanceMeters>33842.146515279</DistanceMeters>
          </Trackpoint>
          <Trackpoint>
            <Time>2021-09-26T10:50:29.000Z</Time>
            <Position>
              <LatitudeDegrees>40.4145020060241222381591796875</LatitudeDegrees>
              <LongitudeDegrees>-3.72938959859311580657958984375</LongitudeDegrees>
            </Position>
            <AltitudeMeters>609.4000244140625</AltitudeMeters>
            <DistanceMeters>33863.588678</DistanceMeters>
          </Trackpoint>
          <Trackpoint>
            <Time>2021-09-26T10:50:34.000Z</Time>
            <Position>
              <LatitudeDegrees>40.41454081423580646514892578125</LatitudeDegrees>
              <LongitudeDegrees>-3.7292359583079814910888671875</LongitudeDegrees>
            </Position>
            <AltitudeMeters>607.4000244140625</AltitudeMeters>
            <DistanceMeters>33877.306797152</DistanceMeters>
          </Trackpoint>
          <Trackpoint>
            <Time>2021-09-26T10:50:40.000Z</Time>
            <Position>
              <LatitudeDegrees>40.4146304167807102203369140625</LatitudeDegrees>
              <LongitudeDegrees>-3.7290780432522296905517578125</LongitudeDegrees>
            </Position>
            <AltitudeMeters>605.4000244140625</AltitudeMeters>
            <DistanceMeters>33893.996366889</DistanceMeters>
          </Trackpoint>
          <Trackpoint>
            <Time>2021-09-26T10:50:45.000Z</Time>
            <Position>
              <LatitudeDegrees>40.41468766517937183380126953125</LatitudeDegrees>
              <LongitudeDegrees>-3.72895072214305400848388671875</LongitudeDegrees>
            </Position>
            <AltitudeMeters>604.20001220703125</AltitudeMeters>
            <DistanceMeters>33906.527288614</DistanceMeters>
          </Trackpoint>
          <Trackpoint>
            <Time>2021-09-26T10:50:51.000Z</Time>
            <Position>
              <LatitudeDegrees>40.4147517867386341094970703125</LatitudeDegrees>
              <LongitudeDegrees>-3.7287819944322109222412109375</LongitudeDegrees>
            </Position>
            <AltitudeMeters>604.4000244140625</AltitudeMeters>
            <DistanceMeters>33922.507889101</DistanceMeters>
          </Trackpoint>
          <Trackpoint>
            <Time>2021-09-26T10:50:59.000Z</Time>
            <Position>
              <LatitudeDegrees>40.414861254394054412841796875</LatitudeDegrees>
              <LongitudeDegrees>-3.72856515459716320037841796875</LongitudeDegrees>
            </Position>
            <AltitudeMeters>604</AltitudeMeters>
            <DistanceMeters>33944.555725165</DistanceMeters>
          </Trackpoint>
          <Trackpoint>
            <Time>2021-09-26T10:51:00.000Z</Time>
            <Position>
              <LatitudeDegrees>40.41487030684947967529296875</LatitudeDegrees>
              <LongitudeDegrees>-3.72854034416377544403076171875</LongitudeDegrees>
            </Position>
            <AltitudeMeters>603.79998779296875</AltitudeMeters>
            <DistanceMeters>33946.887271009</DistanceMeters>
          </Trackpoint>
          <Trackpoint>
            <Time>2021-09-26T10:51:08.000Z</Time>
            <Position>
              <LatitudeDegrees>40.41493291966617107391357421875</LatitudeDegrees>
              <LongitudeDegrees>-3.7283357419073581695556640625</LongitudeDegrees>
            </Position>
            <AltitudeMeters>603</AltitudeMeters>
            <DistanceMeters>33965.573979014</DistanceMeters>
          </Trackpoint>
          <Trackpoint>
            <Time>2021-09-26T10:51:14.000Z</Time>
            <Position>
              <LatitudeDegrees>40.4149938561022281646728515625</LatitudeDegrees>
              <LongitudeDegrees>-3.728196434676647186279296875</LongitudeDegrees>
            </Position>
            <AltitudeMeters>602.20001220703125</AltitudeMeters>
            <DistanceMeters>33979.188690879</DistanceMeters>
          </Trackpoint>
          <Trackpoint>
            <Time>2021-09-26T10:51:21.000Z</Time>
            <Position>
              <LatitudeDegrees>40.41504909284412860870361328125</LatitudeDegrees>
              <LongitudeDegrees>-3.7280189059674739837646484375</LongitudeDegrees>
            </Position>
            <AltitudeMeters>602.4000244140625</AltitudeMeters>
            <DistanceMeters>33995.440481732</DistanceMeters>
          </Trackpoint>
          <Trackpoint>
            <Time>2021-09-26T10:51:28.000Z</Time>
            <Position>
              <LatitudeDegrees>40.41509158909320831298828125</LatitudeDegrees>
              <LongitudeDegrees>-3.7278479151427745819091796875</LongitudeDegrees>
            </Position>
            <AltitudeMeters>601.79998779296875</AltitudeMeters>
            <DistanceMeters>34010.682719322</DistanceMeters>
          </Trackpoint>
          <Trackpoint>
            <Time>2021-09-26T10:51:29.000Z</Time>
            <Position>
              <LatitudeDegrees>40.415104329586029052734375</LatitudeDegrees>
              <LongitudeDegrees>-3.727816231548786163330078125</LongitudeDegrees>
            </Position>
            <AltitudeMeters>601.5999755859375</AltitudeMeters>
            <DistanceMeters>34013.7176292</DistanceMeters>
          </Trackpoint>
          <Trackpoint>
            <Time>2021-09-26T10:51:34.000Z</Time>
            <Position>
              <LatitudeDegrees>40.41515001095831394195556640625</LatitudeDegrees>
              <LongitudeDegrees>-3.7276705540716648101806640625</LongitudeDegrees>
            </Position>
            <AltitudeMeters>601.20001220703125</AltitudeMeters>
            <DistanceMeters>34027.068798026</DistanceMeters>
          </Trackpoint>
          <Trackpoint>
            <Time>2021-09-26T10:51:37.000Z</Time>
            <Position>
              <LatitudeDegrees>40.4151816107332706451416015625</LatitudeDegrees>
              <LongitudeDegrees>-3.727602325379848480224609375</LongitudeDegrees>
            </Position>
            <AltitudeMeters>601.4000244140625</AltitudeMeters>
            <DistanceMeters>34033.83707534</DistanceMeters>
          </Trackpoint>
          <Trackpoint>
            <Time>2021-09-26T10:51:45.000Z</Time>
            <Position>
              <LatitudeDegrees>40.41526467539370059967041015625</LatitudeDegrees>
              <LongitudeDegrees>-3.7273771874606609344482421875</LongitudeDegrees>
            </Position>
            <AltitudeMeters>600.79998779296875</AltitudeMeters>
            <DistanceMeters>34055.037831341</DistanceMeters>
          </Trackpoint>
          <Trackpoint>
            <Time>2021-09-26T10:51:47.000Z</Time>
            <Position>
              <LatitudeDegrees>40.41527808643877506256103515625</LatitudeDegrees>
              <LongitudeDegrees>-3.72732035815715789794921875</LongitudeDegrees>
            </Position>
            <AltitudeMeters>600.4000244140625</AltitudeMeters>
            <DistanceMeters>34060.080518647</DistanceMeters>
          </Trackpoint>
          <Trackpoint>
            <Time>2021-09-26T10:51:52.000Z</Time>
            <Position>
              <LatitudeDegrees>40.41532703675329685211181640625</LatitudeDegrees>
              <LongitudeDegrees>-3.7271837331354618072509765625</LongitudeDegrees>
            </Position>
            <AltitudeMeters>599.5999755859375</AltitudeMeters>
            <DistanceMeters>34072.875998943</DistanceMeters>
          </Trackpoint>
          <Trackpoint>
            <Time>2021-09-26T10:51:59.000Z</Time>
            <Position>
              <LatitudeDegrees>40.41538705118000507354736328125</LatitudeDegrees>
              <LongitudeDegrees>-3.72699069790542125701904296875</LongitudeDegrees>
            </Position>
            <AltitudeMeters>598.20001220703125</AltitudeMeters>
            <DistanceMeters>34090.545347062</DistanceMeters>
          </Trackpoint>
          <Trackpoint>
            <Time>2021-09-26T10:52:04.000Z</Time>
            <Position>
              <LatitudeDegrees>40.415460057556629180908203125</LatitudeDegrees>
              <LongitudeDegrees>-3.72685843147337436676025390625</LongitudeDegrees>
            </Position>
            <AltitudeMeters>596.5999755859375</AltitudeMeters>
            <DistanceMeters>34104.388948919</DistanceMeters>
          </Trackpoint>
          <Trackpoint>
            <Time>2021-09-26T10:52:10.000Z</Time>
            <Position>
              <LatitudeDegrees>40.41553708724677562713623046875</LatitudeDegrees>
              <LongitudeDegrees>-3.726699762046337127685546875</LongitudeDegrees>
            </Position>
            <AltitudeMeters>594.5999755859375</AltitudeMeters>
            <DistanceMeters>34120.335892602</DistanceMeters>
          </Trackpoint>
          <Trackpoint>
            <Time>2021-09-26T10:52:17.000Z</Time>
            <Position>
              <LatitudeDegrees>40.41560254991054534912109375</LatitudeDegrees>
              <LongitudeDegrees>-3.72651167213916778564453125</LongitudeDegrees>
            </Position>
            <AltitudeMeters>592.20001220703125</AltitudeMeters>
            <DistanceMeters>34137.861560069</DistanceMeters>
          </Trackpoint>
          <Trackpoint>
            <Time>2021-09-26T10:52:22.000Z</Time>
            <Position>
              <LatitudeDegrees>40.4156694374978542327880859375</LatitudeDegrees>
              <LongitudeDegrees>-3.72638267464935779571533203125</LongitudeDegrees>
            </Position>
            <AltitudeMeters>591</AltitudeMeters>
            <DistanceMeters>34151.087694836</DistanceMeters>
          </Trackpoint>
          <Trackpoint>
            <Time>2021-09-26T10:52:28.000Z</Time>
            <Position>
              <LatitudeDegrees>40.41573506779968738555908203125</LatitudeDegrees>
              <LongitudeDegrees>-3.7262147851288318634033203125</LongitudeDegrees>
            </Position>
            <AltitudeMeters>590.5999755859375</AltitudeMeters>
            <DistanceMeters>34167.080439603</DistanceMeters>
          </Trackpoint>
          <Trackpoint>
            <Time>2021-09-26T10:52:34.000Z</Time>
            <Position>
              <LatitudeDegrees>40.415857024490833282470703125</LatitudeDegrees>
              <LongitudeDegrees>-3.7260853685438632965087890625</LongitudeDegrees>
            </Position>
            <AltitudeMeters>590.20001220703125</AltitudeMeters>
            <DistanceMeters>34184.530977357</DistanceMeters>
          </Trackpoint>
          <Trackpoint>
            <Time>2021-09-26T10:52:35.000Z</Time>
            <Position>
              <LatitudeDegrees>40.41586632840335369110107421875</LatitudeDegrees>
              <LongitudeDegrees>-3.7260592170059680938720703125</LongitudeDegrees>
            </Position>
            <AltitudeMeters>590.20001220703125</AltitudeMeters>
            <DistanceMeters>34186.977799926</DistanceMeters>
          </Trackpoint>
          <Trackpoint>
            <Time>2021-09-26T10:52:38.000Z</Time>
            <Position>
              <LatitudeDegrees>40.4159001074731349945068359375</LatitudeDegrees>
              <LongitudeDegrees>-3.72598034329712390899658203125</LongitudeDegrees>
            </Position>
            <AltitudeMeters>590.4000244140625</AltitudeMeters>
            <DistanceMeters>34194.646167275</DistanceMeters>
          </Trackpoint>
          <Trackpoint>
            <Time>2021-09-26T10:52:44.000Z</Time>
            <Position>
              <LatitudeDegrees>40.41591477580368518829345703125</LatitudeDegrees>
              <LongitudeDegrees>-3.725791834294795989990234375</LongitudeDegrees>
            </Position>
            <AltitudeMeters>591.20001220703125</AltitudeMeters>
            <DistanceMeters>34210.703713874</DistanceMeters>
          </Trackpoint>
          <Trackpoint>
            <Time>2021-09-26T10:52:52.000Z</Time>
            <Position>
              <LatitudeDegrees>40.415990464389324188232421875</LatitudeDegrees>
              <LongitudeDegrees>-3.72557482682168483734130859375</LongitudeDegrees>
            </Position>
            <AltitudeMeters>590.5999755859375</AltitudeMeters>
            <DistanceMeters>34230.930792347</DistanceMeters>
          </Trackpoint>
          <Trackpoint>
            <Time>2021-09-26T10:52:53.000Z</Time>
            <Position>
              <LatitudeDegrees>40.4160067252814769744873046875</LatitudeDegrees>
              <LongitudeDegrees>-3.7255459092557430267333984375</LongitudeDegrees>
            </Position>
            <AltitudeMeters>590.4000244140625</AltitudeMeters>
            <DistanceMeters>34233.977580587</DistanceMeters>
          </Trackpoint>
          <Trackpoint>
            <Time>2021-09-26T10:53:00.000Z</Time>
            <Position>
              <LatitudeDegrees>40.41605860926210880279541015625</LatitudeDegrees>
              <LongitudeDegrees>-3.7253605015575885772705078125</LongitudeDegrees>
            </Position>
            <AltitudeMeters>589.4000244140625</AltitudeMeters>
            <DistanceMeters>34250.716853931</DistanceMeters>
          </Trackpoint>
          <Trackpoint>
            <Time>2021-09-26T10:53:06.000Z</Time>
            <Position>
              <LatitudeDegrees>40.41612432338297367095947265625</LatitudeDegrees>
              <LongitudeDegrees>-3.72520032338798046112060546875</LongitudeDegrees>
            </Position>
            <AltitudeMeters>589.5999755859375</AltitudeMeters>
            <DistanceMeters>34266.135212873</DistanceMeters>
          </Trackpoint>
          <Trackpoint>
            <Time>2021-09-26T10:53:14.000Z</Time>
            <Position>
              <LatitudeDegrees>40.41619238443672657012939453125</LatitudeDegrees>
              <LongitudeDegrees>-3.72498708777129650115966796875</LongitudeDegrees>
            </Position>
            <AltitudeMeters>589.79998779296875</AltitudeMeters>
            <DistanceMeters>34285.728237391</DistanceMeters>
          </Trackpoint>
          <Trackpoint>
            <Time>2021-09-26T10:53:21.000Z</Time>
            <Position>
              <LatitudeDegrees>40.41622976772487163543701171875</LatitudeDegrees>
              <LongitudeDegrees>-3.72477552853524684906005859375</LongitudeDegrees>
            </Position>
            <AltitudeMeters>589.79998779296875</AltitudeMeters>
            <DistanceMeters>34304.132534917</DistanceMeters>
          </Trackpoint>
          <Trackpoint>
            <Time>2021-09-26T10:53:27.000Z</Time>
            <Position>
              <LatitudeDegrees>40.41631777770817279815673828125</LatitudeDegrees>
              <LongitudeDegrees>-3.7246104888617992401123046875</LongitudeDegrees>
            </Position>
            <AltitudeMeters>587.4000244140625</AltitudeMeters>
            <DistanceMeters>34321.207489621</DistanceMeters>
          </Trackpoint>
          <Trackpoint>
            <Time>2021-09-26T10:53:34.000Z</Time>
            <Position>
              <LatitudeDegrees>40.4163976572453975677490234375</LatitudeDegrees>
              <LongitudeDegrees>-3.72443790547549724578857421875</LongitudeDegrees>
            </Position>
            <AltitudeMeters>585.5999755859375</AltitudeMeters>
            <DistanceMeters>34338.322589672</DistanceMeters>
          </Trackpoint>
          <Trackpoint>
            <Time>2021-09-26T10:53:42.000Z</Time>
            <Position>
              <LatitudeDegrees>40.4164888523519039154052734375</LatitudeDegrees>
              <LongitudeDegrees>-3.724210672080516815185546875</LongitudeDegrees>
            </Position>
            <AltitudeMeters>584.4000244140625</AltitudeMeters>
            <DistanceMeters>34360.089723407</DistanceMeters>
          </Trackpoint>
          <Trackpoint>
            <Time>2021-09-26T10:53:49.000Z</Time>
            <Position>
              <LatitudeDegrees>40.4165585897862911224365234375</LatitudeDegrees>
              <LongitudeDegrees>-3.72401881031692028045654296875</LongitudeDegrees>
            </Position>
            <AltitudeMeters>582.79998779296875</AltitudeMeters>
            <DistanceMeters>34378.105745934</DistanceMeters>
          </Trackpoint>
          <Trackpoint>
            <Time>2021-09-26T10:53:57.000Z</Time>
            <Position>
              <LatitudeDegrees>40.416642241179943084716796875</LatitudeDegrees>
              <LongitudeDegrees>-3.7237836979329586029052734375</LongitudeDegrees>
            </Position>
            <AltitudeMeters>581.4000244140625</AltitudeMeters>
            <DistanceMeters>34400.097399673</DistanceMeters>
          </Trackpoint>
          <Trackpoint>
            <Time>2021-09-26T10:53:58.000Z</Time>
            <Position>
              <LatitudeDegrees>40.4166559875011444091796875</LatitudeDegrees>
              <LongitudeDegrees>-3.72375628910958766937255859375</LongitudeDegrees>
            </Position>
            <AltitudeMeters>581.20001220703125</AltitudeMeters>
            <DistanceMeters>34402.879265147</DistanceMeters>
          </Trackpoint>
          <Trackpoint>
            <Time>2021-09-26T10:54:04.000Z</Time>
            <Position>
              <LatitudeDegrees>40.41671298444271087646484375</LatitudeDegrees>
              <LongitudeDegrees>-3.72358127497136592864990234375</LongitudeDegrees>
            </Position>
            <AltitudeMeters>580.5999755859375</AltitudeMeters>
            <DistanceMeters>34419.009752512</DistanceMeters>
          </Trackpoint>
          <Trackpoint>
            <Time>2021-09-26T10:54:09.000Z</Time>
            <Position>
              <LatitudeDegrees>40.41668037883937358856201171875</LatitudeDegrees>
              <LongitudeDegrees>-3.723421432077884674072265625</LongitudeDegrees>
            </Position>
            <AltitudeMeters>580</AltitudeMeters>
            <DistanceMeters>34433.032553397</DistanceMeters>
          </Trackpoint>
          <Trackpoint>
            <Time>2021-09-26T10:54:10.000Z</Time>
            <Position>
              <LatitudeDegrees>40.41666361503303050994873046875</LatitudeDegrees>
              <LongitudeDegrees>-3.72340223751962184906005859375</LongitudeDegrees>
            </Position>
            <AltitudeMeters>580</AltitudeMeters>
            <DistanceMeters>34435.508724212</DistanceMeters>
          </Trackpoint>
          <Trackpoint>
            <Time>2021-09-26T10:54:13.000Z</Time>
            <Position>
              <LatitudeDegrees>40.41659228503704071044921875</LatitudeDegrees>
              <LongitudeDegrees>-3.7233602441847324371337890625</LongitudeDegrees>
            </Position>
            <AltitudeMeters>580.4000244140625</AltitudeMeters>
            <DistanceMeters>34444.208730002</DistanceMeters>
          </Trackpoint>
          <Trackpoint>
            <Time>2021-09-26T10:54:18.000Z</Time>
            <Position>
              <LatitudeDegrees>40.41646890342235565185546875</LatitudeDegrees>
              <LongitudeDegrees>-3.7233924306929111480712890625</LongitudeDegrees>
            </Position>
            <AltitudeMeters>581.79998779296875</AltitudeMeters>
            <DistanceMeters>34458.20961924</DistanceMeters>
          </Trackpoint>
          <Trackpoint>
            <Time>2021-09-26T10:54:26.000Z</Time>
            <Position>
              <LatitudeDegrees>40.416274107992649078369140625</LatitudeDegrees>
              <LongitudeDegrees>-3.72345319949090480804443359375</LongitudeDegrees>
            </Position>
            <AltitudeMeters>584.4000244140625</AltitudeMeters>
            <DistanceMeters>34480.494143555</DistanceMeters>
          </Trackpoint>
          <Trackpoint>
            <Time>2021-09-26T10:54:27.000Z</Time>
            <Position>
              <LatitudeDegrees>40.4162509739398956298828125</LatitudeDegrees>
              <LongitudeDegrees>-3.72347046621143817901611328125</LongitudeDegrees>
            </Position>
            <AltitudeMeters>584.79998779296875</AltitudeMeters>
            <DistanceMeters>34483.456783308</DistanceMeters>
          </Trackpoint>
          <Trackpoint>
            <Time>2021-09-26T10:54:34.000Z</Time>
            <Position>
              <LatitudeDegrees>40.416111834347248077392578125</LatitudeDegrees>
              <LongitudeDegrees>-3.723587729036808013916015625</LongitudeDegrees>
            </Position>
            <AltitudeMeters>587.20001220703125</AltitudeMeters>
            <DistanceMeters>34501.857400587</DistanceMeters>
          </Trackpoint>
          <Trackpoint>
            <Time>2021-09-26T10:54:40.000Z</Time>
            <Position>
              <LatitudeDegrees>40.41597009636461734771728515625</LatitudeDegrees>
              <LongitudeDegrees>-3.7236623279750347137451171875</LongitudeDegrees>
            </Position>
            <AltitudeMeters>588</AltitudeMeters>
            <DistanceMeters>34518.852577113</DistanceMeters>
          </Trackpoint>
          <Trackpoint>
            <Time>2021-09-26T10:54:43.000Z</Time>
            <Position>
              <LatitudeDegrees>40.41589558124542236328125</LatitudeDegrees>
              <LongitudeDegrees>-3.723685629665851593017578125</LongitudeDegrees>
            </Position>
            <AltitudeMeters>588.20001220703125</AltitudeMeters>
            <DistanceMeters>34527.378544235</DistanceMeters>
          </Trackpoint>
          <Trackpoint>
            <Time>2021-09-26T10:54:45.000Z</Time>
            <Position>
              <LatitudeDegrees>40.41585057042539119720458984375</LatitudeDegrees>
              <LongitudeDegrees>-3.7237035669386386871337890625</LongitudeDegrees>
            </Position>
            <AltitudeMeters>588.4000244140625</AltitudeMeters>
            <DistanceMeters>34532.614507574</DistanceMeters>
          </Trackpoint>
          <Trackpoint>
            <Time>2021-09-26T10:54:48.000Z</Time>
            <Position>
              <LatitudeDegrees>40.41578494012355804443359375</LatitudeDegrees>
              <LongitudeDegrees>-3.72373902238905429840087890625</LongitudeDegrees>
            </Position>
            <AltitudeMeters>589</AltitudeMeters>
            <DistanceMeters>34540.513165571</DistanceMeters>
          </Trackpoint>
          <Trackpoint>
            <Time>2021-09-26T10:54:50.000Z</Time>
            <Position>
              <LatitudeDegrees>40.4157408513128757476806640625</LatitudeDegrees>
              <LongitudeDegrees>-3.7237555347383022308349609375</LongitudeDegrees>
            </Position>
            <AltitudeMeters>589.20001220703125</AltitudeMeters>
            <DistanceMeters>34545.615489589</DistanceMeters>
          </Trackpoint>
          <Trackpoint>
            <Time>2021-09-26T10:54:58.000Z</Time>
            <Position>
              <LatitudeDegrees>40.41558570228517055511474609375</LatitudeDegrees>
              <LongitudeDegrees>-3.723882101476192474365234375</LongitudeDegrees>
            </Position>
            <AltitudeMeters>590.79998779296875</AltitudeMeters>
            <DistanceMeters>34565.943656212</DistanceMeters>
          </Trackpoint>
          <Trackpoint>
            <Time>2021-09-26T10:55:05.000Z</Time>
            <Position>
              <LatitudeDegrees>40.41542493738234043121337890625</LatitudeDegrees>
              <LongitudeDegrees>-3.723927699029445648193359375</LongitudeDegrees>
            </Position>
            <AltitudeMeters>591.20001220703125</AltitudeMeters>
            <DistanceMeters>34584.249560637</DistanceMeters>
          </Trackpoint>
          <Trackpoint>
            <Time>2021-09-26T10:55:11.000Z</Time>
            <Position>
              <LatitudeDegrees>40.4153029806911945343017578125</LatitudeDegrees>
              <LongitudeDegrees>-3.72393582947552204132080078125</LongitudeDegrees>
            </Position>
            <AltitudeMeters>590.79998779296875</AltitudeMeters>
            <DistanceMeters>34597.841370814</DistanceMeters>
          </Trackpoint>
          <Trackpoint>
            <Time>2021-09-26T10:55:16.000Z</Time>
            <Position>
              <LatitudeDegrees>40.41521421633660793304443359375</LatitudeDegrees>
              <LongitudeDegrees>-3.7240044772624969482421875</LongitudeDegrees>
            </Position>
            <AltitudeMeters>591.4000244140625</AltitudeMeters>
            <DistanceMeters>34609.306965124</DistanceMeters>
          </Trackpoint>
          <Trackpoint>
            <Time>2021-09-26T10:55:23.000Z</Time>
            <Position>
              <LatitudeDegrees>40.41508178226649761199951171875</LatitudeDegrees>
              <LongitudeDegrees>-3.72405049391090869903564453125</LongitudeDegrees>
            </Position>
            <AltitudeMeters>590.5999755859375</AltitudeMeters>
            <DistanceMeters>34624.553941479</DistanceMeters>
          </Trackpoint>
          <Trackpoint>
            <Time>2021-09-26T10:55:30.000Z</Time>
            <Position>
              <LatitudeDegrees>40.41495286859571933746337890625</LatitudeDegrees>
              <LongitudeDegrees>-3.72406926937401294708251953125</LongitudeDegrees>
            </Position>
            <AltitudeMeters>589.20001220703125</AltitudeMeters>
            <DistanceMeters>34638.990185251</DistanceMeters>
          </Trackpoint>
          <Trackpoint>
            <Time>2021-09-26T10:55:35.000Z</Time>
            <Position>
              <LatitudeDegrees>40.41486871428787708282470703125</LatitudeDegrees>
              <LongitudeDegrees>-3.72412593103945255279541015625</LongitudeDegrees>
            </Position>
            <AltitudeMeters>588.20001220703125</AltitudeMeters>
            <DistanceMeters>34649.515868502</DistanceMeters>
          </Trackpoint>
          <Trackpoint>
            <Time>2021-09-26T10:55:42.000Z</Time>
            <Position>
              <LatitudeDegrees>40.41472890414297580718994140625</LatitudeDegrees>
              <LongitudeDegrees>-3.7241602130234241485595703125</LongitudeDegrees>
            </Position>
            <AltitudeMeters>586</AltitudeMeters>
            <DistanceMeters>34665.345733356</DistanceMeters>
          </Trackpoint>
          <Trackpoint>
            <Time>2021-09-26T10:55:49.000Z</Time>
            <Position>
              <LatitudeDegrees>40.41458238847553730010986328125</LatitudeDegrees>
              <LongitudeDegrees>-3.72418980114161968231201171875</LongitudeDegrees>
            </Position>
            <AltitudeMeters>585</AltitudeMeters>
            <DistanceMeters>34681.844844983</DistanceMeters>
          </Trackpoint>
          <Trackpoint>
            <Time>2021-09-26T10:55:55.000Z</Time>
            <Position>
              <LatitudeDegrees>40.4144590906798839569091796875</LatitudeDegrees>
              <LongitudeDegrees>-3.72418292798101902008056640625</LongitudeDegrees>
            </Position>
            <AltitudeMeters>584.20001220703125</AltitudeMeters>
            <DistanceMeters>34695.580396925</DistanceMeters>
          </Trackpoint>
          <Trackpoint>
            <Time>2021-09-26T10:56:03.000Z</Time>
            <Position>
              <LatitudeDegrees>40.41431601159274578094482421875</LatitudeDegrees>
              <LongitudeDegrees>-3.72418820858001708984375</LongitudeDegrees>
            </Position>
            <AltitudeMeters>583.79998779296875</AltitudeMeters>
            <DistanceMeters>34711.511477508</DistanceMeters>
          </Trackpoint>
          <Trackpoint>
            <Time>2021-09-26T10:56:06.000Z</Time>
            <Position>
              <LatitudeDegrees>40.41430846787989139556884765625</LatitudeDegrees>
              <LongitudeDegrees>-3.72419022023677825927734375</LongitudeDegrees>
            </Position>
            <AltitudeMeters>583.79998779296875</AltitudeMeters>
            <DistanceMeters>34712.371981005</DistanceMeters>
          </Trackpoint>
          <Trackpoint>
            <Time>2021-09-26T10:56:07.000Z</Time>
            <Position>
              <LatitudeDegrees>40.4143085516989231109619140625</LatitudeDegrees>
              <LongitudeDegrees>-3.724189214408397674560546875</LongitudeDegrees>
            </Position>
            <AltitudeMeters>583.79998779296875</AltitudeMeters>
            <DistanceMeters>34712.467007719</DistanceMeters>
          </Trackpoint>
          <Trackpoint>
            <Time>2021-09-26T10:56:09.000Z</Time>
            <Position>
              <LatitudeDegrees>40.414302013814449310302734375</LatitudeDegrees>
              <LongitudeDegrees>-3.72419583611190319061279296875</LongitudeDegrees>
            </Position>
            <AltitudeMeters>583.79998779296875</AltitudeMeters>
            <DistanceMeters>34713.388325898</DistanceMeters>
          </Trackpoint>
          <Trackpoint>
            <Time>2021-09-26T10:56:17.000Z</Time>
            <Position>
              <LatitudeDegrees>40.41415306739509105682373046875</LatitudeDegrees>
              <LongitudeDegrees>-3.7242094986140727996826171875</LongitudeDegrees>
            </Position>
            <AltitudeMeters>583.79998779296875</AltitudeMeters>
            <DistanceMeters>34730.006593794</DistanceMeters>
          </Trackpoint>
          <Trackpoint>
            <Time>2021-09-26T10:56:19.000Z</Time>
            <Position>
              <LatitudeDegrees>40.41411937214434146881103515625</LatitudeDegrees>
              <LongitudeDegrees>-3.7242155335843563079833984375</LongitudeDegrees>
            </Position>
            <AltitudeMeters>583.5999755859375</AltitudeMeters>
            <DistanceMeters>34733.793381535</DistanceMeters>
          </Trackpoint>
          <Trackpoint>
            <Time>2021-09-26T10:56:24.000Z</Time>
            <Position>
              <LatitudeDegrees>40.41398978792130947113037109375</LatitudeDegrees>
              <LongitudeDegrees>-3.7241803295910358428955078125</LongitudeDegrees>
            </Position>
            <AltitudeMeters>581.79998779296875</AltitudeMeters>
            <DistanceMeters>34748.52129606</DistanceMeters>
          </Trackpoint>
          <Trackpoint>
            <Time>2021-09-26T10:56:26.000Z</Time>
            <Position>
              <LatitudeDegrees>40.4139283485710620880126953125</LatitudeDegrees>
              <LongitudeDegrees>-3.72417412698268890380859375</LongitudeDegrees>
            </Position>
            <AltitudeMeters>581</AltitudeMeters>
            <DistanceMeters>34755.379038992</DistanceMeters>
          </Trackpoint>
          <Trackpoint>
            <Time>2021-09-26T10:56:31.000Z</Time>
            <Position>
              <LatitudeDegrees>40.41379348374903202056884765625</LatitudeDegrees>
              <LongitudeDegrees>-3.72419156134128570556640625</LongitudeDegrees>
            </Position>
            <AltitudeMeters>581.79998779296875</AltitudeMeters>
            <DistanceMeters>34770.462266297</DistanceMeters>
          </Trackpoint>
          <Trackpoint>
            <Time>2021-09-26T10:56:39.000Z</Time>
            <Position>
              <LatitudeDegrees>40.41360220871865749359130859375</LatitudeDegrees>
              <LongitudeDegrees>-3.72418108396232128143310546875</LongitudeDegrees>
            </Position>
            <AltitudeMeters>584.20001220703125</AltitudeMeters>
            <DistanceMeters>34791.77029867</DistanceMeters>
          </Trackpoint>
          <Trackpoint>
            <Time>2021-09-26T10:56:44.000Z</Time>
            <Position>
              <LatitudeDegrees>40.41348268277943134307861328125</LatitudeDegrees>
              <LongitudeDegrees>-3.72419751249253749847412109375</LongitudeDegrees>
            </Position>
            <AltitudeMeters>586</AltitudeMeters>
            <DistanceMeters>34805.146469073</DistanceMeters>
          </Trackpoint>
          <Trackpoint>
            <Time>2021-09-26T10:56:47.000Z</Time>
            <Position>
              <LatitudeDegrees>40.41341244243085384368896484375</LatitudeDegrees>
              <LongitudeDegrees>-3.72419332154095172882080078125</LongitudeDegrees>
            </Position>
            <AltitudeMeters>587</AltitudeMeters>
            <DistanceMeters>34812.972194499</DistanceMeters>
          </Trackpoint>
          <Trackpoint>
            <Time>2021-09-26T10:56:52.000Z</Time>
            <Position>
              <LatitudeDegrees>40.41327849961817264556884765625</LatitudeDegrees>
              <LongitudeDegrees>-3.72420120052993297576904296875</LongitudeDegrees>
            </Position>
            <AltitudeMeters>588.79998779296875</AltitudeMeters>
            <DistanceMeters>34827.895322364</DistanceMeters>
          </Trackpoint>
          <Trackpoint>
            <Time>2021-09-26T10:56:59.000Z</Time>
            <Position>
              <LatitudeDegrees>40.41312846355140209197998046875</LatitudeDegrees>
              <LongitudeDegrees>-3.72415895573794841766357421875</LongitudeDegrees>
            </Position>
            <AltitudeMeters>589</AltitudeMeters>
            <DistanceMeters>34844.973978611</DistanceMeters>
          </Trackpoint>
          <Trackpoint>
            <Time>2021-09-26T10:57:07.000Z</Time>
            <Position>
              <LatitudeDegrees>40.41296669282019138336181640625</LatitudeDegrees>
              <LongitudeDegrees>-3.7240901403129100799560546875</LongitudeDegrees>
            </Position>
            <AltitudeMeters>588.79998779296875</AltitudeMeters>
            <DistanceMeters>34863.90028497</DistanceMeters>
          </Trackpoint>
          <Trackpoint>
            <Time>2021-09-26T10:57:08.000Z</Time>
            <Position>
              <LatitudeDegrees>40.412944145500659942626953125</LatitudeDegrees>
              <LongitudeDegrees>-3.72407890856266021728515625</LongitudeDegrees>
            </Position>
            <AltitudeMeters>588.5999755859375</AltitudeMeters>
            <DistanceMeters>34866.58468453</DistanceMeters>
          </Trackpoint>
          <Trackpoint>
            <Time>2021-09-26T10:57:12.000Z</Time>
            <Position>
              <LatitudeDegrees>40.41285596787929534912109375</LatitudeDegrees>
              <LongitudeDegrees>-3.7240634858608245849609375</LongitudeDegrees>
            </Position>
            <AltitudeMeters>588.5999755859375</AltitudeMeters>
            <DistanceMeters>34876.485720328</DistanceMeters>
          </Trackpoint>
          <Trackpoint>
            <Time>2021-09-26T10:57:18.000Z</Time>
            <Position>
              <LatitudeDegrees>40.412722192704677581787109375</LatitudeDegrees>
              <LongitudeDegrees>-3.724032305181026458740234375</LongitudeDegrees>
            </Position>
            <AltitudeMeters>588.4000244140625</AltitudeMeters>
            <DistanceMeters>34891.607811978</DistanceMeters>
          </Trackpoint>
          <Trackpoint>
            <Time>2021-09-26T10:57:24.000Z</Time>
            <Position>
              <LatitudeDegrees>40.4125785268843173980712890625</LatitudeDegrees>
              <LongitudeDegrees>-3.723990060389041900634765625</LongitudeDegrees>
            </Position>
            <AltitudeMeters>587</AltitudeMeters>
            <DistanceMeters>34907.993790527</DistanceMeters>
          </Trackpoint>
          <Trackpoint>
            <Time>2021-09-26T10:57:31.000Z</Time>
            <Position>
              <LatitudeDegrees>40.4124293290078639984130859375</LatitudeDegrees>
              <LongitudeDegrees>-3.72389140538871288299560546875</LongitudeDegrees>
            </Position>
            <AltitudeMeters>585.4000244140625</AltitudeMeters>
            <DistanceMeters>34926.585057454</DistanceMeters>
          </Trackpoint>
          <Trackpoint>
            <Time>2021-09-26T10:57:38.000Z</Time>
            <Position>
              <LatitudeDegrees>40.41228893212974071502685546875</LatitudeDegrees>
              <LongitudeDegrees>-3.72380959801375865936279296875</LongitudeDegrees>
            </Position>
            <AltitudeMeters>584.4000244140625</AltitudeMeters>
            <DistanceMeters>34943.680360728</DistanceMeters>
          </Trackpoint>
          <Trackpoint>
            <Time>2021-09-26T10:57:45.000Z</Time>
            <Position>
              <LatitudeDegrees>40.41214048862457275390625</LatitudeDegrees>
              <LongitudeDegrees>-3.7237179838120937347412109375</LongitudeDegrees>
            </Position>
            <AltitudeMeters>584.20001220703125</AltitudeMeters>
            <DistanceMeters>34961.935880475</DistanceMeters>
          </Trackpoint>
          <Trackpoint>
            <Time>2021-09-26T10:57:53.000Z</Time>
            <Position>
              <LatitudeDegrees>40.411983914673328399658203125</LatitudeDegrees>
              <LongitudeDegrees>-3.72360725887119770050048828125</LongitudeDegrees>
            </Position>
            <AltitudeMeters>584.4000244140625</AltitudeMeters>
            <DistanceMeters>34981.728829635</DistanceMeters>
          </Trackpoint>
          <Trackpoint>
            <Time>2021-09-26T10:58:02.000Z</Time>
            <Position>
              <LatitudeDegrees>40.41180680505931377410888671875</LatitudeDegrees>
              <LongitudeDegrees>-3.7234733998775482177734375</LongitudeDegrees>
            </Position>
            <AltitudeMeters>584</AltitudeMeters>
            <DistanceMeters>35004.472595793</DistanceMeters>
          </Trackpoint>
          <Trackpoint>
            <Time>2021-09-26T10:58:08.000Z</Time>
            <Position>
              <LatitudeDegrees>40.411686189472675323486328125</LatitudeDegrees>
              <LongitudeDegrees>-3.72340374626219272613525390625</LongitudeDegrees>
            </Position>
            <AltitudeMeters>583.79998779296875</AltitudeMeters>
            <DistanceMeters>35019.13753018</DistanceMeters>
          </Trackpoint>
          <Trackpoint>
            <Time>2021-09-26T10:58:14.000Z</Time>
            <Position>
              <LatitudeDegrees>40.411562137305736541748046875</LatitudeDegrees>
              <LongitudeDegrees>-3.723330907523632049560546875</LongitudeDegrees>
            </Position>
            <AltitudeMeters>582.79998779296875</AltitudeMeters>
            <DistanceMeters>35034.261413158</DistanceMeters>
          </Trackpoint>
          <Trackpoint>
            <Time>2021-09-26T10:58:21.000Z</Time>
            <Position>
              <LatitudeDegrees>40.411395169794559478759765625</LatitudeDegrees>
              <LongitudeDegrees>-3.723252117633819580078125</LongitudeDegrees>
            </Position>
            <AltitudeMeters>581.4000244140625</AltitudeMeters>
            <DistanceMeters>35054.008229635</DistanceMeters>
          </Trackpoint>
          <Trackpoint>
            <Time>2021-09-26T10:58:28.000Z</Time>
            <Position>
              <LatitudeDegrees>40.41120640933513641357421875</LatitudeDegrees>
              <LongitudeDegrees>-3.72319067828357219696044921875</LongitudeDegrees>
            </Position>
            <AltitudeMeters>581</AltitudeMeters>
            <DistanceMeters>35075.653471288</DistanceMeters>
          </Trackpoint>
          <Trackpoint>
            <Time>2021-09-26T10:58:36.000Z</Time>
            <Position>
              <LatitudeDegrees>40.41102929972112178802490234375</LatitudeDegrees>
              <LongitudeDegrees>-3.7232264690101146697998046875</LongitudeDegrees>
            </Position>
            <AltitudeMeters>581.79998779296875</AltitudeMeters>
            <DistanceMeters>35095.597991775</DistanceMeters>
          </Trackpoint>
          <Trackpoint>
            <Time>2021-09-26T10:58:43.000Z</Time>
            <Position>
              <LatitudeDegrees>40.41087423451244831085205078125</LatitudeDegrees>
              <LongitudeDegrees>-3.7232502736151218414306640625</LongitudeDegrees>
            </Position>
            <AltitudeMeters>582</AltitudeMeters>
            <DistanceMeters>35112.974374196</DistanceMeters>
          </Trackpoint>
          <Trackpoint>
            <Time>2021-09-26T10:58:49.000Z</Time>
            <Position>
              <LatitudeDegrees>40.41074733249843120574951171875</LatitudeDegrees>
              <LongitudeDegrees>-3.72327198274433612823486328125</LongitudeDegrees>
            </Position>
            <AltitudeMeters>582.4000244140625</AltitudeMeters>
            <DistanceMeters>35127.218241562</DistanceMeters>
          </Trackpoint>
          <Trackpoint>
            <Time>2021-09-26T10:58:57.000Z</Time>
            <Position>
              <LatitudeDegrees>40.4105638526380062103271484375</LatitudeDegrees>
              <LongitudeDegrees>-3.72326326556503772735595703125</LongitudeDegrees>
            </Position>
            <AltitudeMeters>583.5999755859375</AltitudeMeters>
            <DistanceMeters>35147.653404521</DistanceMeters>
          </Trackpoint>
          <Trackpoint>
            <Time>2021-09-26T10:59:04.000Z</Time>
            <Position>
              <LatitudeDegrees>40.4103942029178142547607421875</LatitudeDegrees>
              <LongitudeDegrees>-3.72328120283782482147216796875</LongitudeDegrees>
            </Position>
            <AltitudeMeters>585.4000244140625</AltitudeMeters>
            <DistanceMeters>35166.596879331</DistanceMeters>
          </Trackpoint>
          <Trackpoint>
            <Time>2021-09-26T10:59:06.000Z</Time>
            <Position>
              <LatitudeDegrees>40.41034483350813388824462890625</LatitudeDegrees>
              <LongitudeDegrees>-3.72328388504683971405029296875</LongitudeDegrees>
            </Position>
            <AltitudeMeters>586</AltitudeMeters>
            <DistanceMeters>35172.096948066</DistanceMeters>
          </Trackpoint>
          <Trackpoint>
            <Time>2021-09-26T10:59:08.000Z</Time>
            <Position>
              <LatitudeDegrees>40.410302840173244476318359375</LatitudeDegrees>
              <LongitudeDegrees>-3.72330450452864170074462890625</LongitudeDegrees>
            </Position>
            <AltitudeMeters>586.4000244140625</AltitudeMeters>
            <DistanceMeters>35177.086529287</DistanceMeters>
          </Trackpoint>
          <Trackpoint>
            <Time>2021-09-26T10:59:16.000Z</Time>
            <Position>
              <LatitudeDegrees>40.41011868976056575775146484375</LatitudeDegrees>
              <LongitudeDegrees>-3.72335613705217838287353515625</LongitudeDegrees>
            </Position>
            <AltitudeMeters>588</AltitudeMeters>
            <DistanceMeters>35198.044605973</DistanceMeters>
          </Trackpoint>
          <Trackpoint>
            <Time>2021-09-26T10:59:17.000Z</Time>
            <Position>
              <LatitudeDegrees>40.4100991599261760711669921875</LatitudeDegrees>
              <LongitudeDegrees>-3.7233632616698741912841796875</LongitudeDegrees>
            </Position>
            <AltitudeMeters>588.20001220703125</AltitudeMeters>
            <DistanceMeters>35200.301365401</DistanceMeters>
          </Trackpoint>
          <Trackpoint>
            <Time>2021-09-26T10:59:21.000Z</Time>
            <Position>
              <LatitudeDegrees>40.41001089848577976226806640625</LatitudeDegrees>
              <LongitudeDegrees>-3.72337943874299526214599609375</LongitudeDegrees>
            </Position>
            <AltitudeMeters>588.79998779296875</AltitudeMeters>
            <DistanceMeters>35210.220625097</DistanceMeters>
          </Trackpoint>
          <Trackpoint>
            <Time>2021-09-26T10:59:27.000Z</Time>
            <Position>
              <LatitudeDegrees>40.4098973236978054046630859375</LatitudeDegrees>
              <LongitudeDegrees>-3.7234232760965824127197265625</LongitudeDegrees>
            </Position>
            <AltitudeMeters>589.20001220703125</AltitudeMeters>
            <DistanceMeters>35223.396139871</DistanceMeters>
          </Trackpoint>
          <Trackpoint>
            <Time>2021-09-26T10:59:35.000Z</Time>
            <Position>
              <LatitudeDegrees>40.40971786715090274810791015625</LatitudeDegrees>
              <LongitudeDegrees>-3.7234557978808879852294921875</LongitudeDegrees>
            </Position>
            <AltitudeMeters>590</AltitudeMeters>
            <DistanceMeters>35243.559277069</DistanceMeters>
          </Trackpoint>
          <Trackpoint>
            <Time>2021-09-26T10:59:40.000Z</Time>
            <Position>
              <LatitudeDegrees>40.409541092813014984130859375</LatitudeDegrees>
              <LongitudeDegrees>-3.72353232465684413909912109375</LongitudeDegrees>
            </Position>
            <AltitudeMeters>590.4000244140625</AltitudeMeters>
            <DistanceMeters>35264.275972588</DistanceMeters>
          </Trackpoint>
          <Trackpoint>
            <Time>2021-09-26T10:59:41.000Z</Time>
            <Position>
              <LatitudeDegrees>40.4095159471035003662109375</LatitudeDegrees>
              <LongitudeDegrees>-3.7235404551029205322265625</LongitudeDegrees>
            </Position>
            <AltitudeMeters>590.5999755859375</AltitudeMeters>
            <DistanceMeters>35267.158275544</DistanceMeters>
          </Trackpoint>
          <Trackpoint>
            <Time>2021-09-26T10:59:47.000Z</Time>
            <Position>
              <LatitudeDegrees>40.40936901234090328216552734375</LatitudeDegrees>
              <LongitudeDegrees>-3.72363056056201457977294921875</LongitudeDegrees>
            </Position>
            <AltitudeMeters>590.79998779296875</AltitudeMeters>
            <DistanceMeters>35285.207348589</DistanceMeters>
          </Trackpoint>
          <Trackpoint>
            <Time>2021-09-26T10:59:55.000Z</Time>
            <Position>
              <LatitudeDegrees>40.40917673148214817047119140625</LatitudeDegrees>
              <LongitudeDegrees>-3.7236881442368030548095703125</LongitudeDegrees>
            </Position>
            <AltitudeMeters>591</AltitudeMeters>
            <DistanceMeters>35307.157902543</DistanceMeters>
          </Trackpoint>
          <Trackpoint>
            <Time>2021-09-26T10:59:57.000Z</Time>
            <Position>
              <LatitudeDegrees>40.40913180448114871978759765625</LatitudeDegrees>
              <LongitudeDegrees>-3.723691999912261962890625</LongitudeDegrees>
            </Position>
            <AltitudeMeters>590.79998779296875</AltitudeMeters>
            <DistanceMeters>35312.170055042</DistanceMeters>
          </Trackpoint>
          <Trackpoint>
            <Time>2021-09-26T11:00:04.000Z</Time>
            <Position>
              <LatitudeDegrees>40.408950336277484893798828125</LatitudeDegrees>
              <LongitudeDegrees>-3.7237163074314594268798828125</LongitudeDegrees>
            </Position>
            <AltitudeMeters>589.4000244140625</AltitudeMeters>
            <DistanceMeters>35332.472440846</DistanceMeters>
          </Trackpoint>
          <Trackpoint>
            <Time>2021-09-26T11:00:05.000Z</Time>
            <Position>
              <LatitudeDegrees>40.40892845951020717620849609375</LatitudeDegrees>
              <LongitudeDegrees>-3.72372427023947238922119140625</LongitudeDegrees>
            </Position>
            <AltitudeMeters>589.20001220703125</AltitudeMeters>
            <DistanceMeters>35334.997363414</DistanceMeters>
          </Trackpoint>
          <Trackpoint>
            <Time>2021-09-26T11:00:12.000Z</Time>
            <Position>
              <LatitudeDegrees>40.4087684489786624908447265625</LatitudeDegrees>
              <LongitudeDegrees>-3.7237655930221080780029296875</LongitudeDegrees>
            </Position>
            <AltitudeMeters>587.5999755859375</AltitudeMeters>
            <DistanceMeters>35353.147963373</DistanceMeters>
          </Trackpoint>
          <Trackpoint>
            <Time>2021-09-26T11:00:13.000Z</Time>
            <Position>
              <LatitudeDegrees>40.40874858386814594268798828125</LatitudeDegrees>
              <LongitudeDegrees>-3.72377590276300907135009765625</LongitudeDegrees>
            </Position>
            <AltitudeMeters>587.4000244140625</AltitudeMeters>
            <DistanceMeters>35355.527429265</DistanceMeters>
          </Trackpoint>
          <Trackpoint>
            <Time>2021-09-26T11:00:15.000Z</Time>
            <Position>
              <LatitudeDegrees>40.408715307712554931640625</LatitudeDegrees>
              <LongitudeDegrees>-3.72377087362110614776611328125</LongitudeDegrees>
            </Position>
            <AltitudeMeters>587.20001220703125</AltitudeMeters>
            <DistanceMeters>35359.255335869</DistanceMeters>
          </Trackpoint>
          <Trackpoint>
            <Time>2021-09-26T11:00:19.000Z</Time>
            <Position>
              <LatitudeDegrees>40.40866426192224025726318359375</LatitudeDegrees>
              <LongitudeDegrees>-3.7237494997680187225341796875</LongitudeDegrees>
            </Position>
            <AltitudeMeters>587</AltitudeMeters>
            <DistanceMeters>35365.218593455</DistanceMeters>
          </Trackpoint>
          <Trackpoint>
            <Time>2021-09-26T11:00:20.000Z</Time>
            <Position>
              <LatitudeDegrees>40.4086447320878505706787109375</LatitudeDegrees>
              <LongitudeDegrees>-3.72374631464481353759765625</LongitudeDegrees>
            </Position>
            <AltitudeMeters>586.79998779296875</AltitudeMeters>
            <DistanceMeters>35367.408335584</DistanceMeters>
          </Trackpoint>
          <Trackpoint>
            <Time>2021-09-26T11:00:23.000Z</Time>
            <Position>
              <LatitudeDegrees>40.40858455002307891845703125</LatitudeDegrees>
              <LongitudeDegrees>-3.72375645674765110015869140625</LongitudeDegrees>
            </Position>
            <AltitudeMeters>586.4000244140625</AltitudeMeters>
            <DistanceMeters>35374.161921011</DistanceMeters>
          </Trackpoint>
          <Trackpoint>
            <Time>2021-09-26T11:00:28.000Z</Time>
            <Position>
              <LatitudeDegrees>40.4084817878901958465576171875</LatitudeDegrees>
              <LongitudeDegrees>-3.72380205430090427398681640625</LongitudeDegrees>
            </Position>
            <AltitudeMeters>585.4000244140625</AltitudeMeters>
            <DistanceMeters>35386.234802352</DistanceMeters>
          </Trackpoint>
          <Trackpoint>
            <Time>2021-09-26T11:00:33.000Z</Time>
            <Position>
              <LatitudeDegrees>40.4084001481533050537109375</LatitudeDegrees>
              <LongitudeDegrees>-3.723833821713924407958984375</LongitudeDegrees>
            </Position>
            <AltitudeMeters>584.5999755859375</AltitudeMeters>
            <DistanceMeters>35395.710828954</DistanceMeters>
          </Trackpoint>
          <Trackpoint>
            <Time>2021-09-26T11:00:36.000Z</Time>
            <Position>
              <LatitudeDegrees>40.4083506949245929718017578125</LatitudeDegrees>
              <LongitudeDegrees>-3.723855279386043548583984375</LongitudeDegrees>
            </Position>
            <AltitudeMeters>584.20001220703125</AltitudeMeters>
            <DistanceMeters>35401.506679571</DistanceMeters>
          </Trackpoint>
          <Trackpoint>
            <Time>2021-09-26T11:00:42.000Z</Time>
            <Position>
              <LatitudeDegrees>40.40823996998369693756103515625</LatitudeDegrees>
              <LongitudeDegrees>-3.72391931712627410888671875</LongitudeDegrees>
            </Position>
            <AltitudeMeters>583.4000244140625</AltitudeMeters>
            <DistanceMeters>35414.972672482</DistanceMeters>
          </Trackpoint>
          <Trackpoint>
            <Time>2021-09-26T11:00:50.000Z</Time>
            <Position>
              <LatitudeDegrees>40.40808708406984806060791015625</LatitudeDegrees>
              <LongitudeDegrees>-3.7239835225045680999755859375</LongitudeDegrees>
            </Position>
            <AltitudeMeters>582.79998779296875</AltitudeMeters>
            <DistanceMeters>35432.837947512</DistanceMeters>
          </Trackpoint>
          <Trackpoint>
            <Time>2021-09-26T11:00:51.000Z</Time>
            <Position>
              <LatitudeDegrees>40.40807300247251987457275390625</LatitudeDegrees>
              <LongitudeDegrees>-3.7239835225045680999755859375</LongitudeDegrees>
            </Position>
            <AltitudeMeters>582.79998779296875</AltitudeMeters>
            <DistanceMeters>35434.405168234</DistanceMeters>
          </Trackpoint>
          <Trackpoint>
            <Time>2021-09-26T11:00:54.000Z</Time>
            <Position>
              <LatitudeDegrees>40.40801282040774822235107421875</LatitudeDegrees>
              <LongitudeDegrees>-3.7240036390721797943115234375</LongitudeDegrees>
            </Position>
            <AltitudeMeters>582.79998779296875</AltitudeMeters>
            <DistanceMeters>35441.316687922</DistanceMeters>
          </Trackpoint>
          <Trackpoint>
            <Time>2021-09-26T11:01:00.000Z</Time>
            <Position>
              <LatitudeDegrees>40.4078932106494903564453125</LatitudeDegrees>
              <LongitudeDegrees>-3.724034316837787628173828125</LongitudeDegrees>
            </Position>
            <AltitudeMeters>584.4000244140625</AltitudeMeters>
            <DistanceMeters>35454.881231321</DistanceMeters>
          </Trackpoint>
          <Trackpoint>
            <Time>2021-09-26T11:01:02.000Z</Time>
            <Position>
              <LatitudeDegrees>40.4078554920852184295654296875</LatitudeDegrees>
              <LongitudeDegrees>-3.72404864989221096038818359375</LongitudeDegrees>
            </Position>
            <AltitudeMeters>584.79998779296875</AltitudeMeters>
            <DistanceMeters>35459.252460182</DistanceMeters>
          </Trackpoint>
          <Trackpoint>
            <Time>2021-09-26T11:01:05.000Z</Time>
            <Position>
              <LatitudeDegrees>40.4077864252030849456787109375</LatitudeDegrees>
              <LongitudeDegrees>-3.72407480143010616302490234375</LongitudeDegrees>
            </Position>
            <AltitudeMeters>585.5999755859375</AltitudeMeters>
            <DistanceMeters>35467.25278404</DistanceMeters>
          </Trackpoint>
          <Trackpoint>
            <Time>2021-09-26T11:01:12.000Z</Time>
            <Position>
              <LatitudeDegrees>40.40764317847788333892822265625</LatitudeDegrees>
              <LongitudeDegrees>-3.724142275750637054443359375</LongitudeDegrees>
            </Position>
            <AltitudeMeters>586.4000244140625</AltitudeMeters>
            <DistanceMeters>35484.19101266</DistanceMeters>
          </Trackpoint>
          <Trackpoint>
            <Time>2021-09-26T11:01:19.000Z</Time>
            <Position>
              <LatitudeDegrees>40.407464392483234405517578125</LatitudeDegrees>
              <LongitudeDegrees>-3.724206984043121337890625</LongitudeDegrees>
            </Position>
            <AltitudeMeters>587</AltitudeMeters>
            <DistanceMeters>35504.83194376</DistanceMeters>
          </Trackpoint>
          <Trackpoint>
            <Time>2021-09-26T11:01:21.000Z</Time>
            <Position>
              <LatitudeDegrees>40.40742122568190097808837890625</LatitudeDegrees>
              <LongitudeDegrees>-3.72422936372458934783935546875</LongitudeDegrees>
            </Position>
            <AltitudeMeters>586.79998779296875</AltitudeMeters>
            <DistanceMeters>35509.996713437</DistanceMeters>
          </Trackpoint>
          <Trackpoint>
            <Time>2021-09-26T11:01:30.000Z</Time>
            <Position>
              <LatitudeDegrees>40.4072315432131290435791015625</LatitudeDegrees>
              <LongitudeDegrees>-3.7242933176457881927490234375</LongitudeDegrees>
            </Position>
            <AltitudeMeters>586.20001220703125</AltitudeMeters>
            <DistanceMeters>35531.793281559</DistanceMeters>
          </Trackpoint>
          <Trackpoint>
            <Time>2021-09-26T11:01:36.000Z</Time>
            <Position>
              <LatitudeDegrees>40.40711562149226665496826171875</LatitudeDegrees>
              <LongitudeDegrees>-3.7243382446467876434326171875</LongitudeDegrees>
            </Position>
            <AltitudeMeters>585.79998779296875</AltitudeMeters>
            <DistanceMeters>35545.245520478</DistanceMeters>
          </Trackpoint>
          <Trackpoint>
            <Time>2021-09-26T11:01:39.000Z</Time>
            <Position>
              <LatitudeDegrees>40.40704940445721149444580078125</LatitudeDegrees>
              <LongitudeDegrees>-3.7243479676544666290283203125</LongitudeDegrees>
            </Position>
            <AltitudeMeters>585.4000244140625</AltitudeMeters>
            <DistanceMeters>35552.661258172</DistanceMeters>
          </Trackpoint>
          <Trackpoint>
            <Time>2021-09-26T11:01:41.000Z</Time>
            <Position>
              <LatitudeDegrees>40.40701235644519329071044921875</LatitudeDegrees>
              <LongitudeDegrees>-3.72435157187283039093017578125</LongitudeDegrees>
            </Position>
            <AltitudeMeters>585.4000244140625</AltitudeMeters>
            <DistanceMeters>35556.794647172</DistanceMeters>
          </Trackpoint>
          <Trackpoint>
            <Time>2021-09-26T11:01:42.000Z</Time>
            <Position>
              <LatitudeDegrees>40.40699659846723079681396484375</LatitudeDegrees>
              <LongitudeDegrees>-3.72436163015663623809814453125</LongitudeDegrees>
            </Position>
            <AltitudeMeters>585.20001220703125</AltitudeMeters>
            <DistanceMeters>35558.746746622</DistanceMeters>
          </Trackpoint>
          <Trackpoint>
            <Time>2021-09-26T11:01:48.000Z</Time>
            <Position>
              <LatitudeDegrees>40.40688830427825450897216796875</LatitudeDegrees>
              <LongitudeDegrees>-3.7243825010955333709716796875</LongitudeDegrees>
            </Position>
            <AltitudeMeters>585</AltitudeMeters>
            <DistanceMeters>35570.929453071</DistanceMeters>
          </Trackpoint>
          <Trackpoint>
            <Time>2021-09-26T11:01:54.000Z</Time>
            <Position>
              <LatitudeDegrees>40.40676601231098175048828125</LatitudeDegrees>
              <LongitudeDegrees>-3.72438065707683563232421875</LongitudeDegrees>
            </Position>
            <AltitudeMeters>585</AltitudeMeters>
            <DistanceMeters>35584.541843332</DistanceMeters>
          </Trackpoint>
          <Trackpoint>
            <Time>2021-09-26T11:02:01.000Z</Time>
            <Position>
              <LatitudeDegrees>40.406592674553394317626953125</LatitudeDegrees>
              <LongitudeDegrees>-3.72441275976598262786865234375</LongitudeDegrees>
            </Position>
            <AltitudeMeters>585.20001220703125</AltitudeMeters>
            <DistanceMeters>35604.025796055</DistanceMeters>
          </Trackpoint>
          <Trackpoint>
            <Time>2021-09-26T11:02:09.000Z</Time>
            <Position>
              <LatitudeDegrees>40.40641598403453826904296875</LatitudeDegrees>
              <LongitudeDegrees>-3.72445039451122283935546875</LongitudeDegrees>
            </Position>
            <AltitudeMeters>584.4000244140625</AltitudeMeters>
            <DistanceMeters>35623.948798845</DistanceMeters>
          </Trackpoint>
          <Trackpoint>
            <Time>2021-09-26T11:02:17.000Z</Time>
            <Position>
              <LatitudeDegrees>40.406238622963428497314453125</LatitudeDegrees>
              <LongitudeDegrees>-3.7244948185980319976806640625</LongitudeDegrees>
            </Position>
            <AltitudeMeters>583.5999755859375</AltitudeMeters>
            <DistanceMeters>35644.045095491</DistanceMeters>
          </Trackpoint>
          <Trackpoint>
            <Time>2021-09-26T11:02:24.000Z</Time>
            <Position>
              <LatitudeDegrees>40.4060684703290462493896484375</LatitudeDegrees>
              <LongitudeDegrees>-3.72451468370854854583740234375</LongitudeDegrees>
            </Position>
            <AltitudeMeters>583</AltitudeMeters>
            <DistanceMeters>35663.058038982</DistanceMeters>
          </Trackpoint>
          <Trackpoint>
            <Time>2021-09-26T11:02:31.000Z</Time>
            <Position>
              <LatitudeDegrees>40.4059246368706226348876953125</LatitudeDegrees>
              <LongitudeDegrees>-3.72458626516163349151611328125</LongitudeDegrees>
            </Position>
            <AltitudeMeters>583.20001220703125</AltitudeMeters>
            <DistanceMeters>35680.177886854</DistanceMeters>
          </Trackpoint>
          <Trackpoint>
            <Time>2021-09-26T11:02:38.000Z</Time>
            <Position>
              <LatitudeDegrees>40.405779294669628143310546875</LatitudeDegrees>
              <LongitudeDegrees>-3.72459716163575649261474609375</LongitudeDegrees>
            </Position>
            <AltitudeMeters>583.20001220703125</AltitudeMeters>
            <DistanceMeters>35696.381265286</DistanceMeters>
          </Trackpoint>
          <Trackpoint>
            <Time>2021-09-26T11:02:47.000Z</Time>
            <Position>
              <LatitudeDegrees>40.4055893607437610626220703125</LatitudeDegrees>
              <LongitudeDegrees>-3.724627755582332611083984375</LongitudeDegrees>
            </Position>
            <AltitudeMeters>582.5999755859375</AltitudeMeters>
            <DistanceMeters>35717.679760307</DistanceMeters>
          </Trackpoint>
          <Trackpoint>
            <Time>2021-09-26T11:02:55.000Z</Time>
            <Position>
              <LatitudeDegrees>40.40541686117649078369140625</LatitudeDegrees>
              <LongitudeDegrees>-3.7246302701532840728759765625</LongitudeDegrees>
            </Position>
            <AltitudeMeters>582</AltitudeMeters>
            <DistanceMeters>35736.880330634</DistanceMeters>
          </Trackpoint>
          <Trackpoint>
            <Time>2021-09-26T11:03:02.000Z</Time>
            <Position>
              <LatitudeDegrees>40.405245535075664520263671875</LatitudeDegrees>
              <LongitudeDegrees>-3.724657259881496429443359375</LongitudeDegrees>
            </Position>
            <AltitudeMeters>582.5999755859375</AltitudeMeters>
            <DistanceMeters>35756.085838503</DistanceMeters>
          </Trackpoint>
          <Trackpoint>
            <Time>2021-09-26T11:03:10.000Z</Time>
            <Position>
              <LatitudeDegrees>40.40507362224161624908447265625</LatitudeDegrees>
              <LongitudeDegrees>-3.7246953137218952178955078125</LongitudeDegrees>
            </Position>
            <AltitudeMeters>584.20001220703125</AltitudeMeters>
            <DistanceMeters>35775.489911978</DistanceMeters>
          </Trackpoint>
          <Trackpoint>
            <Time>2021-09-26T11:03:16.000Z</Time>
            <Position>
              <LatitudeDegrees>40.40496616624295711517333984375</LatitudeDegrees>
              <LongitudeDegrees>-3.7247124128043651580810546875</LongitudeDegrees>
            </Position>
            <AltitudeMeters>585.4000244140625</AltitudeMeters>
            <DistanceMeters>35787.537335714</DistanceMeters>
          </Trackpoint>
          <Trackpoint>
            <Time>2021-09-26T11:03:23.000Z</Time>
            <Position>
              <LatitudeDegrees>40.40481126867234706878662109375</LatitudeDegrees>
              <LongitudeDegrees>-3.72470478527247905731201171875</LongitudeDegrees>
            </Position>
            <AltitudeMeters>587</AltitudeMeters>
            <DistanceMeters>35804.789853784</DistanceMeters>
          </Trackpoint>
          <Trackpoint>
            <Time>2021-09-26T11:03:25.000Z</Time>
            <Position>
              <LatitudeDegrees>40.4047706164419651031494140625</LatitudeDegrees>
              <LongitudeDegrees>-3.72471325099468231201171875</LongitudeDegrees>
            </Position>
            <AltitudeMeters>587.4000244140625</AltitudeMeters>
            <DistanceMeters>35809.370890529</DistanceMeters>
          </Trackpoint>
          <Trackpoint>
            <Time>2021-09-26T11:03:29.000Z</Time>
            <Position>
              <LatitudeDegrees>40.40464815683662891387939453125</LatitudeDegrees>
              <LongitudeDegrees>-3.7247134186327457427978515625</LongitudeDegrees>
            </Position>
            <AltitudeMeters>588.5999755859375</AltitudeMeters>
            <DistanceMeters>35823.000848807</DistanceMeters>
          </Trackpoint>
          <Trackpoint>
            <Time>2021-09-26T11:03:37.000Z</Time>
            <Position>
              <LatitudeDegrees>40.404471047222614288330078125</LatitudeDegrees>
              <LongitudeDegrees>-3.72470243833959102630615234375</LongitudeDegrees>
            </Position>
            <AltitudeMeters>588.4000244140625</AltitudeMeters>
            <DistanceMeters>35842.735314518</DistanceMeters>
          </Trackpoint>
          <Trackpoint>
            <Time>2021-09-26T11:03:44.000Z</Time>
            <Position>
              <LatitudeDegrees>40.40435093455016613006591796875</LatitudeDegrees>
              <LongitudeDegrees>-3.724704198539257049560546875</LongitudeDegrees>
            </Position>
            <AltitudeMeters>587.4000244140625</AltitudeMeters>
            <DistanceMeters>35856.10439463</DistanceMeters>
          </Trackpoint>
          <Trackpoint>
            <Time>2021-09-26T11:03:54.000Z</Time>
            <Position>
              <LatitudeDegrees>40.40416200645267963409423828125</LatitudeDegrees>
              <LongitudeDegrees>-3.72466857545077800750732421875</LongitudeDegrees>
            </Position>
            <AltitudeMeters>584.4000244140625</AltitudeMeters>
            <DistanceMeters>35877.348338721</DistanceMeters>
          </Trackpoint>
          <Trackpoint>
            <Time>2021-09-26T11:03:55.000Z</Time>
            <Position>
              <LatitudeDegrees>40.40414608083665370941162109375</LatitudeDegrees>
              <LongitudeDegrees>-3.72466455213725566864013671875</LongitudeDegrees>
            </Position>
            <AltitudeMeters>584.20001220703125</AltitudeMeters>
            <DistanceMeters>35879.151343857</DistanceMeters>
          </Trackpoint>
          <Trackpoint>
            <Time>2021-09-26T11:04:02.000Z</Time>
            <Position>
              <LatitudeDegrees>40.4040206037461757659912109375</LatitudeDegrees>
              <LongitudeDegrees>-3.72466404922306537628173828125</LongitudeDegrees>
            </Position>
            <AltitudeMeters>584</AltitudeMeters>
            <DistanceMeters>35893.117361585</DistanceMeters>
          </Trackpoint>
          <Trackpoint>
            <Time>2021-09-26T11:04:09.000Z</Time>
            <Position>
              <LatitudeDegrees>40.403876937925815582275390625</LatitudeDegrees>
              <LongitudeDegrees>-3.724620044231414794921875</LongitudeDegrees>
            </Position>
            <AltitudeMeters>582.4000244140625</AltitudeMeters>
            <DistanceMeters>35909.536921942</DistanceMeters>
          </Trackpoint>
          <Trackpoint>
            <Time>2021-09-26T11:04:18.000Z</Time>
            <Position>
              <LatitudeDegrees>40.40370821021497249603271484375</LatitudeDegrees>
              <LongitudeDegrees>-3.7245099060237407684326171875</LongitudeDegrees>
            </Position>
            <AltitudeMeters>581.5999755859375</AltitudeMeters>
            <DistanceMeters>35930.508566446</DistanceMeters>
          </Trackpoint>
          <Trackpoint>
            <Time>2021-09-26T11:04:25.000Z</Time>
            <Position>
              <LatitudeDegrees>40.40369949303567409515380859375</LatitudeDegrees>
              <LongitudeDegrees>-3.72432768344879150390625</LongitudeDegrees>
            </Position>
            <AltitudeMeters>582.20001220703125</AltitudeMeters>
            <DistanceMeters>35945.983047605</DistanceMeters>
          </Trackpoint>
          <Trackpoint>
            <Time>2021-09-26T11:04:34.000Z</Time>
            <Position>
              <LatitudeDegrees>40.403732769191265106201171875</LatitudeDegrees>
              <LongitudeDegrees>-3.72410162352025508880615234375</LongitudeDegrees>
            </Position>
            <AltitudeMeters>582</AltitudeMeters>
            <DistanceMeters>35965.497564862</DistanceMeters>
          </Trackpoint>
          <Trackpoint>
            <Time>2021-09-26T11:04:42.000Z</Time>
            <Position>
              <LatitudeDegrees>40.403732769191265106201171875</LatitudeDegrees>
              <LongitudeDegrees>-3.7239432893693447113037109375</LongitudeDegrees>
            </Position>
            <AltitudeMeters>581.4000244140625</AltitudeMeters>
            <DistanceMeters>35978.916871269</DistanceMeters>
          </Trackpoint>
          <Trackpoint>
            <Time>2021-09-26T11:04:49.000Z</Time>
            <Position>
              <LatitudeDegrees>40.4037312604486942291259765625</LatitudeDegrees>
              <LongitudeDegrees>-3.72382233850657939910888671875</LongitudeDegrees>
            </Position>
            <AltitudeMeters>581.4000244140625</AltitudeMeters>
            <DistanceMeters>35989.169632843</DistanceMeters>
          </Trackpoint>
          <Trackpoint>
            <Time>2021-09-26T11:04:51.000Z</Time>
            <Position>
              <LatitudeDegrees>40.4037315957248210906982421875</LatitudeDegrees>
              <LongitudeDegrees>-3.7237840332090854644775390625</LongitudeDegrees>
            </Position>
            <AltitudeMeters>581.4000244140625</AltitudeMeters>
            <DistanceMeters>35992.417267257</DistanceMeters>
          </Trackpoint>
          <Trackpoint>
            <Time>2021-09-26T11:05:02.000Z</Time>
            <Position>
              <LatitudeDegrees>40.40375531651079654693603515625</LatitudeDegrees>
              <LongitudeDegrees>-3.7235707975924015045166015625</LongitudeDegrees>
            </Position>
            <AltitudeMeters>580.20001220703125</AltitudeMeters>
            <DistanceMeters>36010.682182919</DistanceMeters>
          </Trackpoint>
          <Trackpoint>
            <Time>2021-09-26T11:05:08.000Z</Time>
            <Position>
              <LatitudeDegrees>40.40377761237323284149169921875</LatitudeDegrees>
              <LongitudeDegrees>-3.72346937656402587890625</LongitudeDegrees>
            </Position>
            <AltitudeMeters>580</AltitudeMeters>
            <DistanceMeters>36019.62883579</DistanceMeters>
          </Trackpoint>
          <Trackpoint>
            <Time>2021-09-26T11:05:10.000Z</Time>
            <Position>
              <LatitudeDegrees>40.40378465317189693450927734375</LatitudeDegrees>
              <LongitudeDegrees>-3.7234333343803882598876953125</LongitudeDegrees>
            </Position>
            <AltitudeMeters>579.79998779296875</AltitudeMeters>
            <DistanceMeters>36022.780515357</DistanceMeters>
          </Trackpoint>
          <Trackpoint>
            <Time>2021-09-26T11:05:20.000Z</Time>
            <Position>
              <LatitudeDegrees>40.40379722602665424346923828125</LatitudeDegrees>
              <LongitudeDegrees>-3.7232613377273082733154296875</LongitudeDegrees>
            </Position>
            <AltitudeMeters>579.79998779296875</AltitudeMeters>
            <DistanceMeters>36037.425115575</DistanceMeters>
          </Trackpoint>
          <Trackpoint>
            <Time>2021-09-26T11:05:30.000Z</Time>
            <Position>
              <LatitudeDegrees>40.40382354520261287689208984375</LatitudeDegrees>
              <LongitudeDegrees>-3.7230672128498554229736328125</LongitudeDegrees>
            </Position>
            <AltitudeMeters>579.5999755859375</AltitudeMeters>
            <DistanceMeters>36054.136854092</DistanceMeters>
          </Trackpoint>
          <Trackpoint>
            <Time>2021-09-26T11:05:40.000Z</Time>
            <Position>
              <LatitudeDegrees>40.40385975502431392669677734375</LatitudeDegrees>
              <LongitudeDegrees>-3.7228781171143054962158203125</LongitudeDegrees>
            </Position>
            <AltitudeMeters>579.20001220703125</AltitudeMeters>
            <DistanceMeters>36070.662761993</DistanceMeters>
          </Trackpoint>
          <Trackpoint>
            <Time>2021-09-26T11:05:50.000Z</Time>
            <Position>
              <LatitudeDegrees>40.4038838110864162445068359375</LatitudeDegrees>
              <LongitudeDegrees>-3.72269044630229473114013671875</LongitudeDegrees>
            </Position>
            <AltitudeMeters>579.4000244140625</AltitudeMeters>
            <DistanceMeters>36086.792689535</DistanceMeters>
          </Trackpoint>
          <Trackpoint>
            <Time>2021-09-26T11:06:01.000Z</Time>
            <Position>
              <LatitudeDegrees>40.403908453881740570068359375</LatitudeDegrees>
              <LongitudeDegrees>-3.72248978354036808013916015625</LongitudeDegrees>
            </Position>
            <AltitudeMeters>580.20001220703125</AltitudeMeters>
            <DistanceMeters>36104.020065783</DistanceMeters>
          </Trackpoint>
          <Trackpoint>
            <Time>2021-09-26T11:06:13.000Z</Time>
            <Position>
              <LatitudeDegrees>40.403933934867382049560546875</LatitudeDegrees>
              <LongitudeDegrees>-3.72227185405790805816650390625</LongitudeDegrees>
            </Position>
            <AltitudeMeters>581.20001220703125</AltitudeMeters>
            <DistanceMeters>36122.707498628</DistanceMeters>
          </Trackpoint>
          <Trackpoint>
            <Time>2021-09-26T11:06:22.000Z</Time>
            <Position>
              <LatitudeDegrees>40.40394365787506103515625</LatitudeDegrees>
              <LongitudeDegrees>-3.7221036292612552642822265625</LongitudeDegrees>
            </Position>
            <AltitudeMeters>582.5999755859375</AltitudeMeters>
            <DistanceMeters>36137.006414351</DistanceMeters>
          </Trackpoint>
          <Trackpoint>
            <Time>2021-09-26T11:06:27.000Z</Time>
            <Position>
              <LatitudeDegrees>40.40395245887339115142822265625</LatitudeDegrees>
              <LongitudeDegrees>-3.7220100872218608856201171875</LongitudeDegrees>
            </Position>
            <AltitudeMeters>583</AltitudeMeters>
            <DistanceMeters>36144.994312707</DistanceMeters>
          </Trackpoint>
          <Trackpoint>
            <Time>2021-09-26T11:06:38.000Z</Time>
            <Position>
              <LatitudeDegrees>40.40397626347839832305908203125</LatitudeDegrees>
              <LongitudeDegrees>-3.72183431871235370635986328125</LongitudeDegrees>
            </Position>
            <AltitudeMeters>583.20001220703125</AltitudeMeters>
            <DistanceMeters>36160.125358876</DistanceMeters>
          </Trackpoint>
          <Trackpoint>
            <Time>2021-09-26T11:06:46.000Z</Time>
            <Position>
              <LatitudeDegrees>40.4039763472974300384521484375</LatitudeDegrees>
              <LongitudeDegrees>-3.72168931178748607635498046875</LongitudeDegrees>
            </Position>
            <AltitudeMeters>583</AltitudeMeters>
            <DistanceMeters>36172.415807149</DistanceMeters>
          </Trackpoint>
          <Trackpoint>
            <Time>2021-09-26T11:06:59.000Z</Time>
            <Position>
              <LatitudeDegrees>40.4039981402456760406494140625</LatitudeDegrees>
              <LongitudeDegrees>-3.72145143337547779083251953125</LongitudeDegrees>
            </Position>
            <AltitudeMeters>582.4000244140625</AltitudeMeters>
            <DistanceMeters>36192.722640257</DistanceMeters>
          </Trackpoint>
          <Trackpoint>
            <Time>2021-09-26T11:07:09.000Z</Time>
            <Position>
              <LatitudeDegrees>40.40402471087872982025146484375</LatitudeDegrees>
              <LongitudeDegrees>-3.72127222828567028045654296875</LongitudeDegrees>
            </Position>
            <AltitudeMeters>582.79998779296875</AltitudeMeters>
            <DistanceMeters>36208.196537859</DistanceMeters>
          </Trackpoint>
          <Trackpoint>
            <Time>2021-09-26T11:07:18.000Z</Time>
            <Position>
              <LatitudeDegrees>40.4040688835084438323974609375</LatitudeDegrees>
              <LongitudeDegrees>-3.7210723198950290679931640625</LongitudeDegrees>
            </Position>
            <AltitudeMeters>583.79998779296875</AltitudeMeters>
            <DistanceMeters>36225.838779068</DistanceMeters>
          </Trackpoint>
          <Trackpoint>
            <Time>2021-09-26T11:07:23.000Z</Time>
            <Position>
              <LatitudeDegrees>40.40408791042864322662353515625</LatitudeDegrees>
              <LongitudeDegrees>-3.72091415338218212127685546875</LongitudeDegrees>
            </Position>
            <AltitudeMeters>584.5999755859375</AltitudeMeters>
            <DistanceMeters>36239.410643321</DistanceMeters>
          </Trackpoint>
          <Trackpoint>
            <Time>2021-09-26T11:07:30.000Z</Time>
            <Position>
              <LatitudeDegrees>40.40413300506770610809326171875</LatitudeDegrees>
              <LongitudeDegrees>-3.7207053601741790771484375</LongitudeDegrees>
            </Position>
            <AltitudeMeters>586.4000244140625</AltitudeMeters>
            <DistanceMeters>36257.80512522</DistanceMeters>
          </Trackpoint>
          <Trackpoint>
            <Time>2021-09-26T11:07:36.000Z</Time>
            <Position>
              <LatitudeDegrees>40.40419754572212696075439453125</LatitudeDegrees>
              <LongitudeDegrees>-3.7205553241074085235595703125</LongitudeDegrees>
            </Position>
            <AltitudeMeters>588.20001220703125</AltitudeMeters>
            <DistanceMeters>36272.410517917</DistanceMeters>
          </Trackpoint>
          <Trackpoint>
            <Time>2021-09-26T11:07:43.000Z</Time>
            <Position>
              <LatitudeDegrees>40.40433467365801334381103515625</LatitudeDegrees>
              <LongitudeDegrees>-3.72050494886934757232666015625</LongitudeDegrees>
            </Position>
            <AltitudeMeters>590.5999755859375</AltitudeMeters>
            <DistanceMeters>36288.259196297</DistanceMeters>
          </Trackpoint>
          <Trackpoint>
            <Time>2021-09-26T11:07:49.000Z</Time>
            <Position>
              <LatitudeDegrees>40.40445537306368350982666015625</LatitudeDegrees>
              <LongitudeDegrees>-3.72055473737418651580810546875</LongitudeDegrees>
            </Position>
            <AltitudeMeters>591.79998779296875</AltitudeMeters>
            <DistanceMeters>36302.340475307</DistanceMeters>
          </Trackpoint>
          <Trackpoint>
            <Time>2021-09-26T11:07:56.000Z</Time>
            <Position>
              <LatitudeDegrees>40.404579341411590576171875</LatitudeDegrees>
              <LongitudeDegrees>-3.72061827220022678375244140625</LongitudeDegrees>
            </Position>
            <AltitudeMeters>592.79998779296875</AltitudeMeters>
            <DistanceMeters>36317.152149999</DistanceMeters>
          </Trackpoint>
          <Trackpoint>
            <Time>2021-09-26T11:08:03.000Z</Time>
            <Position>
              <LatitudeDegrees>40.40461060591042041778564453125</LatitudeDegrees>
              <LongitudeDegrees>-3.7208064459264278411865234375</LongitudeDegrees>
            </Position>
            <AltitudeMeters>592.79998779296875</AltitudeMeters>
            <DistanceMeters>36333.476290279</DistanceMeters>
          </Trackpoint>
          <Trackpoint>
            <Time>2021-09-26T11:08:11.000Z</Time>
            <Position>
              <LatitudeDegrees>40.40456919930875301361083984375</LatitudeDegrees>
              <LongitudeDegrees>-3.72107240371406078338623046875</LongitudeDegrees>
            </Position>
            <AltitudeMeters>592</AltitudeMeters>
            <DistanceMeters>36356.484139837</DistanceMeters>
          </Trackpoint>
          <Trackpoint>
            <Time>2021-09-26T11:08:17.000Z</Time>
            <Position>
              <LatitudeDegrees>40.4045422933995723724365234375</LatitudeDegrees>
              <LongitudeDegrees>-3.7212469987571239471435546875</LongitudeDegrees>
            </Position>
            <AltitudeMeters>592</AltitudeMeters>
            <DistanceMeters>36371.581728704</DistanceMeters>
          </Trackpoint>
          <Trackpoint>
            <Time>2021-09-26T11:08:24.000Z</Time>
            <Position>
              <LatitudeDegrees>40.40452561341226100921630859375</LatitudeDegrees>
              <LongitudeDegrees>-3.72146367095410823822021484375</LongitudeDegrees>
            </Position>
            <AltitudeMeters>591.5999755859375</AltitudeMeters>
            <DistanceMeters>36390.039429647</DistanceMeters>
          </Trackpoint>
          <Trackpoint>
            <Time>2021-09-26T11:08:31.000Z</Time>
            <Position>
              <LatitudeDegrees>40.40451161563396453857421875</LatitudeDegrees>
              <LongitudeDegrees>-3.72167875058948993682861328125</LongitudeDegrees>
            </Position>
            <AltitudeMeters>592</AltitudeMeters>
            <DistanceMeters>36408.334972099</DistanceMeters>
          </Trackpoint>
          <Trackpoint>
            <Time>2021-09-26T11:08:39.000Z</Time>
            <Position>
              <LatitudeDegrees>40.4045174829661846160888671875</LatitudeDegrees>
              <LongitudeDegrees>-3.7219061516225337982177734375</LongitudeDegrees>
            </Position>
            <AltitudeMeters>590.79998779296875</AltitudeMeters>
            <DistanceMeters>36427.61954283</DistanceMeters>
          </Trackpoint>
          <Trackpoint>
            <Time>2021-09-26T11:08:43.000Z</Time>
            <Position>
              <LatitudeDegrees>40.40454388596117496490478515625</LatitudeDegrees>
              <LongitudeDegrees>-3.7220196425914764404296875</LongitudeDegrees>
            </Position>
            <AltitudeMeters>589.79998779296875</AltitudeMeters>
            <DistanceMeters>36437.678020671</DistanceMeters>
          </Trackpoint>
          <Trackpoint>
            <Time>2021-09-26T11:08:45.000Z</Time>
            <Position>
              <LatitudeDegrees>40.40457523427903652191162109375</LatitudeDegrees>
              <LongitudeDegrees>-3.72206993401050567626953125</LongitudeDegrees>
            </Position>
            <AltitudeMeters>589.4000244140625</AltitudeMeters>
            <DistanceMeters>36443.186292346</DistanceMeters>
          </Trackpoint>
          <Trackpoint>
            <Time>2021-09-26T11:08:50.000Z</Time>
            <Position>
              <LatitudeDegrees>40.40469643659889698028564453125</LatitudeDegrees>
              <LongitudeDegrees>-3.72212651185691356658935546875</LongitudeDegrees>
            </Position>
            <AltitudeMeters>589.20001220703125</AltitudeMeters>
            <DistanceMeters>36457.502879758</DistanceMeters>
          </Trackpoint>
          <Trackpoint>
            <Time>2021-09-26T11:08:57.000Z</Time>
            <Position>
              <LatitudeDegrees>40.40487832389771938323974609375</LatitudeDegrees>
              <LongitudeDegrees>-3.72213841415941715240478515625</LongitudeDegrees>
            </Position>
            <AltitudeMeters>586.79998779296875</AltitudeMeters>
            <DistanceMeters>36477.772325188</DistanceMeters>
          </Trackpoint>
          <Trackpoint>
            <Time>2021-09-26T11:09:03.000Z</Time>
            <Position>
              <LatitudeDegrees>40.40502257645130157470703125</LatitudeDegrees>
              <LongitudeDegrees>-3.7221435271203517913818359375</LongitudeDegrees>
            </Position>
            <AltitudeMeters>585.4000244140625</AltitudeMeters>
            <DistanceMeters>36493.833807805</DistanceMeters>
          </Trackpoint>
          <Trackpoint>
            <Time>2021-09-26T11:09:04.000Z</Time>
            <Position>
              <LatitudeDegrees>40.4050411842763423919677734375</LatitudeDegrees>
              <LongitudeDegrees>-3.7221510708332061767578125</LongitudeDegrees>
            </Position>
            <AltitudeMeters>585</AltitudeMeters>
            <DistanceMeters>36496.000750294</DistanceMeters>
          </Trackpoint>
          <Trackpoint>
            <Time>2021-09-26T11:09:10.000Z</Time>
            <Position>
              <LatitudeDegrees>40.40520639158785343170166015625</LatitudeDegrees>
              <LongitudeDegrees>-3.72217613272368907928466796875</LongitudeDegrees>
            </Position>
            <AltitudeMeters>583.79998779296875</AltitudeMeters>
            <DistanceMeters>36514.510724914</DistanceMeters>
          </Trackpoint>
          <Trackpoint>
            <Time>2021-09-26T11:09:19.000Z</Time>
            <Position>
              <LatitudeDegrees>40.4053972475230693817138671875</LatitudeDegrees>
              <LongitudeDegrees>-3.722147047519683837890625</LongitudeDegrees>
            </Position>
            <AltitudeMeters>584.4000244140625</AltitudeMeters>
            <DistanceMeters>36535.896169768</DistanceMeters>
          </Trackpoint>
          <Trackpoint>
            <Time>2021-09-26T11:09:26.000Z</Time>
            <Position>
              <LatitudeDegrees>40.40554049424827098846435546875</LatitudeDegrees>
              <LongitudeDegrees>-3.7221510708332061767578125</LongitudeDegrees>
            </Position>
            <AltitudeMeters>584.5999755859375</AltitudeMeters>
            <DistanceMeters>36551.843679698</DistanceMeters>
          </Trackpoint>
          <Trackpoint>
            <Time>2021-09-26T11:09:27.000Z</Time>
            <Position>
              <LatitudeDegrees>40.40555943734943866729736328125</LatitudeDegrees>
              <LongitudeDegrees>-3.72215182520449161529541015625</LongitudeDegrees>
            </Position>
            <AltitudeMeters>584.5999755859375</AltitudeMeters>
            <DistanceMeters>36553.955753978</DistanceMeters>
          </Trackpoint>
          <Trackpoint>
            <Time>2021-09-26T11:09:27.000Z</Time>
            <Position>
              <LatitudeDegrees>40.40555943734943866729736328125</LatitudeDegrees>
              <LongitudeDegrees>-3.72215182520449161529541015625</LongitudeDegrees>
            </Position>
            <AltitudeMeters>584.5999755859375</AltitudeMeters>
            <DistanceMeters>36554.050780692</DistanceMeters>
          </Trackpoint>
          <Trackpoint>
            <Time>2021-09-26T11:09:35.000Z</Time>
            <Position>
              <LatitudeDegrees>40.4057439230382442474365234375</LatitudeDegrees>
              <LongitudeDegrees>-3.72212902642786502838134765625</LongitudeDegrees>
            </Position>
            <AltitudeMeters>585.4000244140625</AltitudeMeters>
            <DistanceMeters>36574.675299619</DistanceMeters>
          </Trackpoint>
          <Trackpoint>
            <Time>2021-09-26T11:09:43.000Z</Time>
            <Position>
              <LatitudeDegrees>40.405925475060939788818359375</LatitudeDegrees>
              <LongitudeDegrees>-3.7221001088619232177734375</LongitudeDegrees>
            </Position>
            <AltitudeMeters>586.4000244140625</AltitudeMeters>
            <DistanceMeters>36595.03054532</DistanceMeters>
          </Trackpoint>
          <Trackpoint>
            <Time>2021-09-26T11:09:44.000Z</Time>
            <Position>
              <LatitudeDegrees>40.40594081394374370574951171875</LatitudeDegrees>
              <LongitudeDegrees>-3.72209943830966949462890625</LongitudeDegrees>
            </Position>
            <AltitudeMeters>586.5999755859375</AltitudeMeters>
            <DistanceMeters>36596.741026179</DistanceMeters>
          </Trackpoint>
          <Trackpoint>
            <Time>2021-09-26T11:09:51.000Z</Time>
            <Position>
              <LatitudeDegrees>40.40608632378280162811279296875</LatitudeDegrees>
              <LongitudeDegrees>-3.72203280217945575714111328125</LongitudeDegrees>
            </Position>
            <AltitudeMeters>588.5999755859375</AltitudeMeters>
            <DistanceMeters>36613.893019079</DistanceMeters>
          </Trackpoint>
          <Trackpoint>
            <Time>2021-09-26T11:09:58.000Z</Time>
            <Position>
              <LatitudeDegrees>40.40622965432703495025634765625</LatitudeDegrees>
              <LongitudeDegrees>-3.7219762243330478668212890625</LongitudeDegrees>
            </Position>
            <AltitudeMeters>588.20001220703125</AltitudeMeters>
            <DistanceMeters>36630.551177715</DistanceMeters>
          </Trackpoint>
          <Trackpoint>
            <Time>2021-09-26T11:10:07.000Z</Time>
            <Position>
              <LatitudeDegrees>40.40642009116709232330322265625</LatitudeDegrees>
              <LongitudeDegrees>-3.721918053925037384033203125</LongitudeDegrees>
            </Position>
            <AltitudeMeters>586.79998779296875</AltitudeMeters>
            <DistanceMeters>36652.312917742</DistanceMeters>
          </Trackpoint>
          <Trackpoint>
            <Time>2021-09-26T11:10:09.000Z</Time>
            <Position>
              <LatitudeDegrees>40.40646501816809177398681640625</LatitudeDegrees>
              <LongitudeDegrees>-3.72190506197512149810791015625</LongitudeDegrees>
            </Position>
            <AltitudeMeters>585.79998779296875</AltitudeMeters>
            <DistanceMeters>36657.43379091</DistanceMeters>
          </Trackpoint>
          <Trackpoint>
            <Time>2021-09-26T11:10:17.000Z</Time>
            <Position>
              <LatitudeDegrees>40.4066478274762630462646484375</LatitudeDegrees>
              <LongitudeDegrees>-3.721851669251918792724609375</LongitudeDegrees>
            </Position>
            <AltitudeMeters>583</AltitudeMeters>
            <DistanceMeters>36678.278025798</DistanceMeters>
          </Trackpoint>
          <Trackpoint>
            <Time>2021-09-26T11:10:18.000Z</Time>
            <Position>
              <LatitudeDegrees>40.40667305700480937957763671875</LatitudeDegrees>
              <LongitudeDegrees>-3.7218384258449077606201171875</LongitudeDegrees>
            </Position>
            <AltitudeMeters>582.5999755859375</AltitudeMeters>
            <DistanceMeters>36681.301010641</DistanceMeters>
          </Trackpoint>
          <Trackpoint>
            <Time>2021-09-26T11:10:26.000Z</Time>
            <Position>
              <LatitudeDegrees>40.4068345762789249420166015625</LatitudeDegrees>
              <LongitudeDegrees>-3.7217593006789684295654296875</LongitudeDegrees>
            </Position>
            <AltitudeMeters>580.20001220703125</AltitudeMeters>
            <DistanceMeters>36700.48840798</DistanceMeters>
          </Trackpoint>
          <Trackpoint>
            <Time>2021-09-26T11:10:34.000Z</Time>
            <Position>
              <LatitudeDegrees>40.40699559263885021209716796875</LatitudeDegrees>
              <LongitudeDegrees>-3.72168327681720256805419921875</LongitudeDegrees>
            </Position>
            <AltitudeMeters>578.4000244140625</AltitudeMeters>
            <DistanceMeters>36719.532909033</DistanceMeters>
          </Trackpoint>
          <Trackpoint>
            <Time>2021-09-26T11:10:42.000Z</Time>
            <Position>
              <LatitudeDegrees>40.4071856103837490081787109375</LatitudeDegrees>
              <LongitudeDegrees>-3.72161571867763996124267578125</LongitudeDegrees>
            </Position>
            <AltitudeMeters>577</AltitudeMeters>
            <DistanceMeters>36741.443316469</DistanceMeters>
          </Trackpoint>
          <Trackpoint>
            <Time>2021-09-26T11:10:45.000Z</Time>
            <Position>
              <LatitudeDegrees>40.40724453516304492950439453125</LatitudeDegrees>
              <LongitudeDegrees>-3.72159518301486968994140625</LongitudeDegrees>
            </Position>
            <AltitudeMeters>576.5999755859375</AltitudeMeters>
            <DistanceMeters>36748.229581263</DistanceMeters>
          </Trackpoint>
          <Trackpoint>
            <Time>2021-09-26T11:10:54.000Z</Time>
            <Position>
              <LatitudeDegrees>40.4074216447770595550537109375</LatitudeDegrees>
              <LongitudeDegrees>-3.72151396237313747406005859375</LongitudeDegrees>
            </Position>
            <AltitudeMeters>576</AltitudeMeters>
            <DistanceMeters>36769.109525964</DistanceMeters>
          </Trackpoint>
          <Trackpoint>
            <Time>2021-09-26T11:10:55.000Z</Time>
            <Position>
              <LatitudeDegrees>40.4074427671730518341064453125</LatitudeDegrees>
              <LongitudeDegrees>-3.7215073406696319580078125</LongitudeDegrees>
            </Position>
            <AltitudeMeters>575.79998779296875</AltitudeMeters>
            <DistanceMeters>36771.524775306</DistanceMeters>
          </Trackpoint>
          <Trackpoint>
            <Time>2021-09-26T11:11:03.000Z</Time>
            <Position>
              <LatitudeDegrees>40.4076275043189525604248046875</LatitudeDegrees>
              <LongitudeDegrees>-3.721439950168132781982421875</LongitudeDegrees>
            </Position>
            <AltitudeMeters>576.5999755859375</AltitudeMeters>
            <DistanceMeters>36792.864779644</DistanceMeters>
          </Trackpoint>
          <Trackpoint>
            <Time>2021-09-26T11:11:05.000Z</Time>
            <Position>
              <LatitudeDegrees>40.4076724313199520111083984375</LatitudeDegrees>
              <LongitudeDegrees>-3.7214143015444278717041015625</LongitudeDegrees>
            </Position>
            <AltitudeMeters>577</AltitudeMeters>
            <DistanceMeters>36798.317027956</DistanceMeters>
          </Trackpoint>
          <Trackpoint>
            <Time>2021-09-26T11:11:12.000Z</Time>
            <Position>
              <LatitudeDegrees>40.40783026255667209625244140625</LatitudeDegrees>
              <LongitudeDegrees>-3.72135621495544910430908203125</LongitudeDegrees>
            </Position>
            <AltitudeMeters>578.20001220703125</AltitudeMeters>
            <DistanceMeters>36816.560672262</DistanceMeters>
          </Trackpoint>
          <Trackpoint>
            <Time>2021-09-26T11:11:18.000Z</Time>
            <Position>
              <LatitudeDegrees>40.407953560352325439453125</LatitudeDegrees>
              <LongitudeDegrees>-3.7213066779077053070068359375</LongitudeDegrees>
            </Position>
            <AltitudeMeters>579.79998779296875</AltitudeMeters>
            <DistanceMeters>36830.911593956</DistanceMeters>
          </Trackpoint>
          <Trackpoint>
            <Time>2021-09-26T11:11:19.000Z</Time>
            <Position>
              <LatitudeDegrees>40.407978706061840057373046875</LatitudeDegrees>
              <LongitudeDegrees>-3.72129821218550205230712890625</LongitudeDegrees>
            </Position>
            <AltitudeMeters>580.20001220703125</AltitudeMeters>
            <DistanceMeters>36833.800155991</DistanceMeters>
          </Trackpoint>
          <Trackpoint>
            <Time>2021-09-26T11:11:20.000Z</Time>
            <Position>
              <LatitudeDegrees>40.40800142101943492889404296875</LatitudeDegrees>
              <LongitudeDegrees>-3.72129343450069427490234375</LongitudeDegrees>
            </Position>
            <AltitudeMeters>580.5999755859375</AltitudeMeters>
            <DistanceMeters>36836.360592575</DistanceMeters>
          </Trackpoint>
          <Trackpoint>
            <Time>2021-09-26T11:11:25.000Z</Time>
            <Position>
              <LatitudeDegrees>40.4081086255609989166259765625</LatitudeDegrees>
              <LongitudeDegrees>-3.721256218850612640380859375</LongitudeDegrees>
            </Position>
            <AltitudeMeters>581.5999755859375</AltitudeMeters>
            <DistanceMeters>36848.702364306</DistanceMeters>
          </Trackpoint>
          <Trackpoint>
            <Time>2021-09-26T11:11:34.000Z</Time>
            <Position>
              <LatitudeDegrees>40.4083077795803546905517578125</LatitudeDegrees>
              <LongitudeDegrees>-3.72123576700687408447265625</LongitudeDegrees>
            </Position>
            <AltitudeMeters>583</AltitudeMeters>
            <DistanceMeters>36870.936178753</DistanceMeters>
          </Trackpoint>
          <Trackpoint>
            <Time>2021-09-26T11:11:43.000Z</Time>
            <Position>
              <LatitudeDegrees>40.408502407371997833251953125</LatitudeDegrees>
              <LongitudeDegrees>-3.72119494713842868804931640625</LongitudeDegrees>
            </Position>
            <AltitudeMeters>585.20001220703125</AltitudeMeters>
            <DistanceMeters>36892.87294706</DistanceMeters>
          </Trackpoint>
          <Trackpoint>
            <Time>2021-09-26T11:11:44.000Z</Time>
            <Position>
              <LatitudeDegrees>40.4085260443389415740966796875</LatitudeDegrees>
              <LongitudeDegrees>-3.7211908400058746337890625</LongitudeDegrees>
            </Position>
            <AltitudeMeters>585.4000244140625</AltitudeMeters>
            <DistanceMeters>36895.525196963</DistanceMeters>
          </Trackpoint>
          <Trackpoint>
            <Time>2021-09-26T11:11:52.000Z</Time>
            <Position>
              <LatitudeDegrees>40.40870902128517627716064453125</LatitudeDegrees>
              <LongitudeDegrees>-3.72118891216814517974853515625</LongitudeDegrees>
            </Position>
            <AltitudeMeters>586</AltitudeMeters>
            <DistanceMeters>36915.891530246</DistanceMeters>
          </Trackpoint>
          <Trackpoint>
            <Time>2021-09-26T11:11:58.000Z</Time>
            <Position>
              <LatitudeDegrees>40.40883391164243221282958984375</LatitudeDegrees>
              <LongitudeDegrees>-3.7211854755878448486328125</LongitudeDegrees>
            </Position>
            <AltitudeMeters>586</AltitudeMeters>
            <DistanceMeters>36929.795013494</DistanceMeters>
          </Trackpoint>
          <Trackpoint>
            <Time>2021-09-26T11:12:05.000Z</Time>
            <Position>
              <LatitudeDegrees>40.40896902792155742645263671875</LatitudeDegrees>
              <LongitudeDegrees>-3.72118522413074970245361328125</LongitudeDegrees>
            </Position>
            <AltitudeMeters>584.5999755859375</AltitudeMeters>
            <DistanceMeters>36944.833872979</DistanceMeters>
          </Trackpoint>
          <Trackpoint>
            <Time>2021-09-26T11:12:07.000Z</Time>
            <Position>
              <LatitudeDegrees>40.409004651010036468505859375</LatitudeDegrees>
              <LongitudeDegrees>-3.721166364848613739013671875</LongitudeDegrees>
            </Position>
            <AltitudeMeters>584</AltitudeMeters>
            <DistanceMeters>36949.109019143</DistanceMeters>
          </Trackpoint>
          <Trackpoint>
            <Time>2021-09-26T11:12:08.000Z</Time>
            <Position>
              <LatitudeDegrees>40.40902887471020221710205078125</LatitudeDegrees>
              <LongitudeDegrees>-3.72116795741021633148193359375</LongitudeDegrees>
            </Position>
            <AltitudeMeters>583.5999755859375</AltitudeMeters>
            <DistanceMeters>36951.810185885</DistanceMeters>
          </Trackpoint>
          <Trackpoint>
            <Time>2021-09-26T11:12:10.000Z</Time>
            <Position>
              <LatitudeDegrees>40.4090608097612857818603515625</LatitudeDegrees>
              <LongitudeDegrees>-3.72118690051138401031494140625</LongitudeDegrees>
            </Position>
            <AltitudeMeters>583.20001220703125</AltitudeMeters>
            <DistanceMeters>36955.70859821</DistanceMeters>
          </Trackpoint>
          <Trackpoint>
            <Time>2021-09-26T11:12:16.000Z</Time>
            <Position>
              <LatitudeDegrees>40.409207157790660858154296875</LatitudeDegrees>
              <LongitudeDegrees>-3.72119779698550701141357421875</LongitudeDegrees>
            </Position>
            <AltitudeMeters>582</AltitudeMeters>
            <DistanceMeters>36972.023885318</DistanceMeters>
          </Trackpoint>
          <Trackpoint>
            <Time>2021-09-26T11:12:21.000Z</Time>
            <Position>
              <LatitudeDegrees>40.409334562718868255615234375</LatitudeDegrees>
              <LongitudeDegrees>-3.72122772037982940673828125</LongitudeDegrees>
            </Position>
            <AltitudeMeters>581.79998779296875</AltitudeMeters>
            <DistanceMeters>36986.429132858</DistanceMeters>
          </Trackpoint>
          <Trackpoint>
            <Time>2021-09-26T11:12:26.000Z</Time>
            <Position>
              <LatitudeDegrees>40.40944947861135005950927734375</LatitudeDegrees>
              <LongitudeDegrees>-3.72123048640787601470947265625</LongitudeDegrees>
            </Position>
            <AltitudeMeters>581.4000244140625</AltitudeMeters>
            <DistanceMeters>36999.221437002</DistanceMeters>
          </Trackpoint>
          <Trackpoint>
            <Time>2021-09-26T11:12:27.000Z</Time>
            <Position>
              <LatitudeDegrees>40.40947026573121547698974609375</LatitudeDegrees>
              <LongitudeDegrees>-3.72123710811138153076171875</LongitudeDegrees>
            </Position>
            <AltitudeMeters>581.4000244140625</AltitudeMeters>
            <DistanceMeters>37001.602799638</DistanceMeters>
          </Trackpoint>
          <Trackpoint>
            <Time>2021-09-26T11:12:34.000Z</Time>
            <Position>
              <LatitudeDegrees>40.4096317850053310394287109375</LatitudeDegrees>
              <LongitudeDegrees>-3.72124473564326763153076171875</LongitudeDegrees>
            </Position>
            <AltitudeMeters>582</AltitudeMeters>
            <DistanceMeters>37019.591735667</DistanceMeters>
          </Trackpoint>
          <Trackpoint>
            <Time>2021-09-26T11:12:42.000Z</Time>
            <Position>
              <LatitudeDegrees>40.4098171927034854888916015625</LatitudeDegrees>
              <LongitudeDegrees>-3.721245825290679931640625</LongitudeDegrees>
            </Position>
            <AltitudeMeters>583</AltitudeMeters>
            <DistanceMeters>37040.228072675</DistanceMeters>
          </Trackpoint>
          <Trackpoint>
            <Time>2021-09-26T11:12:47.000Z</Time>
            <Position>
              <LatitudeDegrees>40.4099224694073200225830078125</LatitudeDegrees>
              <LongitudeDegrees>-3.72127532958984375</LongitudeDegrees>
            </Position>
            <AltitudeMeters>583.5999755859375</AltitudeMeters>
            <DistanceMeters>37052.208978115</DistanceMeters>
          </Trackpoint>
          <Trackpoint>
            <Time>2021-09-26T11:12:49.000Z</Time>
            <Position>
              <LatitudeDegrees>40.40995876304805278778076171875</LatitudeDegrees>
              <LongitudeDegrees>-3.7212905846536159515380859375</LongitudeDegrees>
            </Position>
            <AltitudeMeters>583.4000244140625</AltitudeMeters>
            <DistanceMeters>37056.449129315</DistanceMeters>
          </Trackpoint>
          <Trackpoint>
            <Time>2021-09-26T11:12:58.000Z</Time>
            <Position>
              <LatitudeDegrees>40.41014417074620723724365234375</LatitudeDegrees>
              <LongitudeDegrees>-3.7212845496833324432373046875</LongitudeDegrees>
            </Position>
            <AltitudeMeters>584</AltitudeMeters>
            <DistanceMeters>37077.091591552</DistanceMeters>
          </Trackpoint>
          <Trackpoint>
            <Time>2021-09-26T11:12:59.000Z</Time>
            <Position>
              <LatitudeDegrees>40.410168059170246124267578125</LatitudeDegrees>
              <LongitudeDegrees>-3.72128077782690525054931640625</LongitudeDegrees>
            </Position>
            <AltitudeMeters>584.20001220703125</AltitudeMeters>
            <DistanceMeters>37079.769254843</DistanceMeters>
          </Trackpoint>
          <Trackpoint>
            <Time>2021-09-26T11:13:07.000Z</Time>
            <Position>
              <LatitudeDegrees>40.4103382118046283721923828125</LatitudeDegrees>
              <LongitudeDegrees>-3.72128915973007678985595703125</LongitudeDegrees>
            </Position>
            <AltitudeMeters>584.5999755859375</AltitudeMeters>
            <DistanceMeters>37098.720831571</DistanceMeters>
          </Trackpoint>
          <Trackpoint>
            <Time>2021-09-26T11:13:13.000Z</Time>
            <Position>
              <LatitudeDegrees>40.41046880185604095458984375</LatitudeDegrees>
              <LongitudeDegrees>-3.7212875671684741973876953125</LongitudeDegrees>
            </Position>
            <AltitudeMeters>585.20001220703125</AltitudeMeters>
            <DistanceMeters>37113.256502475</DistanceMeters>
          </Trackpoint>
          <Trackpoint>
            <Time>2021-09-26T11:13:19.000Z</Time>
            <Position>
              <LatitudeDegrees>40.410599894821643829345703125</LatitudeDegrees>
              <LongitudeDegrees>-3.72128865681588649749755859375</LongitudeDegrees>
            </Position>
            <AltitudeMeters>585.4000244140625</AltitudeMeters>
            <DistanceMeters>37127.847668032</DistanceMeters>
          </Trackpoint>
          <Trackpoint>
            <Time>2021-09-26T11:13:20.000Z</Time>
            <Position>
              <LatitudeDegrees>40.41062478907406330108642578125</LatitudeDegrees>
              <LongitudeDegrees>-3.721288405358791351318359375</LongitudeDegrees>
            </Position>
            <AltitudeMeters>585.4000244140625</AltitudeMeters>
            <DistanceMeters>37130.618149033</DistanceMeters>
          </Trackpoint>
          <Trackpoint>
            <Time>2021-09-26T11:13:28.000Z</Time>
            <Position>
              <LatitudeDegrees>40.4108018986880779266357421875</LatitudeDegrees>
              <LongitudeDegrees>-3.72132151387631893157958984375</LongitudeDegrees>
            </Position>
            <AltitudeMeters>585.79998779296875</AltitudeMeters>
            <DistanceMeters>37150.529363868</DistanceMeters>
          </Trackpoint>
          <Trackpoint>
            <Time>2021-09-26T11:13:35.000Z</Time>
            <Position>
              <LatitudeDegrees>40.410945229232311248779296875</LatitudeDegrees>
              <LongitudeDegrees>-3.72133023105561733245849609375</LongitudeDegrees>
            </Position>
            <AltitudeMeters>586.4000244140625</AltitudeMeters>
            <DistanceMeters>37166.498941788</DistanceMeters>
          </Trackpoint>
          <Trackpoint>
            <Time>2021-09-26T11:13:44.000Z</Time>
            <Position>
              <LatitudeDegrees>40.4111277870833873748779296875</LatitudeDegrees>
              <LongitudeDegrees>-3.721347749233245849609375</LongitudeDegrees>
            </Position>
            <AltitudeMeters>587.4000244140625</AltitudeMeters>
            <DistanceMeters>37186.871924723</DistanceMeters>
          </Trackpoint>
          <Trackpoint>
            <Time>2021-09-26T11:13:46.000Z</Time>
            <Position>
              <LatitudeDegrees>40.411167182028293609619140625</LatitudeDegrees>
              <LongitudeDegrees>-3.7213546223938465118408203125</LongitudeDegrees>
            </Position>
            <AltitudeMeters>587.79998779296875</AltitudeMeters>
            <DistanceMeters>37191.296538348</DistanceMeters>
          </Trackpoint>
          <Trackpoint>
            <Time>2021-09-26T11:13:53.000Z</Time>
            <Position>
              <LatitudeDegrees>40.41130430996417999267578125</LatitudeDegrees>
              <LongitudeDegrees>-3.72135110199451446533203125</LongitudeDegrees>
            </Position>
            <AltitudeMeters>589.4000244140625</AltitudeMeters>
            <DistanceMeters>37206.561863523</DistanceMeters>
          </Trackpoint>
          <Trackpoint>
            <Time>2021-09-26T11:14:01.000Z</Time>
            <Position>
              <LatitudeDegrees>40.4114895500242710113525390625</LatitudeDegrees>
              <LongitudeDegrees>-3.7213410437107086181640625</LongitudeDegrees>
            </Position>
            <AltitudeMeters>590.5999755859375</AltitudeMeters>
            <DistanceMeters>37227.19732535</DistanceMeters>
          </Trackpoint>
          <Trackpoint>
            <Time>2021-09-26T11:14:08.000Z</Time>
            <Position>
              <LatitudeDegrees>40.4116320423781871795654296875</LatitudeDegrees>
              <LongitudeDegrees>-3.7213043309748172760009765625</LongitudeDegrees>
            </Position>
            <AltitudeMeters>591.5999755859375</AltitudeMeters>
            <DistanceMeters>37243.35941127</DistanceMeters>
          </Trackpoint>
          <Trackpoint>
            <Time>2021-09-26T11:14:17.000Z</Time>
            <Position>
              <LatitudeDegrees>40.4118234850466251373291015625</LatitudeDegrees>
              <LongitudeDegrees>-3.7212842144072055816650390625</LongitudeDegrees>
            </Position>
            <AltitudeMeters>590.5999755859375</AltitudeMeters>
            <DistanceMeters>37264.735564531</DistanceMeters>
          </Trackpoint>
          <Trackpoint>
            <Time>2021-09-26T11:14:26.000Z</Time>
            <Position>
              <LatitudeDegrees>40.41201501153409481048583984375</LatitudeDegrees>
              <LongitudeDegrees>-3.7212637625634670257568359375</LongitudeDegrees>
            </Position>
            <AltitudeMeters>590.4000244140625</AltitudeMeters>
            <DistanceMeters>37286.123120547</DistanceMeters>
          </Trackpoint>
          <Trackpoint>
            <Time>2021-09-26T11:14:35.000Z</Time>
            <Position>
              <LatitudeDegrees>40.41219857521355152130126953125</LatitudeDegrees>
              <LongitudeDegrees>-3.72125663794577121734619140625</LongitudeDegrees>
            </Position>
            <AltitudeMeters>590.4000244140625</AltitudeMeters>
            <DistanceMeters>37306.563364599</DistanceMeters>
          </Trackpoint>
          <Trackpoint>
            <Time>2021-09-26T11:14:36.000Z</Time>
            <Position>
              <LatitudeDegrees>40.412221960723400115966796875</LatitudeDegrees>
              <LongitudeDegrees>-3.72124926187098026275634765625</LongitudeDegrees>
            </Position>
            <AltitudeMeters>590.4000244140625</AltitudeMeters>
            <DistanceMeters>37309.241027889</DistanceMeters>
          </Trackpoint>
          <Trackpoint>
            <Time>2021-09-26T11:14:46.000Z</Time>
            <Position>
              <LatitudeDegrees>40.41242153383791446685791015625</LatitudeDegrees>
              <LongitudeDegrees>-3.7212319113314151763916015625</LongitudeDegrees>
            </Position>
            <AltitudeMeters>590.5999755859375</AltitudeMeters>
            <DistanceMeters>37331.502442832</DistanceMeters>
          </Trackpoint>
          <Trackpoint>
            <Time>2021-09-26T11:14:52.000Z</Time>
            <Position>
              <LatitudeDegrees>40.412537790834903717041015625</LatitudeDegrees>
              <LongitudeDegrees>-3.7212376110255718231201171875</LongitudeDegrees>
            </Position>
            <AltitudeMeters>589.79998779296875</AltitudeMeters>
            <DistanceMeters>37344.451205684</DistanceMeters>
          </Trackpoint>
          <Trackpoint>
            <Time>2021-09-26T11:14:53.000Z</Time>
            <Position>
              <LatitudeDegrees>40.41255111806094646453857421875</LatitudeDegrees>
              <LongitudeDegrees>-3.72124574147164821624755859375</LongitudeDegrees>
            </Position>
            <AltitudeMeters>589.5999755859375</AltitudeMeters>
            <DistanceMeters>37346.088866426</DistanceMeters>
          </Trackpoint>
          <Trackpoint>
            <Time>2021-09-26T11:14:58.000Z</Time>
            <Position>
              <LatitudeDegrees>40.41261130012571811676025390625</LatitudeDegrees>
              <LongitudeDegrees>-3.72122109867632389068603515625</LongitudeDegrees>
            </Position>
            <AltitudeMeters>589.79998779296875</AltitudeMeters>
            <DistanceMeters>37353.10541663</DistanceMeters>
          </Trackpoint>
          <Trackpoint>
            <Time>2021-09-26T11:14:59.000Z</Time>
            <Position>
              <LatitudeDegrees>40.41262337006628513336181640625</LatitudeDegrees>
              <LongitudeDegrees>-3.7212178297340869903564453125</LongitudeDegrees>
            </Position>
            <AltitudeMeters>589.79998779296875</AltitudeMeters>
            <DistanceMeters>37354.482484549</DistanceMeters>
          </Trackpoint>
          <Trackpoint>
            <Time>2021-09-26T11:15:03.000Z</Time>
            <Position>
              <LatitudeDegrees>40.4126702249050140380859375</LatitudeDegrees>
              <LongitudeDegrees>-3.72120492160320281982421875</LongitudeDegrees>
            </Position>
            <AltitudeMeters>589.79998779296875</AltitudeMeters>
            <DistanceMeters>37359.811611158</DistanceMeters>
          </Trackpoint>
          <Trackpoint>
            <Time>2021-09-26T11:15:08.000Z</Time>
            <Position>
              <LatitudeDegrees>40.41273920796811580657958984375</LatitudeDegrees>
              <LongitudeDegrees>-3.72119159437716007232666015625</LongitudeDegrees>
            </Position>
            <AltitudeMeters>589.79998779296875</AltitudeMeters>
            <DistanceMeters>37367.572449379</DistanceMeters>
          </Trackpoint>
          <Trackpoint>
            <Time>2021-09-26T11:15:10.000Z</Time>
            <Position>
              <LatitudeDegrees>40.41277357377111911773681640625</LatitudeDegrees>
              <LongitudeDegrees>-3.72117751277983188629150390625</LongitudeDegrees>
            </Position>
            <AltitudeMeters>590</AltitudeMeters>
            <DistanceMeters>37371.580504517</DistanceMeters>
          </Trackpoint>
          <Trackpoint>
            <Time>2021-09-26T11:15:17.000Z</Time>
            <Position>
              <LatitudeDegrees>40.41287063620984554290771484375</LatitudeDegrees>
              <LongitudeDegrees>-3.72114348225295543670654296875</LongitudeDegrees>
            </Position>
            <AltitudeMeters>591.5999755859375</AltitudeMeters>
            <DistanceMeters>37382.761801775</DistanceMeters>
          </Trackpoint>
          <Trackpoint>
            <Time>2021-09-26T11:15:26.000Z</Time>
            <Position>
              <LatitudeDegrees>40.41298429481685161590576171875</LatitudeDegrees>
              <LongitudeDegrees>-3.721132166683673858642578125</LongitudeDegrees>
            </Position>
            <AltitudeMeters>592.5999755859375</AltitudeMeters>
            <DistanceMeters>37395.448490962</DistanceMeters>
          </Trackpoint>
          <Trackpoint>
            <Time>2021-09-26T11:15:34.000Z</Time>
            <Position>
              <LatitudeDegrees>40.41308169253170490264892578125</LatitudeDegrees>
              <LongitudeDegrees>-3.721128813922405242919921875</LongitudeDegrees>
            </Position>
            <AltitudeMeters>593.20001220703125</AltitudeMeters>
            <DistanceMeters>37406.293200069</DistanceMeters>
          </Trackpoint>
          <Trackpoint>
            <Time>2021-09-26T11:15:44.000Z</Time>
            <Position>
              <LatitudeDegrees>40.4132319800555706024169921875</LatitudeDegrees>
              <LongitudeDegrees>-3.72110475786030292510986328125</LongitudeDegrees>
            </Position>
            <AltitudeMeters>596</AltitudeMeters>
            <DistanceMeters>37423.144306378</DistanceMeters>
          </Trackpoint>
          <Trackpoint>
            <Time>2021-09-26T11:15:54.000Z</Time>
            <Position>
              <LatitudeDegrees>40.41338830254971981048583984375</LatitudeDegrees>
              <LongitudeDegrees>-3.7210726551711559295654296875</LongitudeDegrees>
            </Position>
            <AltitudeMeters>597.4000244140625</AltitudeMeters>
            <DistanceMeters>37440.755041044</DistanceMeters>
          </Trackpoint>
          <Trackpoint>
            <Time>2021-09-26T11:16:00.000Z</Time>
            <Position>
              <LatitudeDegrees>40.41347698308527469635009765625</LatitudeDegrees>
              <LongitudeDegrees>-3.72102814726531505584716796875</LongitudeDegrees>
            </Position>
            <AltitudeMeters>597.4000244140625</AltitudeMeters>
            <DistanceMeters>37451.321823678</DistanceMeters>
          </Trackpoint>
          <Trackpoint>
            <Time>2021-09-26T11:16:09.000Z</Time>
            <Position>
              <LatitudeDegrees>40.413591563701629638671875</LatitudeDegrees>
              <LongitudeDegrees>-3.72100484557449817657470703125</LongitudeDegrees>
            </Position>
            <AltitudeMeters>596.79998779296875</AltitudeMeters>
            <DistanceMeters>37464.226927314</DistanceMeters>
          </Trackpoint>
          <Trackpoint>
            <Time>2021-09-26T11:16:22.000Z</Time>
            <Position>
              <LatitudeDegrees>40.41377789340913295745849609375</LatitudeDegrees>
              <LongitudeDegrees>-3.720947094261646270751953125</LongitudeDegrees>
            </Position>
            <AltitudeMeters>594</AltitudeMeters>
            <DistanceMeters>37485.535171579</DistanceMeters>
          </Trackpoint>
          <Trackpoint>
            <Time>2021-09-26T11:16:31.000Z</Time>
            <Position>
              <LatitudeDegrees>40.41388568468391895294189453125</LatitudeDegrees>
              <LongitudeDegrees>-3.7208222039043903350830078125</LongitudeDegrees>
            </Position>
            <AltitudeMeters>593.5999755859375</AltitudeMeters>
            <DistanceMeters>37501.533561709</DistanceMeters>
          </Trackpoint>
          <Trackpoint>
            <Time>2021-09-26T11:16:32.000Z</Time>
            <Position>
              <LatitudeDegrees>40.41389004327356815338134765625</LatitudeDegrees>
              <LongitudeDegrees>-3.72080384753644466400146484375</LongitudeDegrees>
            </Position>
            <AltitudeMeters>593.79998779296875</AltitudeMeters>
            <DistanceMeters>37503.162930444</DistanceMeters>
          </Trackpoint>
          <Trackpoint>
            <Time>2021-09-26T11:16:36.000Z</Time>
            <Position>
              <LatitudeDegrees>40.4138985089957714080810546875</LatitudeDegrees>
              <LongitudeDegrees>-3.7207241356372833251953125</LongitudeDegrees>
            </Position>
            <AltitudeMeters>594.4000244140625</AltitudeMeters>
            <DistanceMeters>37509.983704142</DistanceMeters>
          </Trackpoint>
          <Trackpoint>
            <Time>2021-09-26T11:16:43.000Z</Time>
            <Position>
              <LatitudeDegrees>40.413911081850528717041015625</LatitudeDegrees>
              <LongitudeDegrees>-3.7205700762569904327392578125</LongitudeDegrees>
            </Position>
            <AltitudeMeters>595.4000244140625</AltitudeMeters>
            <DistanceMeters>37523.113906709</DistanceMeters>
          </Trackpoint>
          <Trackpoint>
            <Time>2021-09-26T11:16:51.000Z</Time>
            <Position>
              <LatitudeDegrees>40.41392482817173004150390625</LatitudeDegrees>
              <LongitudeDegrees>-3.72034753672778606414794921875</LongitudeDegrees>
            </Position>
            <AltitudeMeters>597</AltitudeMeters>
            <DistanceMeters>37542.034725418</DistanceMeters>
          </Trackpoint>
          <Trackpoint>
            <Time>2021-09-26T11:16:55.000Z</Time>
            <Position>
              <LatitudeDegrees>40.413922481238842010498046875</LatitudeDegrees>
              <LongitudeDegrees>-3.72023320756852626800537109375</LongitudeDegrees>
            </Position>
            <AltitudeMeters>597.20001220703125</AltitudeMeters>
            <DistanceMeters>37551.726984456</DistanceMeters>
          </Trackpoint>
          <Trackpoint>
            <Time>2021-09-26T11:16:57.000Z</Time>
            <Position>
              <LatitudeDegrees>40.41392507962882518768310546875</LatitudeDegrees>
              <LongitudeDegrees>-3.72017721645534038543701171875</LongitudeDegrees>
            </Position>
            <AltitudeMeters>597.20001220703125</AltitudeMeters>
            <DistanceMeters>37556.480220329</DistanceMeters>
          </Trackpoint>
          <Trackpoint>
            <Time>2021-09-26T11:17:00.000Z</Time>
            <Position>
              <LatitudeDegrees>40.41393019258975982666015625</LatitudeDegrees>
              <LongitudeDegrees>-3.7200916372239589691162109375</LongitudeDegrees>
            </Position>
            <AltitudeMeters>597.20001220703125</AltitudeMeters>
            <DistanceMeters>37563.75457583</DistanceMeters>
          </Trackpoint>
          <Trackpoint>
            <Time>2021-09-26T11:17:04.000Z</Time>
            <Position>
              <LatitudeDegrees>40.4139260016381740570068359375</LatitudeDegrees>
              <LongitudeDegrees>-3.71997236274182796478271484375</LongitudeDegrees>
            </Position>
            <AltitudeMeters>596.79998779296875</AltitudeMeters>
            <DistanceMeters>37573.87302466</DistanceMeters>
          </Trackpoint>
          <Trackpoint>
            <Time>2021-09-26T11:17:11.000Z</Time>
            <Position>
              <LatitudeDegrees>40.4139270074665546417236328125</LatitudeDegrees>
              <LongitudeDegrees>-3.71978159062564373016357421875</LongitudeDegrees>
            </Position>
            <AltitudeMeters>595.4000244140625</AltitudeMeters>
            <DistanceMeters>37590.040138276</DistanceMeters>
          </Trackpoint>
          <Trackpoint>
            <Time>2021-09-26T11:17:18.000Z</Time>
            <Position>
              <LatitudeDegrees>40.41393228806555271148681640625</LatitudeDegrees>
              <LongitudeDegrees>-3.71959559619426727294921875</LongitudeDegrees>
            </Position>
            <AltitudeMeters>593.20001220703125</AltitudeMeters>
            <DistanceMeters>37605.812855417</DistanceMeters>
          </Trackpoint>
          <Trackpoint>
            <Time>2021-09-26T11:17:21.000Z</Time>
            <Position>
              <LatitudeDegrees>40.4139404185116291046142578125</LatitudeDegrees>
              <LongitudeDegrees>-3.71951001696288585662841796875</LongitudeDegrees>
            </Position>
            <AltitudeMeters>592.4000244140625</AltitudeMeters>
            <DistanceMeters>37613.120650713</DistanceMeters>
          </Trackpoint>
          <Trackpoint>
            <Time>2021-09-26T11:17:23.000Z</Time>
            <Position>
              <LatitudeDegrees>40.413937903940677642822265625</LatitudeDegrees>
              <LongitudeDegrees>-3.71945335529744625091552734375</LongitudeDegrees>
            </Position>
            <AltitudeMeters>592</AltitudeMeters>
            <DistanceMeters>37617.928664409</DistanceMeters>
          </Trackpoint>
          <Trackpoint>
            <Time>2021-09-26T11:17:31.000Z</Time>
            <Position>
              <LatitudeDegrees>40.413937233388423919677734375</LatitudeDegrees>
              <LongitudeDegrees>-3.7192433886229991912841796875</LongitudeDegrees>
            </Position>
            <AltitudeMeters>592.5999755859375</AltitudeMeters>
            <DistanceMeters>37635.721766447</DistanceMeters>
          </Trackpoint>
          <Trackpoint>
            <Time>2021-09-26T11:17:39.000Z</Time>
            <Position>
              <LatitudeDegrees>40.413939915597438812255859375</LatitudeDegrees>
              <LongitudeDegrees>-3.719036020338535308837890625</LongitudeDegrees>
            </Position>
            <AltitudeMeters>594.5999755859375</AltitudeMeters>
            <DistanceMeters>37653.297341971</DistanceMeters>
          </Trackpoint>
          <Trackpoint>
            <Time>2021-09-26T11:17:47.000Z</Time>
            <Position>
              <LatitudeDegrees>40.41392977349460124969482421875</LatitudeDegrees>
              <LongitudeDegrees>-3.71882580220699310302734375</LongitudeDegrees>
            </Position>
            <AltitudeMeters>596.79998779296875</AltitudeMeters>
            <DistanceMeters>37671.147446937</DistanceMeters>
          </Trackpoint>
          <Trackpoint>
            <Time>2021-09-26T11:17:52.000Z</Time>
            <Position>
              <LatitudeDegrees>40.41392558254301548004150390625</LatitudeDegrees>
              <LongitudeDegrees>-3.718735612928867340087890625</LongitudeDegrees>
            </Position>
            <AltitudeMeters>597.79998779296875</AltitudeMeters>
            <DistanceMeters>37678.804619154</DistanceMeters>
          </Trackpoint>
          <Trackpoint>
            <Time>2021-09-26T11:17:59.000Z</Time>
            <Position>
              <LatitudeDegrees>40.41392172686755657196044921875</LatitudeDegrees>
              <LongitudeDegrees>-3.71861985884606838226318359375</LongitudeDegrees>
            </Position>
            <AltitudeMeters>599</AltitudeMeters>
            <DistanceMeters>37688.623228837</DistanceMeters>
          </Trackpoint>
          <Trackpoint>
            <Time>2021-09-26T11:18:08.000Z</Time>
            <Position>
              <LatitudeDegrees>40.41390730999410152435302734375</LatitudeDegrees>
              <LongitudeDegrees>-3.71842481195926666259765625</LongitudeDegrees>
            </Position>
            <AltitudeMeters>598.79998779296875</AltitudeMeters>
            <DistanceMeters>37705.2298099</DistanceMeters>
          </Trackpoint>
          <Trackpoint>
            <Time>2021-09-26T11:18:17.000Z</Time>
            <Position>
              <LatitudeDegrees>40.4139276780188083648681640625</LatitudeDegrees>
              <LongitudeDegrees>-3.7182321958243846893310546875</LongitudeDegrees>
            </Position>
            <AltitudeMeters>598.5999755859375</AltitudeMeters>
            <DistanceMeters>37721.709480681</DistanceMeters>
          </Trackpoint>
          <Trackpoint>
            <Time>2021-09-26T11:18:24.000Z</Time>
            <Position>
              <LatitudeDegrees>40.4139477945864200592041015625</LatitudeDegrees>
              <LongitudeDegrees>-3.71809364296495914459228515625</LongitudeDegrees>
            </Position>
            <AltitudeMeters>598.4000244140625</AltitudeMeters>
            <DistanceMeters>37733.66246648</DistanceMeters>
          </Trackpoint>
          <Trackpoint>
            <Time>2021-09-26T11:18:27.000Z</Time>
            <Position>
              <LatitudeDegrees>40.41394452564418315887451171875</LatitudeDegrees>
              <LongitudeDegrees>-3.71803111396729946136474609375</LongitudeDegrees>
            </Position>
            <AltitudeMeters>598.20001220703125</AltitudeMeters>
            <DistanceMeters>37738.973771292</DistanceMeters>
          </Trackpoint>
          <Trackpoint>
            <Time>2021-09-26T11:18:30.000Z</Time>
            <Position>
              <LatitudeDegrees>40.41394335217773914337158203125</LatitudeDegrees>
              <LongitudeDegrees>-3.71797193773090839385986328125</LongitudeDegrees>
            </Position>
            <AltitudeMeters>597.79998779296875</AltitudeMeters>
            <DistanceMeters>37743.990425859</DistanceMeters>
          </Trackpoint>
          <Trackpoint>
            <Time>2021-09-26T11:18:39.000Z</Time>
            <Position>
              <LatitudeDegrees>40.41391066275537014007568359375</LatitudeDegrees>
              <LongitudeDegrees>-3.7178033776581287384033203125</LongitudeDegrees>
            </Position>
            <AltitudeMeters>596.79998779296875</AltitudeMeters>
            <DistanceMeters>37758.730904122</DistanceMeters>
          </Trackpoint>
          <Trackpoint>
            <Time>2021-09-26T11:18:48.000Z</Time>
            <Position>
              <LatitudeDegrees>40.413923822343349456787109375</LatitudeDegrees>
              <LongitudeDegrees>-3.7176075764000415802001953125</LongitudeDegrees>
            </Position>
            <AltitudeMeters>597.5999755859375</AltitudeMeters>
            <DistanceMeters>37775.387978559</DistanceMeters>
          </Trackpoint>
          <Trackpoint>
            <Time>2021-09-26T11:18:56.000Z</Time>
            <Position>
              <LatitudeDegrees>40.4139362275600433349609375</LatitudeDegrees>
              <LongitudeDegrees>-3.717408590018749237060546875</LongitudeDegrees>
            </Position>
            <AltitudeMeters>599.20001220703125</AltitudeMeters>
            <DistanceMeters>37792.306737178</DistanceMeters>
          </Trackpoint>
          <Trackpoint>
            <Time>2021-09-26T11:19:04.000Z</Time>
            <Position>
              <LatitudeDegrees>40.4139139316976070404052734375</LatitudeDegrees>
              <LongitudeDegrees>-3.717201054096221923828125</LongitudeDegrees>
            </Position>
            <AltitudeMeters>600.5999755859375</AltitudeMeters>
            <DistanceMeters>37810.068091872</DistanceMeters>
          </Trackpoint>
          <Trackpoint>
            <Time>2021-09-26T11:19:09.000Z</Time>
            <Position>
              <LatitudeDegrees>40.41390714235603809356689453125</LatitudeDegrees>
              <LongitudeDegrees>-3.717062585055828094482421875</LongitudeDegrees>
            </Position>
            <AltitudeMeters>602</AltitudeMeters>
            <DistanceMeters>37821.826855859</DistanceMeters>
          </Trackpoint>
          <Trackpoint>
            <Time>2021-09-26T11:19:10.000Z</Time>
            <Position>
              <LatitudeDegrees>40.41389071382582187652587890625</LatitudeDegrees>
              <LongitudeDegrees>-3.71704674325883388519287109375</LongitudeDegrees>
            </Position>
            <AltitudeMeters>602</AltitudeMeters>
            <DistanceMeters>37824.095587569</DistanceMeters>
          </Trackpoint>
          <Trackpoint>
            <Time>2021-09-26T11:19:12.000Z</Time>
            <Position>
              <LatitudeDegrees>40.41384159587323665618896484375</LatitudeDegrees>
              <LongitudeDegrees>-3.71703484095633029937744140625</LongitudeDegrees>
            </Position>
            <AltitudeMeters>601.79998779296875</AltitudeMeters>
            <DistanceMeters>37829.654447308</DistanceMeters>
          </Trackpoint>
          <Trackpoint>
            <Time>2021-09-26T11:19:17.000Z</Time>
            <Position>
              <LatitudeDegrees>40.41371234692633152008056640625</LatitudeDegrees>
              <LongitudeDegrees>-3.71704858727753162384033203125</LongitudeDegrees>
            </Position>
            <AltitudeMeters>601.5999755859375</AltitudeMeters>
            <DistanceMeters>37844.087250341</DistanceMeters>
          </Trackpoint>
          <Trackpoint>
            <Time>2021-09-26T11:19:19.000Z</Time>
            <Position>
              <LatitudeDegrees>40.41366071440279483795166015625</LatitudeDegrees>
              <LongitudeDegrees>-3.71706082485616207122802734375</LongitudeDegrees>
            </Position>
            <AltitudeMeters>601.5999755859375</AltitudeMeters>
            <DistanceMeters>37849.926562686</DistanceMeters>
          </Trackpoint>
          <Trackpoint>
            <Time>2021-09-26T11:19:25.000Z</Time>
            <Position>
              <LatitudeDegrees>40.41352207772433757781982421875</LatitudeDegrees>
              <LongitudeDegrees>-3.71710591949522495269775390625</LongitudeDegrees>
            </Position>
            <AltitudeMeters>602.20001220703125</AltitudeMeters>
            <DistanceMeters>37865.823313589</DistanceMeters>
          </Trackpoint>
          <Trackpoint>
            <Time>2021-09-26T11:19:31.000Z</Time>
            <Position>
              <LatitudeDegrees>40.4133845306932926177978515625</LatitudeDegrees>
              <LongitudeDegrees>-3.71715034358203411102294921875</LongitudeDegrees>
            </Position>
            <AltitudeMeters>603.5999755859375</AltitudeMeters>
            <DistanceMeters>37881.588299918</DistanceMeters>
          </Trackpoint>
          <Trackpoint>
            <Time>2021-09-26T11:19:38.000Z</Time>
            <Position>
              <LatitudeDegrees>40.4132202453911304473876953125</LatitudeDegrees>
              <LongitudeDegrees>-3.71722091920673847198486328125</LongitudeDegrees>
            </Position>
            <AltitudeMeters>604.20001220703125</AltitudeMeters>
            <DistanceMeters>37900.826927034</DistanceMeters>
          </Trackpoint>
          <Trackpoint>
            <Time>2021-09-26T11:19:45.000Z</Time>
            <Position>
              <LatitudeDegrees>40.41306509636342525482177734375</LatitudeDegrees>
              <LongitudeDegrees>-3.717293925583362579345703125</LongitudeDegrees>
            </Position>
            <AltitudeMeters>604</AltitudeMeters>
            <DistanceMeters>37919.17028301</DistanceMeters>
          </Trackpoint>
          <Trackpoint>
            <Time>2021-09-26T11:19:53.000Z</Time>
            <Position>
              <LatitudeDegrees>40.4128906689584255218505859375</LatitudeDegrees>
              <LongitudeDegrees>-3.7173591367900371551513671875</LongitudeDegrees>
            </Position>
            <AltitudeMeters>603.5999755859375</AltitudeMeters>
            <DistanceMeters>37939.355800325</DistanceMeters>
          </Trackpoint>
          <Trackpoint>
            <Time>2021-09-26T11:20:01.000Z</Time>
            <Position>
              <LatitudeDegrees>40.412716157734394073486328125</LatitudeDegrees>
              <LongitudeDegrees>-3.71744538657367229461669921875</LongitudeDegrees>
            </Position>
            <AltitudeMeters>603.5999755859375</AltitudeMeters>
            <DistanceMeters>37960.109077803</DistanceMeters>
          </Trackpoint>
          <Trackpoint>
            <Time>2021-09-26T11:20:03.000Z</Time>
            <Position>
              <LatitudeDegrees>40.412675924599170684814453125</LatitudeDegrees>
              <LongitudeDegrees>-3.71747036464512348175048828125</LongitudeDegrees>
            </Position>
            <AltitudeMeters>603.5999755859375</AltitudeMeters>
            <DistanceMeters>37965.062331047</DistanceMeters>
          </Trackpoint>
          <Trackpoint>
            <Time>2021-09-26T11:20:10.000Z</Time>
            <Position>
              <LatitudeDegrees>40.41252681054174900054931640625</LatitudeDegrees>
              <LongitudeDegrees>-3.717553429305553436279296875</LongitudeDegrees>
            </Position>
            <AltitudeMeters>603.79998779296875</AltitudeMeters>
            <DistanceMeters>37983.090378955</DistanceMeters>
          </Trackpoint>
          <Trackpoint>
            <Time>2021-09-26T11:20:14.000Z</Time>
            <Position>
              <LatitudeDegrees>40.41244030930101871490478515625</LatitudeDegrees>
              <LongitudeDegrees>-3.71760128997266292572021484375</LongitudeDegrees>
            </Position>
            <AltitudeMeters>603.79998779296875</AltitudeMeters>
            <DistanceMeters>37993.537268631</DistanceMeters>
          </Trackpoint>
          <Trackpoint>
            <Time>2021-09-26T11:20:16.000Z</Time>
            <Position>
              <LatitudeDegrees>40.41239873506128787994384765625</LatitudeDegrees>
              <LongitudeDegrees>-3.71762492693960666656494140625</LongitudeDegrees>
            </Position>
            <AltitudeMeters>603.5999755859375</AltitudeMeters>
            <DistanceMeters>37998.579060494</DistanceMeters>
          </Trackpoint>
          <Trackpoint>
            <Time>2021-09-26T11:20:23.000Z</Time>
            <Position>
              <LatitudeDegrees>40.4122529737651348114013671875</LatitudeDegrees>
              <LongitudeDegrees>-3.71769231744110584259033203125</LongitudeDegrees>
            </Position>
            <AltitudeMeters>603</AltitudeMeters>
            <DistanceMeters>38015.778633288</DistanceMeters>
          </Trackpoint>
          <Trackpoint>
            <Time>2021-09-26T11:20:29.000Z</Time>
            <Position>
              <LatitudeDegrees>40.41212313808500766754150390625</LatitudeDegrees>
              <LongitudeDegrees>-3.71775467880070209503173828125</LongitudeDegrees>
            </Position>
            <AltitudeMeters>602</AltitudeMeters>
            <DistanceMeters>38031.16592039</DistanceMeters>
          </Trackpoint>
          <Trackpoint>
            <Time>2021-09-26T11:20:37.000Z</Time>
            <Position>
              <LatitudeDegrees>40.41196874342858791351318359375</LatitudeDegrees>
              <LongitudeDegrees>-3.717820644378662109375</LongitudeDegrees>
            </Position>
            <AltitudeMeters>600.4000244140625</AltitudeMeters>
            <DistanceMeters>38049.236993533</DistanceMeters>
          </Trackpoint>
          <Trackpoint>
            <Time>2021-09-26T11:20:43.000Z</Time>
            <Position>
              <LatitudeDegrees>40.4118918813765048980712890625</LatitudeDegrees>
              <LongitudeDegrees>-3.7178630568087100982666015625</LongitudeDegrees>
            </Position>
            <AltitudeMeters>599.79998779296875</AltitudeMeters>
            <DistanceMeters>38058.516584524</DistanceMeters>
          </Trackpoint>
          <Trackpoint>
            <Time>2021-09-26T11:20:50.000Z</Time>
            <Position>
              <LatitudeDegrees>40.411795489490032196044921875</LatitudeDegrees>
              <LongitudeDegrees>-3.7179076485335826873779296875</LongitudeDegrees>
            </Position>
            <AltitudeMeters>599.5999755859375</AltitudeMeters>
            <DistanceMeters>38069.891643441</DistanceMeters>
          </Trackpoint>
          <Trackpoint>
            <Time>2021-09-26T11:20:52.000Z</Time>
            <Position>
              <LatitudeDegrees>40.41177461855113506317138671875</LatitudeDegrees>
              <LongitudeDegrees>-3.71792701072990894317626953125</LongitudeDegrees>
            </Position>
            <AltitudeMeters>599.5999755859375</AltitudeMeters>
            <DistanceMeters>38072.736102703</DistanceMeters>
          </Trackpoint>
          <Trackpoint>
            <Time>2021-09-26T11:21:00.000Z</Time>
            <Position>
              <LatitudeDegrees>40.41168174706399440765380859375</LatitudeDegrees>
              <LongitudeDegrees>-3.71799255721271038055419921875</LongitudeDegrees>
            </Position>
            <AltitudeMeters>599.20001220703125</AltitudeMeters>
            <DistanceMeters>38084.471036268</DistanceMeters>
          </Trackpoint>
          <Trackpoint>
            <Time>2021-09-26T11:21:07.000Z</Time>
            <Position>
              <LatitudeDegrees>40.4116313718259334564208984375</LatitudeDegrees>
              <LongitudeDegrees>-3.71805793605744838714599609375</LongitudeDegrees>
            </Position>
            <AltitudeMeters>598.79998779296875</AltitudeMeters>
            <DistanceMeters>38092.354245392</DistanceMeters>
          </Trackpoint>
          <Trackpoint>
            <Time>2021-09-26T11:21:11.000Z</Time>
            <Position>
              <LatitudeDegrees>40.4116286896169185638427734375</LatitudeDegrees>
              <LongitudeDegrees>-3.7180638872087001800537109375</LongitudeDegrees>
            </Position>
            <AltitudeMeters>598.5999755859375</AltitudeMeters>
            <DistanceMeters>38092.9400294</DistanceMeters>
          </Trackpoint>
          <Trackpoint>
            <Time>2021-09-26T11:21:33.000Z</Time>
            <Position>
              <LatitudeDegrees>40.4114570282399654388427734375</LatitudeDegrees>
              <LongitudeDegrees>-3.7180876918137073516845703125</LongitudeDegrees>
            </Position>
            <AltitudeMeters>599.5999755859375</AltitudeMeters>
            <DistanceMeters>38112.152353693</DistanceMeters>
          </Trackpoint>
          <Trackpoint>
            <Time>2021-09-26T11:21:36.000Z</Time>
            <Position>
              <LatitudeDegrees>40.4114154540002346038818359375</LatitudeDegrees>
              <LongitudeDegrees>-3.71810822747647762298583984375</LongitudeDegrees>
            </Position>
            <AltitudeMeters>599.79998779296875</AltitudeMeters>
            <DistanceMeters>38117.096483236</DistanceMeters>
          </Trackpoint>
          <Trackpoint>
            <Time>2021-09-26T11:21:46.000Z</Time>
            <Position>
              <LatitudeDegrees>40.41128427721560001373291015625</LatitudeDegrees>
              <LongitudeDegrees>-3.718187101185321807861328125</LongitudeDegrees>
            </Position>
            <AltitudeMeters>599.79998779296875</AltitudeMeters>
            <DistanceMeters>38133.154029835</DistanceMeters>
          </Trackpoint>
          <Trackpoint>
            <Time>2021-09-26T11:21:55.000Z</Time>
            <Position>
              <LatitudeDegrees>40.411164499819278717041015625</LatitudeDegrees>
              <LongitudeDegrees>-3.7182368896901607513427734375</LongitudeDegrees>
            </Position>
            <AltitudeMeters>599.79998779296875</AltitudeMeters>
            <DistanceMeters>38147.137494188</DistanceMeters>
          </Trackpoint>
          <Trackpoint>
            <Time>2021-09-26T11:22:04.000Z</Time>
            <Position>
              <LatitudeDegrees>40.4110339097678661346435546875</LatitudeDegrees>
              <LongitudeDegrees>-3.7182462774217128753662109375</LongitudeDegrees>
            </Position>
            <AltitudeMeters>599.4000244140625</AltitudeMeters>
            <DistanceMeters>38161.694271779</DistanceMeters>
          </Trackpoint>
          <Trackpoint>
            <Time>2021-09-26T11:22:13.000Z</Time>
            <Position>
              <LatitudeDegrees>40.41090189479291439056396484375</LatitudeDegrees>
              <LongitudeDegrees>-3.71821962296962738037109375</LongitudeDegrees>
            </Position>
            <AltitudeMeters>598.79998779296875</AltitudeMeters>
            <DistanceMeters>38176.56041085</DistanceMeters>
          </Trackpoint>
          <Trackpoint>
            <Time>2021-09-26T11:22:22.000Z</Time>
            <Position>
              <LatitudeDegrees>40.41078991256654262542724609375</LatitudeDegrees>
              <LongitudeDegrees>-3.7181765399873256683349609375</LongitudeDegrees>
            </Position>
            <AltitudeMeters>599</AltitudeMeters>
            <DistanceMeters>38189.548167699</DistanceMeters>
          </Trackpoint>
          <Trackpoint>
            <Time>2021-09-26T11:22:34.000Z</Time>
            <Position>
              <LatitudeDegrees>40.4106154851615428924560546875</LatitudeDegrees>
              <LongitudeDegrees>-3.718085847795009613037109375</LongitudeDegrees>
            </Position>
            <AltitudeMeters>598.20001220703125</AltitudeMeters>
            <DistanceMeters>38210.428544872</DistanceMeters>
          </Trackpoint>
          <Trackpoint>
            <Time>2021-09-26T11:22:46.000Z</Time>
            <Position>
              <LatitudeDegrees>40.41042412631213665008544921875</LatitudeDegrees>
              <LongitudeDegrees>-3.71803865768015384674072265625</LongitudeDegrees>
            </Position>
            <AltitudeMeters>597.79998779296875</AltitudeMeters>
            <DistanceMeters>38232.099219886</DistanceMeters>
          </Trackpoint>
          <Trackpoint>
            <Time>2021-09-26T11:22:53.000Z</Time>
            <Position>
              <LatitudeDegrees>40.4103130660951137542724609375</LatitudeDegrees>
              <LongitudeDegrees>-3.7180030345916748046875</LongitudeDegrees>
            </Position>
            <AltitudeMeters>598</AltitudeMeters>
            <DistanceMeters>38244.823577262</DistanceMeters>
          </Trackpoint>
          <Trackpoint>
            <Time>2021-09-26T11:23:05.000Z</Time>
            <Position>
              <LatitudeDegrees>40.41013176552951335906982421875</LatitudeDegrees>
              <LongitudeDegrees>-3.7179562635719776153564453125</LongitudeDegrees>
            </Position>
            <AltitudeMeters>599</AltitudeMeters>
            <DistanceMeters>38265.388464818</DistanceMeters>
          </Trackpoint>
          <Trackpoint>
            <Time>2021-09-26T11:23:14.000Z</Time>
            <Position>
              <LatitudeDegrees>40.41000369004905223846435546875</LatitudeDegrees>
              <LongitudeDegrees>-3.71790639124810695648193359375</LongitudeDegrees>
            </Position>
            <AltitudeMeters>599.5999755859375</AltitudeMeters>
            <DistanceMeters>38280.257033394</DistanceMeters>
          </Trackpoint>
          <Trackpoint>
            <Time>2021-09-26T11:23:23.000Z</Time>
            <Position>
              <LatitudeDegrees>40.409884415566921234130859375</LatitudeDegrees>
              <LongitudeDegrees>-3.71785886585712432861328125</LongitudeDegrees>
            </Position>
            <AltitudeMeters>601.20001220703125</AltitudeMeters>
            <DistanceMeters>38294.130282808</DistanceMeters>
          </Trackpoint>
          <Trackpoint>
            <Time>2021-09-26T11:23:24.000Z</Time>
            <Position>
              <LatitudeDegrees>40.4098721779882907867431640625</LatitudeDegrees>
              <LongitudeDegrees>-3.7178590334951877593994140625</LongitudeDegrees>
            </Position>
            <AltitudeMeters>601.4000244140625</AltitudeMeters>
            <DistanceMeters>38295.494172741</DistanceMeters>
          </Trackpoint>
          <Trackpoint>
            <Time>2021-09-26T11:23:30.000Z</Time>
            <Position>
              <LatitudeDegrees>40.40976648218929767608642578125</LatitudeDegrees>
              <LongitudeDegrees>-3.71785358525812625885009765625</LongitudeDegrees>
            </Position>
            <AltitudeMeters>602.79998779296875</AltitudeMeters>
            <DistanceMeters>38307.267518629</DistanceMeters>
          </Trackpoint>
          <Trackpoint>
            <Time>2021-09-26T11:23:37.000Z</Time>
            <Position>
              <LatitudeDegrees>40.40961728431284427642822265625</LatitudeDegrees>
              <LongitudeDegrees>-3.71786825358867645263671875</LongitudeDegrees>
            </Position>
            <AltitudeMeters>604.4000244140625</AltitudeMeters>
            <DistanceMeters>38323.919713303</DistanceMeters>
          </Trackpoint>
          <Trackpoint>
            <Time>2021-09-26T11:23:45.000Z</Time>
            <Position>
              <LatitudeDegrees>40.409501530230045318603515625</LatitudeDegrees>
              <LongitudeDegrees>-3.7178724445402622222900390625</LongitudeDegrees>
            </Position>
            <AltitudeMeters>605.20001220703125</AltitudeMeters>
            <DistanceMeters>38336.808362816</DistanceMeters>
          </Trackpoint>
          <Trackpoint>
            <Time>2021-09-26T11:23:52.000Z</Time>
            <Position>
              <LatitudeDegrees>40.4094037972390651702880859375</LatitudeDegrees>
              <LongitudeDegrees>-3.7178528308868408203125</LongitudeDegrees>
            </Position>
            <AltitudeMeters>606</AltitudeMeters>
            <DistanceMeters>38347.812604049</DistanceMeters>
          </Trackpoint>
          <Trackpoint>
            <Time>2021-09-26T11:23:54.000Z</Time>
            <Position>
              <LatitudeDegrees>40.4093659110367298126220703125</LatitudeDegrees>
              <LongitudeDegrees>-3.7178536690771579742431640625</LongitudeDegrees>
            </Position>
            <AltitudeMeters>606</AltitudeMeters>
            <DistanceMeters>38352.030334551</DistanceMeters>
          </Trackpoint>
          <Trackpoint>
            <Time>2021-09-26T11:23:57.000Z</Time>
            <Position>
              <LatitudeDegrees>40.40931168012320995330810546875</LatitudeDegrees>
              <LongitudeDegrees>-3.71783900074660778045654296875</LongitudeDegrees>
            </Position>
            <AltitudeMeters>606.4000244140625</AltitudeMeters>
            <DistanceMeters>38358.192434149</DistanceMeters>
          </Trackpoint>
          <Trackpoint>
            <Time>2021-09-26T11:24:06.000Z</Time>
            <Position>
              <LatitudeDegrees>40.40919584222137928009033203125</LatitudeDegrees>
              <LongitudeDegrees>-3.7178000248968601226806640625</LongitudeDegrees>
            </Position>
            <AltitudeMeters>607.20001220703125</AltitudeMeters>
            <DistanceMeters>38371.501603151</DistanceMeters>
          </Trackpoint>
          <Trackpoint>
            <Time>2021-09-26T11:24:14.000Z</Time>
            <Position>
              <LatitudeDegrees>40.4090980254113674163818359375</LatitudeDegrees>
              <LongitudeDegrees>-3.7177145294845104217529296875</LongitudeDegrees>
            </Position>
            <AltitudeMeters>608.5999755859375</AltitudeMeters>
            <DistanceMeters>38384.579778785</DistanceMeters>
          </Trackpoint>
          <Trackpoint>
            <Time>2021-09-26T11:24:18.000Z</Time>
            <Position>
              <LatitudeDegrees>40.40905058383941650390625</LatitudeDegrees>
              <LongitudeDegrees>-3.7176970951259136199951171875</LongitudeDegrees>
            </Position>
            <AltitudeMeters>608.79998779296875</AltitudeMeters>
            <DistanceMeters>38390.064228132</DistanceMeters>
          </Trackpoint>
          <Trackpoint>
            <Time>2021-09-26T11:24:21.000Z</Time>
            <Position>
              <LatitudeDegrees>40.40900775231420993804931640625</LatitudeDegrees>
              <LongitudeDegrees>-3.717684186995029449462890625</LongitudeDegrees>
            </Position>
            <AltitudeMeters>608.79998779296875</AltitudeMeters>
            <DistanceMeters>38394.956027655</DistanceMeters>
          </Trackpoint>
          <Trackpoint>
            <Time>2021-09-26T11:24:28.000Z</Time>
            <Position>
              <LatitudeDegrees>40.4089109413325786590576171875</LatitudeDegrees>
              <LongitudeDegrees>-3.71763984672725200653076171875</LongitudeDegrees>
            </Position>
            <AltitudeMeters>608.4000244140625</AltitudeMeters>
            <DistanceMeters>38406.367940837</DistanceMeters>
          </Trackpoint>
          <Trackpoint>
            <Time>2021-09-26T11:24:35.000Z</Time>
            <Position>
              <LatitudeDegrees>40.4088185727596282958984375</LatitudeDegrees>
              <LongitudeDegrees>-3.71759357862174510955810546875</LongitudeDegrees>
            </Position>
            <AltitudeMeters>608.20001220703125</AltitudeMeters>
            <DistanceMeters>38417.37136144</DistanceMeters>
          </Trackpoint>
          <Trackpoint>
            <Time>2021-09-26T11:24:43.000Z</Time>
            <Position>
              <LatitudeDegrees>40.40871706791222095489501953125</LatitudeDegrees>
              <LongitudeDegrees>-3.717576898634433746337890625</LongitudeDegrees>
            </Position>
            <AltitudeMeters>607.79998779296875</AltitudeMeters>
            <DistanceMeters>38428.757132271</DistanceMeters>
          </Trackpoint>
          <Trackpoint>
            <Time>2021-09-26T11:24:49.000Z</Time>
            <Position>
              <LatitudeDegrees>40.408633165061473846435546875</LatitudeDegrees>
              <LongitudeDegrees>-3.7175606377422809600830078125</LongitudeDegrees>
            </Position>
            <AltitudeMeters>607.4000244140625</AltitudeMeters>
            <DistanceMeters>38438.196399418</DistanceMeters>
          </Trackpoint>
          <Trackpoint>
            <Time>2021-09-26T11:24:55.000Z</Time>
            <Position>
              <LatitudeDegrees>40.40852612815797328948974609375</LatitudeDegrees>
              <LongitudeDegrees>-3.71754228137433528900146484375</LongitudeDegrees>
            </Position>
            <AltitudeMeters>607</AltitudeMeters>
            <DistanceMeters>38450.211173741</DistanceMeters>
          </Trackpoint>
          <Trackpoint>
            <Time>2021-09-26T11:25:04.000Z</Time>
            <Position>
              <LatitudeDegrees>40.40839671157300472259521484375</LatitudeDegrees>
              <LongitudeDegrees>-3.7175100110471248626708984375</LongitudeDegrees>
            </Position>
            <AltitudeMeters>607</AltitudeMeters>
            <DistanceMeters>38464.873029007</DistanceMeters>
          </Trackpoint>
          <Trackpoint>
            <Time>2021-09-26T11:25:14.000Z</Time>
            <Position>
              <LatitudeDegrees>40.40823209099471569061279296875</LatitudeDegrees>
              <LongitudeDegrees>-3.7174862064421176910400390625</LongitudeDegrees>
            </Position>
            <AltitudeMeters>606.5999755859375</AltitudeMeters>
            <DistanceMeters>38483.306252177</DistanceMeters>
          </Trackpoint>
          <Trackpoint>
            <Time>2021-09-26T11:25:22.000Z</Time>
            <Position>
              <LatitudeDegrees>40.4081331007182598114013671875</LatitudeDegrees>
              <LongitudeDegrees>-3.7173970229923725128173828125</LongitudeDegrees>
            </Position>
            <AltitudeMeters>606.79998779296875</AltitudeMeters>
            <DistanceMeters>38496.667224493</DistanceMeters>
          </Trackpoint>
          <Trackpoint>
            <Time>2021-09-26T11:25:23.000Z</Time>
            <Position>
              <LatitudeDegrees>40.408118851482868194580078125</LatitudeDegrees>
              <LongitudeDegrees>-3.7173906527459621429443359375</LongitudeDegrees>
            </Position>
            <AltitudeMeters>606.79998779296875</AltitudeMeters>
            <DistanceMeters>38498.343038854</DistanceMeters>
          </Trackpoint>
          <Trackpoint>
            <Time>2021-09-26T11:25:28.000Z</Time>
            <Position>
              <LatitudeDegrees>40.40806478820741176605224609375</LatitudeDegrees>
              <LongitudeDegrees>-3.71736626140773296356201171875</LongitudeDegrees>
            </Position>
            <AltitudeMeters>606.20001220703125</AltitudeMeters>
            <DistanceMeters>38504.704862698</DistanceMeters>
          </Trackpoint>
          <Trackpoint>
            <Time>2021-09-26T11:25:36.000Z</Time>
            <Position>
              <LatitudeDegrees>40.40795733220875263214111328125</LatitudeDegrees>
              <LongitudeDegrees>-3.71732418425381183624267578125</LongitudeDegrees>
            </Position>
            <AltitudeMeters>605.79998779296875</AltitudeMeters>
            <DistanceMeters>38517.184877061</DistanceMeters>
          </Trackpoint>
          <Trackpoint>
            <Time>2021-09-26T11:25:42.000Z</Time>
            <Position>
              <LatitudeDegrees>40.407873094081878662109375</LatitudeDegrees>
              <LongitudeDegrees>-3.71731395833194255828857421875</LongitudeDegrees>
            </Position>
            <AltitudeMeters>605.4000244140625</AltitudeMeters>
            <DistanceMeters>38526.600677108</DistanceMeters>
          </Trackpoint>
          <Trackpoint>
            <Time>2021-09-26T11:25:43.000Z</Time>
            <Position>
              <LatitudeDegrees>40.40785825811326503753662109375</LatitudeDegrees>
              <LongitudeDegrees>-3.717311359941959381103515625</LongitudeDegrees>
            </Position>
            <AltitudeMeters>605.4000244140625</AltitudeMeters>
            <DistanceMeters>38528.268389177</DistanceMeters>
          </Trackpoint>
          <Trackpoint>
            <Time>2021-09-26T11:25:51.000Z</Time>
            <Position>
              <LatitudeDegrees>40.40771207772195339202880859375</LatitudeDegrees>
              <LongitudeDegrees>-3.71726769022643566131591796875</LongitudeDegrees>
            </Position>
            <AltitudeMeters>605</AltitudeMeters>
            <DistanceMeters>38544.954171056</DistanceMeters>
          </Trackpoint>
          <Trackpoint>
            <Time>2021-09-26T11:26:01.000Z</Time>
            <Position>
              <LatitudeDegrees>40.4075450263917446136474609375</LatitudeDegrees>
              <LongitudeDegrees>-3.71721739880740642547607421875</LongitudeDegrees>
            </Position>
            <AltitudeMeters>605.20001220703125</AltitudeMeters>
            <DistanceMeters>38564.029704087</DistanceMeters>
          </Trackpoint>
          <Trackpoint>
            <Time>2021-09-26T11:26:08.000Z</Time>
            <Position>
              <LatitudeDegrees>40.40746548213064670562744140625</LatitudeDegrees>
              <LongitudeDegrees>-3.71717833913862705230712890625</LongitudeDegrees>
            </Position>
            <AltitudeMeters>605</AltitudeMeters>
            <DistanceMeters>38573.481877188</DistanceMeters>
          </Trackpoint>
          <Trackpoint>
            <Time>2021-09-26T11:26:10.000Z</Time>
            <Position>
              <LatitudeDegrees>40.40744184516370296478271484375</LatitudeDegrees>
              <LongitudeDegrees>-3.7171633355319499969482421875</LongitudeDegrees>
            </Position>
            <AltitudeMeters>605</AltitudeMeters>
            <DistanceMeters>38576.403079379</DistanceMeters>
          </Trackpoint>
          <Trackpoint>
            <Time>2021-09-26T11:26:12.000Z</Time>
            <Position>
              <LatitudeDegrees>40.40741837583482265472412109375</LatitudeDegrees>
              <LongitudeDegrees>-3.717151097953319549560546875</LongitudeDegrees>
            </Position>
            <AltitudeMeters>605</AltitudeMeters>
            <DistanceMeters>38579.212400793</DistanceMeters>
          </Trackpoint>
          <Trackpoint>
            <Time>2021-09-26T11:26:14.000Z</Time>
            <Position>
              <LatitudeDegrees>40.4073975048959255218505859375</LatitudeDegrees>
              <LongitudeDegrees>-3.71714766137301921844482421875</LongitudeDegrees>
            </Position>
            <AltitudeMeters>605</AltitudeMeters>
            <DistanceMeters>38581.551679812</DistanceMeters>
          </Trackpoint>
          <Trackpoint>
            <Time>2021-09-26T11:26:21.000Z</Time>
            <Position>
              <LatitudeDegrees>40.40727856568992137908935546875</LatitudeDegrees>
              <LongitudeDegrees>-3.71705420315265655517578125</LongitudeDegrees>
            </Position>
            <AltitudeMeters>604.5999755859375</AltitudeMeters>
            <DistanceMeters>38596.978821308</DistanceMeters>
          </Trackpoint>
          <Trackpoint>
            <Time>2021-09-26T11:26:27.000Z</Time>
            <Position>
              <LatitudeDegrees>40.40715082548558712005615234375</LatitudeDegrees>
              <LongitudeDegrees>-3.7169407121837139129638671875</LongitudeDegrees>
            </Position>
            <AltitudeMeters>603.79998779296875</AltitudeMeters>
            <DistanceMeters>38614.144497073</DistanceMeters>
          </Trackpoint>
          <Trackpoint>
            <Time>2021-09-26T11:26:28.000Z</Time>
            <Position>
              <LatitudeDegrees>40.4071383364498615264892578125</LatitudeDegrees>
              <LongitudeDegrees>-3.71692537330090999603271484375</LongitudeDegrees>
            </Position>
            <AltitudeMeters>603.5999755859375</AltitudeMeters>
            <DistanceMeters>38616.049776771</DistanceMeters>
          </Trackpoint>
          <Trackpoint>
            <Time>2021-09-26T11:26:32.000Z</Time>
            <Position>
              <LatitudeDegrees>40.407079495489597320556640625</LatitudeDegrees>
              <LongitudeDegrees>-3.71689083985984325408935546875</LongitudeDegrees>
            </Position>
            <AltitudeMeters>603.20001220703125</AltitudeMeters>
            <DistanceMeters>38623.224136376</DistanceMeters>
          </Trackpoint>
          <Trackpoint>
            <Time>2021-09-26T11:26:35.000Z</Time>
            <Position>
              <LatitudeDegrees>40.4070281982421875</LatitudeDegrees>
              <LongitudeDegrees>-3.716868124902248382568359375</LongitudeDegrees>
            </Position>
            <AltitudeMeters>602.4000244140625</AltitudeMeters>
            <DistanceMeters>38629.249909138</DistanceMeters>
          </Trackpoint>
          <Trackpoint>
            <Time>2021-09-26T11:26:43.000Z</Time>
            <Position>
              <LatitudeDegrees>40.406850166618824005126953125</LatitudeDegrees>
              <LongitudeDegrees>-3.7168240360915660858154296875</LongitudeDegrees>
            </Position>
            <AltitudeMeters>599.79998779296875</AltitudeMeters>
            <DistanceMeters>38649.414389843</DistanceMeters>
          </Trackpoint>
          <Trackpoint>
            <Time>2021-09-26T11:26:47.000Z</Time>
            <Position>
              <LatitudeDegrees>40.4067707061767578125</LatitudeDegrees>
              <LongitudeDegrees>-3.71679293923079967498779296875</LongitudeDegrees>
            </Position>
            <AltitudeMeters>600</AltitudeMeters>
            <DistanceMeters>38658.643240314</DistanceMeters>
          </Trackpoint>
          <Trackpoint>
            <Time>2021-09-26T11:26:50.000Z</Time>
            <Position>
              <LatitudeDegrees>40.40670222602784633636474609375</LatitudeDegrees>
              <LongitudeDegrees>-3.71675706468522548675537109375</LongitudeDegrees>
            </Position>
            <AltitudeMeters>600.5999755859375</AltitudeMeters>
            <DistanceMeters>38666.849720078</DistanceMeters>
          </Trackpoint>
          <Trackpoint>
            <Time>2021-09-26T11:26:56.000Z</Time>
            <Position>
              <LatitudeDegrees>40.406555794179439544677734375</LatitudeDegrees>
              <LongitudeDegrees>-3.71670685708522796630859375</LongitudeDegrees>
            </Position>
            <AltitudeMeters>602</AltitudeMeters>
            <DistanceMeters>38683.694394668</DistanceMeters>
          </Trackpoint>
          <Trackpoint>
            <Time>2021-09-26T11:26:59.000Z</Time>
            <Position>
              <LatitudeDegrees>40.40649586357176303863525390625</LatitudeDegrees>
              <LongitudeDegrees>-3.71668933890759944915771484375</LongitudeDegrees>
            </Position>
            <AltitudeMeters>602.5999755859375</AltitudeMeters>
            <DistanceMeters>38690.528394622</DistanceMeters>
          </Trackpoint>
          <Trackpoint>
            <Time>2021-09-26T11:27:07.000Z</Time>
            <Position>
              <LatitudeDegrees>40.40632621385157108306884765625</LatitudeDegrees>
              <LongitudeDegrees>-3.71662798337638378143310546875</LongitudeDegrees>
            </Position>
            <AltitudeMeters>605.20001220703125</AltitudeMeters>
            <DistanceMeters>38710.113582575</DistanceMeters>
          </Trackpoint>
          <Trackpoint>
            <Time>2021-09-26T11:27:13.000Z</Time>
            <Position>
              <LatitudeDegrees>40.40621423162519931793212890625</LatitudeDegrees>
              <LongitudeDegrees>-3.71658087708055973052978515625</LongitudeDegrees>
            </Position>
            <AltitudeMeters>606.5999755859375</AltitudeMeters>
            <DistanceMeters>38723.201076223</DistanceMeters>
          </Trackpoint>
          <Trackpoint>
            <Time>2021-09-26T11:27:21.000Z</Time>
            <Position>
              <LatitudeDegrees>40.40603050030767917633056640625</LatitudeDegrees>
              <LongitudeDegrees>-3.7165524624288082122802734375</LongitudeDegrees>
            </Position>
            <AltitudeMeters>608</AltitudeMeters>
            <DistanceMeters>38743.79185448</DistanceMeters>
          </Trackpoint>
          <Trackpoint>
            <Time>2021-09-26T11:27:29.000Z</Time>
            <Position>
              <LatitudeDegrees>40.40588331408798694610595703125</LatitudeDegrees>
              <LongitudeDegrees>-3.71648867614567279815673828125</LongitudeDegrees>
            </Position>
            <AltitudeMeters>608.79998779296875</AltitudeMeters>
            <DistanceMeters>38761.043063984</DistanceMeters>
          </Trackpoint>
          <Trackpoint>
            <Time>2021-09-26T11:27:37.000Z</Time>
            <Position>
              <LatitudeDegrees>40.40571668185293674468994140625</LatitudeDegrees>
              <LongitudeDegrees>-3.71641390956938266754150390625</LongitudeDegrees>
            </Position>
            <AltitudeMeters>608</AltitudeMeters>
            <DistanceMeters>38780.642079056</DistanceMeters>
          </Trackpoint>
          <Trackpoint>
            <Time>2021-09-26T11:27:44.000Z</Time>
            <Position>
              <LatitudeDegrees>40.40556815452873706817626953125</LatitudeDegrees>
              <LongitudeDegrees>-3.71632120572030544281005859375</LongitudeDegrees>
            </Position>
            <AltitudeMeters>606.79998779296875</AltitudeMeters>
            <DistanceMeters>38798.945516877</DistanceMeters>
          </Trackpoint>
          <Trackpoint>
            <Time>2021-09-26T11:27:51.000Z</Time>
            <Position>
              <LatitudeDegrees>40.405418537557125091552734375</LatitudeDegrees>
              <LongitudeDegrees>-3.7162528932094573974609375</LongitudeDegrees>
            </Position>
            <AltitudeMeters>606.79998779296875</AltitudeMeters>
            <DistanceMeters>38816.575981742</DistanceMeters>
          </Trackpoint>
          <Trackpoint>
            <Time>2021-09-26T11:27:59.000Z</Time>
            <Position>
              <LatitudeDegrees>40.40525500662624835968017578125</LatitudeDegrees>
              <LongitudeDegrees>-3.71620905585587024688720703125</LongitudeDegrees>
            </Position>
            <AltitudeMeters>606.79998779296875</AltitudeMeters>
            <DistanceMeters>38835.152428423</DistanceMeters>
          </Trackpoint>
          <Trackpoint>
            <Time>2021-09-26T11:28:06.000Z</Time>
            <Position>
              <LatitudeDegrees>40.4051286913454532623291015625</LatitudeDegrees>
              <LongitudeDegrees>-3.7161689065396785736083984375</LongitudeDegrees>
            </Position>
            <AltitudeMeters>607.4000244140625</AltitudeMeters>
            <DistanceMeters>38849.617105094</DistanceMeters>
          </Trackpoint>
          <Trackpoint>
            <Time>2021-09-26T11:28:14.000Z</Time>
            <Position>
              <LatitudeDegrees>40.404973290860652923583984375</LatitudeDegrees>
              <LongitudeDegrees>-3.7161041982471942901611328125</LongitudeDegrees>
            </Position>
            <AltitudeMeters>608.4000244140625</AltitudeMeters>
            <DistanceMeters>38867.761982805</DistanceMeters>
          </Trackpoint>
          <Trackpoint>
            <Time>2021-09-26T11:28:23.000Z</Time>
            <Position>
              <LatitudeDegrees>40.40485083125531673431396484375</LatitudeDegrees>
              <LongitudeDegrees>-3.71604996733367443084716796875</LongitudeDegrees>
            </Position>
            <AltitudeMeters>609.79998779296875</AltitudeMeters>
            <DistanceMeters>38882.145901308</DistanceMeters>
          </Trackpoint>
          <Trackpoint>
            <Time>2021-09-26T11:28:26.000Z</Time>
            <Position>
              <LatitudeDegrees>40.40482166223227977752685546875</LatitudeDegrees>
              <LongitudeDegrees>-3.7160217203199863433837890625</LongitudeDegrees>
            </Position>
            <AltitudeMeters>610.20001220703125</AltitudeMeters>
            <DistanceMeters>38886.179782535</DistanceMeters>
          </Trackpoint>
          <Trackpoint>
            <Time>2021-09-26T11:28:31.000Z</Time>
            <Position>
              <LatitudeDegrees>40.404766090214252471923828125</LatitudeDegrees>
              <LongitudeDegrees>-3.71596212498843669891357421875</LongitudeDegrees>
            </Position>
            <AltitudeMeters>611</AltitudeMeters>
            <DistanceMeters>38894.164854217</DistanceMeters>
          </Trackpoint>
          <Trackpoint>
            <Time>2021-09-26T11:28:42.000Z</Time>
            <Position>
              <LatitudeDegrees>40.40462150238454341888427734375</LatitudeDegrees>
              <LongitudeDegrees>-3.715838827192783355712890625</LongitudeDegrees>
            </Position>
            <AltitudeMeters>611.4000244140625</AltitudeMeters>
            <DistanceMeters>38913.353192783</DistanceMeters>
          </Trackpoint>
          <Trackpoint>
            <Time>2021-09-26T11:28:52.000Z</Time>
            <Position>
              <LatitudeDegrees>40.4044859670102596282958984375</LatitudeDegrees>
              <LongitudeDegrees>-3.71578426100313663482666015625</LongitudeDegrees>
            </Position>
            <AltitudeMeters>610.20001220703125</AltitudeMeters>
            <DistanceMeters>38929.13163401</DistanceMeters>
          </Trackpoint>
          <Trackpoint>
            <Time>2021-09-26T11:28:59.000Z</Time>
            <Position>
              <LatitudeDegrees>40.404408015310764312744140625</LatitudeDegrees>
              <LongitudeDegrees>-3.71571988798677921295166015625</LongitudeDegrees>
            </Position>
            <AltitudeMeters>610.20001220703125</AltitudeMeters>
            <DistanceMeters>38939.380431461</DistanceMeters>
          </Trackpoint>
          <Trackpoint>
            <Time>2021-09-26T11:29:01.000Z</Time>
            <Position>
              <LatitudeDegrees>40.4043833725154399871826171875</LatitudeDegrees>
              <LongitudeDegrees>-3.71568988077342510223388671875</LongitudeDegrees>
            </Position>
            <AltitudeMeters>610</AltitudeMeters>
            <DistanceMeters>38943.119222487</DistanceMeters>
          </Trackpoint>
          <Trackpoint>
            <Time>2021-09-26T11:29:10.000Z</Time>
            <Position>
              <LatitudeDegrees>40.4042891599237918853759765625</LatitudeDegrees>
              <LongitudeDegrees>-3.71552257798612117767333984375</LongitudeDegrees>
            </Position>
            <AltitudeMeters>611</AltitudeMeters>
            <DistanceMeters>38960.754808468</DistanceMeters>
          </Trackpoint>
          <Trackpoint>
            <Time>2021-09-26T11:29:18.000Z</Time>
            <Position>
              <LatitudeDegrees>40.4042093642055988311767578125</LatitudeDegrees>
              <LongitudeDegrees>-3.7153863720595836639404296875</LongitudeDegrees>
            </Position>
            <AltitudeMeters>612.5999755859375</AltitudeMeters>
            <DistanceMeters>38975.320268158</DistanceMeters>
          </Trackpoint>
          <Trackpoint>
            <Time>2021-09-26T11:29:27.000Z</Time>
            <Position>
              <LatitudeDegrees>40.4041322506964206695556640625</LatitudeDegrees>
              <LongitudeDegrees>-3.71525033377110958099365234375</LongitudeDegrees>
            </Position>
            <AltitudeMeters>613.4000244140625</AltitudeMeters>
            <DistanceMeters>38989.694138515</DistanceMeters>
          </Trackpoint>
          <Trackpoint>
            <Time>2021-09-26T11:29:28.000Z</Time>
            <Position>
              <LatitudeDegrees>40.40412160567939281463623046875</LatitudeDegrees>
              <LongitudeDegrees>-3.715236671268939971923828125</LongitudeDegrees>
            </Position>
            <AltitudeMeters>613.4000244140625</AltitudeMeters>
            <DistanceMeters>38991.350985894</DistanceMeters>
          </Trackpoint>
          <Trackpoint>
            <Time>2021-09-26T11:29:37.000Z</Time>
            <Position>
              <LatitudeDegrees>40.404049269855022430419921875</LatitudeDegrees>
              <LongitudeDegrees>-3.7150993756949901580810546875</LongitudeDegrees>
            </Position>
            <AltitudeMeters>613.20001220703125</AltitudeMeters>
            <DistanceMeters>39005.501034834</DistanceMeters>
          </Trackpoint>
          <Trackpoint>
            <Time>2021-09-26T11:29:48.000Z</Time>
            <Position>
              <LatitudeDegrees>40.4039347730576992034912109375</LatitudeDegrees>
              <LongitudeDegrees>-3.71489862911403179168701171875</LongitudeDegrees>
            </Position>
            <AltitudeMeters>612.20001220703125</AltitudeMeters>
            <DistanceMeters>39026.758576681</DistanceMeters>
          </Trackpoint>
          <Trackpoint>
            <Time>2021-09-26T11:29:58.000Z</Time>
            <Position>
              <LatitudeDegrees>40.40384768508374691009521484375</LatitudeDegrees>
              <LongitudeDegrees>-3.71471908874809741973876953125</LongitudeDegrees>
            </Position>
            <AltitudeMeters>612</AltitudeMeters>
            <DistanceMeters>39044.80064407</DistanceMeters>
          </Trackpoint>
          <Trackpoint>
            <Time>2021-09-26T11:30:06.000Z</Time>
            <Position>
              <LatitudeDegrees>40.403788425028324127197265625</LatitudeDegrees>
              <LongitudeDegrees>-3.71460392139852046966552734375</LongitudeDegrees>
            </Position>
            <AltitudeMeters>611</AltitudeMeters>
            <DistanceMeters>39056.580890875</DistanceMeters>
          </Trackpoint>
          <Trackpoint>
            <Time>2021-09-26T11:30:14.000Z</Time>
            <Position>
              <LatitudeDegrees>40.403714664280414581298828125</LatitudeDegrees>
              <LongitudeDegrees>-3.7144787795841693878173828125</LongitudeDegrees>
            </Position>
            <AltitudeMeters>610.4000244140625</AltitudeMeters>
            <DistanceMeters>39069.993466426</DistanceMeters>
          </Trackpoint>
          <Trackpoint>
            <Time>2021-09-26T11:30:23.000Z</Time>
            <Position>
              <LatitudeDegrees>40.40365775115787982940673828125</LatitudeDegrees>
              <LongitudeDegrees>-3.71432228945195674896240234375</LongitudeDegrees>
            </Position>
            <AltitudeMeters>610.4000244140625</AltitudeMeters>
            <DistanceMeters>39084.692228585</DistanceMeters>
          </Trackpoint>
          <Trackpoint>
            <Time>2021-09-26T11:30:34.000Z</Time>
            <Position>
              <LatitudeDegrees>40.4036192782223224639892578125</LatitudeDegrees>
              <LongitudeDegrees>-3.71412866748869419097900390625</LongitudeDegrees>
            </Position>
            <AltitudeMeters>611.4000244140625</AltitudeMeters>
            <DistanceMeters>39101.652300962</DistanceMeters>
          </Trackpoint>
          <Trackpoint>
            <Time>2021-09-26T11:30:38.000Z</Time>
            <Position>
              <LatitudeDegrees>40.403608717024326324462890625</LatitudeDegrees>
              <LongitudeDegrees>-3.71407091617584228515625</LongitudeDegrees>
            </Position>
            <AltitudeMeters>611.5999755859375</AltitudeMeters>
            <DistanceMeters>39106.68602667</DistanceMeters>
          </Trackpoint>
          <Trackpoint>
            <Time>2021-09-26T11:30:43.000Z</Time>
            <Position>
              <LatitudeDegrees>40.40358047001063823699951171875</LatitudeDegrees>
              <LongitudeDegrees>-3.71398634277284145355224609375</LongitudeDegrees>
            </Position>
            <AltitudeMeters>611.79998779296875</AltitudeMeters>
            <DistanceMeters>39114.513482749</DistanceMeters>
          </Trackpoint>
          <Trackpoint>
            <Time>2021-09-26T11:30:56.000Z</Time>
            <Position>
              <LatitudeDegrees>40.40350788272917270660400390625</LatitudeDegrees>
              <LongitudeDegrees>-3.7137820757925510406494140625</LongitudeDegrees>
            </Position>
            <AltitudeMeters>611.79998779296875</AltitudeMeters>
            <DistanceMeters>39133.61857945</DistanceMeters>
          </Trackpoint>
          <Trackpoint>
            <Time>2021-09-26T11:31:00.000Z</Time>
            <Position>
              <LatitudeDegrees>40.40347502566874027252197265625</LatitudeDegrees>
              <LongitudeDegrees>-3.71371485292911529541015625</LongitudeDegrees>
            </Position>
            <AltitudeMeters>612</AltitudeMeters>
            <DistanceMeters>39140.388857733</DistanceMeters>
          </Trackpoint>
          <Trackpoint>
            <Time>2021-09-26T11:31:05.000Z</Time>
            <Position>
              <LatitudeDegrees>40.4034559987485408782958984375</LatitudeDegrees>
              <LongitudeDegrees>-3.7136261723935604095458984375</LongitudeDegrees>
            </Position>
            <AltitudeMeters>612.20001220703125</AltitudeMeters>
            <DistanceMeters>39148.197833737</DistanceMeters>
          </Trackpoint>
          <Trackpoint>
            <Time>2021-09-26T11:31:12.000Z</Time>
            <Position>
              <LatitudeDegrees>40.4034241475164890289306640625</LatitudeDegrees>
              <LongitudeDegrees>-3.7134917266666889190673828125</LongitudeDegrees>
            </Position>
            <AltitudeMeters>612</AltitudeMeters>
            <DistanceMeters>39160.131917936</DistanceMeters>
          </Trackpoint>
          <Trackpoint>
            <Time>2021-09-26T11:31:19.000Z</Time>
            <Position>
              <LatitudeDegrees>40.403376705944538116455078125</LatitudeDegrees>
              <LongitudeDegrees>-3.71336256153881549835205078125</LongitudeDegrees>
            </Position>
            <AltitudeMeters>611.5999755859375</AltitudeMeters>
            <DistanceMeters>39172.286425356</DistanceMeters>
          </Trackpoint>
          <Trackpoint>
            <Time>2021-09-26T11:31:20.000Z</Time>
            <Position>
              <LatitudeDegrees>40.4033684916794300079345703125</LatitudeDegrees>
              <LongitudeDegrees>-3.7133435346186161041259765625</LongitudeDegrees>
            </Position>
            <AltitudeMeters>611.4000244140625</AltitudeMeters>
            <DistanceMeters>39174.141272823</DistanceMeters>
          </Trackpoint>
          <Trackpoint>
            <Time>2021-09-26T11:31:26.000Z</Time>
            <Position>
              <LatitudeDegrees>40.40332213975489139556884765625</LatitudeDegrees>
              <LongitudeDegrees>-3.7132157944142818450927734375</LongitudeDegrees>
            </Position>
            <AltitudeMeters>611.20001220703125</AltitudeMeters>
            <DistanceMeters>39186.134607958</DistanceMeters>
          </Trackpoint>
          <Trackpoint>
            <Time>2021-09-26T11:31:27.000Z</Time>
            <Position>
              <LatitudeDegrees>40.4033155180513858795166015625</LatitudeDegrees>
              <LongitudeDegrees>-3.713190816342830657958984375</LongitudeDegrees>
            </Position>
            <AltitudeMeters>611</AltitudeMeters>
            <DistanceMeters>39188.377318947</DistanceMeters>
          </Trackpoint>
          <Trackpoint>
            <Time>2021-09-26T11:31:33.000Z</Time>
            <Position>
              <LatitudeDegrees>40.403282158076763153076171875</LatitudeDegrees>
              <LongitudeDegrees>-3.71302493847906589508056640625</LongitudeDegrees>
            </Position>
            <AltitudeMeters>610.5999755859375</AltitudeMeters>
            <DistanceMeters>39202.918579897</DistanceMeters>
          </Trackpoint>
          <Trackpoint>
            <Time>2021-09-26T11:31:35.000Z</Time>
            <Position>
              <LatitudeDegrees>40.40327109396457672119140625</LatitudeDegrees>
              <LongitudeDegrees>-3.71296442113816738128662109375</LongitudeDegrees>
            </Position>
            <AltitudeMeters>610.20001220703125</AltitudeMeters>
            <DistanceMeters>39208.192348516</DistanceMeters>
          </Trackpoint>
          <Trackpoint>
            <Time>2021-09-26T11:31:38.000Z</Time>
            <Position>
              <LatitudeDegrees>40.40324687026441097259521484375</LatitudeDegrees>
              <LongitudeDegrees>-3.71287909336388111114501953125</LongitudeDegrees>
            </Position>
            <AltitudeMeters>609.79998779296875</AltitudeMeters>
            <DistanceMeters>39215.9111855</DistanceMeters>
          </Trackpoint>
          <Trackpoint>
            <Time>2021-09-26T11:31:42.000Z</Time>
            <Position>
              <LatitudeDegrees>40.403216779232025146484375</LatitudeDegrees>
              <LongitudeDegrees>-3.71276895515620708465576171875</LongitudeDegrees>
            </Position>
            <AltitudeMeters>609.5999755859375</AltitudeMeters>
            <DistanceMeters>39225.828624314</DistanceMeters>
          </Trackpoint>
          <Trackpoint>
            <Time>2021-09-26T11:31:48.000Z</Time>
            <Position>
              <LatitudeDegrees>40.403177551925182342529296875</LatitudeDegrees>
              <LongitudeDegrees>-3.71260785497725009918212890625</LongitudeDegrees>
            </Position>
            <AltitudeMeters>609.20001220703125</AltitudeMeters>
            <DistanceMeters>39240.16349158</DistanceMeters>
          </Trackpoint>
          <Trackpoint>
            <Time>2021-09-26T11:31:54.000Z</Time>
            <Position>
              <LatitudeDegrees>40.403138659894466400146484375</LatitudeDegrees>
              <LongitudeDegrees>-3.71244407258927822113037109375</LongitudeDegrees>
            </Position>
            <AltitudeMeters>608.4000244140625</AltitudeMeters>
            <DistanceMeters>39254.704442029</DistanceMeters>
          </Trackpoint>
          <Trackpoint>
            <Time>2021-09-26T11:32:02.000Z</Time>
            <Position>
              <LatitudeDegrees>40.4030751250684261322021484375</LatitudeDegrees>
              <LongitudeDegrees>-3.71221373789012432098388671875</LongitudeDegrees>
            </Position>
            <AltitudeMeters>609</AltitudeMeters>
            <DistanceMeters>39275.468159657</DistanceMeters>
          </Trackpoint>
          <Trackpoint>
            <Time>2021-09-26T11:32:10.000Z</Time>
            <Position>
              <LatitudeDegrees>40.40300865657627582550048828125</LatitudeDegrees>
              <LongitudeDegrees>-3.71199287474155426025390625</LongitudeDegrees>
            </Position>
            <AltitudeMeters>607.79998779296875</AltitudeMeters>
            <DistanceMeters>39295.596558495</DistanceMeters>
          </Trackpoint>
          <Trackpoint>
            <Time>2021-09-26T11:32:18.000Z</Time>
            <Position>
              <LatitudeDegrees>40.4029400087893009185791015625</LatitudeDegrees>
              <LongitudeDegrees>-3.71174611151218414306640625</LongitudeDegrees>
            </Position>
            <AltitudeMeters>605.79998779296875</AltitudeMeters>
            <DistanceMeters>39317.863246108</DistanceMeters>
          </Trackpoint>
          <Trackpoint>
            <Time>2021-09-26T11:32:26.000Z</Time>
            <Position>
              <LatitudeDegrees>40.40288485586643218994140625</LatitudeDegrees>
              <LongitudeDegrees>-3.71151820756494998931884765625</LongitudeDegrees>
            </Position>
            <AltitudeMeters>604</AltitudeMeters>
            <DistanceMeters>39338.131577753</DistanceMeters>
          </Trackpoint>
          <Trackpoint>
            <Time>2021-09-26T11:32:33.000Z</Time>
            <Position>
              <LatitudeDegrees>40.40284537710249423980712890625</LatitudeDegrees>
              <LongitudeDegrees>-3.71132844127714633941650390625</LongitudeDegrees>
            </Position>
            <AltitudeMeters>602.4000244140625</AltitudeMeters>
            <DistanceMeters>39354.804907756</DistanceMeters>
          </Trackpoint>
          <Trackpoint>
            <Time>2021-09-26T11:32:40.000Z</Time>
            <Position>
              <LatitudeDegrees>40.40278695523738861083984375</LatitudeDegrees>
              <LongitudeDegrees>-3.71113833971321582794189453125</LongitudeDegrees>
            </Position>
            <AltitudeMeters>601.20001220703125</AltitudeMeters>
            <DistanceMeters>39372.180250796</DistanceMeters>
          </Trackpoint>
          <Trackpoint>
            <Time>2021-09-26T11:32:48.000Z</Time>
            <Position>
              <LatitudeDegrees>40.4027029685676097869873046875</LatitudeDegrees>
              <LongitudeDegrees>-3.71093566529452800750732421875</LongitudeDegrees>
            </Position>
            <AltitudeMeters>601.20001220703125</AltitudeMeters>
            <DistanceMeters>39391.736831727</DistanceMeters>
          </Trackpoint>
          <Trackpoint>
            <Time>2021-09-26T11:32:54.000Z</Time>
            <Position>
              <LatitudeDegrees>40.4027529247105121612548828125</LatitudeDegrees>
              <LongitudeDegrees>-3.7107843719422817230224609375</LongitudeDegrees>
            </Position>
            <AltitudeMeters>601.79998779296875</AltitudeMeters>
            <DistanceMeters>39405.713836906</DistanceMeters>
          </Trackpoint>
          <Trackpoint>
            <Time>2021-09-26T11:33:03.000Z</Time>
            <Position>
              <LatitudeDegrees>40.40284956805408000946044921875</LatitudeDegrees>
              <LongitudeDegrees>-3.71057054959237575531005859375</LongitudeDegrees>
            </Position>
            <AltitudeMeters>604.5999755859375</AltitudeMeters>
            <DistanceMeters>39426.788782695</DistanceMeters>
          </Trackpoint>
          <Trackpoint>
            <Time>2021-09-26T11:33:11.000Z</Time>
            <Position>
              <LatitudeDegrees>40.40293975733220577239990234375</LatitudeDegrees>
              <LongitudeDegrees>-3.71037106029689311981201171875</LongitudeDegrees>
            </Position>
            <AltitudeMeters>607.20001220703125</AltitudeMeters>
            <DistanceMeters>39446.452195755</DistanceMeters>
          </Trackpoint>
          <Trackpoint>
            <Time>2021-09-26T11:33:19.000Z</Time>
            <Position>
              <LatitudeDegrees>40.4029933176934719085693359375</LatitudeDegrees>
              <LongitudeDegrees>-3.7101614288985729217529296875</LongitudeDegrees>
            </Position>
            <AltitudeMeters>609.5999755859375</AltitudeMeters>
            <DistanceMeters>39465.193429795</DistanceMeters>
          </Trackpoint>
          <Trackpoint>
            <Time>2021-09-26T11:33:26.000Z</Time>
            <Position>
              <LatitudeDegrees>40.40304117836058139801025390625</LatitudeDegrees>
              <LongitudeDegrees>-3.7099716626107692718505859375</LongitudeDegrees>
            </Position>
            <AltitudeMeters>611.4000244140625</AltitudeMeters>
            <DistanceMeters>39482.136455799</DistanceMeters>
          </Trackpoint>
          <Trackpoint>
            <Time>2021-09-26T11:33:34.000Z</Time>
            <Position>
              <LatitudeDegrees>40.40312097407877445220947265625</LatitudeDegrees>
              <LongitudeDegrees>-3.7097540684044361114501953125</LongitudeDegrees>
            </Position>
            <AltitudeMeters>613</AltitudeMeters>
            <DistanceMeters>39502.606277663</DistanceMeters>
          </Trackpoint>
          <Trackpoint>
            <Time>2021-09-26T11:33:42.000Z</Time>
            <Position>
              <LatitudeDegrees>40.403185598552227020263671875</LatitudeDegrees>
              <LongitudeDegrees>-3.70954276062548160552978515625</LongitudeDegrees>
            </Position>
            <AltitudeMeters>614.20001220703125</AltitudeMeters>
            <DistanceMeters>39521.906528526</DistanceMeters>
          </Trackpoint>
          <Trackpoint>
            <Time>2021-09-26T11:33:49.000Z</Time>
            <Position>
              <LatitudeDegrees>40.4032395780086517333984375</LatitudeDegrees>
              <LongitudeDegrees>-3.7093809060752391815185546875</LongitudeDegrees>
            </Position>
            <AltitudeMeters>615</AltitudeMeters>
            <DistanceMeters>39536.882509584</DistanceMeters>
          </Trackpoint>
          <Trackpoint>
            <Time>2021-09-26T11:33:55.000Z</Time>
            <Position>
              <LatitudeDegrees>40.40326547808945178985595703125</LatitudeDegrees>
              <LongitudeDegrees>-3.709276132285594940185546875</LongitudeDegrees>
            </Position>
            <AltitudeMeters>615.4000244140625</AltitudeMeters>
            <DistanceMeters>39546.219337632</DistanceMeters>
          </Trackpoint>
          <Trackpoint>
            <Time>2021-09-26T11:34:01.000Z</Time>
            <Position>
              <LatitudeDegrees>40.403296239674091339111328125</LatitudeDegrees>
              <LongitudeDegrees>-3.7091847695410251617431640625</LongitudeDegrees>
            </Position>
            <AltitudeMeters>615.5999755859375</AltitudeMeters>
            <DistanceMeters>39554.685785931</DistanceMeters>
          </Trackpoint>
          <Trackpoint>
            <Time>2021-09-26T11:34:02.000Z</Time>
            <Position>
              <LatitudeDegrees>40.40330269373953342437744140625</LatitudeDegrees>
              <LongitudeDegrees>-3.70916825719177722930908203125</LongitudeDegrees>
            </Position>
            <AltitudeMeters>615.5999755859375</AltitudeMeters>
            <DistanceMeters>39556.258757942</DistanceMeters>
          </Trackpoint>
          <Trackpoint>
            <Time>2021-09-26T11:34:12.000Z</Time>
            <Position>
              <LatitudeDegrees>40.403359942138195037841796875</LatitudeDegrees>
              <LongitudeDegrees>-3.70894060470163822174072265625</LongitudeDegrees>
            </Position>
            <AltitudeMeters>614.79998779296875</AltitudeMeters>
            <DistanceMeters>39576.578927121</DistanceMeters>
          </Trackpoint>
          <Trackpoint>
            <Time>2021-09-26T11:34:22.000Z</Time>
            <Position>
              <LatitudeDegrees>40.4033852554857730865478515625</LatitudeDegrees>
              <LongitudeDegrees>-3.7087333202362060546875</LongitudeDegrees>
            </Position>
            <AltitudeMeters>614.20001220703125</AltitudeMeters>
            <DistanceMeters>39594.372029159</DistanceMeters>
          </Trackpoint>
          <Trackpoint>
            <Time>2021-09-26T11:34:27.000Z</Time>
            <Position>
              <LatitudeDegrees>40.40340520441532135009765625</LatitudeDegrees>
              <LongitudeDegrees>-3.708641789853572845458984375</LongitudeDegrees>
            </Position>
            <AltitudeMeters>614.4000244140625</AltitudeMeters>
            <DistanceMeters>39602.441470356</DistanceMeters>
          </Trackpoint>
          <Trackpoint>
            <Time>2021-09-26T11:34:30.000Z</Time>
            <Position>
              <LatitudeDegrees>40.40343110449612140655517578125</LatitudeDegrees>
              <LongitudeDegrees>-3.70860147289931774139404296875</LongitudeDegrees>
            </Position>
            <AltitudeMeters>614.4000244140625</AltitudeMeters>
            <DistanceMeters>39606.911767793</DistanceMeters>
          </Trackpoint>
          <Trackpoint>
            <Time>2021-09-26T11:34:37.000Z</Time>
            <Position>
              <LatitudeDegrees>40.4034586809575557708740234375</LatitudeDegrees>
              <LongitudeDegrees>-3.7084900774061679840087890625</LongitudeDegrees>
            </Position>
            <AltitudeMeters>614.4000244140625</AltitudeMeters>
            <DistanceMeters>39616.839672123</DistanceMeters>
          </Trackpoint>
          <Trackpoint>
            <Time>2021-09-26T11:34:47.000Z</Time>
            <Position>
              <LatitudeDegrees>40.4035123251378536224365234375</LatitudeDegrees>
              <LongitudeDegrees>-3.708349764347076416015625</LongitudeDegrees>
            </Position>
            <AltitudeMeters>614.20001220703125</AltitudeMeters>
            <DistanceMeters>39630.146805513</DistanceMeters>
          </Trackpoint>
          <Trackpoint>
            <Time>2021-09-26T11:34:58.000Z</Time>
            <Position>
              <LatitudeDegrees>40.403570495545864105224609375</LatitudeDegrees>
              <LongitudeDegrees>-3.70817885734140872955322265625</LongitudeDegrees>
            </Position>
            <AltitudeMeters>613.4000244140625</AltitudeMeters>
            <DistanceMeters>39646.013136882</DistanceMeters>
          </Trackpoint>
          <Trackpoint>
            <Time>2021-09-26T11:35:01.000Z</Time>
            <Position>
              <LatitudeDegrees>40.403572507202625274658203125</LatitudeDegrees>
              <LongitudeDegrees>-3.70816913433372974395751953125</LongitudeDegrees>
            </Position>
            <AltitudeMeters>613.4000244140625</AltitudeMeters>
            <DistanceMeters>39646.868377311</DistanceMeters>
          </Trackpoint>
          <Trackpoint>
            <Time>2021-09-26T11:35:03.000Z</Time>
            <Position>
              <LatitudeDegrees>40.40356974117457866668701171875</LatitudeDegrees>
              <LongitudeDegrees>-3.70815932750701904296875</LongitudeDegrees>
            </Position>
            <AltitudeMeters>613.20001220703125</AltitudeMeters>
            <DistanceMeters>39647.754727496</DistanceMeters>
          </Trackpoint>
          <Trackpoint>
            <Time>2021-09-26T11:35:04.000Z</Time>
            <Position>
              <LatitudeDegrees>40.40356605313718318939208984375</LatitudeDegrees>
              <LongitudeDegrees>-3.70815387926995754241943359375</LongitudeDegrees>
            </Position>
            <AltitudeMeters>613.20001220703125</AltitudeMeters>
            <DistanceMeters>39648.370570991</DistanceMeters>
          </Trackpoint>
          <Trackpoint>
            <Time>2021-09-26T11:35:25.000Z</Time>
            <Position>
              <LatitudeDegrees>40.40366529487073421478271484375</LatitudeDegrees>
              <LongitudeDegrees>-3.70781072415411472320556640625</LongitudeDegrees>
            </Position>
            <AltitudeMeters>613.5999755859375</AltitudeMeters>
            <DistanceMeters>39679.481916733</DistanceMeters>
          </Trackpoint>
          <Trackpoint>
            <Time>2021-09-26T11:35:27.000Z</Time>
            <Position>
              <LatitudeDegrees>40.40369379334151744842529296875</LatitudeDegrees>
              <LongitudeDegrees>-3.707760684192180633544921875</LongitudeDegrees>
            </Position>
            <AltitudeMeters>613.79998779296875</AltitudeMeters>
            <DistanceMeters>39684.778750459</DistanceMeters>
          </Trackpoint>
          <Trackpoint>
            <Time>2021-09-26T11:35:32.000Z</Time>
            <Position>
              <LatitudeDegrees>40.40376135148108005523681640625</LatitudeDegrees>
              <LongitudeDegrees>-3.707618527114391326904296875</LongitudeDegrees>
            </Position>
            <AltitudeMeters>614.4000244140625</AltitudeMeters>
            <DistanceMeters>39698.981350488</DistanceMeters>
          </Trackpoint>
          <Trackpoint>
            <Time>2021-09-26T11:35:37.000Z</Time>
            <Position>
              <LatitudeDegrees>40.4037919454276561737060546875</LatitudeDegrees>
              <LongitudeDegrees>-3.70748751796782016754150390625</LongitudeDegrees>
            </Position>
            <AltitudeMeters>614.4000244140625</AltitudeMeters>
            <DistanceMeters>39710.595621103</DistanceMeters>
          </Trackpoint>
          <Trackpoint>
            <Time>2021-09-26T11:35:44.000Z</Time>
            <Position>
              <LatitudeDegrees>40.40385154075920581817626953125</LatitudeDegrees>
              <LongitudeDegrees>-3.70728031732141971588134765625</LongitudeDegrees>
            </Position>
            <AltitudeMeters>614</AltitudeMeters>
            <DistanceMeters>39729.367907411</DistanceMeters>
          </Trackpoint>
          <Trackpoint>
            <Time>2021-09-26T11:35:51.000Z</Time>
            <Position>
              <LatitudeDegrees>40.403922535479068756103515625</LatitudeDegrees>
              <LongitudeDegrees>-3.70705895125865936279296875</LongitudeDegrees>
            </Position>
            <AltitudeMeters>612.5999755859375</AltitudeMeters>
            <DistanceMeters>39749.726258244</DistanceMeters>
          </Trackpoint>
          <Trackpoint>
            <Time>2021-09-26T11:35:54.000Z</Time>
            <Position>
              <LatitudeDegrees>40.40394441224634647369384765625</LatitudeDegrees>
              <LongitudeDegrees>-3.70697152800858020782470703125</LongitudeDegrees>
            </Position>
            <AltitudeMeters>612.20001220703125</AltitudeMeters>
            <DistanceMeters>39757.525398897</DistanceMeters>
          </Trackpoint>
          <Trackpoint>
            <Time>2021-09-26T11:35:58.000Z</Time>
            <Position>
              <LatitudeDegrees>40.4039830528199672698974609375</LatitudeDegrees>
              <LongitudeDegrees>-3.7068549357354640960693359375</LongitudeDegrees>
            </Position>
            <AltitudeMeters>612</AltitudeMeters>
            <DistanceMeters>39768.302450591</DistanceMeters>
          </Trackpoint>
          <Trackpoint>
            <Time>2021-09-26T11:36:04.000Z</Time>
            <Position>
              <LatitudeDegrees>40.4040229506790637969970703125</LatitudeDegrees>
              <LongitudeDegrees>-3.7066782452166080474853515625</LongitudeDegrees>
            </Position>
            <AltitudeMeters>611.79998779296875</AltitudeMeters>
            <DistanceMeters>39783.922137059</DistanceMeters>
          </Trackpoint>
          <Trackpoint>
            <Time>2021-09-26T11:36:10.000Z</Time>
            <Position>
              <LatitudeDegrees>40.4040817916393280029296875</LatitudeDegrees>
              <LongitudeDegrees>-3.70651471428573131561279296875</LongitudeDegrees>
            </Position>
            <AltitudeMeters>612.5999755859375</AltitudeMeters>
            <DistanceMeters>39799.251804681</DistanceMeters>
          </Trackpoint>
          <Trackpoint>
            <Time>2021-09-26T11:36:14.000Z</Time>
            <Position>
              <LatitudeDegrees>40.40411054156720638275146484375</LatitudeDegrees>
              <LongitudeDegrees>-3.7064158916473388671875</LongitudeDegrees>
            </Position>
            <AltitudeMeters>613</AltitudeMeters>
            <DistanceMeters>39808.217614209</DistanceMeters>
          </Trackpoint>
          <Trackpoint>
            <Time>2021-09-26T11:36:19.000Z</Time>
            <Position>
              <LatitudeDegrees>40.40416016243398189544677734375</LatitudeDegrees>
              <LongitudeDegrees>-3.706279434263706207275390625</LongitudeDegrees>
            </Position>
            <AltitudeMeters>614.4000244140625</AltitudeMeters>
            <DistanceMeters>39821.034248736</DistanceMeters>
          </Trackpoint>
          <Trackpoint>
            <Time>2021-09-26T11:36:20.000Z</Time>
            <Position>
              <LatitudeDegrees>40.40417055599391460418701171875</LatitudeDegrees>
              <LongitudeDegrees>-3.706253282725811004638671875</LongitudeDegrees>
            </Position>
            <AltitudeMeters>614.5999755859375</AltitudeMeters>
            <DistanceMeters>39823.535816839</DistanceMeters>
          </Trackpoint>
          <Trackpoint>
            <Time>2021-09-26T11:36:26.000Z</Time>
            <Position>
              <LatitudeDegrees>40.4042184166610240936279296875</LatitudeDegrees>
              <LongitudeDegrees>-3.70609444566071033477783203125</LongitudeDegrees>
            </Position>
            <AltitudeMeters>615.79998779296875</AltitudeMeters>
            <DistanceMeters>39838.01390941</DistanceMeters>
          </Trackpoint>
          <Trackpoint>
            <Time>2021-09-26T11:36:27.000Z</Time>
            <Position>
              <LatitudeDegrees>40.40422453545033931732177734375</LatitudeDegrees>
              <LongitudeDegrees>-3.70606946758925914764404296875</LongitudeDegrees>
            </Position>
            <AltitudeMeters>616</AltitudeMeters>
            <DistanceMeters>39840.238427761</DistanceMeters>
          </Trackpoint>
          <Trackpoint>
            <Time>2021-09-26T11:36:30.000Z</Time>
            <Position>
              <LatitudeDegrees>40.404234342277050018310546875</LatitudeDegrees>
              <LongitudeDegrees>-3.70599118061363697052001953125</LongitudeDegrees>
            </Position>
            <AltitudeMeters>616.5999755859375</AltitudeMeters>
            <DistanceMeters>39846.963204547</DistanceMeters>
          </Trackpoint>
          <Trackpoint>
            <Time>2021-09-26T11:36:32.000Z</Time>
            <Position>
              <LatitudeDegrees>40.40425169281661510467529296875</LatitudeDegrees>
              <LongitudeDegrees>-3.70593778789043426513671875</LongitudeDegrees>
            </Position>
            <AltitudeMeters>617</AltitudeMeters>
            <DistanceMeters>39851.884450835</DistanceMeters>
          </Trackpoint>
          <Trackpoint>
            <Time>2021-09-26T11:36:38.000Z</Time>
            <Position>
              <LatitudeDegrees>40.4042573086917400360107421875</LatitudeDegrees>
              <LongitudeDegrees>-3.705765120685100555419921875</LongitudeDegrees>
            </Position>
            <AltitudeMeters>617.4000244140625</AltitudeMeters>
            <DistanceMeters>39866.532133802</DistanceMeters>
          </Trackpoint>
          <Trackpoint>
            <Time>2021-09-26T11:36:45.000Z</Time>
            <Position>
              <LatitudeDegrees>40.40431556291878223419189453125</LatitudeDegrees>
              <LongitudeDegrees>-3.70559505186975002288818359375</LongitudeDegrees>
            </Position>
            <AltitudeMeters>618</AltitudeMeters>
            <DistanceMeters>39882.337450463</DistanceMeters>
          </Trackpoint>
          <Trackpoint>
            <Time>2021-09-26T11:36:51.000Z</Time>
            <Position>
              <LatitudeDegrees>40.40433333255350589752197265625</LatitudeDegrees>
              <LongitudeDegrees>-3.70547242462635040283203125</LongitudeDegrees>
            </Position>
            <AltitudeMeters>617.4000244140625</AltitudeMeters>
            <DistanceMeters>39892.917470671</DistanceMeters>
          </Trackpoint>
          <Trackpoint>
            <Time>2021-09-26T11:36:52.000Z</Time>
            <Position>
              <LatitudeDegrees>40.40433819405734539031982421875</LatitudeDegrees>
              <LongitudeDegrees>-3.70545255951583385467529296875</LongitudeDegrees>
            </Position>
            <AltitudeMeters>617.4000244140625</AltitudeMeters>
            <DistanceMeters>39894.690171041</DistanceMeters>
          </Trackpoint>
          <Trackpoint>
            <Time>2021-09-26T11:36:53.000Z</Time>
            <Position>
              <LatitudeDegrees>40.40434322319924831390380859375</LatitudeDegrees>
              <LongitudeDegrees>-3.7054326944053173065185546875</LongitudeDegrees>
            </Position>
            <AltitudeMeters>617.4000244140625</AltitudeMeters>
            <DistanceMeters>39896.465416567</DistanceMeters>
          </Trackpoint>
          <Trackpoint>
            <Time>2021-09-26T11:36:57.000Z</Time>
            <Position>
              <LatitudeDegrees>40.4043511860072612762451171875</LatitudeDegrees>
              <LongitudeDegrees>-3.7053438462316989898681640625</LongitudeDegrees>
            </Position>
            <AltitudeMeters>617</AltitudeMeters>
            <DistanceMeters>39904.04733365</DistanceMeters>
          </Trackpoint>
          <Trackpoint>
            <Time>2021-09-26T11:36:59.000Z</Time>
            <Position>
              <LatitudeDegrees>40.4043582268059253692626953125</LatitudeDegrees>
              <LongitudeDegrees>-3.70530252344906330108642578125</LongitudeDegrees>
            </Position>
            <AltitudeMeters>617</AltitudeMeters>
            <DistanceMeters>39907.637029888</DistanceMeters>
          </Trackpoint>
          <Trackpoint>
            <Time>2021-09-26T11:37:07.000Z</Time>
            <Position>
              <LatitudeDegrees>40.40441094897687435150146484375</LatitudeDegrees>
              <LongitudeDegrees>-3.70516807772219181060791015625</LongitudeDegrees>
            </Position>
            <AltitudeMeters>617</AltitudeMeters>
            <DistanceMeters>39920.45401669</DistanceMeters>
          </Trackpoint>
          <Trackpoint>
            <Time>2021-09-26T11:37:18.000Z</Time>
            <Position>
              <LatitudeDegrees>40.40445738472044467926025390625</LatitudeDegrees>
              <LongitudeDegrees>-3.7049596197903156280517578125</LongitudeDegrees>
            </Position>
            <AltitudeMeters>617.5999755859375</AltitudeMeters>
            <DistanceMeters>39938.862239</DistanceMeters>
          </Trackpoint>
          <Trackpoint>
            <Time>2021-09-26T11:37:21.000Z</Time>
            <Position>
              <LatitudeDegrees>40.40447498671710491180419921875</LatitudeDegrees>
              <LongitudeDegrees>-3.70490957982838153839111328125</LongitudeDegrees>
            </Position>
            <AltitudeMeters>618</AltitudeMeters>
            <DistanceMeters>39943.533070263</DistanceMeters>
          </Trackpoint>
          <Trackpoint>
            <Time>2021-09-26T11:37:24.000Z</Time>
            <Position>
              <LatitudeDegrees>40.404513962566852569580078125</LatitudeDegrees>
              <LongitudeDegrees>-3.70487923733890056610107421875</LongitudeDegrees>
            </Position>
            <AltitudeMeters>618.4000244140625</AltitudeMeters>
            <DistanceMeters>39948.575757569</DistanceMeters>
          </Trackpoint>
          <Trackpoint>
            <Time>2021-09-26T11:37:26.000Z</Time>
            <Position>
              <LatitudeDegrees>40.404522009193897247314453125</LatitudeDegrees>
              <LongitudeDegrees>-3.7048486433923244476318359375</LongitudeDegrees>
            </Position>
            <AltitudeMeters>618.4000244140625</AltitudeMeters>
            <DistanceMeters>39951.32003958</DistanceMeters>
          </Trackpoint>
          <Trackpoint>
            <Time>2021-09-26T11:37:29.000Z</Time>
            <Position>
              <LatitudeDegrees>40.40452242828905582427978515625</LatitudeDegrees>
              <LongitudeDegrees>-3.70480321347713470458984375</LongitudeDegrees>
            </Position>
            <AltitudeMeters>618.5999755859375</AltitudeMeters>
            <DistanceMeters>39955.170674011</DistanceMeters>
          </Trackpoint>
          <Trackpoint>
            <Time>2021-09-26T11:37:31.000Z</Time>
            <Position>
              <LatitudeDegrees>40.404524691402912139892578125</LatitudeDegrees>
              <LongitudeDegrees>-3.704776726663112640380859375</LongitudeDegrees>
            </Position>
            <AltitudeMeters>618.79998779296875</AltitudeMeters>
            <DistanceMeters>39957.429433226</DistanceMeters>
          </Trackpoint>
          <Trackpoint>
            <Time>2021-09-26T11:37:35.000Z</Time>
            <Position>
              <LatitudeDegrees>40.4045375995337963104248046875</LatitudeDegrees>
              <LongitudeDegrees>-3.7046992778778076171875</LongitudeDegrees>
            </Position>
            <AltitudeMeters>618.79998779296875</AltitudeMeters>
            <DistanceMeters>39964.149508545</DistanceMeters>
          </Trackpoint>
          <Trackpoint>
            <Time>2021-09-26T11:37:46.000Z</Time>
            <Position>
              <LatitudeDegrees>40.4045831970870494842529296875</LatitudeDegrees>
              <LongitudeDegrees>-3.70449199341237545013427734375</LongitudeDegrees>
            </Position>
            <AltitudeMeters>619.20001220703125</AltitudeMeters>
            <DistanceMeters>39982.436164633</DistanceMeters>
          </Trackpoint>
          <Trackpoint>
            <Time>2021-09-26T11:37:56.000Z</Time>
            <Position>
              <LatitudeDegrees>40.40459954179823398590087890625</LatitudeDegrees>
              <LongitudeDegrees>-3.704286552965641021728515625</LongitudeDegrees>
            </Position>
            <AltitudeMeters>618.5999755859375</AltitudeMeters>
            <DistanceMeters>39999.943273322</DistanceMeters>
          </Trackpoint>
          <Trackpoint>
            <Time>2021-09-26T11:38:06.000Z</Time>
            <Position>
              <LatitudeDegrees>40.40465318597853183746337890625</LatitudeDegrees>
              <LongitudeDegrees>-3.7041016481816768646240234375</LongitudeDegrees>
            </Position>
            <AltitudeMeters>618.79998779296875</AltitudeMeters>
            <DistanceMeters>40016.71380584</DistanceMeters>
          </Trackpoint>
          <Trackpoint>
            <Time>2021-09-26T11:38:16.000Z</Time>
            <Position>
              <LatitudeDegrees>40.4047121107578277587890625</LatitudeDegrees>
              <LongitudeDegrees>-3.7039308249950408935546875</LongitudeDegrees>
            </Position>
            <AltitudeMeters>619</AltitudeMeters>
            <DistanceMeters>40032.608000333</DistanceMeters>
          </Trackpoint>
          <Trackpoint>
            <Time>2021-09-26T11:38:26.000Z</Time>
            <Position>
              <LatitudeDegrees>40.4047732986509799957275390625</LatitudeDegrees>
              <LongitudeDegrees>-3.70372756384313106536865234375</LongitudeDegrees>
            </Position>
            <AltitudeMeters>617.79998779296875</AltitudeMeters>
            <DistanceMeters>40051.132604648</DistanceMeters>
          </Trackpoint>
          <Trackpoint>
            <Time>2021-09-26T11:38:35.000Z</Time>
            <Position>
              <LatitudeDegrees>40.4048328101634979248046875</LatitudeDegrees>
              <LongitudeDegrees>-3.7035628594458103179931640625</LongitudeDegrees>
            </Position>
            <AltitudeMeters>616.79998779296875</AltitudeMeters>
            <DistanceMeters>40066.584018535</DistanceMeters>
          </Trackpoint>
          <Trackpoint>
            <Time>2021-09-26T11:38:41.000Z</Time>
            <Position>
              <LatitudeDegrees>40.404875390231609344482421875</LatitudeDegrees>
              <LongitudeDegrees>-3.7034776993095874786376953125</LongitudeDegrees>
            </Position>
            <AltitudeMeters>616.20001220703125</AltitudeMeters>
            <DistanceMeters>40075.218386556</DistanceMeters>
          </Trackpoint>
          <Trackpoint>
            <Time>2021-09-26T11:38:42.000Z</Time>
            <Position>
              <LatitudeDegrees>40.4048825986683368682861328125</LatitudeDegrees>
              <LongitudeDegrees>-3.703460432589054107666015625</LongitudeDegrees>
            </Position>
            <AltitudeMeters>616.20001220703125</AltitudeMeters>
            <DistanceMeters>40076.886098625</DistanceMeters>
          </Trackpoint>
          <Trackpoint>
            <Time>2021-09-26T11:38:50.000Z</Time>
            <Position>
              <LatitudeDegrees>40.40491788648068904876708984375</LatitudeDegrees>
              <LongitudeDegrees>-3.70329069904983043670654296875</LongitudeDegrees>
            </Position>
            <AltitudeMeters>615.4000244140625</AltitudeMeters>
            <DistanceMeters>40091.798330601</DistanceMeters>
          </Trackpoint>
          <Trackpoint>
            <Time>2021-09-26T11:38:59.000Z</Time>
            <Position>
              <LatitudeDegrees>40.40493314154446125030517578125</LatitudeDegrees>
              <LongitudeDegrees>-3.7031328678131103515625</LongitudeDegrees>
            </Position>
            <AltitudeMeters>615</AltitudeMeters>
            <DistanceMeters>40105.282082272</DistanceMeters>
          </Trackpoint>
          <Trackpoint>
            <Time>2021-09-26T11:39:07.000Z</Time>
            <Position>
              <LatitudeDegrees>40.40496063418686389923095703125</LatitudeDegrees>
              <LongitudeDegrees>-3.702984340488910675048828125</LongitudeDegrees>
            </Position>
            <AltitudeMeters>615</AltitudeMeters>
            <DistanceMeters>40118.237119933</DistanceMeters>
          </Trackpoint>
          <Trackpoint>
            <Time>2021-09-26T11:39:18.000Z</Time>
            <Position>
              <LatitudeDegrees>40.40501813404262065887451171875</LatitudeDegrees>
              <LongitudeDegrees>-3.70279666967689990997314453125</LongitudeDegrees>
            </Position>
            <AltitudeMeters>615.20001220703125</AltitudeMeters>
            <DistanceMeters>40135.382003963</DistanceMeters>
          </Trackpoint>
          <Trackpoint>
            <Time>2021-09-26T11:39:22.000Z</Time>
            <Position>
              <LatitudeDegrees>40.40503405965864658355712890625</LatitudeDegrees>
              <LongitudeDegrees>-3.702729530632495880126953125</LongitudeDegrees>
            </Position>
            <AltitudeMeters>615.4000244140625</AltitudeMeters>
            <DistanceMeters>40141.342232208</DistanceMeters>
          </Trackpoint>
          <Trackpoint>
            <Time>2021-09-26T11:39:31.000Z</Time>
            <Position>
              <LatitudeDegrees>40.40508217178285121917724609375</LatitudeDegrees>
              <LongitudeDegrees>-3.7025530077517032623291015625</LongitudeDegrees>
            </Position>
            <AltitudeMeters>616</AltitudeMeters>
            <DistanceMeters>40157.232449246</DistanceMeters>
          </Trackpoint>
          <Trackpoint>
            <Time>2021-09-26T11:39:39.000Z</Time>
            <Position>
              <LatitudeDegrees>40.40511603467166423797607421875</LatitudeDegrees>
              <LongitudeDegrees>-3.70240070857107639312744140625</LongitudeDegrees>
            </Position>
            <AltitudeMeters>616</AltitudeMeters>
            <DistanceMeters>40170.679316937</DistanceMeters>
          </Trackpoint>
          <Trackpoint>
            <Time>2021-09-26T11:39:47.000Z</Time>
            <Position>
              <LatitudeDegrees>40.405110083520412445068359375</LatitudeDegrees>
              <LongitudeDegrees>-3.70221764780580997467041015625</LongitudeDegrees>
            </Position>
            <AltitudeMeters>616.79998779296875</AltitudeMeters>
            <DistanceMeters>40186.208554572</DistanceMeters>
          </Trackpoint>
          <Trackpoint>
            <Time>2021-09-26T11:39:54.000Z</Time>
            <Position>
              <LatitudeDegrees>40.405143611133098602294921875</LatitudeDegrees>
              <LongitudeDegrees>-3.7020886503159999847412109375</LongitudeDegrees>
            </Position>
            <AltitudeMeters>617.20001220703125</AltitudeMeters>
            <DistanceMeters>40197.760848706</DistanceMeters>
          </Trackpoint>
          <Trackpoint>
            <Time>2021-09-26T11:40:02.000Z</Time>
            <Position>
              <LatitudeDegrees>40.40518996305763721466064453125</LatitudeDegrees>
              <LongitudeDegrees>-3.70194389484822750091552734375</LongitudeDegrees>
            </Position>
            <AltitudeMeters>617.79998779296875</AltitudeMeters>
            <DistanceMeters>40211.070017708</DistanceMeters>
          </Trackpoint>
          <Trackpoint>
            <Time>2021-09-26T11:40:09.000Z</Time>
            <Position>
              <LatitudeDegrees>40.40523304603993892669677734375</LatitudeDegrees>
              <LongitudeDegrees>-3.7018241174519062042236328125</LongitudeDegrees>
            </Position>
            <AltitudeMeters>618.4000244140625</AltitudeMeters>
            <DistanceMeters>40222.297656247</DistanceMeters>
          </Trackpoint>
          <Trackpoint>
            <Time>2021-09-26T11:40:20.000Z</Time>
            <Position>
              <LatitudeDegrees>40.4052829183638095855712890625</LatitudeDegrees>
              <LongitudeDegrees>-3.70162320323288440704345703125</LongitudeDegrees>
            </Position>
            <AltitudeMeters>619.79998779296875</AltitudeMeters>
            <DistanceMeters>40240.207860197</DistanceMeters>
          </Trackpoint>
          <Trackpoint>
            <Time>2021-09-26T11:40:30.000Z</Time>
            <Position>
              <LatitudeDegrees>40.40534569881856441497802734375</LatitudeDegrees>
              <LongitudeDegrees>-3.70143461041152477264404296875</LongitudeDegrees>
            </Position>
            <AltitudeMeters>621</AltitudeMeters>
            <DistanceMeters>40257.652446066</DistanceMeters>
          </Trackpoint>
          <Trackpoint>
            <Time>2021-09-26T11:40:39.000Z</Time>
            <Position>
              <LatitudeDegrees>40.40539699606597423553466796875</LatitudeDegrees>
              <LongitudeDegrees>-3.70125892572104930877685546875</LongitudeDegrees>
            </Position>
            <AltitudeMeters>621.20001220703125</AltitudeMeters>
            <DistanceMeters>40273.599389749</DistanceMeters>
          </Trackpoint>
          <Trackpoint>
            <Time>2021-09-26T11:40:49.000Z</Time>
            <Position>
              <LatitudeDegrees>40.40545332245528697967529296875</LatitudeDegrees>
              <LongitudeDegrees>-3.70105608366429805755615234375</LongitudeDegrees>
            </Position>
            <AltitudeMeters>621.5999755859375</AltitudeMeters>
            <DistanceMeters>40291.898386844</DistanceMeters>
          </Trackpoint>
          <Trackpoint>
            <Time>2021-09-26T11:40:53.000Z</Time>
            <Position>
              <LatitudeDegrees>40.4054693318903446197509765625</LatitudeDegrees>
              <LongitudeDegrees>-3.70096270926296710968017578125</LongitudeDegrees>
            </Position>
            <AltitudeMeters>622</AltitudeMeters>
            <DistanceMeters>40300.009683718</DistanceMeters>
          </Trackpoint>
          <Trackpoint>
            <Time>2021-09-26T11:41:01.000Z</Time>
            <Position>
              <LatitudeDegrees>40.4055330343544483184814453125</LatitudeDegrees>
              <LongitudeDegrees>-3.70077931322157382965087890625</LongitudeDegrees>
            </Position>
            <AltitudeMeters>622</AltitudeMeters>
            <DistanceMeters>40317.093890776</DistanceMeters>
          </Trackpoint>
          <Trackpoint>
            <Time>2021-09-26T11:41:08.000Z</Time>
            <Position>
              <LatitudeDegrees>40.405609309673309326171875</LatitudeDegrees>
              <LongitudeDegrees>-3.70059222914278507232666015625</LongitudeDegrees>
            </Position>
            <AltitudeMeters>622.5999755859375</AltitudeMeters>
            <DistanceMeters>40335.079814676</DistanceMeters>
          </Trackpoint>
          <Trackpoint>
            <Time>2021-09-26T11:41:14.000Z</Time>
            <Position>
              <LatitudeDegrees>40.40565582923591136932373046875</LatitudeDegrees>
              <LongitudeDegrees>-3.70044236071407794952392578125</LongitudeDegrees>
            </Position>
            <AltitudeMeters>623.20001220703125</AltitudeMeters>
            <DistanceMeters>40348.796617248</DistanceMeters>
          </Trackpoint>
          <Trackpoint>
            <Time>2021-09-26T11:41:16.000Z</Time>
            <Position>
              <LatitudeDegrees>40.4056681506335735321044921875</LatitudeDegrees>
              <LongitudeDegrees>-3.700394332408905029296875</LongitudeDegrees>
            </Position>
            <AltitudeMeters>623.20001220703125</AltitudeMeters>
            <DistanceMeters>40353.092833752</DistanceMeters>
          </Trackpoint>
          <Trackpoint>
            <Time>2021-09-26T11:41:23.000Z</Time>
            <Position>
              <LatitudeDegrees>40.4057117365300655364990234375</LatitudeDegrees>
              <LongitudeDegrees>-3.7002268619835376739501953125</LongitudeDegrees>
            </Position>
            <AltitudeMeters>623.5999755859375</AltitudeMeters>
            <DistanceMeters>40368.09261324</DistanceMeters>
          </Trackpoint>
          <Trackpoint>
            <Time>2021-09-26T11:41:30.000Z</Time>
            <Position>
              <LatitudeDegrees>40.40577133186161518096923828125</LatitudeDegrees>
              <LongitudeDegrees>-3.70006567798554897308349609375</LongitudeDegrees>
            </Position>
            <AltitudeMeters>624.4000244140625</AltitudeMeters>
            <DistanceMeters>40383.278762268</DistanceMeters>
          </Trackpoint>
          <Trackpoint>
            <Time>2021-09-26T11:41:39.000Z</Time>
            <Position>
              <LatitudeDegrees>40.40584777481853961944580078125</LatitudeDegrees>
              <LongitudeDegrees>-3.6998282186686992645263671875</LongitudeDegrees>
            </Position>
            <AltitudeMeters>625.4000244140625</AltitudeMeters>
            <DistanceMeters>40405.128708299</DistanceMeters>
          </Trackpoint>
          <Trackpoint>
            <Time>2021-09-26T11:41:46.000Z</Time>
            <Position>
              <LatitudeDegrees>40.4058944620192050933837890625</LatitudeDegrees>
              <LongitudeDegrees>-3.69963585399091243743896484375</LongitudeDegrees>
            </Position>
            <AltitudeMeters>625.5999755859375</AltitudeMeters>
            <DistanceMeters>40422.24037855</DistanceMeters>
          </Trackpoint>
          <Trackpoint>
            <Time>2021-09-26T11:41:54.000Z</Time>
            <Position>
              <LatitudeDegrees>40.40594751946628093719482421875</LatitudeDegrees>
              <LongitudeDegrees>-3.69942630641162395477294921875</LongitudeDegrees>
            </Position>
            <AltitudeMeters>625.79998779296875</AltitudeMeters>
            <DistanceMeters>40440.956540695</DistanceMeters>
          </Trackpoint>
          <Trackpoint>
            <Time>2021-09-26T11:42:03.000Z</Time>
            <Position>
              <LatitudeDegrees>40.40601876564323902130126953125</LatitudeDegrees>
              <LongitudeDegrees>-3.69920267723500728607177734375</LongitudeDegrees>
            </Position>
            <AltitudeMeters>626</AltitudeMeters>
            <DistanceMeters>40461.501659173</DistanceMeters>
          </Trackpoint>
          <Trackpoint>
            <Time>2021-09-26T11:42:08.000Z</Time>
            <Position>
              <LatitudeDegrees>40.40605916641652584075927734375</LatitudeDegrees>
              <LongitudeDegrees>-3.69907896034419536590576171875</LongitudeDegrees>
            </Position>
            <AltitudeMeters>625.4000244140625</AltitudeMeters>
            <DistanceMeters>40472.910406776</DistanceMeters>
          </Trackpoint>
          <Trackpoint>
            <Time>2021-09-26T11:42:12.000Z</Time>
            <Position>
              <LatitudeDegrees>40.4060936160385608673095703125</LatitudeDegrees>
              <LongitudeDegrees>-3.698977790772914886474609375</LongitudeDegrees>
            </Position>
            <AltitudeMeters>625.20001220703125</AltitudeMeters>
            <DistanceMeters>40482.303161795</DistanceMeters>
          </Trackpoint>
          <Trackpoint>
            <Time>2021-09-26T11:42:15.000Z</Time>
            <Position>
              <LatitudeDegrees>40.4061090387403964996337890625</LatitudeDegrees>
              <LongitudeDegrees>-3.69890637695789337158203125</LongitudeDegrees>
            </Position>
            <AltitudeMeters>625</AltitudeMeters>
            <DistanceMeters>40488.595049837</DistanceMeters>
          </Trackpoint>
          <Trackpoint>
            <Time>2021-09-26T11:42:17.000Z</Time>
            <Position>
              <LatitudeDegrees>40.40612169541418552398681640625</LatitudeDegrees>
              <LongitudeDegrees>-3.69886480271816253662109375</LongitudeDegrees>
            </Position>
            <AltitudeMeters>625.20001220703125</AltitudeMeters>
            <DistanceMeters>40492.388984714</DistanceMeters>
          </Trackpoint>
          <Trackpoint>
            <Time>2021-09-26T11:42:21.000Z</Time>
            <Position>
              <LatitudeDegrees>40.40614373981952667236328125</LatitudeDegrees>
              <LongitudeDegrees>-3.69878433644771575927734375</LongitudeDegrees>
            </Position>
            <AltitudeMeters>625.4000244140625</AltitudeMeters>
            <DistanceMeters>40499.637224828</DistanceMeters>
          </Trackpoint>
          <Trackpoint>
            <Time>2021-09-26T11:42:24.000Z</Time>
            <Position>
              <LatitudeDegrees>40.40615756995975971221923828125</LatitudeDegrees>
              <LongitudeDegrees>-3.69872306473553180694580078125</LongitudeDegrees>
            </Position>
            <AltitudeMeters>625.5999755859375</AltitudeMeters>
            <DistanceMeters>40505.052913916</DistanceMeters>
          </Trackpoint>
          <Trackpoint>
            <Time>2021-09-26T11:42:27.000Z</Time>
            <Position>
              <LatitudeDegrees>40.40618120692670345306396484375</LatitudeDegrees>
              <LongitudeDegrees>-3.69865517131984233856201171875</LongitudeDegrees>
            </Position>
            <AltitudeMeters>625.79998779296875</AltitudeMeters>
            <DistanceMeters>40511.380580069</DistanceMeters>
          </Trackpoint>
          <Trackpoint>
            <Time>2021-09-26T11:42:32.000Z</Time>
            <Position>
              <LatitudeDegrees>40.406231917440891265869140625</LatitudeDegrees>
              <LongitudeDegrees>-3.698554672300815582275390625</LongitudeDegrees>
            </Position>
            <AltitudeMeters>626.20001220703125</AltitudeMeters>
            <DistanceMeters>40521.598051076</DistanceMeters>
          </Trackpoint>
          <Trackpoint>
            <Time>2021-09-26T11:42:44.000Z</Time>
            <Position>
              <LatitudeDegrees>40.4062693007290363311767578125</LatitudeDegrees>
              <LongitudeDegrees>-3.69835141114890575408935546875</LongitudeDegrees>
            </Position>
            <AltitudeMeters>627.20001220703125</AltitudeMeters>
            <DistanceMeters>40539.320214849</DistanceMeters>
          </Trackpoint>
          <Trackpoint>
            <Time>2021-09-26T11:42:47.000Z</Time>
            <Position>
              <LatitudeDegrees>40.4062853939831256866455078125</LatitudeDegrees>
              <LongitudeDegrees>-3.69830422103404998779296875</LongitudeDegrees>
            </Position>
            <AltitudeMeters>627.4000244140625</AltitudeMeters>
            <DistanceMeters>40543.701760526</DistanceMeters>
          </Trackpoint>
          <Trackpoint>
            <Time>2021-09-26T11:42:54.000Z</Time>
            <Position>
              <LatitudeDegrees>40.4063450731337070465087890625</LatitudeDegrees>
              <LongitudeDegrees>-3.6981927417218685150146484375</LongitudeDegrees>
            </Position>
            <AltitudeMeters>627.79998779296875</AltitudeMeters>
            <DistanceMeters>40555.251318493</DistanceMeters>
          </Trackpoint>
          <Trackpoint>
            <Time>2021-09-26T11:43:03.000Z</Time>
            <Position>
              <LatitudeDegrees>40.40639645420014858245849609375</LatitudeDegrees>
              <LongitudeDegrees>-3.6980341561138629913330078125</LongitudeDegrees>
            </Position>
            <AltitudeMeters>628.4000244140625</AltitudeMeters>
            <DistanceMeters>40569.857638565</DistanceMeters>
          </Trackpoint>
          <Trackpoint>
            <Time>2021-09-26T11:43:07.000Z</Time>
            <Position>
              <LatitudeDegrees>40.4063799418509006500244140625</LatitudeDegrees>
              <LongitudeDegrees>-3.69794472120702266693115234375</LongitudeDegrees>
            </Position>
            <AltitudeMeters>628.20001220703125</AltitudeMeters>
            <DistanceMeters>40577.656779219</DistanceMeters>
          </Trackpoint>
          <Trackpoint>
            <Time>2021-09-26T11:43:13.000Z</Time>
            <Position>
              <LatitudeDegrees>40.406383462250232696533203125</LatitudeDegrees>
              <LongitudeDegrees>-3.69782544672489166259765625</LongitudeDegrees>
            </Position>
            <AltitudeMeters>628.20001220703125</AltitudeMeters>
            <DistanceMeters>40587.773889305</DistanceMeters>
          </Trackpoint>
          <Trackpoint>
            <Time>2021-09-26T11:43:19.000Z</Time>
            <Position>
              <LatitudeDegrees>40.40639746002852916717529296875</LatitudeDegrees>
              <LongitudeDegrees>-3.69773953221738338470458984375</LongitudeDegrees>
            </Position>
            <AltitudeMeters>628</AltitudeMeters>
            <DistanceMeters>40595.220007042</DistanceMeters>
          </Trackpoint>
          <Trackpoint>
            <Time>2021-09-26T11:43:27.000Z</Time>
            <Position>
              <LatitudeDegrees>40.4064325802028179168701171875</LatitudeDegrees>
              <LongitudeDegrees>-3.6975966207683086395263671875</LongitudeDegrees>
            </Position>
            <AltitudeMeters>628</AltitudeMeters>
            <DistanceMeters>40607.947202776</DistanceMeters>
          </Trackpoint>
          <Trackpoint>
            <Time>2021-09-26T11:43:28.000Z</Time>
            <Position>
              <LatitudeDegrees>40.40644004009664058685302734375</LatitudeDegrees>
              <LongitudeDegrees>-3.6975697986781597137451171875</LongitudeDegrees>
            </Position>
            <AltitudeMeters>628</AltitudeMeters>
            <DistanceMeters>40610.368053786</DistanceMeters>
          </Trackpoint>
          <Trackpoint>
            <Time>2021-09-26T11:43:35.000Z</Time>
            <Position>
              <LatitudeDegrees>40.40647624991834163665771484375</LatitudeDegrees>
              <LongitudeDegrees>-3.69736947119235992431640625</LongitudeDegrees>
            </Position>
            <AltitudeMeters>628</AltitudeMeters>
            <DistanceMeters>40627.818332805</DistanceMeters>
          </Trackpoint>
          <Trackpoint>
            <Time>2021-09-26T11:43:43.000Z</Time>
            <Position>
              <LatitudeDegrees>40.406561158597469329833984375</LatitudeDegrees>
              <LongitudeDegrees>-3.6971517093479633331298828125</LongitudeDegrees>
            </Position>
            <AltitudeMeters>627.5999755859375</AltitudeMeters>
            <DistanceMeters>40648.553327371</DistanceMeters>
          </Trackpoint>
          <Trackpoint>
            <Time>2021-09-26T11:43:49.000Z</Time>
            <Position>
              <LatitudeDegrees>40.40661505423486232757568359375</LatitudeDegrees>
              <LongitudeDegrees>-3.69698951952159404754638671875</LongitudeDegrees>
            </Position>
            <AltitudeMeters>627</AltitudeMeters>
            <DistanceMeters>40663.551300708</DistanceMeters>
          </Trackpoint>
          <Trackpoint>
            <Time>2021-09-26T11:43:57.000Z</Time>
            <Position>
              <LatitudeDegrees>40.40670641697943210601806640625</LatitudeDegrees>
              <LongitudeDegrees>-3.69679690338671207427978515625</LongitudeDegrees>
            </Position>
            <AltitudeMeters>627.5999755859375</AltitudeMeters>
            <DistanceMeters>40682.784294533</DistanceMeters>
          </Trackpoint>
          <Trackpoint>
            <Time>2021-09-26T11:44:04.000Z</Time>
            <Position>
              <LatitudeDegrees>40.40677405893802642822265625</LatitudeDegrees>
              <LongitudeDegrees>-3.69661333970725536346435546875</LongitudeDegrees>
            </Position>
            <AltitudeMeters>629.20001220703125</AltitudeMeters>
            <DistanceMeters>40700.067927219</DistanceMeters>
          </Trackpoint>
          <Trackpoint>
            <Time>2021-09-26T11:44:12.000Z</Time>
            <Position>
              <LatitudeDegrees>40.4068352468311786651611328125</LatitudeDegrees>
              <LongitudeDegrees>-3.69639105163514614105224609375</LongitudeDegrees>
            </Position>
            <AltitudeMeters>631.5999755859375</AltitudeMeters>
            <DistanceMeters>40720.100315923</DistanceMeters>
          </Trackpoint>
          <Trackpoint>
            <Time>2021-09-26T11:44:19.000Z</Time>
            <Position>
              <LatitudeDegrees>40.4068707861006259918212890625</LatitudeDegrees>
              <LongitudeDegrees>-3.696207068860530853271484375</LongitudeDegrees>
            </Position>
            <AltitudeMeters>633.5999755859375</AltitudeMeters>
            <DistanceMeters>40736.187078516</DistanceMeters>
          </Trackpoint>
          <Trackpoint>
            <Time>2021-09-26T11:44:26.000Z</Time>
            <Position>
              <LatitudeDegrees>40.40690825320780277252197265625</LatitudeDegrees>
              <LongitudeDegrees>-3.69602995924651622772216796875</LongitudeDegrees>
            </Position>
            <AltitudeMeters>634.79998779296875</AltitudeMeters>
            <DistanceMeters>40751.766243919</DistanceMeters>
          </Trackpoint>
          <Trackpoint>
            <Time>2021-09-26T11:44:31.000Z</Time>
            <Position>
              <LatitudeDegrees>40.4069249331951141357421875</LatitudeDegrees>
              <LongitudeDegrees>-3.69591764174401760101318359375</LongitudeDegrees>
            </Position>
            <AltitudeMeters>635</AltitudeMeters>
            <DistanceMeters>40761.464556981</DistanceMeters>
          </Trackpoint>
          <Trackpoint>
            <Time>2021-09-26T11:44:32.000Z</Time>
            <Position>
              <LatitudeDegrees>40.4069371707737445831298828125</LatitudeDegrees>
              <LongitudeDegrees>-3.69590506888926029205322265625</LongitudeDegrees>
            </Position>
            <AltitudeMeters>635</AltitudeMeters>
            <DistanceMeters>40763.193416519</DistanceMeters>
          </Trackpoint>
          <Trackpoint>
            <Time>2021-09-26T11:44:35.000Z</Time>
            <Position>
              <LatitudeDegrees>40.40697212330996990203857421875</LatitudeDegrees>
              <LongitudeDegrees>-3.69585108943283557891845703125</LongitudeDegrees>
            </Position>
            <AltitudeMeters>635</AltitudeMeters>
            <DistanceMeters>40769.198924434</DistanceMeters>
          </Trackpoint>
          <Trackpoint>
            <Time>2021-09-26T11:44:40.000Z</Time>
            <Position>
              <LatitudeDegrees>40.4070089198648929595947265625</LatitudeDegrees>
              <LongitudeDegrees>-3.69573491625487804412841796875</LongitudeDegrees>
            </Position>
            <AltitudeMeters>634.79998779296875</AltitudeMeters>
            <DistanceMeters>40779.862259868</DistanceMeters>
          </Trackpoint>
          <Trackpoint>
            <Time>2021-09-26T11:44:43.000Z</Time>
            <Position>
              <LatitudeDegrees>40.4070216603577136993408203125</LatitudeDegrees>
              <LongitudeDegrees>-3.69567892514169216156005859375</LongitudeDegrees>
            </Position>
            <AltitudeMeters>635</AltitudeMeters>
            <DistanceMeters>40784.815513112</DistanceMeters>
          </Trackpoint>
          <Trackpoint>
            <Time>2021-09-26T11:44:51.000Z</Time>
            <Position>
              <LatitudeDegrees>40.40705493651330471038818359375</LatitudeDegrees>
              <LongitudeDegrees>-3.69551002979278564453125</LongitudeDegrees>
            </Position>
            <AltitudeMeters>635</AltitudeMeters>
            <DistanceMeters>40799.60155994</DistanceMeters>
          </Trackpoint>
          <Trackpoint>
            <Time>2021-09-26T11:45:00.000Z</Time>
            <Position>
              <LatitudeDegrees>40.4070582054555416107177734375</LatitudeDegrees>
              <LongitudeDegrees>-3.69532269425690174102783203125</LongitudeDegrees>
            </Position>
            <AltitudeMeters>634.4000244140625</AltitudeMeters>
            <DistanceMeters>40815.482681911</DistanceMeters>
          </Trackpoint>
          <Trackpoint>
            <Time>2021-09-26T11:45:10.000Z</Time>
            <Position>
              <LatitudeDegrees>40.4070724546909332275390625</LatitudeDegrees>
              <LongitudeDegrees>-3.6950937844812870025634765625</LongitudeDegrees>
            </Position>
            <AltitudeMeters>633.20001220703125</AltitudeMeters>
            <DistanceMeters>40834.948087317</DistanceMeters>
          </Trackpoint>
          <Trackpoint>
            <Time>2021-09-26T11:45:11.000Z</Time>
            <Position>
              <LatitudeDegrees>40.40708276443183422088623046875</LatitudeDegrees>
              <LongitudeDegrees>-3.69506855495274066925048828125</LongitudeDegrees>
            </Position>
            <AltitudeMeters>633.20001220703125</AltitudeMeters>
            <DistanceMeters>40837.374527063</DistanceMeters>
          </Trackpoint>
          <Trackpoint>
            <Time>2021-09-26T11:45:18.000Z</Time>
            <Position>
              <LatitudeDegrees>40.4071207344532012939453125</LatitudeDegrees>
              <LongitudeDegrees>-3.69492203928530216217041015625</LongitudeDegrees>
            </Position>
            <AltitudeMeters>632.5999755859375</AltitudeMeters>
            <DistanceMeters>40850.491656191</DistanceMeters>
          </Trackpoint>
          <Trackpoint>
            <Time>2021-09-26T11:45:19.000Z</Time>
            <Position>
              <LatitudeDegrees>40.4071299545466899871826171875</LatitudeDegrees>
              <LongitudeDegrees>-3.6949051916599273681640625</LongitudeDegrees>
            </Position>
            <AltitudeMeters>632.4000244140625</AltitudeMeters>
            <DistanceMeters>40852.25157557</DistanceMeters>
          </Trackpoint>
          <Trackpoint>
            <Time>2021-09-26T11:45:28.000Z</Time>
            <Position>
              <LatitudeDegrees>40.40718854404985904693603515625</LatitudeDegrees>
              <LongitudeDegrees>-3.69475909508764743804931640625</LongitudeDegrees>
            </Position>
            <AltitudeMeters>632</AltitudeMeters>
            <DistanceMeters>40866.246013676</DistanceMeters>
          </Trackpoint>
          <Trackpoint>
            <Time>2021-09-26T11:45:35.000Z</Time>
            <Position>
              <LatitudeDegrees>40.40721083991229534149169921875</LatitudeDegrees>
              <LongitudeDegrees>-3.6946364678442478179931640625</LongitudeDegrees>
            </Position>
            <AltitudeMeters>632.20001220703125</AltitudeMeters>
            <DistanceMeters>40876.931344114</DistanceMeters>
          </Trackpoint>
          <Trackpoint>
            <Time>2021-09-26T11:45:45.000Z</Time>
            <Position>
              <LatitudeDegrees>40.4072721116244792938232421875</LatitudeDegrees>
              <LongitudeDegrees>-3.69442708790302276611328125</LongitudeDegrees>
            </Position>
            <AltitudeMeters>632.79998779296875</AltitudeMeters>
            <DistanceMeters>40895.942150238</DistanceMeters>
          </Trackpoint>
          <Trackpoint>
            <Time>2021-09-26T11:45:53.000Z</Time>
            <Position>
              <LatitudeDegrees>40.40730387903749942779541015625</LatitudeDegrees>
              <LongitudeDegrees>-3.694257102906703948974609375</LongitudeDegrees>
            </Position>
            <AltitudeMeters>633.20001220703125</AltitudeMeters>
            <DistanceMeters>40910.776365178</DistanceMeters>
          </Trackpoint>
          <Trackpoint>
            <Time>2021-09-26T11:46:00.000Z</Time>
            <Position>
              <LatitudeDegrees>40.4073368199169635772705078125</LatitudeDegrees>
              <LongitudeDegrees>-3.69412408210337162017822265625</LongitudeDegrees>
            </Position>
            <AltitudeMeters>633.79998779296875</AltitudeMeters>
            <DistanceMeters>40922.631495281</DistanceMeters>
          </Trackpoint>
          <Trackpoint>
            <Time>2021-09-26T11:46:08.000Z</Time>
            <Position>
              <LatitudeDegrees>40.40737059898674488067626953125</LatitudeDegrees>
              <LongitudeDegrees>-3.6939665861427783966064453125</LongitudeDegrees>
            </Position>
            <AltitudeMeters>634.79998779296875</AltitudeMeters>
            <DistanceMeters>40936.498559782</DistanceMeters>
          </Trackpoint>
          <Trackpoint>
            <Time>2021-09-26T11:46:15.000Z</Time>
            <Position>
              <LatitudeDegrees>40.4073374904692173004150390625</LatitudeDegrees>
              <LongitudeDegrees>-3.69380154646933078765869140625</LongitudeDegrees>
            </Position>
            <AltitudeMeters>633.5999755859375</AltitudeMeters>
            <DistanceMeters>40950.963236454</DistanceMeters>
          </Trackpoint>
          <Trackpoint>
            <Time>2021-09-26T11:46:21.000Z</Time>
            <Position>
              <LatitudeDegrees>40.40739490650594234466552734375</LatitudeDegrees>
              <LongitudeDegrees>-3.69364581070840358734130859375</LongitudeDegrees>
            </Position>
            <AltitudeMeters>633.79998779296875</AltitudeMeters>
            <DistanceMeters>40965.627555068</DistanceMeters>
          </Trackpoint>
          <Trackpoint>
            <Time>2021-09-26T11:46:24.000Z</Time>
            <Position>
              <LatitudeDegrees>40.40743245743215084075927734375</LatitudeDegrees>
              <LongitudeDegrees>-3.69357012212276458740234375</LongitudeDegrees>
            </Position>
            <AltitudeMeters>633</AltitudeMeters>
            <DistanceMeters>40973.284137614</DistanceMeters>
          </Trackpoint>
          <Trackpoint>
            <Time>2021-09-26T11:46:29.000Z</Time>
            <Position>
              <LatitudeDegrees>40.40752516128122806549072265625</LatitudeDegrees>
              <LongitudeDegrees>-3.6934723891317844390869140625</LongitudeDegrees>
            </Position>
            <AltitudeMeters>632.4000244140625</AltitudeMeters>
            <DistanceMeters>40986.51607444</DistanceMeters>
          </Trackpoint>
          <Trackpoint>
            <Time>2021-09-26T11:46:34.000Z</Time>
            <Position>
              <LatitudeDegrees>40.407617278397083282470703125</LatitudeDegrees>
              <LongitudeDegrees>-3.69337205775082111358642578125</LongitudeDegrees>
            </Position>
            <AltitudeMeters>632.4000244140625</AltitudeMeters>
            <DistanceMeters>40999.836094784</DistanceMeters>
          </Trackpoint>
          <Trackpoint>
            <Time>2021-09-26T11:46:38.000Z</Time>
            <Position>
              <LatitudeDegrees>40.40770000778138637542724609375</LatitudeDegrees>
              <LongitudeDegrees>-3.6932873167097568511962890625</LongitudeDegrees>
            </Position>
            <AltitudeMeters>632</AltitudeMeters>
            <DistanceMeters>41011.513172942</DistanceMeters>
          </Trackpoint>
          <Trackpoint>
            <Time>2021-09-26T11:46:45.000Z</Time>
            <Position>
              <LatitudeDegrees>40.40781919844448566436767578125</LatitudeDegrees>
              <LongitudeDegrees>-3.6931642703711986541748046875</LongitudeDegrees>
            </Position>
            <AltitudeMeters>631.5999755859375</AltitudeMeters>
            <DistanceMeters>41028.387306118</DistanceMeters>
          </Trackpoint>
          <Trackpoint>
            <Time>2021-09-26T11:46:53.000Z</Time>
            <Position>
              <LatitudeDegrees>40.40798784233629703521728515625</LatitudeDegrees>
              <LongitudeDegrees>-3.6930355243384838104248046875</LongitudeDegrees>
            </Position>
            <AltitudeMeters>632</AltitudeMeters>
            <DistanceMeters>41050.098778903</DistanceMeters>
          </Trackpoint>
          <Trackpoint>
            <Time>2021-09-26T11:47:01.000Z</Time>
            <Position>
              <LatitudeDegrees>40.4081632755696773529052734375</LatitudeDegrees>
              <LongitudeDegrees>-3.69290904141962528228759765625</LongitudeDegrees>
            </Position>
            <AltitudeMeters>632</AltitudeMeters>
            <DistanceMeters>41072.373981269</DistanceMeters>
          </Trackpoint>
          <Trackpoint>
            <Time>2021-09-26T11:47:05.000Z</Time>
            <Position>
              <LatitudeDegrees>40.40824256837368011474609375</LatitudeDegrees>
              <LongitudeDegrees>-3.69285154156386852264404296875</LongitudeDegrees>
            </Position>
            <AltitudeMeters>632</AltitudeMeters>
            <DistanceMeters>41082.455773791</DistanceMeters>
          </Trackpoint>
          <Trackpoint>
            <Time>2021-09-26T11:47:10.000Z</Time>
            <Position>
              <LatitudeDegrees>40.40835681371390819549560546875</LatitudeDegrees>
              <LongitudeDegrees>-3.69278113357722759246826171875</LongitudeDegrees>
            </Position>
            <AltitudeMeters>632</AltitudeMeters>
            <DistanceMeters>41096.501737986</DistanceMeters>
          </Trackpoint>
          <Trackpoint>
            <Time>2021-09-26T11:47:16.000Z</Time>
            <Position>
              <LatitudeDegrees>40.40846711955964565277099609375</LatitudeDegrees>
              <LongitudeDegrees>-3.69268859736621379852294921875</LongitudeDegrees>
            </Position>
            <AltitudeMeters>632</AltitudeMeters>
            <DistanceMeters>41111.069677325</DistanceMeters>
          </Trackpoint>
          <Trackpoint>
            <Time>2021-09-26T11:47:23.000Z</Time>
            <Position>
              <LatitudeDegrees>40.40859133936464786529541015625</LatitudeDegrees>
              <LongitudeDegrees>-3.6925708316266536712646484375</LongitudeDegrees>
            </Position>
            <AltitudeMeters>632</AltitudeMeters>
            <DistanceMeters>41128.121346786</DistanceMeters>
          </Trackpoint>
          <Trackpoint>
            <Time>2021-09-26T11:47:32.000Z</Time>
            <Position>
              <LatitudeDegrees>40.40876735933125019073486328125</LatitudeDegrees>
              <LongitudeDegrees>-3.692451976239681243896484375</LongitudeDegrees>
            </Position>
            <AltitudeMeters>630.5999755859375</AltitudeMeters>
            <DistanceMeters>41150.15033469</DistanceMeters>
          </Trackpoint>
          <Trackpoint>
            <Time>2021-09-26T11:47:34.000Z</Time>
            <Position>
              <LatitudeDegrees>40.40879686363041400909423828125</LatitudeDegrees>
              <LongitudeDegrees>-3.6924290098249912261962890625</LongitudeDegrees>
            </Position>
            <AltitudeMeters>630.4000244140625</AltitudeMeters>
            <DistanceMeters>41153.967996721</DistanceMeters>
          </Trackpoint>
          <Trackpoint>
            <Time>2021-09-26T11:47:43.000Z</Time>
            <Position>
              <LatitudeDegrees>40.40889861993491649627685546875</LatitudeDegrees>
              <LongitudeDegrees>-3.69230185635387897491455078125</LongitudeDegrees>
            </Position>
            <AltitudeMeters>629.20001220703125</AltitudeMeters>
            <DistanceMeters>41169.600974329</DistanceMeters>
          </Trackpoint>
          <Trackpoint>
            <Time>2021-09-26T11:47:53.000Z</Time>
            <Position>
              <LatitudeDegrees>40.40902418084442615509033203125</LatitudeDegrees>
              <LongitudeDegrees>-3.6922221444547176361083984375</LongitudeDegrees>
            </Position>
            <AltitudeMeters>628.5999755859375</AltitudeMeters>
            <DistanceMeters>41185.12323253</DistanceMeters>
          </Trackpoint>
          <Trackpoint>
            <Time>2021-09-26T11:48:04.000Z</Time>
            <Position>
              <LatitudeDegrees>40.40915787220001220703125</LatitudeDegrees>
              <LongitudeDegrees>-3.6922281794250011444091796875</LongitudeDegrees>
            </Position>
            <AltitudeMeters>629</AltitudeMeters>
            <DistanceMeters>41200.011829393</DistanceMeters>
          </Trackpoint>
          <Trackpoint>
            <Time>2021-09-26T11:48:12.000Z</Time>
            <Position>
              <LatitudeDegrees>40.4092716984450817108154296875</LatitudeDegrees>
              <LongitudeDegrees>-3.692250140011310577392578125</LongitudeDegrees>
            </Position>
            <AltitudeMeters>631.20001220703125</AltitudeMeters>
            <DistanceMeters>41212.816833418</DistanceMeters>
          </Trackpoint>
          <Trackpoint>
            <Time>2021-09-26T11:48:13.000Z</Time>
            <Position>
              <LatitudeDegrees>40.409288965165615081787109375</LatitudeDegrees>
              <LongitudeDegrees>-3.6922550015151500701904296875</LongitudeDegrees>
            </Position>
            <AltitudeMeters>631.5999755859375</AltitudeMeters>
            <DistanceMeters>41214.782761371</DistanceMeters>
          </Trackpoint>
          <Trackpoint>
            <Time>2021-09-26T11:48:17.000Z</Time>
            <Position>
              <LatitudeDegrees>40.40937068872153759002685546875</LatitudeDegrees>
              <LongitudeDegrees>-3.6922819912433624267578125</LongitudeDegrees>
            </Position>
            <AltitudeMeters>633.20001220703125</AltitudeMeters>
            <DistanceMeters>41224.16204731</DistanceMeters>
          </Trackpoint>
          <Trackpoint>
            <Time>2021-09-26T11:48:20.000Z</Time>
            <Position>
              <LatitudeDegrees>40.40943145751953125</LatitudeDegrees>
              <LongitudeDegrees>-3.692299760878086090087890625</LongitudeDegrees>
            </Position>
            <AltitudeMeters>634.5999755859375</AltitudeMeters>
            <DistanceMeters>41231.091182642</DistanceMeters>
          </Trackpoint>
          <Trackpoint>
            <Time>2021-09-26T11:48:27.000Z</Time>
            <Position>
              <LatitudeDegrees>40.409589707851409912109375</LatitudeDegrees>
              <LongitudeDegrees>-3.692347705364227294921875</LongitudeDegrees>
            </Position>
            <AltitudeMeters>637.20001220703125</AltitudeMeters>
            <DistanceMeters>41249.167252072</DistanceMeters>
          </Trackpoint>
          <Trackpoint>
            <Time>2021-09-26T11:48:35.000Z</Time>
            <Position>
              <LatitudeDegrees>40.4097622074186801910400390625</LatitudeDegrees>
              <LongitudeDegrees>-3.6924196220934391021728515625</LongitudeDegrees>
            </Position>
            <AltitudeMeters>638.4000244140625</AltitudeMeters>
            <DistanceMeters>41269.310674198</DistanceMeters>
          </Trackpoint>
          <Trackpoint>
            <Time>2021-09-26T11:48:43.000Z</Time>
            <Position>
              <LatitudeDegrees>40.40994702838361263275146484375</LatitudeDegrees>
              <LongitudeDegrees>-3.6925195343792438507080078125</LongitudeDegrees>
            </Position>
            <AltitudeMeters>637.20001220703125</AltitudeMeters>
            <DistanceMeters>41291.555857702</DistanceMeters>
          </Trackpoint>
          <Trackpoint>
            <Time>2021-09-26T11:48:51.000Z</Time>
            <Position>
              <LatitudeDegrees>40.4101219587028026580810546875</LatitudeDegrees>
              <LongitudeDegrees>-3.6926043592393398284912109375</LongitudeDegrees>
            </Position>
            <AltitudeMeters>637.20001220703125</AltitudeMeters>
            <DistanceMeters>41312.31087557</DistanceMeters>
          </Trackpoint>
          <Trackpoint>
            <Time>2021-09-26T11:48:54.000Z</Time>
            <Position>
              <LatitudeDegrees>40.410186834633350372314453125</LatitudeDegrees>
              <LongitudeDegrees>-3.692634366452693939208984375</LongitudeDegrees>
            </Position>
            <AltitudeMeters>637.20001220703125</AltitudeMeters>
            <DistanceMeters>41319.966278637</DistanceMeters>
          </Trackpoint>
          <Trackpoint>
            <Time>2021-09-26T11:49:02.000Z</Time>
            <Position>
              <LatitudeDegrees>40.4103643633425235748291015625</LatitudeDegrees>
              <LongitudeDegrees>-3.69268557988107204437255859375</LongitudeDegrees>
            </Position>
            <AltitudeMeters>637.4000244140625</AltitudeMeters>
            <DistanceMeters>41340.196481913</DistanceMeters>
          </Trackpoint>
          <Trackpoint>
            <Time>2021-09-26T11:49:03.000Z</Time>
            <Position>
              <LatitudeDegrees>40.41038473136723041534423828125</LatitudeDegrees>
              <LongitudeDegrees>-3.69269262067973613739013671875</LongitudeDegrees>
            </Position>
            <AltitudeMeters>637.4000244140625</AltitudeMeters>
            <DistanceMeters>41342.539617948</DistanceMeters>
          </Trackpoint>
          <Trackpoint>
            <Time>2021-09-26T11:49:11.000Z</Time>
            <Position>
              <LatitudeDegrees>40.410559661686420440673828125</LatitudeDegrees>
              <LongitudeDegrees>-3.69275732897222042083740234375</LongitudeDegrees>
            </Position>
            <AltitudeMeters>638</AltitudeMeters>
            <DistanceMeters>41362.76714285</DistanceMeters>
          </Trackpoint>
          <Trackpoint>
            <Time>2021-09-26T11:49:13.000Z</Time>
            <Position>
              <LatitudeDegrees>40.41060098446905612945556640625</LatitudeDegrees>
              <LongitudeDegrees>-3.69277006946504116058349609375</LongitudeDegrees>
            </Position>
            <AltitudeMeters>638</AltitudeMeters>
            <DistanceMeters>41367.491796168</DistanceMeters>
          </Trackpoint>
          <Trackpoint>
            <Time>2021-09-26T11:49:21.000Z</Time>
            <Position>
              <LatitudeDegrees>40.4107790999114513397216796875</LatitudeDegrees>
              <LongitudeDegrees>-3.69282245635986328125</LongitudeDegrees>
            </Position>
            <AltitudeMeters>638.79998779296875</AltitudeMeters>
            <DistanceMeters>41387.807520963</DistanceMeters>
          </Trackpoint>
          <Trackpoint>
            <Time>2021-09-26T11:49:22.000Z</Time>
            <Position>
              <LatitudeDegrees>40.410799719393253326416015625</LatitudeDegrees>
              <LongitudeDegrees>-3.69282505474984645843505859375</LongitudeDegrees>
            </Position>
            <AltitudeMeters>639</AltitudeMeters>
            <DistanceMeters>41390.111796326</DistanceMeters>
          </Trackpoint>
          <Trackpoint>
            <Time>2021-09-26T11:49:28.000Z</Time>
            <Position>
              <LatitudeDegrees>40.41092318482697010040283203125</LatitudeDegrees>
              <LongitudeDegrees>-3.692875765264034271240234375</LongitudeDegrees>
            </Position>
            <AltitudeMeters>639.20001220703125</AltitudeMeters>
            <DistanceMeters>41404.510146752</DistanceMeters>
          </Trackpoint>
          <Trackpoint>
            <Time>2021-09-26T11:49:37.000Z</Time>
            <Position>
              <LatitudeDegrees>40.4111187346279621124267578125</LatitudeDegrees>
              <LongitudeDegrees>-3.69292681105434894561767578125</LongitudeDegrees>
            </Position>
            <AltitudeMeters>639.4000244140625</AltitudeMeters>
            <DistanceMeters>41426.701275358</DistanceMeters>
          </Trackpoint>
          <Trackpoint>
            <Time>2021-09-26T11:49:44.000Z</Time>
            <Position>
              <LatitudeDegrees>40.41123130358755588531494140625</LatitudeDegrees>
              <LongitudeDegrees>-3.6929905973374843597412109375</LongitudeDegrees>
            </Position>
            <AltitudeMeters>639.20001220703125</AltitudeMeters>
            <DistanceMeters>41440.3467939</DistanceMeters>
          </Trackpoint>
          <Trackpoint>
            <Time>2021-09-26T11:49:54.000Z</Time>
            <Position>
              <LatitudeDegrees>40.411391146481037139892578125</LatitudeDegrees>
              <LongitudeDegrees>-3.693050779402256011962890625</LongitudeDegrees>
            </Position>
            <AltitudeMeters>638.4000244140625</AltitudeMeters>
            <DistanceMeters>41458.854329113</DistanceMeters>
          </Trackpoint>
          <Trackpoint>
            <Time>2021-09-26T11:50:01.000Z</Time>
            <Position>
              <LatitudeDegrees>40.41150187142193317413330078125</LatitudeDegrees>
              <LongitudeDegrees>-3.69308489374816417694091796875</LongitudeDegrees>
            </Position>
            <AltitudeMeters>637.79998779296875</AltitudeMeters>
            <DistanceMeters>41471.51287194</DistanceMeters>
          </Trackpoint>
          <Trackpoint>
            <Time>2021-09-26T11:50:04.000Z</Time>
            <Position>
              <LatitudeDegrees>40.41155065409839153289794921875</LatitudeDegrees>
              <LongitudeDegrees>-3.69309134781360626220703125</LongitudeDegrees>
            </Position>
            <AltitudeMeters>637.5999755859375</AltitudeMeters>
            <DistanceMeters>41476.970086624</DistanceMeters>
          </Trackpoint>
          <Trackpoint>
            <Time>2021-09-26T11:50:12.000Z</Time>
            <Position>
              <LatitudeDegrees>40.4116276837885379791259765625</LatitudeDegrees>
              <LongitudeDegrees>-3.69309260509908199310302734375</LongitudeDegrees>
            </Position>
            <AltitudeMeters>637</AltitudeMeters>
            <DistanceMeters>41485.543581959</DistanceMeters>
          </Trackpoint>
          <Trackpoint>
            <Time>2021-09-26T11:50:21.000Z</Time>
            <Position>
              <LatitudeDegrees>40.41173304431140422821044921875</LatitudeDegrees>
              <LongitudeDegrees>-3.69311280548572540283203125</LongitudeDegrees>
            </Position>
            <AltitudeMeters>637.5999755859375</AltitudeMeters>
            <DistanceMeters>41497.39490294</DistanceMeters>
          </Trackpoint>
          <Trackpoint>
            <Time>2021-09-26T11:50:22.000Z</Time>
            <Position>
              <LatitudeDegrees>40.41174846701323986053466796875</LatitudeDegrees>
              <LongitudeDegrees>-3.69311976246535778045654296875</LongitudeDegrees>
            </Position>
            <AltitudeMeters>637.79998779296875</AltitudeMeters>
            <DistanceMeters>41499.207897101</DistanceMeters>
          </Trackpoint>
          <Trackpoint>
            <Time>2021-09-26T11:50:32.000Z</Time>
            <Position>
              <LatitudeDegrees>40.41190654970705509185791015625</LatitudeDegrees>
              <LongitudeDegrees>-3.69320676662027835845947265625</LongitudeDegrees>
            </Position>
            <AltitudeMeters>639</AltitudeMeters>
            <DistanceMeters>41518.285323578</DistanceMeters>
          </Trackpoint>
          <Trackpoint>
            <Time>2021-09-26T11:50:39.000Z</Time>
            <Position>
              <LatitudeDegrees>40.41205407120287418365478515625</LatitudeDegrees>
              <LongitudeDegrees>-3.693267367780208587646484375</LongitudeDegrees>
            </Position>
            <AltitudeMeters>640.4000244140625</AltitudeMeters>
            <DistanceMeters>41535.489096</DistanceMeters>
          </Trackpoint>
          <Trackpoint>
            <Time>2021-09-26T11:50:47.000Z</Time>
            <Position>
              <LatitudeDegrees>40.4122489504516124725341796875</LatitudeDegrees>
              <LongitudeDegrees>-3.69333987124264240264892578125</LongitudeDegrees>
            </Position>
            <AltitudeMeters>642.79998779296875</AltitudeMeters>
            <DistanceMeters>41558.033069971</DistanceMeters>
          </Trackpoint>
          <Trackpoint>
            <Time>2021-09-26T11:50:48.000Z</Time>
            <Position>
              <LatitudeDegrees>40.4122640378773212432861328125</LatitudeDegrees>
              <LongitudeDegrees>-3.69334959425032138824462890625</LongitudeDegrees>
            </Position>
            <AltitudeMeters>643</AltitudeMeters>
            <DistanceMeters>41559.904879165</DistanceMeters>
          </Trackpoint>
          <Trackpoint>
            <Time>2021-09-26T11:50:56.000Z</Time>
            <Position>
              <LatitudeDegrees>40.41241340339183807373046875</LatitudeDegrees>
              <LongitudeDegrees>-3.6934214271605014801025390625</LongitudeDegrees>
            </Position>
            <AltitudeMeters>644</AltitudeMeters>
            <DistanceMeters>41577.608945178</DistanceMeters>
          </Trackpoint>
          <Trackpoint>
            <Time>2021-09-26T11:51:03.000Z</Time>
            <Position>
              <LatitudeDegrees>40.41254156269133090972900390625</LatitudeDegrees>
              <LongitudeDegrees>-3.6934807710349559783935546875</LongitudeDegrees>
            </Position>
            <AltitudeMeters>644.79998779296875</AltitudeMeters>
            <DistanceMeters>41592.733425218</DistanceMeters>
          </Trackpoint>
          <Trackpoint>
            <Time>2021-09-26T11:51:08.000Z</Time>
            <Position>
              <LatitudeDegrees>40.41261314414441585540771484375</LatitudeDegrees>
              <LongitudeDegrees>-3.69348437525331974029541015625</LongitudeDegrees>
            </Position>
            <AltitudeMeters>644.5999755859375</AltitudeMeters>
            <DistanceMeters>41600.705481289</DistanceMeters>
          </Trackpoint>
          <Trackpoint>
            <Time>2021-09-26T11:51:14.000Z</Time>
            <Position>
              <LatitudeDegrees>40.4127265512943267822265625</LatitudeDegrees>
              <LongitudeDegrees>-3.69350231252610683441162109375</LongitudeDegrees>
            </Position>
            <AltitudeMeters>644.5999755859375</AltitudeMeters>
            <DistanceMeters>41613.418834044</DistanceMeters>
          </Trackpoint>
          <Trackpoint>
            <Time>2021-09-26T11:51:15.000Z</Time>
            <Position>
              <LatitudeDegrees>40.41274541057646274566650390625</LatitudeDegrees>
              <LongitudeDegrees>-3.6935012228786945343017578125</LongitudeDegrees>
            </Position>
            <AltitudeMeters>644.5999755859375</AltitudeMeters>
            <DistanceMeters>41615.518042777</DistanceMeters>
          </Trackpoint>
          <Trackpoint>
            <Time>2021-09-26T11:51:15.000Z</Time>
            <Position>
              <LatitudeDegrees>40.41274541057646274566650390625</LatitudeDegrees>
              <LongitudeDegrees>-3.6935012228786945343017578125</LongitudeDegrees>
            </Position>
            <AltitudeMeters>644.5999755859375</AltitudeMeters>
            <DistanceMeters>41615.518042777</DistanceMeters>
          </Trackpoint>
          <Trackpoint>
            <Time>2021-09-26T11:51:22.000Z</Time>
            <Position>
              <LatitudeDegrees>40.41286577470600605010986328125</LatitudeDegrees>
              <LongitudeDegrees>-3.69356014765799045562744140625</LongitudeDegrees>
            </Position>
            <AltitudeMeters>645.5999755859375</AltitudeMeters>
            <DistanceMeters>41629.815063809</DistanceMeters>
          </Trackpoint>
          <Trackpoint>
            <Time>2021-09-26T11:51:29.000Z</Time>
            <Position>
              <LatitudeDegrees>40.4130376875400543212890625</LatitudeDegrees>
              <LongitudeDegrees>-3.69364254176616668701171875</LongitudeDegrees>
            </Position>
            <AltitudeMeters>647.5999755859375</AltitudeMeters>
            <DistanceMeters>41650.183392215</DistanceMeters>
          </Trackpoint>
          <Trackpoint>
            <Time>2021-09-26T11:51:32.000Z</Time>
            <Position>
              <LatitudeDegrees>40.41310541331768035888671875</LatitudeDegrees>
              <LongitudeDegrees>-3.69368545711040496826171875</LongitudeDegrees>
            </Position>
            <AltitudeMeters>648</AltitudeMeters>
            <DistanceMeters>41658.552759155</DistanceMeters>
          </Trackpoint>
          <Trackpoint>
            <Time>2021-09-26T11:51:39.000Z</Time>
            <Position>
              <LatitudeDegrees>40.41327682323753833770751953125</LatitudeDegrees>
              <LongitudeDegrees>-3.6938046477735042572021484375</LongitudeDegrees>
            </Position>
            <AltitudeMeters>648.79998779296875</AltitudeMeters>
            <DistanceMeters>41680.139934167</DistanceMeters>
          </Trackpoint>
          <Trackpoint>
            <Time>2021-09-26T11:51:46.000Z</Time>
            <Position>
              <LatitudeDegrees>40.4134656675159931182861328125</LatitudeDegrees>
              <LongitudeDegrees>-3.69386876933276653289794921875</LongitudeDegrees>
            </Position>
            <AltitudeMeters>647.4000244140625</AltitudeMeters>
            <DistanceMeters>41701.849743238</DistanceMeters>
          </Trackpoint>
          <Trackpoint>
            <Time>2021-09-26T11:51:48.000Z</Time>
            <Position>
              <LatitudeDegrees>40.41349927894771099090576171875</LatitudeDegrees>
              <LongitudeDegrees>-3.69386659003794193267822265625</LongitudeDegrees>
            </Position>
            <AltitudeMeters>647</AltitudeMeters>
            <DistanceMeters>41705.595772975</DistanceMeters>
          </Trackpoint>
          <Trackpoint>
            <Time>2021-09-26T11:51:54.000Z</Time>
            <Position>
              <LatitudeDegrees>40.41363556869328022003173828125</LatitudeDegrees>
              <LongitudeDegrees>-3.69388251565396785736083984375</LongitudeDegrees>
            </Position>
            <AltitudeMeters>645.20001220703125</AltitudeMeters>
            <DistanceMeters>41720.824971358</DistanceMeters>
          </Trackpoint>
          <Trackpoint>
            <Time>2021-09-26T11:52:02.000Z</Time>
            <Position>
              <LatitudeDegrees>40.41380505077540874481201171875</LatitudeDegrees>
              <LongitudeDegrees>-3.6939484812319278717041015625</LongitudeDegrees>
            </Position>
            <AltitudeMeters>645.20001220703125</AltitudeMeters>
            <DistanceMeters>41740.499861879</DistanceMeters>
          </Trackpoint>
          <Trackpoint>
            <Time>2021-09-26T11:52:09.000Z</Time>
            <Position>
              <LatitudeDegrees>40.41395508684217929840087890625</LatitudeDegrees>
              <LongitudeDegrees>-3.69397119618952274322509765625</LongitudeDegrees>
            </Position>
            <AltitudeMeters>644.4000244140625</AltitudeMeters>
            <DistanceMeters>41757.309655218</DistanceMeters>
          </Trackpoint>
          <Trackpoint>
            <Time>2021-09-26T11:52:13.000Z</Time>
            <Position>
              <LatitudeDegrees>40.4140339605510234832763671875</LatitudeDegrees>
              <LongitudeDegrees>-3.69399852119386196136474609375</LongitudeDegrees>
            </Position>
            <AltitudeMeters>644</AltitudeMeters>
            <DistanceMeters>41766.389058714</DistanceMeters>
          </Trackpoint>
          <Trackpoint>
            <Time>2021-09-26T11:52:16.000Z</Time>
            <Position>
              <LatitudeDegrees>40.41409690864384174346923828125</LatitudeDegrees>
              <LongitudeDegrees>-3.6940353177487850189208984375</LongitudeDegrees>
            </Position>
            <AltitudeMeters>644</AltitudeMeters>
            <DistanceMeters>41774.057426064</DistanceMeters>
          </Trackpoint>
          <Trackpoint>
            <Time>2021-09-26T11:52:23.000Z</Time>
            <Position>
              <LatitudeDegrees>40.41423370130360126495361328125</LatitudeDegrees>
              <LongitudeDegrees>-3.694080412387847900390625</LongitudeDegrees>
            </Position>
            <AltitudeMeters>643.79998779296875</AltitudeMeters>
            <DistanceMeters>41789.754964915</DistanceMeters>
          </Trackpoint>
          <Trackpoint>
            <Time>2021-09-26T11:52:29.000Z</Time>
            <Position>
              <LatitudeDegrees>40.414364375174045562744140625</LatitudeDegrees>
              <LongitudeDegrees>-3.694169260561466217041015625</LongitudeDegrees>
            </Position>
            <AltitudeMeters>645.5999755859375</AltitudeMeters>
            <DistanceMeters>41806.132675094</DistanceMeters>
          </Trackpoint>
          <Trackpoint>
            <Time>2021-09-26T11:52:37.000Z</Time>
            <Position>
              <LatitudeDegrees>40.41452790610492229461669921875</LatitudeDegrees>
              <LongitudeDegrees>-3.69427512399852275848388671875</LongitudeDegrees>
            </Position>
            <AltitudeMeters>646.79998779296875</AltitudeMeters>
            <DistanceMeters>41826.425050902</DistanceMeters>
          </Trackpoint>
          <Trackpoint>
            <Time>2021-09-26T11:52:39.000Z</Time>
            <Position>
              <LatitudeDegrees>40.414572246372699737548828125</LatitudeDegrees>
              <LongitudeDegrees>-3.69429809041321277618408203125</LongitudeDegrees>
            </Position>
            <AltitudeMeters>646.79998779296875</AltitudeMeters>
            <DistanceMeters>41831.731252778</DistanceMeters>
          </Trackpoint>
          <Trackpoint>
            <Time>2021-09-26T11:52:45.000Z</Time>
            <Position>
              <LatitudeDegrees>40.4147038422524929046630859375</LatitudeDegrees>
              <LongitudeDegrees>-3.69435357861220836639404296875</LongitudeDegrees>
            </Position>
            <AltitudeMeters>646.79998779296875</AltitudeMeters>
            <DistanceMeters>41847.11443136</DistanceMeters>
          </Trackpoint>
          <Trackpoint>
            <Time>2021-09-26T11:52:47.000Z</Time>
            <Position>
              <LatitudeDegrees>40.4147574864327907562255859375</LatitudeDegrees>
              <LongitudeDegrees>-3.69435357861220836639404296875</LongitudeDegrees>
            </Position>
            <AltitudeMeters>645.5999755859375</AltitudeMeters>
            <DistanceMeters>41853.085255575</DistanceMeters>
          </Trackpoint>
          <Trackpoint>
            <Time>2021-09-26T11:52:54.000Z</Time>
            <Position>
              <LatitudeDegrees>40.4148964583873748779296875</LatitudeDegrees>
              <LongitudeDegrees>-3.6943816579878330230712890625</LongitudeDegrees>
            </Position>
            <AltitudeMeters>643.4000244140625</AltitudeMeters>
            <DistanceMeters>41868.734975486</DistanceMeters>
          </Trackpoint>
          <Trackpoint>
            <Time>2021-09-26T11:53:02.000Z</Time>
            <Position>
              <LatitudeDegrees>40.41501380503177642822265625</LatitudeDegrees>
              <LongitudeDegrees>-3.694425411522388458251953125</LongitudeDegrees>
            </Position>
            <AltitudeMeters>643</AltitudeMeters>
            <DistanceMeters>41882.312161517</DistanceMeters>
          </Trackpoint>
          <Trackpoint>
            <Time>2021-09-26T11:53:13.000Z</Time>
            <Position>
              <LatitudeDegrees>40.4151594825088977813720703125</LatitudeDegrees>
              <LongitudeDegrees>-3.6944825761020183563232421875</LongitudeDegrees>
            </Position>
            <AltitudeMeters>641.5999755859375</AltitudeMeters>
            <DistanceMeters>41899.234655845</DistanceMeters>
          </Trackpoint>
          <Trackpoint>
            <Time>2021-09-26T11:53:23.000Z</Time>
            <Position>
              <LatitudeDegrees>40.41532753966748714447021484375</LatitudeDegrees>
              <LongitudeDegrees>-3.69451719336211681365966796875</LongitudeDegrees>
            </Position>
            <AltitudeMeters>640.4000244140625</AltitudeMeters>
            <DistanceMeters>41918.168356084</DistanceMeters>
          </Trackpoint>
          <Trackpoint>
            <Time>2021-09-26T11:53:30.000Z</Time>
            <Position>
              <LatitudeDegrees>40.415420494973659515380859375</LatitudeDegrees>
              <LongitudeDegrees>-3.6945618689060211181640625</LongitudeDegrees>
            </Position>
            <AltitudeMeters>641.5999755859375</AltitudeMeters>
            <DistanceMeters>41929.185719088</DistanceMeters>
          </Trackpoint>
          <Trackpoint>
            <Time>2021-09-26T11:53:33.000Z</Time>
            <Position>
              <LatitudeDegrees>40.41546232067048549652099609375</LatitudeDegrees>
              <LongitudeDegrees>-3.69457704015076160430908203125</LongitudeDegrees>
            </Position>
            <AltitudeMeters>642</AltitudeMeters>
            <DistanceMeters>41934.015282987</DistanceMeters>
          </Trackpoint>
          <Trackpoint>
            <Time>2021-09-26T11:53:41.000Z</Time>
            <Position>
              <LatitudeDegrees>40.41556508280336856842041015625</LatitudeDegrees>
              <LongitudeDegrees>-3.694625906646251678466796875</LongitudeDegrees>
            </Position>
            <AltitudeMeters>643.20001220703125</AltitudeMeters>
            <DistanceMeters>41946.1794448</DistanceMeters>
          </Trackpoint>
          <Trackpoint>
            <Time>2021-09-26T11:53:50.000Z</Time>
            <Position>
              <LatitudeDegrees>40.4157277755439281463623046875</LatitudeDegrees>
              <LongitudeDegrees>-3.69464141316711902618408203125</LongitudeDegrees>
            </Position>
            <AltitudeMeters>645.20001220703125</AltitudeMeters>
            <DistanceMeters>41964.335267847</DistanceMeters>
          </Trackpoint>
          <Trackpoint>
            <Time>2021-09-26T11:53:58.000Z</Time>
            <Position>
              <LatitudeDegrees>40.41589558124542236328125</LatitudeDegrees>
              <LongitudeDegrees>-3.694597743451595306396484375</LongitudeDegrees>
            </Position>
            <AltitudeMeters>646</AltitudeMeters>
            <DistanceMeters>41983.37526388</DistanceMeters>
          </Trackpoint>
          <Trackpoint>
            <Time>2021-09-26T11:54:07.000Z</Time>
            <Position>
              <LatitudeDegrees>40.41607000865042209625244140625</LatitudeDegrees>
              <LongitudeDegrees>-3.69453496299684047698974609375</LongitudeDegrees>
            </Position>
            <AltitudeMeters>646.5999755859375</AltitudeMeters>
            <DistanceMeters>42003.504784246</DistanceMeters>
          </Trackpoint>
          <Trackpoint>
            <Time>2021-09-26T11:54:08.000Z</Time>
            <Position>
              <LatitudeDegrees>40.4160915501415729522705078125</LatitudeDegrees>
              <LongitudeDegrees>-3.6945275031030178070068359375</LongitudeDegrees>
            </Position>
            <AltitudeMeters>646.5999755859375</AltitudeMeters>
            <DistanceMeters>42005.982777786</DistanceMeters>
          </Trackpoint>
          <Trackpoint>
            <Time>2021-09-26T11:54:17.000Z</Time>
            <Position>
              <LatitudeDegrees>40.41629196144640445709228515625</LatitudeDegrees>
              <LongitudeDegrees>-3.69447377510368824005126953125</LongitudeDegrees>
            </Position>
            <AltitudeMeters>649.20001220703125</AltitudeMeters>
            <DistanceMeters>42028.748965382</DistanceMeters>
          </Trackpoint>
          <Trackpoint>
            <Time>2021-09-26T11:54:24.000Z</Time>
            <Position>
              <LatitudeDegrees>40.4164637066423892974853515625</LatitudeDegrees>
              <LongitudeDegrees>-3.69444041512906551361083984375</LongitudeDegrees>
            </Position>
            <AltitudeMeters>651.79998779296875</AltitudeMeters>
            <DistanceMeters>42048.072362106</DistanceMeters>
          </Trackpoint>
          <Trackpoint>
            <Time>2021-09-26T11:54:33.000Z</Time>
            <Position>
              <LatitudeDegrees>40.41663478128612041473388671875</LatitudeDegrees>
              <LongitudeDegrees>-3.69440940208733081817626953125</LongitudeDegrees>
            </Position>
            <AltitudeMeters>654.79998779296875</AltitudeMeters>
            <DistanceMeters>42067.293849502</DistanceMeters>
          </Trackpoint>
          <Trackpoint>
            <Time>2021-09-26T11:54:41.000Z</Time>
            <Position>
              <LatitudeDegrees>40.41676838882267475128173828125</LatitudeDegrees>
              <LongitudeDegrees>-3.69434930384159088134765625</LongitudeDegrees>
            </Position>
            <AltitudeMeters>657.79998779296875</AltitudeMeters>
            <DistanceMeters>42083.012658351</DistanceMeters>
          </Trackpoint>
          <Trackpoint>
            <Time>2021-09-26T11:54:42.000Z</Time>
            <Position>
              <LatitudeDegrees>40.41677677072584629058837890625</LatitudeDegrees>
              <LongitudeDegrees>-3.69433010928332805633544921875</LongitudeDegrees>
            </Position>
            <AltitudeMeters>657.5999755859375</AltitudeMeters>
            <DistanceMeters>42084.884467546</DistanceMeters>
          </Trackpoint>
          <Trackpoint>
            <Time>2021-09-26T11:54:46.000Z</Time>
            <Position>
              <LatitudeDegrees>40.41684466414153575897216796875</LatitudeDegrees>
              <LongitudeDegrees>-3.69428786449134349822998046875</LongitudeDegrees>
            </Position>
            <AltitudeMeters>659</AltitudeMeters>
            <DistanceMeters>42093.245738492</DistanceMeters>
          </Trackpoint>
          <Trackpoint>
            <Time>2021-09-26T11:54:52.000Z</Time>
            <Position>
              <LatitudeDegrees>40.4169491864740848541259765625</LatitudeDegrees>
              <LongitudeDegrees>-3.6942227371037006378173828125</LongitudeDegrees>
            </Position>
            <AltitudeMeters>660</AltitudeMeters>
            <DistanceMeters>42106.121770626</DistanceMeters>
          </Trackpoint>
          <Trackpoint>
            <Time>2021-09-26T11:54:53.000Z</Time>
            <Position>
              <LatitudeDegrees>40.4169646091759204864501953125</LatitudeDegrees>
              <LongitudeDegrees>-3.69420421309769153594970703125</LongitudeDegrees>
            </Position>
            <AltitudeMeters>659.79998779296875</AltitudeMeters>
            <DistanceMeters>42108.449440247</DistanceMeters>
          </Trackpoint>
          <Trackpoint>
            <Time>2021-09-26T11:54:59.000Z</Time>
            <Position>
              <LatitudeDegrees>40.41704113595187664031982421875</LatitudeDegrees>
              <LongitudeDegrees>-3.69412173517048358917236328125</LongitudeDegrees>
            </Position>
            <AltitudeMeters>658.20001220703125</AltitudeMeters>
            <DistanceMeters>42119.466803251</DistanceMeters>
          </Trackpoint>
          <Trackpoint>
            <Time>2021-09-26T11:55:05.000Z</Time>
            <Position>
              <LatitudeDegrees>40.41716627776622772216796875</LatitudeDegrees>
              <LongitudeDegrees>-3.69410379789769649505615234375</LongitudeDegrees>
            </Position>
            <AltitudeMeters>657.79998779296875</AltitudeMeters>
            <DistanceMeters>42133.47800812</DistanceMeters>
          </Trackpoint>
          <Trackpoint>
            <Time>2021-09-26T11:55:12.000Z</Time>
            <Position>
              <LatitudeDegrees>40.4173119552433490753173828125</LatitudeDegrees>
              <LongitudeDegrees>-3.69406758807599544525146484375</LongitudeDegrees>
            </Position>
            <AltitudeMeters>656.4000244140625</AltitudeMeters>
            <DistanceMeters>42149.980403261</DistanceMeters>
          </Trackpoint>
          <Trackpoint>
            <Time>2021-09-26T11:55:18.000Z</Time>
            <Position>
              <LatitudeDegrees>40.41745184920728206634521484375</LatitudeDegrees>
              <LongitudeDegrees>-3.69406498968601226806640625</LongitudeDegrees>
            </Position>
            <AltitudeMeters>654.5999755859375</AltitudeMeters>
            <DistanceMeters>42165.552031714</DistanceMeters>
          </Trackpoint>
          <Trackpoint>
            <Time>2021-09-26T11:55:26.000Z</Time>
            <Position>
              <LatitudeDegrees>40.417592413723468780517578125</LatitudeDegrees>
              <LongitudeDegrees>-3.69401872158050537109375</LongitudeDegrees>
            </Position>
            <AltitudeMeters>654.5999755859375</AltitudeMeters>
            <DistanceMeters>42181.68083955</DistanceMeters>
          </Trackpoint>
          <Trackpoint>
            <Time>2021-09-26T11:55:34.000Z</Time>
            <Position>
              <LatitudeDegrees>40.41777891106903553009033203125</LatitudeDegrees>
              <LongitudeDegrees>-3.69396507740020751953125</LongitudeDegrees>
            </Position>
            <AltitudeMeters>655.4000244140625</AltitudeMeters>
            <DistanceMeters>42202.930308779</DistanceMeters>
          </Trackpoint>
          <Trackpoint>
            <Time>2021-09-26T11:55:36.000Z</Time>
            <Position>
              <LatitudeDegrees>40.4178068228065967559814453125</LatitudeDegrees>
              <LongitudeDegrees>-3.693948648869991302490234375</LongitudeDegrees>
            </Position>
            <AltitudeMeters>655.5999755859375</AltitudeMeters>
            <DistanceMeters>42206.332742907</DistanceMeters>
          </Trackpoint>
          <Trackpoint>
            <Time>2021-09-26T11:55:39.000Z</Time>
            <Position>
              <LatitudeDegrees>40.41786222718656063079833984375</LatitudeDegrees>
              <LongitudeDegrees>-3.69394320063292980194091796875</LongitudeDegrees>
            </Position>
            <AltitudeMeters>656.20001220703125</AltitudeMeters>
            <DistanceMeters>42212.516784769</DistanceMeters>
          </Trackpoint>
          <Trackpoint>
            <Time>2021-09-26T11:55:40.000Z</Time>
            <Position>
              <LatitudeDegrees>40.4178805835545063018798828125</LatitudeDegrees>
              <LongitudeDegrees>-3.69394554756581783294677734375</LongitudeDegrees>
            </Position>
            <AltitudeMeters>656.4000244140625</AltitudeMeters>
            <DistanceMeters>42214.572526916</DistanceMeters>
          </Trackpoint>
          <Trackpoint>
            <Time>2021-09-26T11:55:46.000Z</Time>
            <Position>
              <LatitudeDegrees>40.4180589504539966583251953125</LatitudeDegrees>
              <LongitudeDegrees>-3.69394722394645214080810546875</LongitudeDegrees>
            </Position>
            <AltitudeMeters>657.79998779296875</AltitudeMeters>
            <DistanceMeters>42234.425606693</DistanceMeters>
          </Trackpoint>
          <Trackpoint>
            <Time>2021-09-26T11:55:53.000Z</Time>
            <Position>
              <LatitudeDegrees>40.41819817386567592620849609375</LatitudeDegrees>
              <LongitudeDegrees>-3.6939079128205776214599609375</LongitudeDegrees>
            </Position>
            <AltitudeMeters>656.4000244140625</AltitudeMeters>
            <DistanceMeters>42250.275424568</DistanceMeters>
          </Trackpoint>
          <Trackpoint>
            <Time>2021-09-26T11:56:01.000Z</Time>
            <Position>
              <LatitudeDegrees>40.41836530901491641998291015625</LatitudeDegrees>
              <LongitudeDegrees>-3.69387329556047916412353515625</LongitudeDegrees>
            </Position>
            <AltitudeMeters>654.5999755859375</AltitudeMeters>
            <DistanceMeters>42269.107983672</DistanceMeters>
          </Trackpoint>
          <Trackpoint>
            <Time>2021-09-26T11:56:08.000Z</Time>
            <Position>
              <LatitudeDegrees>40.41851702146232128143310546875</LatitudeDegrees>
              <LongitudeDegrees>-3.69378780014812946319580078125</LongitudeDegrees>
            </Position>
            <AltitudeMeters>652.4000244140625</AltitudeMeters>
            <DistanceMeters>42287.482327145</DistanceMeters>
          </Trackpoint>
          <Trackpoint>
            <Time>2021-09-26T11:56:16.000Z</Time>
            <Position>
              <LatitudeDegrees>40.41868767701089382171630859375</LatitudeDegrees>
              <LongitudeDegrees>-3.6937389336526393890380859375</LongitudeDegrees>
            </Position>
            <AltitudeMeters>651.4000244140625</AltitudeMeters>
            <DistanceMeters>42306.922665603</DistanceMeters>
          </Trackpoint>
          <Trackpoint>
            <Time>2021-09-26T11:56:22.000Z</Time>
            <Position>
              <LatitudeDegrees>40.418869815766811370849609375</LatitudeDegrees>
              <LongitudeDegrees>-3.69370532222092151641845703125</LongitudeDegrees>
            </Position>
            <AltitudeMeters>650.4000244140625</AltitudeMeters>
            <DistanceMeters>42327.393810847</DistanceMeters>
          </Trackpoint>
          <Trackpoint>
            <Time>2021-09-26T11:56:23.000Z</Time>
            <Position>
              <LatitudeDegrees>40.41889722459018230438232421875</LatitudeDegrees>
              <LongitudeDegrees>-3.69369543157517910003662109375</LongitudeDegrees>
            </Position>
            <AltitudeMeters>650.4000244140625</AltitudeMeters>
            <DistanceMeters>42330.556930304</DistanceMeters>
          </Trackpoint>
          <Trackpoint>
            <Time>2021-09-26T11:56:31.000Z</Time>
            <Position>
              <LatitudeDegrees>40.41904809884727001190185546875</LatitudeDegrees>
              <LongitudeDegrees>-3.6935957707464694976806640625</LongitudeDegrees>
            </Position>
            <AltitudeMeters>649.79998779296875</AltitudeMeters>
            <DistanceMeters>42349.353493047</DistanceMeters>
          </Trackpoint>
          <Trackpoint>
            <Time>2021-09-26T11:56:39.000Z</Time>
            <Position>
              <LatitudeDegrees>40.41918606497347354888916015625</LatitudeDegrees>
              <LongitudeDegrees>-3.6934683658182621002197265625</LongitudeDegrees>
            </Position>
            <AltitudeMeters>649</AltitudeMeters>
            <DistanceMeters>42368.124576735</DistanceMeters>
          </Trackpoint>
          <Trackpoint>
            <Time>2021-09-26T11:56:47.000Z</Time>
            <Position>
              <LatitudeDegrees>40.41933073662221431732177734375</LatitudeDegrees>
              <LongitudeDegrees>-3.69332511909306049346923828125</LongitudeDegrees>
            </Position>
            <AltitudeMeters>647.5999755859375</AltitudeMeters>
            <DistanceMeters>42388.289505257</DistanceMeters>
          </Trackpoint>
          <Trackpoint>
            <Time>2021-09-26T11:56:52.000Z</Time>
            <Position>
              <LatitudeDegrees>40.41942494921386241912841796875</LatitudeDegrees>
              <LongitudeDegrees>-3.6932366900146007537841796875</LongitudeDegrees>
            </Position>
            <AltitudeMeters>647</AltitudeMeters>
            <DistanceMeters>42401.177454128</DistanceMeters>
          </Trackpoint>
          <Trackpoint>
            <Time>2021-09-26T11:57:01.000Z</Time>
            <Position>
              <LatitudeDegrees>40.419575236737728118896484375</LatitudeDegrees>
              <LongitudeDegrees>-3.6930603347718715667724609375</LongitudeDegrees>
            </Position>
            <AltitudeMeters>646.4000244140625</AltitudeMeters>
            <DistanceMeters>42423.607382327</DistanceMeters>
          </Trackpoint>
          <Trackpoint>
            <Time>2021-09-26T11:57:02.000Z</Time>
            <Position>
              <LatitudeDegrees>40.41959342546761035919189453125</LatitudeDegrees>
              <LongitudeDegrees>-3.6930383741855621337890625</LongitudeDegrees>
            </Position>
            <AltitudeMeters>646.4000244140625</AltitudeMeters>
            <DistanceMeters>42426.358237478</DistanceMeters>
          </Trackpoint>
          <Trackpoint>
            <Time>2021-09-26T11:57:10.000Z</Time>
            <Position>
              <LatitudeDegrees>40.4197467304766178131103515625</LatitudeDegrees>
              <LongitudeDegrees>-3.69288004003465175628662109375</LongitudeDegrees>
            </Position>
            <AltitudeMeters>646.4000244140625</AltitudeMeters>
            <DistanceMeters>42448.064510732</DistanceMeters>
          </Trackpoint>
          <Trackpoint>
            <Time>2021-09-26T11:57:11.000Z</Time>
            <Position>
              <LatitudeDegrees>40.419769026339054107666015625</LatitudeDegrees>
              <LongitudeDegrees>-3.692863024771213531494140625</LongitudeDegrees>
            </Position>
            <AltitudeMeters>646.4000244140625</AltitudeMeters>
            <DistanceMeters>42450.934254574</DistanceMeters>
          </Trackpoint>
          <Trackpoint>
            <Time>2021-09-26T11:57:19.000Z</Time>
            <Position>
              <LatitudeDegrees>40.41995108127593994140625</LatitudeDegrees>
              <LongitudeDegrees>-3.692767135798931121826171875</LongitudeDegrees>
            </Position>
            <AltitudeMeters>648.20001220703125</AltitudeMeters>
            <DistanceMeters>42472.765595227</DistanceMeters>
          </Trackpoint>
          <Trackpoint>
            <Time>2021-09-26T11:57:27.000Z</Time>
            <Position>
              <LatitudeDegrees>40.4201373271644115447998046875</LatitudeDegrees>
              <LongitudeDegrees>-3.69267962872982025146484375</LongitudeDegrees>
            </Position>
            <AltitudeMeters>652</AltitudeMeters>
            <DistanceMeters>42494.781461851</DistanceMeters>
          </Trackpoint>
          <Trackpoint>
            <Time>2021-09-26T11:57:28.000Z</Time>
            <Position>
              <LatitudeDegrees>40.4201594553887844085693359375</LatitudeDegrees>
              <LongitudeDegrees>-3.69266479276120662689208984375</LongitudeDegrees>
            </Position>
            <AltitudeMeters>652.4000244140625</AltitudeMeters>
            <DistanceMeters>42497.545416386</DistanceMeters>
          </Trackpoint>
          <Trackpoint>
            <Time>2021-09-26T11:57:36.000Z</Time>
            <Position>
              <LatitudeDegrees>40.42033790610730648040771484375</LatitudeDegrees>
              <LongitudeDegrees>-3.69258332066237926483154296875</LongitudeDegrees>
            </Position>
            <AltitudeMeters>655.20001220703125</AltitudeMeters>
            <DistanceMeters>42518.57274772</DistanceMeters>
          </Trackpoint>
          <Trackpoint>
            <Time>2021-09-26T11:57:37.000Z</Time>
            <Position>
              <LatitudeDegrees>40.42036137543618679046630859375</LatitudeDegrees>
              <LongitudeDegrees>-3.6925772018730640411376953125</LongitudeDegrees>
            </Position>
            <AltitudeMeters>655.4000244140625</AltitudeMeters>
            <DistanceMeters>42521.236887372</DistanceMeters>
          </Trackpoint>
          <Trackpoint>
            <Time>2021-09-26T11:57:42.000Z</Time>
            <Position>
              <LatitudeDegrees>40.4204840026795864105224609375</LatitudeDegrees>
              <LongitudeDegrees>-3.69252808392047882080078125</LongitudeDegrees>
            </Position>
            <AltitudeMeters>657</AltitudeMeters>
            <DistanceMeters>42535.506090701</DistanceMeters>
          </Trackpoint>
          <Trackpoint>
            <Time>2021-09-26T11:57:46.000Z</Time>
            <Position>
              <LatitudeDegrees>40.420565307140350341796875</LatitudeDegrees>
              <LongitudeDegrees>-3.692490197718143463134765625</LongitudeDegrees>
            </Position>
            <AltitudeMeters>657.5999755859375</AltitudeMeters>
            <DistanceMeters>42545.108021783</DistanceMeters>
          </Trackpoint>
          <Trackpoint>
            <Time>2021-09-26T11:57:53.000Z</Time>
            <Position>
              <LatitudeDegrees>40.4207089729607105255126953125</LatitudeDegrees>
              <LongitudeDegrees>-3.69243429042398929595947265625</LongitudeDegrees>
            </Position>
            <AltitudeMeters>658</AltitudeMeters>
            <DistanceMeters>42561.785413202</DistanceMeters>
          </Trackpoint>
          <Trackpoint>
            <Time>2021-09-26T11:58:02.000Z</Time>
            <Position>
              <LatitudeDegrees>40.42088943533599376678466796875</LatitudeDegrees>
              <LongitudeDegrees>-3.69234946556389331817626953125</LongitudeDegrees>
            </Position>
            <AltitudeMeters>658.4000244140625</AltitudeMeters>
            <DistanceMeters>42583.118646025</DistanceMeters>
          </Trackpoint>
          <Trackpoint>
            <Time>2021-09-26T11:58:07.000Z</Time>
            <Position>
              <LatitudeDegrees>40.4210073687136173248291015625</LatitudeDegrees>
              <LongitudeDegrees>-3.69230948388576507568359375</LongitudeDegrees>
            </Position>
            <AltitudeMeters>658.20001220703125</AltitudeMeters>
            <DistanceMeters>42596.674865473</DistanceMeters>
          </Trackpoint>
          <Trackpoint>
            <Time>2021-09-26T11:58:14.000Z</Time>
            <Position>
              <LatitudeDegrees>40.42116821743547916412353515625</LatitudeDegrees>
              <LongitudeDegrees>-3.692242093384265899658203125</LongitudeDegrees>
            </Position>
            <AltitudeMeters>657.5999755859375</AltitudeMeters>
            <DistanceMeters>42615.466142951</DistanceMeters>
          </Trackpoint>
          <Trackpoint>
            <Time>2021-09-26T11:58:15.000Z</Time>
            <Position>
              <LatitudeDegrees>40.421187914907932281494140625</LatitudeDegrees>
              <LongitudeDegrees>-3.6922315321862697601318359375</LongitudeDegrees>
            </Position>
            <AltitudeMeters>657.4000244140625</AltitudeMeters>
            <DistanceMeters>42617.836102349</DistanceMeters>
          </Trackpoint>
          <Trackpoint>
            <Time>2021-09-26T11:58:20.000Z</Time>
            <Position>
              <LatitudeDegrees>40.4212973825633525848388671875</LatitudeDegrees>
              <LongitudeDegrees>-3.69217327795922756195068359375</LongitudeDegrees>
            </Position>
            <AltitudeMeters>656.79998779296875</AltitudeMeters>
            <DistanceMeters>42630.981769807</DistanceMeters>
          </Trackpoint>
          <Trackpoint>
            <Time>2021-09-26T11:58:22.000Z</Time>
            <Position>
              <LatitudeDegrees>40.42134272865951061248779296875</LatitudeDegrees>
              <LongitudeDegrees>-3.69214209727942943572998046875</LongitudeDegrees>
            </Position>
            <AltitudeMeters>656.5999755859375</AltitudeMeters>
            <DistanceMeters>42636.678619352</DistanceMeters>
          </Trackpoint>
          <Trackpoint>
            <Time>2021-09-26T11:58:30.000Z</Time>
            <Position>
              <LatitudeDegrees>40.42151757515966892242431640625</LatitudeDegrees>
              <LongitudeDegrees>-3.69204067625105381011962890625</LongitudeDegrees>
            </Position>
            <AltitudeMeters>655</AltitudeMeters>
            <DistanceMeters>42657.952297248</DistanceMeters>
          </Trackpoint>
          <Trackpoint>
            <Time>2021-09-26T11:58:37.000Z</Time>
            <Position>
              <LatitudeDegrees>40.4216973669826984405517578125</LatitudeDegrees>
              <LongitudeDegrees>-3.69197797961533069610595703125</LongitudeDegrees>
            </Position>
            <AltitudeMeters>654</AltitudeMeters>
            <DistanceMeters>42678.656566345</DistanceMeters>
          </Trackpoint>
          <Trackpoint>
            <Time>2021-09-26T11:58:38.000Z</Time>
            <Position>
              <LatitudeDegrees>40.421722345054149627685546875</LatitudeDegrees>
              <LongitudeDegrees>-3.6919673345983028411865234375</LongitudeDegrees>
            </Position>
            <AltitudeMeters>654</AltitudeMeters>
            <DistanceMeters>42681.579313737</DistanceMeters>
          </Trackpoint>
          <Trackpoint>
            <Time>2021-09-26T11:58:44.000Z</Time>
            <Position>
              <LatitudeDegrees>40.42187380604445934295654296875</LatitudeDegrees>
              <LongitudeDegrees>-3.6919049732387065887451171875</LongitudeDegrees>
            </Position>
            <AltitudeMeters>654.20001220703125</AltitudeMeters>
            <DistanceMeters>42699.245595238</DistanceMeters>
          </Trackpoint>
          <Trackpoint>
            <Time>2021-09-26T11:58:50.000Z</Time>
            <Position>
              <LatitudeDegrees>40.42201059870421886444091796875</LatitudeDegrees>
              <LongitudeDegrees>-3.69185845367610454559326171875</LongitudeDegrees>
            </Position>
            <AltitudeMeters>655</AltitudeMeters>
            <DistanceMeters>42714.972731782</DistanceMeters>
          </Trackpoint>
          <Trackpoint>
            <Time>2021-09-26T11:58:53.000Z</Time>
            <Position>
              <LatitudeDegrees>40.42207865975797176361083984375</LatitudeDegrees>
              <LongitudeDegrees>-3.691823668777942657470703125</LongitudeDegrees>
            </Position>
            <AltitudeMeters>655.4000244140625</AltitudeMeters>
            <DistanceMeters>42723.101266049</DistanceMeters>
          </Trackpoint>
        </Track>
      </Lap>
    </Activity>
  </Activities>
</TrainingCenterDatabase>
